<?xml version="1.0" encoding="UTF-8" standalone="no" ?>
<gpx xmlns="http://www.topografix.com/GPX/1/1" xmlns:xsi="http://www.w3.org/2001/XMLSchema-instance" xsi:schemaLocation="http://www.topografix.com/GPX/1/1 http://www.topografix.com/GPX/1/1/gpx.xsd" version="1.1" creator="VisuGPX - https://www.visugpx.com">
  <metadata>
    <name>Boucle de Beaucens par lac d'Isaby</name>
    <desc><![CDATA[Parcours vtt enduro de 36 kms. DÃ©part de Beaucens en passant par le lac d'Isaby.
AprÃ¨s une montÃ©e assez physique d'environ 15 kms (90% de route - 10% de singles) vous arriverez Ã  la station de ski d'Hautacam. Ensuite se sera une descente de 21 kms par de superbes singles en passant tout d'abord par le lac d'Isaby. Ensuite s'engage une descente en foret. Une belle boucle trÃ¨s variÃ©es (passages techniques, singles rapides, singles a flans de montagne avec une vue panormique sur Pierrefitte-Nestalas). ]]></desc>
  </metadata>
  <trk>
    <name><![CDATA[2021/10/09 08:28:12]]></name>
    <extensions>
      <line xmlns="http://www.topografix.com/GPX/gpx_style/0/2">
        <color>0000FF</color>
        <width>4</width>
      </line>
    </extensions>
    <trkseg>
      <trkpt lat="43.00416" lon="-0.07965">
        <ele>429.6</ele>
        <time>2021-10-09T08:28:12</time>
      </trkpt>
      <trkpt lat="43.00418" lon="-0.07964">
        <ele>429.8</ele>
        <time>2021-10-09T08:28:13</time>
      </trkpt>
      <trkpt lat="43.0042" lon="-0.07962">
        <ele>430</ele>
        <time>2021-10-09T08:28:14</time>
      </trkpt>
      <trkpt lat="43.00422" lon="-0.07961">
        <ele>430.2</ele>
        <time>2021-10-09T08:28:15</time>
      </trkpt>
      <trkpt lat="43.00425" lon="-0.07961">
        <ele>430.2</ele>
        <time>2021-10-09T08:28:16</time>
      </trkpt>
      <trkpt lat="43.00427" lon="-0.07961">
        <ele>430.2</ele>
        <time>2021-10-09T08:28:17</time>
      </trkpt>
      <trkpt lat="43.0043" lon="-0.07961">
        <ele>430.4</ele>
        <time>2021-10-09T08:28:18</time>
      </trkpt>
      <trkpt lat="43.00432" lon="-0.07961">
        <ele>430.6</ele>
        <time>2021-10-09T08:28:19</time>
      </trkpt>
      <trkpt lat="43.00434" lon="-0.07961">
        <ele>430.6</ele>
        <time>2021-10-09T08:28:20</time>
      </trkpt>
      <trkpt lat="43.00436" lon="-0.07962">
        <ele>430.8</ele>
        <time>2021-10-09T08:28:21</time>
      </trkpt>
      <trkpt lat="43.00438" lon="-0.07961">
        <ele>431</ele>
        <time>2021-10-09T08:28:22</time>
      </trkpt>
      <trkpt lat="43.00439" lon="-0.0796">
        <ele>431.2</ele>
        <time>2021-10-09T08:28:23</time>
      </trkpt>
      <trkpt lat="43.0044" lon="-0.07959">
        <ele>431.4</ele>
        <time>2021-10-09T08:28:24</time>
      </trkpt>
      <trkpt lat="43.0044" lon="-0.07956">
        <ele>431.4</ele>
        <time>2021-10-09T08:28:25</time>
      </trkpt>
      <trkpt lat="43.0044" lon="-0.07953">
        <ele>431.6</ele>
        <time>2021-10-09T08:28:26</time>
      </trkpt>
      <trkpt lat="43.0044" lon="-0.0795">
        <ele>431.6</ele>
        <time>2021-10-09T08:28:27</time>
      </trkpt>
      <trkpt lat="43.0044" lon="-0.07948">
        <ele>431.8</ele>
        <time>2021-10-09T08:28:28</time>
      </trkpt>
      <trkpt lat="43.0044" lon="-0.07946">
        <ele>432</ele>
        <time>2021-10-09T08:28:29</time>
      </trkpt>
      <trkpt lat="43.00439" lon="-0.07944">
        <ele>432</ele>
        <time>2021-10-09T08:28:30</time>
      </trkpt>
      <trkpt lat="43.00438" lon="-0.07942">
        <ele>432.2</ele>
        <time>2021-10-09T08:28:31</time>
      </trkpt>
      <trkpt lat="43.00437" lon="-0.07941">
        <ele>432.2</ele>
        <time>2021-10-09T08:28:32</time>
      </trkpt>
      <trkpt lat="43.00435" lon="-0.0794">
        <ele>432.2</ele>
        <time>2021-10-09T08:28:33</time>
      </trkpt>
      <trkpt lat="43.00433" lon="-0.07939">
        <ele>432.4</ele>
        <time>2021-10-09T08:28:34</time>
      </trkpt>
      <trkpt lat="43.00431" lon="-0.07938">
        <ele>432.4</ele>
        <time>2021-10-09T08:28:35</time>
      </trkpt>
      <trkpt lat="43.0043" lon="-0.07937">
        <ele>432.8</ele>
        <time>2021-10-09T08:28:36</time>
      </trkpt>
      <trkpt lat="43.00428" lon="-0.07935">
        <ele>432.8</ele>
        <time>2021-10-09T08:28:37</time>
      </trkpt>
      <trkpt lat="43.00426" lon="-0.07934">
        <ele>432.8</ele>
        <time>2021-10-09T08:28:38</time>
      </trkpt>
      <trkpt lat="43.00424" lon="-0.07933">
        <ele>433</ele>
        <time>2021-10-09T08:28:39</time>
      </trkpt>
      <trkpt lat="43.00422" lon="-0.07931">
        <ele>433.2</ele>
        <time>2021-10-09T08:28:40</time>
      </trkpt>
      <trkpt lat="43.0042" lon="-0.0793">
        <ele>433.2</ele>
        <time>2021-10-09T08:28:41</time>
      </trkpt>
      <trkpt lat="43.00418" lon="-0.07928">
        <ele>433.4</ele>
        <time>2021-10-09T08:28:42</time>
      </trkpt>
      <trkpt lat="43.00416" lon="-0.07926">
        <ele>433.6</ele>
        <time>2021-10-09T08:28:43</time>
      </trkpt>
      <trkpt lat="43.00414" lon="-0.07924">
        <ele>433.8</ele>
        <time>2021-10-09T08:28:44</time>
      </trkpt>
      <trkpt lat="43.00412" lon="-0.07921">
        <ele>433.8</ele>
        <time>2021-10-09T08:28:45</time>
      </trkpt>
      <trkpt lat="43.0041" lon="-0.07919">
        <ele>433.8</ele>
        <time>2021-10-09T08:28:46</time>
      </trkpt>
      <trkpt lat="43.00408" lon="-0.07916">
        <ele>434</ele>
        <time>2021-10-09T08:28:47</time>
      </trkpt>
      <trkpt lat="43.00406" lon="-0.07913">
        <ele>434</ele>
        <time>2021-10-09T08:28:48</time>
      </trkpt>
      <trkpt lat="43.00404" lon="-0.07911">
        <ele>434.2</ele>
        <time>2021-10-09T08:28:49</time>
      </trkpt>
      <trkpt lat="43.00402" lon="-0.07908">
        <ele>434.2</ele>
        <time>2021-10-09T08:28:50</time>
      </trkpt>
      <trkpt lat="43.004" lon="-0.07905">
        <ele>434.2</ele>
        <time>2021-10-09T08:28:51</time>
      </trkpt>
      <trkpt lat="43.00398" lon="-0.07902">
        <ele>434.4</ele>
        <time>2021-10-09T08:28:52</time>
      </trkpt>
      <trkpt lat="43.00397" lon="-0.07899">
        <ele>434.6</ele>
        <time>2021-10-09T08:28:53</time>
      </trkpt>
      <trkpt lat="43.00395" lon="-0.07897">
        <ele>434.6</ele>
        <time>2021-10-09T08:28:54</time>
      </trkpt>
      <trkpt lat="43.00393" lon="-0.07894">
        <ele>434.6</ele>
        <time>2021-10-09T08:28:55</time>
      </trkpt>
      <trkpt lat="43.00391" lon="-0.07891">
        <ele>434.6</ele>
        <time>2021-10-09T08:28:56</time>
      </trkpt>
      <trkpt lat="43.00389" lon="-0.07888">
        <ele>434.8</ele>
        <time>2021-10-09T08:28:57</time>
      </trkpt>
      <trkpt lat="43.00387" lon="-0.07885">
        <ele>435</ele>
        <time>2021-10-09T08:28:58</time>
      </trkpt>
      <trkpt lat="43.00385" lon="-0.07882">
        <ele>435</ele>
        <time>2021-10-09T08:28:59</time>
      </trkpt>
      <trkpt lat="43.00383" lon="-0.07879">
        <ele>435</ele>
        <time>2021-10-09T08:29:00</time>
      </trkpt>
      <trkpt lat="43.00382" lon="-0.07876">
        <ele>435.2</ele>
        <time>2021-10-09T08:29:01</time>
      </trkpt>
      <trkpt lat="43.0038" lon="-0.07872">
        <ele>435.4</ele>
        <time>2021-10-09T08:29:02</time>
      </trkpt>
      <trkpt lat="43.00379" lon="-0.07869">
        <ele>435.6</ele>
        <time>2021-10-09T08:29:03</time>
      </trkpt>
      <trkpt lat="43.00378" lon="-0.07865">
        <ele>435.8</ele>
        <time>2021-10-09T08:29:04</time>
      </trkpt>
      <trkpt lat="43.00376" lon="-0.07861">
        <ele>436</ele>
        <time>2021-10-09T08:29:05</time>
      </trkpt>
      <trkpt lat="43.00375" lon="-0.07858">
        <ele>436</ele>
        <time>2021-10-09T08:29:06</time>
      </trkpt>
      <trkpt lat="43.00374" lon="-0.07854">
        <ele>436.2</ele>
        <time>2021-10-09T08:29:07</time>
      </trkpt>
      <trkpt lat="43.00372" lon="-0.0785">
        <ele>436.4</ele>
        <time>2021-10-09T08:29:08</time>
      </trkpt>
      <trkpt lat="43.00371" lon="-0.07846">
        <ele>436.4</ele>
        <time>2021-10-09T08:29:09</time>
      </trkpt>
      <trkpt lat="43.00369" lon="-0.07843">
        <ele>436.4</ele>
        <time>2021-10-09T08:29:10</time>
      </trkpt>
      <trkpt lat="43.00368" lon="-0.07839">
        <ele>436.6</ele>
        <time>2021-10-09T08:29:11</time>
      </trkpt>
      <trkpt lat="43.00367" lon="-0.07835">
        <ele>436.6</ele>
        <time>2021-10-09T08:29:12</time>
      </trkpt>
      <trkpt lat="43.00366" lon="-0.07831">
        <ele>436.8</ele>
        <time>2021-10-09T08:29:13</time>
      </trkpt>
      <trkpt lat="43.00364" lon="-0.07827">
        <ele>437.2</ele>
        <time>2021-10-09T08:29:14</time>
      </trkpt>
      <trkpt lat="43.00363" lon="-0.07822">
        <ele>437.2</ele>
        <time>2021-10-09T08:29:15</time>
      </trkpt>
      <trkpt lat="43.00362" lon="-0.07818">
        <ele>437.4</ele>
        <time>2021-10-09T08:29:16</time>
      </trkpt>
      <trkpt lat="43.00361" lon="-0.07814">
        <ele>437.4</ele>
        <time>2021-10-09T08:29:17</time>
      </trkpt>
      <trkpt lat="43.0036" lon="-0.0781">
        <ele>437.6</ele>
        <time>2021-10-09T08:29:18</time>
      </trkpt>
      <trkpt lat="43.00359" lon="-0.07806">
        <ele>437.8</ele>
        <time>2021-10-09T08:29:19</time>
      </trkpt>
      <trkpt lat="43.00358" lon="-0.07802">
        <ele>438.2</ele>
        <time>2021-10-09T08:29:20</time>
      </trkpt>
      <trkpt lat="43.00357" lon="-0.07798">
        <ele>438.4</ele>
        <time>2021-10-09T08:29:21</time>
      </trkpt>
      <trkpt lat="43.00356" lon="-0.07794">
        <ele>438.4</ele>
        <time>2021-10-09T08:29:22</time>
      </trkpt>
      <trkpt lat="43.00356" lon="-0.0779">
        <ele>438.6</ele>
        <time>2021-10-09T08:29:23</time>
      </trkpt>
      <trkpt lat="43.00355" lon="-0.07787">
        <ele>438.8</ele>
        <time>2021-10-09T08:29:24</time>
      </trkpt>
      <trkpt lat="43.00355" lon="-0.07782">
        <ele>439</ele>
        <time>2021-10-09T08:29:25</time>
      </trkpt>
      <trkpt lat="43.00354" lon="-0.07778">
        <ele>439</ele>
        <time>2021-10-09T08:29:26</time>
      </trkpt>
      <trkpt lat="43.00354" lon="-0.07773">
        <ele>439</ele>
        <time>2021-10-09T08:29:27</time>
      </trkpt>
      <trkpt lat="43.00353" lon="-0.0777">
        <ele>439.2</ele>
        <time>2021-10-09T08:29:28</time>
      </trkpt>
      <trkpt lat="43.00353" lon="-0.07766">
        <ele>439.4</ele>
        <time>2021-10-09T08:29:29</time>
      </trkpt>
      <trkpt lat="43.00352" lon="-0.07762">
        <ele>439.6</ele>
        <time>2021-10-09T08:29:30</time>
      </trkpt>
      <trkpt lat="43.00352" lon="-0.07758">
        <ele>439.8</ele>
        <time>2021-10-09T08:29:31</time>
      </trkpt>
      <trkpt lat="43.00351" lon="-0.07754">
        <ele>439.8</ele>
        <time>2021-10-09T08:29:32</time>
      </trkpt>
      <trkpt lat="43.0035" lon="-0.0775">
        <ele>440</ele>
        <time>2021-10-09T08:29:33</time>
      </trkpt>
      <trkpt lat="43.00349" lon="-0.07746">
        <ele>440.2</ele>
        <time>2021-10-09T08:29:34</time>
      </trkpt>
      <trkpt lat="43.00348" lon="-0.07742">
        <ele>440.2</ele>
        <time>2021-10-09T08:29:35</time>
      </trkpt>
      <trkpt lat="43.00347" lon="-0.07739">
        <ele>440.6</ele>
        <time>2021-10-09T08:29:36</time>
      </trkpt>
      <trkpt lat="43.00346" lon="-0.07735">
        <ele>440.6</ele>
        <time>2021-10-09T08:29:37</time>
      </trkpt>
      <trkpt lat="43.00344" lon="-0.07731">
        <ele>440.8</ele>
        <time>2021-10-09T08:29:38</time>
      </trkpt>
      <trkpt lat="43.00344" lon="-0.07728">
        <ele>441</ele>
        <time>2021-10-09T08:29:39</time>
      </trkpt>
      <trkpt lat="43.00342" lon="-0.07724">
        <ele>441</ele>
        <time>2021-10-09T08:29:40</time>
      </trkpt>
      <trkpt lat="43.00341" lon="-0.0772">
        <ele>441.2</ele>
        <time>2021-10-09T08:29:41</time>
      </trkpt>
      <trkpt lat="43.00339" lon="-0.07716">
        <ele>441.4</ele>
        <time>2021-10-09T08:29:42</time>
      </trkpt>
      <trkpt lat="43.00338" lon="-0.07712">
        <ele>441.4</ele>
        <time>2021-10-09T08:29:43</time>
      </trkpt>
      <trkpt lat="43.00337" lon="-0.07707">
        <ele>441.6</ele>
        <time>2021-10-09T08:29:44</time>
      </trkpt>
      <trkpt lat="43.00335" lon="-0.07703">
        <ele>441.8</ele>
        <time>2021-10-09T08:29:45</time>
      </trkpt>
      <trkpt lat="43.00334" lon="-0.077">
        <ele>441.8</ele>
        <time>2021-10-09T08:29:46</time>
      </trkpt>
      <trkpt lat="43.00333" lon="-0.07696">
        <ele>442</ele>
        <time>2021-10-09T08:29:47</time>
      </trkpt>
      <trkpt lat="43.00332" lon="-0.07692">
        <ele>442.2</ele>
        <time>2021-10-09T08:29:48</time>
      </trkpt>
      <trkpt lat="43.0033" lon="-0.07687">
        <ele>442.4</ele>
        <time>2021-10-09T08:29:49</time>
      </trkpt>
      <trkpt lat="43.00329" lon="-0.07683">
        <ele>442.6</ele>
        <time>2021-10-09T08:29:50</time>
      </trkpt>
      <trkpt lat="43.00328" lon="-0.0768">
        <ele>442.6</ele>
        <time>2021-10-09T08:29:51</time>
      </trkpt>
      <trkpt lat="43.00327" lon="-0.07676">
        <ele>442.8</ele>
        <time>2021-10-09T08:29:52</time>
      </trkpt>
      <trkpt lat="43.00324" lon="-0.07672">
        <ele>443</ele>
        <time>2021-10-09T08:29:53</time>
      </trkpt>
      <trkpt lat="43.00322" lon="-0.07669">
        <ele>443.2</ele>
        <time>2021-10-09T08:29:54</time>
      </trkpt>
      <trkpt lat="43.00321" lon="-0.07665">
        <ele>443.2</ele>
        <time>2021-10-09T08:29:55</time>
      </trkpt>
      <trkpt lat="43.0032" lon="-0.07661">
        <ele>443.4</ele>
        <time>2021-10-09T08:29:56</time>
      </trkpt>
      <trkpt lat="43.00319" lon="-0.07657">
        <ele>443.4</ele>
        <time>2021-10-09T08:29:57</time>
      </trkpt>
      <trkpt lat="43.00318" lon="-0.07653">
        <ele>443.6</ele>
        <time>2021-10-09T08:29:58</time>
      </trkpt>
      <trkpt lat="43.00316" lon="-0.07649">
        <ele>443.8</ele>
        <time>2021-10-09T08:29:59</time>
      </trkpt>
      <trkpt lat="43.00315" lon="-0.07646">
        <ele>443.8</ele>
        <time>2021-10-09T08:30:00</time>
      </trkpt>
      <trkpt lat="43.00314" lon="-0.07642">
        <ele>443.8</ele>
        <time>2021-10-09T08:30:01</time>
      </trkpt>
      <trkpt lat="43.00313" lon="-0.07638">
        <ele>444</ele>
        <time>2021-10-09T08:30:02</time>
      </trkpt>
      <trkpt lat="43.00312" lon="-0.07635">
        <ele>444</ele>
        <time>2021-10-09T08:30:03</time>
      </trkpt>
      <trkpt lat="43.00311" lon="-0.07631">
        <ele>444.2</ele>
        <time>2021-10-09T08:30:04</time>
      </trkpt>
      <trkpt lat="43.0031" lon="-0.07627">
        <ele>444.2</ele>
        <time>2021-10-09T08:30:05</time>
      </trkpt>
      <trkpt lat="43.00309" lon="-0.07623">
        <ele>444.2</ele>
        <time>2021-10-09T08:30:06</time>
      </trkpt>
      <trkpt lat="43.00308" lon="-0.07619">
        <ele>444.4</ele>
        <time>2021-10-09T08:30:07</time>
      </trkpt>
      <trkpt lat="43.00307" lon="-0.07615">
        <ele>444.4</ele>
        <time>2021-10-09T08:30:08</time>
      </trkpt>
      <trkpt lat="43.00306" lon="-0.07611">
        <ele>444.4</ele>
        <time>2021-10-09T08:30:09</time>
      </trkpt>
      <trkpt lat="43.00306" lon="-0.07607">
        <ele>444.4</ele>
        <time>2021-10-09T08:30:10</time>
      </trkpt>
      <trkpt lat="43.00305" lon="-0.07602">
        <ele>444.4</ele>
        <time>2021-10-09T08:30:11</time>
      </trkpt>
      <trkpt lat="43.00304" lon="-0.07598">
        <ele>444.4</ele>
        <time>2021-10-09T08:30:12</time>
      </trkpt>
      <trkpt lat="43.00304" lon="-0.07593">
        <ele>444.6</ele>
        <time>2021-10-09T08:30:13</time>
      </trkpt>
      <trkpt lat="43.00303" lon="-0.07588">
        <ele>444.6</ele>
        <time>2021-10-09T08:30:14</time>
      </trkpt>
      <trkpt lat="43.00303" lon="-0.07584">
        <ele>444.6</ele>
        <time>2021-10-09T08:30:15</time>
      </trkpt>
      <trkpt lat="43.00302" lon="-0.07579">
        <ele>444.8</ele>
        <time>2021-10-09T08:30:16</time>
      </trkpt>
      <trkpt lat="43.00301" lon="-0.07574">
        <ele>444.8</ele>
        <time>2021-10-09T08:30:17</time>
      </trkpt>
      <trkpt lat="43.00301" lon="-0.0757">
        <ele>444.8</ele>
        <time>2021-10-09T08:30:18</time>
      </trkpt>
      <trkpt lat="43.00301" lon="-0.07565">
        <ele>444.8</ele>
        <time>2021-10-09T08:30:19</time>
      </trkpt>
      <trkpt lat="43.003" lon="-0.07561">
        <ele>445</ele>
        <time>2021-10-09T08:30:20</time>
      </trkpt>
      <trkpt lat="43.003" lon="-0.07557">
        <ele>445</ele>
        <time>2021-10-09T08:30:21</time>
      </trkpt>
      <trkpt lat="43.003" lon="-0.07553">
        <ele>445</ele>
        <time>2021-10-09T08:30:22</time>
      </trkpt>
      <trkpt lat="43.00299" lon="-0.07548">
        <ele>445.2</ele>
        <time>2021-10-09T08:30:23</time>
      </trkpt>
      <trkpt lat="43.00299" lon="-0.07544">
        <ele>445.2</ele>
        <time>2021-10-09T08:30:24</time>
      </trkpt>
      <trkpt lat="43.00299" lon="-0.07539">
        <ele>445.2</ele>
        <time>2021-10-09T08:30:25</time>
      </trkpt>
      <trkpt lat="43.00299" lon="-0.07535">
        <ele>445.2</ele>
        <time>2021-10-09T08:30:26</time>
      </trkpt>
      <trkpt lat="43.00298" lon="-0.0753">
        <ele>445.2</ele>
        <time>2021-10-09T08:30:27</time>
      </trkpt>
      <trkpt lat="43.00298" lon="-0.07525">
        <ele>445.2</ele>
        <time>2021-10-09T08:30:28</time>
      </trkpt>
      <trkpt lat="43.00298" lon="-0.0752">
        <ele>445.4</ele>
        <time>2021-10-09T08:30:29</time>
      </trkpt>
      <trkpt lat="43.00298" lon="-0.07516">
        <ele>445.6</ele>
        <time>2021-10-09T08:30:30</time>
      </trkpt>
      <trkpt lat="43.00298" lon="-0.07511">
        <ele>445.4</ele>
        <time>2021-10-09T08:30:31</time>
      </trkpt>
      <trkpt lat="43.00298" lon="-0.07507">
        <ele>445.4</ele>
        <time>2021-10-09T08:30:32</time>
      </trkpt>
      <trkpt lat="43.00298" lon="-0.07502">
        <ele>445.4</ele>
        <time>2021-10-09T08:30:33</time>
      </trkpt>
      <trkpt lat="43.00299" lon="-0.07497">
        <ele>445.6</ele>
        <time>2021-10-09T08:30:34</time>
      </trkpt>
      <trkpt lat="43.00299" lon="-0.07492">
        <ele>445.6</ele>
        <time>2021-10-09T08:30:35</time>
      </trkpt>
      <trkpt lat="43.00299" lon="-0.07487">
        <ele>445.6</ele>
        <time>2021-10-09T08:30:36</time>
      </trkpt>
      <trkpt lat="43.003" lon="-0.07482">
        <ele>445.8</ele>
        <time>2021-10-09T08:30:37</time>
      </trkpt>
      <trkpt lat="43.003" lon="-0.07477">
        <ele>445.6</ele>
        <time>2021-10-09T08:30:38</time>
      </trkpt>
      <trkpt lat="43.00301" lon="-0.07472">
        <ele>445.8</ele>
        <time>2021-10-09T08:30:39</time>
      </trkpt>
      <trkpt lat="43.00301" lon="-0.07467">
        <ele>445.8</ele>
        <time>2021-10-09T08:30:40</time>
      </trkpt>
      <trkpt lat="43.00301" lon="-0.07462">
        <ele>445.6</ele>
        <time>2021-10-09T08:30:41</time>
      </trkpt>
      <trkpt lat="43.00301" lon="-0.07458">
        <ele>445.6</ele>
        <time>2021-10-09T08:30:42</time>
      </trkpt>
      <trkpt lat="43.00301" lon="-0.07453">
        <ele>445.6</ele>
        <time>2021-10-09T08:30:43</time>
      </trkpt>
      <trkpt lat="43.00301" lon="-0.07448">
        <ele>445.4</ele>
        <time>2021-10-09T08:30:44</time>
      </trkpt>
      <trkpt lat="43.003" lon="-0.07443">
        <ele>445.4</ele>
        <time>2021-10-09T08:30:45</time>
      </trkpt>
      <trkpt lat="43.003" lon="-0.07438">
        <ele>445.4</ele>
        <time>2021-10-09T08:30:46</time>
      </trkpt>
      <trkpt lat="43.00299" lon="-0.07432">
        <ele>445.2</ele>
        <time>2021-10-09T08:30:47</time>
      </trkpt>
      <trkpt lat="43.00298" lon="-0.07427">
        <ele>445.2</ele>
        <time>2021-10-09T08:30:48</time>
      </trkpt>
      <trkpt lat="43.00296" lon="-0.07422">
        <ele>445</ele>
        <time>2021-10-09T08:30:49</time>
      </trkpt>
      <trkpt lat="43.00295" lon="-0.07417">
        <ele>444.8</ele>
        <time>2021-10-09T08:30:50</time>
      </trkpt>
      <trkpt lat="43.00293" lon="-0.07411">
        <ele>445</ele>
        <time>2021-10-09T08:30:51</time>
      </trkpt>
      <trkpt lat="43.00292" lon="-0.07406">
        <ele>444.8</ele>
        <time>2021-10-09T08:30:52</time>
      </trkpt>
      <trkpt lat="43.0029" lon="-0.074">
        <ele>444.6</ele>
        <time>2021-10-09T08:30:53</time>
      </trkpt>
      <trkpt lat="43.00288" lon="-0.07395">
        <ele>444.6</ele>
        <time>2021-10-09T08:30:54</time>
      </trkpt>
      <trkpt lat="43.00287" lon="-0.07389">
        <ele>444.6</ele>
        <time>2021-10-09T08:30:55</time>
      </trkpt>
      <trkpt lat="43.00285" lon="-0.07384">
        <ele>444.4</ele>
        <time>2021-10-09T08:30:56</time>
      </trkpt>
      <trkpt lat="43.00283" lon="-0.07379">
        <ele>444.4</ele>
        <time>2021-10-09T08:30:57</time>
      </trkpt>
      <trkpt lat="43.00282" lon="-0.07374">
        <ele>444.2</ele>
        <time>2021-10-09T08:30:58</time>
      </trkpt>
      <trkpt lat="43.0028" lon="-0.07369">
        <ele>444.2</ele>
        <time>2021-10-09T08:30:59</time>
      </trkpt>
      <trkpt lat="43.00278" lon="-0.07364">
        <ele>444.2</ele>
        <time>2021-10-09T08:31:00</time>
      </trkpt>
      <trkpt lat="43.00277" lon="-0.07359">
        <ele>444</ele>
        <time>2021-10-09T08:31:01</time>
      </trkpt>
      <trkpt lat="43.00275" lon="-0.07353">
        <ele>444</ele>
        <time>2021-10-09T08:31:02</time>
      </trkpt>
      <trkpt lat="43.00274" lon="-0.07348">
        <ele>444</ele>
        <time>2021-10-09T08:31:03</time>
      </trkpt>
      <trkpt lat="43.00272" lon="-0.07342">
        <ele>444</ele>
        <time>2021-10-09T08:31:04</time>
      </trkpt>
      <trkpt lat="43.0027" lon="-0.07337">
        <ele>444</ele>
        <time>2021-10-09T08:31:05</time>
      </trkpt>
      <trkpt lat="43.00268" lon="-0.07331">
        <ele>444</ele>
        <time>2021-10-09T08:31:06</time>
      </trkpt>
      <trkpt lat="43.00267" lon="-0.07326">
        <ele>444</ele>
        <time>2021-10-09T08:31:07</time>
      </trkpt>
      <trkpt lat="43.00265" lon="-0.0732">
        <ele>444</ele>
        <time>2021-10-09T08:31:08</time>
      </trkpt>
      <trkpt lat="43.00263" lon="-0.07315">
        <ele>444</ele>
        <time>2021-10-09T08:31:09</time>
      </trkpt>
      <trkpt lat="43.00262" lon="-0.07309">
        <ele>444</ele>
        <time>2021-10-09T08:31:10</time>
      </trkpt>
      <trkpt lat="43.0026" lon="-0.07304">
        <ele>444.2</ele>
        <time>2021-10-09T08:31:11</time>
      </trkpt>
      <trkpt lat="43.00258" lon="-0.07299">
        <ele>444.2</ele>
        <time>2021-10-09T08:31:12</time>
      </trkpt>
      <trkpt lat="43.00256" lon="-0.07293">
        <ele>444.4</ele>
        <time>2021-10-09T08:31:13</time>
      </trkpt>
      <trkpt lat="43.00255" lon="-0.07288">
        <ele>444.4</ele>
        <time>2021-10-09T08:31:14</time>
      </trkpt>
      <trkpt lat="43.00253" lon="-0.07283">
        <ele>444.6</ele>
        <time>2021-10-09T08:31:15</time>
      </trkpt>
      <trkpt lat="43.00251" lon="-0.07278">
        <ele>444.8</ele>
        <time>2021-10-09T08:31:16</time>
      </trkpt>
      <trkpt lat="43.0025" lon="-0.07273">
        <ele>445</ele>
        <time>2021-10-09T08:31:17</time>
      </trkpt>
      <trkpt lat="43.00248" lon="-0.07268">
        <ele>445</ele>
        <time>2021-10-09T08:31:18</time>
      </trkpt>
      <trkpt lat="43.00246" lon="-0.07263">
        <ele>445.2</ele>
        <time>2021-10-09T08:31:19</time>
      </trkpt>
      <trkpt lat="43.00245" lon="-0.07257">
        <ele>445.2</ele>
        <time>2021-10-09T08:31:20</time>
      </trkpt>
      <trkpt lat="43.00243" lon="-0.07252">
        <ele>445.4</ele>
        <time>2021-10-09T08:31:21</time>
      </trkpt>
      <trkpt lat="43.00241" lon="-0.07247">
        <ele>445.6</ele>
        <time>2021-10-09T08:31:22</time>
      </trkpt>
      <trkpt lat="43.0024" lon="-0.07242">
        <ele>445.8</ele>
        <time>2021-10-09T08:31:23</time>
      </trkpt>
      <trkpt lat="43.00238" lon="-0.07237">
        <ele>445.8</ele>
        <time>2021-10-09T08:31:24</time>
      </trkpt>
      <trkpt lat="43.00236" lon="-0.07232">
        <ele>446</ele>
        <time>2021-10-09T08:31:25</time>
      </trkpt>
      <trkpt lat="43.00234" lon="-0.07227">
        <ele>446.2</ele>
        <time>2021-10-09T08:31:26</time>
      </trkpt>
      <trkpt lat="43.00233" lon="-0.07223">
        <ele>446.2</ele>
        <time>2021-10-09T08:31:27</time>
      </trkpt>
      <trkpt lat="43.00231" lon="-0.07218">
        <ele>446.6</ele>
        <time>2021-10-09T08:31:28</time>
      </trkpt>
      <trkpt lat="43.00229" lon="-0.07213">
        <ele>446.6</ele>
        <time>2021-10-09T08:31:29</time>
      </trkpt>
      <trkpt lat="43.00228" lon="-0.07208">
        <ele>446.6</ele>
        <time>2021-10-09T08:31:30</time>
      </trkpt>
      <trkpt lat="43.00226" lon="-0.07204">
        <ele>447</ele>
        <time>2021-10-09T08:31:31</time>
      </trkpt>
      <trkpt lat="43.00225" lon="-0.07199">
        <ele>447</ele>
        <time>2021-10-09T08:31:32</time>
      </trkpt>
      <trkpt lat="43.00223" lon="-0.07195">
        <ele>447</ele>
        <time>2021-10-09T08:31:33</time>
      </trkpt>
      <trkpt lat="43.00221" lon="-0.0719">
        <ele>447.4</ele>
        <time>2021-10-09T08:31:34</time>
      </trkpt>
      <trkpt lat="43.0022" lon="-0.07186">
        <ele>447.6</ele>
        <time>2021-10-09T08:31:35</time>
      </trkpt>
      <trkpt lat="43.00218" lon="-0.07182">
        <ele>447.6</ele>
        <time>2021-10-09T08:31:36</time>
      </trkpt>
      <trkpt lat="43.00217" lon="-0.07178">
        <ele>447.8</ele>
        <time>2021-10-09T08:31:37</time>
      </trkpt>
      <trkpt lat="43.00215" lon="-0.07173">
        <ele>448</ele>
        <time>2021-10-09T08:31:38</time>
      </trkpt>
      <trkpt lat="43.00213" lon="-0.07169">
        <ele>448.2</ele>
        <time>2021-10-09T08:31:39</time>
      </trkpt>
      <trkpt lat="43.00212" lon="-0.07165">
        <ele>448.4</ele>
        <time>2021-10-09T08:31:40</time>
      </trkpt>
      <trkpt lat="43.0021" lon="-0.07161">
        <ele>448.6</ele>
        <time>2021-10-09T08:31:41</time>
      </trkpt>
      <trkpt lat="43.00208" lon="-0.07157">
        <ele>448.8</ele>
        <time>2021-10-09T08:31:42</time>
      </trkpt>
      <trkpt lat="43.00207" lon="-0.07153">
        <ele>448.8</ele>
        <time>2021-10-09T08:31:43</time>
      </trkpt>
      <trkpt lat="43.00205" lon="-0.07149">
        <ele>449</ele>
        <time>2021-10-09T08:31:44</time>
      </trkpt>
      <trkpt lat="43.00203" lon="-0.07145">
        <ele>449.2</ele>
        <time>2021-10-09T08:31:45</time>
      </trkpt>
      <trkpt lat="43.00201" lon="-0.07141">
        <ele>449.4</ele>
        <time>2021-10-09T08:31:46</time>
      </trkpt>
      <trkpt lat="43.002" lon="-0.07137">
        <ele>449.6</ele>
        <time>2021-10-09T08:31:47</time>
      </trkpt>
      <trkpt lat="43.00198" lon="-0.07133">
        <ele>449.8</ele>
        <time>2021-10-09T08:31:48</time>
      </trkpt>
      <trkpt lat="43.00196" lon="-0.07129">
        <ele>450</ele>
        <time>2021-10-09T08:31:49</time>
      </trkpt>
      <trkpt lat="43.00194" lon="-0.07125">
        <ele>450</ele>
        <time>2021-10-09T08:31:50</time>
      </trkpt>
      <trkpt lat="43.00193" lon="-0.07122">
        <ele>450.4</ele>
        <time>2021-10-09T08:31:51</time>
      </trkpt>
      <trkpt lat="43.00191" lon="-0.07119">
        <ele>450.4</ele>
        <time>2021-10-09T08:31:52</time>
      </trkpt>
      <trkpt lat="43.00189" lon="-0.07115">
        <ele>450.6</ele>
        <time>2021-10-09T08:31:53</time>
      </trkpt>
      <trkpt lat="43.00188" lon="-0.07112">
        <ele>451</ele>
        <time>2021-10-09T08:31:54</time>
      </trkpt>
      <trkpt lat="43.00186" lon="-0.07109">
        <ele>451.2</ele>
        <time>2021-10-09T08:31:55</time>
      </trkpt>
      <trkpt lat="43.00184" lon="-0.07106">
        <ele>451.4</ele>
        <time>2021-10-09T08:31:56</time>
      </trkpt>
      <trkpt lat="43.00183" lon="-0.07103">
        <ele>451.6</ele>
        <time>2021-10-09T08:31:57</time>
      </trkpt>
      <trkpt lat="43.00181" lon="-0.071">
        <ele>451.8</ele>
        <time>2021-10-09T08:31:58</time>
      </trkpt>
      <trkpt lat="43.00179" lon="-0.07097">
        <ele>452.2</ele>
        <time>2021-10-09T08:31:59</time>
      </trkpt>
      <trkpt lat="43.00178" lon="-0.07094">
        <ele>452.4</ele>
        <time>2021-10-09T08:32:00</time>
      </trkpt>
      <trkpt lat="43.00176" lon="-0.07091">
        <ele>452.4</ele>
        <time>2021-10-09T08:32:01</time>
      </trkpt>
      <trkpt lat="43.00174" lon="-0.07089">
        <ele>452.8</ele>
        <time>2021-10-09T08:32:02</time>
      </trkpt>
      <trkpt lat="43.00173" lon="-0.07086">
        <ele>453</ele>
        <time>2021-10-09T08:32:03</time>
      </trkpt>
      <trkpt lat="43.00171" lon="-0.07083">
        <ele>453.2</ele>
        <time>2021-10-09T08:32:04</time>
      </trkpt>
      <trkpt lat="43.0017" lon="-0.07081">
        <ele>453.6</ele>
        <time>2021-10-09T08:32:05</time>
      </trkpt>
      <trkpt lat="43.00169" lon="-0.07079">
        <ele>453.8</ele>
        <time>2021-10-09T08:32:06</time>
      </trkpt>
      <trkpt lat="43.00167" lon="-0.07076">
        <ele>454</ele>
        <time>2021-10-09T08:32:07</time>
      </trkpt>
      <trkpt lat="43.00166" lon="-0.07074">
        <ele>454.2</ele>
        <time>2021-10-09T08:32:08</time>
      </trkpt>
      <trkpt lat="43.00164" lon="-0.07071">
        <ele>454.4</ele>
        <time>2021-10-09T08:32:09</time>
      </trkpt>
      <trkpt lat="43.00162" lon="-0.07068">
        <ele>454.8</ele>
        <time>2021-10-09T08:32:10</time>
      </trkpt>
      <trkpt lat="43.00161" lon="-0.07066">
        <ele>455.2</ele>
        <time>2021-10-09T08:32:11</time>
      </trkpt>
      <trkpt lat="43.0016" lon="-0.07064">
        <ele>455.2</ele>
        <time>2021-10-09T08:32:12</time>
      </trkpt>
      <trkpt lat="43.00158" lon="-0.07061">
        <ele>455.4</ele>
        <time>2021-10-09T08:32:13</time>
      </trkpt>
      <trkpt lat="43.00157" lon="-0.07059">
        <ele>455.8</ele>
        <time>2021-10-09T08:32:14</time>
      </trkpt>
      <trkpt lat="43.00155" lon="-0.07057">
        <ele>456</ele>
        <time>2021-10-09T08:32:15</time>
      </trkpt>
      <trkpt lat="43.00154" lon="-0.07054">
        <ele>456.2</ele>
        <time>2021-10-09T08:32:16</time>
      </trkpt>
      <trkpt lat="43.00153" lon="-0.07052">
        <ele>456.4</ele>
        <time>2021-10-09T08:32:17</time>
      </trkpt>
      <trkpt lat="43.00151" lon="-0.0705">
        <ele>456.8</ele>
        <time>2021-10-09T08:32:18</time>
      </trkpt>
      <trkpt lat="43.0015" lon="-0.07047">
        <ele>457</ele>
        <time>2021-10-09T08:32:19</time>
      </trkpt>
      <trkpt lat="43.00149" lon="-0.07045">
        <ele>457.2</ele>
        <time>2021-10-09T08:32:20</time>
      </trkpt>
      <trkpt lat="43.00147" lon="-0.07042">
        <ele>457.4</ele>
        <time>2021-10-09T08:32:21</time>
      </trkpt>
      <trkpt lat="43.00146" lon="-0.0704">
        <ele>457.6</ele>
        <time>2021-10-09T08:32:22</time>
      </trkpt>
      <trkpt lat="43.00145" lon="-0.07037">
        <ele>457.8</ele>
        <time>2021-10-09T08:32:23</time>
      </trkpt>
      <trkpt lat="43.00143" lon="-0.07035">
        <ele>458</ele>
        <time>2021-10-09T08:32:24</time>
      </trkpt>
      <trkpt lat="43.00142" lon="-0.07032">
        <ele>458.2</ele>
        <time>2021-10-09T08:32:25</time>
      </trkpt>
      <trkpt lat="43.0014" lon="-0.0703">
        <ele>458.4</ele>
        <time>2021-10-09T08:32:26</time>
      </trkpt>
      <trkpt lat="43.00139" lon="-0.07027">
        <ele>458.6</ele>
        <time>2021-10-09T08:32:27</time>
      </trkpt>
      <trkpt lat="43.00137" lon="-0.07024">
        <ele>458.8</ele>
        <time>2021-10-09T08:32:28</time>
      </trkpt>
      <trkpt lat="43.00136" lon="-0.07021">
        <ele>459</ele>
        <time>2021-10-09T08:32:29</time>
      </trkpt>
      <trkpt lat="43.00134" lon="-0.07018">
        <ele>459.2</ele>
        <time>2021-10-09T08:32:30</time>
      </trkpt>
      <trkpt lat="43.00133" lon="-0.07015">
        <ele>459.2</ele>
        <time>2021-10-09T08:32:31</time>
      </trkpt>
      <trkpt lat="43.00132" lon="-0.07012">
        <ele>459.4</ele>
        <time>2021-10-09T08:32:32</time>
      </trkpt>
      <trkpt lat="43.00131" lon="-0.07008">
        <ele>459.6</ele>
        <time>2021-10-09T08:32:33</time>
      </trkpt>
      <trkpt lat="43.0013" lon="-0.07005">
        <ele>459.8</ele>
        <time>2021-10-09T08:32:34</time>
      </trkpt>
      <trkpt lat="43.00129" lon="-0.07002">
        <ele>460</ele>
        <time>2021-10-09T08:32:35</time>
      </trkpt>
      <trkpt lat="43.00128" lon="-0.06999">
        <ele>460.2</ele>
        <time>2021-10-09T08:32:36</time>
      </trkpt>
      <trkpt lat="43.00127" lon="-0.06996">
        <ele>460.4</ele>
        <time>2021-10-09T08:32:37</time>
      </trkpt>
      <trkpt lat="43.00126" lon="-0.06993">
        <ele>460.4</ele>
        <time>2021-10-09T08:32:38</time>
      </trkpt>
      <trkpt lat="43.00125" lon="-0.06989">
        <ele>460.6</ele>
        <time>2021-10-09T08:32:39</time>
      </trkpt>
      <trkpt lat="43.00124" lon="-0.06986">
        <ele>460.8</ele>
        <time>2021-10-09T08:32:40</time>
      </trkpt>
      <trkpt lat="43.00123" lon="-0.06983">
        <ele>460.8</ele>
        <time>2021-10-09T08:32:41</time>
      </trkpt>
      <trkpt lat="43.00122" lon="-0.06979">
        <ele>461</ele>
        <time>2021-10-09T08:32:42</time>
      </trkpt>
      <trkpt lat="43.00122" lon="-0.06975">
        <ele>461</ele>
        <time>2021-10-09T08:32:43</time>
      </trkpt>
      <trkpt lat="43.00122" lon="-0.06971">
        <ele>461.2</ele>
        <time>2021-10-09T08:32:44</time>
      </trkpt>
      <trkpt lat="43.00122" lon="-0.06968">
        <ele>461.4</ele>
        <time>2021-10-09T08:32:45</time>
      </trkpt>
      <trkpt lat="43.00122" lon="-0.06964">
        <ele>461.4</ele>
        <time>2021-10-09T08:32:46</time>
      </trkpt>
      <trkpt lat="43.00122" lon="-0.0696">
        <ele>461.6</ele>
        <time>2021-10-09T08:32:47</time>
      </trkpt>
      <trkpt lat="43.00124" lon="-0.06956">
        <ele>461.8</ele>
        <time>2021-10-09T08:32:48</time>
      </trkpt>
      <trkpt lat="43.00125" lon="-0.06953">
        <ele>461.8</ele>
        <time>2021-10-09T08:32:49</time>
      </trkpt>
      <trkpt lat="43.00127" lon="-0.0695">
        <ele>462.2</ele>
        <time>2021-10-09T08:32:50</time>
      </trkpt>
      <trkpt lat="43.0013" lon="-0.06948">
        <ele>462.2</ele>
        <time>2021-10-09T08:32:51</time>
      </trkpt>
      <trkpt lat="43.00132" lon="-0.06947">
        <ele>462.4</ele>
        <time>2021-10-09T08:32:52</time>
      </trkpt>
      <trkpt lat="43.00134" lon="-0.06946">
        <ele>462.6</ele>
        <time>2021-10-09T08:32:53</time>
      </trkpt>
      <trkpt lat="43.00136" lon="-0.06945">
        <ele>462.8</ele>
        <time>2021-10-09T08:32:54</time>
      </trkpt>
      <trkpt lat="43.00139" lon="-0.06944">
        <ele>463.2</ele>
        <time>2021-10-09T08:32:55</time>
      </trkpt>
      <trkpt lat="43.00141" lon="-0.06943">
        <ele>463.4</ele>
        <time>2021-10-09T08:32:56</time>
      </trkpt>
      <trkpt lat="43.00143" lon="-0.06942">
        <ele>463.6</ele>
        <time>2021-10-09T08:32:57</time>
      </trkpt>
      <trkpt lat="43.00146" lon="-0.06941">
        <ele>463.8</ele>
        <time>2021-10-09T08:32:58</time>
      </trkpt>
      <trkpt lat="43.00148" lon="-0.0694">
        <ele>464</ele>
        <time>2021-10-09T08:32:59</time>
      </trkpt>
      <trkpt lat="43.00151" lon="-0.06939">
        <ele>464.2</ele>
        <time>2021-10-09T08:33:00</time>
      </trkpt>
      <trkpt lat="43.00153" lon="-0.06938">
        <ele>464.4</ele>
        <time>2021-10-09T08:33:01</time>
      </trkpt>
      <trkpt lat="43.00156" lon="-0.06937">
        <ele>464.6</ele>
        <time>2021-10-09T08:33:02</time>
      </trkpt>
      <trkpt lat="43.00158" lon="-0.06936">
        <ele>464.8</ele>
        <time>2021-10-09T08:33:03</time>
      </trkpt>
      <trkpt lat="43.00161" lon="-0.06935">
        <ele>465</ele>
        <time>2021-10-09T08:33:04</time>
      </trkpt>
      <trkpt lat="43.00163" lon="-0.06934">
        <ele>465.2</ele>
        <time>2021-10-09T08:33:05</time>
      </trkpt>
      <trkpt lat="43.00166" lon="-0.06933">
        <ele>465.2</ele>
        <time>2021-10-09T08:33:06</time>
      </trkpt>
      <trkpt lat="43.00169" lon="-0.06933">
        <ele>465.4</ele>
        <time>2021-10-09T08:33:07</time>
      </trkpt>
      <trkpt lat="43.00171" lon="-0.06932">
        <ele>465.6</ele>
        <time>2021-10-09T08:33:08</time>
      </trkpt>
      <trkpt lat="43.00174" lon="-0.06931">
        <ele>465.6</ele>
        <time>2021-10-09T08:33:09</time>
      </trkpt>
      <trkpt lat="43.00176" lon="-0.0693">
        <ele>466</ele>
        <time>2021-10-09T08:33:10</time>
      </trkpt>
      <trkpt lat="43.00179" lon="-0.06929">
        <ele>466</ele>
        <time>2021-10-09T08:33:11</time>
      </trkpt>
      <trkpt lat="43.00181" lon="-0.06928">
        <ele>466.2</ele>
        <time>2021-10-09T08:33:12</time>
      </trkpt>
      <trkpt lat="43.00184" lon="-0.06927">
        <ele>466.4</ele>
        <time>2021-10-09T08:33:13</time>
      </trkpt>
      <trkpt lat="43.00186" lon="-0.06926">
        <ele>466.4</ele>
        <time>2021-10-09T08:33:14</time>
      </trkpt>
      <trkpt lat="43.00189" lon="-0.06925">
        <ele>466.6</ele>
        <time>2021-10-09T08:33:15</time>
      </trkpt>
      <trkpt lat="43.00192" lon="-0.06924">
        <ele>466.8</ele>
        <time>2021-10-09T08:33:16</time>
      </trkpt>
      <trkpt lat="43.00195" lon="-0.06923">
        <ele>466.8</ele>
        <time>2021-10-09T08:33:17</time>
      </trkpt>
      <trkpt lat="43.00197" lon="-0.06922">
        <ele>467</ele>
        <time>2021-10-09T08:33:18</time>
      </trkpt>
      <trkpt lat="43.002" lon="-0.06921">
        <ele>467.2</ele>
        <time>2021-10-09T08:33:19</time>
      </trkpt>
      <trkpt lat="43.00203" lon="-0.0692">
        <ele>467.2</ele>
        <time>2021-10-09T08:33:20</time>
      </trkpt>
      <trkpt lat="43.00206" lon="-0.06919">
        <ele>467.4</ele>
        <time>2021-10-09T08:33:21</time>
      </trkpt>
      <trkpt lat="43.00209" lon="-0.06918">
        <ele>467.6</ele>
        <time>2021-10-09T08:33:22</time>
      </trkpt>
      <trkpt lat="43.00211" lon="-0.06917">
        <ele>467.8</ele>
        <time>2021-10-09T08:33:23</time>
      </trkpt>
      <trkpt lat="43.00214" lon="-0.06917">
        <ele>468</ele>
        <time>2021-10-09T08:33:24</time>
      </trkpt>
      <trkpt lat="43.00217" lon="-0.06916">
        <ele>468</ele>
        <time>2021-10-09T08:33:25</time>
      </trkpt>
      <trkpt lat="43.0022" lon="-0.06915">
        <ele>468.4</ele>
        <time>2021-10-09T08:33:26</time>
      </trkpt>
      <trkpt lat="43.00223" lon="-0.06914">
        <ele>468.4</ele>
        <time>2021-10-09T08:33:27</time>
      </trkpt>
      <trkpt lat="43.00225" lon="-0.06913">
        <ele>468.6</ele>
        <time>2021-10-09T08:33:28</time>
      </trkpt>
      <trkpt lat="43.00228" lon="-0.06912">
        <ele>468.8</ele>
        <time>2021-10-09T08:33:29</time>
      </trkpt>
      <trkpt lat="43.00231" lon="-0.06911">
        <ele>468.8</ele>
        <time>2021-10-09T08:33:30</time>
      </trkpt>
      <trkpt lat="43.00234" lon="-0.0691">
        <ele>469</ele>
        <time>2021-10-09T08:33:31</time>
      </trkpt>
      <trkpt lat="43.00236" lon="-0.06909">
        <ele>469.2</ele>
        <time>2021-10-09T08:33:32</time>
      </trkpt>
      <trkpt lat="43.00239" lon="-0.06908">
        <ele>469.4</ele>
        <time>2021-10-09T08:33:33</time>
      </trkpt>
      <trkpt lat="43.00242" lon="-0.06907">
        <ele>469.6</ele>
        <time>2021-10-09T08:33:34</time>
      </trkpt>
      <trkpt lat="43.00245" lon="-0.06906">
        <ele>469.8</ele>
        <time>2021-10-09T08:33:35</time>
      </trkpt>
      <trkpt lat="43.00247" lon="-0.06905">
        <ele>469.8</ele>
        <time>2021-10-09T08:33:36</time>
      </trkpt>
      <trkpt lat="43.00249" lon="-0.06902">
        <ele>470</ele>
        <time>2021-10-09T08:33:37</time>
      </trkpt>
      <trkpt lat="43.00251" lon="-0.069">
        <ele>470.2</ele>
        <time>2021-10-09T08:33:38</time>
      </trkpt>
      <trkpt lat="43.00253" lon="-0.06897">
        <ele>470.6</ele>
        <time>2021-10-09T08:33:39</time>
      </trkpt>
      <trkpt lat="43.00254" lon="-0.06894">
        <ele>470.6</ele>
        <time>2021-10-09T08:33:40</time>
      </trkpt>
      <trkpt lat="43.00255" lon="-0.06891">
        <ele>470.8</ele>
        <time>2021-10-09T08:33:41</time>
      </trkpt>
      <trkpt lat="43.00256" lon="-0.06888">
        <ele>471.2</ele>
        <time>2021-10-09T08:33:42</time>
      </trkpt>
      <trkpt lat="43.00257" lon="-0.06885">
        <ele>471.4</ele>
        <time>2021-10-09T08:33:43</time>
      </trkpt>
      <trkpt lat="43.00258" lon="-0.06882">
        <ele>471.6</ele>
        <time>2021-10-09T08:33:44</time>
      </trkpt>
      <trkpt lat="43.00258" lon="-0.06878">
        <ele>471.8</ele>
        <time>2021-10-09T08:33:45</time>
      </trkpt>
      <trkpt lat="43.00259" lon="-0.06875">
        <ele>472</ele>
        <time>2021-10-09T08:33:46</time>
      </trkpt>
      <trkpt lat="43.0026" lon="-0.06872">
        <ele>472.2</ele>
        <time>2021-10-09T08:33:47</time>
      </trkpt>
      <trkpt lat="43.00261" lon="-0.06869">
        <ele>472.4</ele>
        <time>2021-10-09T08:33:48</time>
      </trkpt>
      <trkpt lat="43.00262" lon="-0.06866">
        <ele>472.4</ele>
        <time>2021-10-09T08:33:49</time>
      </trkpt>
      <trkpt lat="43.00263" lon="-0.06864">
        <ele>472.6</ele>
        <time>2021-10-09T08:33:50</time>
      </trkpt>
      <trkpt lat="43.00264" lon="-0.06861">
        <ele>472.8</ele>
        <time>2021-10-09T08:33:51</time>
      </trkpt>
      <trkpt lat="43.00265" lon="-0.06858">
        <ele>473</ele>
        <time>2021-10-09T08:33:52</time>
      </trkpt>
      <trkpt lat="43.00266" lon="-0.06856">
        <ele>473.2</ele>
        <time>2021-10-09T08:33:53</time>
      </trkpt>
      <trkpt lat="43.00267" lon="-0.06853">
        <ele>473.4</ele>
        <time>2021-10-09T08:33:54</time>
      </trkpt>
      <trkpt lat="43.00268" lon="-0.06851">
        <ele>473.6</ele>
        <time>2021-10-09T08:33:55</time>
      </trkpt>
      <trkpt lat="43.00269" lon="-0.06849">
        <ele>473.8</ele>
        <time>2021-10-09T08:33:56</time>
      </trkpt>
      <trkpt lat="43.00271" lon="-0.06847">
        <ele>473.8</ele>
        <time>2021-10-09T08:33:57</time>
      </trkpt>
      <trkpt lat="43.00272" lon="-0.06844">
        <ele>473.8</ele>
        <time>2021-10-09T08:33:58</time>
      </trkpt>
      <trkpt lat="43.00274" lon="-0.06841">
        <ele>474.2</ele>
        <time>2021-10-09T08:33:59</time>
      </trkpt>
      <trkpt lat="43.00275" lon="-0.06839">
        <ele>474.2</ele>
        <time>2021-10-09T08:34:00</time>
      </trkpt>
      <trkpt lat="43.00277" lon="-0.06836">
        <ele>474.4</ele>
        <time>2021-10-09T08:34:01</time>
      </trkpt>
      <trkpt lat="43.00279" lon="-0.06834">
        <ele>474.4</ele>
        <time>2021-10-09T08:34:02</time>
      </trkpt>
      <trkpt lat="43.0028" lon="-0.06831">
        <ele>474.6</ele>
        <time>2021-10-09T08:34:03</time>
      </trkpt>
      <trkpt lat="43.00282" lon="-0.06828">
        <ele>474.6</ele>
        <time>2021-10-09T08:34:04</time>
      </trkpt>
      <trkpt lat="43.00284" lon="-0.06826">
        <ele>474.8</ele>
        <time>2021-10-09T08:34:05</time>
      </trkpt>
      <trkpt lat="43.00286" lon="-0.06823">
        <ele>475</ele>
        <time>2021-10-09T08:34:06</time>
      </trkpt>
      <trkpt lat="43.00287" lon="-0.0682">
        <ele>475</ele>
        <time>2021-10-09T08:34:07</time>
      </trkpt>
      <trkpt lat="43.00289" lon="-0.06818">
        <ele>475.2</ele>
        <time>2021-10-09T08:34:08</time>
      </trkpt>
      <trkpt lat="43.00291" lon="-0.06815">
        <ele>475.2</ele>
        <time>2021-10-09T08:34:09</time>
      </trkpt>
      <trkpt lat="43.00292" lon="-0.06812">
        <ele>475.4</ele>
        <time>2021-10-09T08:34:10</time>
      </trkpt>
      <trkpt lat="43.00294" lon="-0.06809">
        <ele>475.6</ele>
        <time>2021-10-09T08:34:11</time>
      </trkpt>
      <trkpt lat="43.00296" lon="-0.06806">
        <ele>475.8</ele>
        <time>2021-10-09T08:34:12</time>
      </trkpt>
      <trkpt lat="43.00297" lon="-0.06804">
        <ele>475.8</ele>
        <time>2021-10-09T08:34:13</time>
      </trkpt>
      <trkpt lat="43.00299" lon="-0.06801">
        <ele>476.2</ele>
        <time>2021-10-09T08:34:14</time>
      </trkpt>
      <trkpt lat="43.00301" lon="-0.06798">
        <ele>476.2</ele>
        <time>2021-10-09T08:34:15</time>
      </trkpt>
      <trkpt lat="43.00302" lon="-0.06796">
        <ele>476.4</ele>
        <time>2021-10-09T08:34:16</time>
      </trkpt>
      <trkpt lat="43.00304" lon="-0.06794">
        <ele>476.6</ele>
        <time>2021-10-09T08:34:17</time>
      </trkpt>
      <trkpt lat="43.00306" lon="-0.06791">
        <ele>476.8</ele>
        <time>2021-10-09T08:34:18</time>
      </trkpt>
      <trkpt lat="43.00307" lon="-0.06789">
        <ele>477</ele>
        <time>2021-10-09T08:34:19</time>
      </trkpt>
      <trkpt lat="43.00309" lon="-0.06786">
        <ele>477</ele>
        <time>2021-10-09T08:34:20</time>
      </trkpt>
      <trkpt lat="43.0031" lon="-0.06784">
        <ele>477.2</ele>
        <time>2021-10-09T08:34:21</time>
      </trkpt>
      <trkpt lat="43.00312" lon="-0.06781">
        <ele>477.4</ele>
        <time>2021-10-09T08:34:22</time>
      </trkpt>
      <trkpt lat="43.00314" lon="-0.06779">
        <ele>477.6</ele>
        <time>2021-10-09T08:34:23</time>
      </trkpt>
      <trkpt lat="43.00315" lon="-0.06776">
        <ele>477.8</ele>
        <time>2021-10-09T08:34:24</time>
      </trkpt>
      <trkpt lat="43.00317" lon="-0.06774">
        <ele>477.8</ele>
        <time>2021-10-09T08:34:25</time>
      </trkpt>
      <trkpt lat="43.00319" lon="-0.06771">
        <ele>478</ele>
        <time>2021-10-09T08:34:26</time>
      </trkpt>
      <trkpt lat="43.0032" lon="-0.06769">
        <ele>478.2</ele>
        <time>2021-10-09T08:34:27</time>
      </trkpt>
      <trkpt lat="43.00322" lon="-0.06766">
        <ele>478.4</ele>
        <time>2021-10-09T08:34:28</time>
      </trkpt>
      <trkpt lat="43.00324" lon="-0.06764">
        <ele>478.6</ele>
        <time>2021-10-09T08:34:29</time>
      </trkpt>
      <trkpt lat="43.00325" lon="-0.06761">
        <ele>478.6</ele>
        <time>2021-10-09T08:34:30</time>
      </trkpt>
      <trkpt lat="43.00327" lon="-0.06759">
        <ele>478.8</ele>
        <time>2021-10-09T08:34:31</time>
      </trkpt>
      <trkpt lat="43.00328" lon="-0.06756">
        <ele>479</ele>
        <time>2021-10-09T08:34:32</time>
      </trkpt>
      <trkpt lat="43.0033" lon="-0.06754">
        <ele>479.2</ele>
        <time>2021-10-09T08:34:33</time>
      </trkpt>
      <trkpt lat="43.00332" lon="-0.06751">
        <ele>479.2</ele>
        <time>2021-10-09T08:34:34</time>
      </trkpt>
      <trkpt lat="43.00333" lon="-0.06749">
        <ele>479.4</ele>
        <time>2021-10-09T08:34:35</time>
      </trkpt>
      <trkpt lat="43.00335" lon="-0.06746">
        <ele>479.6</ele>
        <time>2021-10-09T08:34:36</time>
      </trkpt>
      <trkpt lat="43.00337" lon="-0.06743">
        <ele>479.8</ele>
        <time>2021-10-09T08:34:37</time>
      </trkpt>
      <trkpt lat="43.00338" lon="-0.06741">
        <ele>479.8</ele>
        <time>2021-10-09T08:34:38</time>
      </trkpt>
      <trkpt lat="43.0034" lon="-0.06738">
        <ele>480</ele>
        <time>2021-10-09T08:34:39</time>
      </trkpt>
      <trkpt lat="43.00342" lon="-0.06736">
        <ele>480.2</ele>
        <time>2021-10-09T08:34:40</time>
      </trkpt>
      <trkpt lat="43.00343" lon="-0.06733">
        <ele>480.4</ele>
        <time>2021-10-09T08:34:41</time>
      </trkpt>
      <trkpt lat="43.00345" lon="-0.06731">
        <ele>480.6</ele>
        <time>2021-10-09T08:34:42</time>
      </trkpt>
      <trkpt lat="43.00347" lon="-0.06728">
        <ele>480.8</ele>
        <time>2021-10-09T08:34:43</time>
      </trkpt>
      <trkpt lat="43.00348" lon="-0.06726">
        <ele>480.8</ele>
        <time>2021-10-09T08:34:44</time>
      </trkpt>
      <trkpt lat="43.0035" lon="-0.06724">
        <ele>481</ele>
        <time>2021-10-09T08:34:45</time>
      </trkpt>
      <trkpt lat="43.00352" lon="-0.06721">
        <ele>481.2</ele>
        <time>2021-10-09T08:34:46</time>
      </trkpt>
      <trkpt lat="43.00354" lon="-0.06719">
        <ele>481.4</ele>
        <time>2021-10-09T08:34:47</time>
      </trkpt>
      <trkpt lat="43.00356" lon="-0.06717">
        <ele>481.6</ele>
        <time>2021-10-09T08:34:48</time>
      </trkpt>
      <trkpt lat="43.00358" lon="-0.06714">
        <ele>481.8</ele>
        <time>2021-10-09T08:34:49</time>
      </trkpt>
      <trkpt lat="43.0036" lon="-0.06712">
        <ele>481.8</ele>
        <time>2021-10-09T08:34:50</time>
      </trkpt>
      <trkpt lat="43.00361" lon="-0.06709">
        <ele>482</ele>
        <time>2021-10-09T08:34:51</time>
      </trkpt>
      <trkpt lat="43.00363" lon="-0.06707">
        <ele>482.2</ele>
        <time>2021-10-09T08:34:52</time>
      </trkpt>
      <trkpt lat="43.00365" lon="-0.06705">
        <ele>482.2</ele>
        <time>2021-10-09T08:34:53</time>
      </trkpt>
      <trkpt lat="43.00367" lon="-0.06703">
        <ele>482.6</ele>
        <time>2021-10-09T08:34:54</time>
      </trkpt>
      <trkpt lat="43.00369" lon="-0.06701">
        <ele>482.8</ele>
        <time>2021-10-09T08:34:55</time>
      </trkpt>
      <trkpt lat="43.00371" lon="-0.06699">
        <ele>483</ele>
        <time>2021-10-09T08:34:56</time>
      </trkpt>
      <trkpt lat="43.00373" lon="-0.06697">
        <ele>483.2</ele>
        <time>2021-10-09T08:34:57</time>
      </trkpt>
      <trkpt lat="43.00375" lon="-0.06695">
        <ele>483.4</ele>
        <time>2021-10-09T08:34:58</time>
      </trkpt>
      <trkpt lat="43.00377" lon="-0.06693">
        <ele>483.4</ele>
        <time>2021-10-09T08:34:59</time>
      </trkpt>
      <trkpt lat="43.00379" lon="-0.06691">
        <ele>483.6</ele>
        <time>2021-10-09T08:35:00</time>
      </trkpt>
      <trkpt lat="43.00381" lon="-0.06689">
        <ele>484</ele>
        <time>2021-10-09T08:35:01</time>
      </trkpt>
      <trkpt lat="43.00382" lon="-0.06687">
        <ele>484</ele>
        <time>2021-10-09T08:35:02</time>
      </trkpt>
      <trkpt lat="43.00384" lon="-0.06685">
        <ele>484.2</ele>
        <time>2021-10-09T08:35:03</time>
      </trkpt>
      <trkpt lat="43.00386" lon="-0.06682">
        <ele>484.4</ele>
        <time>2021-10-09T08:35:04</time>
      </trkpt>
      <trkpt lat="43.00388" lon="-0.0668">
        <ele>484.6</ele>
        <time>2021-10-09T08:35:05</time>
      </trkpt>
      <trkpt lat="43.0039" lon="-0.06678">
        <ele>484.8</ele>
        <time>2021-10-09T08:35:06</time>
      </trkpt>
      <trkpt lat="43.00392" lon="-0.06676">
        <ele>485</ele>
        <time>2021-10-09T08:35:07</time>
      </trkpt>
      <trkpt lat="43.00394" lon="-0.06674">
        <ele>485.2</ele>
        <time>2021-10-09T08:35:08</time>
      </trkpt>
      <trkpt lat="43.00396" lon="-0.06672">
        <ele>485.4</ele>
        <time>2021-10-09T08:35:09</time>
      </trkpt>
      <trkpt lat="43.00398" lon="-0.0667">
        <ele>485.6</ele>
        <time>2021-10-09T08:35:10</time>
      </trkpt>
      <trkpt lat="43.004" lon="-0.06668">
        <ele>485.8</ele>
        <time>2021-10-09T08:35:11</time>
      </trkpt>
      <trkpt lat="43.00402" lon="-0.06666">
        <ele>486</ele>
        <time>2021-10-09T08:35:12</time>
      </trkpt>
      <trkpt lat="43.00403" lon="-0.06664">
        <ele>486.2</ele>
        <time>2021-10-09T08:35:13</time>
      </trkpt>
      <trkpt lat="43.00405" lon="-0.06662">
        <ele>486.4</ele>
        <time>2021-10-09T08:35:14</time>
      </trkpt>
      <trkpt lat="43.00407" lon="-0.0666">
        <ele>486.6</ele>
        <time>2021-10-09T08:35:15</time>
      </trkpt>
      <trkpt lat="43.00409" lon="-0.06658">
        <ele>486.6</ele>
        <time>2021-10-09T08:35:16</time>
      </trkpt>
      <trkpt lat="43.0041" lon="-0.06655">
        <ele>486.8</ele>
        <time>2021-10-09T08:35:17</time>
      </trkpt>
      <trkpt lat="43.00412" lon="-0.06653">
        <ele>487</ele>
        <time>2021-10-09T08:35:18</time>
      </trkpt>
      <trkpt lat="43.00414" lon="-0.06651">
        <ele>487.2</ele>
        <time>2021-10-09T08:35:19</time>
      </trkpt>
      <trkpt lat="43.00415" lon="-0.06649">
        <ele>487.4</ele>
        <time>2021-10-09T08:35:20</time>
      </trkpt>
      <trkpt lat="43.00417" lon="-0.06646">
        <ele>487.6</ele>
        <time>2021-10-09T08:35:21</time>
      </trkpt>
      <trkpt lat="43.00419" lon="-0.06644">
        <ele>487.8</ele>
        <time>2021-10-09T08:35:22</time>
      </trkpt>
      <trkpt lat="43.0042" lon="-0.06642">
        <ele>488</ele>
        <time>2021-10-09T08:35:23</time>
      </trkpt>
      <trkpt lat="43.00422" lon="-0.0664">
        <ele>488</ele>
        <time>2021-10-09T08:35:24</time>
      </trkpt>
      <trkpt lat="43.00423" lon="-0.06637">
        <ele>488.2</ele>
        <time>2021-10-09T08:35:25</time>
      </trkpt>
      <trkpt lat="43.00425" lon="-0.06635">
        <ele>488.6</ele>
        <time>2021-10-09T08:35:26</time>
      </trkpt>
      <trkpt lat="43.00426" lon="-0.06633">
        <ele>488.8</ele>
        <time>2021-10-09T08:35:27</time>
      </trkpt>
      <trkpt lat="43.00428" lon="-0.0663">
        <ele>488.8</ele>
        <time>2021-10-09T08:35:28</time>
      </trkpt>
      <trkpt lat="43.00429" lon="-0.06628">
        <ele>489.2</ele>
        <time>2021-10-09T08:35:29</time>
      </trkpt>
      <trkpt lat="43.00431" lon="-0.06626">
        <ele>489.4</ele>
        <time>2021-10-09T08:35:30</time>
      </trkpt>
      <trkpt lat="43.00432" lon="-0.06624">
        <ele>489.4</ele>
        <time>2021-10-09T08:35:31</time>
      </trkpt>
      <trkpt lat="43.00434" lon="-0.06621">
        <ele>489.8</ele>
        <time>2021-10-09T08:35:32</time>
      </trkpt>
      <trkpt lat="43.00435" lon="-0.06619">
        <ele>489.8</ele>
        <time>2021-10-09T08:35:33</time>
      </trkpt>
      <trkpt lat="43.00437" lon="-0.06617">
        <ele>490</ele>
        <time>2021-10-09T08:35:34</time>
      </trkpt>
      <trkpt lat="43.00438" lon="-0.06615">
        <ele>490.4</ele>
        <time>2021-10-09T08:35:35</time>
      </trkpt>
      <trkpt lat="43.0044" lon="-0.06612">
        <ele>490.4</ele>
        <time>2021-10-09T08:35:36</time>
      </trkpt>
      <trkpt lat="43.00441" lon="-0.0661">
        <ele>490.6</ele>
        <time>2021-10-09T08:35:37</time>
      </trkpt>
      <trkpt lat="43.00443" lon="-0.06608">
        <ele>490.8</ele>
        <time>2021-10-09T08:35:38</time>
      </trkpt>
      <trkpt lat="43.00444" lon="-0.06606">
        <ele>491</ele>
        <time>2021-10-09T08:35:39</time>
      </trkpt>
      <trkpt lat="43.00445" lon="-0.06604">
        <ele>491.2</ele>
        <time>2021-10-09T08:35:40</time>
      </trkpt>
      <trkpt lat="43.00447" lon="-0.06601">
        <ele>491.4</ele>
        <time>2021-10-09T08:35:41</time>
      </trkpt>
      <trkpt lat="43.00448" lon="-0.06599">
        <ele>491.6</ele>
        <time>2021-10-09T08:35:42</time>
      </trkpt>
      <trkpt lat="43.00449" lon="-0.06597">
        <ele>491.8</ele>
        <time>2021-10-09T08:35:43</time>
      </trkpt>
      <trkpt lat="43.00451" lon="-0.06595">
        <ele>491.8</ele>
        <time>2021-10-09T08:35:44</time>
      </trkpt>
      <trkpt lat="43.00452" lon="-0.06593">
        <ele>492</ele>
        <time>2021-10-09T08:35:45</time>
      </trkpt>
      <trkpt lat="43.00454" lon="-0.06591">
        <ele>492.4</ele>
        <time>2021-10-09T08:35:46</time>
      </trkpt>
      <trkpt lat="43.00455" lon="-0.06588">
        <ele>492.4</ele>
        <time>2021-10-09T08:35:47</time>
      </trkpt>
      <trkpt lat="43.00456" lon="-0.06586">
        <ele>492.6</ele>
        <time>2021-10-09T08:35:48</time>
      </trkpt>
      <trkpt lat="43.00458" lon="-0.06584">
        <ele>492.8</ele>
        <time>2021-10-09T08:35:49</time>
      </trkpt>
      <trkpt lat="43.00459" lon="-0.06582">
        <ele>493</ele>
        <time>2021-10-09T08:35:50</time>
      </trkpt>
      <trkpt lat="43.0046" lon="-0.0658">
        <ele>493.2</ele>
        <time>2021-10-09T08:35:51</time>
      </trkpt>
      <trkpt lat="43.00462" lon="-0.06578">
        <ele>493.2</ele>
        <time>2021-10-09T08:35:52</time>
      </trkpt>
      <trkpt lat="43.00463" lon="-0.06576">
        <ele>493.4</ele>
        <time>2021-10-09T08:35:53</time>
      </trkpt>
      <trkpt lat="43.00464" lon="-0.06573">
        <ele>493.6</ele>
        <time>2021-10-09T08:35:54</time>
      </trkpt>
      <trkpt lat="43.00466" lon="-0.06571">
        <ele>493.8</ele>
        <time>2021-10-09T08:35:55</time>
      </trkpt>
      <trkpt lat="43.00467" lon="-0.06569">
        <ele>494</ele>
        <time>2021-10-09T08:35:56</time>
      </trkpt>
      <trkpt lat="43.00469" lon="-0.06567">
        <ele>494.2</ele>
        <time>2021-10-09T08:35:57</time>
      </trkpt>
      <trkpt lat="43.0047" lon="-0.06565">
        <ele>494.4</ele>
        <time>2021-10-09T08:35:58</time>
      </trkpt>
      <trkpt lat="43.00472" lon="-0.06563">
        <ele>494.6</ele>
        <time>2021-10-09T08:35:59</time>
      </trkpt>
      <trkpt lat="43.00473" lon="-0.06561">
        <ele>494.6</ele>
        <time>2021-10-09T08:36:00</time>
      </trkpt>
      <trkpt lat="43.00474" lon="-0.06558">
        <ele>494.8</ele>
        <time>2021-10-09T08:36:01</time>
      </trkpt>
      <trkpt lat="43.00473" lon="-0.06556">
        <ele>495</ele>
        <time>2021-10-09T08:36:02</time>
      </trkpt>
      <trkpt lat="43.00473" lon="-0.06554">
        <ele>495.2</ele>
        <time>2021-10-09T08:36:03</time>
      </trkpt>
      <trkpt lat="43.00472" lon="-0.06551">
        <ele>495.4</ele>
        <time>2021-10-09T08:36:04</time>
      </trkpt>
      <trkpt lat="43.00471" lon="-0.06549">
        <ele>495.6</ele>
        <time>2021-10-09T08:36:05</time>
      </trkpt>
      <trkpt lat="43.0047" lon="-0.06546">
        <ele>495.8</ele>
        <time>2021-10-09T08:36:06</time>
      </trkpt>
      <trkpt lat="43.00469" lon="-0.06544">
        <ele>496</ele>
        <time>2021-10-09T08:36:07</time>
      </trkpt>
      <trkpt lat="43.00468" lon="-0.06542">
        <ele>496.2</ele>
        <time>2021-10-09T08:36:08</time>
      </trkpt>
      <trkpt lat="43.00467" lon="-0.0654">
        <ele>496.4</ele>
        <time>2021-10-09T08:36:09</time>
      </trkpt>
      <trkpt lat="43.00466" lon="-0.06539">
        <ele>496.6</ele>
        <time>2021-10-09T08:36:10</time>
      </trkpt>
      <trkpt lat="43.00464" lon="-0.06539">
        <ele>496.8</ele>
        <time>2021-10-09T08:36:11</time>
      </trkpt>
      <trkpt lat="43.00462" lon="-0.06538">
        <ele>497.2</ele>
        <time>2021-10-09T08:36:12</time>
      </trkpt>
      <trkpt lat="43.0046" lon="-0.06538">
        <ele>497.2</ele>
        <time>2021-10-09T08:36:13</time>
      </trkpt>
      <trkpt lat="43.00458" lon="-0.06537">
        <ele>497.4</ele>
        <time>2021-10-09T08:36:14</time>
      </trkpt>
      <trkpt lat="43.00456" lon="-0.06536">
        <ele>497.6</ele>
        <time>2021-10-09T08:36:15</time>
      </trkpt>
      <trkpt lat="43.00454" lon="-0.06536">
        <ele>498</ele>
        <time>2021-10-09T08:36:16</time>
      </trkpt>
      <trkpt lat="43.00452" lon="-0.06534">
        <ele>498</ele>
        <time>2021-10-09T08:36:17</time>
      </trkpt>
      <trkpt lat="43.00451" lon="-0.06533">
        <ele>498.2</ele>
        <time>2021-10-09T08:36:18</time>
      </trkpt>
      <trkpt lat="43.00449" lon="-0.06531">
        <ele>498.4</ele>
        <time>2021-10-09T08:36:19</time>
      </trkpt>
      <trkpt lat="43.00448" lon="-0.06529">
        <ele>498.6</ele>
        <time>2021-10-09T08:36:20</time>
      </trkpt>
      <trkpt lat="43.00447" lon="-0.06527">
        <ele>498.8</ele>
        <time>2021-10-09T08:36:21</time>
      </trkpt>
      <trkpt lat="43.00446" lon="-0.06525">
        <ele>499.2</ele>
        <time>2021-10-09T08:36:22</time>
      </trkpt>
      <trkpt lat="43.00445" lon="-0.06523">
        <ele>499.4</ele>
        <time>2021-10-09T08:36:23</time>
      </trkpt>
      <trkpt lat="43.00444" lon="-0.06521">
        <ele>499.4</ele>
        <time>2021-10-09T08:36:24</time>
      </trkpt>
      <trkpt lat="43.00442" lon="-0.06518">
        <ele>499.6</ele>
        <time>2021-10-09T08:36:25</time>
      </trkpt>
      <trkpt lat="43.00441" lon="-0.06516">
        <ele>499.8</ele>
        <time>2021-10-09T08:36:26</time>
      </trkpt>
      <trkpt lat="43.0044" lon="-0.06514">
        <ele>500.2</ele>
        <time>2021-10-09T08:36:27</time>
      </trkpt>
      <trkpt lat="43.00439" lon="-0.06512">
        <ele>500.2</ele>
        <time>2021-10-09T08:36:28</time>
      </trkpt>
      <trkpt lat="43.00437" lon="-0.06511">
        <ele>500.6</ele>
        <time>2021-10-09T08:36:29</time>
      </trkpt>
      <trkpt lat="43.00436" lon="-0.06509">
        <ele>500.8</ele>
        <time>2021-10-09T08:36:30</time>
      </trkpt>
      <trkpt lat="43.00435" lon="-0.06507">
        <ele>501</ele>
        <time>2021-10-09T08:36:31</time>
      </trkpt>
      <trkpt lat="43.00433" lon="-0.06506">
        <ele>501.2</ele>
        <time>2021-10-09T08:36:32</time>
      </trkpt>
      <trkpt lat="43.00432" lon="-0.06505">
        <ele>501.4</ele>
        <time>2021-10-09T08:36:33</time>
      </trkpt>
      <trkpt lat="43.0043" lon="-0.06504">
        <ele>501.8</ele>
        <time>2021-10-09T08:36:34</time>
      </trkpt>
      <trkpt lat="43.00428" lon="-0.06502">
        <ele>502</ele>
        <time>2021-10-09T08:36:35</time>
      </trkpt>
      <trkpt lat="43.00426" lon="-0.06502">
        <ele>502.2</ele>
        <time>2021-10-09T08:36:36</time>
      </trkpt>
      <trkpt lat="43.00425" lon="-0.06501">
        <ele>502.2</ele>
        <time>2021-10-09T08:36:37</time>
      </trkpt>
      <trkpt lat="43.00423" lon="-0.065">
        <ele>502.6</ele>
        <time>2021-10-09T08:36:38</time>
      </trkpt>
      <trkpt lat="43.00422" lon="-0.06499">
        <ele>502.6</ele>
        <time>2021-10-09T08:36:39</time>
      </trkpt>
      <trkpt lat="43.0042" lon="-0.06498">
        <ele>503</ele>
        <time>2021-10-09T08:36:40</time>
      </trkpt>
      <trkpt lat="43.00419" lon="-0.06497">
        <ele>503.2</ele>
        <time>2021-10-09T08:36:41</time>
      </trkpt>
      <trkpt lat="43.00417" lon="-0.06496">
        <ele>503.4</ele>
        <time>2021-10-09T08:36:42</time>
      </trkpt>
      <trkpt lat="43.00416" lon="-0.06496">
        <ele>503.6</ele>
        <time>2021-10-09T08:36:43</time>
      </trkpt>
      <trkpt lat="43.00414" lon="-0.06495">
        <ele>503.8</ele>
        <time>2021-10-09T08:36:44</time>
      </trkpt>
      <trkpt lat="43.00413" lon="-0.06494">
        <ele>504</ele>
        <time>2021-10-09T08:36:45</time>
      </trkpt>
      <trkpt lat="43.00411" lon="-0.06493">
        <ele>504</ele>
        <time>2021-10-09T08:36:46</time>
      </trkpt>
      <trkpt lat="43.0041" lon="-0.06492">
        <ele>504.2</ele>
        <time>2021-10-09T08:36:47</time>
      </trkpt>
      <trkpt lat="43.00408" lon="-0.0649">
        <ele>504.4</ele>
        <time>2021-10-09T08:36:48</time>
      </trkpt>
      <trkpt lat="43.00407" lon="-0.06489">
        <ele>504.6</ele>
        <time>2021-10-09T08:36:49</time>
      </trkpt>
      <trkpt lat="43.00405" lon="-0.06487">
        <ele>504.8</ele>
        <time>2021-10-09T08:36:50</time>
      </trkpt>
      <trkpt lat="43.00404" lon="-0.06486">
        <ele>505</ele>
        <time>2021-10-09T08:36:51</time>
      </trkpt>
      <trkpt lat="43.00402" lon="-0.06484">
        <ele>505.2</ele>
        <time>2021-10-09T08:36:52</time>
      </trkpt>
      <trkpt lat="43.00401" lon="-0.06483">
        <ele>505.4</ele>
        <time>2021-10-09T08:36:53</time>
      </trkpt>
      <trkpt lat="43.00399" lon="-0.06481">
        <ele>505.6</ele>
        <time>2021-10-09T08:36:54</time>
      </trkpt>
      <trkpt lat="43.00398" lon="-0.06479">
        <ele>505.6</ele>
        <time>2021-10-09T08:36:55</time>
      </trkpt>
      <trkpt lat="43.00397" lon="-0.06477">
        <ele>505.8</ele>
        <time>2021-10-09T08:36:56</time>
      </trkpt>
      <trkpt lat="43.00395" lon="-0.06474">
        <ele>506</ele>
        <time>2021-10-09T08:36:57</time>
      </trkpt>
      <trkpt lat="43.00394" lon="-0.06472">
        <ele>506.2</ele>
        <time>2021-10-09T08:36:58</time>
      </trkpt>
      <trkpt lat="43.00393" lon="-0.06471">
        <ele>506.4</ele>
        <time>2021-10-09T08:36:59</time>
      </trkpt>
      <trkpt lat="43.00392" lon="-0.0647">
        <ele>506.6</ele>
        <time>2021-10-09T08:37:00</time>
      </trkpt>
      <trkpt lat="43.0039" lon="-0.06468">
        <ele>506.8</ele>
        <time>2021-10-09T08:37:01</time>
      </trkpt>
      <trkpt lat="43.00389" lon="-0.06467">
        <ele>507</ele>
        <time>2021-10-09T08:37:02</time>
      </trkpt>
      <trkpt lat="43.00388" lon="-0.06465">
        <ele>507.2</ele>
        <time>2021-10-09T08:37:03</time>
      </trkpt>
      <trkpt lat="43.00387" lon="-0.06464">
        <ele>507.4</ele>
        <time>2021-10-09T08:37:04</time>
      </trkpt>
      <trkpt lat="43.00385" lon="-0.06463">
        <ele>507.6</ele>
        <time>2021-10-09T08:37:05</time>
      </trkpt>
      <trkpt lat="43.00384" lon="-0.06462">
        <ele>507.8</ele>
        <time>2021-10-09T08:37:06</time>
      </trkpt>
      <trkpt lat="43.00383" lon="-0.06461">
        <ele>508</ele>
        <time>2021-10-09T08:37:07</time>
      </trkpt>
      <trkpt lat="43.00382" lon="-0.0646">
        <ele>508.2</ele>
        <time>2021-10-09T08:37:08</time>
      </trkpt>
      <trkpt lat="43.0038" lon="-0.06459">
        <ele>508.2</ele>
        <time>2021-10-09T08:37:09</time>
      </trkpt>
      <trkpt lat="43.00379" lon="-0.06459">
        <ele>508.6</ele>
        <time>2021-10-09T08:37:10</time>
      </trkpt>
      <trkpt lat="43.00378" lon="-0.06458">
        <ele>508.6</ele>
        <time>2021-10-09T08:37:11</time>
      </trkpt>
      <trkpt lat="43.00377" lon="-0.06458">
        <ele>509</ele>
        <time>2021-10-09T08:37:12</time>
      </trkpt>
      <trkpt lat="43.00375" lon="-0.06458">
        <ele>509</ele>
        <time>2021-10-09T08:37:13</time>
      </trkpt>
      <trkpt lat="43.00374" lon="-0.06457">
        <ele>509.2</ele>
        <time>2021-10-09T08:37:14</time>
      </trkpt>
      <trkpt lat="43.00373" lon="-0.06457">
        <ele>509.4</ele>
        <time>2021-10-09T08:37:15</time>
      </trkpt>
      <trkpt lat="43.00372" lon="-0.06457">
        <ele>509.6</ele>
        <time>2021-10-09T08:37:16</time>
      </trkpt>
      <trkpt lat="43.0037" lon="-0.06456">
        <ele>509.6</ele>
        <time>2021-10-09T08:37:17</time>
      </trkpt>
      <trkpt lat="43.00369" lon="-0.06455">
        <ele>509.8</ele>
        <time>2021-10-09T08:37:18</time>
      </trkpt>
      <trkpt lat="43.00368" lon="-0.06455">
        <ele>510</ele>
        <time>2021-10-09T08:37:19</time>
      </trkpt>
      <trkpt lat="43.00366" lon="-0.06455">
        <ele>510</ele>
        <time>2021-10-09T08:37:20</time>
      </trkpt>
      <trkpt lat="43.00365" lon="-0.06454">
        <ele>510.2</ele>
        <time>2021-10-09T08:37:21</time>
      </trkpt>
      <trkpt lat="43.00364" lon="-0.06454">
        <ele>510.4</ele>
        <time>2021-10-09T08:37:22</time>
      </trkpt>
      <trkpt lat="43.00363" lon="-0.06454">
        <ele>510.6</ele>
        <time>2021-10-09T08:37:23</time>
      </trkpt>
      <trkpt lat="43.00361" lon="-0.06453">
        <ele>510.6</ele>
        <time>2021-10-09T08:37:24</time>
      </trkpt>
      <trkpt lat="43.0036" lon="-0.06453">
        <ele>510.8</ele>
        <time>2021-10-09T08:37:25</time>
      </trkpt>
      <trkpt lat="43.00359" lon="-0.06452">
        <ele>511</ele>
        <time>2021-10-09T08:37:26</time>
      </trkpt>
      <trkpt lat="43.00358" lon="-0.06451">
        <ele>511.2</ele>
        <time>2021-10-09T08:37:27</time>
      </trkpt>
      <trkpt lat="43.00356" lon="-0.06451">
        <ele>511.2</ele>
        <time>2021-10-09T08:37:28</time>
      </trkpt>
      <trkpt lat="43.00355" lon="-0.0645">
        <ele>511.4</ele>
        <time>2021-10-09T08:37:29</time>
      </trkpt>
      <trkpt lat="43.00354" lon="-0.06449">
        <ele>511.4</ele>
        <time>2021-10-09T08:37:30</time>
      </trkpt>
      <trkpt lat="43.00353" lon="-0.06449">
        <ele>511.6</ele>
        <time>2021-10-09T08:37:31</time>
      </trkpt>
      <trkpt lat="43.00351" lon="-0.06449">
        <ele>511.8</ele>
        <time>2021-10-09T08:37:32</time>
      </trkpt>
      <trkpt lat="43.0035" lon="-0.06448">
        <ele>511.8</ele>
        <time>2021-10-09T08:37:33</time>
      </trkpt>
      <trkpt lat="43.00349" lon="-0.06447">
        <ele>512</ele>
        <time>2021-10-09T08:37:34</time>
      </trkpt>
      <trkpt lat="43.00347" lon="-0.06446">
        <ele>512</ele>
        <time>2021-10-09T08:37:35</time>
      </trkpt>
      <trkpt lat="43.00346" lon="-0.06445">
        <ele>512.2</ele>
        <time>2021-10-09T08:37:36</time>
      </trkpt>
      <trkpt lat="43.00345" lon="-0.06444">
        <ele>512.4</ele>
        <time>2021-10-09T08:37:37</time>
      </trkpt>
      <trkpt lat="43.00344" lon="-0.06444">
        <ele>512.4</ele>
        <time>2021-10-09T08:37:38</time>
      </trkpt>
      <trkpt lat="43.00343" lon="-0.06443">
        <ele>512.6</ele>
        <time>2021-10-09T08:37:39</time>
      </trkpt>
      <trkpt lat="43.00342" lon="-0.06442">
        <ele>512.6</ele>
        <time>2021-10-09T08:37:40</time>
      </trkpt>
      <trkpt lat="43.00341" lon="-0.06442">
        <ele>512.6</ele>
        <time>2021-10-09T08:37:41</time>
      </trkpt>
      <trkpt lat="43.00339" lon="-0.06441">
        <ele>512.8</ele>
        <time>2021-10-09T08:37:42</time>
      </trkpt>
      <trkpt lat="43.00338" lon="-0.06441">
        <ele>513</ele>
        <time>2021-10-09T08:37:43</time>
      </trkpt>
      <trkpt lat="43.00337" lon="-0.0644">
        <ele>513</ele>
        <time>2021-10-09T08:37:44</time>
      </trkpt>
      <trkpt lat="43.00336" lon="-0.06439">
        <ele>513.2</ele>
        <time>2021-10-09T08:37:45</time>
      </trkpt>
      <trkpt lat="43.00335" lon="-0.06438">
        <ele>513.2</ele>
        <time>2021-10-09T08:37:46</time>
      </trkpt>
      <trkpt lat="43.00333" lon="-0.06438">
        <ele>513.4</ele>
        <time>2021-10-09T08:37:47</time>
      </trkpt>
      <trkpt lat="43.00332" lon="-0.06437">
        <ele>513.6</ele>
        <time>2021-10-09T08:37:48</time>
      </trkpt>
      <trkpt lat="43.00331" lon="-0.06436">
        <ele>513.6</ele>
        <time>2021-10-09T08:37:49</time>
      </trkpt>
      <trkpt lat="43.0033" lon="-0.06436">
        <ele>513.8</ele>
        <time>2021-10-09T08:37:50</time>
      </trkpt>
      <trkpt lat="43.00328" lon="-0.06435">
        <ele>514</ele>
        <time>2021-10-09T08:37:51</time>
      </trkpt>
      <trkpt lat="43.00327" lon="-0.06435">
        <ele>514</ele>
        <time>2021-10-09T08:37:52</time>
      </trkpt>
      <trkpt lat="43.00325" lon="-0.06434">
        <ele>514.2</ele>
        <time>2021-10-09T08:37:53</time>
      </trkpt>
      <trkpt lat="43.00324" lon="-0.06433">
        <ele>514.4</ele>
        <time>2021-10-09T08:37:54</time>
      </trkpt>
      <trkpt lat="43.00322" lon="-0.06432">
        <ele>514.6</ele>
        <time>2021-10-09T08:37:55</time>
      </trkpt>
      <trkpt lat="43.00321" lon="-0.06432">
        <ele>514.6</ele>
        <time>2021-10-09T08:37:56</time>
      </trkpt>
      <trkpt lat="43.00319" lon="-0.06431">
        <ele>514.8</ele>
        <time>2021-10-09T08:37:57</time>
      </trkpt>
      <trkpt lat="43.00318" lon="-0.0643">
        <ele>515</ele>
        <time>2021-10-09T08:37:58</time>
      </trkpt>
      <trkpt lat="43.00316" lon="-0.06429">
        <ele>515</ele>
        <time>2021-10-09T08:37:59</time>
      </trkpt>
      <trkpt lat="43.00315" lon="-0.06428">
        <ele>515.4</ele>
        <time>2021-10-09T08:38:00</time>
      </trkpt>
      <trkpt lat="43.00313" lon="-0.06427">
        <ele>515.4</ele>
        <time>2021-10-09T08:38:01</time>
      </trkpt>
      <trkpt lat="43.00312" lon="-0.06427">
        <ele>515.4</ele>
        <time>2021-10-09T08:38:02</time>
      </trkpt>
      <trkpt lat="43.0031" lon="-0.06426">
        <ele>515.6</ele>
        <time>2021-10-09T08:38:03</time>
      </trkpt>
      <trkpt lat="43.00308" lon="-0.06425">
        <ele>515.8</ele>
        <time>2021-10-09T08:38:04</time>
      </trkpt>
      <trkpt lat="43.00307" lon="-0.06424">
        <ele>515.8</ele>
        <time>2021-10-09T08:38:05</time>
      </trkpt>
      <trkpt lat="43.00305" lon="-0.06423">
        <ele>516</ele>
        <time>2021-10-09T08:38:06</time>
      </trkpt>
      <trkpt lat="43.00303" lon="-0.06422">
        <ele>516.2</ele>
        <time>2021-10-09T08:38:07</time>
      </trkpt>
      <trkpt lat="43.00301" lon="-0.06421">
        <ele>516.4</ele>
        <time>2021-10-09T08:38:08</time>
      </trkpt>
      <trkpt lat="43.00299" lon="-0.0642">
        <ele>516.4</ele>
        <time>2021-10-09T08:38:09</time>
      </trkpt>
      <trkpt lat="43.00298" lon="-0.0642">
        <ele>516.8</ele>
        <time>2021-10-09T08:38:10</time>
      </trkpt>
      <trkpt lat="43.00296" lon="-0.06419">
        <ele>516.8</ele>
        <time>2021-10-09T08:38:11</time>
      </trkpt>
      <trkpt lat="43.00294" lon="-0.06418">
        <ele>517</ele>
        <time>2021-10-09T08:38:12</time>
      </trkpt>
      <trkpt lat="43.00292" lon="-0.06417">
        <ele>517.2</ele>
        <time>2021-10-09T08:38:13</time>
      </trkpt>
      <trkpt lat="43.0029" lon="-0.06416">
        <ele>517.4</ele>
        <time>2021-10-09T08:38:14</time>
      </trkpt>
      <trkpt lat="43.00289" lon="-0.06415">
        <ele>517.6</ele>
        <time>2021-10-09T08:38:15</time>
      </trkpt>
      <trkpt lat="43.00287" lon="-0.06414">
        <ele>517.8</ele>
        <time>2021-10-09T08:38:16</time>
      </trkpt>
      <trkpt lat="43.00285" lon="-0.06413">
        <ele>518.2</ele>
        <time>2021-10-09T08:38:17</time>
      </trkpt>
      <trkpt lat="43.00283" lon="-0.06412">
        <ele>518</ele>
        <time>2021-10-09T08:38:18</time>
      </trkpt>
      <trkpt lat="43.00282" lon="-0.06411">
        <ele>518.2</ele>
        <time>2021-10-09T08:38:19</time>
      </trkpt>
      <trkpt lat="43.0028" lon="-0.0641">
        <ele>518.6</ele>
        <time>2021-10-09T08:38:20</time>
      </trkpt>
      <trkpt lat="43.00278" lon="-0.06409">
        <ele>518.6</ele>
        <time>2021-10-09T08:38:21</time>
      </trkpt>
      <trkpt lat="43.00277" lon="-0.06407">
        <ele>519</ele>
        <time>2021-10-09T08:38:22</time>
      </trkpt>
      <trkpt lat="43.00275" lon="-0.06406">
        <ele>519</ele>
        <time>2021-10-09T08:38:23</time>
      </trkpt>
      <trkpt lat="43.00274" lon="-0.06405">
        <ele>519.4</ele>
        <time>2021-10-09T08:38:24</time>
      </trkpt>
      <trkpt lat="43.00273" lon="-0.06404">
        <ele>519.4</ele>
        <time>2021-10-09T08:38:25</time>
      </trkpt>
      <trkpt lat="43.00271" lon="-0.06403">
        <ele>519.8</ele>
        <time>2021-10-09T08:38:26</time>
      </trkpt>
      <trkpt lat="43.0027" lon="-0.06401">
        <ele>519.8</ele>
        <time>2021-10-09T08:38:27</time>
      </trkpt>
      <trkpt lat="43.00268" lon="-0.064">
        <ele>520</ele>
        <time>2021-10-09T08:38:28</time>
      </trkpt>
      <trkpt lat="43.00266" lon="-0.06398">
        <ele>520.2</ele>
        <time>2021-10-09T08:38:29</time>
      </trkpt>
      <trkpt lat="43.00265" lon="-0.06397">
        <ele>520.2</ele>
        <time>2021-10-09T08:38:30</time>
      </trkpt>
      <trkpt lat="43.00264" lon="-0.06395">
        <ele>520.4</ele>
        <time>2021-10-09T08:38:31</time>
      </trkpt>
      <trkpt lat="43.00262" lon="-0.06393">
        <ele>520.6</ele>
        <time>2021-10-09T08:38:32</time>
      </trkpt>
      <trkpt lat="43.00261" lon="-0.06391">
        <ele>520.8</ele>
        <time>2021-10-09T08:38:33</time>
      </trkpt>
      <trkpt lat="43.00259" lon="-0.06389">
        <ele>521</ele>
        <time>2021-10-09T08:38:34</time>
      </trkpt>
      <trkpt lat="43.00258" lon="-0.06388">
        <ele>521</ele>
        <time>2021-10-09T08:38:35</time>
      </trkpt>
      <trkpt lat="43.00257" lon="-0.06386">
        <ele>521</ele>
        <time>2021-10-09T08:38:36</time>
      </trkpt>
      <trkpt lat="43.00256" lon="-0.06384">
        <ele>521.2</ele>
        <time>2021-10-09T08:38:37</time>
      </trkpt>
      <trkpt lat="43.00254" lon="-0.06382">
        <ele>521.4</ele>
        <time>2021-10-09T08:38:38</time>
      </trkpt>
      <trkpt lat="43.00253" lon="-0.0638">
        <ele>521.6</ele>
        <time>2021-10-09T08:38:39</time>
      </trkpt>
      <trkpt lat="43.00253" lon="-0.06379">
        <ele>521.8</ele>
        <time>2021-10-09T08:38:40</time>
      </trkpt>
      <trkpt lat="43.00252" lon="-0.06377">
        <ele>521.8</ele>
        <time>2021-10-09T08:38:41</time>
      </trkpt>
      <trkpt lat="43.00251" lon="-0.06375">
        <ele>522</ele>
        <time>2021-10-09T08:38:42</time>
      </trkpt>
      <trkpt lat="43.0025" lon="-0.06373">
        <ele>522</ele>
        <time>2021-10-09T08:38:43</time>
      </trkpt>
      <trkpt lat="43.00249" lon="-0.06371">
        <ele>522.2</ele>
        <time>2021-10-09T08:38:44</time>
      </trkpt>
      <trkpt lat="43.00248" lon="-0.0637">
        <ele>522.4</ele>
        <time>2021-10-09T08:38:45</time>
      </trkpt>
      <trkpt lat="43.00247" lon="-0.06368">
        <ele>522.6</ele>
        <time>2021-10-09T08:38:46</time>
      </trkpt>
      <trkpt lat="43.00246" lon="-0.06367">
        <ele>522.6</ele>
        <time>2021-10-09T08:38:47</time>
      </trkpt>
      <trkpt lat="43.00246" lon="-0.06366">
        <ele>522.8</ele>
        <time>2021-10-09T08:38:48</time>
      </trkpt>
      <trkpt lat="43.00245" lon="-0.06364">
        <ele>522.8</ele>
        <time>2021-10-09T08:38:49</time>
      </trkpt>
      <trkpt lat="43.00244" lon="-0.06362">
        <ele>523</ele>
        <time>2021-10-09T08:38:50</time>
      </trkpt>
      <trkpt lat="43.00243" lon="-0.0636">
        <ele>523.2</ele>
        <time>2021-10-09T08:38:51</time>
      </trkpt>
      <trkpt lat="43.00242" lon="-0.06358">
        <ele>523.4</ele>
        <time>2021-10-09T08:38:52</time>
      </trkpt>
      <trkpt lat="43.00241" lon="-0.06357">
        <ele>523.4</ele>
        <time>2021-10-09T08:38:53</time>
      </trkpt>
      <trkpt lat="43.0024" lon="-0.06356">
        <ele>523.6</ele>
        <time>2021-10-09T08:38:54</time>
      </trkpt>
      <trkpt lat="43.0024" lon="-0.06354">
        <ele>523.8</ele>
        <time>2021-10-09T08:38:55</time>
      </trkpt>
      <trkpt lat="43.00239" lon="-0.06352">
        <ele>523.8</ele>
        <time>2021-10-09T08:38:56</time>
      </trkpt>
      <trkpt lat="43.00238" lon="-0.0635">
        <ele>524</ele>
        <time>2021-10-09T08:38:57</time>
      </trkpt>
      <trkpt lat="43.00237" lon="-0.06348">
        <ele>524.2</ele>
        <time>2021-10-09T08:38:58</time>
      </trkpt>
      <trkpt lat="43.00236" lon="-0.06345">
        <ele>524.4</ele>
        <time>2021-10-09T08:38:59</time>
      </trkpt>
      <trkpt lat="43.00235" lon="-0.06342">
        <ele>524.6</ele>
        <time>2021-10-09T08:39:00</time>
      </trkpt>
      <trkpt lat="43.00234" lon="-0.06339">
        <ele>524.6</ele>
        <time>2021-10-09T08:39:01</time>
      </trkpt>
      <trkpt lat="43.00233" lon="-0.06337">
        <ele>525</ele>
        <time>2021-10-09T08:39:02</time>
      </trkpt>
      <trkpt lat="43.00232" lon="-0.06334">
        <ele>525</ele>
        <time>2021-10-09T08:39:03</time>
      </trkpt>
      <trkpt lat="43.00231" lon="-0.06332">
        <ele>525.2</ele>
        <time>2021-10-09T08:39:04</time>
      </trkpt>
      <trkpt lat="43.00231" lon="-0.06329">
        <ele>525.4</ele>
        <time>2021-10-09T08:39:05</time>
      </trkpt>
      <trkpt lat="43.00229" lon="-0.06327">
        <ele>525.6</ele>
        <time>2021-10-09T08:39:06</time>
      </trkpt>
      <trkpt lat="43.00229" lon="-0.06324">
        <ele>525.8</ele>
        <time>2021-10-09T08:39:07</time>
      </trkpt>
      <trkpt lat="43.00228" lon="-0.06321">
        <ele>526</ele>
        <time>2021-10-09T08:39:08</time>
      </trkpt>
      <trkpt lat="43.00227" lon="-0.06319">
        <ele>526.2</ele>
        <time>2021-10-09T08:39:09</time>
      </trkpt>
      <trkpt lat="43.00226" lon="-0.06317">
        <ele>526.2</ele>
        <time>2021-10-09T08:39:10</time>
      </trkpt>
      <trkpt lat="43.00225" lon="-0.06314">
        <ele>526.4</ele>
        <time>2021-10-09T08:39:11</time>
      </trkpt>
      <trkpt lat="43.00225" lon="-0.06311">
        <ele>526.6</ele>
        <time>2021-10-09T08:39:12</time>
      </trkpt>
      <trkpt lat="43.00224" lon="-0.06309">
        <ele>526.8</ele>
        <time>2021-10-09T08:39:13</time>
      </trkpt>
      <trkpt lat="43.00223" lon="-0.06306">
        <ele>527</ele>
        <time>2021-10-09T08:39:14</time>
      </trkpt>
      <trkpt lat="43.00222" lon="-0.06304">
        <ele>527.2</ele>
        <time>2021-10-09T08:39:15</time>
      </trkpt>
      <trkpt lat="43.00222" lon="-0.06302">
        <ele>527.4</ele>
        <time>2021-10-09T08:39:16</time>
      </trkpt>
      <trkpt lat="43.00221" lon="-0.06299">
        <ele>527.6</ele>
        <time>2021-10-09T08:39:17</time>
      </trkpt>
      <trkpt lat="43.0022" lon="-0.06297">
        <ele>527.8</ele>
        <time>2021-10-09T08:39:18</time>
      </trkpt>
      <trkpt lat="43.0022" lon="-0.06294">
        <ele>528</ele>
        <time>2021-10-09T08:39:19</time>
      </trkpt>
      <trkpt lat="43.00219" lon="-0.06292">
        <ele>528.2</ele>
        <time>2021-10-09T08:39:20</time>
      </trkpt>
      <trkpt lat="43.00219" lon="-0.0629">
        <ele>528.2</ele>
        <time>2021-10-09T08:39:21</time>
      </trkpt>
      <trkpt lat="43.00219" lon="-0.06287">
        <ele>528.4</ele>
        <time>2021-10-09T08:39:22</time>
      </trkpt>
      <trkpt lat="43.00218" lon="-0.06285">
        <ele>528.6</ele>
        <time>2021-10-09T08:39:23</time>
      </trkpt>
      <trkpt lat="43.00217" lon="-0.06282">
        <ele>528.8</ele>
        <time>2021-10-09T08:39:24</time>
      </trkpt>
      <trkpt lat="43.00217" lon="-0.06279">
        <ele>529</ele>
        <time>2021-10-09T08:39:25</time>
      </trkpt>
      <trkpt lat="43.00216" lon="-0.06276">
        <ele>529.2</ele>
        <time>2021-10-09T08:39:26</time>
      </trkpt>
      <trkpt lat="43.00216" lon="-0.06273">
        <ele>529.4</ele>
        <time>2021-10-09T08:39:27</time>
      </trkpt>
      <trkpt lat="43.00216" lon="-0.06271">
        <ele>529.4</ele>
        <time>2021-10-09T08:39:28</time>
      </trkpt>
      <trkpt lat="43.00216" lon="-0.06268">
        <ele>529.8</ele>
        <time>2021-10-09T08:39:29</time>
      </trkpt>
      <trkpt lat="43.00215" lon="-0.06265">
        <ele>529.8</ele>
        <time>2021-10-09T08:39:30</time>
      </trkpt>
      <trkpt lat="43.00215" lon="-0.06263">
        <ele>530</ele>
        <time>2021-10-09T08:39:31</time>
      </trkpt>
      <trkpt lat="43.00215" lon="-0.0626">
        <ele>530.2</ele>
        <time>2021-10-09T08:39:32</time>
      </trkpt>
      <trkpt lat="43.00214" lon="-0.06257">
        <ele>530.4</ele>
        <time>2021-10-09T08:39:33</time>
      </trkpt>
      <trkpt lat="43.00213" lon="-0.06255">
        <ele>530.6</ele>
        <time>2021-10-09T08:39:34</time>
      </trkpt>
      <trkpt lat="43.00213" lon="-0.06252">
        <ele>530.8</ele>
        <time>2021-10-09T08:39:35</time>
      </trkpt>
      <trkpt lat="43.00212" lon="-0.0625">
        <ele>531</ele>
        <time>2021-10-09T08:39:36</time>
      </trkpt>
      <trkpt lat="43.00211" lon="-0.06248">
        <ele>531.2</ele>
        <time>2021-10-09T08:39:37</time>
      </trkpt>
      <trkpt lat="43.00209" lon="-0.06246">
        <ele>531.4</ele>
        <time>2021-10-09T08:39:38</time>
      </trkpt>
      <trkpt lat="43.00208" lon="-0.06244">
        <ele>531.6</ele>
        <time>2021-10-09T08:39:39</time>
      </trkpt>
      <trkpt lat="43.00207" lon="-0.06243">
        <ele>531.8</ele>
        <time>2021-10-09T08:39:40</time>
      </trkpt>
      <trkpt lat="43.00205" lon="-0.06241">
        <ele>532</ele>
        <time>2021-10-09T08:39:41</time>
      </trkpt>
      <trkpt lat="43.00203" lon="-0.0624">
        <ele>532.2</ele>
        <time>2021-10-09T08:39:42</time>
      </trkpt>
      <trkpt lat="43.00201" lon="-0.06239">
        <ele>532.4</ele>
        <time>2021-10-09T08:39:43</time>
      </trkpt>
      <trkpt lat="43.002" lon="-0.06238">
        <ele>532.6</ele>
        <time>2021-10-09T08:39:44</time>
      </trkpt>
      <trkpt lat="43.00198" lon="-0.06237">
        <ele>532.8</ele>
        <time>2021-10-09T08:39:45</time>
      </trkpt>
      <trkpt lat="43.00196" lon="-0.06236">
        <ele>533</ele>
        <time>2021-10-09T08:39:46</time>
      </trkpt>
      <trkpt lat="43.00194" lon="-0.06236">
        <ele>533.2</ele>
        <time>2021-10-09T08:39:47</time>
      </trkpt>
      <trkpt lat="43.00192" lon="-0.06235">
        <ele>533.4</ele>
        <time>2021-10-09T08:39:48</time>
      </trkpt>
      <trkpt lat="43.0019" lon="-0.06235">
        <ele>533.6</ele>
        <time>2021-10-09T08:39:49</time>
      </trkpt>
      <trkpt lat="43.00188" lon="-0.06235">
        <ele>533.8</ele>
        <time>2021-10-09T08:39:50</time>
      </trkpt>
      <trkpt lat="43.00186" lon="-0.06235">
        <ele>534</ele>
        <time>2021-10-09T08:39:51</time>
      </trkpt>
      <trkpt lat="43.00184" lon="-0.06235">
        <ele>534.2</ele>
        <time>2021-10-09T08:39:52</time>
      </trkpt>
      <trkpt lat="43.00182" lon="-0.06235">
        <ele>534.4</ele>
        <time>2021-10-09T08:39:53</time>
      </trkpt>
      <trkpt lat="43.0018" lon="-0.06235">
        <ele>534.6</ele>
        <time>2021-10-09T08:39:54</time>
      </trkpt>
      <trkpt lat="43.00178" lon="-0.06235">
        <ele>534.8</ele>
        <time>2021-10-09T08:39:55</time>
      </trkpt>
      <trkpt lat="43.00176" lon="-0.06234">
        <ele>535</ele>
        <time>2021-10-09T08:39:56</time>
      </trkpt>
      <trkpt lat="43.00174" lon="-0.06235">
        <ele>535.2</ele>
        <time>2021-10-09T08:39:57</time>
      </trkpt>
      <trkpt lat="43.00172" lon="-0.06235">
        <ele>535.4</ele>
        <time>2021-10-09T08:39:58</time>
      </trkpt>
      <trkpt lat="43.0017" lon="-0.06235">
        <ele>535.6</ele>
        <time>2021-10-09T08:39:59</time>
      </trkpt>
      <trkpt lat="43.00168" lon="-0.06235">
        <ele>535.8</ele>
        <time>2021-10-09T08:40:00</time>
      </trkpt>
      <trkpt lat="43.00166" lon="-0.06235">
        <ele>536</ele>
        <time>2021-10-09T08:40:01</time>
      </trkpt>
      <trkpt lat="43.00164" lon="-0.06235">
        <ele>536.2</ele>
        <time>2021-10-09T08:40:02</time>
      </trkpt>
      <trkpt lat="43.00162" lon="-0.06235">
        <ele>536.2</ele>
        <time>2021-10-09T08:40:03</time>
      </trkpt>
      <trkpt lat="43.0016" lon="-0.06235">
        <ele>536.4</ele>
        <time>2021-10-09T08:40:04</time>
      </trkpt>
      <trkpt lat="43.00158" lon="-0.06235">
        <ele>536.6</ele>
        <time>2021-10-09T08:40:05</time>
      </trkpt>
      <trkpt lat="43.00156" lon="-0.06235">
        <ele>536.8</ele>
        <time>2021-10-09T08:40:06</time>
      </trkpt>
      <trkpt lat="43.00154" lon="-0.06235">
        <ele>537</ele>
        <time>2021-10-09T08:40:07</time>
      </trkpt>
      <trkpt lat="43.00152" lon="-0.06236">
        <ele>537</ele>
        <time>2021-10-09T08:40:08</time>
      </trkpt>
      <trkpt lat="43.0015" lon="-0.06236">
        <ele>537.2</ele>
        <time>2021-10-09T08:40:09</time>
      </trkpt>
      <trkpt lat="43.00148" lon="-0.06236">
        <ele>537.4</ele>
        <time>2021-10-09T08:40:10</time>
      </trkpt>
      <trkpt lat="43.00146" lon="-0.06237">
        <ele>537.6</ele>
        <time>2021-10-09T08:40:11</time>
      </trkpt>
      <trkpt lat="43.00144" lon="-0.06237">
        <ele>537.8</ele>
        <time>2021-10-09T08:40:12</time>
      </trkpt>
      <trkpt lat="43.00142" lon="-0.06238">
        <ele>538</ele>
        <time>2021-10-09T08:40:13</time>
      </trkpt>
      <trkpt lat="43.0014" lon="-0.06239">
        <ele>538.2</ele>
        <time>2021-10-09T08:40:14</time>
      </trkpt>
      <trkpt lat="43.00138" lon="-0.0624">
        <ele>538.4</ele>
        <time>2021-10-09T08:40:15</time>
      </trkpt>
      <trkpt lat="43.00136" lon="-0.06241">
        <ele>538.4</ele>
        <time>2021-10-09T08:40:16</time>
      </trkpt>
      <trkpt lat="43.00134" lon="-0.06242">
        <ele>538.6</ele>
        <time>2021-10-09T08:40:17</time>
      </trkpt>
      <trkpt lat="43.00132" lon="-0.06244">
        <ele>538.8</ele>
        <time>2021-10-09T08:40:18</time>
      </trkpt>
      <trkpt lat="43.0013" lon="-0.06245">
        <ele>539</ele>
        <time>2021-10-09T08:40:19</time>
      </trkpt>
      <trkpt lat="43.00129" lon="-0.06247">
        <ele>539.4</ele>
        <time>2021-10-09T08:40:20</time>
      </trkpt>
      <trkpt lat="43.00127" lon="-0.06248">
        <ele>539.4</ele>
        <time>2021-10-09T08:40:21</time>
      </trkpt>
      <trkpt lat="43.00125" lon="-0.06249">
        <ele>539.6</ele>
        <time>2021-10-09T08:40:22</time>
      </trkpt>
      <trkpt lat="43.00124" lon="-0.0625">
        <ele>539.8</ele>
        <time>2021-10-09T08:40:23</time>
      </trkpt>
      <trkpt lat="43.00122" lon="-0.06252">
        <ele>540</ele>
        <time>2021-10-09T08:40:24</time>
      </trkpt>
      <trkpt lat="43.0012" lon="-0.06254">
        <ele>540.4</ele>
        <time>2021-10-09T08:40:25</time>
      </trkpt>
      <trkpt lat="43.00119" lon="-0.06255">
        <ele>540.4</ele>
        <time>2021-10-09T08:40:26</time>
      </trkpt>
      <trkpt lat="43.00117" lon="-0.06256">
        <ele>540.6</ele>
        <time>2021-10-09T08:40:27</time>
      </trkpt>
      <trkpt lat="43.00115" lon="-0.06258">
        <ele>540.8</ele>
        <time>2021-10-09T08:40:28</time>
      </trkpt>
      <trkpt lat="43.00114" lon="-0.06259">
        <ele>541</ele>
        <time>2021-10-09T08:40:29</time>
      </trkpt>
      <trkpt lat="43.00112" lon="-0.06261">
        <ele>541.2</ele>
        <time>2021-10-09T08:40:30</time>
      </trkpt>
      <trkpt lat="43.0011" lon="-0.06262">
        <ele>541.4</ele>
        <time>2021-10-09T08:40:31</time>
      </trkpt>
      <trkpt lat="43.00109" lon="-0.06264">
        <ele>541.6</ele>
        <time>2021-10-09T08:40:32</time>
      </trkpt>
      <trkpt lat="43.00108" lon="-0.06266">
        <ele>541.6</ele>
        <time>2021-10-09T08:40:33</time>
      </trkpt>
      <trkpt lat="43.00106" lon="-0.06268">
        <ele>542</ele>
        <time>2021-10-09T08:40:34</time>
      </trkpt>
      <trkpt lat="43.00104" lon="-0.06269">
        <ele>542.2</ele>
        <time>2021-10-09T08:40:35</time>
      </trkpt>
      <trkpt lat="43.00103" lon="-0.06271">
        <ele>542.2</ele>
        <time>2021-10-09T08:40:36</time>
      </trkpt>
      <trkpt lat="43.00101" lon="-0.06272">
        <ele>542.4</ele>
        <time>2021-10-09T08:40:37</time>
      </trkpt>
      <trkpt lat="43.00099" lon="-0.06273">
        <ele>542.6</ele>
        <time>2021-10-09T08:40:38</time>
      </trkpt>
      <trkpt lat="43.00098" lon="-0.06274">
        <ele>542.8</ele>
        <time>2021-10-09T08:40:39</time>
      </trkpt>
      <trkpt lat="43.00096" lon="-0.06276">
        <ele>543</ele>
        <time>2021-10-09T08:40:40</time>
      </trkpt>
      <trkpt lat="43.00094" lon="-0.06277">
        <ele>543.2</ele>
        <time>2021-10-09T08:40:41</time>
      </trkpt>
      <trkpt lat="43.00092" lon="-0.06278">
        <ele>543.4</ele>
        <time>2021-10-09T08:40:42</time>
      </trkpt>
      <trkpt lat="43.0009" lon="-0.06279">
        <ele>543.4</ele>
        <time>2021-10-09T08:40:43</time>
      </trkpt>
      <trkpt lat="43.00088" lon="-0.0628">
        <ele>543.8</ele>
        <time>2021-10-09T08:40:44</time>
      </trkpt>
      <trkpt lat="43.00086" lon="-0.06281">
        <ele>543.8</ele>
        <time>2021-10-09T08:40:45</time>
      </trkpt>
      <trkpt lat="43.00084" lon="-0.06282">
        <ele>544</ele>
        <time>2021-10-09T08:40:46</time>
      </trkpt>
      <trkpt lat="43.00082" lon="-0.06283">
        <ele>544.2</ele>
        <time>2021-10-09T08:40:47</time>
      </trkpt>
      <trkpt lat="43.00081" lon="-0.06284">
        <ele>544.4</ele>
        <time>2021-10-09T08:40:48</time>
      </trkpt>
      <trkpt lat="43.00079" lon="-0.06285">
        <ele>544.6</ele>
        <time>2021-10-09T08:40:49</time>
      </trkpt>
      <trkpt lat="43.00078" lon="-0.06285">
        <ele>544.8</ele>
        <time>2021-10-09T08:40:50</time>
      </trkpt>
      <trkpt lat="43.00076" lon="-0.06286">
        <ele>544.8</ele>
        <time>2021-10-09T08:40:51</time>
      </trkpt>
      <trkpt lat="43.00074" lon="-0.06286">
        <ele>545</ele>
        <time>2021-10-09T08:40:52</time>
      </trkpt>
      <trkpt lat="43.00072" lon="-0.06287">
        <ele>545.2</ele>
        <time>2021-10-09T08:40:53</time>
      </trkpt>
      <trkpt lat="43.0007" lon="-0.06287">
        <ele>545.4</ele>
        <time>2021-10-09T08:40:54</time>
      </trkpt>
      <trkpt lat="43.00068" lon="-0.06288">
        <ele>545.6</ele>
        <time>2021-10-09T08:40:55</time>
      </trkpt>
      <trkpt lat="43.00067" lon="-0.06289">
        <ele>545.8</ele>
        <time>2021-10-09T08:40:56</time>
      </trkpt>
      <trkpt lat="43.00064" lon="-0.06289">
        <ele>546</ele>
        <time>2021-10-09T08:40:57</time>
      </trkpt>
      <trkpt lat="43.00062" lon="-0.0629">
        <ele>546.2</ele>
        <time>2021-10-09T08:40:58</time>
      </trkpt>
      <trkpt lat="43.0006" lon="-0.0629">
        <ele>546.4</ele>
        <time>2021-10-09T08:40:59</time>
      </trkpt>
      <trkpt lat="43.00058" lon="-0.0629">
        <ele>546.6</ele>
        <time>2021-10-09T08:41:00</time>
      </trkpt>
      <trkpt lat="43.00056" lon="-0.0629">
        <ele>546.6</ele>
        <time>2021-10-09T08:41:01</time>
      </trkpt>
      <trkpt lat="43.00054" lon="-0.06291">
        <ele>546.8</ele>
        <time>2021-10-09T08:41:02</time>
      </trkpt>
      <trkpt lat="43.00052" lon="-0.06291">
        <ele>547</ele>
        <time>2021-10-09T08:41:03</time>
      </trkpt>
      <trkpt lat="43.0005" lon="-0.06291">
        <ele>547.2</ele>
        <time>2021-10-09T08:41:04</time>
      </trkpt>
      <trkpt lat="43.00048" lon="-0.06291">
        <ele>547.4</ele>
        <time>2021-10-09T08:41:05</time>
      </trkpt>
      <trkpt lat="43.00046" lon="-0.06291">
        <ele>547.6</ele>
        <time>2021-10-09T08:41:06</time>
      </trkpt>
      <trkpt lat="43.00044" lon="-0.06291">
        <ele>547.8</ele>
        <time>2021-10-09T08:41:07</time>
      </trkpt>
      <trkpt lat="43.00042" lon="-0.06291">
        <ele>548</ele>
        <time>2021-10-09T08:41:08</time>
      </trkpt>
      <trkpt lat="43.0004" lon="-0.06291">
        <ele>548.2</ele>
        <time>2021-10-09T08:41:09</time>
      </trkpt>
      <trkpt lat="43.00038" lon="-0.06291">
        <ele>548.2</ele>
        <time>2021-10-09T08:41:10</time>
      </trkpt>
      <trkpt lat="43.00036" lon="-0.06291">
        <ele>548.4</ele>
        <time>2021-10-09T08:41:11</time>
      </trkpt>
      <trkpt lat="43.00034" lon="-0.06292">
        <ele>548.6</ele>
        <time>2021-10-09T08:41:12</time>
      </trkpt>
      <trkpt lat="43.00032" lon="-0.06292">
        <ele>548.8</ele>
        <time>2021-10-09T08:41:13</time>
      </trkpt>
      <trkpt lat="43.0003" lon="-0.06292">
        <ele>549</ele>
        <time>2021-10-09T08:41:14</time>
      </trkpt>
      <trkpt lat="43.00028" lon="-0.06292">
        <ele>549.2</ele>
        <time>2021-10-09T08:41:15</time>
      </trkpt>
      <trkpt lat="43.00027" lon="-0.06292">
        <ele>549.4</ele>
        <time>2021-10-09T08:41:16</time>
      </trkpt>
      <trkpt lat="43.00025" lon="-0.06292">
        <ele>549.6</ele>
        <time>2021-10-09T08:41:17</time>
      </trkpt>
      <trkpt lat="43.00023" lon="-0.06292">
        <ele>549.8</ele>
        <time>2021-10-09T08:41:18</time>
      </trkpt>
      <trkpt lat="43.0002" lon="-0.06292">
        <ele>550</ele>
        <time>2021-10-09T08:41:19</time>
      </trkpt>
      <trkpt lat="43.00018" lon="-0.06292">
        <ele>550</ele>
        <time>2021-10-09T08:41:20</time>
      </trkpt>
      <trkpt lat="43.00016" lon="-0.06292">
        <ele>550.2</ele>
        <time>2021-10-09T08:41:21</time>
      </trkpt>
      <trkpt lat="43.00014" lon="-0.06292">
        <ele>550.4</ele>
        <time>2021-10-09T08:41:22</time>
      </trkpt>
      <trkpt lat="43.00013" lon="-0.06292">
        <ele>550.6</ele>
        <time>2021-10-09T08:41:23</time>
      </trkpt>
      <trkpt lat="43.00011" lon="-0.06292">
        <ele>550.8</ele>
        <time>2021-10-09T08:41:24</time>
      </trkpt>
      <trkpt lat="43.00009" lon="-0.06292">
        <ele>551</ele>
        <time>2021-10-09T08:41:25</time>
      </trkpt>
      <trkpt lat="43.00006" lon="-0.06292">
        <ele>551.2</ele>
        <time>2021-10-09T08:41:26</time>
      </trkpt>
      <trkpt lat="43.00004" lon="-0.06292">
        <ele>551.4</ele>
        <time>2021-10-09T08:41:27</time>
      </trkpt>
      <trkpt lat="43.00002" lon="-0.06292">
        <ele>551.6</ele>
        <time>2021-10-09T08:41:28</time>
      </trkpt>
      <trkpt lat="43" lon="-0.06292">
        <ele>551.8</ele>
        <time>2021-10-09T08:41:29</time>
      </trkpt>
      <trkpt lat="42.99998" lon="-0.06292">
        <ele>552</ele>
        <time>2021-10-09T08:41:30</time>
      </trkpt>
      <trkpt lat="42.99996" lon="-0.06292">
        <ele>552.2</ele>
        <time>2021-10-09T08:41:31</time>
      </trkpt>
      <trkpt lat="42.99994" lon="-0.06292">
        <ele>552.4</ele>
        <time>2021-10-09T08:41:32</time>
      </trkpt>
      <trkpt lat="42.99992" lon="-0.06292">
        <ele>552.4</ele>
        <time>2021-10-09T08:41:33</time>
      </trkpt>
      <trkpt lat="42.9999" lon="-0.06291">
        <ele>552.6</ele>
        <time>2021-10-09T08:41:34</time>
      </trkpt>
      <trkpt lat="42.99988" lon="-0.06291">
        <ele>553</ele>
        <time>2021-10-09T08:41:35</time>
      </trkpt>
      <trkpt lat="42.99986" lon="-0.06291">
        <ele>553.2</ele>
        <time>2021-10-09T08:41:36</time>
      </trkpt>
      <trkpt lat="42.99984" lon="-0.06291">
        <ele>553.2</ele>
        <time>2021-10-09T08:41:37</time>
      </trkpt>
      <trkpt lat="42.99983" lon="-0.06291">
        <ele>553.4</ele>
        <time>2021-10-09T08:41:38</time>
      </trkpt>
      <trkpt lat="42.9998" lon="-0.0629">
        <ele>553.6</ele>
        <time>2021-10-09T08:41:39</time>
      </trkpt>
      <trkpt lat="42.99979" lon="-0.0629">
        <ele>553.8</ele>
        <time>2021-10-09T08:41:40</time>
      </trkpt>
      <trkpt lat="42.99977" lon="-0.06289">
        <ele>554</ele>
        <time>2021-10-09T08:41:41</time>
      </trkpt>
      <trkpt lat="42.99975" lon="-0.06289">
        <ele>554.2</ele>
        <time>2021-10-09T08:41:42</time>
      </trkpt>
      <trkpt lat="42.99973" lon="-0.06288">
        <ele>554.2</ele>
        <time>2021-10-09T08:41:43</time>
      </trkpt>
      <trkpt lat="42.99971" lon="-0.06287">
        <ele>554.4</ele>
        <time>2021-10-09T08:41:44</time>
      </trkpt>
      <trkpt lat="42.99969" lon="-0.06287">
        <ele>554.8</ele>
        <time>2021-10-09T08:41:45</time>
      </trkpt>
      <trkpt lat="42.99967" lon="-0.06286">
        <ele>555</ele>
        <time>2021-10-09T08:41:46</time>
      </trkpt>
      <trkpt lat="42.99965" lon="-0.06285">
        <ele>555</ele>
        <time>2021-10-09T08:41:47</time>
      </trkpt>
      <trkpt lat="42.99964" lon="-0.06284">
        <ele>555.2</ele>
        <time>2021-10-09T08:41:48</time>
      </trkpt>
      <trkpt lat="42.99962" lon="-0.06283">
        <ele>555.4</ele>
        <time>2021-10-09T08:41:49</time>
      </trkpt>
      <trkpt lat="42.99961" lon="-0.06281">
        <ele>555.6</ele>
        <time>2021-10-09T08:41:50</time>
      </trkpt>
      <trkpt lat="42.99959" lon="-0.0628">
        <ele>555.8</ele>
        <time>2021-10-09T08:41:51</time>
      </trkpt>
      <trkpt lat="42.99958" lon="-0.06278">
        <ele>555.8</ele>
        <time>2021-10-09T08:41:52</time>
      </trkpt>
      <trkpt lat="42.99956" lon="-0.06277">
        <ele>556.2</ele>
        <time>2021-10-09T08:41:53</time>
      </trkpt>
      <trkpt lat="42.99955" lon="-0.06275">
        <ele>556.2</ele>
        <time>2021-10-09T08:41:54</time>
      </trkpt>
      <trkpt lat="42.99954" lon="-0.06273">
        <ele>556.4</ele>
        <time>2021-10-09T08:41:55</time>
      </trkpt>
      <trkpt lat="42.99952" lon="-0.06271">
        <ele>556.6</ele>
        <time>2021-10-09T08:41:56</time>
      </trkpt>
      <trkpt lat="42.99951" lon="-0.06269">
        <ele>556.8</ele>
        <time>2021-10-09T08:41:57</time>
      </trkpt>
      <trkpt lat="42.9995" lon="-0.06267">
        <ele>557</ele>
        <time>2021-10-09T08:41:58</time>
      </trkpt>
      <trkpt lat="42.99949" lon="-0.06264">
        <ele>557</ele>
        <time>2021-10-09T08:41:59</time>
      </trkpt>
      <trkpt lat="42.99948" lon="-0.06261">
        <ele>557.2</ele>
        <time>2021-10-09T08:42:00</time>
      </trkpt>
      <trkpt lat="42.99946" lon="-0.06259">
        <ele>557.4</ele>
        <time>2021-10-09T08:42:01</time>
      </trkpt>
      <trkpt lat="42.99945" lon="-0.06257">
        <ele>557.6</ele>
        <time>2021-10-09T08:42:02</time>
      </trkpt>
      <trkpt lat="42.99944" lon="-0.06254">
        <ele>557.8</ele>
        <time>2021-10-09T08:42:03</time>
      </trkpt>
      <trkpt lat="42.99943" lon="-0.06252">
        <ele>558</ele>
        <time>2021-10-09T08:42:04</time>
      </trkpt>
      <trkpt lat="42.99942" lon="-0.06251">
        <ele>558.2</ele>
        <time>2021-10-09T08:42:05</time>
      </trkpt>
      <trkpt lat="42.9994" lon="-0.06249">
        <ele>558.2</ele>
        <time>2021-10-09T08:42:06</time>
      </trkpt>
      <trkpt lat="42.99939" lon="-0.06247">
        <ele>558.4</ele>
        <time>2021-10-09T08:42:07</time>
      </trkpt>
      <trkpt lat="42.99938" lon="-0.06245">
        <ele>558.6</ele>
        <time>2021-10-09T08:42:08</time>
      </trkpt>
      <trkpt lat="42.99936" lon="-0.06243">
        <ele>558.8</ele>
        <time>2021-10-09T08:42:09</time>
      </trkpt>
      <trkpt lat="42.99935" lon="-0.06241">
        <ele>558.8</ele>
        <time>2021-10-09T08:42:10</time>
      </trkpt>
      <trkpt lat="42.99933" lon="-0.0624">
        <ele>559.2</ele>
        <time>2021-10-09T08:42:11</time>
      </trkpt>
      <trkpt lat="42.99932" lon="-0.06238">
        <ele>559.4</ele>
        <time>2021-10-09T08:42:12</time>
      </trkpt>
      <trkpt lat="42.9993" lon="-0.06237">
        <ele>559.4</ele>
        <time>2021-10-09T08:42:13</time>
      </trkpt>
      <trkpt lat="42.99928" lon="-0.06235">
        <ele>559.8</ele>
        <time>2021-10-09T08:42:14</time>
      </trkpt>
      <trkpt lat="42.99926" lon="-0.06234">
        <ele>560</ele>
        <time>2021-10-09T08:42:15</time>
      </trkpt>
      <trkpt lat="42.99924" lon="-0.06233">
        <ele>560</ele>
        <time>2021-10-09T08:42:16</time>
      </trkpt>
      <trkpt lat="42.99922" lon="-0.06231">
        <ele>560.2</ele>
        <time>2021-10-09T08:42:17</time>
      </trkpt>
      <trkpt lat="42.9992" lon="-0.0623">
        <ele>560.6</ele>
        <time>2021-10-09T08:42:18</time>
      </trkpt>
      <trkpt lat="42.99918" lon="-0.06229">
        <ele>560.8</ele>
        <time>2021-10-09T08:42:19</time>
      </trkpt>
      <trkpt lat="42.99916" lon="-0.06228">
        <ele>560.8</ele>
        <time>2021-10-09T08:42:20</time>
      </trkpt>
      <trkpt lat="42.99914" lon="-0.06227">
        <ele>561</ele>
        <time>2021-10-09T08:42:21</time>
      </trkpt>
      <trkpt lat="42.99912" lon="-0.06226">
        <ele>561.2</ele>
        <time>2021-10-09T08:42:22</time>
      </trkpt>
      <trkpt lat="42.9991" lon="-0.06226">
        <ele>561.4</ele>
        <time>2021-10-09T08:42:23</time>
      </trkpt>
      <trkpt lat="42.99908" lon="-0.06225">
        <ele>561.8</ele>
        <time>2021-10-09T08:42:24</time>
      </trkpt>
      <trkpt lat="42.99906" lon="-0.06225">
        <ele>562</ele>
        <time>2021-10-09T08:42:25</time>
      </trkpt>
      <trkpt lat="42.99904" lon="-0.06224">
        <ele>562</ele>
        <time>2021-10-09T08:42:26</time>
      </trkpt>
      <trkpt lat="42.99902" lon="-0.06223">
        <ele>562.2</ele>
        <time>2021-10-09T08:42:27</time>
      </trkpt>
      <trkpt lat="42.99901" lon="-0.06223">
        <ele>562.4</ele>
        <time>2021-10-09T08:42:28</time>
      </trkpt>
      <trkpt lat="42.99899" lon="-0.06222">
        <ele>562.6</ele>
        <time>2021-10-09T08:42:29</time>
      </trkpt>
      <trkpt lat="42.99897" lon="-0.06222">
        <ele>562.8</ele>
        <time>2021-10-09T08:42:30</time>
      </trkpt>
      <trkpt lat="42.99895" lon="-0.06221">
        <ele>563</ele>
        <time>2021-10-09T08:42:31</time>
      </trkpt>
      <trkpt lat="42.99893" lon="-0.06221">
        <ele>563.2</ele>
        <time>2021-10-09T08:42:32</time>
      </trkpt>
      <trkpt lat="42.99891" lon="-0.0622">
        <ele>563.4</ele>
        <time>2021-10-09T08:42:33</time>
      </trkpt>
      <trkpt lat="42.99889" lon="-0.0622">
        <ele>563.4</ele>
        <time>2021-10-09T08:42:34</time>
      </trkpt>
      <trkpt lat="42.99887" lon="-0.06219">
        <ele>563.8</ele>
        <time>2021-10-09T08:42:35</time>
      </trkpt>
      <trkpt lat="42.99885" lon="-0.06219">
        <ele>564</ele>
        <time>2021-10-09T08:42:36</time>
      </trkpt>
      <trkpt lat="42.99883" lon="-0.06218">
        <ele>564.2</ele>
        <time>2021-10-09T08:42:37</time>
      </trkpt>
      <trkpt lat="42.99881" lon="-0.06217">
        <ele>564.4</ele>
        <time>2021-10-09T08:42:38</time>
      </trkpt>
      <trkpt lat="42.99879" lon="-0.06216">
        <ele>564.6</ele>
        <time>2021-10-09T08:42:39</time>
      </trkpt>
      <trkpt lat="42.99877" lon="-0.06215">
        <ele>564.6</ele>
        <time>2021-10-09T08:42:40</time>
      </trkpt>
      <trkpt lat="42.99875" lon="-0.06214">
        <ele>564.8</ele>
        <time>2021-10-09T08:42:41</time>
      </trkpt>
      <trkpt lat="42.99873" lon="-0.06212">
        <ele>565</ele>
        <time>2021-10-09T08:42:42</time>
      </trkpt>
      <trkpt lat="42.99871" lon="-0.06212">
        <ele>565.2</ele>
        <time>2021-10-09T08:42:43</time>
      </trkpt>
      <trkpt lat="42.9987" lon="-0.06212">
        <ele>565.2</ele>
        <time>2021-10-09T08:42:44</time>
      </trkpt>
      <trkpt lat="42.99868" lon="-0.06211">
        <ele>565.4</ele>
        <time>2021-10-09T08:42:45</time>
      </trkpt>
      <trkpt lat="42.99867" lon="-0.0621">
        <ele>565.4</ele>
        <time>2021-10-09T08:42:46</time>
      </trkpt>
      <trkpt lat="42.99866" lon="-0.0621">
        <ele>565.6</ele>
        <time>2021-10-09T08:42:47</time>
      </trkpt>
      <trkpt lat="42.99865" lon="-0.06209">
        <ele>565.6</ele>
        <time>2021-10-09T08:42:48</time>
      </trkpt>
      <trkpt lat="42.99864" lon="-0.06209">
        <ele>565.8</ele>
        <time>2021-10-09T08:42:49</time>
      </trkpt>
      <trkpt lat="42.99863" lon="-0.06209">
        <ele>565.8</ele>
        <time>2021-10-09T08:42:50</time>
      </trkpt>
      <trkpt lat="42.99862" lon="-0.06208">
        <ele>565.8</ele>
        <time>2021-10-09T08:42:51</time>
      </trkpt>
      <trkpt lat="42.99862" lon="-0.06206">
        <ele>565.8</ele>
        <time>2021-10-09T08:42:52</time>
      </trkpt>
      <trkpt lat="42.99862" lon="-0.06205">
        <ele>566</ele>
        <time>2021-10-09T08:42:53</time>
      </trkpt>
      <trkpt lat="42.99862" lon="-0.06204">
        <ele>566</ele>
        <time>2021-10-09T08:42:54</time>
      </trkpt>
      <trkpt lat="42.99862" lon="-0.06203">
        <ele>566</ele>
        <time>2021-10-09T08:42:55</time>
      </trkpt>
      <trkpt lat="42.99863" lon="-0.06203">
        <ele>566</ele>
        <time>2021-10-09T08:42:56</time>
      </trkpt>
      <trkpt lat="42.99864" lon="-0.06203">
        <ele>566</ele>
        <time>2021-10-09T08:42:57</time>
      </trkpt>
      <trkpt lat="42.99864" lon="-0.06203">
        <ele>565.8</ele>
        <time>2021-10-09T08:42:58</time>
      </trkpt>
      <trkpt lat="42.99865" lon="-0.06203">
        <ele>565.8</ele>
        <time>2021-10-09T08:42:59</time>
      </trkpt>
      <trkpt lat="42.99866" lon="-0.06203">
        <ele>565.6</ele>
        <time>2021-10-09T08:43:00</time>
      </trkpt>
      <trkpt lat="42.99867" lon="-0.06203">
        <ele>565.6</ele>
        <time>2021-10-09T08:43:01</time>
      </trkpt>
      <trkpt lat="42.99868" lon="-0.06204">
        <ele>565.4</ele>
        <time>2021-10-09T08:43:02</time>
      </trkpt>
      <trkpt lat="42.99868" lon="-0.06205">
        <ele>565.4</ele>
        <time>2021-10-09T08:43:03</time>
      </trkpt>
      <trkpt lat="42.99869" lon="-0.06206">
        <ele>565.2</ele>
        <time>2021-10-09T08:43:04</time>
      </trkpt>
      <trkpt lat="42.99869" lon="-0.06208">
        <ele>565.2</ele>
        <time>2021-10-09T08:43:05</time>
      </trkpt>
      <trkpt lat="42.99868" lon="-0.06209">
        <ele>565.2</ele>
        <time>2021-10-09T08:43:06</time>
      </trkpt>
      <trkpt lat="42.99867" lon="-0.06209">
        <ele>565.4</ele>
        <time>2021-10-09T08:43:07</time>
      </trkpt>
      <trkpt lat="42.99866" lon="-0.06209">
        <ele>565.4</ele>
        <time>2021-10-09T08:43:08</time>
      </trkpt>
      <trkpt lat="42.99866" lon="-0.06208">
        <ele>565.4</ele>
        <time>2021-10-09T08:43:09</time>
      </trkpt>
      <trkpt lat="42.99866" lon="-0.06207">
        <ele>565.4</ele>
        <time>2021-10-09T08:43:10</time>
      </trkpt>
      <trkpt lat="42.99866" lon="-0.06206">
        <ele>565.4</ele>
        <time>2021-10-09T08:43:11</time>
      </trkpt>
      <trkpt lat="42.99865" lon="-0.06205">
        <ele>565.4</ele>
        <time>2021-10-09T08:43:12</time>
      </trkpt>
      <trkpt lat="42.99864" lon="-0.06203">
        <ele>565.8</ele>
        <time>2021-10-09T08:43:13</time>
      </trkpt>
      <trkpt lat="42.99864" lon="-0.06202">
        <ele>565.8</ele>
        <time>2021-10-09T08:43:14</time>
      </trkpt>
      <trkpt lat="42.99863" lon="-0.06201">
        <ele>565.8</ele>
        <time>2021-10-09T08:43:15</time>
      </trkpt>
      <trkpt lat="42.99862" lon="-0.06201">
        <ele>566</ele>
        <time>2021-10-09T08:43:16</time>
      </trkpt>
      <trkpt lat="42.99861" lon="-0.062">
        <ele>566</ele>
        <time>2021-10-09T08:43:17</time>
      </trkpt>
      <trkpt lat="42.99861" lon="-0.062">
        <ele>566</ele>
        <time>2021-10-09T08:43:18</time>
      </trkpt>
      <trkpt lat="42.9986" lon="-0.062">
        <ele>566.2</ele>
        <time>2021-10-09T08:43:19</time>
      </trkpt>
      <trkpt lat="42.99859" lon="-0.06201">
        <ele>566.2</ele>
        <time>2021-10-09T08:43:20</time>
      </trkpt>
      <trkpt lat="42.99859" lon="-0.06202">
        <ele>566.2</ele>
        <time>2021-10-09T08:43:21</time>
      </trkpt>
      <trkpt lat="42.99859" lon="-0.06203">
        <ele>566.2</ele>
        <time>2021-10-09T08:43:22</time>
      </trkpt>
      <trkpt lat="42.9986" lon="-0.06203">
        <ele>566</ele>
        <time>2021-10-09T08:43:23</time>
      </trkpt>
      <trkpt lat="42.9986" lon="-0.06205">
        <ele>566</ele>
        <time>2021-10-09T08:43:24</time>
      </trkpt>
      <trkpt lat="42.99861" lon="-0.06205">
        <ele>565.8</ele>
        <time>2021-10-09T08:43:25</time>
      </trkpt>
      <trkpt lat="42.99863" lon="-0.06206">
        <ele>565.6</ele>
        <time>2021-10-09T08:43:26</time>
      </trkpt>
      <trkpt lat="42.99864" lon="-0.06205">
        <ele>565.6</ele>
        <time>2021-10-09T08:43:27</time>
      </trkpt>
      <trkpt lat="42.99864" lon="-0.06204">
        <ele>565.6</ele>
        <time>2021-10-09T08:43:28</time>
      </trkpt>
      <trkpt lat="42.99864" lon="-0.06203">
        <ele>565.8</ele>
        <time>2021-10-09T08:43:29</time>
      </trkpt>
      <trkpt lat="42.99863" lon="-0.06202">
        <ele>565.8</ele>
        <time>2021-10-09T08:43:30</time>
      </trkpt>
      <trkpt lat="42.99862" lon="-0.06202">
        <ele>566</ele>
        <time>2021-10-09T08:43:31</time>
      </trkpt>
      <trkpt lat="42.99862" lon="-0.06202">
        <ele>566</ele>
        <time>2021-10-09T08:43:32</time>
      </trkpt>
      <trkpt lat="42.99861" lon="-0.06202">
        <ele>566</ele>
        <time>2021-10-09T08:43:33</time>
      </trkpt>
      <trkpt lat="42.9986" lon="-0.06202">
        <ele>566</ele>
        <time>2021-10-09T08:43:34</time>
      </trkpt>
      <trkpt lat="42.9986" lon="-0.06202">
        <ele>566.2</ele>
        <time>2021-10-09T08:43:35</time>
      </trkpt>
      <trkpt lat="42.99859" lon="-0.06201">
        <ele>566.2</ele>
        <time>2021-10-09T08:43:36</time>
      </trkpt>
      <trkpt lat="42.99858" lon="-0.062">
        <ele>566.2</ele>
        <time>2021-10-09T08:43:37</time>
      </trkpt>
      <trkpt lat="42.99857" lon="-0.062">
        <ele>566.4</ele>
        <time>2021-10-09T08:43:38</time>
      </trkpt>
      <trkpt lat="42.99856" lon="-0.06201">
        <ele>566.6</ele>
        <time>2021-10-09T08:43:39</time>
      </trkpt>
      <trkpt lat="42.99855" lon="-0.06201">
        <ele>566.4</ele>
        <time>2021-10-09T08:43:40</time>
      </trkpt>
      <trkpt lat="42.99854" lon="-0.06201">
        <ele>566.6</ele>
        <time>2021-10-09T08:43:41</time>
      </trkpt>
      <trkpt lat="42.99853" lon="-0.062">
        <ele>566.6</ele>
        <time>2021-10-09T08:43:42</time>
      </trkpt>
      <trkpt lat="42.99851" lon="-0.06201">
        <ele>566.8</ele>
        <time>2021-10-09T08:43:43</time>
      </trkpt>
      <trkpt lat="42.9985" lon="-0.06201">
        <ele>566.8</ele>
        <time>2021-10-09T08:43:44</time>
      </trkpt>
      <trkpt lat="42.99848" lon="-0.06201">
        <ele>567</ele>
        <time>2021-10-09T08:43:45</time>
      </trkpt>
      <trkpt lat="42.99847" lon="-0.06201">
        <ele>567.2</ele>
        <time>2021-10-09T08:43:46</time>
      </trkpt>
      <trkpt lat="42.99846" lon="-0.06201">
        <ele>567.2</ele>
        <time>2021-10-09T08:43:47</time>
      </trkpt>
      <trkpt lat="42.99844" lon="-0.06201">
        <ele>567.4</ele>
        <time>2021-10-09T08:43:48</time>
      </trkpt>
      <trkpt lat="42.99842" lon="-0.06201">
        <ele>567.6</ele>
        <time>2021-10-09T08:43:49</time>
      </trkpt>
      <trkpt lat="42.99841" lon="-0.06202">
        <ele>567.8</ele>
        <time>2021-10-09T08:43:50</time>
      </trkpt>
      <trkpt lat="42.99839" lon="-0.06202">
        <ele>568</ele>
        <time>2021-10-09T08:43:51</time>
      </trkpt>
      <trkpt lat="42.99838" lon="-0.06203">
        <ele>568.2</ele>
        <time>2021-10-09T08:43:52</time>
      </trkpt>
      <trkpt lat="42.99836" lon="-0.06203">
        <ele>568.4</ele>
        <time>2021-10-09T08:43:53</time>
      </trkpt>
      <trkpt lat="42.99835" lon="-0.06203">
        <ele>568.4</ele>
        <time>2021-10-09T08:43:54</time>
      </trkpt>
      <trkpt lat="42.99833" lon="-0.06204">
        <ele>568.6</ele>
        <time>2021-10-09T08:43:55</time>
      </trkpt>
      <trkpt lat="42.99831" lon="-0.06204">
        <ele>568.8</ele>
        <time>2021-10-09T08:43:56</time>
      </trkpt>
      <trkpt lat="42.99829" lon="-0.06205">
        <ele>569</ele>
        <time>2021-10-09T08:43:57</time>
      </trkpt>
      <trkpt lat="42.99828" lon="-0.06206">
        <ele>569.2</ele>
        <time>2021-10-09T08:43:58</time>
      </trkpt>
      <trkpt lat="42.99826" lon="-0.06206">
        <ele>569.2</ele>
        <time>2021-10-09T08:43:59</time>
      </trkpt>
      <trkpt lat="42.99824" lon="-0.06207">
        <ele>569.4</ele>
        <time>2021-10-09T08:44:00</time>
      </trkpt>
      <trkpt lat="42.99822" lon="-0.06207">
        <ele>569.6</ele>
        <time>2021-10-09T08:44:01</time>
      </trkpt>
      <trkpt lat="42.9982" lon="-0.06208">
        <ele>569.8</ele>
        <time>2021-10-09T08:44:02</time>
      </trkpt>
      <trkpt lat="42.99819" lon="-0.06208">
        <ele>570</ele>
        <time>2021-10-09T08:44:03</time>
      </trkpt>
      <trkpt lat="42.99817" lon="-0.06208">
        <ele>570</ele>
        <time>2021-10-09T08:44:04</time>
      </trkpt>
      <trkpt lat="42.99815" lon="-0.06209">
        <ele>570.2</ele>
        <time>2021-10-09T08:44:05</time>
      </trkpt>
      <trkpt lat="42.99813" lon="-0.06208">
        <ele>570.4</ele>
        <time>2021-10-09T08:44:06</time>
      </trkpt>
      <trkpt lat="42.99811" lon="-0.06208">
        <ele>570.4</ele>
        <time>2021-10-09T08:44:07</time>
      </trkpt>
      <trkpt lat="42.99809" lon="-0.06208">
        <ele>570.6</ele>
        <time>2021-10-09T08:44:08</time>
      </trkpt>
      <trkpt lat="42.99808" lon="-0.06207">
        <ele>570.8</ele>
        <time>2021-10-09T08:44:09</time>
      </trkpt>
      <trkpt lat="42.99806" lon="-0.06206">
        <ele>571</ele>
        <time>2021-10-09T08:44:10</time>
      </trkpt>
      <trkpt lat="42.99804" lon="-0.06205">
        <ele>571.2</ele>
        <time>2021-10-09T08:44:11</time>
      </trkpt>
      <trkpt lat="42.99803" lon="-0.06204">
        <ele>571.4</ele>
        <time>2021-10-09T08:44:12</time>
      </trkpt>
      <trkpt lat="42.99801" lon="-0.06203">
        <ele>571.6</ele>
        <time>2021-10-09T08:44:13</time>
      </trkpt>
      <trkpt lat="42.99799" lon="-0.06202">
        <ele>571.8</ele>
        <time>2021-10-09T08:44:14</time>
      </trkpt>
      <trkpt lat="42.99798" lon="-0.06201">
        <ele>571.8</ele>
        <time>2021-10-09T08:44:15</time>
      </trkpt>
      <trkpt lat="42.99796" lon="-0.062">
        <ele>572</ele>
        <time>2021-10-09T08:44:16</time>
      </trkpt>
      <trkpt lat="42.99794" lon="-0.06199">
        <ele>572.2</ele>
        <time>2021-10-09T08:44:17</time>
      </trkpt>
      <trkpt lat="42.99793" lon="-0.06198">
        <ele>572.4</ele>
        <time>2021-10-09T08:44:18</time>
      </trkpt>
      <trkpt lat="42.99792" lon="-0.06197">
        <ele>572.6</ele>
        <time>2021-10-09T08:44:19</time>
      </trkpt>
      <trkpt lat="42.9979" lon="-0.06195">
        <ele>572.6</ele>
        <time>2021-10-09T08:44:20</time>
      </trkpt>
      <trkpt lat="42.99789" lon="-0.06194">
        <ele>572.8</ele>
        <time>2021-10-09T08:44:21</time>
      </trkpt>
      <trkpt lat="42.99788" lon="-0.06193">
        <ele>573</ele>
        <time>2021-10-09T08:44:22</time>
      </trkpt>
      <trkpt lat="42.99786" lon="-0.06191">
        <ele>573.2</ele>
        <time>2021-10-09T08:44:23</time>
      </trkpt>
      <trkpt lat="42.99785" lon="-0.0619">
        <ele>573.4</ele>
        <time>2021-10-09T08:44:24</time>
      </trkpt>
      <trkpt lat="42.99783" lon="-0.0619">
        <ele>573.6</ele>
        <time>2021-10-09T08:44:25</time>
      </trkpt>
      <trkpt lat="42.99781" lon="-0.06189">
        <ele>573.6</ele>
        <time>2021-10-09T08:44:26</time>
      </trkpt>
      <trkpt lat="42.9978" lon="-0.06188">
        <ele>573.8</ele>
        <time>2021-10-09T08:44:27</time>
      </trkpt>
      <trkpt lat="42.99778" lon="-0.06187">
        <ele>574</ele>
        <time>2021-10-09T08:44:28</time>
      </trkpt>
      <trkpt lat="42.99776" lon="-0.06187">
        <ele>574.2</ele>
        <time>2021-10-09T08:44:29</time>
      </trkpt>
      <trkpt lat="42.99774" lon="-0.06186">
        <ele>574.4</ele>
        <time>2021-10-09T08:44:30</time>
      </trkpt>
      <trkpt lat="42.99773" lon="-0.06186">
        <ele>574.4</ele>
        <time>2021-10-09T08:44:31</time>
      </trkpt>
      <trkpt lat="42.99771" lon="-0.06186">
        <ele>574.6</ele>
        <time>2021-10-09T08:44:32</time>
      </trkpt>
      <trkpt lat="42.99769" lon="-0.06186">
        <ele>574.6</ele>
        <time>2021-10-09T08:44:33</time>
      </trkpt>
      <trkpt lat="42.99767" lon="-0.06187">
        <ele>574.6</ele>
        <time>2021-10-09T08:44:34</time>
      </trkpt>
      <trkpt lat="42.99765" lon="-0.06187">
        <ele>574.8</ele>
        <time>2021-10-09T08:44:35</time>
      </trkpt>
      <trkpt lat="42.99763" lon="-0.06187">
        <ele>574.8</ele>
        <time>2021-10-09T08:44:36</time>
      </trkpt>
      <trkpt lat="42.99761" lon="-0.06188">
        <ele>574.8</ele>
        <time>2021-10-09T08:44:37</time>
      </trkpt>
      <trkpt lat="42.99759" lon="-0.06189">
        <ele>574.8</ele>
        <time>2021-10-09T08:44:38</time>
      </trkpt>
      <trkpt lat="42.99757" lon="-0.0619">
        <ele>575</ele>
        <time>2021-10-09T08:44:39</time>
      </trkpt>
      <trkpt lat="42.99755" lon="-0.0619">
        <ele>575</ele>
        <time>2021-10-09T08:44:40</time>
      </trkpt>
      <trkpt lat="42.99753" lon="-0.06191">
        <ele>575</ele>
        <time>2021-10-09T08:44:41</time>
      </trkpt>
      <trkpt lat="42.9975" lon="-0.06192">
        <ele>575</ele>
        <time>2021-10-09T08:44:42</time>
      </trkpt>
      <trkpt lat="42.99748" lon="-0.06193">
        <ele>575.2</ele>
        <time>2021-10-09T08:44:43</time>
      </trkpt>
      <trkpt lat="42.99746" lon="-0.06193">
        <ele>575.2</ele>
        <time>2021-10-09T08:44:44</time>
      </trkpt>
      <trkpt lat="42.99743" lon="-0.06194">
        <ele>575.2</ele>
        <time>2021-10-09T08:44:45</time>
      </trkpt>
      <trkpt lat="42.99741" lon="-0.06195">
        <ele>575.4</ele>
        <time>2021-10-09T08:44:46</time>
      </trkpt>
      <trkpt lat="42.99738" lon="-0.06196">
        <ele>575.4</ele>
        <time>2021-10-09T08:44:47</time>
      </trkpt>
      <trkpt lat="42.99736" lon="-0.06197">
        <ele>575.6</ele>
        <time>2021-10-09T08:44:48</time>
      </trkpt>
      <trkpt lat="42.99733" lon="-0.06197">
        <ele>575.6</ele>
        <time>2021-10-09T08:44:49</time>
      </trkpt>
      <trkpt lat="42.99731" lon="-0.06197">
        <ele>575.8</ele>
        <time>2021-10-09T08:44:50</time>
      </trkpt>
      <trkpt lat="42.99728" lon="-0.06196">
        <ele>575.8</ele>
        <time>2021-10-09T08:44:51</time>
      </trkpt>
      <trkpt lat="42.99725" lon="-0.06196">
        <ele>576</ele>
        <time>2021-10-09T08:44:52</time>
      </trkpt>
      <trkpt lat="42.99723" lon="-0.06197">
        <ele>576</ele>
        <time>2021-10-09T08:44:53</time>
      </trkpt>
      <trkpt lat="42.9972" lon="-0.06197">
        <ele>576.2</ele>
        <time>2021-10-09T08:44:54</time>
      </trkpt>
      <trkpt lat="42.99717" lon="-0.06196">
        <ele>576.2</ele>
        <time>2021-10-09T08:44:55</time>
      </trkpt>
      <trkpt lat="42.99714" lon="-0.06196">
        <ele>576.2</ele>
        <time>2021-10-09T08:44:56</time>
      </trkpt>
      <trkpt lat="42.99712" lon="-0.06196">
        <ele>576.2</ele>
        <time>2021-10-09T08:44:57</time>
      </trkpt>
      <trkpt lat="42.99709" lon="-0.06196">
        <ele>576.2</ele>
        <time>2021-10-09T08:44:58</time>
      </trkpt>
      <trkpt lat="42.99707" lon="-0.06196">
        <ele>576</ele>
        <time>2021-10-09T08:44:59</time>
      </trkpt>
      <trkpt lat="42.99705" lon="-0.06195">
        <ele>576</ele>
        <time>2021-10-09T08:45:00</time>
      </trkpt>
      <trkpt lat="42.99702" lon="-0.06195">
        <ele>575.8</ele>
        <time>2021-10-09T08:45:01</time>
      </trkpt>
      <trkpt lat="42.99699" lon="-0.06194">
        <ele>575.8</ele>
        <time>2021-10-09T08:45:02</time>
      </trkpt>
      <trkpt lat="42.99696" lon="-0.06192">
        <ele>575.8</ele>
        <time>2021-10-09T08:45:03</time>
      </trkpt>
      <trkpt lat="42.99694" lon="-0.06191">
        <ele>575.6</ele>
        <time>2021-10-09T08:45:04</time>
      </trkpt>
      <trkpt lat="42.99691" lon="-0.0619">
        <ele>575.6</ele>
        <time>2021-10-09T08:45:05</time>
      </trkpt>
      <trkpt lat="42.99688" lon="-0.06189">
        <ele>575.4</ele>
        <time>2021-10-09T08:45:06</time>
      </trkpt>
      <trkpt lat="42.99685" lon="-0.06188">
        <ele>575.2</ele>
        <time>2021-10-09T08:45:07</time>
      </trkpt>
      <trkpt lat="42.99681" lon="-0.06187">
        <ele>575.2</ele>
        <time>2021-10-09T08:45:08</time>
      </trkpt>
      <trkpt lat="42.99678" lon="-0.06186">
        <ele>574.8</ele>
        <time>2021-10-09T08:45:09</time>
      </trkpt>
      <trkpt lat="42.99674" lon="-0.06185">
        <ele>574.8</ele>
        <time>2021-10-09T08:45:10</time>
      </trkpt>
      <trkpt lat="42.9967" lon="-0.06184">
        <ele>574.6</ele>
        <time>2021-10-09T08:45:11</time>
      </trkpt>
      <trkpt lat="42.99666" lon="-0.06183">
        <ele>574.6</ele>
        <time>2021-10-09T08:45:12</time>
      </trkpt>
      <trkpt lat="42.99662" lon="-0.06183">
        <ele>574.8</ele>
        <time>2021-10-09T08:45:13</time>
      </trkpt>
      <trkpt lat="42.99659" lon="-0.06183">
        <ele>575</ele>
        <time>2021-10-09T08:45:14</time>
      </trkpt>
      <trkpt lat="42.99655" lon="-0.06183">
        <ele>575</ele>
        <time>2021-10-09T08:45:15</time>
      </trkpt>
      <trkpt lat="42.99653" lon="-0.06183">
        <ele>575.2</ele>
        <time>2021-10-09T08:45:16</time>
      </trkpt>
      <trkpt lat="42.9965" lon="-0.06183">
        <ele>575.4</ele>
        <time>2021-10-09T08:45:17</time>
      </trkpt>
      <trkpt lat="42.99647" lon="-0.06183">
        <ele>575.6</ele>
        <time>2021-10-09T08:45:18</time>
      </trkpt>
      <trkpt lat="42.99645" lon="-0.06183">
        <ele>575.8</ele>
        <time>2021-10-09T08:45:19</time>
      </trkpt>
      <trkpt lat="42.99643" lon="-0.06183">
        <ele>576</ele>
        <time>2021-10-09T08:45:20</time>
      </trkpt>
      <trkpt lat="42.99641" lon="-0.06182">
        <ele>576.2</ele>
        <time>2021-10-09T08:45:21</time>
      </trkpt>
      <trkpt lat="42.99639" lon="-0.06182">
        <ele>576.4</ele>
        <time>2021-10-09T08:45:22</time>
      </trkpt>
      <trkpt lat="42.99637" lon="-0.06182">
        <ele>576.6</ele>
        <time>2021-10-09T08:45:23</time>
      </trkpt>
      <trkpt lat="42.99635" lon="-0.06182">
        <ele>576.8</ele>
        <time>2021-10-09T08:45:24</time>
      </trkpt>
      <trkpt lat="42.99633" lon="-0.06181">
        <ele>577</ele>
        <time>2021-10-09T08:45:25</time>
      </trkpt>
      <trkpt lat="42.99632" lon="-0.06181">
        <ele>577.2</ele>
        <time>2021-10-09T08:45:26</time>
      </trkpt>
      <trkpt lat="42.9963" lon="-0.06181">
        <ele>577.4</ele>
        <time>2021-10-09T08:45:27</time>
      </trkpt>
      <trkpt lat="42.99629" lon="-0.0618">
        <ele>577.6</ele>
        <time>2021-10-09T08:45:28</time>
      </trkpt>
      <trkpt lat="42.99628" lon="-0.06179">
        <ele>577.8</ele>
        <time>2021-10-09T08:45:29</time>
      </trkpt>
      <trkpt lat="42.99626" lon="-0.06179">
        <ele>578</ele>
        <time>2021-10-09T08:45:30</time>
      </trkpt>
      <trkpt lat="42.99625" lon="-0.06178">
        <ele>578.2</ele>
        <time>2021-10-09T08:45:31</time>
      </trkpt>
      <trkpt lat="42.99623" lon="-0.06178">
        <ele>578.4</ele>
        <time>2021-10-09T08:45:32</time>
      </trkpt>
      <trkpt lat="42.99622" lon="-0.06177">
        <ele>578.6</ele>
        <time>2021-10-09T08:45:33</time>
      </trkpt>
      <trkpt lat="42.9962" lon="-0.06177">
        <ele>578.8</ele>
        <time>2021-10-09T08:45:34</time>
      </trkpt>
      <trkpt lat="42.99619" lon="-0.06176">
        <ele>579</ele>
        <time>2021-10-09T08:45:35</time>
      </trkpt>
      <trkpt lat="42.99617" lon="-0.06175">
        <ele>579.2</ele>
        <time>2021-10-09T08:45:36</time>
      </trkpt>
      <trkpt lat="42.99616" lon="-0.06175">
        <ele>579.4</ele>
        <time>2021-10-09T08:45:37</time>
      </trkpt>
      <trkpt lat="42.99614" lon="-0.06174">
        <ele>579.6</ele>
        <time>2021-10-09T08:45:38</time>
      </trkpt>
      <trkpt lat="42.99613" lon="-0.06173">
        <ele>579.8</ele>
        <time>2021-10-09T08:45:39</time>
      </trkpt>
      <trkpt lat="42.99611" lon="-0.06173">
        <ele>580</ele>
        <time>2021-10-09T08:45:40</time>
      </trkpt>
      <trkpt lat="42.9961" lon="-0.06172">
        <ele>580</ele>
        <time>2021-10-09T08:45:41</time>
      </trkpt>
      <trkpt lat="42.99609" lon="-0.06171">
        <ele>580.2</ele>
        <time>2021-10-09T08:45:42</time>
      </trkpt>
      <trkpt lat="42.99607" lon="-0.06171">
        <ele>580.6</ele>
        <time>2021-10-09T08:45:43</time>
      </trkpt>
      <trkpt lat="42.99605" lon="-0.0617">
        <ele>580.8</ele>
        <time>2021-10-09T08:45:44</time>
      </trkpt>
      <trkpt lat="42.99604" lon="-0.06169">
        <ele>581</ele>
        <time>2021-10-09T08:45:45</time>
      </trkpt>
      <trkpt lat="42.99602" lon="-0.06169">
        <ele>581.2</ele>
        <time>2021-10-09T08:45:46</time>
      </trkpt>
      <trkpt lat="42.99601" lon="-0.06168">
        <ele>581.2</ele>
        <time>2021-10-09T08:45:47</time>
      </trkpt>
      <trkpt lat="42.996" lon="-0.06167">
        <ele>581.4</ele>
        <time>2021-10-09T08:45:48</time>
      </trkpt>
      <trkpt lat="42.99598" lon="-0.06166">
        <ele>581.6</ele>
        <time>2021-10-09T08:45:49</time>
      </trkpt>
      <trkpt lat="42.99597" lon="-0.06166">
        <ele>582</ele>
        <time>2021-10-09T08:45:50</time>
      </trkpt>
      <trkpt lat="42.99595" lon="-0.06165">
        <ele>582.2</ele>
        <time>2021-10-09T08:45:51</time>
      </trkpt>
      <trkpt lat="42.99594" lon="-0.06165">
        <ele>582.4</ele>
        <time>2021-10-09T08:45:52</time>
      </trkpt>
      <trkpt lat="42.99592" lon="-0.06165">
        <ele>582.6</ele>
        <time>2021-10-09T08:45:53</time>
      </trkpt>
      <trkpt lat="42.99591" lon="-0.06164">
        <ele>582.8</ele>
        <time>2021-10-09T08:45:54</time>
      </trkpt>
      <trkpt lat="42.99589" lon="-0.06164">
        <ele>583</ele>
        <time>2021-10-09T08:45:55</time>
      </trkpt>
      <trkpt lat="42.99588" lon="-0.06163">
        <ele>583.2</ele>
        <time>2021-10-09T08:45:56</time>
      </trkpt>
      <trkpt lat="42.99587" lon="-0.06162">
        <ele>583.4</ele>
        <time>2021-10-09T08:45:57</time>
      </trkpt>
      <trkpt lat="42.99585" lon="-0.06162">
        <ele>583.4</ele>
        <time>2021-10-09T08:45:58</time>
      </trkpt>
      <trkpt lat="42.99584" lon="-0.06161">
        <ele>583.6</ele>
        <time>2021-10-09T08:45:59</time>
      </trkpt>
      <trkpt lat="42.99583" lon="-0.06161">
        <ele>583.8</ele>
        <time>2021-10-09T08:46:00</time>
      </trkpt>
      <trkpt lat="42.99581" lon="-0.0616">
        <ele>584</ele>
        <time>2021-10-09T08:46:01</time>
      </trkpt>
      <trkpt lat="42.9958" lon="-0.0616">
        <ele>584.2</ele>
        <time>2021-10-09T08:46:02</time>
      </trkpt>
      <trkpt lat="42.99579" lon="-0.06159">
        <ele>584.4</ele>
        <time>2021-10-09T08:46:03</time>
      </trkpt>
      <trkpt lat="42.99578" lon="-0.06158">
        <ele>584.6</ele>
        <time>2021-10-09T08:46:04</time>
      </trkpt>
      <trkpt lat="42.99576" lon="-0.06158">
        <ele>584.8</ele>
        <time>2021-10-09T08:46:05</time>
      </trkpt>
      <trkpt lat="42.99575" lon="-0.06157">
        <ele>585</ele>
        <time>2021-10-09T08:46:06</time>
      </trkpt>
      <trkpt lat="42.99574" lon="-0.06157">
        <ele>585.2</ele>
        <time>2021-10-09T08:46:07</time>
      </trkpt>
      <trkpt lat="42.99573" lon="-0.06156">
        <ele>585.4</ele>
        <time>2021-10-09T08:46:08</time>
      </trkpt>
      <trkpt lat="42.99572" lon="-0.06155">
        <ele>585.6</ele>
        <time>2021-10-09T08:46:09</time>
      </trkpt>
      <trkpt lat="42.99571" lon="-0.06154">
        <ele>585.8</ele>
        <time>2021-10-09T08:46:10</time>
      </trkpt>
      <trkpt lat="42.9957" lon="-0.06154">
        <ele>586</ele>
        <time>2021-10-09T08:46:11</time>
      </trkpt>
      <trkpt lat="42.99568" lon="-0.06153">
        <ele>586.2</ele>
        <time>2021-10-09T08:46:12</time>
      </trkpt>
      <trkpt lat="42.99567" lon="-0.06153">
        <ele>586.4</ele>
        <time>2021-10-09T08:46:13</time>
      </trkpt>
      <trkpt lat="42.99566" lon="-0.06152">
        <ele>586.4</ele>
        <time>2021-10-09T08:46:14</time>
      </trkpt>
      <trkpt lat="42.99565" lon="-0.06151">
        <ele>586.6</ele>
        <time>2021-10-09T08:46:15</time>
      </trkpt>
      <trkpt lat="42.99564" lon="-0.0615">
        <ele>586.8</ele>
        <time>2021-10-09T08:46:16</time>
      </trkpt>
      <trkpt lat="42.99562" lon="-0.0615">
        <ele>587</ele>
        <time>2021-10-09T08:46:17</time>
      </trkpt>
      <trkpt lat="42.99561" lon="-0.0615">
        <ele>587.2</ele>
        <time>2021-10-09T08:46:18</time>
      </trkpt>
      <trkpt lat="42.9956" lon="-0.06149">
        <ele>587.4</ele>
        <time>2021-10-09T08:46:19</time>
      </trkpt>
      <trkpt lat="42.99559" lon="-0.06148">
        <ele>587.6</ele>
        <time>2021-10-09T08:46:20</time>
      </trkpt>
      <trkpt lat="42.99558" lon="-0.06148">
        <ele>587.8</ele>
        <time>2021-10-09T08:46:21</time>
      </trkpt>
      <trkpt lat="42.99557" lon="-0.06147">
        <ele>588</ele>
        <time>2021-10-09T08:46:22</time>
      </trkpt>
      <trkpt lat="42.99556" lon="-0.06146">
        <ele>588</ele>
        <time>2021-10-09T08:46:23</time>
      </trkpt>
      <trkpt lat="42.99555" lon="-0.06145">
        <ele>588.2</ele>
        <time>2021-10-09T08:46:24</time>
      </trkpt>
      <trkpt lat="42.99554" lon="-0.06144">
        <ele>588.4</ele>
        <time>2021-10-09T08:46:25</time>
      </trkpt>
      <trkpt lat="42.99553" lon="-0.06143">
        <ele>588.6</ele>
        <time>2021-10-09T08:46:26</time>
      </trkpt>
      <trkpt lat="42.99552" lon="-0.06142">
        <ele>588.8</ele>
        <time>2021-10-09T08:46:27</time>
      </trkpt>
      <trkpt lat="42.99551" lon="-0.06141">
        <ele>589</ele>
        <time>2021-10-09T08:46:28</time>
      </trkpt>
      <trkpt lat="42.9955" lon="-0.0614">
        <ele>589.2</ele>
        <time>2021-10-09T08:46:29</time>
      </trkpt>
      <trkpt lat="42.99549" lon="-0.06139">
        <ele>589.4</ele>
        <time>2021-10-09T08:46:30</time>
      </trkpt>
      <trkpt lat="42.99548" lon="-0.06137">
        <ele>589.4</ele>
        <time>2021-10-09T08:46:31</time>
      </trkpt>
      <trkpt lat="42.99547" lon="-0.06136">
        <ele>589.6</ele>
        <time>2021-10-09T08:46:32</time>
      </trkpt>
      <trkpt lat="42.99547" lon="-0.06135">
        <ele>589.8</ele>
        <time>2021-10-09T08:46:33</time>
      </trkpt>
      <trkpt lat="42.99546" lon="-0.06134">
        <ele>590</ele>
        <time>2021-10-09T08:46:34</time>
      </trkpt>
      <trkpt lat="42.99545" lon="-0.06133">
        <ele>590.2</ele>
        <time>2021-10-09T08:46:35</time>
      </trkpt>
      <trkpt lat="42.99544" lon="-0.06132">
        <ele>590.4</ele>
        <time>2021-10-09T08:46:36</time>
      </trkpt>
      <trkpt lat="42.99543" lon="-0.0613">
        <ele>590.6</ele>
        <time>2021-10-09T08:46:37</time>
      </trkpt>
      <trkpt lat="42.99542" lon="-0.06129">
        <ele>590.6</ele>
        <time>2021-10-09T08:46:38</time>
      </trkpt>
      <trkpt lat="42.99542" lon="-0.06128">
        <ele>590.8</ele>
        <time>2021-10-09T08:46:39</time>
      </trkpt>
      <trkpt lat="42.99541" lon="-0.06127">
        <ele>591</ele>
        <time>2021-10-09T08:46:40</time>
      </trkpt>
      <trkpt lat="42.9954" lon="-0.06126">
        <ele>591.2</ele>
        <time>2021-10-09T08:46:41</time>
      </trkpt>
      <trkpt lat="42.99539" lon="-0.06124">
        <ele>591.4</ele>
        <time>2021-10-09T08:46:42</time>
      </trkpt>
      <trkpt lat="42.99538" lon="-0.06123">
        <ele>591.6</ele>
        <time>2021-10-09T08:46:43</time>
      </trkpt>
      <trkpt lat="42.99537" lon="-0.06122">
        <ele>591.6</ele>
        <time>2021-10-09T08:46:44</time>
      </trkpt>
      <trkpt lat="42.99536" lon="-0.06121">
        <ele>592</ele>
        <time>2021-10-09T08:46:45</time>
      </trkpt>
      <trkpt lat="42.99535" lon="-0.06119">
        <ele>592</ele>
        <time>2021-10-09T08:46:46</time>
      </trkpt>
      <trkpt lat="42.99535" lon="-0.06118">
        <ele>592.2</ele>
        <time>2021-10-09T08:46:47</time>
      </trkpt>
      <trkpt lat="42.99533" lon="-0.06117">
        <ele>592.4</ele>
        <time>2021-10-09T08:46:48</time>
      </trkpt>
      <trkpt lat="42.99532" lon="-0.06116">
        <ele>592.6</ele>
        <time>2021-10-09T08:46:49</time>
      </trkpt>
      <trkpt lat="42.99531" lon="-0.06115">
        <ele>592.8</ele>
        <time>2021-10-09T08:46:50</time>
      </trkpt>
      <trkpt lat="42.99529" lon="-0.06114">
        <ele>593</ele>
        <time>2021-10-09T08:46:51</time>
      </trkpt>
      <trkpt lat="42.99528" lon="-0.06113">
        <ele>593.4</ele>
        <time>2021-10-09T08:46:52</time>
      </trkpt>
      <trkpt lat="42.99527" lon="-0.06111">
        <ele>593.6</ele>
        <time>2021-10-09T08:46:53</time>
      </trkpt>
      <trkpt lat="42.99526" lon="-0.0611">
        <ele>593.8</ele>
        <time>2021-10-09T08:46:54</time>
      </trkpt>
      <trkpt lat="42.99524" lon="-0.06109">
        <ele>593.8</ele>
        <time>2021-10-09T08:46:55</time>
      </trkpt>
      <trkpt lat="42.99523" lon="-0.06108">
        <ele>594.2</ele>
        <time>2021-10-09T08:46:56</time>
      </trkpt>
      <trkpt lat="42.99522" lon="-0.06107">
        <ele>594.4</ele>
        <time>2021-10-09T08:46:57</time>
      </trkpt>
      <trkpt lat="42.99521" lon="-0.06105">
        <ele>594.6</ele>
        <time>2021-10-09T08:46:58</time>
      </trkpt>
      <trkpt lat="42.9952" lon="-0.06104">
        <ele>594.8</ele>
        <time>2021-10-09T08:46:59</time>
      </trkpt>
      <trkpt lat="42.99519" lon="-0.06102">
        <ele>595</ele>
        <time>2021-10-09T08:47:00</time>
      </trkpt>
      <trkpt lat="42.99518" lon="-0.06101">
        <ele>595.2</ele>
        <time>2021-10-09T08:47:01</time>
      </trkpt>
      <trkpt lat="42.99517" lon="-0.061">
        <ele>595.4</ele>
        <time>2021-10-09T08:47:02</time>
      </trkpt>
      <trkpt lat="42.99516" lon="-0.06098">
        <ele>595.4</ele>
        <time>2021-10-09T08:47:03</time>
      </trkpt>
      <trkpt lat="42.99515" lon="-0.06097">
        <ele>595.8</ele>
        <time>2021-10-09T08:47:04</time>
      </trkpt>
      <trkpt lat="42.99514" lon="-0.06096">
        <ele>595.8</ele>
        <time>2021-10-09T08:47:05</time>
      </trkpt>
      <trkpt lat="42.99513" lon="-0.06095">
        <ele>596.2</ele>
        <time>2021-10-09T08:47:06</time>
      </trkpt>
      <trkpt lat="42.99511" lon="-0.06094">
        <ele>596.2</ele>
        <time>2021-10-09T08:47:07</time>
      </trkpt>
      <trkpt lat="42.9951" lon="-0.06092">
        <ele>596.4</ele>
        <time>2021-10-09T08:47:08</time>
      </trkpt>
      <trkpt lat="42.99509" lon="-0.06091">
        <ele>596.8</ele>
        <time>2021-10-09T08:47:09</time>
      </trkpt>
      <trkpt lat="42.99508" lon="-0.06089">
        <ele>596.8</ele>
        <time>2021-10-09T08:47:10</time>
      </trkpt>
      <trkpt lat="42.99507" lon="-0.06088">
        <ele>597</ele>
        <time>2021-10-09T08:47:11</time>
      </trkpt>
      <trkpt lat="42.99506" lon="-0.06087">
        <ele>597.2</ele>
        <time>2021-10-09T08:47:12</time>
      </trkpt>
      <trkpt lat="42.99505" lon="-0.06086">
        <ele>597.4</ele>
        <time>2021-10-09T08:47:13</time>
      </trkpt>
      <trkpt lat="42.99503" lon="-0.06084">
        <ele>597.6</ele>
        <time>2021-10-09T08:47:14</time>
      </trkpt>
      <trkpt lat="42.99502" lon="-0.06083">
        <ele>597.8</ele>
        <time>2021-10-09T08:47:15</time>
      </trkpt>
      <trkpt lat="42.99501" lon="-0.06082">
        <ele>598</ele>
        <time>2021-10-09T08:47:16</time>
      </trkpt>
      <trkpt lat="42.995" lon="-0.0608">
        <ele>598.2</ele>
        <time>2021-10-09T08:47:17</time>
      </trkpt>
      <trkpt lat="42.99499" lon="-0.06079">
        <ele>598.2</ele>
        <time>2021-10-09T08:47:18</time>
      </trkpt>
      <trkpt lat="42.99498" lon="-0.06078">
        <ele>598.4</ele>
        <time>2021-10-09T08:47:19</time>
      </trkpt>
      <trkpt lat="42.99497" lon="-0.06076">
        <ele>598.6</ele>
        <time>2021-10-09T08:47:20</time>
      </trkpt>
      <trkpt lat="42.99497" lon="-0.06075">
        <ele>598.8</ele>
        <time>2021-10-09T08:47:21</time>
      </trkpt>
      <trkpt lat="42.99496" lon="-0.06074">
        <ele>598.8</ele>
        <time>2021-10-09T08:47:22</time>
      </trkpt>
      <trkpt lat="42.99496" lon="-0.06072">
        <ele>599</ele>
        <time>2021-10-09T08:47:23</time>
      </trkpt>
      <trkpt lat="42.99495" lon="-0.06071">
        <ele>599.2</ele>
        <time>2021-10-09T08:47:24</time>
      </trkpt>
      <trkpt lat="42.99494" lon="-0.0607">
        <ele>599.2</ele>
        <time>2021-10-09T08:47:25</time>
      </trkpt>
      <trkpt lat="42.99493" lon="-0.06069">
        <ele>599.2</ele>
        <time>2021-10-09T08:47:26</time>
      </trkpt>
      <trkpt lat="42.99492" lon="-0.06069">
        <ele>599.4</ele>
        <time>2021-10-09T08:47:27</time>
      </trkpt>
      <trkpt lat="42.99491" lon="-0.06068">
        <ele>599.6</ele>
        <time>2021-10-09T08:47:28</time>
      </trkpt>
      <trkpt lat="42.9949" lon="-0.06067">
        <ele>599.6</ele>
        <time>2021-10-09T08:47:29</time>
      </trkpt>
      <trkpt lat="42.99489" lon="-0.06066">
        <ele>599.8</ele>
        <time>2021-10-09T08:47:30</time>
      </trkpt>
      <trkpt lat="42.99488" lon="-0.06065">
        <ele>600</ele>
        <time>2021-10-09T08:47:31</time>
      </trkpt>
      <trkpt lat="42.99487" lon="-0.06064">
        <ele>600</ele>
        <time>2021-10-09T08:47:32</time>
      </trkpt>
      <trkpt lat="42.99486" lon="-0.06063">
        <ele>600.2</ele>
        <time>2021-10-09T08:47:33</time>
      </trkpt>
      <trkpt lat="42.99485" lon="-0.06062">
        <ele>600.4</ele>
        <time>2021-10-09T08:47:34</time>
      </trkpt>
      <trkpt lat="42.99484" lon="-0.06061">
        <ele>600.4</ele>
        <time>2021-10-09T08:47:35</time>
      </trkpt>
      <trkpt lat="42.99483" lon="-0.0606">
        <ele>600.6</ele>
        <time>2021-10-09T08:47:36</time>
      </trkpt>
      <trkpt lat="42.99482" lon="-0.06059">
        <ele>600.6</ele>
        <time>2021-10-09T08:47:37</time>
      </trkpt>
      <trkpt lat="42.99481" lon="-0.06058">
        <ele>600.8</ele>
        <time>2021-10-09T08:47:38</time>
      </trkpt>
      <trkpt lat="42.9948" lon="-0.06057">
        <ele>601</ele>
        <time>2021-10-09T08:47:39</time>
      </trkpt>
      <trkpt lat="42.99479" lon="-0.06055">
        <ele>601.2</ele>
        <time>2021-10-09T08:47:40</time>
      </trkpt>
      <trkpt lat="42.99478" lon="-0.06054">
        <ele>601.2</ele>
        <time>2021-10-09T08:47:41</time>
      </trkpt>
      <trkpt lat="42.99478" lon="-0.06053">
        <ele>601.4</ele>
        <time>2021-10-09T08:47:42</time>
      </trkpt>
      <trkpt lat="42.99477" lon="-0.06051">
        <ele>601.6</ele>
        <time>2021-10-09T08:47:43</time>
      </trkpt>
      <trkpt lat="42.99476" lon="-0.06051">
        <ele>601.6</ele>
        <time>2021-10-09T08:47:44</time>
      </trkpt>
      <trkpt lat="42.99475" lon="-0.0605">
        <ele>601.8</ele>
        <time>2021-10-09T08:47:45</time>
      </trkpt>
      <trkpt lat="42.99474" lon="-0.06049">
        <ele>602</ele>
        <time>2021-10-09T08:47:46</time>
      </trkpt>
      <trkpt lat="42.99473" lon="-0.06048">
        <ele>602</ele>
        <time>2021-10-09T08:47:47</time>
      </trkpt>
      <trkpt lat="42.99472" lon="-0.06047">
        <ele>602.2</ele>
        <time>2021-10-09T08:47:48</time>
      </trkpt>
      <trkpt lat="42.99471" lon="-0.06045">
        <ele>602.2</ele>
        <time>2021-10-09T08:47:49</time>
      </trkpt>
      <trkpt lat="42.9947" lon="-0.06044">
        <ele>602.4</ele>
        <time>2021-10-09T08:47:50</time>
      </trkpt>
      <trkpt lat="42.99469" lon="-0.06043">
        <ele>602.4</ele>
        <time>2021-10-09T08:47:51</time>
      </trkpt>
      <trkpt lat="42.99468" lon="-0.06042">
        <ele>602.6</ele>
        <time>2021-10-09T08:47:52</time>
      </trkpt>
      <trkpt lat="42.99467" lon="-0.06041">
        <ele>602.6</ele>
        <time>2021-10-09T08:47:53</time>
      </trkpt>
      <trkpt lat="42.99466" lon="-0.0604">
        <ele>602.8</ele>
        <time>2021-10-09T08:47:54</time>
      </trkpt>
      <trkpt lat="42.99465" lon="-0.06039">
        <ele>602.8</ele>
        <time>2021-10-09T08:47:55</time>
      </trkpt>
      <trkpt lat="42.99464" lon="-0.06037">
        <ele>603</ele>
        <time>2021-10-09T08:47:56</time>
      </trkpt>
      <trkpt lat="42.99463" lon="-0.06036">
        <ele>603.2</ele>
        <time>2021-10-09T08:47:57</time>
      </trkpt>
      <trkpt lat="42.99462" lon="-0.06035">
        <ele>603.4</ele>
        <time>2021-10-09T08:47:58</time>
      </trkpt>
      <trkpt lat="42.99461" lon="-0.06034">
        <ele>603.4</ele>
        <time>2021-10-09T08:47:59</time>
      </trkpt>
      <trkpt lat="42.9946" lon="-0.06032">
        <ele>603.6</ele>
        <time>2021-10-09T08:48:00</time>
      </trkpt>
      <trkpt lat="42.9946" lon="-0.06031">
        <ele>603.6</ele>
        <time>2021-10-09T08:48:01</time>
      </trkpt>
      <trkpt lat="42.99459" lon="-0.06029">
        <ele>603.8</ele>
        <time>2021-10-09T08:48:02</time>
      </trkpt>
      <trkpt lat="42.99458" lon="-0.06028">
        <ele>604</ele>
        <time>2021-10-09T08:48:03</time>
      </trkpt>
      <trkpt lat="42.99457" lon="-0.06026">
        <ele>604.2</ele>
        <time>2021-10-09T08:48:04</time>
      </trkpt>
      <trkpt lat="42.99457" lon="-0.06025">
        <ele>604.2</ele>
        <time>2021-10-09T08:48:05</time>
      </trkpt>
      <trkpt lat="42.99456" lon="-0.06023">
        <ele>604.4</ele>
        <time>2021-10-09T08:48:06</time>
      </trkpt>
      <trkpt lat="42.99455" lon="-0.06022">
        <ele>604.4</ele>
        <time>2021-10-09T08:48:07</time>
      </trkpt>
      <trkpt lat="42.99454" lon="-0.06021">
        <ele>604.6</ele>
        <time>2021-10-09T08:48:08</time>
      </trkpt>
      <trkpt lat="42.99453" lon="-0.0602">
        <ele>604.8</ele>
        <time>2021-10-09T08:48:09</time>
      </trkpt>
      <trkpt lat="42.99452" lon="-0.06019">
        <ele>604.8</ele>
        <time>2021-10-09T08:48:10</time>
      </trkpt>
      <trkpt lat="42.99452" lon="-0.06018">
        <ele>605</ele>
        <time>2021-10-09T08:48:11</time>
      </trkpt>
      <trkpt lat="42.9945" lon="-0.06017">
        <ele>605</ele>
        <time>2021-10-09T08:48:12</time>
      </trkpt>
      <trkpt lat="42.9945" lon="-0.06015">
        <ele>605.2</ele>
        <time>2021-10-09T08:48:13</time>
      </trkpt>
      <trkpt lat="42.99449" lon="-0.06014">
        <ele>605.4</ele>
        <time>2021-10-09T08:48:14</time>
      </trkpt>
      <trkpt lat="42.99448" lon="-0.06012">
        <ele>605.4</ele>
        <time>2021-10-09T08:48:15</time>
      </trkpt>
      <trkpt lat="42.99447" lon="-0.0601">
        <ele>605.6</ele>
        <time>2021-10-09T08:48:16</time>
      </trkpt>
      <trkpt lat="42.99447" lon="-0.06008">
        <ele>605.8</ele>
        <time>2021-10-09T08:48:17</time>
      </trkpt>
      <trkpt lat="42.99446" lon="-0.06006">
        <ele>606</ele>
        <time>2021-10-09T08:48:18</time>
      </trkpt>
      <trkpt lat="42.99445" lon="-0.06005">
        <ele>606.2</ele>
        <time>2021-10-09T08:48:19</time>
      </trkpt>
      <trkpt lat="42.99444" lon="-0.06003">
        <ele>606.2</ele>
        <time>2021-10-09T08:48:20</time>
      </trkpt>
      <trkpt lat="42.99443" lon="-0.06001">
        <ele>606.4</ele>
        <time>2021-10-09T08:48:21</time>
      </trkpt>
      <trkpt lat="42.99443" lon="-0.06">
        <ele>606.6</ele>
        <time>2021-10-09T08:48:22</time>
      </trkpt>
      <trkpt lat="42.99442" lon="-0.05998">
        <ele>606.8</ele>
        <time>2021-10-09T08:48:23</time>
      </trkpt>
      <trkpt lat="42.99442" lon="-0.05997">
        <ele>606.8</ele>
        <time>2021-10-09T08:48:24</time>
      </trkpt>
      <trkpt lat="42.99441" lon="-0.05995">
        <ele>607.2</ele>
        <time>2021-10-09T08:48:25</time>
      </trkpt>
      <trkpt lat="42.9944" lon="-0.05993">
        <ele>607.2</ele>
        <time>2021-10-09T08:48:26</time>
      </trkpt>
      <trkpt lat="42.9944" lon="-0.05992">
        <ele>607.4</ele>
        <time>2021-10-09T08:48:27</time>
      </trkpt>
      <trkpt lat="42.99439" lon="-0.0599">
        <ele>607.6</ele>
        <time>2021-10-09T08:48:28</time>
      </trkpt>
      <trkpt lat="42.99438" lon="-0.05989">
        <ele>607.8</ele>
        <time>2021-10-09T08:48:29</time>
      </trkpt>
      <trkpt lat="42.99437" lon="-0.05987">
        <ele>608</ele>
        <time>2021-10-09T08:48:30</time>
      </trkpt>
      <trkpt lat="42.99437" lon="-0.05986">
        <ele>608.2</ele>
        <time>2021-10-09T08:48:31</time>
      </trkpt>
      <trkpt lat="42.99436" lon="-0.05984">
        <ele>608.2</ele>
        <time>2021-10-09T08:48:32</time>
      </trkpt>
      <trkpt lat="42.99436" lon="-0.05982">
        <ele>608.4</ele>
        <time>2021-10-09T08:48:33</time>
      </trkpt>
      <trkpt lat="42.99435" lon="-0.0598">
        <ele>608.6</ele>
        <time>2021-10-09T08:48:34</time>
      </trkpt>
      <trkpt lat="42.99434" lon="-0.05979">
        <ele>608.8</ele>
        <time>2021-10-09T08:48:35</time>
      </trkpt>
      <trkpt lat="42.99434" lon="-0.05977">
        <ele>609</ele>
        <time>2021-10-09T08:48:36</time>
      </trkpt>
      <trkpt lat="42.99433" lon="-0.05976">
        <ele>609.2</ele>
        <time>2021-10-09T08:48:37</time>
      </trkpt>
      <trkpt lat="42.99432" lon="-0.05974">
        <ele>609.4</ele>
        <time>2021-10-09T08:48:38</time>
      </trkpt>
      <trkpt lat="42.99432" lon="-0.05972">
        <ele>609.6</ele>
        <time>2021-10-09T08:48:39</time>
      </trkpt>
      <trkpt lat="42.99431" lon="-0.05971">
        <ele>609.8</ele>
        <time>2021-10-09T08:48:40</time>
      </trkpt>
      <trkpt lat="42.99431" lon="-0.05969">
        <ele>609.8</ele>
        <time>2021-10-09T08:48:41</time>
      </trkpt>
      <trkpt lat="42.99431" lon="-0.05968">
        <ele>610</ele>
        <time>2021-10-09T08:48:42</time>
      </trkpt>
      <trkpt lat="42.9943" lon="-0.05966">
        <ele>610.2</ele>
        <time>2021-10-09T08:48:43</time>
      </trkpt>
      <trkpt lat="42.9943" lon="-0.05964">
        <ele>610.4</ele>
        <time>2021-10-09T08:48:44</time>
      </trkpt>
      <trkpt lat="42.99429" lon="-0.05962">
        <ele>610.6</ele>
        <time>2021-10-09T08:48:45</time>
      </trkpt>
      <trkpt lat="42.99429" lon="-0.0596">
        <ele>610.8</ele>
        <time>2021-10-09T08:48:46</time>
      </trkpt>
      <trkpt lat="42.99428" lon="-0.05959">
        <ele>610.8</ele>
        <time>2021-10-09T08:48:47</time>
      </trkpt>
      <trkpt lat="42.99428" lon="-0.05957">
        <ele>611</ele>
        <time>2021-10-09T08:48:48</time>
      </trkpt>
      <trkpt lat="42.99427" lon="-0.05955">
        <ele>611.2</ele>
        <time>2021-10-09T08:48:49</time>
      </trkpt>
      <trkpt lat="42.99427" lon="-0.05953">
        <ele>611.4</ele>
        <time>2021-10-09T08:48:50</time>
      </trkpt>
      <trkpt lat="42.99427" lon="-0.05952">
        <ele>611.6</ele>
        <time>2021-10-09T08:48:51</time>
      </trkpt>
      <trkpt lat="42.99426" lon="-0.0595">
        <ele>611.8</ele>
        <time>2021-10-09T08:48:52</time>
      </trkpt>
      <trkpt lat="42.99426" lon="-0.05948">
        <ele>612</ele>
        <time>2021-10-09T08:48:53</time>
      </trkpt>
      <trkpt lat="42.99425" lon="-0.05946">
        <ele>612.2</ele>
        <time>2021-10-09T08:48:54</time>
      </trkpt>
      <trkpt lat="42.99425" lon="-0.05944">
        <ele>612.4</ele>
        <time>2021-10-09T08:48:55</time>
      </trkpt>
      <trkpt lat="42.99425" lon="-0.05943">
        <ele>612.4</ele>
        <time>2021-10-09T08:48:56</time>
      </trkpt>
      <trkpt lat="42.99424" lon="-0.05941">
        <ele>612.6</ele>
        <time>2021-10-09T08:48:57</time>
      </trkpt>
      <trkpt lat="42.99424" lon="-0.0594">
        <ele>612.8</ele>
        <time>2021-10-09T08:48:58</time>
      </trkpt>
      <trkpt lat="42.99423" lon="-0.05938">
        <ele>613</ele>
        <time>2021-10-09T08:48:59</time>
      </trkpt>
      <trkpt lat="42.99423" lon="-0.05936">
        <ele>613.2</ele>
        <time>2021-10-09T08:49:00</time>
      </trkpt>
      <trkpt lat="42.99422" lon="-0.05934">
        <ele>613.2</ele>
        <time>2021-10-09T08:49:01</time>
      </trkpt>
      <trkpt lat="42.99422" lon="-0.05933">
        <ele>613.4</ele>
        <time>2021-10-09T08:49:02</time>
      </trkpt>
      <trkpt lat="42.99421" lon="-0.05931">
        <ele>613.6</ele>
        <time>2021-10-09T08:49:03</time>
      </trkpt>
      <trkpt lat="42.9942" lon="-0.0593">
        <ele>613.8</ele>
        <time>2021-10-09T08:49:04</time>
      </trkpt>
      <trkpt lat="42.99419" lon="-0.05928">
        <ele>614</ele>
        <time>2021-10-09T08:49:05</time>
      </trkpt>
      <trkpt lat="42.99419" lon="-0.05927">
        <ele>614</ele>
        <time>2021-10-09T08:49:06</time>
      </trkpt>
      <trkpt lat="42.99418" lon="-0.05925">
        <ele>614.2</ele>
        <time>2021-10-09T08:49:07</time>
      </trkpt>
      <trkpt lat="42.99417" lon="-0.05924">
        <ele>614.4</ele>
        <time>2021-10-09T08:49:08</time>
      </trkpt>
      <trkpt lat="42.99416" lon="-0.05922">
        <ele>614.6</ele>
        <time>2021-10-09T08:49:09</time>
      </trkpt>
      <trkpt lat="42.99415" lon="-0.0592">
        <ele>614.6</ele>
        <time>2021-10-09T08:49:10</time>
      </trkpt>
      <trkpt lat="42.99414" lon="-0.05919">
        <ele>614.8</ele>
        <time>2021-10-09T08:49:11</time>
      </trkpt>
      <trkpt lat="42.99413" lon="-0.05917">
        <ele>615</ele>
        <time>2021-10-09T08:49:12</time>
      </trkpt>
      <trkpt lat="42.99413" lon="-0.05915">
        <ele>615.2</ele>
        <time>2021-10-09T08:49:13</time>
      </trkpt>
      <trkpt lat="42.99412" lon="-0.05913">
        <ele>615.4</ele>
        <time>2021-10-09T08:49:14</time>
      </trkpt>
      <trkpt lat="42.99411" lon="-0.05912">
        <ele>615.6</ele>
        <time>2021-10-09T08:49:15</time>
      </trkpt>
      <trkpt lat="42.9941" lon="-0.0591">
        <ele>615.6</ele>
        <time>2021-10-09T08:49:16</time>
      </trkpt>
      <trkpt lat="42.9941" lon="-0.05908">
        <ele>615.8</ele>
        <time>2021-10-09T08:49:17</time>
      </trkpt>
      <trkpt lat="42.99409" lon="-0.05906">
        <ele>616</ele>
        <time>2021-10-09T08:49:18</time>
      </trkpt>
      <trkpt lat="42.99408" lon="-0.05904">
        <ele>616.2</ele>
        <time>2021-10-09T08:49:19</time>
      </trkpt>
      <trkpt lat="42.99407" lon="-0.05902">
        <ele>616.4</ele>
        <time>2021-10-09T08:49:20</time>
      </trkpt>
      <trkpt lat="42.99406" lon="-0.059">
        <ele>616.4</ele>
        <time>2021-10-09T08:49:21</time>
      </trkpt>
      <trkpt lat="42.99405" lon="-0.05898">
        <ele>616.6</ele>
        <time>2021-10-09T08:49:22</time>
      </trkpt>
      <trkpt lat="42.99404" lon="-0.05896">
        <ele>616.8</ele>
        <time>2021-10-09T08:49:23</time>
      </trkpt>
      <trkpt lat="42.99403" lon="-0.05894">
        <ele>617</ele>
        <time>2021-10-09T08:49:24</time>
      </trkpt>
      <trkpt lat="42.99402" lon="-0.05892">
        <ele>617</ele>
        <time>2021-10-09T08:49:25</time>
      </trkpt>
      <trkpt lat="42.99401" lon="-0.0589">
        <ele>617.2</ele>
        <time>2021-10-09T08:49:26</time>
      </trkpt>
      <trkpt lat="42.994" lon="-0.05888">
        <ele>617.4</ele>
        <time>2021-10-09T08:49:27</time>
      </trkpt>
      <trkpt lat="42.99399" lon="-0.05886">
        <ele>617.6</ele>
        <time>2021-10-09T08:49:28</time>
      </trkpt>
      <trkpt lat="42.99398" lon="-0.05884">
        <ele>617.6</ele>
        <time>2021-10-09T08:49:29</time>
      </trkpt>
      <trkpt lat="42.99397" lon="-0.05882">
        <ele>617.8</ele>
        <time>2021-10-09T08:49:30</time>
      </trkpt>
      <trkpt lat="42.99397" lon="-0.0588">
        <ele>618</ele>
        <time>2021-10-09T08:49:31</time>
      </trkpt>
      <trkpt lat="42.99396" lon="-0.05878">
        <ele>618</ele>
        <time>2021-10-09T08:49:32</time>
      </trkpt>
      <trkpt lat="42.99395" lon="-0.05876">
        <ele>618.2</ele>
        <time>2021-10-09T08:49:33</time>
      </trkpt>
      <trkpt lat="42.99394" lon="-0.05874">
        <ele>618.4</ele>
        <time>2021-10-09T08:49:34</time>
      </trkpt>
      <trkpt lat="42.99393" lon="-0.05872">
        <ele>618.6</ele>
        <time>2021-10-09T08:49:35</time>
      </trkpt>
      <trkpt lat="42.99393" lon="-0.0587">
        <ele>618.8</ele>
        <time>2021-10-09T08:49:36</time>
      </trkpt>
      <trkpt lat="42.99392" lon="-0.05869">
        <ele>619</ele>
        <time>2021-10-09T08:49:37</time>
      </trkpt>
      <trkpt lat="42.99391" lon="-0.05867">
        <ele>619.2</ele>
        <time>2021-10-09T08:49:38</time>
      </trkpt>
      <trkpt lat="42.9939" lon="-0.05864">
        <ele>619.4</ele>
        <time>2021-10-09T08:49:39</time>
      </trkpt>
      <trkpt lat="42.99389" lon="-0.05862">
        <ele>619.6</ele>
        <time>2021-10-09T08:49:40</time>
      </trkpt>
      <trkpt lat="42.99388" lon="-0.0586">
        <ele>619.6</ele>
        <time>2021-10-09T08:49:41</time>
      </trkpt>
      <trkpt lat="42.99387" lon="-0.05857">
        <ele>619.8</ele>
        <time>2021-10-09T08:49:42</time>
      </trkpt>
      <trkpt lat="42.99386" lon="-0.05854">
        <ele>619.8</ele>
        <time>2021-10-09T08:49:43</time>
      </trkpt>
      <trkpt lat="42.99385" lon="-0.05851">
        <ele>620</ele>
        <time>2021-10-09T08:49:44</time>
      </trkpt>
      <trkpt lat="42.99384" lon="-0.05848">
        <ele>620</ele>
        <time>2021-10-09T08:49:45</time>
      </trkpt>
      <trkpt lat="42.99383" lon="-0.05845">
        <ele>620.2</ele>
        <time>2021-10-09T08:49:46</time>
      </trkpt>
      <trkpt lat="42.99382" lon="-0.05842">
        <ele>620.2</ele>
        <time>2021-10-09T08:49:47</time>
      </trkpt>
      <trkpt lat="42.99381" lon="-0.05838">
        <ele>620.2</ele>
        <time>2021-10-09T08:49:48</time>
      </trkpt>
      <trkpt lat="42.9938" lon="-0.05835">
        <ele>620.4</ele>
        <time>2021-10-09T08:49:49</time>
      </trkpt>
      <trkpt lat="42.99379" lon="-0.05832">
        <ele>620.4</ele>
        <time>2021-10-09T08:49:50</time>
      </trkpt>
      <trkpt lat="42.99378" lon="-0.05829">
        <ele>620.6</ele>
        <time>2021-10-09T08:49:51</time>
      </trkpt>
      <trkpt lat="42.99377" lon="-0.05826">
        <ele>620.6</ele>
        <time>2021-10-09T08:49:52</time>
      </trkpt>
      <trkpt lat="42.99377" lon="-0.05823">
        <ele>620.8</ele>
        <time>2021-10-09T08:49:53</time>
      </trkpt>
      <trkpt lat="42.99376" lon="-0.0582">
        <ele>621</ele>
        <time>2021-10-09T08:49:54</time>
      </trkpt>
      <trkpt lat="42.99375" lon="-0.05817">
        <ele>621</ele>
        <time>2021-10-09T08:49:55</time>
      </trkpt>
      <trkpt lat="42.99374" lon="-0.05814">
        <ele>621.2</ele>
        <time>2021-10-09T08:49:56</time>
      </trkpt>
      <trkpt lat="42.99374" lon="-0.0581">
        <ele>621.2</ele>
        <time>2021-10-09T08:49:57</time>
      </trkpt>
      <trkpt lat="42.99373" lon="-0.05807">
        <ele>621.4</ele>
        <time>2021-10-09T08:49:58</time>
      </trkpt>
      <trkpt lat="42.99372" lon="-0.05803">
        <ele>621.4</ele>
        <time>2021-10-09T08:49:59</time>
      </trkpt>
      <trkpt lat="42.99371" lon="-0.058">
        <ele>621.4</ele>
        <time>2021-10-09T08:50:00</time>
      </trkpt>
      <trkpt lat="42.9937" lon="-0.05796">
        <ele>621.6</ele>
        <time>2021-10-09T08:50:01</time>
      </trkpt>
      <trkpt lat="42.99369" lon="-0.05792">
        <ele>621.6</ele>
        <time>2021-10-09T08:50:02</time>
      </trkpt>
      <trkpt lat="42.99368" lon="-0.05788">
        <ele>621.6</ele>
        <time>2021-10-09T08:50:03</time>
      </trkpt>
      <trkpt lat="42.99367" lon="-0.05785">
        <ele>621.8</ele>
        <time>2021-10-09T08:50:04</time>
      </trkpt>
      <trkpt lat="42.99366" lon="-0.05781">
        <ele>621.8</ele>
        <time>2021-10-09T08:50:05</time>
      </trkpt>
      <trkpt lat="42.99365" lon="-0.05777">
        <ele>621.8</ele>
        <time>2021-10-09T08:50:06</time>
      </trkpt>
      <trkpt lat="42.99363" lon="-0.05773">
        <ele>622</ele>
        <time>2021-10-09T08:50:07</time>
      </trkpt>
      <trkpt lat="42.99361" lon="-0.0577">
        <ele>622</ele>
        <time>2021-10-09T08:50:08</time>
      </trkpt>
      <trkpt lat="42.99359" lon="-0.05768">
        <ele>622</ele>
        <time>2021-10-09T08:50:09</time>
      </trkpt>
      <trkpt lat="42.99356" lon="-0.05766">
        <ele>622.2</ele>
        <time>2021-10-09T08:50:10</time>
      </trkpt>
      <trkpt lat="42.99354" lon="-0.05764">
        <ele>622.2</ele>
        <time>2021-10-09T08:50:11</time>
      </trkpt>
      <trkpt lat="42.99351" lon="-0.05764">
        <ele>622.4</ele>
        <time>2021-10-09T08:50:12</time>
      </trkpt>
      <trkpt lat="42.99348" lon="-0.05764">
        <ele>622.4</ele>
        <time>2021-10-09T08:50:13</time>
      </trkpt>
      <trkpt lat="42.99345" lon="-0.05765">
        <ele>622.4</ele>
        <time>2021-10-09T08:50:14</time>
      </trkpt>
      <trkpt lat="42.99342" lon="-0.05766">
        <ele>622.6</ele>
        <time>2021-10-09T08:50:15</time>
      </trkpt>
      <trkpt lat="42.99339" lon="-0.05768">
        <ele>622.6</ele>
        <time>2021-10-09T08:50:16</time>
      </trkpt>
      <trkpt lat="42.99337" lon="-0.05769">
        <ele>622.8</ele>
        <time>2021-10-09T08:50:17</time>
      </trkpt>
      <trkpt lat="42.99334" lon="-0.05772">
        <ele>622.8</ele>
        <time>2021-10-09T08:50:18</time>
      </trkpt>
      <trkpt lat="42.99332" lon="-0.05774">
        <ele>623</ele>
        <time>2021-10-09T08:50:19</time>
      </trkpt>
      <trkpt lat="42.9933" lon="-0.05777">
        <ele>623</ele>
        <time>2021-10-09T08:50:20</time>
      </trkpt>
      <trkpt lat="42.99329" lon="-0.05781">
        <ele>623</ele>
        <time>2021-10-09T08:50:21</time>
      </trkpt>
      <trkpt lat="42.99328" lon="-0.05784">
        <ele>623</ele>
        <time>2021-10-09T08:50:22</time>
      </trkpt>
      <trkpt lat="42.99326" lon="-0.05788">
        <ele>623</ele>
        <time>2021-10-09T08:50:23</time>
      </trkpt>
      <trkpt lat="42.99325" lon="-0.05792">
        <ele>623</ele>
        <time>2021-10-09T08:50:24</time>
      </trkpt>
      <trkpt lat="42.99324" lon="-0.05796">
        <ele>623.2</ele>
        <time>2021-10-09T08:50:25</time>
      </trkpt>
      <trkpt lat="42.99324" lon="-0.05799">
        <ele>623.2</ele>
        <time>2021-10-09T08:50:26</time>
      </trkpt>
      <trkpt lat="42.99323" lon="-0.05803">
        <ele>623.2</ele>
        <time>2021-10-09T08:50:27</time>
      </trkpt>
      <trkpt lat="42.99322" lon="-0.05806">
        <ele>623.2</ele>
        <time>2021-10-09T08:50:28</time>
      </trkpt>
      <trkpt lat="42.99321" lon="-0.0581">
        <ele>623.2</ele>
        <time>2021-10-09T08:50:29</time>
      </trkpt>
      <trkpt lat="42.9932" lon="-0.05814">
        <ele>623.4</ele>
        <time>2021-10-09T08:50:30</time>
      </trkpt>
      <trkpt lat="42.99319" lon="-0.05818">
        <ele>623.4</ele>
        <time>2021-10-09T08:50:31</time>
      </trkpt>
      <trkpt lat="42.99318" lon="-0.05821">
        <ele>623.4</ele>
        <time>2021-10-09T08:50:32</time>
      </trkpt>
      <trkpt lat="42.99318" lon="-0.05824">
        <ele>623.6</ele>
        <time>2021-10-09T08:50:33</time>
      </trkpt>
      <trkpt lat="42.99317" lon="-0.05828">
        <ele>623.6</ele>
        <time>2021-10-09T08:50:34</time>
      </trkpt>
      <trkpt lat="42.99316" lon="-0.05831">
        <ele>623.6</ele>
        <time>2021-10-09T08:50:35</time>
      </trkpt>
      <trkpt lat="42.99315" lon="-0.05835">
        <ele>623.6</ele>
        <time>2021-10-09T08:50:36</time>
      </trkpt>
      <trkpt lat="42.99313" lon="-0.05839">
        <ele>623.6</ele>
        <time>2021-10-09T08:50:37</time>
      </trkpt>
      <trkpt lat="42.99312" lon="-0.05843">
        <ele>623.6</ele>
        <time>2021-10-09T08:50:38</time>
      </trkpt>
      <trkpt lat="42.9931" lon="-0.05847">
        <ele>623.6</ele>
        <time>2021-10-09T08:50:39</time>
      </trkpt>
      <trkpt lat="42.99308" lon="-0.05851">
        <ele>623.6</ele>
        <time>2021-10-09T08:50:40</time>
      </trkpt>
      <trkpt lat="42.99306" lon="-0.05854">
        <ele>623.6</ele>
        <time>2021-10-09T08:50:41</time>
      </trkpt>
      <trkpt lat="42.99303" lon="-0.05858">
        <ele>623.8</ele>
        <time>2021-10-09T08:50:42</time>
      </trkpt>
      <trkpt lat="42.99301" lon="-0.05861">
        <ele>623.8</ele>
        <time>2021-10-09T08:50:43</time>
      </trkpt>
      <trkpt lat="42.99298" lon="-0.05865">
        <ele>623.8</ele>
        <time>2021-10-09T08:50:44</time>
      </trkpt>
      <trkpt lat="42.99295" lon="-0.05868">
        <ele>623.8</ele>
        <time>2021-10-09T08:50:45</time>
      </trkpt>
      <trkpt lat="42.99292" lon="-0.05871">
        <ele>623.8</ele>
        <time>2021-10-09T08:50:46</time>
      </trkpt>
      <trkpt lat="42.99289" lon="-0.05874">
        <ele>623.8</ele>
        <time>2021-10-09T08:50:47</time>
      </trkpt>
      <trkpt lat="42.99285" lon="-0.05876">
        <ele>623.8</ele>
        <time>2021-10-09T08:50:48</time>
      </trkpt>
      <trkpt lat="42.99282" lon="-0.05879">
        <ele>623.8</ele>
        <time>2021-10-09T08:50:49</time>
      </trkpt>
      <trkpt lat="42.99279" lon="-0.05881">
        <ele>623.8</ele>
        <time>2021-10-09T08:50:50</time>
      </trkpt>
      <trkpt lat="42.99275" lon="-0.05883">
        <ele>624</ele>
        <time>2021-10-09T08:50:51</time>
      </trkpt>
      <trkpt lat="42.99271" lon="-0.05885">
        <ele>624</ele>
        <time>2021-10-09T08:50:52</time>
      </trkpt>
      <trkpt lat="42.99268" lon="-0.05887">
        <ele>624</ele>
        <time>2021-10-09T08:50:53</time>
      </trkpt>
      <trkpt lat="42.99265" lon="-0.05889">
        <ele>624.2</ele>
        <time>2021-10-09T08:50:54</time>
      </trkpt>
      <trkpt lat="42.99261" lon="-0.05891">
        <ele>624.4</ele>
        <time>2021-10-09T08:50:55</time>
      </trkpt>
      <trkpt lat="42.99258" lon="-0.05893">
        <ele>624.4</ele>
        <time>2021-10-09T08:50:56</time>
      </trkpt>
      <trkpt lat="42.99254" lon="-0.05895">
        <ele>624.4</ele>
        <time>2021-10-09T08:50:57</time>
      </trkpt>
      <trkpt lat="42.99251" lon="-0.05897">
        <ele>624.6</ele>
        <time>2021-10-09T08:50:58</time>
      </trkpt>
      <trkpt lat="42.99247" lon="-0.05898">
        <ele>624.8</ele>
        <time>2021-10-09T08:50:59</time>
      </trkpt>
      <trkpt lat="42.99244" lon="-0.059">
        <ele>624.8</ele>
        <time>2021-10-09T08:51:00</time>
      </trkpt>
      <trkpt lat="42.9924" lon="-0.05901">
        <ele>625</ele>
        <time>2021-10-09T08:51:01</time>
      </trkpt>
      <trkpt lat="42.99236" lon="-0.05902">
        <ele>625</ele>
        <time>2021-10-09T08:51:02</time>
      </trkpt>
      <trkpt lat="42.99233" lon="-0.05903">
        <ele>625</ele>
        <time>2021-10-09T08:51:03</time>
      </trkpt>
      <trkpt lat="42.99229" lon="-0.05904">
        <ele>625.2</ele>
        <time>2021-10-09T08:51:04</time>
      </trkpt>
      <trkpt lat="42.99226" lon="-0.05904">
        <ele>625.4</ele>
        <time>2021-10-09T08:51:05</time>
      </trkpt>
      <trkpt lat="42.99222" lon="-0.05904">
        <ele>625.6</ele>
        <time>2021-10-09T08:51:06</time>
      </trkpt>
      <trkpt lat="42.99219" lon="-0.05905">
        <ele>625.8</ele>
        <time>2021-10-09T08:51:07</time>
      </trkpt>
      <trkpt lat="42.99216" lon="-0.05905">
        <ele>626</ele>
        <time>2021-10-09T08:51:08</time>
      </trkpt>
      <trkpt lat="42.99213" lon="-0.05905">
        <ele>626.2</ele>
        <time>2021-10-09T08:51:09</time>
      </trkpt>
      <trkpt lat="42.99211" lon="-0.05906">
        <ele>626.4</ele>
        <time>2021-10-09T08:51:10</time>
      </trkpt>
      <trkpt lat="42.99208" lon="-0.05906">
        <ele>626.6</ele>
        <time>2021-10-09T08:51:11</time>
      </trkpt>
      <trkpt lat="42.99206" lon="-0.05906">
        <ele>626.6</ele>
        <time>2021-10-09T08:51:13</time>
      </trkpt>
      <trkpt lat="42.99202" lon="-0.05906">
        <ele>627</ele>
        <time>2021-10-09T08:51:14</time>
      </trkpt>
      <trkpt lat="42.992" lon="-0.05906">
        <ele>627.2</ele>
        <time>2021-10-09T08:51:15</time>
      </trkpt>
      <trkpt lat="42.99198" lon="-0.05906">
        <ele>627.4</ele>
        <time>2021-10-09T08:51:16</time>
      </trkpt>
      <trkpt lat="42.99196" lon="-0.05906">
        <ele>627.6</ele>
        <time>2021-10-09T08:51:18</time>
      </trkpt>
      <trkpt lat="42.99192" lon="-0.05905">
        <ele>628</ele>
        <time>2021-10-09T08:51:19</time>
      </trkpt>
      <trkpt lat="42.99189" lon="-0.05905">
        <ele>628</ele>
        <time>2021-10-09T08:51:20</time>
      </trkpt>
      <trkpt lat="42.99187" lon="-0.05904">
        <ele>628.2</ele>
        <time>2021-10-09T08:51:21</time>
      </trkpt>
      <trkpt lat="42.99185" lon="-0.05904">
        <ele>628.4</ele>
        <time>2021-10-09T08:51:23</time>
      </trkpt>
      <trkpt lat="42.99181" lon="-0.05904">
        <ele>628.8</ele>
        <time>2021-10-09T08:51:24</time>
      </trkpt>
      <trkpt lat="42.99178" lon="-0.05904">
        <ele>629</ele>
        <time>2021-10-09T08:51:25</time>
      </trkpt>
      <trkpt lat="42.99176" lon="-0.05903">
        <ele>629.2</ele>
        <time>2021-10-09T08:51:26</time>
      </trkpt>
      <trkpt lat="42.99174" lon="-0.05903">
        <ele>629.4</ele>
        <time>2021-10-09T08:51:27</time>
      </trkpt>
      <trkpt lat="42.99172" lon="-0.05902">
        <ele>629.6</ele>
        <time>2021-10-09T08:51:28</time>
      </trkpt>
      <trkpt lat="42.9917" lon="-0.05901">
        <ele>629.8</ele>
        <time>2021-10-09T08:51:29</time>
      </trkpt>
      <trkpt lat="42.99168" lon="-0.05901">
        <ele>630</ele>
        <time>2021-10-09T08:51:31</time>
      </trkpt>
      <trkpt lat="42.99163" lon="-0.059">
        <ele>630.4</ele>
        <time>2021-10-09T08:51:32</time>
      </trkpt>
      <trkpt lat="42.99161" lon="-0.059">
        <ele>630.6</ele>
        <time>2021-10-09T08:51:33</time>
      </trkpt>
      <trkpt lat="42.99159" lon="-0.059">
        <ele>630.8</ele>
        <time>2021-10-09T08:51:34</time>
      </trkpt>
      <trkpt lat="42.99158" lon="-0.059">
        <ele>630.8</ele>
        <time>2021-10-09T08:51:35</time>
      </trkpt>
      <trkpt lat="42.99155" lon="-0.059">
        <ele>631</ele>
        <time>2021-10-09T08:51:36</time>
      </trkpt>
      <trkpt lat="42.99153" lon="-0.059">
        <ele>631.2</ele>
        <time>2021-10-09T08:51:38</time>
      </trkpt>
      <trkpt lat="42.9915" lon="-0.059">
        <ele>631.6</ele>
        <time>2021-10-09T08:51:39</time>
      </trkpt>
      <trkpt lat="42.99147" lon="-0.059">
        <ele>631.8</ele>
        <time>2021-10-09T08:51:40</time>
      </trkpt>
      <trkpt lat="42.99145" lon="-0.059">
        <ele>632</ele>
        <time>2021-10-09T08:51:41</time>
      </trkpt>
      <trkpt lat="42.99144" lon="-0.05901">
        <ele>632.2</ele>
        <time>2021-10-09T08:51:43</time>
      </trkpt>
      <trkpt lat="42.9914" lon="-0.05902">
        <ele>632.6</ele>
        <time>2021-10-09T08:51:44</time>
      </trkpt>
      <trkpt lat="42.99138" lon="-0.05903">
        <ele>632.8</ele>
        <time>2021-10-09T08:51:45</time>
      </trkpt>
      <trkpt lat="42.99136" lon="-0.05904">
        <ele>633</ele>
        <time>2021-10-09T08:51:46</time>
      </trkpt>
      <trkpt lat="42.99135" lon="-0.05905">
        <ele>633.2</ele>
        <time>2021-10-09T08:51:47</time>
      </trkpt>
      <trkpt lat="42.99134" lon="-0.05906">
        <ele>633.2</ele>
        <time>2021-10-09T08:51:49</time>
      </trkpt>
      <trkpt lat="42.99133" lon="-0.05908">
        <ele>633.4</ele>
        <time>2021-10-09T08:51:50</time>
      </trkpt>
      <trkpt lat="42.99132" lon="-0.05909">
        <ele>633.4</ele>
        <time>2021-10-09T08:51:52</time>
      </trkpt>
      <trkpt lat="42.99129" lon="-0.05912">
        <ele>633.8</ele>
        <time>2021-10-09T08:51:53</time>
      </trkpt>
      <trkpt lat="42.99127" lon="-0.05913">
        <ele>634</ele>
        <time>2021-10-09T08:51:54</time>
      </trkpt>
      <trkpt lat="42.99126" lon="-0.05914">
        <ele>634.4</ele>
        <time>2021-10-09T08:51:55</time>
      </trkpt>
      <trkpt lat="42.99124" lon="-0.05915">
        <ele>634.6</ele>
        <time>2021-10-09T08:51:56</time>
      </trkpt>
      <trkpt lat="42.99123" lon="-0.05917">
        <ele>634.8</ele>
        <time>2021-10-09T08:51:57</time>
      </trkpt>
      <trkpt lat="42.99121" lon="-0.05918">
        <ele>635</ele>
        <time>2021-10-09T08:51:58</time>
      </trkpt>
      <trkpt lat="42.9912" lon="-0.05919">
        <ele>635.2</ele>
        <time>2021-10-09T08:51:59</time>
      </trkpt>
      <trkpt lat="42.99119" lon="-0.05921">
        <ele>635.4</ele>
        <time>2021-10-09T08:52:01</time>
      </trkpt>
      <trkpt lat="42.99116" lon="-0.05923">
        <ele>636</ele>
        <time>2021-10-09T08:52:02</time>
      </trkpt>
      <trkpt lat="42.99114" lon="-0.05924">
        <ele>636</ele>
        <time>2021-10-09T08:52:03</time>
      </trkpt>
      <trkpt lat="42.99113" lon="-0.05926">
        <ele>636.2</ele>
        <time>2021-10-09T08:52:04</time>
      </trkpt>
      <trkpt lat="42.99111" lon="-0.05927">
        <ele>636.4</ele>
        <time>2021-10-09T08:52:06</time>
      </trkpt>
      <trkpt lat="42.99108" lon="-0.05929">
        <ele>636.8</ele>
        <time>2021-10-09T08:52:07</time>
      </trkpt>
      <trkpt lat="42.99107" lon="-0.0593">
        <ele>637</ele>
        <time>2021-10-09T08:52:08</time>
      </trkpt>
      <trkpt lat="42.99105" lon="-0.05932">
        <ele>637.2</ele>
        <time>2021-10-09T08:52:10</time>
      </trkpt>
      <trkpt lat="42.99102" lon="-0.05934">
        <ele>637.6</ele>
        <time>2021-10-09T08:52:11</time>
      </trkpt>
      <trkpt lat="42.99101" lon="-0.05935">
        <ele>637.8</ele>
        <time>2021-10-09T08:52:13</time>
      </trkpt>
      <trkpt lat="42.99098" lon="-0.05938">
        <ele>638.2</ele>
        <time>2021-10-09T08:52:14</time>
      </trkpt>
      <trkpt lat="42.99096" lon="-0.05939">
        <ele>638.2</ele>
        <time>2021-10-09T08:52:15</time>
      </trkpt>
      <trkpt lat="42.99095" lon="-0.0594">
        <ele>638.6</ele>
        <time>2021-10-09T08:52:16</time>
      </trkpt>
      <trkpt lat="42.99093" lon="-0.05941">
        <ele>638.6</ele>
        <time>2021-10-09T08:52:17</time>
      </trkpt>
      <trkpt lat="42.99091" lon="-0.05943">
        <ele>638.8</ele>
        <time>2021-10-09T08:52:18</time>
      </trkpt>
      <trkpt lat="42.9909" lon="-0.05944">
        <ele>639</ele>
        <time>2021-10-09T08:52:20</time>
      </trkpt>
      <trkpt lat="42.99087" lon="-0.05946">
        <ele>639.4</ele>
        <time>2021-10-09T08:52:21</time>
      </trkpt>
      <trkpt lat="42.99085" lon="-0.05947">
        <ele>639.6</ele>
        <time>2021-10-09T08:52:22</time>
      </trkpt>
      <trkpt lat="42.99084" lon="-0.05949">
        <ele>639.8</ele>
        <time>2021-10-09T08:52:23</time>
      </trkpt>
      <trkpt lat="42.99082" lon="-0.0595">
        <ele>640</ele>
        <time>2021-10-09T08:52:24</time>
      </trkpt>
      <trkpt lat="42.99081" lon="-0.05951">
        <ele>640.2</ele>
        <time>2021-10-09T08:52:25</time>
      </trkpt>
      <trkpt lat="42.99079" lon="-0.05953">
        <ele>640.4</ele>
        <time>2021-10-09T08:52:27</time>
      </trkpt>
      <trkpt lat="42.99077" lon="-0.05955">
        <ele>641</ele>
        <time>2021-10-09T08:52:28</time>
      </trkpt>
      <trkpt lat="42.99075" lon="-0.05956">
        <ele>641.2</ele>
        <time>2021-10-09T08:52:29</time>
      </trkpt>
      <trkpt lat="42.99073" lon="-0.05957">
        <ele>641.4</ele>
        <time>2021-10-09T08:52:30</time>
      </trkpt>
      <trkpt lat="42.99072" lon="-0.05959">
        <ele>641.6</ele>
        <time>2021-10-09T08:52:32</time>
      </trkpt>
      <trkpt lat="42.9907" lon="-0.0596">
        <ele>641.8</ele>
        <time>2021-10-09T08:52:33</time>
      </trkpt>
      <trkpt lat="42.99069" lon="-0.05961">
        <ele>642</ele>
        <time>2021-10-09T08:52:34</time>
      </trkpt>
      <trkpt lat="42.99068" lon="-0.05962">
        <ele>642.2</ele>
        <time>2021-10-09T08:52:35</time>
      </trkpt>
      <trkpt lat="42.99066" lon="-0.05963">
        <ele>642.4</ele>
        <time>2021-10-09T08:52:36</time>
      </trkpt>
      <trkpt lat="42.99065" lon="-0.05964">
        <ele>642.6</ele>
        <time>2021-10-09T08:52:37</time>
      </trkpt>
      <trkpt lat="42.99062" lon="-0.05966">
        <ele>643</ele>
        <time>2021-10-09T08:52:38</time>
      </trkpt>
      <trkpt lat="42.99061" lon="-0.05967">
        <ele>643.2</ele>
        <time>2021-10-09T08:52:39</time>
      </trkpt>
      <trkpt lat="42.99059" lon="-0.05969">
        <ele>643.4</ele>
        <time>2021-10-09T08:52:40</time>
      </trkpt>
      <trkpt lat="42.99058" lon="-0.0597">
        <ele>643.6</ele>
        <time>2021-10-09T08:52:42</time>
      </trkpt>
      <trkpt lat="42.99056" lon="-0.05971">
        <ele>643.8</ele>
        <time>2021-10-09T08:52:43</time>
      </trkpt>
      <trkpt lat="42.99055" lon="-0.05973">
        <ele>644</ele>
        <time>2021-10-09T08:52:44</time>
      </trkpt>
      <trkpt lat="42.99053" lon="-0.05974">
        <ele>644.2</ele>
        <time>2021-10-09T08:52:45</time>
      </trkpt>
      <trkpt lat="42.99052" lon="-0.05976">
        <ele>644.4</ele>
        <time>2021-10-09T08:52:46</time>
      </trkpt>
      <trkpt lat="42.9905" lon="-0.05977">
        <ele>644.6</ele>
        <time>2021-10-09T08:52:47</time>
      </trkpt>
      <trkpt lat="42.99048" lon="-0.05978">
        <ele>644.8</ele>
        <time>2021-10-09T08:52:48</time>
      </trkpt>
      <trkpt lat="42.99047" lon="-0.05979">
        <ele>645</ele>
        <time>2021-10-09T08:52:49</time>
      </trkpt>
      <trkpt lat="42.99043" lon="-0.05982">
        <ele>645.6</ele>
        <time>2021-10-09T08:52:50</time>
      </trkpt>
      <trkpt lat="42.99041" lon="-0.05984">
        <ele>645.8</ele>
        <time>2021-10-09T08:52:51</time>
      </trkpt>
      <trkpt lat="42.99039" lon="-0.05985">
        <ele>646.2</ele>
        <time>2021-10-09T08:52:52</time>
      </trkpt>
      <trkpt lat="42.99037" lon="-0.05987">
        <ele>646.6</ele>
        <time>2021-10-09T08:52:53</time>
      </trkpt>
      <trkpt lat="42.99034" lon="-0.05989">
        <ele>647</ele>
        <time>2021-10-09T08:52:54</time>
      </trkpt>
      <trkpt lat="42.99031" lon="-0.05991">
        <ele>647.2</ele>
        <time>2021-10-09T08:52:56</time>
      </trkpt>
      <trkpt lat="42.99029" lon="-0.05993">
        <ele>647.6</ele>
        <time>2021-10-09T08:52:57</time>
      </trkpt>
      <trkpt lat="42.99028" lon="-0.05994">
        <ele>647.8</ele>
        <time>2021-10-09T08:52:58</time>
      </trkpt>
      <trkpt lat="42.99024" lon="-0.05996">
        <ele>648.2</ele>
        <time>2021-10-09T08:52:59</time>
      </trkpt>
      <trkpt lat="42.99023" lon="-0.05997">
        <ele>648.4</ele>
        <time>2021-10-09T08:53:01</time>
      </trkpt>
      <trkpt lat="42.99021" lon="-0.05997">
        <ele>648.4</ele>
        <time>2021-10-09T08:53:02</time>
      </trkpt>
      <trkpt lat="42.99019" lon="-0.05996">
        <ele>648.6</ele>
        <time>2021-10-09T08:53:03</time>
      </trkpt>
      <trkpt lat="42.99018" lon="-0.05996">
        <ele>648.6</ele>
        <time>2021-10-09T08:53:04</time>
      </trkpt>
      <trkpt lat="42.99015" lon="-0.05996">
        <ele>649</ele>
        <time>2021-10-09T08:53:05</time>
      </trkpt>
      <trkpt lat="42.99014" lon="-0.05996">
        <ele>649</ele>
        <time>2021-10-09T08:53:06</time>
      </trkpt>
      <trkpt lat="42.99013" lon="-0.05996">
        <ele>649.2</ele>
        <time>2021-10-09T08:53:07</time>
      </trkpt>
      <trkpt lat="42.99011" lon="-0.05996">
        <ele>649.4</ele>
        <time>2021-10-09T08:53:08</time>
      </trkpt>
      <trkpt lat="42.99009" lon="-0.05995">
        <ele>649.6</ele>
        <time>2021-10-09T08:53:09</time>
      </trkpt>
      <trkpt lat="42.99008" lon="-0.05995">
        <ele>649.8</ele>
        <time>2021-10-09T08:53:10</time>
      </trkpt>
      <trkpt lat="42.99006" lon="-0.05994">
        <ele>650</ele>
        <time>2021-10-09T08:53:12</time>
      </trkpt>
      <trkpt lat="42.99005" lon="-0.05994">
        <ele>650</ele>
        <time>2021-10-09T08:53:13</time>
      </trkpt>
      <trkpt lat="42.99003" lon="-0.05993">
        <ele>650.4</ele>
        <time>2021-10-09T08:53:14</time>
      </trkpt>
      <trkpt lat="42.99002" lon="-0.05992">
        <ele>650.4</ele>
        <time>2021-10-09T08:53:15</time>
      </trkpt>
      <trkpt lat="42.99" lon="-0.05992">
        <ele>650.6</ele>
        <time>2021-10-09T08:53:16</time>
      </trkpt>
      <trkpt lat="42.98999" lon="-0.05992">
        <ele>651</ele>
        <time>2021-10-09T08:53:17</time>
      </trkpt>
      <trkpt lat="42.98998" lon="-0.05991">
        <ele>651</ele>
        <time>2021-10-09T08:53:18</time>
      </trkpt>
      <trkpt lat="42.98996" lon="-0.0599">
        <ele>651.4</ele>
        <time>2021-10-09T08:53:19</time>
      </trkpt>
      <trkpt lat="42.98995" lon="-0.05989">
        <ele>651.6</ele>
        <time>2021-10-09T08:53:20</time>
      </trkpt>
      <trkpt lat="42.98992" lon="-0.05987">
        <ele>652</ele>
        <time>2021-10-09T08:53:21</time>
      </trkpt>
      <trkpt lat="42.98991" lon="-0.05986">
        <ele>652</ele>
        <time>2021-10-09T08:53:22</time>
      </trkpt>
      <trkpt lat="42.9899" lon="-0.05985">
        <ele>652.2</ele>
        <time>2021-10-09T08:53:23</time>
      </trkpt>
      <trkpt lat="42.98989" lon="-0.05984">
        <ele>652.4</ele>
        <time>2021-10-09T08:53:25</time>
      </trkpt>
      <trkpt lat="42.98988" lon="-0.05983">
        <ele>652.6</ele>
        <time>2021-10-09T08:53:26</time>
      </trkpt>
      <trkpt lat="42.98987" lon="-0.05982">
        <ele>652.8</ele>
        <time>2021-10-09T08:53:27</time>
      </trkpt>
      <trkpt lat="42.98985" lon="-0.0598">
        <ele>652.8</ele>
        <time>2021-10-09T08:53:28</time>
      </trkpt>
      <trkpt lat="42.98984" lon="-0.05979">
        <ele>653</ele>
        <time>2021-10-09T08:53:29</time>
      </trkpt>
      <trkpt lat="42.98983" lon="-0.05978">
        <ele>653.2</ele>
        <time>2021-10-09T08:53:30</time>
      </trkpt>
      <trkpt lat="42.98982" lon="-0.05976">
        <ele>653.4</ele>
        <time>2021-10-09T08:53:31</time>
      </trkpt>
      <trkpt lat="42.98982" lon="-0.05974">
        <ele>653.6</ele>
        <time>2021-10-09T08:53:32</time>
      </trkpt>
      <trkpt lat="42.98979" lon="-0.05971">
        <ele>654</ele>
        <time>2021-10-09T08:53:33</time>
      </trkpt>
      <trkpt lat="42.98979" lon="-0.05969">
        <ele>654.2</ele>
        <time>2021-10-09T08:53:35</time>
      </trkpt>
      <trkpt lat="42.98978" lon="-0.05967">
        <ele>654.4</ele>
        <time>2021-10-09T08:53:36</time>
      </trkpt>
      <trkpt lat="42.98977" lon="-0.05965">
        <ele>654.4</ele>
        <time>2021-10-09T08:53:37</time>
      </trkpt>
      <trkpt lat="42.98976" lon="-0.05962">
        <ele>654.8</ele>
        <time>2021-10-09T08:53:39</time>
      </trkpt>
      <trkpt lat="42.98975" lon="-0.0596">
        <ele>655</ele>
        <time>2021-10-09T08:53:40</time>
      </trkpt>
      <trkpt lat="42.98975" lon="-0.05958">
        <ele>655.2</ele>
        <time>2021-10-09T08:53:41</time>
      </trkpt>
      <trkpt lat="42.98974" lon="-0.05956">
        <ele>655.4</ele>
        <time>2021-10-09T08:53:42</time>
      </trkpt>
      <trkpt lat="42.98974" lon="-0.05954">
        <ele>655.6</ele>
        <time>2021-10-09T08:53:43</time>
      </trkpt>
      <trkpt lat="42.98973" lon="-0.05952">
        <ele>655.8</ele>
        <time>2021-10-09T08:53:44</time>
      </trkpt>
      <trkpt lat="42.98972" lon="-0.0595">
        <ele>656</ele>
        <time>2021-10-09T08:53:45</time>
      </trkpt>
      <trkpt lat="42.98971" lon="-0.05949">
        <ele>656</ele>
        <time>2021-10-09T08:53:46</time>
      </trkpt>
      <trkpt lat="42.9897" lon="-0.05948">
        <ele>656.2</ele>
        <time>2021-10-09T08:53:47</time>
      </trkpt>
      <trkpt lat="42.98969" lon="-0.05946">
        <ele>656.4</ele>
        <time>2021-10-09T08:53:48</time>
      </trkpt>
      <trkpt lat="42.98969" lon="-0.05944">
        <ele>656.6</ele>
        <time>2021-10-09T08:53:49</time>
      </trkpt>
      <trkpt lat="42.98968" lon="-0.05943">
        <ele>656.8</ele>
        <time>2021-10-09T08:53:50</time>
      </trkpt>
      <trkpt lat="42.98968" lon="-0.05941">
        <ele>657</ele>
        <time>2021-10-09T08:53:51</time>
      </trkpt>
      <trkpt lat="42.98967" lon="-0.05939">
        <ele>657.2</ele>
        <time>2021-10-09T08:53:52</time>
      </trkpt>
      <trkpt lat="42.98967" lon="-0.05937">
        <ele>657.4</ele>
        <time>2021-10-09T08:53:53</time>
      </trkpt>
      <trkpt lat="42.98966" lon="-0.05935">
        <ele>657.4</ele>
        <time>2021-10-09T08:53:54</time>
      </trkpt>
      <trkpt lat="42.98965" lon="-0.05932">
        <ele>657.6</ele>
        <time>2021-10-09T08:53:55</time>
      </trkpt>
      <trkpt lat="42.98964" lon="-0.0593">
        <ele>658</ele>
        <time>2021-10-09T08:53:56</time>
      </trkpt>
      <trkpt lat="42.98964" lon="-0.05928">
        <ele>658.2</ele>
        <time>2021-10-09T08:53:57</time>
      </trkpt>
      <trkpt lat="42.98963" lon="-0.05926">
        <ele>658.4</ele>
        <time>2021-10-09T08:53:58</time>
      </trkpt>
      <trkpt lat="42.98962" lon="-0.05925">
        <ele>658.4</ele>
        <time>2021-10-09T08:53:59</time>
      </trkpt>
      <trkpt lat="42.98961" lon="-0.05923">
        <ele>658.6</ele>
        <time>2021-10-09T08:54:00</time>
      </trkpt>
      <trkpt lat="42.9896" lon="-0.05921">
        <ele>658.8</ele>
        <time>2021-10-09T08:54:01</time>
      </trkpt>
      <trkpt lat="42.98959" lon="-0.0592">
        <ele>659</ele>
        <time>2021-10-09T08:54:02</time>
      </trkpt>
      <trkpt lat="42.98958" lon="-0.05918">
        <ele>659</ele>
        <time>2021-10-09T08:54:03</time>
      </trkpt>
      <trkpt lat="42.98957" lon="-0.05916">
        <ele>659.4</ele>
        <time>2021-10-09T08:54:04</time>
      </trkpt>
      <trkpt lat="42.98956" lon="-0.05914">
        <ele>659.4</ele>
        <time>2021-10-09T08:54:05</time>
      </trkpt>
      <trkpt lat="42.98955" lon="-0.05913">
        <ele>659.6</ele>
        <time>2021-10-09T08:54:06</time>
      </trkpt>
      <trkpt lat="42.98954" lon="-0.05911">
        <ele>659.8</ele>
        <time>2021-10-09T08:54:07</time>
      </trkpt>
      <trkpt lat="42.98953" lon="-0.05909">
        <ele>660</ele>
        <time>2021-10-09T08:54:08</time>
      </trkpt>
      <trkpt lat="42.98952" lon="-0.05907">
        <ele>660.2</ele>
        <time>2021-10-09T08:54:09</time>
      </trkpt>
      <trkpt lat="42.98951" lon="-0.05905">
        <ele>660.2</ele>
        <time>2021-10-09T08:54:10</time>
      </trkpt>
      <trkpt lat="42.9895" lon="-0.05904">
        <ele>660.6</ele>
        <time>2021-10-09T08:54:11</time>
      </trkpt>
      <trkpt lat="42.98949" lon="-0.05902">
        <ele>660.8</ele>
        <time>2021-10-09T08:54:12</time>
      </trkpt>
      <trkpt lat="42.98948" lon="-0.059">
        <ele>661</ele>
        <time>2021-10-09T08:54:13</time>
      </trkpt>
      <trkpt lat="42.98947" lon="-0.05898">
        <ele>661</ele>
        <time>2021-10-09T08:54:14</time>
      </trkpt>
      <trkpt lat="42.98946" lon="-0.05896">
        <ele>661.2</ele>
        <time>2021-10-09T08:54:15</time>
      </trkpt>
      <trkpt lat="42.98945" lon="-0.05894">
        <ele>661.4</ele>
        <time>2021-10-09T08:54:16</time>
      </trkpt>
      <trkpt lat="42.98944" lon="-0.05892">
        <ele>661.6</ele>
        <time>2021-10-09T08:54:17</time>
      </trkpt>
      <trkpt lat="42.98942" lon="-0.0589">
        <ele>661.8</ele>
        <time>2021-10-09T08:54:18</time>
      </trkpt>
      <trkpt lat="42.98941" lon="-0.05887">
        <ele>662.2</ele>
        <time>2021-10-09T08:54:19</time>
      </trkpt>
      <trkpt lat="42.9894" lon="-0.05885">
        <ele>662.2</ele>
        <time>2021-10-09T08:54:20</time>
      </trkpt>
      <trkpt lat="42.98939" lon="-0.05883">
        <ele>662.4</ele>
        <time>2021-10-09T08:54:21</time>
      </trkpt>
      <trkpt lat="42.98938" lon="-0.05881">
        <ele>662.6</ele>
        <time>2021-10-09T08:54:22</time>
      </trkpt>
      <trkpt lat="42.98937" lon="-0.05879">
        <ele>662.8</ele>
        <time>2021-10-09T08:54:23</time>
      </trkpt>
      <trkpt lat="42.98936" lon="-0.05877">
        <ele>663</ele>
        <time>2021-10-09T08:54:24</time>
      </trkpt>
      <trkpt lat="42.98934" lon="-0.05875">
        <ele>663</ele>
        <time>2021-10-09T08:54:25</time>
      </trkpt>
      <trkpt lat="42.98933" lon="-0.05873">
        <ele>663.4</ele>
        <time>2021-10-09T08:54:26</time>
      </trkpt>
      <trkpt lat="42.98932" lon="-0.05871">
        <ele>663.4</ele>
        <time>2021-10-09T08:54:27</time>
      </trkpt>
      <trkpt lat="42.98931" lon="-0.0587">
        <ele>663.6</ele>
        <time>2021-10-09T08:54:28</time>
      </trkpt>
      <trkpt lat="42.9893" lon="-0.05868">
        <ele>663.8</ele>
        <time>2021-10-09T08:54:29</time>
      </trkpt>
      <trkpt lat="42.98929" lon="-0.05866">
        <ele>664</ele>
        <time>2021-10-09T08:54:30</time>
      </trkpt>
      <trkpt lat="42.98928" lon="-0.05865">
        <ele>664.2</ele>
        <time>2021-10-09T08:54:31</time>
      </trkpt>
      <trkpt lat="42.98927" lon="-0.05863">
        <ele>664.4</ele>
        <time>2021-10-09T08:54:32</time>
      </trkpt>
      <trkpt lat="42.98926" lon="-0.05861">
        <ele>664.6</ele>
        <time>2021-10-09T08:54:33</time>
      </trkpt>
      <trkpt lat="42.98925" lon="-0.0586">
        <ele>664.8</ele>
        <time>2021-10-09T08:54:34</time>
      </trkpt>
      <trkpt lat="42.98924" lon="-0.05858">
        <ele>664.8</ele>
        <time>2021-10-09T08:54:35</time>
      </trkpt>
      <trkpt lat="42.98923" lon="-0.05857">
        <ele>665.2</ele>
        <time>2021-10-09T08:54:36</time>
      </trkpt>
      <trkpt lat="42.98922" lon="-0.05855">
        <ele>665.4</ele>
        <time>2021-10-09T08:54:37</time>
      </trkpt>
      <trkpt lat="42.98921" lon="-0.05853">
        <ele>665.4</ele>
        <time>2021-10-09T08:54:38</time>
      </trkpt>
      <trkpt lat="42.9892" lon="-0.05851">
        <ele>665.8</ele>
        <time>2021-10-09T08:54:39</time>
      </trkpt>
      <trkpt lat="42.98919" lon="-0.05849">
        <ele>666</ele>
        <time>2021-10-09T08:54:40</time>
      </trkpt>
      <trkpt lat="42.98918" lon="-0.05847">
        <ele>666.2</ele>
        <time>2021-10-09T08:54:41</time>
      </trkpt>
      <trkpt lat="42.98917" lon="-0.05846">
        <ele>666.2</ele>
        <time>2021-10-09T08:54:42</time>
      </trkpt>
      <trkpt lat="42.98916" lon="-0.05844">
        <ele>666.4</ele>
        <time>2021-10-09T08:54:43</time>
      </trkpt>
      <trkpt lat="42.98915" lon="-0.05842">
        <ele>666.6</ele>
        <time>2021-10-09T08:54:44</time>
      </trkpt>
      <trkpt lat="42.98914" lon="-0.0584">
        <ele>666.8</ele>
        <time>2021-10-09T08:54:45</time>
      </trkpt>
      <trkpt lat="42.98913" lon="-0.05839">
        <ele>667</ele>
        <time>2021-10-09T08:54:46</time>
      </trkpt>
      <trkpt lat="42.98912" lon="-0.05837">
        <ele>667.2</ele>
        <time>2021-10-09T08:54:47</time>
      </trkpt>
      <trkpt lat="42.98911" lon="-0.05835">
        <ele>667.4</ele>
        <time>2021-10-09T08:54:48</time>
      </trkpt>
      <trkpt lat="42.98909" lon="-0.05834">
        <ele>667.6</ele>
        <time>2021-10-09T08:54:49</time>
      </trkpt>
      <trkpt lat="42.98908" lon="-0.05832">
        <ele>667.8</ele>
        <time>2021-10-09T08:54:50</time>
      </trkpt>
      <trkpt lat="42.98907" lon="-0.0583">
        <ele>668</ele>
        <time>2021-10-09T08:54:51</time>
      </trkpt>
      <trkpt lat="42.98906" lon="-0.05828">
        <ele>668.2</ele>
        <time>2021-10-09T08:54:52</time>
      </trkpt>
      <trkpt lat="42.98905" lon="-0.05827">
        <ele>668.4</ele>
        <time>2021-10-09T08:54:53</time>
      </trkpt>
      <trkpt lat="42.98904" lon="-0.05825">
        <ele>668.6</ele>
        <time>2021-10-09T08:54:54</time>
      </trkpt>
      <trkpt lat="42.98903" lon="-0.05824">
        <ele>669</ele>
        <time>2021-10-09T08:54:55</time>
      </trkpt>
      <trkpt lat="42.98902" lon="-0.05822">
        <ele>669.2</ele>
        <time>2021-10-09T08:54:56</time>
      </trkpt>
      <trkpt lat="42.989" lon="-0.0582">
        <ele>669.4</ele>
        <time>2021-10-09T08:54:57</time>
      </trkpt>
      <trkpt lat="42.98899" lon="-0.05819">
        <ele>669.6</ele>
        <time>2021-10-09T08:54:58</time>
      </trkpt>
      <trkpt lat="42.98898" lon="-0.05817">
        <ele>669.8</ele>
        <time>2021-10-09T08:54:59</time>
      </trkpt>
      <trkpt lat="42.98896" lon="-0.05816">
        <ele>670.2</ele>
        <time>2021-10-09T08:55:00</time>
      </trkpt>
      <trkpt lat="42.98895" lon="-0.05814">
        <ele>670.4</ele>
        <time>2021-10-09T08:55:01</time>
      </trkpt>
      <trkpt lat="42.98893" lon="-0.05813">
        <ele>670.6</ele>
        <time>2021-10-09T08:55:02</time>
      </trkpt>
      <trkpt lat="42.98891" lon="-0.05811">
        <ele>671</ele>
        <time>2021-10-09T08:55:03</time>
      </trkpt>
      <trkpt lat="42.9889" lon="-0.05809">
        <ele>671.2</ele>
        <time>2021-10-09T08:55:04</time>
      </trkpt>
      <trkpt lat="42.98888" lon="-0.05808">
        <ele>671.6</ele>
        <time>2021-10-09T08:55:05</time>
      </trkpt>
      <trkpt lat="42.98886" lon="-0.05807">
        <ele>671.8</ele>
        <time>2021-10-09T08:55:06</time>
      </trkpt>
      <trkpt lat="42.98884" lon="-0.05805">
        <ele>672.2</ele>
        <time>2021-10-09T08:55:07</time>
      </trkpt>
      <trkpt lat="42.98882" lon="-0.05804">
        <ele>672.6</ele>
        <time>2021-10-09T08:55:08</time>
      </trkpt>
      <trkpt lat="42.9888" lon="-0.05802">
        <ele>672.8</ele>
        <time>2021-10-09T08:55:09</time>
      </trkpt>
      <trkpt lat="42.98878" lon="-0.05801">
        <ele>673</ele>
        <time>2021-10-09T08:55:10</time>
      </trkpt>
      <trkpt lat="42.98876" lon="-0.058">
        <ele>673.4</ele>
        <time>2021-10-09T08:55:11</time>
      </trkpt>
      <trkpt lat="42.98874" lon="-0.05799">
        <ele>673.6</ele>
        <time>2021-10-09T08:55:12</time>
      </trkpt>
      <trkpt lat="42.98873" lon="-0.05798">
        <ele>674</ele>
        <time>2021-10-09T08:55:13</time>
      </trkpt>
      <trkpt lat="42.98871" lon="-0.05797">
        <ele>674.2</ele>
        <time>2021-10-09T08:55:14</time>
      </trkpt>
      <trkpt lat="42.98869" lon="-0.05796">
        <ele>674.4</ele>
        <time>2021-10-09T08:55:15</time>
      </trkpt>
      <trkpt lat="42.98868" lon="-0.05795">
        <ele>674.6</ele>
        <time>2021-10-09T08:55:16</time>
      </trkpt>
      <trkpt lat="42.98866" lon="-0.05794">
        <ele>675</ele>
        <time>2021-10-09T08:55:17</time>
      </trkpt>
      <trkpt lat="42.98864" lon="-0.05793">
        <ele>675.2</ele>
        <time>2021-10-09T08:55:18</time>
      </trkpt>
      <trkpt lat="42.98861" lon="-0.05792">
        <ele>675.4</ele>
        <time>2021-10-09T08:55:19</time>
      </trkpt>
      <trkpt lat="42.98859" lon="-0.05791">
        <ele>675.6</ele>
        <time>2021-10-09T08:55:20</time>
      </trkpt>
      <trkpt lat="42.98857" lon="-0.0579">
        <ele>675.8</ele>
        <time>2021-10-09T08:55:21</time>
      </trkpt>
      <trkpt lat="42.98855" lon="-0.05789">
        <ele>676.2</ele>
        <time>2021-10-09T08:55:22</time>
      </trkpt>
      <trkpt lat="42.98853" lon="-0.05788">
        <ele>676.4</ele>
        <time>2021-10-09T08:55:23</time>
      </trkpt>
      <trkpt lat="42.98851" lon="-0.05787">
        <ele>676.6</ele>
        <time>2021-10-09T08:55:24</time>
      </trkpt>
      <trkpt lat="42.98849" lon="-0.05786">
        <ele>676.8</ele>
        <time>2021-10-09T08:55:25</time>
      </trkpt>
      <trkpt lat="42.98847" lon="-0.05785">
        <ele>677</ele>
        <time>2021-10-09T08:55:26</time>
      </trkpt>
      <trkpt lat="42.98845" lon="-0.05784">
        <ele>677.4</ele>
        <time>2021-10-09T08:55:27</time>
      </trkpt>
      <trkpt lat="42.98843" lon="-0.05784">
        <ele>677.6</ele>
        <time>2021-10-09T08:55:28</time>
      </trkpt>
      <trkpt lat="42.98842" lon="-0.05783">
        <ele>677.8</ele>
        <time>2021-10-09T08:55:29</time>
      </trkpt>
      <trkpt lat="42.9884" lon="-0.05782">
        <ele>678</ele>
        <time>2021-10-09T08:55:30</time>
      </trkpt>
      <trkpt lat="42.98838" lon="-0.05781">
        <ele>678.2</ele>
        <time>2021-10-09T08:55:31</time>
      </trkpt>
      <trkpt lat="42.98836" lon="-0.0578">
        <ele>678.4</ele>
        <time>2021-10-09T08:55:32</time>
      </trkpt>
      <trkpt lat="42.98834" lon="-0.05779">
        <ele>678.6</ele>
        <time>2021-10-09T08:55:33</time>
      </trkpt>
      <trkpt lat="42.98832" lon="-0.05778">
        <ele>678.8</ele>
        <time>2021-10-09T08:55:34</time>
      </trkpt>
      <trkpt lat="42.9883" lon="-0.05777">
        <ele>679</ele>
        <time>2021-10-09T08:55:35</time>
      </trkpt>
      <trkpt lat="42.98828" lon="-0.05776">
        <ele>679.2</ele>
        <time>2021-10-09T08:55:36</time>
      </trkpt>
      <trkpt lat="42.98825" lon="-0.05776">
        <ele>679.4</ele>
        <time>2021-10-09T08:55:37</time>
      </trkpt>
      <trkpt lat="42.98823" lon="-0.05774">
        <ele>679.8</ele>
        <time>2021-10-09T08:55:38</time>
      </trkpt>
      <trkpt lat="42.98821" lon="-0.05773">
        <ele>680</ele>
        <time>2021-10-09T08:55:39</time>
      </trkpt>
      <trkpt lat="42.98819" lon="-0.05772">
        <ele>680.2</ele>
        <time>2021-10-09T08:55:40</time>
      </trkpt>
      <trkpt lat="42.98817" lon="-0.05771">
        <ele>680.4</ele>
        <time>2021-10-09T08:55:41</time>
      </trkpt>
      <trkpt lat="42.98815" lon="-0.0577">
        <ele>680.6</ele>
        <time>2021-10-09T08:55:42</time>
      </trkpt>
      <trkpt lat="42.98813" lon="-0.05768">
        <ele>680.8</ele>
        <time>2021-10-09T08:55:43</time>
      </trkpt>
      <trkpt lat="42.98811" lon="-0.05767">
        <ele>681.2</ele>
        <time>2021-10-09T08:55:44</time>
      </trkpt>
      <trkpt lat="42.98808" lon="-0.05766">
        <ele>681.4</ele>
        <time>2021-10-09T08:55:45</time>
      </trkpt>
      <trkpt lat="42.98806" lon="-0.05764">
        <ele>681.8</ele>
        <time>2021-10-09T08:55:46</time>
      </trkpt>
      <trkpt lat="42.98805" lon="-0.05762">
        <ele>681.8</ele>
        <time>2021-10-09T08:55:47</time>
      </trkpt>
      <trkpt lat="42.98803" lon="-0.0576">
        <ele>682.2</ele>
        <time>2021-10-09T08:55:48</time>
      </trkpt>
      <trkpt lat="42.98801" lon="-0.05758">
        <ele>682.4</ele>
        <time>2021-10-09T08:55:49</time>
      </trkpt>
      <trkpt lat="42.988" lon="-0.05755">
        <ele>682.6</ele>
        <time>2021-10-09T08:55:50</time>
      </trkpt>
      <trkpt lat="42.98798" lon="-0.05752">
        <ele>683</ele>
        <time>2021-10-09T08:55:51</time>
      </trkpt>
      <trkpt lat="42.98797" lon="-0.0575">
        <ele>683.2</ele>
        <time>2021-10-09T08:55:52</time>
      </trkpt>
      <trkpt lat="42.98796" lon="-0.05747">
        <ele>683.4</ele>
        <time>2021-10-09T08:55:53</time>
      </trkpt>
      <trkpt lat="42.98795" lon="-0.05745">
        <ele>683.6</ele>
        <time>2021-10-09T08:55:54</time>
      </trkpt>
      <trkpt lat="42.98794" lon="-0.05742">
        <ele>683.8</ele>
        <time>2021-10-09T08:55:55</time>
      </trkpt>
      <trkpt lat="42.98793" lon="-0.05739">
        <ele>684</ele>
        <time>2021-10-09T08:55:56</time>
      </trkpt>
      <trkpt lat="42.98792" lon="-0.05736">
        <ele>684.2</ele>
        <time>2021-10-09T08:55:57</time>
      </trkpt>
      <trkpt lat="42.98791" lon="-0.05734">
        <ele>684.4</ele>
        <time>2021-10-09T08:55:58</time>
      </trkpt>
      <trkpt lat="42.98791" lon="-0.05731">
        <ele>684.6</ele>
        <time>2021-10-09T08:55:59</time>
      </trkpt>
      <trkpt lat="42.98789" lon="-0.05728">
        <ele>685</ele>
        <time>2021-10-09T08:56:00</time>
      </trkpt>
      <trkpt lat="42.98789" lon="-0.05726">
        <ele>685.2</ele>
        <time>2021-10-09T08:56:01</time>
      </trkpt>
      <trkpt lat="42.98788" lon="-0.05723">
        <ele>685.6</ele>
        <time>2021-10-09T08:56:02</time>
      </trkpt>
      <trkpt lat="42.98787" lon="-0.0572">
        <ele>685.8</ele>
        <time>2021-10-09T08:56:03</time>
      </trkpt>
      <trkpt lat="42.98786" lon="-0.05717">
        <ele>686</ele>
        <time>2021-10-09T08:56:04</time>
      </trkpt>
      <trkpt lat="42.98785" lon="-0.05715">
        <ele>686.2</ele>
        <time>2021-10-09T08:56:05</time>
      </trkpt>
      <trkpt lat="42.98784" lon="-0.05712">
        <ele>686.4</ele>
        <time>2021-10-09T08:56:06</time>
      </trkpt>
      <trkpt lat="42.98783" lon="-0.0571">
        <ele>686.8</ele>
        <time>2021-10-09T08:56:07</time>
      </trkpt>
      <trkpt lat="42.98783" lon="-0.05707">
        <ele>686.8</ele>
        <time>2021-10-09T08:56:08</time>
      </trkpt>
      <trkpt lat="42.98782" lon="-0.05705">
        <ele>687.2</ele>
        <time>2021-10-09T08:56:09</time>
      </trkpt>
      <trkpt lat="42.98781" lon="-0.05702">
        <ele>687.4</ele>
        <time>2021-10-09T08:56:10</time>
      </trkpt>
      <trkpt lat="42.98781" lon="-0.057">
        <ele>687.6</ele>
        <time>2021-10-09T08:56:11</time>
      </trkpt>
      <trkpt lat="42.9878" lon="-0.05698">
        <ele>687.8</ele>
        <time>2021-10-09T08:56:12</time>
      </trkpt>
      <trkpt lat="42.9878" lon="-0.05696">
        <ele>688</ele>
        <time>2021-10-09T08:56:13</time>
      </trkpt>
      <trkpt lat="42.98779" lon="-0.05694">
        <ele>688.2</ele>
        <time>2021-10-09T08:56:14</time>
      </trkpt>
      <trkpt lat="42.98778" lon="-0.05692">
        <ele>688.4</ele>
        <time>2021-10-09T08:56:15</time>
      </trkpt>
      <trkpt lat="42.98777" lon="-0.05689">
        <ele>688.6</ele>
        <time>2021-10-09T08:56:16</time>
      </trkpt>
      <trkpt lat="42.98777" lon="-0.05687">
        <ele>688.8</ele>
        <time>2021-10-09T08:56:17</time>
      </trkpt>
      <trkpt lat="42.98776" lon="-0.05685">
        <ele>689</ele>
        <time>2021-10-09T08:56:18</time>
      </trkpt>
      <trkpt lat="42.98775" lon="-0.05683">
        <ele>689.2</ele>
        <time>2021-10-09T08:56:19</time>
      </trkpt>
      <trkpt lat="42.98775" lon="-0.05681">
        <ele>689.4</ele>
        <time>2021-10-09T08:56:20</time>
      </trkpt>
      <trkpt lat="42.98774" lon="-0.05679">
        <ele>689.6</ele>
        <time>2021-10-09T08:56:21</time>
      </trkpt>
      <trkpt lat="42.98773" lon="-0.05677">
        <ele>690</ele>
        <time>2021-10-09T08:56:22</time>
      </trkpt>
      <trkpt lat="42.98773" lon="-0.05675">
        <ele>690.2</ele>
        <time>2021-10-09T08:56:23</time>
      </trkpt>
      <trkpt lat="42.98772" lon="-0.05673">
        <ele>690.4</ele>
        <time>2021-10-09T08:56:24</time>
      </trkpt>
      <trkpt lat="42.98772" lon="-0.05671">
        <ele>690.6</ele>
        <time>2021-10-09T08:56:25</time>
      </trkpt>
      <trkpt lat="42.98771" lon="-0.05669">
        <ele>690.8</ele>
        <time>2021-10-09T08:56:26</time>
      </trkpt>
      <trkpt lat="42.98771" lon="-0.05667">
        <ele>690.8</ele>
        <time>2021-10-09T08:56:27</time>
      </trkpt>
      <trkpt lat="42.9877" lon="-0.05665">
        <ele>691.2</ele>
        <time>2021-10-09T08:56:28</time>
      </trkpt>
      <trkpt lat="42.9877" lon="-0.05663">
        <ele>691.2</ele>
        <time>2021-10-09T08:56:29</time>
      </trkpt>
      <trkpt lat="42.98769" lon="-0.05662">
        <ele>691.4</ele>
        <time>2021-10-09T08:56:30</time>
      </trkpt>
      <trkpt lat="42.98768" lon="-0.0566">
        <ele>691.4</ele>
        <time>2021-10-09T08:56:31</time>
      </trkpt>
      <trkpt lat="42.98767" lon="-0.05658">
        <ele>691.6</ele>
        <time>2021-10-09T08:56:32</time>
      </trkpt>
      <trkpt lat="42.98766" lon="-0.05656">
        <ele>691.6</ele>
        <time>2021-10-09T08:56:33</time>
      </trkpt>
      <trkpt lat="42.98765" lon="-0.05654">
        <ele>691.8</ele>
        <time>2021-10-09T08:56:34</time>
      </trkpt>
      <trkpt lat="42.98764" lon="-0.05652">
        <ele>692.2</ele>
        <time>2021-10-09T08:56:35</time>
      </trkpt>
      <trkpt lat="42.98763" lon="-0.0565">
        <ele>692.4</ele>
        <time>2021-10-09T08:56:36</time>
      </trkpt>
      <trkpt lat="42.98762" lon="-0.05648">
        <ele>692.6</ele>
        <time>2021-10-09T08:56:37</time>
      </trkpt>
      <trkpt lat="42.98761" lon="-0.05645">
        <ele>692.8</ele>
        <time>2021-10-09T08:56:38</time>
      </trkpt>
      <trkpt lat="42.9876" lon="-0.05643">
        <ele>693</ele>
        <time>2021-10-09T08:56:39</time>
      </trkpt>
      <trkpt lat="42.98759" lon="-0.05641">
        <ele>693.2</ele>
        <time>2021-10-09T08:56:40</time>
      </trkpt>
      <trkpt lat="42.98758" lon="-0.05639">
        <ele>693.4</ele>
        <time>2021-10-09T08:56:41</time>
      </trkpt>
      <trkpt lat="42.98757" lon="-0.05637">
        <ele>693.8</ele>
        <time>2021-10-09T08:56:42</time>
      </trkpt>
      <trkpt lat="42.98756" lon="-0.05635">
        <ele>694</ele>
        <time>2021-10-09T08:56:43</time>
      </trkpt>
      <trkpt lat="42.98755" lon="-0.05634">
        <ele>694.2</ele>
        <time>2021-10-09T08:56:44</time>
      </trkpt>
      <trkpt lat="42.98754" lon="-0.05632">
        <ele>694.4</ele>
        <time>2021-10-09T08:56:45</time>
      </trkpt>
      <trkpt lat="42.98752" lon="-0.05631">
        <ele>694.6</ele>
        <time>2021-10-09T08:56:46</time>
      </trkpt>
      <trkpt lat="42.9875" lon="-0.0563">
        <ele>694.8</ele>
        <time>2021-10-09T08:56:47</time>
      </trkpt>
      <trkpt lat="42.98749" lon="-0.0563">
        <ele>695</ele>
        <time>2021-10-09T08:56:48</time>
      </trkpt>
      <trkpt lat="42.98747" lon="-0.05629">
        <ele>695.2</ele>
        <time>2021-10-09T08:56:49</time>
      </trkpt>
      <trkpt lat="42.98746" lon="-0.05628">
        <ele>695.4</ele>
        <time>2021-10-09T08:56:50</time>
      </trkpt>
      <trkpt lat="42.98744" lon="-0.05627">
        <ele>695.6</ele>
        <time>2021-10-09T08:56:51</time>
      </trkpt>
      <trkpt lat="42.98743" lon="-0.05627">
        <ele>695.8</ele>
        <time>2021-10-09T08:56:52</time>
      </trkpt>
      <trkpt lat="42.98741" lon="-0.05626">
        <ele>696</ele>
        <time>2021-10-09T08:56:53</time>
      </trkpt>
      <trkpt lat="42.9874" lon="-0.05625">
        <ele>696</ele>
        <time>2021-10-09T08:56:54</time>
      </trkpt>
      <trkpt lat="42.98738" lon="-0.05624">
        <ele>696.2</ele>
        <time>2021-10-09T08:56:55</time>
      </trkpt>
      <trkpt lat="42.98736" lon="-0.05624">
        <ele>696.4</ele>
        <time>2021-10-09T08:56:56</time>
      </trkpt>
      <trkpt lat="42.98735" lon="-0.05622">
        <ele>696.6</ele>
        <time>2021-10-09T08:56:57</time>
      </trkpt>
      <trkpt lat="42.98733" lon="-0.05622">
        <ele>696.8</ele>
        <time>2021-10-09T08:56:58</time>
      </trkpt>
      <trkpt lat="42.98732" lon="-0.05621">
        <ele>697</ele>
        <time>2021-10-09T08:56:59</time>
      </trkpt>
      <trkpt lat="42.9873" lon="-0.0562">
        <ele>697.2</ele>
        <time>2021-10-09T08:57:00</time>
      </trkpt>
      <trkpt lat="42.98728" lon="-0.05619">
        <ele>697.4</ele>
        <time>2021-10-09T08:57:01</time>
      </trkpt>
      <trkpt lat="42.98727" lon="-0.05618">
        <ele>697.6</ele>
        <time>2021-10-09T08:57:02</time>
      </trkpt>
      <trkpt lat="42.98726" lon="-0.05617">
        <ele>697.6</ele>
        <time>2021-10-09T08:57:03</time>
      </trkpt>
      <trkpt lat="42.98724" lon="-0.05616">
        <ele>697.8</ele>
        <time>2021-10-09T08:57:04</time>
      </trkpt>
      <trkpt lat="42.98722" lon="-0.05615">
        <ele>698</ele>
        <time>2021-10-09T08:57:05</time>
      </trkpt>
      <trkpt lat="42.98721" lon="-0.05614">
        <ele>698.2</ele>
        <time>2021-10-09T08:57:06</time>
      </trkpt>
      <trkpt lat="42.9872" lon="-0.05613">
        <ele>698.4</ele>
        <time>2021-10-09T08:57:07</time>
      </trkpt>
      <trkpt lat="42.98718" lon="-0.05612">
        <ele>698.4</ele>
        <time>2021-10-09T08:57:08</time>
      </trkpt>
      <trkpt lat="42.98717" lon="-0.05611">
        <ele>698.6</ele>
        <time>2021-10-09T08:57:09</time>
      </trkpt>
      <trkpt lat="42.98716" lon="-0.0561">
        <ele>698.8</ele>
        <time>2021-10-09T08:57:10</time>
      </trkpt>
      <trkpt lat="42.98714" lon="-0.05609">
        <ele>698.8</ele>
        <time>2021-10-09T08:57:11</time>
      </trkpt>
      <trkpt lat="42.98713" lon="-0.05608">
        <ele>699</ele>
        <time>2021-10-09T08:57:12</time>
      </trkpt>
      <trkpt lat="42.98712" lon="-0.05607">
        <ele>699.2</ele>
        <time>2021-10-09T08:57:13</time>
      </trkpt>
      <trkpt lat="42.98711" lon="-0.05606">
        <ele>699.2</ele>
        <time>2021-10-09T08:57:14</time>
      </trkpt>
      <trkpt lat="42.9871" lon="-0.05605">
        <ele>699.4</ele>
        <time>2021-10-09T08:57:15</time>
      </trkpt>
      <trkpt lat="42.98709" lon="-0.05604">
        <ele>699.4</ele>
        <time>2021-10-09T08:57:16</time>
      </trkpt>
      <trkpt lat="42.98708" lon="-0.05603">
        <ele>699.6</ele>
        <time>2021-10-09T08:57:17</time>
      </trkpt>
      <trkpt lat="42.98707" lon="-0.05602">
        <ele>699.8</ele>
        <time>2021-10-09T08:57:18</time>
      </trkpt>
      <trkpt lat="42.98705" lon="-0.05601">
        <ele>700</ele>
        <time>2021-10-09T08:57:19</time>
      </trkpt>
      <trkpt lat="42.98704" lon="-0.056">
        <ele>700</ele>
        <time>2021-10-09T08:57:20</time>
      </trkpt>
      <trkpt lat="42.98702" lon="-0.05599">
        <ele>700.2</ele>
        <time>2021-10-09T08:57:21</time>
      </trkpt>
      <trkpt lat="42.98701" lon="-0.05598">
        <ele>700.2</ele>
        <time>2021-10-09T08:57:22</time>
      </trkpt>
      <trkpt lat="42.987" lon="-0.05597">
        <ele>700.4</ele>
        <time>2021-10-09T08:57:23</time>
      </trkpt>
      <trkpt lat="42.98698" lon="-0.05596">
        <ele>700.6</ele>
        <time>2021-10-09T08:57:24</time>
      </trkpt>
      <trkpt lat="42.98697" lon="-0.05595">
        <ele>700.8</ele>
        <time>2021-10-09T08:57:25</time>
      </trkpt>
      <trkpt lat="42.98696" lon="-0.05593">
        <ele>700.8</ele>
        <time>2021-10-09T08:57:26</time>
      </trkpt>
      <trkpt lat="42.98695" lon="-0.05591">
        <ele>701</ele>
        <time>2021-10-09T08:57:27</time>
      </trkpt>
      <trkpt lat="42.98695" lon="-0.0559">
        <ele>701.2</ele>
        <time>2021-10-09T08:57:28</time>
      </trkpt>
      <trkpt lat="42.98694" lon="-0.05588">
        <ele>701.4</ele>
        <time>2021-10-09T08:57:29</time>
      </trkpt>
      <trkpt lat="42.98693" lon="-0.05586">
        <ele>701.4</ele>
        <time>2021-10-09T08:57:30</time>
      </trkpt>
      <trkpt lat="42.98693" lon="-0.05584">
        <ele>701.6</ele>
        <time>2021-10-09T08:57:31</time>
      </trkpt>
      <trkpt lat="42.98692" lon="-0.05583">
        <ele>701.8</ele>
        <time>2021-10-09T08:57:32</time>
      </trkpt>
      <trkpt lat="42.98691" lon="-0.05581">
        <ele>702</ele>
        <time>2021-10-09T08:57:33</time>
      </trkpt>
      <trkpt lat="42.98691" lon="-0.05579">
        <ele>702</ele>
        <time>2021-10-09T08:57:34</time>
      </trkpt>
      <trkpt lat="42.9869" lon="-0.05577">
        <ele>702.2</ele>
        <time>2021-10-09T08:57:35</time>
      </trkpt>
      <trkpt lat="42.9869" lon="-0.05575">
        <ele>702.4</ele>
        <time>2021-10-09T08:57:36</time>
      </trkpt>
      <trkpt lat="42.98689" lon="-0.05574">
        <ele>702.4</ele>
        <time>2021-10-09T08:57:37</time>
      </trkpt>
      <trkpt lat="42.98689" lon="-0.05572">
        <ele>702.6</ele>
        <time>2021-10-09T08:57:38</time>
      </trkpt>
      <trkpt lat="42.98688" lon="-0.0557">
        <ele>702.8</ele>
        <time>2021-10-09T08:57:39</time>
      </trkpt>
      <trkpt lat="42.98688" lon="-0.05568">
        <ele>703</ele>
        <time>2021-10-09T08:57:40</time>
      </trkpt>
      <trkpt lat="42.98687" lon="-0.05565">
        <ele>703.2</ele>
        <time>2021-10-09T08:57:41</time>
      </trkpt>
      <trkpt lat="42.98687" lon="-0.05563">
        <ele>703.4</ele>
        <time>2021-10-09T08:57:42</time>
      </trkpt>
      <trkpt lat="42.98686" lon="-0.05561">
        <ele>703.6</ele>
        <time>2021-10-09T08:57:43</time>
      </trkpt>
      <trkpt lat="42.98686" lon="-0.05559">
        <ele>703.8</ele>
        <time>2021-10-09T08:57:44</time>
      </trkpt>
      <trkpt lat="42.98686" lon="-0.05557">
        <ele>703.8</ele>
        <time>2021-10-09T08:57:45</time>
      </trkpt>
      <trkpt lat="42.98685" lon="-0.05555">
        <ele>704.2</ele>
        <time>2021-10-09T08:57:46</time>
      </trkpt>
      <trkpt lat="42.98685" lon="-0.05553">
        <ele>704.2</ele>
        <time>2021-10-09T08:57:47</time>
      </trkpt>
      <trkpt lat="42.98684" lon="-0.05551">
        <ele>704.4</ele>
        <time>2021-10-09T08:57:48</time>
      </trkpt>
      <trkpt lat="42.98684" lon="-0.05549">
        <ele>704.6</ele>
        <time>2021-10-09T08:57:49</time>
      </trkpt>
      <trkpt lat="42.98684" lon="-0.05547">
        <ele>704.8</ele>
        <time>2021-10-09T08:57:50</time>
      </trkpt>
      <trkpt lat="42.98683" lon="-0.05545">
        <ele>705</ele>
        <time>2021-10-09T08:57:51</time>
      </trkpt>
      <trkpt lat="42.98683" lon="-0.05543">
        <ele>705.2</ele>
        <time>2021-10-09T08:57:52</time>
      </trkpt>
      <trkpt lat="42.98683" lon="-0.05541">
        <ele>705.4</ele>
        <time>2021-10-09T08:57:53</time>
      </trkpt>
      <trkpt lat="42.98682" lon="-0.05539">
        <ele>705.6</ele>
        <time>2021-10-09T08:57:54</time>
      </trkpt>
      <trkpt lat="42.98682" lon="-0.05537">
        <ele>705.6</ele>
        <time>2021-10-09T08:57:55</time>
      </trkpt>
      <trkpt lat="42.98682" lon="-0.05536">
        <ele>705.8</ele>
        <time>2021-10-09T08:57:56</time>
      </trkpt>
      <trkpt lat="42.98681" lon="-0.05534">
        <ele>706</ele>
        <time>2021-10-09T08:57:57</time>
      </trkpt>
      <trkpt lat="42.98681" lon="-0.05532">
        <ele>706.2</ele>
        <time>2021-10-09T08:57:58</time>
      </trkpt>
      <trkpt lat="42.98681" lon="-0.0553">
        <ele>706.2</ele>
        <time>2021-10-09T08:57:59</time>
      </trkpt>
      <trkpt lat="42.9868" lon="-0.05528">
        <ele>706.4</ele>
        <time>2021-10-09T08:58:00</time>
      </trkpt>
      <trkpt lat="42.9868" lon="-0.05526">
        <ele>706.6</ele>
        <time>2021-10-09T08:58:01</time>
      </trkpt>
      <trkpt lat="42.9868" lon="-0.05524">
        <ele>706.8</ele>
        <time>2021-10-09T08:58:02</time>
      </trkpt>
      <trkpt lat="42.9868" lon="-0.05523">
        <ele>707</ele>
        <time>2021-10-09T08:58:03</time>
      </trkpt>
      <trkpt lat="42.98679" lon="-0.05521">
        <ele>707</ele>
        <time>2021-10-09T08:58:04</time>
      </trkpt>
      <trkpt lat="42.98679" lon="-0.05519">
        <ele>707.2</ele>
        <time>2021-10-09T08:58:05</time>
      </trkpt>
      <trkpt lat="42.98678" lon="-0.05517">
        <ele>707.4</ele>
        <time>2021-10-09T08:58:06</time>
      </trkpt>
      <trkpt lat="42.98678" lon="-0.05516">
        <ele>707.6</ele>
        <time>2021-10-09T08:58:07</time>
      </trkpt>
      <trkpt lat="42.98677" lon="-0.05514">
        <ele>707.6</ele>
        <time>2021-10-09T08:58:08</time>
      </trkpt>
      <trkpt lat="42.98675" lon="-0.05513">
        <ele>707.8</ele>
        <time>2021-10-09T08:58:09</time>
      </trkpt>
      <trkpt lat="42.98675" lon="-0.05512">
        <ele>707.8</ele>
        <time>2021-10-09T08:58:10</time>
      </trkpt>
      <trkpt lat="42.98674" lon="-0.0551">
        <ele>708</ele>
        <time>2021-10-09T08:58:11</time>
      </trkpt>
      <trkpt lat="42.98674" lon="-0.05508">
        <ele>708.2</ele>
        <time>2021-10-09T08:58:12</time>
      </trkpt>
      <trkpt lat="42.98673" lon="-0.05506">
        <ele>708.4</ele>
        <time>2021-10-09T08:58:13</time>
      </trkpt>
      <trkpt lat="42.98673" lon="-0.05504">
        <ele>708.4</ele>
        <time>2021-10-09T08:58:14</time>
      </trkpt>
      <trkpt lat="42.98672" lon="-0.05502">
        <ele>708.6</ele>
        <time>2021-10-09T08:58:15</time>
      </trkpt>
      <trkpt lat="42.98672" lon="-0.05501">
        <ele>708.8</ele>
        <time>2021-10-09T08:58:16</time>
      </trkpt>
      <trkpt lat="42.98671" lon="-0.05499">
        <ele>709</ele>
        <time>2021-10-09T08:58:17</time>
      </trkpt>
      <trkpt lat="42.98671" lon="-0.05497">
        <ele>709</ele>
        <time>2021-10-09T08:58:18</time>
      </trkpt>
      <trkpt lat="42.9867" lon="-0.05495">
        <ele>709.2</ele>
        <time>2021-10-09T08:58:19</time>
      </trkpt>
      <trkpt lat="42.9867" lon="-0.05493">
        <ele>709.4</ele>
        <time>2021-10-09T08:58:20</time>
      </trkpt>
      <trkpt lat="42.98669" lon="-0.05491">
        <ele>709.6</ele>
        <time>2021-10-09T08:58:21</time>
      </trkpt>
      <trkpt lat="42.98668" lon="-0.0549">
        <ele>709.6</ele>
        <time>2021-10-09T08:58:22</time>
      </trkpt>
      <trkpt lat="42.98668" lon="-0.05488">
        <ele>709.8</ele>
        <time>2021-10-09T08:58:23</time>
      </trkpt>
      <trkpt lat="42.98667" lon="-0.05486">
        <ele>710</ele>
        <time>2021-10-09T08:58:24</time>
      </trkpt>
      <trkpt lat="42.98666" lon="-0.05484">
        <ele>710.2</ele>
        <time>2021-10-09T08:58:25</time>
      </trkpt>
      <trkpt lat="42.98666" lon="-0.05482">
        <ele>710.2</ele>
        <time>2021-10-09T08:58:26</time>
      </trkpt>
      <trkpt lat="42.98665" lon="-0.0548">
        <ele>710.4</ele>
        <time>2021-10-09T08:58:27</time>
      </trkpt>
      <trkpt lat="42.98665" lon="-0.05478">
        <ele>710.4</ele>
        <time>2021-10-09T08:58:28</time>
      </trkpt>
      <trkpt lat="42.98664" lon="-0.05476">
        <ele>710.6</ele>
        <time>2021-10-09T08:58:29</time>
      </trkpt>
      <trkpt lat="42.98663" lon="-0.05474">
        <ele>710.8</ele>
        <time>2021-10-09T08:58:30</time>
      </trkpt>
      <trkpt lat="42.98663" lon="-0.05472">
        <ele>711</ele>
        <time>2021-10-09T08:58:31</time>
      </trkpt>
      <trkpt lat="42.98662" lon="-0.05471">
        <ele>711</ele>
        <time>2021-10-09T08:58:32</time>
      </trkpt>
      <trkpt lat="42.98662" lon="-0.05469">
        <ele>711.2</ele>
        <time>2021-10-09T08:58:33</time>
      </trkpt>
      <trkpt lat="42.98661" lon="-0.05467">
        <ele>711.4</ele>
        <time>2021-10-09T08:58:34</time>
      </trkpt>
      <trkpt lat="42.9866" lon="-0.05465">
        <ele>711.4</ele>
        <time>2021-10-09T08:58:35</time>
      </trkpt>
      <trkpt lat="42.9866" lon="-0.05463">
        <ele>711.6</ele>
        <time>2021-10-09T08:58:36</time>
      </trkpt>
      <trkpt lat="42.98659" lon="-0.05461">
        <ele>711.8</ele>
        <time>2021-10-09T08:58:37</time>
      </trkpt>
      <trkpt lat="42.98659" lon="-0.05459">
        <ele>711.8</ele>
        <time>2021-10-09T08:58:38</time>
      </trkpt>
      <trkpt lat="42.98658" lon="-0.05456">
        <ele>712</ele>
        <time>2021-10-09T08:58:39</time>
      </trkpt>
      <trkpt lat="42.98658" lon="-0.05454">
        <ele>712.2</ele>
        <time>2021-10-09T08:58:40</time>
      </trkpt>
      <trkpt lat="42.98657" lon="-0.05452">
        <ele>712.4</ele>
        <time>2021-10-09T08:58:41</time>
      </trkpt>
      <trkpt lat="42.98657" lon="-0.0545">
        <ele>712.4</ele>
        <time>2021-10-09T08:58:42</time>
      </trkpt>
      <trkpt lat="42.98657" lon="-0.05448">
        <ele>712.6</ele>
        <time>2021-10-09T08:58:43</time>
      </trkpt>
      <trkpt lat="42.98657" lon="-0.05446">
        <ele>712.8</ele>
        <time>2021-10-09T08:58:44</time>
      </trkpt>
      <trkpt lat="42.98656" lon="-0.05444">
        <ele>712.8</ele>
        <time>2021-10-09T08:58:45</time>
      </trkpt>
      <trkpt lat="42.98655" lon="-0.05442">
        <ele>713</ele>
        <time>2021-10-09T08:58:46</time>
      </trkpt>
      <trkpt lat="42.98655" lon="-0.0544">
        <ele>713.2</ele>
        <time>2021-10-09T08:58:47</time>
      </trkpt>
      <trkpt lat="42.98654" lon="-0.05438">
        <ele>713.4</ele>
        <time>2021-10-09T08:58:48</time>
      </trkpt>
      <trkpt lat="42.98654" lon="-0.05437">
        <ele>713.6</ele>
        <time>2021-10-09T08:58:49</time>
      </trkpt>
      <trkpt lat="42.98654" lon="-0.05435">
        <ele>713.8</ele>
        <time>2021-10-09T08:58:50</time>
      </trkpt>
      <trkpt lat="42.98653" lon="-0.05433">
        <ele>714</ele>
        <time>2021-10-09T08:58:51</time>
      </trkpt>
      <trkpt lat="42.98652" lon="-0.05431">
        <ele>714.2</ele>
        <time>2021-10-09T08:58:52</time>
      </trkpt>
      <trkpt lat="42.98651" lon="-0.05429">
        <ele>714.2</ele>
        <time>2021-10-09T08:58:53</time>
      </trkpt>
      <trkpt lat="42.9865" lon="-0.05427">
        <ele>714.4</ele>
        <time>2021-10-09T08:58:54</time>
      </trkpt>
      <trkpt lat="42.98649" lon="-0.05426">
        <ele>714.6</ele>
        <time>2021-10-09T08:58:55</time>
      </trkpt>
      <trkpt lat="42.98648" lon="-0.05424">
        <ele>714.8</ele>
        <time>2021-10-09T08:58:56</time>
      </trkpt>
      <trkpt lat="42.98647" lon="-0.05422">
        <ele>714.8</ele>
        <time>2021-10-09T08:58:57</time>
      </trkpt>
      <trkpt lat="42.98646" lon="-0.05421">
        <ele>715</ele>
        <time>2021-10-09T08:58:58</time>
      </trkpt>
      <trkpt lat="42.98645" lon="-0.05419">
        <ele>715.2</ele>
        <time>2021-10-09T08:58:59</time>
      </trkpt>
      <trkpt lat="42.98644" lon="-0.05417">
        <ele>715.4</ele>
        <time>2021-10-09T08:59:00</time>
      </trkpt>
      <trkpt lat="42.98643" lon="-0.05415">
        <ele>715.4</ele>
        <time>2021-10-09T08:59:01</time>
      </trkpt>
      <trkpt lat="42.98643" lon="-0.05413">
        <ele>715.6</ele>
        <time>2021-10-09T08:59:02</time>
      </trkpt>
      <trkpt lat="42.98642" lon="-0.05411">
        <ele>715.6</ele>
        <time>2021-10-09T08:59:03</time>
      </trkpt>
      <trkpt lat="42.98641" lon="-0.05409">
        <ele>715.8</ele>
        <time>2021-10-09T08:59:04</time>
      </trkpt>
      <trkpt lat="42.9864" lon="-0.05407">
        <ele>716</ele>
        <time>2021-10-09T08:59:05</time>
      </trkpt>
      <trkpt lat="42.98639" lon="-0.05405">
        <ele>716.2</ele>
        <time>2021-10-09T08:59:06</time>
      </trkpt>
      <trkpt lat="42.98638" lon="-0.05404">
        <ele>716.2</ele>
        <time>2021-10-09T08:59:07</time>
      </trkpt>
      <trkpt lat="42.98637" lon="-0.05402">
        <ele>716.4</ele>
        <time>2021-10-09T08:59:08</time>
      </trkpt>
      <trkpt lat="42.98637" lon="-0.054">
        <ele>716.6</ele>
        <time>2021-10-09T08:59:09</time>
      </trkpt>
      <trkpt lat="42.98636" lon="-0.05398">
        <ele>716.8</ele>
        <time>2021-10-09T08:59:10</time>
      </trkpt>
      <trkpt lat="42.98635" lon="-0.05397">
        <ele>717</ele>
        <time>2021-10-09T08:59:11</time>
      </trkpt>
      <trkpt lat="42.98634" lon="-0.05395">
        <ele>717</ele>
        <time>2021-10-09T08:59:12</time>
      </trkpt>
      <trkpt lat="42.98633" lon="-0.05394">
        <ele>717.2</ele>
        <time>2021-10-09T08:59:13</time>
      </trkpt>
      <trkpt lat="42.98632" lon="-0.05392">
        <ele>717.4</ele>
        <time>2021-10-09T08:59:14</time>
      </trkpt>
      <trkpt lat="42.9863" lon="-0.05391">
        <ele>717.4</ele>
        <time>2021-10-09T08:59:15</time>
      </trkpt>
      <trkpt lat="42.9863" lon="-0.05389">
        <ele>717.6</ele>
        <time>2021-10-09T08:59:16</time>
      </trkpt>
      <trkpt lat="42.98629" lon="-0.05387">
        <ele>717.6</ele>
        <time>2021-10-09T08:59:17</time>
      </trkpt>
      <trkpt lat="42.98627" lon="-0.05386">
        <ele>717.6</ele>
        <time>2021-10-09T08:59:18</time>
      </trkpt>
      <trkpt lat="42.98627" lon="-0.05384">
        <ele>717.8</ele>
        <time>2021-10-09T08:59:19</time>
      </trkpt>
      <trkpt lat="42.98626" lon="-0.05382">
        <ele>717.8</ele>
        <time>2021-10-09T08:59:20</time>
      </trkpt>
      <trkpt lat="42.98625" lon="-0.0538">
        <ele>718</ele>
        <time>2021-10-09T08:59:21</time>
      </trkpt>
      <trkpt lat="42.98624" lon="-0.05378">
        <ele>718.2</ele>
        <time>2021-10-09T08:59:22</time>
      </trkpt>
      <trkpt lat="42.98623" lon="-0.05376">
        <ele>718.4</ele>
        <time>2021-10-09T08:59:23</time>
      </trkpt>
      <trkpt lat="42.98621" lon="-0.05374">
        <ele>718.6</ele>
        <time>2021-10-09T08:59:24</time>
      </trkpt>
      <trkpt lat="42.9862" lon="-0.05372">
        <ele>718.6</ele>
        <time>2021-10-09T08:59:25</time>
      </trkpt>
      <trkpt lat="42.98619" lon="-0.0537">
        <ele>719</ele>
        <time>2021-10-09T08:59:26</time>
      </trkpt>
      <trkpt lat="42.98618" lon="-0.05368">
        <ele>719</ele>
        <time>2021-10-09T08:59:27</time>
      </trkpt>
      <trkpt lat="42.98617" lon="-0.05367">
        <ele>719.2</ele>
        <time>2021-10-09T08:59:28</time>
      </trkpt>
      <trkpt lat="42.98616" lon="-0.05365">
        <ele>719.4</ele>
        <time>2021-10-09T08:59:29</time>
      </trkpt>
      <trkpt lat="42.98615" lon="-0.05363">
        <ele>719.6</ele>
        <time>2021-10-09T08:59:30</time>
      </trkpt>
      <trkpt lat="42.98614" lon="-0.05361">
        <ele>719.6</ele>
        <time>2021-10-09T08:59:31</time>
      </trkpt>
      <trkpt lat="42.98613" lon="-0.05359">
        <ele>719.8</ele>
        <time>2021-10-09T08:59:32</time>
      </trkpt>
      <trkpt lat="42.98612" lon="-0.05357">
        <ele>720</ele>
        <time>2021-10-09T08:59:33</time>
      </trkpt>
      <trkpt lat="42.98611" lon="-0.05355">
        <ele>720.2</ele>
        <time>2021-10-09T08:59:34</time>
      </trkpt>
      <trkpt lat="42.9861" lon="-0.05353">
        <ele>720.4</ele>
        <time>2021-10-09T08:59:35</time>
      </trkpt>
      <trkpt lat="42.98609" lon="-0.05351">
        <ele>720.6</ele>
        <time>2021-10-09T08:59:36</time>
      </trkpt>
      <trkpt lat="42.98608" lon="-0.0535">
        <ele>720.6</ele>
        <time>2021-10-09T08:59:37</time>
      </trkpt>
      <trkpt lat="42.98607" lon="-0.05348">
        <ele>720.8</ele>
        <time>2021-10-09T08:59:38</time>
      </trkpt>
      <trkpt lat="42.98606" lon="-0.05346">
        <ele>721</ele>
        <time>2021-10-09T08:59:39</time>
      </trkpt>
      <trkpt lat="42.98605" lon="-0.05344">
        <ele>721</ele>
        <time>2021-10-09T08:59:40</time>
      </trkpt>
      <trkpt lat="42.98604" lon="-0.05342">
        <ele>721.2</ele>
        <time>2021-10-09T08:59:41</time>
      </trkpt>
      <trkpt lat="42.98603" lon="-0.05341">
        <ele>721.4</ele>
        <time>2021-10-09T08:59:42</time>
      </trkpt>
      <trkpt lat="42.98602" lon="-0.05339">
        <ele>721.6</ele>
        <time>2021-10-09T08:59:43</time>
      </trkpt>
      <trkpt lat="42.98601" lon="-0.05337">
        <ele>721.6</ele>
        <time>2021-10-09T08:59:44</time>
      </trkpt>
      <trkpt lat="42.986" lon="-0.05335">
        <ele>721.8</ele>
        <time>2021-10-09T08:59:45</time>
      </trkpt>
      <trkpt lat="42.98599" lon="-0.05333">
        <ele>722</ele>
        <time>2021-10-09T08:59:46</time>
      </trkpt>
      <trkpt lat="42.98598" lon="-0.05331">
        <ele>722.2</ele>
        <time>2021-10-09T08:59:47</time>
      </trkpt>
      <trkpt lat="42.98597" lon="-0.05329">
        <ele>722.4</ele>
        <time>2021-10-09T08:59:48</time>
      </trkpt>
      <trkpt lat="42.98596" lon="-0.05328">
        <ele>722.6</ele>
        <time>2021-10-09T08:59:49</time>
      </trkpt>
      <trkpt lat="42.98595" lon="-0.05326">
        <ele>722.8</ele>
        <time>2021-10-09T08:59:50</time>
      </trkpt>
      <trkpt lat="42.98595" lon="-0.05324">
        <ele>723</ele>
        <time>2021-10-09T08:59:51</time>
      </trkpt>
      <trkpt lat="42.98593" lon="-0.05323">
        <ele>723</ele>
        <time>2021-10-09T08:59:52</time>
      </trkpt>
      <trkpt lat="42.98592" lon="-0.05321">
        <ele>723.4</ele>
        <time>2021-10-09T08:59:53</time>
      </trkpt>
      <trkpt lat="42.98591" lon="-0.0532">
        <ele>723.6</ele>
        <time>2021-10-09T08:59:54</time>
      </trkpt>
      <trkpt lat="42.9859" lon="-0.05318">
        <ele>723.6</ele>
        <time>2021-10-09T08:59:55</time>
      </trkpt>
      <trkpt lat="42.98589" lon="-0.05316">
        <ele>723.8</ele>
        <time>2021-10-09T08:59:56</time>
      </trkpt>
      <trkpt lat="42.98589" lon="-0.05314">
        <ele>724</ele>
        <time>2021-10-09T08:59:57</time>
      </trkpt>
      <trkpt lat="42.98587" lon="-0.05312">
        <ele>724</ele>
        <time>2021-10-09T08:59:58</time>
      </trkpt>
      <trkpt lat="42.98586" lon="-0.05311">
        <ele>724.2</ele>
        <time>2021-10-09T08:59:59</time>
      </trkpt>
      <trkpt lat="42.98585" lon="-0.05309">
        <ele>724.2</ele>
        <time>2021-10-09T09:00:00</time>
      </trkpt>
      <trkpt lat="42.98584" lon="-0.05307">
        <ele>724.4</ele>
        <time>2021-10-09T09:00:01</time>
      </trkpt>
      <trkpt lat="42.98583" lon="-0.05306">
        <ele>724.6</ele>
        <time>2021-10-09T09:00:02</time>
      </trkpt>
      <trkpt lat="42.98582" lon="-0.05304">
        <ele>724.8</ele>
        <time>2021-10-09T09:00:03</time>
      </trkpt>
      <trkpt lat="42.98581" lon="-0.05302">
        <ele>724.8</ele>
        <time>2021-10-09T09:00:04</time>
      </trkpt>
      <trkpt lat="42.98579" lon="-0.05301">
        <ele>725</ele>
        <time>2021-10-09T09:00:05</time>
      </trkpt>
      <trkpt lat="42.98578" lon="-0.05299">
        <ele>725.2</ele>
        <time>2021-10-09T09:00:06</time>
      </trkpt>
      <trkpt lat="42.98577" lon="-0.05297">
        <ele>725.2</ele>
        <time>2021-10-09T09:00:07</time>
      </trkpt>
      <trkpt lat="42.98576" lon="-0.05296">
        <ele>725.4</ele>
        <time>2021-10-09T09:00:08</time>
      </trkpt>
      <trkpt lat="42.98575" lon="-0.05294">
        <ele>725.6</ele>
        <time>2021-10-09T09:00:09</time>
      </trkpt>
      <trkpt lat="42.98574" lon="-0.05292">
        <ele>725.8</ele>
        <time>2021-10-09T09:00:10</time>
      </trkpt>
      <trkpt lat="42.98573" lon="-0.05291">
        <ele>726</ele>
        <time>2021-10-09T09:00:11</time>
      </trkpt>
      <trkpt lat="42.98572" lon="-0.05289">
        <ele>726.2</ele>
        <time>2021-10-09T09:00:12</time>
      </trkpt>
      <trkpt lat="42.98571" lon="-0.05288">
        <ele>726.2</ele>
        <time>2021-10-09T09:00:13</time>
      </trkpt>
      <trkpt lat="42.9857" lon="-0.05287">
        <ele>726.4</ele>
        <time>2021-10-09T09:00:14</time>
      </trkpt>
      <trkpt lat="42.98569" lon="-0.05285">
        <ele>726.6</ele>
        <time>2021-10-09T09:00:15</time>
      </trkpt>
      <trkpt lat="42.98568" lon="-0.05283">
        <ele>726.8</ele>
        <time>2021-10-09T09:00:16</time>
      </trkpt>
      <trkpt lat="42.98567" lon="-0.05281">
        <ele>727</ele>
        <time>2021-10-09T09:00:17</time>
      </trkpt>
      <trkpt lat="42.98566" lon="-0.05279">
        <ele>727</ele>
        <time>2021-10-09T09:00:18</time>
      </trkpt>
      <trkpt lat="42.98565" lon="-0.05278">
        <ele>727.2</ele>
        <time>2021-10-09T09:00:19</time>
      </trkpt>
      <trkpt lat="42.98564" lon="-0.05276">
        <ele>727.4</ele>
        <time>2021-10-09T09:00:20</time>
      </trkpt>
      <trkpt lat="42.98563" lon="-0.05274">
        <ele>727.4</ele>
        <time>2021-10-09T09:00:21</time>
      </trkpt>
      <trkpt lat="42.98562" lon="-0.05272">
        <ele>727.6</ele>
        <time>2021-10-09T09:00:22</time>
      </trkpt>
      <trkpt lat="42.98561" lon="-0.0527">
        <ele>727.6</ele>
        <time>2021-10-09T09:00:23</time>
      </trkpt>
      <trkpt lat="42.9856" lon="-0.05268">
        <ele>727.8</ele>
        <time>2021-10-09T09:00:24</time>
      </trkpt>
      <trkpt lat="42.98559" lon="-0.05266">
        <ele>728</ele>
        <time>2021-10-09T09:00:25</time>
      </trkpt>
      <trkpt lat="42.98558" lon="-0.05264">
        <ele>728</ele>
        <time>2021-10-09T09:00:26</time>
      </trkpt>
      <trkpt lat="42.98557" lon="-0.05262">
        <ele>728.2</ele>
        <time>2021-10-09T09:00:27</time>
      </trkpt>
      <trkpt lat="42.98556" lon="-0.0526">
        <ele>728.2</ele>
        <time>2021-10-09T09:00:28</time>
      </trkpt>
      <trkpt lat="42.98554" lon="-0.05258">
        <ele>728.6</ele>
        <time>2021-10-09T09:00:29</time>
      </trkpt>
      <trkpt lat="42.98553" lon="-0.05256">
        <ele>728.4</ele>
        <time>2021-10-09T09:00:30</time>
      </trkpt>
      <trkpt lat="42.98552" lon="-0.05254">
        <ele>728.6</ele>
        <time>2021-10-09T09:00:31</time>
      </trkpt>
      <trkpt lat="42.98551" lon="-0.05252">
        <ele>728.8</ele>
        <time>2021-10-09T09:00:32</time>
      </trkpt>
      <trkpt lat="42.9855" lon="-0.0525">
        <ele>728.8</ele>
        <time>2021-10-09T09:00:33</time>
      </trkpt>
      <trkpt lat="42.98549" lon="-0.05248">
        <ele>729</ele>
        <time>2021-10-09T09:00:34</time>
      </trkpt>
      <trkpt lat="42.98548" lon="-0.05246">
        <ele>729</ele>
        <time>2021-10-09T09:00:35</time>
      </trkpt>
      <trkpt lat="42.98547" lon="-0.05244">
        <ele>729.2</ele>
        <time>2021-10-09T09:00:36</time>
      </trkpt>
      <trkpt lat="42.98546" lon="-0.05242">
        <ele>729.2</ele>
        <time>2021-10-09T09:00:37</time>
      </trkpt>
      <trkpt lat="42.98545" lon="-0.05239">
        <ele>729.4</ele>
        <time>2021-10-09T09:00:38</time>
      </trkpt>
      <trkpt lat="42.98544" lon="-0.05237">
        <ele>729.6</ele>
        <time>2021-10-09T09:00:39</time>
      </trkpt>
      <trkpt lat="42.98543" lon="-0.05235">
        <ele>729.6</ele>
        <time>2021-10-09T09:00:40</time>
      </trkpt>
      <trkpt lat="42.98542" lon="-0.05233">
        <ele>729.8</ele>
        <time>2021-10-09T09:00:41</time>
      </trkpt>
      <trkpt lat="42.98541" lon="-0.05231">
        <ele>729.8</ele>
        <time>2021-10-09T09:00:42</time>
      </trkpt>
      <trkpt lat="42.9854" lon="-0.05229">
        <ele>730</ele>
        <time>2021-10-09T09:00:43</time>
      </trkpt>
      <trkpt lat="42.98539" lon="-0.05227">
        <ele>730</ele>
        <time>2021-10-09T09:00:44</time>
      </trkpt>
      <trkpt lat="42.98538" lon="-0.05225">
        <ele>730.2</ele>
        <time>2021-10-09T09:00:45</time>
      </trkpt>
      <trkpt lat="42.98537" lon="-0.05223">
        <ele>730.4</ele>
        <time>2021-10-09T09:00:46</time>
      </trkpt>
      <trkpt lat="42.98536" lon="-0.05221">
        <ele>730.4</ele>
        <time>2021-10-09T09:00:47</time>
      </trkpt>
      <trkpt lat="42.98535" lon="-0.05219">
        <ele>730.6</ele>
        <time>2021-10-09T09:00:48</time>
      </trkpt>
      <trkpt lat="42.98533" lon="-0.05217">
        <ele>730.6</ele>
        <time>2021-10-09T09:00:49</time>
      </trkpt>
      <trkpt lat="42.98532" lon="-0.05215">
        <ele>730.8</ele>
        <time>2021-10-09T09:00:50</time>
      </trkpt>
      <trkpt lat="42.98531" lon="-0.05213">
        <ele>731</ele>
        <time>2021-10-09T09:00:51</time>
      </trkpt>
      <trkpt lat="42.9853" lon="-0.05211">
        <ele>731</ele>
        <time>2021-10-09T09:00:52</time>
      </trkpt>
      <trkpt lat="42.98529" lon="-0.05209">
        <ele>731.2</ele>
        <time>2021-10-09T09:00:53</time>
      </trkpt>
      <trkpt lat="42.98528" lon="-0.05206">
        <ele>731.4</ele>
        <time>2021-10-09T09:00:54</time>
      </trkpt>
      <trkpt lat="42.98527" lon="-0.05204">
        <ele>731.4</ele>
        <time>2021-10-09T09:00:55</time>
      </trkpt>
      <trkpt lat="42.98526" lon="-0.05203">
        <ele>731.6</ele>
        <time>2021-10-09T09:00:56</time>
      </trkpt>
      <trkpt lat="42.98525" lon="-0.052">
        <ele>731.8</ele>
        <time>2021-10-09T09:00:57</time>
      </trkpt>
      <trkpt lat="42.98524" lon="-0.05198">
        <ele>731.8</ele>
        <time>2021-10-09T09:00:58</time>
      </trkpt>
      <trkpt lat="42.98522" lon="-0.05196">
        <ele>732</ele>
        <time>2021-10-09T09:00:59</time>
      </trkpt>
      <trkpt lat="42.98521" lon="-0.05195">
        <ele>732.2</ele>
        <time>2021-10-09T09:01:00</time>
      </trkpt>
      <trkpt lat="42.9852" lon="-0.05193">
        <ele>732.2</ele>
        <time>2021-10-09T09:01:01</time>
      </trkpt>
      <trkpt lat="42.98518" lon="-0.05191">
        <ele>732.4</ele>
        <time>2021-10-09T09:01:02</time>
      </trkpt>
      <trkpt lat="42.98517" lon="-0.05189">
        <ele>732.4</ele>
        <time>2021-10-09T09:01:03</time>
      </trkpt>
      <trkpt lat="42.98516" lon="-0.05187">
        <ele>732.6</ele>
        <time>2021-10-09T09:01:04</time>
      </trkpt>
      <trkpt lat="42.98515" lon="-0.05186">
        <ele>732.8</ele>
        <time>2021-10-09T09:01:05</time>
      </trkpt>
      <trkpt lat="42.98513" lon="-0.05185">
        <ele>733</ele>
        <time>2021-10-09T09:01:06</time>
      </trkpt>
      <trkpt lat="42.98512" lon="-0.05183">
        <ele>733.2</ele>
        <time>2021-10-09T09:01:07</time>
      </trkpt>
      <trkpt lat="42.98511" lon="-0.05182">
        <ele>733.2</ele>
        <time>2021-10-09T09:01:08</time>
      </trkpt>
      <trkpt lat="42.98509" lon="-0.05181">
        <ele>733.4</ele>
        <time>2021-10-09T09:01:09</time>
      </trkpt>
      <trkpt lat="42.98508" lon="-0.05179">
        <ele>733.6</ele>
        <time>2021-10-09T09:01:10</time>
      </trkpt>
      <trkpt lat="42.98506" lon="-0.05178">
        <ele>733.6</ele>
        <time>2021-10-09T09:01:11</time>
      </trkpt>
      <trkpt lat="42.98505" lon="-0.05177">
        <ele>733.8</ele>
        <time>2021-10-09T09:01:12</time>
      </trkpt>
      <trkpt lat="42.98503" lon="-0.05176">
        <ele>734</ele>
        <time>2021-10-09T09:01:13</time>
      </trkpt>
      <trkpt lat="42.98501" lon="-0.05175">
        <ele>734.2</ele>
        <time>2021-10-09T09:01:14</time>
      </trkpt>
      <trkpt lat="42.985" lon="-0.05174">
        <ele>734.4</ele>
        <time>2021-10-09T09:01:15</time>
      </trkpt>
      <trkpt lat="42.98498" lon="-0.05173">
        <ele>734.4</ele>
        <time>2021-10-09T09:01:16</time>
      </trkpt>
      <trkpt lat="42.98496" lon="-0.05172">
        <ele>734.6</ele>
        <time>2021-10-09T09:01:17</time>
      </trkpt>
      <trkpt lat="42.98495" lon="-0.05171">
        <ele>734.8</ele>
        <time>2021-10-09T09:01:18</time>
      </trkpt>
      <trkpt lat="42.98493" lon="-0.0517">
        <ele>735</ele>
        <time>2021-10-09T09:01:19</time>
      </trkpt>
      <trkpt lat="42.98491" lon="-0.05169">
        <ele>735.2</ele>
        <time>2021-10-09T09:01:20</time>
      </trkpt>
      <trkpt lat="42.9849" lon="-0.05168">
        <ele>735.4</ele>
        <time>2021-10-09T09:01:21</time>
      </trkpt>
      <trkpt lat="42.98488" lon="-0.05167">
        <ele>735.6</ele>
        <time>2021-10-09T09:01:22</time>
      </trkpt>
      <trkpt lat="42.98487" lon="-0.05166">
        <ele>735.8</ele>
        <time>2021-10-09T09:01:23</time>
      </trkpt>
      <trkpt lat="42.98485" lon="-0.05165">
        <ele>736</ele>
        <time>2021-10-09T09:01:24</time>
      </trkpt>
      <trkpt lat="42.98484" lon="-0.05165">
        <ele>736</ele>
        <time>2021-10-09T09:01:25</time>
      </trkpt>
      <trkpt lat="42.98482" lon="-0.05164">
        <ele>736.2</ele>
        <time>2021-10-09T09:01:26</time>
      </trkpt>
      <trkpt lat="42.9848" lon="-0.05164">
        <ele>736.4</ele>
        <time>2021-10-09T09:01:27</time>
      </trkpt>
      <trkpt lat="42.98479" lon="-0.05163">
        <ele>736.6</ele>
        <time>2021-10-09T09:01:28</time>
      </trkpt>
      <trkpt lat="42.98478" lon="-0.05162">
        <ele>736.8</ele>
        <time>2021-10-09T09:01:29</time>
      </trkpt>
      <trkpt lat="42.98476" lon="-0.05162">
        <ele>737</ele>
        <time>2021-10-09T09:01:30</time>
      </trkpt>
      <trkpt lat="42.98475" lon="-0.05161">
        <ele>737</ele>
        <time>2021-10-09T09:01:31</time>
      </trkpt>
      <trkpt lat="42.98473" lon="-0.0516">
        <ele>737.2</ele>
        <time>2021-10-09T09:01:32</time>
      </trkpt>
      <trkpt lat="42.98472" lon="-0.05159">
        <ele>737.4</ele>
        <time>2021-10-09T09:01:33</time>
      </trkpt>
      <trkpt lat="42.9847" lon="-0.05158">
        <ele>737.6</ele>
        <time>2021-10-09T09:01:34</time>
      </trkpt>
      <trkpt lat="42.98469" lon="-0.05157">
        <ele>737.8</ele>
        <time>2021-10-09T09:01:35</time>
      </trkpt>
      <trkpt lat="42.98467" lon="-0.05155">
        <ele>737.8</ele>
        <time>2021-10-09T09:01:36</time>
      </trkpt>
      <trkpt lat="42.98466" lon="-0.05154">
        <ele>738</ele>
        <time>2021-10-09T09:01:37</time>
      </trkpt>
      <trkpt lat="42.98465" lon="-0.05152">
        <ele>738</ele>
        <time>2021-10-09T09:01:38</time>
      </trkpt>
      <trkpt lat="42.98463" lon="-0.05151">
        <ele>738.2</ele>
        <time>2021-10-09T09:01:39</time>
      </trkpt>
      <trkpt lat="42.98461" lon="-0.05149">
        <ele>738.4</ele>
        <time>2021-10-09T09:01:40</time>
      </trkpt>
      <trkpt lat="42.9846" lon="-0.05148">
        <ele>738.4</ele>
        <time>2021-10-09T09:01:41</time>
      </trkpt>
      <trkpt lat="42.98459" lon="-0.05147">
        <ele>738.6</ele>
        <time>2021-10-09T09:01:42</time>
      </trkpt>
      <trkpt lat="42.98457" lon="-0.05145">
        <ele>738.6</ele>
        <time>2021-10-09T09:01:43</time>
      </trkpt>
      <trkpt lat="42.98456" lon="-0.05144">
        <ele>738.8</ele>
        <time>2021-10-09T09:01:44</time>
      </trkpt>
      <trkpt lat="42.98454" lon="-0.05142">
        <ele>738.8</ele>
        <time>2021-10-09T09:01:45</time>
      </trkpt>
      <trkpt lat="42.98453" lon="-0.05141">
        <ele>739</ele>
        <time>2021-10-09T09:01:46</time>
      </trkpt>
      <trkpt lat="42.98452" lon="-0.05139">
        <ele>739.2</ele>
        <time>2021-10-09T09:01:47</time>
      </trkpt>
      <trkpt lat="42.98451" lon="-0.05138">
        <ele>739.2</ele>
        <time>2021-10-09T09:01:48</time>
      </trkpt>
      <trkpt lat="42.98449" lon="-0.05136">
        <ele>739.4</ele>
        <time>2021-10-09T09:01:49</time>
      </trkpt>
      <trkpt lat="42.98448" lon="-0.05135">
        <ele>739.4</ele>
        <time>2021-10-09T09:01:50</time>
      </trkpt>
      <trkpt lat="42.98447" lon="-0.05133">
        <ele>739.6</ele>
        <time>2021-10-09T09:01:51</time>
      </trkpt>
      <trkpt lat="42.98445" lon="-0.05132">
        <ele>739.6</ele>
        <time>2021-10-09T09:01:52</time>
      </trkpt>
      <trkpt lat="42.98444" lon="-0.05131">
        <ele>740</ele>
        <time>2021-10-09T09:01:53</time>
      </trkpt>
      <trkpt lat="42.98443" lon="-0.05129">
        <ele>740</ele>
        <time>2021-10-09T09:01:54</time>
      </trkpt>
      <trkpt lat="42.98441" lon="-0.05128">
        <ele>740.2</ele>
        <time>2021-10-09T09:01:55</time>
      </trkpt>
      <trkpt lat="42.9844" lon="-0.05127">
        <ele>740.4</ele>
        <time>2021-10-09T09:01:56</time>
      </trkpt>
      <trkpt lat="42.98439" lon="-0.05125">
        <ele>740.6</ele>
        <time>2021-10-09T09:01:57</time>
      </trkpt>
      <trkpt lat="42.98437" lon="-0.05124">
        <ele>740.6</ele>
        <time>2021-10-09T09:01:58</time>
      </trkpt>
      <trkpt lat="42.98436" lon="-0.05122">
        <ele>740.8</ele>
        <time>2021-10-09T09:01:59</time>
      </trkpt>
      <trkpt lat="42.98435" lon="-0.05121">
        <ele>741</ele>
        <time>2021-10-09T09:02:00</time>
      </trkpt>
      <trkpt lat="42.98434" lon="-0.0512">
        <ele>741.2</ele>
        <time>2021-10-09T09:02:01</time>
      </trkpt>
      <trkpt lat="42.98432" lon="-0.05118">
        <ele>741.4</ele>
        <time>2021-10-09T09:02:02</time>
      </trkpt>
      <trkpt lat="42.98431" lon="-0.05117">
        <ele>741.6</ele>
        <time>2021-10-09T09:02:03</time>
      </trkpt>
      <trkpt lat="42.9843" lon="-0.05115">
        <ele>741.6</ele>
        <time>2021-10-09T09:02:04</time>
      </trkpt>
      <trkpt lat="42.98429" lon="-0.05114">
        <ele>741.8</ele>
        <time>2021-10-09T09:02:05</time>
      </trkpt>
      <trkpt lat="42.98428" lon="-0.05112">
        <ele>742</ele>
        <time>2021-10-09T09:02:06</time>
      </trkpt>
      <trkpt lat="42.98427" lon="-0.0511">
        <ele>742.2</ele>
        <time>2021-10-09T09:02:07</time>
      </trkpt>
      <trkpt lat="42.98426" lon="-0.05109">
        <ele>742.4</ele>
        <time>2021-10-09T09:02:08</time>
      </trkpt>
      <trkpt lat="42.98425" lon="-0.05107">
        <ele>742.6</ele>
        <time>2021-10-09T09:02:09</time>
      </trkpt>
      <trkpt lat="42.98423" lon="-0.05106">
        <ele>742.6</ele>
        <time>2021-10-09T09:02:10</time>
      </trkpt>
      <trkpt lat="42.98422" lon="-0.05104">
        <ele>742.8</ele>
        <time>2021-10-09T09:02:11</time>
      </trkpt>
      <trkpt lat="42.98422" lon="-0.05102">
        <ele>743</ele>
        <time>2021-10-09T09:02:12</time>
      </trkpt>
      <trkpt lat="42.98421" lon="-0.051">
        <ele>743.2</ele>
        <time>2021-10-09T09:02:13</time>
      </trkpt>
      <trkpt lat="42.9842" lon="-0.05098">
        <ele>743.2</ele>
        <time>2021-10-09T09:02:14</time>
      </trkpt>
      <trkpt lat="42.9842" lon="-0.05096">
        <ele>743.2</ele>
        <time>2021-10-09T09:02:15</time>
      </trkpt>
      <trkpt lat="42.98419" lon="-0.05094">
        <ele>743.6</ele>
        <time>2021-10-09T09:02:16</time>
      </trkpt>
      <trkpt lat="42.98419" lon="-0.05092">
        <ele>743.6</ele>
        <time>2021-10-09T09:02:17</time>
      </trkpt>
      <trkpt lat="42.98418" lon="-0.05089">
        <ele>743.6</ele>
        <time>2021-10-09T09:02:18</time>
      </trkpt>
      <trkpt lat="42.98418" lon="-0.05087">
        <ele>743.8</ele>
        <time>2021-10-09T09:02:19</time>
      </trkpt>
      <trkpt lat="42.98417" lon="-0.05085">
        <ele>744</ele>
        <time>2021-10-09T09:02:20</time>
      </trkpt>
      <trkpt lat="42.98417" lon="-0.05082">
        <ele>744</ele>
        <time>2021-10-09T09:02:21</time>
      </trkpt>
      <trkpt lat="42.98416" lon="-0.0508">
        <ele>744.2</ele>
        <time>2021-10-09T09:02:22</time>
      </trkpt>
      <trkpt lat="42.98416" lon="-0.05078">
        <ele>744.4</ele>
        <time>2021-10-09T09:02:23</time>
      </trkpt>
      <trkpt lat="42.98415" lon="-0.05075">
        <ele>744.4</ele>
        <time>2021-10-09T09:02:24</time>
      </trkpt>
      <trkpt lat="42.98414" lon="-0.05073">
        <ele>744.6</ele>
        <time>2021-10-09T09:02:25</time>
      </trkpt>
      <trkpt lat="42.98414" lon="-0.05071">
        <ele>744.8</ele>
        <time>2021-10-09T09:02:26</time>
      </trkpt>
      <trkpt lat="42.98413" lon="-0.05068">
        <ele>745</ele>
        <time>2021-10-09T09:02:27</time>
      </trkpt>
      <trkpt lat="42.98413" lon="-0.05066">
        <ele>745</ele>
        <time>2021-10-09T09:02:28</time>
      </trkpt>
      <trkpt lat="42.98412" lon="-0.05064">
        <ele>745.2</ele>
        <time>2021-10-09T09:02:29</time>
      </trkpt>
      <trkpt lat="42.98411" lon="-0.05059">
        <ele>745.4</ele>
        <time>2021-10-09T09:02:31</time>
      </trkpt>
      <trkpt lat="42.98411" lon="-0.05057">
        <ele>745.6</ele>
        <time>2021-10-09T09:02:32</time>
      </trkpt>
      <trkpt lat="42.9841" lon="-0.05055">
        <ele>745.6</ele>
        <time>2021-10-09T09:02:33</time>
      </trkpt>
      <trkpt lat="42.9841" lon="-0.05053">
        <ele>745.8</ele>
        <time>2021-10-09T09:02:34</time>
      </trkpt>
      <trkpt lat="42.98409" lon="-0.0505">
        <ele>745.8</ele>
        <time>2021-10-09T09:02:35</time>
      </trkpt>
      <trkpt lat="42.98407" lon="-0.05048">
        <ele>745.8</ele>
        <time>2021-10-09T09:02:36</time>
      </trkpt>
      <trkpt lat="42.98406" lon="-0.05045">
        <ele>745.8</ele>
        <time>2021-10-09T09:02:37</time>
      </trkpt>
      <trkpt lat="42.98404" lon="-0.05043">
        <ele>746</ele>
        <time>2021-10-09T09:02:38</time>
      </trkpt>
      <trkpt lat="42.98402" lon="-0.05041">
        <ele>746</ele>
        <time>2021-10-09T09:02:39</time>
      </trkpt>
      <trkpt lat="42.984" lon="-0.05039">
        <ele>746.4</ele>
        <time>2021-10-09T09:02:40</time>
      </trkpt>
      <trkpt lat="42.98398" lon="-0.05038">
        <ele>746.4</ele>
        <time>2021-10-09T09:02:41</time>
      </trkpt>
      <trkpt lat="42.98395" lon="-0.05037">
        <ele>746.4</ele>
        <time>2021-10-09T09:02:42</time>
      </trkpt>
      <trkpt lat="42.98394" lon="-0.05036">
        <ele>746.6</ele>
        <time>2021-10-09T09:02:43</time>
      </trkpt>
      <trkpt lat="42.98391" lon="-0.05034">
        <ele>746.8</ele>
        <time>2021-10-09T09:02:44</time>
      </trkpt>
      <trkpt lat="42.98389" lon="-0.05034">
        <ele>747</ele>
        <time>2021-10-09T09:02:45</time>
      </trkpt>
      <trkpt lat="42.98387" lon="-0.05034">
        <ele>747</ele>
        <time>2021-10-09T09:02:46</time>
      </trkpt>
      <trkpt lat="42.98384" lon="-0.05034">
        <ele>747</ele>
        <time>2021-10-09T09:02:47</time>
      </trkpt>
      <trkpt lat="42.98382" lon="-0.05034">
        <ele>747.2</ele>
        <time>2021-10-09T09:02:48</time>
      </trkpt>
      <trkpt lat="42.98379" lon="-0.05034">
        <ele>747.2</ele>
        <time>2021-10-09T09:02:49</time>
      </trkpt>
      <trkpt lat="42.98376" lon="-0.05034">
        <ele>747.4</ele>
        <time>2021-10-09T09:02:50</time>
      </trkpt>
      <trkpt lat="42.98374" lon="-0.05034">
        <ele>747.6</ele>
        <time>2021-10-09T09:02:51</time>
      </trkpt>
      <trkpt lat="42.98372" lon="-0.05034">
        <ele>747.6</ele>
        <time>2021-10-09T09:02:52</time>
      </trkpt>
      <trkpt lat="42.98369" lon="-0.05034">
        <ele>747.8</ele>
        <time>2021-10-09T09:02:53</time>
      </trkpt>
      <trkpt lat="42.98367" lon="-0.05034">
        <ele>748</ele>
        <time>2021-10-09T09:02:54</time>
      </trkpt>
      <trkpt lat="42.98365" lon="-0.05035">
        <ele>748</ele>
        <time>2021-10-09T09:02:55</time>
      </trkpt>
      <trkpt lat="42.98362" lon="-0.05036">
        <ele>748.2</ele>
        <time>2021-10-09T09:02:56</time>
      </trkpt>
      <trkpt lat="42.9836" lon="-0.05038">
        <ele>748.4</ele>
        <time>2021-10-09T09:02:57</time>
      </trkpt>
      <trkpt lat="42.98358" lon="-0.05039">
        <ele>748.6</ele>
        <time>2021-10-09T09:02:58</time>
      </trkpt>
      <trkpt lat="42.98356" lon="-0.0504">
        <ele>748.6</ele>
        <time>2021-10-09T09:02:59</time>
      </trkpt>
      <trkpt lat="42.98354" lon="-0.05041">
        <ele>748.8</ele>
        <time>2021-10-09T09:03:00</time>
      </trkpt>
      <trkpt lat="42.98352" lon="-0.05042">
        <ele>749</ele>
        <time>2021-10-09T09:03:01</time>
      </trkpt>
      <trkpt lat="42.9835" lon="-0.05043">
        <ele>749.2</ele>
        <time>2021-10-09T09:03:02</time>
      </trkpt>
      <trkpt lat="42.98348" lon="-0.05044">
        <ele>749.2</ele>
        <time>2021-10-09T09:03:03</time>
      </trkpt>
      <trkpt lat="42.98346" lon="-0.05045">
        <ele>749.4</ele>
        <time>2021-10-09T09:03:04</time>
      </trkpt>
      <trkpt lat="42.98344" lon="-0.05046">
        <ele>749.6</ele>
        <time>2021-10-09T09:03:05</time>
      </trkpt>
      <trkpt lat="42.98342" lon="-0.05047">
        <ele>749.8</ele>
        <time>2021-10-09T09:03:06</time>
      </trkpt>
      <trkpt lat="42.98339" lon="-0.05048">
        <ele>750</ele>
        <time>2021-10-09T09:03:07</time>
      </trkpt>
      <trkpt lat="42.98337" lon="-0.05049">
        <ele>750</ele>
        <time>2021-10-09T09:03:08</time>
      </trkpt>
      <trkpt lat="42.98335" lon="-0.05051">
        <ele>750.2</ele>
        <time>2021-10-09T09:03:09</time>
      </trkpt>
      <trkpt lat="42.98334" lon="-0.05052">
        <ele>750.4</ele>
        <time>2021-10-09T09:03:10</time>
      </trkpt>
      <trkpt lat="42.98331" lon="-0.05053">
        <ele>750.6</ele>
        <time>2021-10-09T09:03:11</time>
      </trkpt>
      <trkpt lat="42.98329" lon="-0.05053">
        <ele>750.8</ele>
        <time>2021-10-09T09:03:12</time>
      </trkpt>
      <trkpt lat="42.98327" lon="-0.05054">
        <ele>750.8</ele>
        <time>2021-10-09T09:03:13</time>
      </trkpt>
      <trkpt lat="42.98325" lon="-0.05055">
        <ele>751</ele>
        <time>2021-10-09T09:03:14</time>
      </trkpt>
      <trkpt lat="42.98322" lon="-0.05056">
        <ele>751.2</ele>
        <time>2021-10-09T09:03:15</time>
      </trkpt>
      <trkpt lat="42.9832" lon="-0.05056">
        <ele>751.4</ele>
        <time>2021-10-09T09:03:16</time>
      </trkpt>
      <trkpt lat="42.98318" lon="-0.05057">
        <ele>751.6</ele>
        <time>2021-10-09T09:03:17</time>
      </trkpt>
      <trkpt lat="42.98315" lon="-0.05058">
        <ele>751.8</ele>
        <time>2021-10-09T09:03:18</time>
      </trkpt>
      <trkpt lat="42.98313" lon="-0.05059">
        <ele>752</ele>
        <time>2021-10-09T09:03:19</time>
      </trkpt>
      <trkpt lat="42.98311" lon="-0.05059">
        <ele>752.2</ele>
        <time>2021-10-09T09:03:20</time>
      </trkpt>
      <trkpt lat="42.98309" lon="-0.0506">
        <ele>752.4</ele>
        <time>2021-10-09T09:03:21</time>
      </trkpt>
      <trkpt lat="42.98307" lon="-0.0506">
        <ele>752.6</ele>
        <time>2021-10-09T09:03:22</time>
      </trkpt>
      <trkpt lat="42.98305" lon="-0.05061">
        <ele>752.8</ele>
        <time>2021-10-09T09:03:23</time>
      </trkpt>
      <trkpt lat="42.98302" lon="-0.0506">
        <ele>753</ele>
        <time>2021-10-09T09:03:24</time>
      </trkpt>
      <trkpt lat="42.983" lon="-0.0506">
        <ele>753.2</ele>
        <time>2021-10-09T09:03:25</time>
      </trkpt>
      <trkpt lat="42.98298" lon="-0.05059">
        <ele>753.4</ele>
        <time>2021-10-09T09:03:26</time>
      </trkpt>
      <trkpt lat="42.98296" lon="-0.05058">
        <ele>753.6</ele>
        <time>2021-10-09T09:03:27</time>
      </trkpt>
      <trkpt lat="42.98294" lon="-0.05057">
        <ele>753.6</ele>
        <time>2021-10-09T09:03:28</time>
      </trkpt>
      <trkpt lat="42.98292" lon="-0.05056">
        <ele>753.8</ele>
        <time>2021-10-09T09:03:29</time>
      </trkpt>
      <trkpt lat="42.9829" lon="-0.05056">
        <ele>754</ele>
        <time>2021-10-09T09:03:30</time>
      </trkpt>
      <trkpt lat="42.98288" lon="-0.05054">
        <ele>754.2</ele>
        <time>2021-10-09T09:03:31</time>
      </trkpt>
      <trkpt lat="42.98286" lon="-0.05053">
        <ele>754.4</ele>
        <time>2021-10-09T09:03:32</time>
      </trkpt>
      <trkpt lat="42.98284" lon="-0.05052">
        <ele>754.6</ele>
        <time>2021-10-09T09:03:33</time>
      </trkpt>
      <trkpt lat="42.98282" lon="-0.05051">
        <ele>754.6</ele>
        <time>2021-10-09T09:03:34</time>
      </trkpt>
      <trkpt lat="42.9828" lon="-0.0505">
        <ele>754.8</ele>
        <time>2021-10-09T09:03:35</time>
      </trkpt>
      <trkpt lat="42.98278" lon="-0.05049">
        <ele>755</ele>
        <time>2021-10-09T09:03:36</time>
      </trkpt>
      <trkpt lat="42.98275" lon="-0.05048">
        <ele>755.2</ele>
        <time>2021-10-09T09:03:37</time>
      </trkpt>
      <trkpt lat="42.98273" lon="-0.05047">
        <ele>755.4</ele>
        <time>2021-10-09T09:03:38</time>
      </trkpt>
      <trkpt lat="42.98271" lon="-0.05046">
        <ele>755.6</ele>
        <time>2021-10-09T09:03:39</time>
      </trkpt>
      <trkpt lat="42.98269" lon="-0.05045">
        <ele>755.8</ele>
        <time>2021-10-09T09:03:40</time>
      </trkpt>
      <trkpt lat="42.98267" lon="-0.05044">
        <ele>756</ele>
        <time>2021-10-09T09:03:41</time>
      </trkpt>
      <trkpt lat="42.98265" lon="-0.05043">
        <ele>756.2</ele>
        <time>2021-10-09T09:03:42</time>
      </trkpt>
      <trkpt lat="42.98263" lon="-0.05042">
        <ele>756.4</ele>
        <time>2021-10-09T09:03:43</time>
      </trkpt>
      <trkpt lat="42.9826" lon="-0.05041">
        <ele>756.6</ele>
        <time>2021-10-09T09:03:44</time>
      </trkpt>
      <trkpt lat="42.98258" lon="-0.0504">
        <ele>756.8</ele>
        <time>2021-10-09T09:03:45</time>
      </trkpt>
      <trkpt lat="42.98256" lon="-0.05039">
        <ele>756.8</ele>
        <time>2021-10-09T09:03:46</time>
      </trkpt>
      <trkpt lat="42.98254" lon="-0.05039">
        <ele>757</ele>
        <time>2021-10-09T09:03:47</time>
      </trkpt>
      <trkpt lat="42.98252" lon="-0.05038">
        <ele>757.2</ele>
        <time>2021-10-09T09:03:48</time>
      </trkpt>
      <trkpt lat="42.9825" lon="-0.05038">
        <ele>757.4</ele>
        <time>2021-10-09T09:03:49</time>
      </trkpt>
      <trkpt lat="42.98247" lon="-0.05037">
        <ele>757.6</ele>
        <time>2021-10-09T09:03:50</time>
      </trkpt>
      <trkpt lat="42.98245" lon="-0.05037">
        <ele>757.8</ele>
        <time>2021-10-09T09:03:51</time>
      </trkpt>
      <trkpt lat="42.98243" lon="-0.05037">
        <ele>758</ele>
        <time>2021-10-09T09:03:52</time>
      </trkpt>
      <trkpt lat="42.98241" lon="-0.05036">
        <ele>758</ele>
        <time>2021-10-09T09:03:53</time>
      </trkpt>
      <trkpt lat="42.98239" lon="-0.05036">
        <ele>758.4</ele>
        <time>2021-10-09T09:03:54</time>
      </trkpt>
      <trkpt lat="42.98236" lon="-0.05035">
        <ele>758.4</ele>
        <time>2021-10-09T09:03:55</time>
      </trkpt>
      <trkpt lat="42.98234" lon="-0.05035">
        <ele>758.6</ele>
        <time>2021-10-09T09:03:56</time>
      </trkpt>
      <trkpt lat="42.98232" lon="-0.05034">
        <ele>758.8</ele>
        <time>2021-10-09T09:03:57</time>
      </trkpt>
      <trkpt lat="42.9823" lon="-0.05033">
        <ele>758.8</ele>
        <time>2021-10-09T09:03:58</time>
      </trkpt>
      <trkpt lat="42.98228" lon="-0.05033">
        <ele>759</ele>
        <time>2021-10-09T09:03:59</time>
      </trkpt>
      <trkpt lat="42.98226" lon="-0.05032">
        <ele>759.2</ele>
        <time>2021-10-09T09:04:00</time>
      </trkpt>
      <trkpt lat="42.98223" lon="-0.05032">
        <ele>759.4</ele>
        <time>2021-10-09T09:04:01</time>
      </trkpt>
      <trkpt lat="42.98221" lon="-0.05031">
        <ele>759.4</ele>
        <time>2021-10-09T09:04:02</time>
      </trkpt>
      <trkpt lat="42.98219" lon="-0.05031">
        <ele>759.6</ele>
        <time>2021-10-09T09:04:03</time>
      </trkpt>
      <trkpt lat="42.98217" lon="-0.0503">
        <ele>759.8</ele>
        <time>2021-10-09T09:04:04</time>
      </trkpt>
      <trkpt lat="42.98215" lon="-0.0503">
        <ele>760</ele>
        <time>2021-10-09T09:04:05</time>
      </trkpt>
      <trkpt lat="42.98212" lon="-0.05029">
        <ele>760</ele>
        <time>2021-10-09T09:04:06</time>
      </trkpt>
      <trkpt lat="42.9821" lon="-0.05028">
        <ele>760.2</ele>
        <time>2021-10-09T09:04:07</time>
      </trkpt>
      <trkpt lat="42.98209" lon="-0.05028">
        <ele>760.4</ele>
        <time>2021-10-09T09:04:08</time>
      </trkpt>
      <trkpt lat="42.98207" lon="-0.05027">
        <ele>760.4</ele>
        <time>2021-10-09T09:04:09</time>
      </trkpt>
      <trkpt lat="42.98204" lon="-0.05026">
        <ele>760.6</ele>
        <time>2021-10-09T09:04:10</time>
      </trkpt>
      <trkpt lat="42.98202" lon="-0.05026">
        <ele>760.6</ele>
        <time>2021-10-09T09:04:11</time>
      </trkpt>
      <trkpt lat="42.982" lon="-0.05025">
        <ele>760.8</ele>
        <time>2021-10-09T09:04:12</time>
      </trkpt>
      <trkpt lat="42.98197" lon="-0.05024">
        <ele>761</ele>
        <time>2021-10-09T09:04:13</time>
      </trkpt>
      <trkpt lat="42.98195" lon="-0.05023">
        <ele>761.2</ele>
        <time>2021-10-09T09:04:14</time>
      </trkpt>
      <trkpt lat="42.98193" lon="-0.05022">
        <ele>761.4</ele>
        <time>2021-10-09T09:04:15</time>
      </trkpt>
      <trkpt lat="42.98191" lon="-0.0502">
        <ele>761.6</ele>
        <time>2021-10-09T09:04:16</time>
      </trkpt>
      <trkpt lat="42.98189" lon="-0.05019">
        <ele>761.6</ele>
        <time>2021-10-09T09:04:17</time>
      </trkpt>
      <trkpt lat="42.98187" lon="-0.05018">
        <ele>761.8</ele>
        <time>2021-10-09T09:04:18</time>
      </trkpt>
      <trkpt lat="42.98185" lon="-0.05017">
        <ele>762</ele>
        <time>2021-10-09T09:04:19</time>
      </trkpt>
      <trkpt lat="42.98183" lon="-0.05016">
        <ele>762</ele>
        <time>2021-10-09T09:04:20</time>
      </trkpt>
      <trkpt lat="42.98181" lon="-0.05015">
        <ele>762.2</ele>
        <time>2021-10-09T09:04:21</time>
      </trkpt>
      <trkpt lat="42.98178" lon="-0.05013">
        <ele>762.4</ele>
        <time>2021-10-09T09:04:22</time>
      </trkpt>
      <trkpt lat="42.98176" lon="-0.05012">
        <ele>762.6</ele>
        <time>2021-10-09T09:04:23</time>
      </trkpt>
      <trkpt lat="42.98174" lon="-0.05011">
        <ele>762.6</ele>
        <time>2021-10-09T09:04:24</time>
      </trkpt>
      <trkpt lat="42.98172" lon="-0.0501">
        <ele>762.8</ele>
        <time>2021-10-09T09:04:25</time>
      </trkpt>
      <trkpt lat="42.9817" lon="-0.05009">
        <ele>762.8</ele>
        <time>2021-10-09T09:04:26</time>
      </trkpt>
      <trkpt lat="42.98167" lon="-0.05008">
        <ele>763</ele>
        <time>2021-10-09T09:04:27</time>
      </trkpt>
      <trkpt lat="42.98165" lon="-0.05007">
        <ele>763.2</ele>
        <time>2021-10-09T09:04:28</time>
      </trkpt>
      <trkpt lat="42.98163" lon="-0.05006">
        <ele>763.4</ele>
        <time>2021-10-09T09:04:29</time>
      </trkpt>
      <trkpt lat="42.98161" lon="-0.05005">
        <ele>763.4</ele>
        <time>2021-10-09T09:04:30</time>
      </trkpt>
      <trkpt lat="42.98159" lon="-0.05004">
        <ele>763.6</ele>
        <time>2021-10-09T09:04:31</time>
      </trkpt>
      <trkpt lat="42.98157" lon="-0.05002">
        <ele>763.6</ele>
        <time>2021-10-09T09:04:32</time>
      </trkpt>
      <trkpt lat="42.98155" lon="-0.05001">
        <ele>763.8</ele>
        <time>2021-10-09T09:04:33</time>
      </trkpt>
      <trkpt lat="42.98152" lon="-0.05001">
        <ele>764</ele>
        <time>2021-10-09T09:04:34</time>
      </trkpt>
      <trkpt lat="42.9815" lon="-0.04999">
        <ele>764.2</ele>
        <time>2021-10-09T09:04:35</time>
      </trkpt>
      <trkpt lat="42.98148" lon="-0.04998">
        <ele>764.2</ele>
        <time>2021-10-09T09:04:36</time>
      </trkpt>
      <trkpt lat="42.98146" lon="-0.04997">
        <ele>764.6</ele>
        <time>2021-10-09T09:04:37</time>
      </trkpt>
      <trkpt lat="42.98144" lon="-0.04996">
        <ele>764.6</ele>
        <time>2021-10-09T09:04:38</time>
      </trkpt>
      <trkpt lat="42.98142" lon="-0.04995">
        <ele>764.6</ele>
        <time>2021-10-09T09:04:39</time>
      </trkpt>
      <trkpt lat="42.9814" lon="-0.04994">
        <ele>764.8</ele>
        <time>2021-10-09T09:04:40</time>
      </trkpt>
      <trkpt lat="42.98137" lon="-0.04993">
        <ele>765</ele>
        <time>2021-10-09T09:04:41</time>
      </trkpt>
      <trkpt lat="42.98135" lon="-0.04992">
        <ele>765</ele>
        <time>2021-10-09T09:04:42</time>
      </trkpt>
      <trkpt lat="42.98132" lon="-0.04991">
        <ele>765</ele>
        <time>2021-10-09T09:04:43</time>
      </trkpt>
      <trkpt lat="42.9813" lon="-0.0499">
        <ele>765.2</ele>
        <time>2021-10-09T09:04:44</time>
      </trkpt>
      <trkpt lat="42.98127" lon="-0.0499">
        <ele>765.2</ele>
        <time>2021-10-09T09:04:45</time>
      </trkpt>
      <trkpt lat="42.98125" lon="-0.04989">
        <ele>765.4</ele>
        <time>2021-10-09T09:04:46</time>
      </trkpt>
      <trkpt lat="42.98122" lon="-0.04988">
        <ele>765.6</ele>
        <time>2021-10-09T09:04:47</time>
      </trkpt>
      <trkpt lat="42.98119" lon="-0.04987">
        <ele>765.8</ele>
        <time>2021-10-09T09:04:48</time>
      </trkpt>
      <trkpt lat="42.98117" lon="-0.04987">
        <ele>766</ele>
        <time>2021-10-09T09:04:49</time>
      </trkpt>
      <trkpt lat="42.98114" lon="-0.04986">
        <ele>766</ele>
        <time>2021-10-09T09:04:50</time>
      </trkpt>
      <trkpt lat="42.98111" lon="-0.04985">
        <ele>766.2</ele>
        <time>2021-10-09T09:04:51</time>
      </trkpt>
      <trkpt lat="42.98108" lon="-0.04985">
        <ele>766.4</ele>
        <time>2021-10-09T09:04:52</time>
      </trkpt>
      <trkpt lat="42.98106" lon="-0.04984">
        <ele>766.6</ele>
        <time>2021-10-09T09:04:53</time>
      </trkpt>
      <trkpt lat="42.98103" lon="-0.04984">
        <ele>766.8</ele>
        <time>2021-10-09T09:04:54</time>
      </trkpt>
      <trkpt lat="42.981" lon="-0.04983">
        <ele>767</ele>
        <time>2021-10-09T09:04:55</time>
      </trkpt>
      <trkpt lat="42.98098" lon="-0.04982">
        <ele>767.2</ele>
        <time>2021-10-09T09:04:56</time>
      </trkpt>
      <trkpt lat="42.98095" lon="-0.04981">
        <ele>767.2</ele>
        <time>2021-10-09T09:04:57</time>
      </trkpt>
      <trkpt lat="42.98092" lon="-0.04981">
        <ele>767.4</ele>
        <time>2021-10-09T09:04:58</time>
      </trkpt>
      <trkpt lat="42.9809" lon="-0.0498">
        <ele>767.6</ele>
        <time>2021-10-09T09:04:59</time>
      </trkpt>
      <trkpt lat="42.98087" lon="-0.0498">
        <ele>767.6</ele>
        <time>2021-10-09T09:05:00</time>
      </trkpt>
      <trkpt lat="42.98084" lon="-0.04979">
        <ele>767.8</ele>
        <time>2021-10-09T09:05:01</time>
      </trkpt>
      <trkpt lat="42.98082" lon="-0.04979">
        <ele>768</ele>
        <time>2021-10-09T09:05:02</time>
      </trkpt>
      <trkpt lat="42.98079" lon="-0.04978">
        <ele>768.2</ele>
        <time>2021-10-09T09:05:03</time>
      </trkpt>
      <trkpt lat="42.98077" lon="-0.04978">
        <ele>768.4</ele>
        <time>2021-10-09T09:05:04</time>
      </trkpt>
      <trkpt lat="42.98074" lon="-0.04977">
        <ele>768.6</ele>
        <time>2021-10-09T09:05:05</time>
      </trkpt>
      <trkpt lat="42.98072" lon="-0.04977">
        <ele>769</ele>
        <time>2021-10-09T09:05:06</time>
      </trkpt>
      <trkpt lat="42.98069" lon="-0.04976">
        <ele>769.2</ele>
        <time>2021-10-09T09:05:07</time>
      </trkpt>
      <trkpt lat="42.98067" lon="-0.04975">
        <ele>769.4</ele>
        <time>2021-10-09T09:05:08</time>
      </trkpt>
      <trkpt lat="42.98064" lon="-0.04975">
        <ele>769.4</ele>
        <time>2021-10-09T09:05:09</time>
      </trkpt>
      <trkpt lat="42.98062" lon="-0.04974">
        <ele>769.8</ele>
        <time>2021-10-09T09:05:10</time>
      </trkpt>
      <trkpt lat="42.9806" lon="-0.04974">
        <ele>770</ele>
        <time>2021-10-09T09:05:11</time>
      </trkpt>
      <trkpt lat="42.98057" lon="-0.04973">
        <ele>770.2</ele>
        <time>2021-10-09T09:05:12</time>
      </trkpt>
      <trkpt lat="42.98055" lon="-0.04973">
        <ele>770.4</ele>
        <time>2021-10-09T09:05:13</time>
      </trkpt>
      <trkpt lat="42.98052" lon="-0.04972">
        <ele>770.6</ele>
        <time>2021-10-09T09:05:14</time>
      </trkpt>
      <trkpt lat="42.9805" lon="-0.04971">
        <ele>770.8</ele>
        <time>2021-10-09T09:05:15</time>
      </trkpt>
      <trkpt lat="42.98047" lon="-0.04971">
        <ele>771</ele>
        <time>2021-10-09T09:05:16</time>
      </trkpt>
      <trkpt lat="42.98044" lon="-0.0497">
        <ele>771.2</ele>
        <time>2021-10-09T09:05:17</time>
      </trkpt>
      <trkpt lat="42.98042" lon="-0.04969">
        <ele>771.2</ele>
        <time>2021-10-09T09:05:18</time>
      </trkpt>
      <trkpt lat="42.9804" lon="-0.04969">
        <ele>771.4</ele>
        <time>2021-10-09T09:05:19</time>
      </trkpt>
      <trkpt lat="42.98037" lon="-0.04968">
        <ele>771.6</ele>
        <time>2021-10-09T09:05:20</time>
      </trkpt>
      <trkpt lat="42.98035" lon="-0.04967">
        <ele>771.8</ele>
        <time>2021-10-09T09:05:21</time>
      </trkpt>
      <trkpt lat="42.98032" lon="-0.04967">
        <ele>772</ele>
        <time>2021-10-09T09:05:22</time>
      </trkpt>
      <trkpt lat="42.9803" lon="-0.04967">
        <ele>772.2</ele>
        <time>2021-10-09T09:05:23</time>
      </trkpt>
      <trkpt lat="42.98027" lon="-0.04966">
        <ele>772.4</ele>
        <time>2021-10-09T09:05:24</time>
      </trkpt>
      <trkpt lat="42.98025" lon="-0.04966">
        <ele>772.4</ele>
        <time>2021-10-09T09:05:25</time>
      </trkpt>
      <trkpt lat="42.98022" lon="-0.04966">
        <ele>772.6</ele>
        <time>2021-10-09T09:05:26</time>
      </trkpt>
      <trkpt lat="42.98019" lon="-0.04966">
        <ele>772.8</ele>
        <time>2021-10-09T09:05:27</time>
      </trkpt>
      <trkpt lat="42.98016" lon="-0.04966">
        <ele>773</ele>
        <time>2021-10-09T09:05:28</time>
      </trkpt>
      <trkpt lat="42.98014" lon="-0.04966">
        <ele>773</ele>
        <time>2021-10-09T09:05:29</time>
      </trkpt>
      <trkpt lat="42.98011" lon="-0.04966">
        <ele>773.2</ele>
        <time>2021-10-09T09:05:30</time>
      </trkpt>
      <trkpt lat="42.98008" lon="-0.04967">
        <ele>773.4</ele>
        <time>2021-10-09T09:05:31</time>
      </trkpt>
      <trkpt lat="42.98006" lon="-0.04967">
        <ele>773.6</ele>
        <time>2021-10-09T09:05:32</time>
      </trkpt>
      <trkpt lat="42.98003" lon="-0.04968">
        <ele>773.8</ele>
        <time>2021-10-09T09:05:33</time>
      </trkpt>
      <trkpt lat="42.98" lon="-0.04969">
        <ele>773.8</ele>
        <time>2021-10-09T09:05:34</time>
      </trkpt>
      <trkpt lat="42.97998" lon="-0.0497">
        <ele>774.2</ele>
        <time>2021-10-09T09:05:35</time>
      </trkpt>
      <trkpt lat="42.97995" lon="-0.04971">
        <ele>774.2</ele>
        <time>2021-10-09T09:05:36</time>
      </trkpt>
      <trkpt lat="42.97993" lon="-0.04971">
        <ele>774.4</ele>
        <time>2021-10-09T09:05:37</time>
      </trkpt>
      <trkpt lat="42.9799" lon="-0.04972">
        <ele>774.6</ele>
        <time>2021-10-09T09:05:38</time>
      </trkpt>
      <trkpt lat="42.97987" lon="-0.04973">
        <ele>774.8</ele>
        <time>2021-10-09T09:05:39</time>
      </trkpt>
      <trkpt lat="42.97985" lon="-0.04973">
        <ele>774.8</ele>
        <time>2021-10-09T09:05:40</time>
      </trkpt>
      <trkpt lat="42.97982" lon="-0.04974">
        <ele>775</ele>
        <time>2021-10-09T09:05:41</time>
      </trkpt>
      <trkpt lat="42.97979" lon="-0.04974">
        <ele>775.2</ele>
        <time>2021-10-09T09:05:42</time>
      </trkpt>
      <trkpt lat="42.97977" lon="-0.04975">
        <ele>775.2</ele>
        <time>2021-10-09T09:05:43</time>
      </trkpt>
      <trkpt lat="42.97974" lon="-0.04975">
        <ele>775.4</ele>
        <time>2021-10-09T09:05:44</time>
      </trkpt>
      <trkpt lat="42.97971" lon="-0.04975">
        <ele>775.4</ele>
        <time>2021-10-09T09:05:45</time>
      </trkpt>
      <trkpt lat="42.97968" lon="-0.04974">
        <ele>775.6</ele>
        <time>2021-10-09T09:05:46</time>
      </trkpt>
      <trkpt lat="42.97965" lon="-0.04974">
        <ele>775.6</ele>
        <time>2021-10-09T09:05:47</time>
      </trkpt>
      <trkpt lat="42.97962" lon="-0.04973">
        <ele>775.8</ele>
        <time>2021-10-09T09:05:48</time>
      </trkpt>
      <trkpt lat="42.9796" lon="-0.04972">
        <ele>776</ele>
        <time>2021-10-09T09:05:49</time>
      </trkpt>
      <trkpt lat="42.97957" lon="-0.04971">
        <ele>776</ele>
        <time>2021-10-09T09:05:50</time>
      </trkpt>
      <trkpt lat="42.97954" lon="-0.0497">
        <ele>776.2</ele>
        <time>2021-10-09T09:05:51</time>
      </trkpt>
      <trkpt lat="42.97952" lon="-0.04968">
        <ele>776.4</ele>
        <time>2021-10-09T09:05:52</time>
      </trkpt>
      <trkpt lat="42.97949" lon="-0.04966">
        <ele>776.6</ele>
        <time>2021-10-09T09:05:53</time>
      </trkpt>
      <trkpt lat="42.97947" lon="-0.04965">
        <ele>776.8</ele>
        <time>2021-10-09T09:05:54</time>
      </trkpt>
      <trkpt lat="42.97945" lon="-0.04963">
        <ele>776.8</ele>
        <time>2021-10-09T09:05:55</time>
      </trkpt>
      <trkpt lat="42.97942" lon="-0.04961">
        <ele>777</ele>
        <time>2021-10-09T09:05:56</time>
      </trkpt>
      <trkpt lat="42.9794" lon="-0.04958">
        <ele>777.2</ele>
        <time>2021-10-09T09:05:57</time>
      </trkpt>
      <trkpt lat="42.97938" lon="-0.04955">
        <ele>777.4</ele>
        <time>2021-10-09T09:05:58</time>
      </trkpt>
      <trkpt lat="42.97936" lon="-0.04953">
        <ele>777.6</ele>
        <time>2021-10-09T09:05:59</time>
      </trkpt>
      <trkpt lat="42.97934" lon="-0.0495">
        <ele>777.6</ele>
        <time>2021-10-09T09:06:00</time>
      </trkpt>
      <trkpt lat="42.97932" lon="-0.04947">
        <ele>777.8</ele>
        <time>2021-10-09T09:06:01</time>
      </trkpt>
      <trkpt lat="42.9793" lon="-0.04944">
        <ele>777.8</ele>
        <time>2021-10-09T09:06:02</time>
      </trkpt>
      <trkpt lat="42.97928" lon="-0.04941">
        <ele>778.2</ele>
        <time>2021-10-09T09:06:03</time>
      </trkpt>
      <trkpt lat="42.97927" lon="-0.04937">
        <ele>778.4</ele>
        <time>2021-10-09T09:06:04</time>
      </trkpt>
      <trkpt lat="42.97925" lon="-0.04934">
        <ele>778.6</ele>
        <time>2021-10-09T09:06:05</time>
      </trkpt>
      <trkpt lat="42.97924" lon="-0.0493">
        <ele>778.6</ele>
        <time>2021-10-09T09:06:06</time>
      </trkpt>
      <trkpt lat="42.97923" lon="-0.04927">
        <ele>778.8</ele>
        <time>2021-10-09T09:06:07</time>
      </trkpt>
      <trkpt lat="42.97922" lon="-0.04923">
        <ele>779.2</ele>
        <time>2021-10-09T09:06:08</time>
      </trkpt>
      <trkpt lat="42.97921" lon="-0.0492">
        <ele>779.2</ele>
        <time>2021-10-09T09:06:09</time>
      </trkpt>
      <trkpt lat="42.9792" lon="-0.04916">
        <ele>779.4</ele>
        <time>2021-10-09T09:06:10</time>
      </trkpt>
      <trkpt lat="42.97919" lon="-0.04913">
        <ele>779.6</ele>
        <time>2021-10-09T09:06:11</time>
      </trkpt>
      <trkpt lat="42.97918" lon="-0.04909">
        <ele>779.8</ele>
        <time>2021-10-09T09:06:12</time>
      </trkpt>
      <trkpt lat="42.97917" lon="-0.04905">
        <ele>780</ele>
        <time>2021-10-09T09:06:13</time>
      </trkpt>
      <trkpt lat="42.97917" lon="-0.04901">
        <ele>780.2</ele>
        <time>2021-10-09T09:06:14</time>
      </trkpt>
      <trkpt lat="42.97916" lon="-0.04898">
        <ele>780.2</ele>
        <time>2021-10-09T09:06:15</time>
      </trkpt>
      <trkpt lat="42.97915" lon="-0.04894">
        <ele>780.4</ele>
        <time>2021-10-09T09:06:16</time>
      </trkpt>
      <trkpt lat="42.97914" lon="-0.0489">
        <ele>780.4</ele>
        <time>2021-10-09T09:06:17</time>
      </trkpt>
      <trkpt lat="42.97913" lon="-0.04886">
        <ele>780.6</ele>
        <time>2021-10-09T09:06:18</time>
      </trkpt>
      <trkpt lat="42.97912" lon="-0.04882">
        <ele>780.6</ele>
        <time>2021-10-09T09:06:19</time>
      </trkpt>
      <trkpt lat="42.97911" lon="-0.04878">
        <ele>780.8</ele>
        <time>2021-10-09T09:06:20</time>
      </trkpt>
      <trkpt lat="42.9791" lon="-0.04874">
        <ele>781</ele>
        <time>2021-10-09T09:06:21</time>
      </trkpt>
      <trkpt lat="42.97908" lon="-0.04871">
        <ele>781.2</ele>
        <time>2021-10-09T09:06:22</time>
      </trkpt>
      <trkpt lat="42.97906" lon="-0.04868">
        <ele>781.2</ele>
        <time>2021-10-09T09:06:23</time>
      </trkpt>
      <trkpt lat="42.97904" lon="-0.04864">
        <ele>781.4</ele>
        <time>2021-10-09T09:06:24</time>
      </trkpt>
      <trkpt lat="42.97902" lon="-0.04861">
        <ele>781.8</ele>
        <time>2021-10-09T09:06:25</time>
      </trkpt>
      <trkpt lat="42.979" lon="-0.04859">
        <ele>782</ele>
        <time>2021-10-09T09:06:26</time>
      </trkpt>
      <trkpt lat="42.97898" lon="-0.04856">
        <ele>782.2</ele>
        <time>2021-10-09T09:06:27</time>
      </trkpt>
      <trkpt lat="42.97896" lon="-0.04853">
        <ele>782.4</ele>
        <time>2021-10-09T09:06:28</time>
      </trkpt>
      <trkpt lat="42.97894" lon="-0.04851">
        <ele>782.6</ele>
        <time>2021-10-09T09:06:29</time>
      </trkpt>
      <trkpt lat="42.97892" lon="-0.04848">
        <ele>782.8</ele>
        <time>2021-10-09T09:06:30</time>
      </trkpt>
      <trkpt lat="42.9789" lon="-0.04846">
        <ele>783</ele>
        <time>2021-10-09T09:06:31</time>
      </trkpt>
      <trkpt lat="42.97888" lon="-0.04843">
        <ele>783.2</ele>
        <time>2021-10-09T09:06:32</time>
      </trkpt>
      <trkpt lat="42.97886" lon="-0.04841">
        <ele>783.4</ele>
        <time>2021-10-09T09:06:33</time>
      </trkpt>
      <trkpt lat="42.97884" lon="-0.04839">
        <ele>783.6</ele>
        <time>2021-10-09T09:06:34</time>
      </trkpt>
      <trkpt lat="42.97882" lon="-0.04837">
        <ele>783.6</ele>
        <time>2021-10-09T09:06:35</time>
      </trkpt>
      <trkpt lat="42.9788" lon="-0.04834">
        <ele>783.8</ele>
        <time>2021-10-09T09:06:36</time>
      </trkpt>
      <trkpt lat="42.97878" lon="-0.04832">
        <ele>784</ele>
        <time>2021-10-09T09:06:37</time>
      </trkpt>
      <trkpt lat="42.97876" lon="-0.0483">
        <ele>784</ele>
        <time>2021-10-09T09:06:38</time>
      </trkpt>
      <trkpt lat="42.97874" lon="-0.04828">
        <ele>784.2</ele>
        <time>2021-10-09T09:06:39</time>
      </trkpt>
      <trkpt lat="42.97872" lon="-0.04827">
        <ele>784.4</ele>
        <time>2021-10-09T09:06:40</time>
      </trkpt>
      <trkpt lat="42.97869" lon="-0.04825">
        <ele>784.6</ele>
        <time>2021-10-09T09:06:41</time>
      </trkpt>
      <trkpt lat="42.97867" lon="-0.04824">
        <ele>784.8</ele>
        <time>2021-10-09T09:06:42</time>
      </trkpt>
      <trkpt lat="42.97865" lon="-0.04822">
        <ele>784.8</ele>
        <time>2021-10-09T09:06:43</time>
      </trkpt>
      <trkpt lat="42.97863" lon="-0.04821">
        <ele>785</ele>
        <time>2021-10-09T09:06:44</time>
      </trkpt>
      <trkpt lat="42.9786" lon="-0.04819">
        <ele>785.2</ele>
        <time>2021-10-09T09:06:45</time>
      </trkpt>
      <trkpt lat="42.97858" lon="-0.04818">
        <ele>785.2</ele>
        <time>2021-10-09T09:06:46</time>
      </trkpt>
      <trkpt lat="42.97855" lon="-0.04817">
        <ele>785.4</ele>
        <time>2021-10-09T09:06:47</time>
      </trkpt>
      <trkpt lat="42.97853" lon="-0.04816">
        <ele>785.6</ele>
        <time>2021-10-09T09:06:48</time>
      </trkpt>
      <trkpt lat="42.97851" lon="-0.04815">
        <ele>785.8</ele>
        <time>2021-10-09T09:06:49</time>
      </trkpt>
      <trkpt lat="42.97848" lon="-0.04814">
        <ele>785.8</ele>
        <time>2021-10-09T09:06:50</time>
      </trkpt>
      <trkpt lat="42.97846" lon="-0.04812">
        <ele>786</ele>
        <time>2021-10-09T09:06:51</time>
      </trkpt>
      <trkpt lat="42.97844" lon="-0.04811">
        <ele>786.2</ele>
        <time>2021-10-09T09:06:52</time>
      </trkpt>
      <trkpt lat="42.97842" lon="-0.0481">
        <ele>786.2</ele>
        <time>2021-10-09T09:06:53</time>
      </trkpt>
      <trkpt lat="42.97841" lon="-0.04809">
        <ele>786.2</ele>
        <time>2021-10-09T09:06:54</time>
      </trkpt>
      <trkpt lat="42.9784" lon="-0.04808">
        <ele>786.2</ele>
        <time>2021-10-09T09:06:55</time>
      </trkpt>
      <trkpt lat="42.97839" lon="-0.04808">
        <ele>786.2</ele>
        <time>2021-10-09T09:06:56</time>
      </trkpt>
      <trkpt lat="42.97839" lon="-0.04808">
        <ele>786.2</ele>
        <time>2021-10-09T09:06:57</time>
      </trkpt>
      <trkpt lat="42.97839" lon="-0.04808">
        <ele>786.4</ele>
        <time>2021-10-09T09:06:58</time>
      </trkpt>
      <trkpt lat="42.97839" lon="-0.04808">
        <ele>786.2</ele>
        <time>2021-10-09T09:06:59</time>
      </trkpt>
      <trkpt lat="42.97839" lon="-0.04809">
        <ele>786.2</ele>
        <time>2021-10-09T09:07:00</time>
      </trkpt>
      <trkpt lat="42.97839" lon="-0.04809">
        <ele>786.2</ele>
        <time>2021-10-09T09:07:01</time>
      </trkpt>
      <trkpt lat="42.97839" lon="-0.04808">
        <ele>786.2</ele>
        <time>2021-10-09T09:07:02</time>
      </trkpt>
      <trkpt lat="42.97839" lon="-0.04808">
        <ele>786.2</ele>
        <time>2021-10-09T09:07:03</time>
      </trkpt>
      <trkpt lat="42.97818" lon="-0.0479">
        <ele>784.8</ele>
        <time>2021-10-09T09:14:06</time>
      </trkpt>
      <trkpt lat="42.97815" lon="-0.04787">
        <ele>784.8</ele>
        <time>2021-10-09T09:14:07</time>
      </trkpt>
      <trkpt lat="42.97814" lon="-0.04786">
        <ele>785</ele>
        <time>2021-10-09T09:14:08</time>
      </trkpt>
      <trkpt lat="42.97812" lon="-0.04784">
        <ele>785</ele>
        <time>2021-10-09T09:14:09</time>
      </trkpt>
      <trkpt lat="42.97812" lon="-0.04784">
        <ele>785.2</ele>
        <time>2021-10-09T09:14:10</time>
      </trkpt>
      <trkpt lat="42.9781" lon="-0.04783">
        <ele>785.4</ele>
        <time>2021-10-09T09:14:11</time>
      </trkpt>
      <trkpt lat="42.97809" lon="-0.04782">
        <ele>785.4</ele>
        <time>2021-10-09T09:14:12</time>
      </trkpt>
      <trkpt lat="42.97805" lon="-0.04779">
        <ele>785.4</ele>
        <time>2021-10-09T09:14:13</time>
      </trkpt>
      <trkpt lat="42.97805" lon="-0.04779">
        <ele>785.6</ele>
        <time>2021-10-09T09:14:14</time>
      </trkpt>
      <trkpt lat="42.97802" lon="-0.04776">
        <ele>785.8</ele>
        <time>2021-10-09T09:14:15</time>
      </trkpt>
      <trkpt lat="42.97801" lon="-0.04775">
        <ele>786</ele>
        <time>2021-10-09T09:14:16</time>
      </trkpt>
      <trkpt lat="42.97801" lon="-0.04775">
        <ele>786</ele>
        <time>2021-10-09T09:14:17</time>
      </trkpt>
      <trkpt lat="42.97799" lon="-0.04774">
        <ele>786.2</ele>
        <time>2021-10-09T09:14:18</time>
      </trkpt>
      <trkpt lat="42.97798" lon="-0.04773">
        <ele>786.4</ele>
        <time>2021-10-09T09:14:19</time>
      </trkpt>
      <trkpt lat="42.97794" lon="-0.0477">
        <ele>786.4</ele>
        <time>2021-10-09T09:14:20</time>
      </trkpt>
      <trkpt lat="42.97793" lon="-0.04769">
        <ele>786.6</ele>
        <time>2021-10-09T09:14:21</time>
      </trkpt>
      <trkpt lat="42.97793" lon="-0.04769">
        <ele>786.6</ele>
        <time>2021-10-09T09:14:22</time>
      </trkpt>
      <trkpt lat="42.97791" lon="-0.04768">
        <ele>786.8</ele>
        <time>2021-10-09T09:14:23</time>
      </trkpt>
      <trkpt lat="42.9779" lon="-0.04767">
        <ele>786.8</ele>
        <time>2021-10-09T09:14:24</time>
      </trkpt>
      <trkpt lat="42.97788" lon="-0.04766">
        <ele>787</ele>
        <time>2021-10-09T09:14:25</time>
      </trkpt>
      <trkpt lat="42.97786" lon="-0.04765">
        <ele>787</ele>
        <time>2021-10-09T09:14:26</time>
      </trkpt>
      <trkpt lat="42.97784" lon="-0.04764">
        <ele>787.2</ele>
        <time>2021-10-09T09:14:27</time>
      </trkpt>
      <trkpt lat="42.97781" lon="-0.04762">
        <ele>787.4</ele>
        <time>2021-10-09T09:14:28</time>
      </trkpt>
      <trkpt lat="42.97781" lon="-0.04762">
        <ele>787.4</ele>
        <time>2021-10-09T09:14:29</time>
      </trkpt>
      <trkpt lat="42.97777" lon="-0.0476">
        <ele>787.6</ele>
        <time>2021-10-09T09:14:30</time>
      </trkpt>
      <trkpt lat="42.97777" lon="-0.0476">
        <ele>787.8</ele>
        <time>2021-10-09T09:14:31</time>
      </trkpt>
      <trkpt lat="42.97775" lon="-0.04759">
        <ele>788</ele>
        <time>2021-10-09T09:14:32</time>
      </trkpt>
      <trkpt lat="42.97774" lon="-0.04758">
        <ele>788.2</ele>
        <time>2021-10-09T09:14:33</time>
      </trkpt>
      <trkpt lat="42.9777" lon="-0.04755">
        <ele>788.4</ele>
        <time>2021-10-09T09:14:34</time>
      </trkpt>
      <trkpt lat="42.97769" lon="-0.04754">
        <ele>788.4</ele>
        <time>2021-10-09T09:14:35</time>
      </trkpt>
      <trkpt lat="42.97767" lon="-0.04753">
        <ele>788.6</ele>
        <time>2021-10-09T09:14:36</time>
      </trkpt>
      <trkpt lat="42.97767" lon="-0.04753">
        <ele>788.6</ele>
        <time>2021-10-09T09:14:37</time>
      </trkpt>
      <trkpt lat="42.97766" lon="-0.04751">
        <ele>788.8</ele>
        <time>2021-10-09T09:14:38</time>
      </trkpt>
      <trkpt lat="42.97764" lon="-0.0475">
        <ele>789</ele>
        <time>2021-10-09T09:14:39</time>
      </trkpt>
      <trkpt lat="42.9776" lon="-0.04747">
        <ele>789</ele>
        <time>2021-10-09T09:14:40</time>
      </trkpt>
      <trkpt lat="42.97758" lon="-0.04745">
        <ele>789.2</ele>
        <time>2021-10-09T09:14:41</time>
      </trkpt>
      <trkpt lat="42.97757" lon="-0.04743">
        <ele>789.4</ele>
        <time>2021-10-09T09:14:42</time>
      </trkpt>
      <trkpt lat="42.97757" lon="-0.04743">
        <ele>789.4</ele>
        <time>2021-10-09T09:14:43</time>
      </trkpt>
      <trkpt lat="42.97754" lon="-0.04738">
        <ele>789.6</ele>
        <time>2021-10-09T09:14:44</time>
      </trkpt>
      <trkpt lat="42.97752" lon="-0.04735">
        <ele>789.8</ele>
        <time>2021-10-09T09:14:45</time>
      </trkpt>
      <trkpt lat="42.97751" lon="-0.04733">
        <ele>790</ele>
        <time>2021-10-09T09:14:46</time>
      </trkpt>
      <trkpt lat="42.9775" lon="-0.04731">
        <ele>790</ele>
        <time>2021-10-09T09:14:47</time>
      </trkpt>
      <trkpt lat="42.9775" lon="-0.04731">
        <ele>790</ele>
        <time>2021-10-09T09:14:48</time>
      </trkpt>
      <trkpt lat="42.9775" lon="-0.04728">
        <ele>790.2</ele>
        <time>2021-10-09T09:14:49</time>
      </trkpt>
      <trkpt lat="42.97749" lon="-0.04721">
        <ele>790.4</ele>
        <time>2021-10-09T09:14:50</time>
      </trkpt>
      <trkpt lat="42.97749" lon="-0.04719">
        <ele>790.6</ele>
        <time>2021-10-09T09:14:51</time>
      </trkpt>
      <trkpt lat="42.97748" lon="-0.04715">
        <ele>790.8</ele>
        <time>2021-10-09T09:14:52</time>
      </trkpt>
      <trkpt lat="42.97748" lon="-0.04713">
        <ele>790.8</ele>
        <time>2021-10-09T09:14:53</time>
      </trkpt>
      <trkpt lat="42.97748" lon="-0.04713">
        <ele>791</ele>
        <time>2021-10-09T09:14:54</time>
      </trkpt>
      <trkpt lat="42.97747" lon="-0.04708">
        <ele>791.2</ele>
        <time>2021-10-09T09:14:55</time>
      </trkpt>
      <trkpt lat="42.97746" lon="-0.04705">
        <ele>791.4</ele>
        <time>2021-10-09T09:14:56</time>
      </trkpt>
      <trkpt lat="42.97746" lon="-0.04702">
        <ele>791.6</ele>
        <time>2021-10-09T09:14:57</time>
      </trkpt>
      <trkpt lat="42.97746" lon="-0.04702">
        <ele>791.6</ele>
        <time>2021-10-09T09:14:58</time>
      </trkpt>
      <trkpt lat="42.97746" lon="-0.04697">
        <ele>791.8</ele>
        <time>2021-10-09T09:14:59</time>
      </trkpt>
      <trkpt lat="42.97745" lon="-0.04694">
        <ele>792</ele>
        <time>2021-10-09T09:15:00</time>
      </trkpt>
      <trkpt lat="42.97744" lon="-0.0469">
        <ele>792.2</ele>
        <time>2021-10-09T09:15:01</time>
      </trkpt>
      <trkpt lat="42.97744" lon="-0.04687">
        <ele>792.2</ele>
        <time>2021-10-09T09:15:02</time>
      </trkpt>
      <trkpt lat="42.97743" lon="-0.04685">
        <ele>792.4</ele>
        <time>2021-10-09T09:15:03</time>
      </trkpt>
      <trkpt lat="42.97743" lon="-0.04681">
        <ele>792.8</ele>
        <time>2021-10-09T09:15:04</time>
      </trkpt>
      <trkpt lat="42.97742" lon="-0.04678">
        <ele>792.8</ele>
        <time>2021-10-09T09:15:05</time>
      </trkpt>
      <trkpt lat="42.97742" lon="-0.04675">
        <ele>793</ele>
        <time>2021-10-09T09:15:06</time>
      </trkpt>
      <trkpt lat="42.97741" lon="-0.04672">
        <ele>793.2</ele>
        <time>2021-10-09T09:15:07</time>
      </trkpt>
      <trkpt lat="42.97741" lon="-0.04672">
        <ele>793.4</ele>
        <time>2021-10-09T09:15:08</time>
      </trkpt>
      <trkpt lat="42.97739" lon="-0.04666">
        <ele>793.6</ele>
        <time>2021-10-09T09:15:09</time>
      </trkpt>
      <trkpt lat="42.97739" lon="-0.04663">
        <ele>793.8</ele>
        <time>2021-10-09T09:15:10</time>
      </trkpt>
      <trkpt lat="42.97738" lon="-0.0466">
        <ele>794</ele>
        <time>2021-10-09T09:15:11</time>
      </trkpt>
      <trkpt lat="42.97738" lon="-0.04657">
        <ele>794</ele>
        <time>2021-10-09T09:15:12</time>
      </trkpt>
      <trkpt lat="42.97737" lon="-0.04654">
        <ele>794.2</ele>
        <time>2021-10-09T09:15:13</time>
      </trkpt>
      <trkpt lat="42.97737" lon="-0.04651">
        <ele>794.4</ele>
        <time>2021-10-09T09:15:14</time>
      </trkpt>
      <trkpt lat="42.97737" lon="-0.04651">
        <ele>794.4</ele>
        <time>2021-10-09T09:15:15</time>
      </trkpt>
      <trkpt lat="42.97737" lon="-0.04645">
        <ele>794.6</ele>
        <time>2021-10-09T09:15:16</time>
      </trkpt>
      <trkpt lat="42.97736" lon="-0.04642">
        <ele>794.8</ele>
        <time>2021-10-09T09:15:17</time>
      </trkpt>
      <trkpt lat="42.97736" lon="-0.04638">
        <ele>795</ele>
        <time>2021-10-09T09:15:18</time>
      </trkpt>
      <trkpt lat="42.97736" lon="-0.04635">
        <ele>795.2</ele>
        <time>2021-10-09T09:15:19</time>
      </trkpt>
      <trkpt lat="42.97736" lon="-0.04635">
        <ele>795.2</ele>
        <time>2021-10-09T09:15:20</time>
      </trkpt>
      <trkpt lat="42.97734" lon="-0.04629">
        <ele>795.4</ele>
        <time>2021-10-09T09:15:21</time>
      </trkpt>
      <trkpt lat="42.97733" lon="-0.04626">
        <ele>795.6</ele>
        <time>2021-10-09T09:15:22</time>
      </trkpt>
      <trkpt lat="42.97732" lon="-0.04622">
        <ele>795.8</ele>
        <time>2021-10-09T09:15:23</time>
      </trkpt>
      <trkpt lat="42.97731" lon="-0.04619">
        <ele>796</ele>
        <time>2021-10-09T09:15:24</time>
      </trkpt>
      <trkpt lat="42.97731" lon="-0.04619">
        <ele>796</ele>
        <time>2021-10-09T09:15:25</time>
      </trkpt>
      <trkpt lat="42.97728" lon="-0.04613">
        <ele>796.2</ele>
        <time>2021-10-09T09:15:26</time>
      </trkpt>
      <trkpt lat="42.97728" lon="-0.04613">
        <ele>796.2</ele>
        <time>2021-10-09T09:15:27</time>
      </trkpt>
      <trkpt lat="42.97724" lon="-0.04608">
        <ele>796.4</ele>
        <time>2021-10-09T09:15:28</time>
      </trkpt>
      <trkpt lat="42.97723" lon="-0.04605">
        <ele>796.4</ele>
        <time>2021-10-09T09:15:29</time>
      </trkpt>
      <trkpt lat="42.97721" lon="-0.04603">
        <ele>796.6</ele>
        <time>2021-10-09T09:15:30</time>
      </trkpt>
      <trkpt lat="42.97719" lon="-0.046">
        <ele>796.8</ele>
        <time>2021-10-09T09:15:31</time>
      </trkpt>
      <trkpt lat="42.97719" lon="-0.046">
        <ele>796.8</ele>
        <time>2021-10-09T09:15:32</time>
      </trkpt>
      <trkpt lat="42.97717" lon="-0.04595">
        <ele>796.8</ele>
        <time>2021-10-09T09:15:33</time>
      </trkpt>
      <trkpt lat="42.97715" lon="-0.04592">
        <ele>797</ele>
        <time>2021-10-09T09:15:34</time>
      </trkpt>
      <trkpt lat="42.97715" lon="-0.04592">
        <ele>797</ele>
        <time>2021-10-09T09:15:35</time>
      </trkpt>
      <trkpt lat="42.97713" lon="-0.04585">
        <ele>797.2</ele>
        <time>2021-10-09T09:15:36</time>
      </trkpt>
      <trkpt lat="42.97712" lon="-0.04582">
        <ele>797.2</ele>
        <time>2021-10-09T09:15:37</time>
      </trkpt>
      <trkpt lat="42.97711" lon="-0.04578">
        <ele>797.2</ele>
        <time>2021-10-09T09:15:38</time>
      </trkpt>
      <trkpt lat="42.9771" lon="-0.04573">
        <ele>797.2</ele>
        <time>2021-10-09T09:15:39</time>
      </trkpt>
      <trkpt lat="42.97709" lon="-0.04569">
        <ele>797.2</ele>
        <time>2021-10-09T09:15:40</time>
      </trkpt>
      <trkpt lat="42.97709" lon="-0.04566">
        <ele>797.2</ele>
        <time>2021-10-09T09:15:41</time>
      </trkpt>
      <trkpt lat="42.97707" lon="-0.04562">
        <ele>797.4</ele>
        <time>2021-10-09T09:15:42</time>
      </trkpt>
      <trkpt lat="42.97707" lon="-0.04562">
        <ele>797.4</ele>
        <time>2021-10-09T09:15:43</time>
      </trkpt>
      <trkpt lat="42.97705" lon="-0.04553">
        <ele>797.6</ele>
        <time>2021-10-09T09:15:44</time>
      </trkpt>
      <trkpt lat="42.97703" lon="-0.0455">
        <ele>797.4</ele>
        <time>2021-10-09T09:15:45</time>
      </trkpt>
      <trkpt lat="42.97701" lon="-0.04547">
        <ele>797.4</ele>
        <time>2021-10-09T09:15:46</time>
      </trkpt>
      <trkpt lat="42.97699" lon="-0.04544">
        <ele>797.4</ele>
        <time>2021-10-09T09:15:47</time>
      </trkpt>
      <trkpt lat="42.97695" lon="-0.04542">
        <ele>797.6</ele>
        <time>2021-10-09T09:15:48</time>
      </trkpt>
      <trkpt lat="42.97692" lon="-0.04541">
        <ele>797.8</ele>
        <time>2021-10-09T09:15:49</time>
      </trkpt>
      <trkpt lat="42.97689" lon="-0.04541">
        <ele>797.8</ele>
        <time>2021-10-09T09:15:50</time>
      </trkpt>
      <trkpt lat="42.97685" lon="-0.04542">
        <ele>798</ele>
        <time>2021-10-09T09:15:51</time>
      </trkpt>
      <trkpt lat="42.97682" lon="-0.04542">
        <ele>798.2</ele>
        <time>2021-10-09T09:15:52</time>
      </trkpt>
      <trkpt lat="42.9768" lon="-0.04544">
        <ele>798.2</ele>
        <time>2021-10-09T09:15:53</time>
      </trkpt>
      <trkpt lat="42.97678" lon="-0.04546">
        <ele>798.2</ele>
        <time>2021-10-09T09:15:54</time>
      </trkpt>
      <trkpt lat="42.97675" lon="-0.04548">
        <ele>798.2</ele>
        <time>2021-10-09T09:15:55</time>
      </trkpt>
      <trkpt lat="42.97673" lon="-0.04551">
        <ele>798</ele>
        <time>2021-10-09T09:15:56</time>
      </trkpt>
      <trkpt lat="42.9767" lon="-0.04554">
        <ele>798</ele>
        <time>2021-10-09T09:15:57</time>
      </trkpt>
      <trkpt lat="42.97667" lon="-0.04557">
        <ele>798</ele>
        <time>2021-10-09T09:15:58</time>
      </trkpt>
      <trkpt lat="42.97665" lon="-0.04561">
        <ele>798</ele>
        <time>2021-10-09T09:15:59</time>
      </trkpt>
      <trkpt lat="42.97662" lon="-0.04566">
        <ele>798</ele>
        <time>2021-10-09T09:16:00</time>
      </trkpt>
      <trkpt lat="42.9766" lon="-0.0457">
        <ele>798</ele>
        <time>2021-10-09T09:16:01</time>
      </trkpt>
      <trkpt lat="42.97658" lon="-0.04573">
        <ele>798</ele>
        <time>2021-10-09T09:16:02</time>
      </trkpt>
      <trkpt lat="42.97656" lon="-0.04577">
        <ele>798.2</ele>
        <time>2021-10-09T09:16:03</time>
      </trkpt>
      <trkpt lat="42.97654" lon="-0.04581">
        <ele>798.4</ele>
        <time>2021-10-09T09:16:04</time>
      </trkpt>
      <trkpt lat="42.97653" lon="-0.04585">
        <ele>798.6</ele>
        <time>2021-10-09T09:16:05</time>
      </trkpt>
      <trkpt lat="42.97651" lon="-0.04588">
        <ele>798.8</ele>
        <time>2021-10-09T09:16:06</time>
      </trkpt>
      <trkpt lat="42.97649" lon="-0.04591">
        <ele>799</ele>
        <time>2021-10-09T09:16:07</time>
      </trkpt>
      <trkpt lat="42.97647" lon="-0.04594">
        <ele>799.4</ele>
        <time>2021-10-09T09:16:08</time>
      </trkpt>
      <trkpt lat="42.97645" lon="-0.04596">
        <ele>799.6</ele>
        <time>2021-10-09T09:16:09</time>
      </trkpt>
      <trkpt lat="42.97643" lon="-0.04599">
        <ele>800</ele>
        <time>2021-10-09T09:16:10</time>
      </trkpt>
      <trkpt lat="42.97641" lon="-0.04601">
        <ele>800.2</ele>
        <time>2021-10-09T09:16:11</time>
      </trkpt>
      <trkpt lat="42.97639" lon="-0.04603">
        <ele>800.4</ele>
        <time>2021-10-09T09:16:12</time>
      </trkpt>
      <trkpt lat="42.97637" lon="-0.04604">
        <ele>800.6</ele>
        <time>2021-10-09T09:16:13</time>
      </trkpt>
      <trkpt lat="42.97636" lon="-0.04606">
        <ele>800.8</ele>
        <time>2021-10-09T09:16:14</time>
      </trkpt>
      <trkpt lat="42.97634" lon="-0.04607">
        <ele>801</ele>
        <time>2021-10-09T09:16:15</time>
      </trkpt>
      <trkpt lat="42.97632" lon="-0.04609">
        <ele>801.2</ele>
        <time>2021-10-09T09:16:16</time>
      </trkpt>
      <trkpt lat="42.9763" lon="-0.0461">
        <ele>801.4</ele>
        <time>2021-10-09T09:16:17</time>
      </trkpt>
      <trkpt lat="42.97628" lon="-0.04611">
        <ele>801.6</ele>
        <time>2021-10-09T09:16:18</time>
      </trkpt>
      <trkpt lat="42.97627" lon="-0.04613">
        <ele>802</ele>
        <time>2021-10-09T09:16:19</time>
      </trkpt>
      <trkpt lat="42.97625" lon="-0.04614">
        <ele>802</ele>
        <time>2021-10-09T09:16:20</time>
      </trkpt>
      <trkpt lat="42.97624" lon="-0.04615">
        <ele>802.4</ele>
        <time>2021-10-09T09:16:21</time>
      </trkpt>
      <trkpt lat="42.97622" lon="-0.04616">
        <ele>802.6</ele>
        <time>2021-10-09T09:16:22</time>
      </trkpt>
      <trkpt lat="42.9762" lon="-0.04616">
        <ele>802.8</ele>
        <time>2021-10-09T09:16:23</time>
      </trkpt>
      <trkpt lat="42.97618" lon="-0.04617">
        <ele>803</ele>
        <time>2021-10-09T09:16:24</time>
      </trkpt>
      <trkpt lat="42.97616" lon="-0.04618">
        <ele>803.2</ele>
        <time>2021-10-09T09:16:25</time>
      </trkpt>
      <trkpt lat="42.97615" lon="-0.04619">
        <ele>803.6</ele>
        <time>2021-10-09T09:16:26</time>
      </trkpt>
      <trkpt lat="42.97613" lon="-0.0462">
        <ele>803.8</ele>
        <time>2021-10-09T09:16:27</time>
      </trkpt>
      <trkpt lat="42.97611" lon="-0.0462">
        <ele>804</ele>
        <time>2021-10-09T09:16:28</time>
      </trkpt>
      <trkpt lat="42.97609" lon="-0.04621">
        <ele>804.4</ele>
        <time>2021-10-09T09:16:29</time>
      </trkpt>
      <trkpt lat="42.97607" lon="-0.04621">
        <ele>804.6</ele>
        <time>2021-10-09T09:16:30</time>
      </trkpt>
      <trkpt lat="42.97605" lon="-0.04622">
        <ele>804.8</ele>
        <time>2021-10-09T09:16:31</time>
      </trkpt>
      <trkpt lat="42.97603" lon="-0.04622">
        <ele>805</ele>
        <time>2021-10-09T09:16:32</time>
      </trkpt>
      <trkpt lat="42.97602" lon="-0.04622">
        <ele>805.2</ele>
        <time>2021-10-09T09:16:33</time>
      </trkpt>
      <trkpt lat="42.976" lon="-0.04623">
        <ele>805.4</ele>
        <time>2021-10-09T09:16:34</time>
      </trkpt>
      <trkpt lat="42.97598" lon="-0.04623">
        <ele>805.6</ele>
        <time>2021-10-09T09:16:35</time>
      </trkpt>
      <trkpt lat="42.97596" lon="-0.04624">
        <ele>805.8</ele>
        <time>2021-10-09T09:16:36</time>
      </trkpt>
      <trkpt lat="42.97594" lon="-0.04624">
        <ele>806</ele>
        <time>2021-10-09T09:16:37</time>
      </trkpt>
      <trkpt lat="42.97592" lon="-0.04624">
        <ele>806.2</ele>
        <time>2021-10-09T09:16:38</time>
      </trkpt>
      <trkpt lat="42.9759" lon="-0.04624">
        <ele>806.4</ele>
        <time>2021-10-09T09:16:39</time>
      </trkpt>
      <trkpt lat="42.97589" lon="-0.04624">
        <ele>806.6</ele>
        <time>2021-10-09T09:16:40</time>
      </trkpt>
      <trkpt lat="42.97587" lon="-0.04625">
        <ele>807</ele>
        <time>2021-10-09T09:16:41</time>
      </trkpt>
      <trkpt lat="42.97586" lon="-0.04626">
        <ele>807.2</ele>
        <time>2021-10-09T09:16:42</time>
      </trkpt>
      <trkpt lat="42.97584" lon="-0.04627">
        <ele>807.4</ele>
        <time>2021-10-09T09:16:43</time>
      </trkpt>
      <trkpt lat="42.97583" lon="-0.04628">
        <ele>807.6</ele>
        <time>2021-10-09T09:16:44</time>
      </trkpt>
      <trkpt lat="42.97581" lon="-0.04628">
        <ele>808</ele>
        <time>2021-10-09T09:16:45</time>
      </trkpt>
      <trkpt lat="42.9758" lon="-0.04629">
        <ele>808.2</ele>
        <time>2021-10-09T09:16:46</time>
      </trkpt>
      <trkpt lat="42.97578" lon="-0.04629">
        <ele>808.6</ele>
        <time>2021-10-09T09:16:47</time>
      </trkpt>
      <trkpt lat="42.97575" lon="-0.04629">
        <ele>808.6</ele>
        <time>2021-10-09T09:16:48</time>
      </trkpt>
      <trkpt lat="42.97573" lon="-0.0463">
        <ele>809</ele>
        <time>2021-10-09T09:16:49</time>
      </trkpt>
      <trkpt lat="42.97572" lon="-0.0463">
        <ele>809.2</ele>
        <time>2021-10-09T09:16:50</time>
      </trkpt>
      <trkpt lat="42.97571" lon="-0.04631">
        <ele>809.2</ele>
        <time>2021-10-09T09:16:51</time>
      </trkpt>
      <trkpt lat="42.97569" lon="-0.04631">
        <ele>809.4</ele>
        <time>2021-10-09T09:16:52</time>
      </trkpt>
      <trkpt lat="42.97568" lon="-0.04631">
        <ele>809.6</ele>
        <time>2021-10-09T09:16:53</time>
      </trkpt>
      <trkpt lat="42.97567" lon="-0.04631">
        <ele>809.6</ele>
        <time>2021-10-09T09:16:54</time>
      </trkpt>
      <trkpt lat="42.97565" lon="-0.04631">
        <ele>809.8</ele>
        <time>2021-10-09T09:16:55</time>
      </trkpt>
      <trkpt lat="42.97563" lon="-0.04631">
        <ele>810</ele>
        <time>2021-10-09T09:16:56</time>
      </trkpt>
      <trkpt lat="42.9756" lon="-0.0463">
        <ele>810</ele>
        <time>2021-10-09T09:16:57</time>
      </trkpt>
      <trkpt lat="42.97558" lon="-0.04629">
        <ele>810.2</ele>
        <time>2021-10-09T09:16:58</time>
      </trkpt>
      <trkpt lat="42.97557" lon="-0.04628">
        <ele>810.2</ele>
        <time>2021-10-09T09:16:59</time>
      </trkpt>
      <trkpt lat="42.97556" lon="-0.04627">
        <ele>810.2</ele>
        <time>2021-10-09T09:17:00</time>
      </trkpt>
      <trkpt lat="42.97555" lon="-0.04626">
        <ele>810.2</ele>
        <time>2021-10-09T09:17:01</time>
      </trkpt>
      <trkpt lat="42.97554" lon="-0.04626">
        <ele>810.2</ele>
        <time>2021-10-09T09:17:02</time>
      </trkpt>
      <trkpt lat="42.97553" lon="-0.04626">
        <ele>810.4</ele>
        <time>2021-10-09T09:17:03</time>
      </trkpt>
      <trkpt lat="42.97551" lon="-0.04625">
        <ele>810.4</ele>
        <time>2021-10-09T09:17:04</time>
      </trkpt>
      <trkpt lat="42.9755" lon="-0.04625">
        <ele>810.4</ele>
        <time>2021-10-09T09:17:05</time>
      </trkpt>
      <trkpt lat="42.97548" lon="-0.04626">
        <ele>810.4</ele>
        <time>2021-10-09T09:17:06</time>
      </trkpt>
      <trkpt lat="42.97546" lon="-0.04626">
        <ele>810.4</ele>
        <time>2021-10-09T09:17:07</time>
      </trkpt>
      <trkpt lat="42.97545" lon="-0.04626">
        <ele>810.4</ele>
        <time>2021-10-09T09:17:08</time>
      </trkpt>
      <trkpt lat="42.97543" lon="-0.04625">
        <ele>810.4</ele>
        <time>2021-10-09T09:17:09</time>
      </trkpt>
      <trkpt lat="42.97542" lon="-0.04625">
        <ele>810.4</ele>
        <time>2021-10-09T09:17:10</time>
      </trkpt>
      <trkpt lat="42.9754" lon="-0.04624">
        <ele>810.4</ele>
        <time>2021-10-09T09:17:11</time>
      </trkpt>
      <trkpt lat="42.97539" lon="-0.04623">
        <ele>810.4</ele>
        <time>2021-10-09T09:17:12</time>
      </trkpt>
      <trkpt lat="42.97538" lon="-0.04623">
        <ele>810.4</ele>
        <time>2021-10-09T09:17:13</time>
      </trkpt>
      <trkpt lat="42.97537" lon="-0.04622">
        <ele>810.4</ele>
        <time>2021-10-09T09:17:14</time>
      </trkpt>
      <trkpt lat="42.97536" lon="-0.04621">
        <ele>810.4</ele>
        <time>2021-10-09T09:17:15</time>
      </trkpt>
      <trkpt lat="42.97534" lon="-0.0462">
        <ele>810.4</ele>
        <time>2021-10-09T09:17:16</time>
      </trkpt>
      <trkpt lat="42.97532" lon="-0.04619">
        <ele>810.4</ele>
        <time>2021-10-09T09:17:17</time>
      </trkpt>
      <trkpt lat="42.9753" lon="-0.04618">
        <ele>810.4</ele>
        <time>2021-10-09T09:17:18</time>
      </trkpt>
      <trkpt lat="42.97528" lon="-0.04618">
        <ele>810.4</ele>
        <time>2021-10-09T09:17:19</time>
      </trkpt>
      <trkpt lat="42.97526" lon="-0.04617">
        <ele>810.4</ele>
        <time>2021-10-09T09:17:20</time>
      </trkpt>
      <trkpt lat="42.97524" lon="-0.04617">
        <ele>810.4</ele>
        <time>2021-10-09T09:17:21</time>
      </trkpt>
      <trkpt lat="42.97522" lon="-0.04617">
        <ele>810.6</ele>
        <time>2021-10-09T09:17:22</time>
      </trkpt>
      <trkpt lat="42.9752" lon="-0.04616">
        <ele>810.6</ele>
        <time>2021-10-09T09:17:23</time>
      </trkpt>
      <trkpt lat="42.97518" lon="-0.04616">
        <ele>810.8</ele>
        <time>2021-10-09T09:17:24</time>
      </trkpt>
      <trkpt lat="42.97516" lon="-0.04615">
        <ele>810.8</ele>
        <time>2021-10-09T09:17:25</time>
      </trkpt>
      <trkpt lat="42.97514" lon="-0.04614">
        <ele>811</ele>
        <time>2021-10-09T09:17:26</time>
      </trkpt>
      <trkpt lat="42.97512" lon="-0.04612">
        <ele>811.4</ele>
        <time>2021-10-09T09:17:27</time>
      </trkpt>
      <trkpt lat="42.9751" lon="-0.04612">
        <ele>811.4</ele>
        <time>2021-10-09T09:17:28</time>
      </trkpt>
      <trkpt lat="42.97508" lon="-0.04611">
        <ele>811.4</ele>
        <time>2021-10-09T09:17:29</time>
      </trkpt>
      <trkpt lat="42.97505" lon="-0.04611">
        <ele>811.6</ele>
        <time>2021-10-09T09:17:30</time>
      </trkpt>
      <trkpt lat="42.97503" lon="-0.0461">
        <ele>811.8</ele>
        <time>2021-10-09T09:17:31</time>
      </trkpt>
      <trkpt lat="42.97501" lon="-0.04609">
        <ele>811.8</ele>
        <time>2021-10-09T09:17:32</time>
      </trkpt>
      <trkpt lat="42.97498" lon="-0.04609">
        <ele>812</ele>
        <time>2021-10-09T09:17:33</time>
      </trkpt>
      <trkpt lat="42.97496" lon="-0.04609">
        <ele>812</ele>
        <time>2021-10-09T09:17:34</time>
      </trkpt>
      <trkpt lat="42.97493" lon="-0.04609">
        <ele>812.2</ele>
        <time>2021-10-09T09:17:35</time>
      </trkpt>
      <trkpt lat="42.97491" lon="-0.04609">
        <ele>812.4</ele>
        <time>2021-10-09T09:17:36</time>
      </trkpt>
      <trkpt lat="42.97489" lon="-0.04609">
        <ele>812.4</ele>
        <time>2021-10-09T09:17:37</time>
      </trkpt>
      <trkpt lat="42.97487" lon="-0.04609">
        <ele>812.6</ele>
        <time>2021-10-09T09:17:38</time>
      </trkpt>
      <trkpt lat="42.97485" lon="-0.0461">
        <ele>812.8</ele>
        <time>2021-10-09T09:17:39</time>
      </trkpt>
      <trkpt lat="42.97483" lon="-0.0461">
        <ele>813</ele>
        <time>2021-10-09T09:17:40</time>
      </trkpt>
      <trkpt lat="42.97481" lon="-0.04611">
        <ele>813.2</ele>
        <time>2021-10-09T09:17:41</time>
      </trkpt>
      <trkpt lat="42.97479" lon="-0.04611">
        <ele>813.4</ele>
        <time>2021-10-09T09:17:42</time>
      </trkpt>
      <trkpt lat="42.97477" lon="-0.04612">
        <ele>813.4</ele>
        <time>2021-10-09T09:17:43</time>
      </trkpt>
      <trkpt lat="42.97475" lon="-0.04612">
        <ele>813.6</ele>
        <time>2021-10-09T09:17:44</time>
      </trkpt>
      <trkpt lat="42.97473" lon="-0.04612">
        <ele>813.8</ele>
        <time>2021-10-09T09:17:45</time>
      </trkpt>
      <trkpt lat="42.97471" lon="-0.04612">
        <ele>814</ele>
        <time>2021-10-09T09:17:46</time>
      </trkpt>
      <trkpt lat="42.97469" lon="-0.04613">
        <ele>814.2</ele>
        <time>2021-10-09T09:17:47</time>
      </trkpt>
      <trkpt lat="42.97467" lon="-0.04613">
        <ele>814.4</ele>
        <time>2021-10-09T09:17:48</time>
      </trkpt>
      <trkpt lat="42.97465" lon="-0.04614">
        <ele>814.4</ele>
        <time>2021-10-09T09:17:49</time>
      </trkpt>
      <trkpt lat="42.97463" lon="-0.04615">
        <ele>814.6</ele>
        <time>2021-10-09T09:17:50</time>
      </trkpt>
      <trkpt lat="42.97461" lon="-0.04615">
        <ele>814.8</ele>
        <time>2021-10-09T09:17:51</time>
      </trkpt>
      <trkpt lat="42.97459" lon="-0.04616">
        <ele>815</ele>
        <time>2021-10-09T09:17:52</time>
      </trkpt>
      <trkpt lat="42.97457" lon="-0.04617">
        <ele>815.2</ele>
        <time>2021-10-09T09:17:53</time>
      </trkpt>
      <trkpt lat="42.97455" lon="-0.04618">
        <ele>815.4</ele>
        <time>2021-10-09T09:17:54</time>
      </trkpt>
      <trkpt lat="42.97453" lon="-0.04619">
        <ele>815.6</ele>
        <time>2021-10-09T09:17:55</time>
      </trkpt>
      <trkpt lat="42.97451" lon="-0.04619">
        <ele>815.8</ele>
        <time>2021-10-09T09:17:56</time>
      </trkpt>
      <trkpt lat="42.97448" lon="-0.0462">
        <ele>816</ele>
        <time>2021-10-09T09:17:57</time>
      </trkpt>
      <trkpt lat="42.97446" lon="-0.04621">
        <ele>816.2</ele>
        <time>2021-10-09T09:17:58</time>
      </trkpt>
      <trkpt lat="42.97444" lon="-0.04621">
        <ele>816.2</ele>
        <time>2021-10-09T09:17:59</time>
      </trkpt>
      <trkpt lat="42.97442" lon="-0.04622">
        <ele>816.4</ele>
        <time>2021-10-09T09:18:00</time>
      </trkpt>
      <trkpt lat="42.9744" lon="-0.04623">
        <ele>816.6</ele>
        <time>2021-10-09T09:18:01</time>
      </trkpt>
      <trkpt lat="42.97438" lon="-0.04624">
        <ele>816.6</ele>
        <time>2021-10-09T09:18:02</time>
      </trkpt>
      <trkpt lat="42.97436" lon="-0.04626">
        <ele>816.8</ele>
        <time>2021-10-09T09:18:03</time>
      </trkpt>
      <trkpt lat="42.97434" lon="-0.04627">
        <ele>817</ele>
        <time>2021-10-09T09:18:04</time>
      </trkpt>
      <trkpt lat="42.97432" lon="-0.04628">
        <ele>817</ele>
        <time>2021-10-09T09:18:05</time>
      </trkpt>
      <trkpt lat="42.9743" lon="-0.04629">
        <ele>817.2</ele>
        <time>2021-10-09T09:18:06</time>
      </trkpt>
      <trkpt lat="42.97428" lon="-0.0463">
        <ele>817.2</ele>
        <time>2021-10-09T09:18:07</time>
      </trkpt>
      <trkpt lat="42.97426" lon="-0.04631">
        <ele>817.4</ele>
        <time>2021-10-09T09:18:08</time>
      </trkpt>
      <trkpt lat="42.97424" lon="-0.04632">
        <ele>817.6</ele>
        <time>2021-10-09T09:18:09</time>
      </trkpt>
      <trkpt lat="42.97422" lon="-0.04633">
        <ele>817.6</ele>
        <time>2021-10-09T09:18:10</time>
      </trkpt>
      <trkpt lat="42.97419" lon="-0.04634">
        <ele>817.8</ele>
        <time>2021-10-09T09:18:11</time>
      </trkpt>
      <trkpt lat="42.97417" lon="-0.04635">
        <ele>818</ele>
        <time>2021-10-09T09:18:12</time>
      </trkpt>
      <trkpt lat="42.97415" lon="-0.04636">
        <ele>818</ele>
        <time>2021-10-09T09:18:13</time>
      </trkpt>
      <trkpt lat="42.97413" lon="-0.04637">
        <ele>818.2</ele>
        <time>2021-10-09T09:18:14</time>
      </trkpt>
      <trkpt lat="42.97411" lon="-0.04638">
        <ele>818.4</ele>
        <time>2021-10-09T09:18:15</time>
      </trkpt>
      <trkpt lat="42.97409" lon="-0.04638">
        <ele>818.4</ele>
        <time>2021-10-09T09:18:16</time>
      </trkpt>
      <trkpt lat="42.97406" lon="-0.04639">
        <ele>818.6</ele>
        <time>2021-10-09T09:18:17</time>
      </trkpt>
      <trkpt lat="42.97404" lon="-0.04639">
        <ele>818.8</ele>
        <time>2021-10-09T09:18:18</time>
      </trkpt>
      <trkpt lat="42.97402" lon="-0.04639">
        <ele>818.8</ele>
        <time>2021-10-09T09:18:19</time>
      </trkpt>
      <trkpt lat="42.974" lon="-0.04639">
        <ele>818.8</ele>
        <time>2021-10-09T09:18:20</time>
      </trkpt>
      <trkpt lat="42.97398" lon="-0.04639">
        <ele>819</ele>
        <time>2021-10-09T09:18:21</time>
      </trkpt>
      <trkpt lat="42.97396" lon="-0.04639">
        <ele>819</ele>
        <time>2021-10-09T09:18:22</time>
      </trkpt>
      <trkpt lat="42.97393" lon="-0.04638">
        <ele>819</ele>
        <time>2021-10-09T09:18:23</time>
      </trkpt>
      <trkpt lat="42.97391" lon="-0.04637">
        <ele>819</ele>
        <time>2021-10-09T09:18:24</time>
      </trkpt>
      <trkpt lat="42.97387" lon="-0.04637">
        <ele>818.8</ele>
        <time>2021-10-09T09:18:25</time>
      </trkpt>
      <trkpt lat="42.97383" lon="-0.04636">
        <ele>818.6</ele>
        <time>2021-10-09T09:18:26</time>
      </trkpt>
      <trkpt lat="42.97379" lon="-0.04635">
        <ele>818</ele>
        <time>2021-10-09T09:18:27</time>
      </trkpt>
      <trkpt lat="42.97374" lon="-0.04633">
        <ele>817.4</ele>
        <time>2021-10-09T09:18:28</time>
      </trkpt>
      <trkpt lat="42.97369" lon="-0.04629">
        <ele>817.4</ele>
        <time>2021-10-09T09:18:29</time>
      </trkpt>
      <trkpt lat="42.97366" lon="-0.04626">
        <ele>817.6</ele>
        <time>2021-10-09T09:18:30</time>
      </trkpt>
      <trkpt lat="42.97363" lon="-0.04624">
        <ele>818</ele>
        <time>2021-10-09T09:18:31</time>
      </trkpt>
      <trkpt lat="42.97361" lon="-0.04622">
        <ele>818.4</ele>
        <time>2021-10-09T09:18:32</time>
      </trkpt>
      <trkpt lat="42.9736" lon="-0.04621">
        <ele>818.6</ele>
        <time>2021-10-09T09:18:33</time>
      </trkpt>
      <trkpt lat="42.97358" lon="-0.04619">
        <ele>818.8</ele>
        <time>2021-10-09T09:18:34</time>
      </trkpt>
      <trkpt lat="42.97357" lon="-0.04618">
        <ele>819</ele>
        <time>2021-10-09T09:18:35</time>
      </trkpt>
      <trkpt lat="42.97356" lon="-0.04617">
        <ele>819.2</ele>
        <time>2021-10-09T09:18:36</time>
      </trkpt>
      <trkpt lat="42.97354" lon="-0.04615">
        <ele>819.2</ele>
        <time>2021-10-09T09:18:37</time>
      </trkpt>
      <trkpt lat="42.97353" lon="-0.04613">
        <ele>819.4</ele>
        <time>2021-10-09T09:18:38</time>
      </trkpt>
      <trkpt lat="42.97352" lon="-0.04611">
        <ele>819.4</ele>
        <time>2021-10-09T09:18:39</time>
      </trkpt>
      <trkpt lat="42.97351" lon="-0.0461">
        <ele>819.6</ele>
        <time>2021-10-09T09:18:40</time>
      </trkpt>
      <trkpt lat="42.97349" lon="-0.04609">
        <ele>819.8</ele>
        <time>2021-10-09T09:18:41</time>
      </trkpt>
      <trkpt lat="42.97348" lon="-0.04607">
        <ele>820</ele>
        <time>2021-10-09T09:18:42</time>
      </trkpt>
      <trkpt lat="42.97346" lon="-0.04606">
        <ele>820.2</ele>
        <time>2021-10-09T09:18:43</time>
      </trkpt>
      <trkpt lat="42.97345" lon="-0.04605">
        <ele>820.4</ele>
        <time>2021-10-09T09:18:44</time>
      </trkpt>
      <trkpt lat="42.97344" lon="-0.04603">
        <ele>820.6</ele>
        <time>2021-10-09T09:18:45</time>
      </trkpt>
      <trkpt lat="42.97342" lon="-0.04601">
        <ele>820.8</ele>
        <time>2021-10-09T09:18:46</time>
      </trkpt>
      <trkpt lat="42.97341" lon="-0.046">
        <ele>820.8</ele>
        <time>2021-10-09T09:18:47</time>
      </trkpt>
      <trkpt lat="42.9734" lon="-0.04598">
        <ele>821</ele>
        <time>2021-10-09T09:18:48</time>
      </trkpt>
      <trkpt lat="42.97338" lon="-0.04596">
        <ele>821.2</ele>
        <time>2021-10-09T09:18:49</time>
      </trkpt>
      <trkpt lat="42.97337" lon="-0.04594">
        <ele>821.4</ele>
        <time>2021-10-09T09:18:50</time>
      </trkpt>
      <trkpt lat="42.97335" lon="-0.04593">
        <ele>821.6</ele>
        <time>2021-10-09T09:18:51</time>
      </trkpt>
      <trkpt lat="42.97334" lon="-0.04591">
        <ele>821.6</ele>
        <time>2021-10-09T09:18:52</time>
      </trkpt>
      <trkpt lat="42.97333" lon="-0.0459">
        <ele>822</ele>
        <time>2021-10-09T09:18:53</time>
      </trkpt>
      <trkpt lat="42.97331" lon="-0.04588">
        <ele>822.2</ele>
        <time>2021-10-09T09:18:54</time>
      </trkpt>
      <trkpt lat="42.9733" lon="-0.04587">
        <ele>822.4</ele>
        <time>2021-10-09T09:18:55</time>
      </trkpt>
      <trkpt lat="42.97329" lon="-0.04585">
        <ele>822.6</ele>
        <time>2021-10-09T09:18:56</time>
      </trkpt>
      <trkpt lat="42.97327" lon="-0.04584">
        <ele>822.8</ele>
        <time>2021-10-09T09:18:57</time>
      </trkpt>
      <trkpt lat="42.97326" lon="-0.04583">
        <ele>823</ele>
        <time>2021-10-09T09:18:58</time>
      </trkpt>
      <trkpt lat="42.97324" lon="-0.04581">
        <ele>823.2</ele>
        <time>2021-10-09T09:18:59</time>
      </trkpt>
      <trkpt lat="42.97323" lon="-0.0458">
        <ele>823.4</ele>
        <time>2021-10-09T09:19:00</time>
      </trkpt>
      <trkpt lat="42.97322" lon="-0.04578">
        <ele>823.6</ele>
        <time>2021-10-09T09:19:01</time>
      </trkpt>
      <trkpt lat="42.97321" lon="-0.04576">
        <ele>823.8</ele>
        <time>2021-10-09T09:19:02</time>
      </trkpt>
      <trkpt lat="42.9732" lon="-0.04575">
        <ele>824.2</ele>
        <time>2021-10-09T09:19:03</time>
      </trkpt>
      <trkpt lat="42.97319" lon="-0.04573">
        <ele>824.2</ele>
        <time>2021-10-09T09:19:04</time>
      </trkpt>
      <trkpt lat="42.97318" lon="-0.04572">
        <ele>824.6</ele>
        <time>2021-10-09T09:19:05</time>
      </trkpt>
      <trkpt lat="42.97317" lon="-0.0457">
        <ele>824.8</ele>
        <time>2021-10-09T09:19:06</time>
      </trkpt>
      <trkpt lat="42.97316" lon="-0.04569">
        <ele>825</ele>
        <time>2021-10-09T09:19:07</time>
      </trkpt>
      <trkpt lat="42.97315" lon="-0.04567">
        <ele>825.2</ele>
        <time>2021-10-09T09:19:08</time>
      </trkpt>
      <trkpt lat="42.97314" lon="-0.04566">
        <ele>825.4</ele>
        <time>2021-10-09T09:19:09</time>
      </trkpt>
      <trkpt lat="42.97314" lon="-0.04564">
        <ele>825.6</ele>
        <time>2021-10-09T09:19:10</time>
      </trkpt>
      <trkpt lat="42.97313" lon="-0.04562">
        <ele>825.8</ele>
        <time>2021-10-09T09:19:11</time>
      </trkpt>
      <trkpt lat="42.97312" lon="-0.04561">
        <ele>826</ele>
        <time>2021-10-09T09:19:12</time>
      </trkpt>
      <trkpt lat="42.97311" lon="-0.04559">
        <ele>826.2</ele>
        <time>2021-10-09T09:19:13</time>
      </trkpt>
      <trkpt lat="42.9731" lon="-0.04558">
        <ele>826.6</ele>
        <time>2021-10-09T09:19:14</time>
      </trkpt>
      <trkpt lat="42.97309" lon="-0.04557">
        <ele>826.8</ele>
        <time>2021-10-09T09:19:15</time>
      </trkpt>
      <trkpt lat="42.97309" lon="-0.04555">
        <ele>827</ele>
        <time>2021-10-09T09:19:16</time>
      </trkpt>
      <trkpt lat="42.97308" lon="-0.04554">
        <ele>827.2</ele>
        <time>2021-10-09T09:19:17</time>
      </trkpt>
      <trkpt lat="42.97307" lon="-0.04552">
        <ele>827.4</ele>
        <time>2021-10-09T09:19:18</time>
      </trkpt>
      <trkpt lat="42.97306" lon="-0.04551">
        <ele>827.6</ele>
        <time>2021-10-09T09:19:19</time>
      </trkpt>
      <trkpt lat="42.97305" lon="-0.04549">
        <ele>827.8</ele>
        <time>2021-10-09T09:19:20</time>
      </trkpt>
      <trkpt lat="42.97305" lon="-0.04548">
        <ele>828</ele>
        <time>2021-10-09T09:19:21</time>
      </trkpt>
      <trkpt lat="42.97304" lon="-0.04547">
        <ele>828.2</ele>
        <time>2021-10-09T09:19:22</time>
      </trkpt>
      <trkpt lat="42.97303" lon="-0.04545">
        <ele>828.4</ele>
        <time>2021-10-09T09:19:23</time>
      </trkpt>
      <trkpt lat="42.97303" lon="-0.04544">
        <ele>828.6</ele>
        <time>2021-10-09T09:19:24</time>
      </trkpt>
      <trkpt lat="42.97302" lon="-0.04542">
        <ele>828.8</ele>
        <time>2021-10-09T09:19:25</time>
      </trkpt>
      <trkpt lat="42.97302" lon="-0.0454">
        <ele>829</ele>
        <time>2021-10-09T09:19:26</time>
      </trkpt>
      <trkpt lat="42.97301" lon="-0.04539">
        <ele>829.2</ele>
        <time>2021-10-09T09:19:27</time>
      </trkpt>
      <trkpt lat="42.97301" lon="-0.04538">
        <ele>829.4</ele>
        <time>2021-10-09T09:19:28</time>
      </trkpt>
      <trkpt lat="42.973" lon="-0.04537">
        <ele>829.6</ele>
        <time>2021-10-09T09:19:29</time>
      </trkpt>
      <trkpt lat="42.97299" lon="-0.04535">
        <ele>830</ele>
        <time>2021-10-09T09:19:30</time>
      </trkpt>
      <trkpt lat="42.97299" lon="-0.04534">
        <ele>830.4</ele>
        <time>2021-10-09T09:19:31</time>
      </trkpt>
      <trkpt lat="42.97299" lon="-0.04532">
        <ele>830.8</ele>
        <time>2021-10-09T09:19:32</time>
      </trkpt>
      <trkpt lat="42.97298" lon="-0.04531">
        <ele>831</ele>
        <time>2021-10-09T09:19:33</time>
      </trkpt>
      <trkpt lat="42.97297" lon="-0.0453">
        <ele>831.4</ele>
        <time>2021-10-09T09:19:34</time>
      </trkpt>
      <trkpt lat="42.97297" lon="-0.04528">
        <ele>831.6</ele>
        <time>2021-10-09T09:19:35</time>
      </trkpt>
      <trkpt lat="42.97296" lon="-0.04527">
        <ele>831.8</ele>
        <time>2021-10-09T09:19:36</time>
      </trkpt>
      <trkpt lat="42.97296" lon="-0.04527">
        <ele>832</ele>
        <time>2021-10-09T09:19:37</time>
      </trkpt>
      <trkpt lat="42.97295" lon="-0.04525">
        <ele>832.2</ele>
        <time>2021-10-09T09:19:38</time>
      </trkpt>
      <trkpt lat="42.97294" lon="-0.04524">
        <ele>832.4</ele>
        <time>2021-10-09T09:19:39</time>
      </trkpt>
      <trkpt lat="42.97293" lon="-0.04523">
        <ele>832.6</ele>
        <time>2021-10-09T09:19:40</time>
      </trkpt>
      <trkpt lat="42.97293" lon="-0.04522">
        <ele>832.6</ele>
        <time>2021-10-09T09:19:41</time>
      </trkpt>
      <trkpt lat="42.97292" lon="-0.04521">
        <ele>832.8</ele>
        <time>2021-10-09T09:19:42</time>
      </trkpt>
      <trkpt lat="42.97291" lon="-0.04519">
        <ele>833</ele>
        <time>2021-10-09T09:19:43</time>
      </trkpt>
      <trkpt lat="42.9729" lon="-0.04518">
        <ele>833.2</ele>
        <time>2021-10-09T09:19:44</time>
      </trkpt>
      <trkpt lat="42.9729" lon="-0.04516">
        <ele>833.4</ele>
        <time>2021-10-09T09:19:45</time>
      </trkpt>
      <trkpt lat="42.97289" lon="-0.04515">
        <ele>833.6</ele>
        <time>2021-10-09T09:19:46</time>
      </trkpt>
      <trkpt lat="42.97288" lon="-0.04514">
        <ele>833.6</ele>
        <time>2021-10-09T09:19:47</time>
      </trkpt>
      <trkpt lat="42.97288" lon="-0.04512">
        <ele>833.8</ele>
        <time>2021-10-09T09:19:48</time>
      </trkpt>
      <trkpt lat="42.97287" lon="-0.04511">
        <ele>834</ele>
        <time>2021-10-09T09:19:49</time>
      </trkpt>
      <trkpt lat="42.97286" lon="-0.0451">
        <ele>834.2</ele>
        <time>2021-10-09T09:19:50</time>
      </trkpt>
      <trkpt lat="42.97285" lon="-0.04509">
        <ele>834.2</ele>
        <time>2021-10-09T09:19:51</time>
      </trkpt>
      <trkpt lat="42.97285" lon="-0.04508">
        <ele>834.6</ele>
        <time>2021-10-09T09:19:52</time>
      </trkpt>
      <trkpt lat="42.97284" lon="-0.04506">
        <ele>834.8</ele>
        <time>2021-10-09T09:19:53</time>
      </trkpt>
      <trkpt lat="42.97284" lon="-0.04505">
        <ele>835</ele>
        <time>2021-10-09T09:19:54</time>
      </trkpt>
      <trkpt lat="42.97283" lon="-0.04504">
        <ele>835</ele>
        <time>2021-10-09T09:19:55</time>
      </trkpt>
      <trkpt lat="42.97283" lon="-0.04503">
        <ele>835.2</ele>
        <time>2021-10-09T09:19:56</time>
      </trkpt>
      <trkpt lat="42.97282" lon="-0.04502">
        <ele>835.4</ele>
        <time>2021-10-09T09:19:57</time>
      </trkpt>
      <trkpt lat="42.97281" lon="-0.04501">
        <ele>835.6</ele>
        <time>2021-10-09T09:19:58</time>
      </trkpt>
      <trkpt lat="42.97281" lon="-0.04501">
        <ele>835.6</ele>
        <time>2021-10-09T09:19:59</time>
      </trkpt>
      <trkpt lat="42.9728" lon="-0.045">
        <ele>835.8</ele>
        <time>2021-10-09T09:20:00</time>
      </trkpt>
      <trkpt lat="42.97279" lon="-0.04499">
        <ele>836</ele>
        <time>2021-10-09T09:20:01</time>
      </trkpt>
      <trkpt lat="42.97279" lon="-0.04498">
        <ele>836.2</ele>
        <time>2021-10-09T09:20:02</time>
      </trkpt>
      <trkpt lat="42.97278" lon="-0.04496">
        <ele>836.4</ele>
        <time>2021-10-09T09:20:03</time>
      </trkpt>
      <trkpt lat="42.97278" lon="-0.04496">
        <ele>836.4</ele>
        <time>2021-10-09T09:20:04</time>
      </trkpt>
      <trkpt lat="42.97277" lon="-0.04495">
        <ele>836.6</ele>
        <time>2021-10-09T09:20:05</time>
      </trkpt>
      <trkpt lat="42.97277" lon="-0.04494">
        <ele>836.8</ele>
        <time>2021-10-09T09:20:06</time>
      </trkpt>
      <trkpt lat="42.97276" lon="-0.04493">
        <ele>837</ele>
        <time>2021-10-09T09:20:07</time>
      </trkpt>
      <trkpt lat="42.97276" lon="-0.04493">
        <ele>837</ele>
        <time>2021-10-09T09:20:08</time>
      </trkpt>
      <trkpt lat="42.97275" lon="-0.04492">
        <ele>837.2</ele>
        <time>2021-10-09T09:20:09</time>
      </trkpt>
      <trkpt lat="42.97275" lon="-0.04491">
        <ele>837.4</ele>
        <time>2021-10-09T09:20:10</time>
      </trkpt>
      <trkpt lat="42.97275" lon="-0.0449">
        <ele>837.6</ele>
        <time>2021-10-09T09:20:11</time>
      </trkpt>
      <trkpt lat="42.97274" lon="-0.04489">
        <ele>837.8</ele>
        <time>2021-10-09T09:20:12</time>
      </trkpt>
      <trkpt lat="42.97273" lon="-0.04488">
        <ele>838</ele>
        <time>2021-10-09T09:20:13</time>
      </trkpt>
      <trkpt lat="42.97273" lon="-0.04487">
        <ele>838.2</ele>
        <time>2021-10-09T09:20:14</time>
      </trkpt>
      <trkpt lat="42.97273" lon="-0.04486">
        <ele>838.4</ele>
        <time>2021-10-09T09:20:15</time>
      </trkpt>
      <trkpt lat="42.97255" lon="-0.04452">
        <ele>844</ele>
        <time>2021-10-09T09:20:44</time>
      </trkpt>
      <trkpt lat="42.97254" lon="-0.04451">
        <ele>844.2</ele>
        <time>2021-10-09T09:20:45</time>
      </trkpt>
      <trkpt lat="42.97253" lon="-0.04449">
        <ele>844.4</ele>
        <time>2021-10-09T09:20:46</time>
      </trkpt>
      <trkpt lat="42.97253" lon="-0.04448">
        <ele>844.4</ele>
        <time>2021-10-09T09:20:47</time>
      </trkpt>
      <trkpt lat="42.97252" lon="-0.04446">
        <ele>844.6</ele>
        <time>2021-10-09T09:20:48</time>
      </trkpt>
      <trkpt lat="42.97252" lon="-0.04445">
        <ele>844.8</ele>
        <time>2021-10-09T09:20:49</time>
      </trkpt>
      <trkpt lat="42.97251" lon="-0.04444">
        <ele>845</ele>
        <time>2021-10-09T09:20:50</time>
      </trkpt>
      <trkpt lat="42.97251" lon="-0.04442">
        <ele>845.2</ele>
        <time>2021-10-09T09:20:51</time>
      </trkpt>
      <trkpt lat="42.9725" lon="-0.04441">
        <ele>845.4</ele>
        <time>2021-10-09T09:20:52</time>
      </trkpt>
      <trkpt lat="42.9725" lon="-0.0444">
        <ele>845.6</ele>
        <time>2021-10-09T09:20:53</time>
      </trkpt>
      <trkpt lat="42.97249" lon="-0.04438">
        <ele>845.8</ele>
        <time>2021-10-09T09:20:54</time>
      </trkpt>
      <trkpt lat="42.97249" lon="-0.04437">
        <ele>846</ele>
        <time>2021-10-09T09:20:55</time>
      </trkpt>
      <trkpt lat="42.97248" lon="-0.04436">
        <ele>846.2</ele>
        <time>2021-10-09T09:20:56</time>
      </trkpt>
      <trkpt lat="42.97248" lon="-0.04434">
        <ele>846.4</ele>
        <time>2021-10-09T09:20:57</time>
      </trkpt>
      <trkpt lat="42.97247" lon="-0.04433">
        <ele>846.6</ele>
        <time>2021-10-09T09:20:58</time>
      </trkpt>
      <trkpt lat="42.97246" lon="-0.04432">
        <ele>847</ele>
        <time>2021-10-09T09:20:59</time>
      </trkpt>
      <trkpt lat="42.97246" lon="-0.0443">
        <ele>847.2</ele>
        <time>2021-10-09T09:21:00</time>
      </trkpt>
      <trkpt lat="42.97245" lon="-0.04428">
        <ele>847.6</ele>
        <time>2021-10-09T09:21:01</time>
      </trkpt>
      <trkpt lat="42.97245" lon="-0.04427">
        <ele>847.8</ele>
        <time>2021-10-09T09:21:02</time>
      </trkpt>
      <trkpt lat="42.97244" lon="-0.04426">
        <ele>848.2</ele>
        <time>2021-10-09T09:21:03</time>
      </trkpt>
      <trkpt lat="42.97243" lon="-0.04425">
        <ele>848.6</ele>
        <time>2021-10-09T09:21:04</time>
      </trkpt>
      <trkpt lat="42.97242" lon="-0.04423">
        <ele>848.8</ele>
        <time>2021-10-09T09:21:05</time>
      </trkpt>
      <trkpt lat="42.97241" lon="-0.04422">
        <ele>849</ele>
        <time>2021-10-09T09:21:06</time>
      </trkpt>
      <trkpt lat="42.9724" lon="-0.04421">
        <ele>849</ele>
        <time>2021-10-09T09:21:07</time>
      </trkpt>
      <trkpt lat="42.9724" lon="-0.04419">
        <ele>849</ele>
        <time>2021-10-09T09:21:08</time>
      </trkpt>
      <trkpt lat="42.97239" lon="-0.04417">
        <ele>849.2</ele>
        <time>2021-10-09T09:21:09</time>
      </trkpt>
      <trkpt lat="42.97238" lon="-0.04416">
        <ele>849.2</ele>
        <time>2021-10-09T09:21:10</time>
      </trkpt>
      <trkpt lat="42.97237" lon="-0.04414">
        <ele>849.2</ele>
        <time>2021-10-09T09:21:11</time>
      </trkpt>
      <trkpt lat="42.97236" lon="-0.04412">
        <ele>849.4</ele>
        <time>2021-10-09T09:21:12</time>
      </trkpt>
      <trkpt lat="42.97236" lon="-0.04411">
        <ele>849.4</ele>
        <time>2021-10-09T09:21:13</time>
      </trkpt>
      <trkpt lat="42.97235" lon="-0.04409">
        <ele>849.6</ele>
        <time>2021-10-09T09:21:14</time>
      </trkpt>
      <trkpt lat="42.97234" lon="-0.04408">
        <ele>849.6</ele>
        <time>2021-10-09T09:21:15</time>
      </trkpt>
      <trkpt lat="42.97234" lon="-0.04406">
        <ele>849.8</ele>
        <time>2021-10-09T09:21:16</time>
      </trkpt>
      <trkpt lat="42.97233" lon="-0.04405">
        <ele>850</ele>
        <time>2021-10-09T09:21:17</time>
      </trkpt>
      <trkpt lat="42.97232" lon="-0.04403">
        <ele>850.2</ele>
        <time>2021-10-09T09:21:18</time>
      </trkpt>
      <trkpt lat="42.97232" lon="-0.04401">
        <ele>850.2</ele>
        <time>2021-10-09T09:21:19</time>
      </trkpt>
      <trkpt lat="42.97231" lon="-0.044">
        <ele>850.4</ele>
        <time>2021-10-09T09:21:20</time>
      </trkpt>
      <trkpt lat="42.97231" lon="-0.04399">
        <ele>850.6</ele>
        <time>2021-10-09T09:21:21</time>
      </trkpt>
      <trkpt lat="42.9723" lon="-0.04397">
        <ele>850.8</ele>
        <time>2021-10-09T09:21:22</time>
      </trkpt>
      <trkpt lat="42.9723" lon="-0.04395">
        <ele>850.8</ele>
        <time>2021-10-09T09:21:23</time>
      </trkpt>
      <trkpt lat="42.97229" lon="-0.04394">
        <ele>851</ele>
        <time>2021-10-09T09:21:24</time>
      </trkpt>
      <trkpt lat="42.97229" lon="-0.04392">
        <ele>851.2</ele>
        <time>2021-10-09T09:21:25</time>
      </trkpt>
      <trkpt lat="42.97228" lon="-0.04391">
        <ele>851.4</ele>
        <time>2021-10-09T09:21:26</time>
      </trkpt>
      <trkpt lat="42.97228" lon="-0.0439">
        <ele>851.6</ele>
        <time>2021-10-09T09:21:27</time>
      </trkpt>
      <trkpt lat="42.97228" lon="-0.04388">
        <ele>851.8</ele>
        <time>2021-10-09T09:21:28</time>
      </trkpt>
      <trkpt lat="42.97227" lon="-0.04386">
        <ele>852</ele>
        <time>2021-10-09T09:21:29</time>
      </trkpt>
      <trkpt lat="42.97227" lon="-0.04385">
        <ele>852</ele>
        <time>2021-10-09T09:21:30</time>
      </trkpt>
      <trkpt lat="42.97227" lon="-0.04383">
        <ele>852.4</ele>
        <time>2021-10-09T09:21:31</time>
      </trkpt>
      <trkpt lat="42.97227" lon="-0.04382">
        <ele>852.6</ele>
        <time>2021-10-09T09:21:32</time>
      </trkpt>
      <trkpt lat="42.97227" lon="-0.0438">
        <ele>852.6</ele>
        <time>2021-10-09T09:21:33</time>
      </trkpt>
      <trkpt lat="42.97227" lon="-0.04379">
        <ele>852.8</ele>
        <time>2021-10-09T09:21:34</time>
      </trkpt>
      <trkpt lat="42.97226" lon="-0.04377">
        <ele>853</ele>
        <time>2021-10-09T09:21:35</time>
      </trkpt>
      <trkpt lat="42.97226" lon="-0.04376">
        <ele>853.2</ele>
        <time>2021-10-09T09:21:36</time>
      </trkpt>
      <trkpt lat="42.97226" lon="-0.04374">
        <ele>853.4</ele>
        <time>2021-10-09T09:21:37</time>
      </trkpt>
      <trkpt lat="42.97226" lon="-0.04373">
        <ele>853.6</ele>
        <time>2021-10-09T09:21:38</time>
      </trkpt>
      <trkpt lat="42.97226" lon="-0.04372">
        <ele>853.8</ele>
        <time>2021-10-09T09:21:39</time>
      </trkpt>
      <trkpt lat="42.97226" lon="-0.0437">
        <ele>853.8</ele>
        <time>2021-10-09T09:21:40</time>
      </trkpt>
      <trkpt lat="42.97226" lon="-0.04369">
        <ele>854.2</ele>
        <time>2021-10-09T09:21:41</time>
      </trkpt>
      <trkpt lat="42.97226" lon="-0.04367">
        <ele>854.2</ele>
        <time>2021-10-09T09:21:42</time>
      </trkpt>
      <trkpt lat="42.97226" lon="-0.04366">
        <ele>854.6</ele>
        <time>2021-10-09T09:21:43</time>
      </trkpt>
      <trkpt lat="42.97225" lon="-0.04364">
        <ele>854.6</ele>
        <time>2021-10-09T09:21:44</time>
      </trkpt>
      <trkpt lat="42.97225" lon="-0.04363">
        <ele>855</ele>
        <time>2021-10-09T09:21:45</time>
      </trkpt>
      <trkpt lat="42.97225" lon="-0.04361">
        <ele>855</ele>
        <time>2021-10-09T09:21:46</time>
      </trkpt>
      <trkpt lat="42.97224" lon="-0.0436">
        <ele>855.2</ele>
        <time>2021-10-09T09:21:47</time>
      </trkpt>
      <trkpt lat="42.97224" lon="-0.04359">
        <ele>855.4</ele>
        <time>2021-10-09T09:21:48</time>
      </trkpt>
      <trkpt lat="42.97223" lon="-0.04357">
        <ele>855.6</ele>
        <time>2021-10-09T09:21:49</time>
      </trkpt>
      <trkpt lat="42.97223" lon="-0.04356">
        <ele>855.8</ele>
        <time>2021-10-09T09:21:50</time>
      </trkpt>
      <trkpt lat="42.97222" lon="-0.04355">
        <ele>856</ele>
        <time>2021-10-09T09:21:51</time>
      </trkpt>
      <trkpt lat="42.97222" lon="-0.04353">
        <ele>856.2</ele>
        <time>2021-10-09T09:21:52</time>
      </trkpt>
      <trkpt lat="42.97222" lon="-0.04351">
        <ele>856.4</ele>
        <time>2021-10-09T09:21:53</time>
      </trkpt>
      <trkpt lat="42.97222" lon="-0.0435">
        <ele>856.6</ele>
        <time>2021-10-09T09:21:54</time>
      </trkpt>
      <trkpt lat="42.97221" lon="-0.04348">
        <ele>856.6</ele>
        <time>2021-10-09T09:21:55</time>
      </trkpt>
      <trkpt lat="42.97221" lon="-0.04346">
        <ele>856.8</ele>
        <time>2021-10-09T09:21:56</time>
      </trkpt>
      <trkpt lat="42.97221" lon="-0.04345">
        <ele>857</ele>
        <time>2021-10-09T09:21:57</time>
      </trkpt>
      <trkpt lat="42.9722" lon="-0.04343">
        <ele>857.2</ele>
        <time>2021-10-09T09:21:58</time>
      </trkpt>
      <trkpt lat="42.9722" lon="-0.04342">
        <ele>857.2</ele>
        <time>2021-10-09T09:21:59</time>
      </trkpt>
      <trkpt lat="42.9722" lon="-0.0434">
        <ele>857.4</ele>
        <time>2021-10-09T09:22:00</time>
      </trkpt>
      <trkpt lat="42.97219" lon="-0.04339">
        <ele>857.6</ele>
        <time>2021-10-09T09:22:01</time>
      </trkpt>
      <trkpt lat="42.97218" lon="-0.04338">
        <ele>857.8</ele>
        <time>2021-10-09T09:22:02</time>
      </trkpt>
      <trkpt lat="42.97218" lon="-0.04337">
        <ele>858</ele>
        <time>2021-10-09T09:22:03</time>
      </trkpt>
      <trkpt lat="42.97217" lon="-0.04335">
        <ele>858.2</ele>
        <time>2021-10-09T09:22:04</time>
      </trkpt>
      <trkpt lat="42.97217" lon="-0.04334">
        <ele>858.4</ele>
        <time>2021-10-09T09:22:05</time>
      </trkpt>
      <trkpt lat="42.97217" lon="-0.04333">
        <ele>858.4</ele>
        <time>2021-10-09T09:22:06</time>
      </trkpt>
      <trkpt lat="42.97217" lon="-0.04331">
        <ele>858.8</ele>
        <time>2021-10-09T09:22:07</time>
      </trkpt>
      <trkpt lat="42.97216" lon="-0.0433">
        <ele>858.8</ele>
        <time>2021-10-09T09:22:08</time>
      </trkpt>
      <trkpt lat="42.97215" lon="-0.04328">
        <ele>859.2</ele>
        <time>2021-10-09T09:22:09</time>
      </trkpt>
      <trkpt lat="42.97215" lon="-0.04327">
        <ele>859.4</ele>
        <time>2021-10-09T09:22:10</time>
      </trkpt>
      <trkpt lat="42.97214" lon="-0.04325">
        <ele>859.6</ele>
        <time>2021-10-09T09:22:11</time>
      </trkpt>
      <trkpt lat="42.97214" lon="-0.04324">
        <ele>859.8</ele>
        <time>2021-10-09T09:22:12</time>
      </trkpt>
      <trkpt lat="42.97214" lon="-0.04323">
        <ele>860</ele>
        <time>2021-10-09T09:22:13</time>
      </trkpt>
      <trkpt lat="42.97214" lon="-0.04322">
        <ele>860.2</ele>
        <time>2021-10-09T09:22:14</time>
      </trkpt>
      <trkpt lat="42.97214" lon="-0.0432">
        <ele>860.2</ele>
        <time>2021-10-09T09:22:15</time>
      </trkpt>
      <trkpt lat="42.97213" lon="-0.04318">
        <ele>860.4</ele>
        <time>2021-10-09T09:22:16</time>
      </trkpt>
      <trkpt lat="42.97213" lon="-0.04317">
        <ele>860.4</ele>
        <time>2021-10-09T09:22:17</time>
      </trkpt>
      <trkpt lat="42.97212" lon="-0.04315">
        <ele>860.6</ele>
        <time>2021-10-09T09:22:18</time>
      </trkpt>
      <trkpt lat="42.97212" lon="-0.04314">
        <ele>860.8</ele>
        <time>2021-10-09T09:22:19</time>
      </trkpt>
      <trkpt lat="42.97211" lon="-0.04313">
        <ele>860.8</ele>
        <time>2021-10-09T09:22:20</time>
      </trkpt>
      <trkpt lat="42.97211" lon="-0.04311">
        <ele>861</ele>
        <time>2021-10-09T09:22:21</time>
      </trkpt>
      <trkpt lat="42.97211" lon="-0.0431">
        <ele>861</ele>
        <time>2021-10-09T09:22:22</time>
      </trkpt>
      <trkpt lat="42.9721" lon="-0.04308">
        <ele>861.2</ele>
        <time>2021-10-09T09:22:23</time>
      </trkpt>
      <trkpt lat="42.97209" lon="-0.04306">
        <ele>861.2</ele>
        <time>2021-10-09T09:22:24</time>
      </trkpt>
      <trkpt lat="42.97208" lon="-0.04306">
        <ele>861.4</ele>
        <time>2021-10-09T09:22:25</time>
      </trkpt>
      <trkpt lat="42.97207" lon="-0.04305">
        <ele>861.6</ele>
        <time>2021-10-09T09:22:26</time>
      </trkpt>
      <trkpt lat="42.97207" lon="-0.04303">
        <ele>861.8</ele>
        <time>2021-10-09T09:22:27</time>
      </trkpt>
      <trkpt lat="42.97206" lon="-0.04303">
        <ele>862</ele>
        <time>2021-10-09T09:22:28</time>
      </trkpt>
      <trkpt lat="42.97205" lon="-0.04301">
        <ele>862</ele>
        <time>2021-10-09T09:22:29</time>
      </trkpt>
      <trkpt lat="42.97204" lon="-0.04301">
        <ele>862.2</ele>
        <time>2021-10-09T09:22:30</time>
      </trkpt>
      <trkpt lat="42.97203" lon="-0.04299">
        <ele>862.4</ele>
        <time>2021-10-09T09:22:31</time>
      </trkpt>
      <trkpt lat="42.97203" lon="-0.04298">
        <ele>862.6</ele>
        <time>2021-10-09T09:22:32</time>
      </trkpt>
      <trkpt lat="42.97202" lon="-0.04297">
        <ele>862.8</ele>
        <time>2021-10-09T09:22:33</time>
      </trkpt>
      <trkpt lat="42.97201" lon="-0.04296">
        <ele>862.8</ele>
        <time>2021-10-09T09:22:34</time>
      </trkpt>
      <trkpt lat="42.972" lon="-0.04295">
        <ele>863</ele>
        <time>2021-10-09T09:22:35</time>
      </trkpt>
      <trkpt lat="42.97199" lon="-0.04295">
        <ele>863.2</ele>
        <time>2021-10-09T09:22:36</time>
      </trkpt>
      <trkpt lat="42.97198" lon="-0.04294">
        <ele>863.4</ele>
        <time>2021-10-09T09:22:37</time>
      </trkpt>
      <trkpt lat="42.97198" lon="-0.04293">
        <ele>863.6</ele>
        <time>2021-10-09T09:22:38</time>
      </trkpt>
      <trkpt lat="42.97197" lon="-0.04292">
        <ele>863.8</ele>
        <time>2021-10-09T09:22:39</time>
      </trkpt>
      <trkpt lat="42.97196" lon="-0.04291">
        <ele>864</ele>
        <time>2021-10-09T09:22:40</time>
      </trkpt>
      <trkpt lat="42.97196" lon="-0.04289">
        <ele>864.2</ele>
        <time>2021-10-09T09:22:41</time>
      </trkpt>
      <trkpt lat="42.97195" lon="-0.04288">
        <ele>864.4</ele>
        <time>2021-10-09T09:22:42</time>
      </trkpt>
      <trkpt lat="42.97194" lon="-0.04287">
        <ele>864.6</ele>
        <time>2021-10-09T09:22:43</time>
      </trkpt>
      <trkpt lat="42.97193" lon="-0.04287">
        <ele>864.6</ele>
        <time>2021-10-09T09:22:44</time>
      </trkpt>
      <trkpt lat="42.97192" lon="-0.04286">
        <ele>864.8</ele>
        <time>2021-10-09T09:22:45</time>
      </trkpt>
      <trkpt lat="42.97191" lon="-0.04285">
        <ele>864.8</ele>
        <time>2021-10-09T09:22:46</time>
      </trkpt>
      <trkpt lat="42.9719" lon="-0.04284">
        <ele>865</ele>
        <time>2021-10-09T09:22:47</time>
      </trkpt>
      <trkpt lat="42.97188" lon="-0.04283">
        <ele>865.2</ele>
        <time>2021-10-09T09:22:48</time>
      </trkpt>
      <trkpt lat="42.97187" lon="-0.04282">
        <ele>865.4</ele>
        <time>2021-10-09T09:22:49</time>
      </trkpt>
      <trkpt lat="42.97186" lon="-0.04281">
        <ele>865.6</ele>
        <time>2021-10-09T09:22:50</time>
      </trkpt>
      <trkpt lat="42.97185" lon="-0.0428">
        <ele>865.8</ele>
        <time>2021-10-09T09:22:51</time>
      </trkpt>
      <trkpt lat="42.97183" lon="-0.04279">
        <ele>866</ele>
        <time>2021-10-09T09:22:52</time>
      </trkpt>
      <trkpt lat="42.97182" lon="-0.04278">
        <ele>866</ele>
        <time>2021-10-09T09:22:53</time>
      </trkpt>
      <trkpt lat="42.97181" lon="-0.04278">
        <ele>866</ele>
        <time>2021-10-09T09:22:54</time>
      </trkpt>
      <trkpt lat="42.9718" lon="-0.04277">
        <ele>866</ele>
        <time>2021-10-09T09:22:55</time>
      </trkpt>
      <trkpt lat="42.97178" lon="-0.04275">
        <ele>865.8</ele>
        <time>2021-10-09T09:22:56</time>
      </trkpt>
      <trkpt lat="42.97177" lon="-0.04273">
        <ele>865.8</ele>
        <time>2021-10-09T09:22:57</time>
      </trkpt>
      <trkpt lat="42.97175" lon="-0.04272">
        <ele>865.8</ele>
        <time>2021-10-09T09:22:58</time>
      </trkpt>
      <trkpt lat="42.97174" lon="-0.04269">
        <ele>865.8</ele>
        <time>2021-10-09T09:22:59</time>
      </trkpt>
      <trkpt lat="42.97173" lon="-0.04267">
        <ele>865.8</ele>
        <time>2021-10-09T09:23:00</time>
      </trkpt>
      <trkpt lat="42.97172" lon="-0.04265">
        <ele>866</ele>
        <time>2021-10-09T09:23:01</time>
      </trkpt>
      <trkpt lat="42.9717" lon="-0.04264">
        <ele>866</ele>
        <time>2021-10-09T09:23:02</time>
      </trkpt>
      <trkpt lat="42.97169" lon="-0.04262">
        <ele>866.2</ele>
        <time>2021-10-09T09:23:03</time>
      </trkpt>
      <trkpt lat="42.97168" lon="-0.04261">
        <ele>866.2</ele>
        <time>2021-10-09T09:23:04</time>
      </trkpt>
      <trkpt lat="42.97166" lon="-0.04259">
        <ele>866.2</ele>
        <time>2021-10-09T09:23:05</time>
      </trkpt>
      <trkpt lat="42.97165" lon="-0.04257">
        <ele>866.4</ele>
        <time>2021-10-09T09:23:06</time>
      </trkpt>
      <trkpt lat="42.97164" lon="-0.04255">
        <ele>866.4</ele>
        <time>2021-10-09T09:23:07</time>
      </trkpt>
      <trkpt lat="42.97163" lon="-0.04254">
        <ele>866.6</ele>
        <time>2021-10-09T09:23:08</time>
      </trkpt>
      <trkpt lat="42.97162" lon="-0.04251">
        <ele>866.8</ele>
        <time>2021-10-09T09:23:09</time>
      </trkpt>
      <trkpt lat="42.9716" lon="-0.04249">
        <ele>867</ele>
        <time>2021-10-09T09:23:10</time>
      </trkpt>
      <trkpt lat="42.97159" lon="-0.04247">
        <ele>867</ele>
        <time>2021-10-09T09:23:11</time>
      </trkpt>
      <trkpt lat="42.97159" lon="-0.04246">
        <ele>867.2</ele>
        <time>2021-10-09T09:23:12</time>
      </trkpt>
      <trkpt lat="42.97158" lon="-0.04244">
        <ele>867.2</ele>
        <time>2021-10-09T09:23:13</time>
      </trkpt>
      <trkpt lat="42.97158" lon="-0.04242">
        <ele>867.4</ele>
        <time>2021-10-09T09:23:14</time>
      </trkpt>
      <trkpt lat="42.97157" lon="-0.0424">
        <ele>867.6</ele>
        <time>2021-10-09T09:23:15</time>
      </trkpt>
      <trkpt lat="42.97157" lon="-0.04239">
        <ele>867.8</ele>
        <time>2021-10-09T09:23:16</time>
      </trkpt>
      <trkpt lat="42.97156" lon="-0.04239">
        <ele>867.8</ele>
        <time>2021-10-09T09:23:17</time>
      </trkpt>
      <trkpt lat="42.97156" lon="-0.04238">
        <ele>868</ele>
        <time>2021-10-09T09:23:18</time>
      </trkpt>
      <trkpt lat="42.97155" lon="-0.04235">
        <ele>868</ele>
        <time>2021-10-09T09:23:19</time>
      </trkpt>
      <trkpt lat="42.97154" lon="-0.04233">
        <ele>868.2</ele>
        <time>2021-10-09T09:23:20</time>
      </trkpt>
      <trkpt lat="42.97153" lon="-0.04231">
        <ele>868.2</ele>
        <time>2021-10-09T09:23:21</time>
      </trkpt>
      <trkpt lat="42.97153" lon="-0.04228">
        <ele>868.4</ele>
        <time>2021-10-09T09:23:22</time>
      </trkpt>
      <trkpt lat="42.97151" lon="-0.04225">
        <ele>868.4</ele>
        <time>2021-10-09T09:23:23</time>
      </trkpt>
      <trkpt lat="42.9715" lon="-0.04222">
        <ele>868.4</ele>
        <time>2021-10-09T09:23:24</time>
      </trkpt>
      <trkpt lat="42.97149" lon="-0.04218">
        <ele>868.4</ele>
        <time>2021-10-09T09:23:25</time>
      </trkpt>
      <trkpt lat="42.97148" lon="-0.04215">
        <ele>868.6</ele>
        <time>2021-10-09T09:23:26</time>
      </trkpt>
      <trkpt lat="42.97147" lon="-0.04212">
        <ele>868.6</ele>
        <time>2021-10-09T09:23:27</time>
      </trkpt>
      <trkpt lat="42.97147" lon="-0.0421">
        <ele>868.6</ele>
        <time>2021-10-09T09:23:28</time>
      </trkpt>
      <trkpt lat="42.97146" lon="-0.04207">
        <ele>868.8</ele>
        <time>2021-10-09T09:23:29</time>
      </trkpt>
      <trkpt lat="42.97145" lon="-0.04205">
        <ele>868.6</ele>
        <time>2021-10-09T09:23:30</time>
      </trkpt>
      <trkpt lat="42.97143" lon="-0.04202">
        <ele>868.8</ele>
        <time>2021-10-09T09:23:31</time>
      </trkpt>
      <trkpt lat="42.97143" lon="-0.04201">
        <ele>869</ele>
        <time>2021-10-09T09:23:32</time>
      </trkpt>
      <trkpt lat="42.97142" lon="-0.04199">
        <ele>869.2</ele>
        <time>2021-10-09T09:23:33</time>
      </trkpt>
      <trkpt lat="42.9714" lon="-0.04197">
        <ele>869.2</ele>
        <time>2021-10-09T09:23:34</time>
      </trkpt>
      <trkpt lat="42.9714" lon="-0.04196">
        <ele>869.4</ele>
        <time>2021-10-09T09:23:35</time>
      </trkpt>
      <trkpt lat="42.97139" lon="-0.04195">
        <ele>869.6</ele>
        <time>2021-10-09T09:23:36</time>
      </trkpt>
      <trkpt lat="42.97138" lon="-0.04194">
        <ele>869.8</ele>
        <time>2021-10-09T09:23:37</time>
      </trkpt>
      <trkpt lat="42.97137" lon="-0.04193">
        <ele>870</ele>
        <time>2021-10-09T09:23:38</time>
      </trkpt>
      <trkpt lat="42.97135" lon="-0.04193">
        <ele>870.2</ele>
        <time>2021-10-09T09:23:39</time>
      </trkpt>
      <trkpt lat="42.97135" lon="-0.04193">
        <ele>870.4</ele>
        <time>2021-10-09T09:23:40</time>
      </trkpt>
      <trkpt lat="42.97134" lon="-0.04193">
        <ele>870.6</ele>
        <time>2021-10-09T09:23:41</time>
      </trkpt>
      <trkpt lat="42.97133" lon="-0.04193">
        <ele>870.8</ele>
        <time>2021-10-09T09:23:42</time>
      </trkpt>
      <trkpt lat="42.97125" lon="-0.04198">
        <ele>872.6</ele>
        <time>2021-10-09T09:23:51</time>
      </trkpt>
      <trkpt lat="42.97125" lon="-0.04199">
        <ele>872.8</ele>
        <time>2021-10-09T09:23:52</time>
      </trkpt>
      <trkpt lat="42.97124" lon="-0.04199">
        <ele>873.2</ele>
        <time>2021-10-09T09:23:53</time>
      </trkpt>
      <trkpt lat="42.97123" lon="-0.042">
        <ele>873.4</ele>
        <time>2021-10-09T09:23:54</time>
      </trkpt>
      <trkpt lat="42.97122" lon="-0.042">
        <ele>873.6</ele>
        <time>2021-10-09T09:23:55</time>
      </trkpt>
      <trkpt lat="42.97121" lon="-0.042">
        <ele>873.8</ele>
        <time>2021-10-09T09:23:56</time>
      </trkpt>
      <trkpt lat="42.9712" lon="-0.04201">
        <ele>874.2</ele>
        <time>2021-10-09T09:23:57</time>
      </trkpt>
      <trkpt lat="42.97119" lon="-0.04202">
        <ele>874.6</ele>
        <time>2021-10-09T09:23:58</time>
      </trkpt>
      <trkpt lat="42.97118" lon="-0.04202">
        <ele>874.8</ele>
        <time>2021-10-09T09:23:59</time>
      </trkpt>
      <trkpt lat="42.97117" lon="-0.04203">
        <ele>875.2</ele>
        <time>2021-10-09T09:24:00</time>
      </trkpt>
      <trkpt lat="42.97117" lon="-0.04204">
        <ele>875.6</ele>
        <time>2021-10-09T09:24:01</time>
      </trkpt>
      <trkpt lat="42.97116" lon="-0.04205">
        <ele>876</ele>
        <time>2021-10-09T09:24:02</time>
      </trkpt>
      <trkpt lat="42.97116" lon="-0.04206">
        <ele>876.2</ele>
        <time>2021-10-09T09:24:03</time>
      </trkpt>
      <trkpt lat="42.97116" lon="-0.04207">
        <ele>876.4</ele>
        <time>2021-10-09T09:24:04</time>
      </trkpt>
      <trkpt lat="42.97116" lon="-0.04208">
        <ele>876.8</ele>
        <time>2021-10-09T09:24:05</time>
      </trkpt>
      <trkpt lat="42.97116" lon="-0.04209">
        <ele>877.2</ele>
        <time>2021-10-09T09:24:06</time>
      </trkpt>
      <trkpt lat="42.97115" lon="-0.0421">
        <ele>877.4</ele>
        <time>2021-10-09T09:24:07</time>
      </trkpt>
      <trkpt lat="42.97115" lon="-0.0421">
        <ele>877.6</ele>
        <time>2021-10-09T09:24:08</time>
      </trkpt>
      <trkpt lat="42.97114" lon="-0.0421">
        <ele>877.8</ele>
        <time>2021-10-09T09:24:09</time>
      </trkpt>
      <trkpt lat="42.97113" lon="-0.04211">
        <ele>878.2</ele>
        <time>2021-10-09T09:24:10</time>
      </trkpt>
      <trkpt lat="42.97113" lon="-0.04212">
        <ele>878.6</ele>
        <time>2021-10-09T09:24:11</time>
      </trkpt>
      <trkpt lat="42.97113" lon="-0.04213">
        <ele>879</ele>
        <time>2021-10-09T09:24:12</time>
      </trkpt>
      <trkpt lat="42.97102" lon="-0.04232">
        <ele>884.8</ele>
        <time>2021-10-09T09:24:36</time>
      </trkpt>
      <trkpt lat="42.97101" lon="-0.04233">
        <ele>885.6</ele>
        <time>2021-10-09T09:24:37</time>
      </trkpt>
      <trkpt lat="42.971" lon="-0.04234">
        <ele>886.2</ele>
        <time>2021-10-09T09:24:38</time>
      </trkpt>
      <trkpt lat="42.97099" lon="-0.04234">
        <ele>886.8</ele>
        <time>2021-10-09T09:24:39</time>
      </trkpt>
      <trkpt lat="42.97098" lon="-0.04236">
        <ele>887.2</ele>
        <time>2021-10-09T09:24:40</time>
      </trkpt>
      <trkpt lat="42.97096" lon="-0.04238">
        <ele>887.8</ele>
        <time>2021-10-09T09:24:41</time>
      </trkpt>
      <trkpt lat="42.97095" lon="-0.0424">
        <ele>888.2</ele>
        <time>2021-10-09T09:24:42</time>
      </trkpt>
      <trkpt lat="42.97094" lon="-0.04242">
        <ele>888.4</ele>
        <time>2021-10-09T09:24:43</time>
      </trkpt>
      <trkpt lat="42.97093" lon="-0.04244">
        <ele>888.6</ele>
        <time>2021-10-09T09:24:44</time>
      </trkpt>
      <trkpt lat="42.97091" lon="-0.04246">
        <ele>888.6</ele>
        <time>2021-10-09T09:24:45</time>
      </trkpt>
      <trkpt lat="42.97091" lon="-0.04247">
        <ele>888.8</ele>
        <time>2021-10-09T09:24:46</time>
      </trkpt>
      <trkpt lat="42.97091" lon="-0.04248">
        <ele>888.8</ele>
        <time>2021-10-09T09:24:47</time>
      </trkpt>
      <trkpt lat="42.9709" lon="-0.0425">
        <ele>888.6</ele>
        <time>2021-10-09T09:24:48</time>
      </trkpt>
      <trkpt lat="42.97089" lon="-0.04252">
        <ele>888.4</ele>
        <time>2021-10-09T09:24:49</time>
      </trkpt>
      <trkpt lat="42.97088" lon="-0.04254">
        <ele>888.4</ele>
        <time>2021-10-09T09:24:50</time>
      </trkpt>
      <trkpt lat="42.97087" lon="-0.04258">
        <ele>888.4</ele>
        <time>2021-10-09T09:24:51</time>
      </trkpt>
      <trkpt lat="42.97087" lon="-0.0426">
        <ele>888.4</ele>
        <time>2021-10-09T09:24:52</time>
      </trkpt>
      <trkpt lat="42.97085" lon="-0.0426">
        <ele>888.6</ele>
        <time>2021-10-09T09:24:53</time>
      </trkpt>
      <trkpt lat="42.97084" lon="-0.04262">
        <ele>888.8</ele>
        <time>2021-10-09T09:24:54</time>
      </trkpt>
      <trkpt lat="42.97083" lon="-0.04263">
        <ele>888.8</ele>
        <time>2021-10-09T09:24:55</time>
      </trkpt>
      <trkpt lat="42.97082" lon="-0.04264">
        <ele>888.8</ele>
        <time>2021-10-09T09:24:56</time>
      </trkpt>
      <trkpt lat="42.97081" lon="-0.04266">
        <ele>889</ele>
        <time>2021-10-09T09:24:57</time>
      </trkpt>
      <trkpt lat="42.9708" lon="-0.04268">
        <ele>889</ele>
        <time>2021-10-09T09:24:58</time>
      </trkpt>
      <trkpt lat="42.97079" lon="-0.04269">
        <ele>889.2</ele>
        <time>2021-10-09T09:24:59</time>
      </trkpt>
      <trkpt lat="42.97078" lon="-0.04272">
        <ele>889.4</ele>
        <time>2021-10-09T09:25:00</time>
      </trkpt>
      <trkpt lat="42.97077" lon="-0.04273">
        <ele>889.6</ele>
        <time>2021-10-09T09:25:01</time>
      </trkpt>
      <trkpt lat="42.97077" lon="-0.04274">
        <ele>889.6</ele>
        <time>2021-10-09T09:25:02</time>
      </trkpt>
      <trkpt lat="42.97076" lon="-0.04274">
        <ele>889.8</ele>
        <time>2021-10-09T09:25:03</time>
      </trkpt>
      <trkpt lat="42.97074" lon="-0.04276">
        <ele>889.8</ele>
        <time>2021-10-09T09:25:04</time>
      </trkpt>
      <trkpt lat="42.97073" lon="-0.04277">
        <ele>890</ele>
        <time>2021-10-09T09:25:05</time>
      </trkpt>
      <trkpt lat="42.97073" lon="-0.04278">
        <ele>890</ele>
        <time>2021-10-09T09:25:06</time>
      </trkpt>
      <trkpt lat="42.97072" lon="-0.04279">
        <ele>890.2</ele>
        <time>2021-10-09T09:25:07</time>
      </trkpt>
      <trkpt lat="42.97071" lon="-0.04279">
        <ele>890.4</ele>
        <time>2021-10-09T09:25:08</time>
      </trkpt>
      <trkpt lat="42.97019" lon="-0.04314">
        <ele>897</ele>
        <time>2021-10-09T09:25:55</time>
      </trkpt>
      <trkpt lat="42.97017" lon="-0.04315">
        <ele>897</ele>
        <time>2021-10-09T09:25:56</time>
      </trkpt>
      <trkpt lat="42.97015" lon="-0.04317">
        <ele>897.2</ele>
        <time>2021-10-09T09:25:57</time>
      </trkpt>
      <trkpt lat="42.97014" lon="-0.04318">
        <ele>897.2</ele>
        <time>2021-10-09T09:25:58</time>
      </trkpt>
      <trkpt lat="42.97013" lon="-0.04318">
        <ele>897.4</ele>
        <time>2021-10-09T09:25:59</time>
      </trkpt>
      <trkpt lat="42.97011" lon="-0.0432">
        <ele>897.4</ele>
        <time>2021-10-09T09:26:00</time>
      </trkpt>
      <trkpt lat="42.9701" lon="-0.04321">
        <ele>897.6</ele>
        <time>2021-10-09T09:26:01</time>
      </trkpt>
      <trkpt lat="42.97009" lon="-0.04322">
        <ele>897.6</ele>
        <time>2021-10-09T09:26:02</time>
      </trkpt>
      <trkpt lat="42.97008" lon="-0.04322">
        <ele>897.8</ele>
        <time>2021-10-09T09:26:03</time>
      </trkpt>
      <trkpt lat="42.97007" lon="-0.04322">
        <ele>898</ele>
        <time>2021-10-09T09:26:04</time>
      </trkpt>
      <trkpt lat="42.97006" lon="-0.04322">
        <ele>898</ele>
        <time>2021-10-09T09:26:05</time>
      </trkpt>
      <trkpt lat="42.97005" lon="-0.04323">
        <ele>898</ele>
        <time>2021-10-09T09:26:06</time>
      </trkpt>
      <trkpt lat="42.97004" lon="-0.04325">
        <ele>898.2</ele>
        <time>2021-10-09T09:26:07</time>
      </trkpt>
      <trkpt lat="42.97002" lon="-0.04326">
        <ele>898.4</ele>
        <time>2021-10-09T09:26:08</time>
      </trkpt>
      <trkpt lat="42.97" lon="-0.04327">
        <ele>898.4</ele>
        <time>2021-10-09T09:26:09</time>
      </trkpt>
      <trkpt lat="42.96998" lon="-0.04328">
        <ele>898.6</ele>
        <time>2021-10-09T09:26:10</time>
      </trkpt>
      <trkpt lat="42.96996" lon="-0.04329">
        <ele>898.6</ele>
        <time>2021-10-09T09:26:11</time>
      </trkpt>
      <trkpt lat="42.96994" lon="-0.04331">
        <ele>898.8</ele>
        <time>2021-10-09T09:26:12</time>
      </trkpt>
      <trkpt lat="42.96992" lon="-0.04332">
        <ele>899</ele>
        <time>2021-10-09T09:26:13</time>
      </trkpt>
      <trkpt lat="42.96991" lon="-0.04332">
        <ele>899</ele>
        <time>2021-10-09T09:26:14</time>
      </trkpt>
      <trkpt lat="42.96989" lon="-0.04333">
        <ele>899.2</ele>
        <time>2021-10-09T09:26:15</time>
      </trkpt>
      <trkpt lat="42.96987" lon="-0.04333">
        <ele>899.4</ele>
        <time>2021-10-09T09:26:16</time>
      </trkpt>
      <trkpt lat="42.96986" lon="-0.04333">
        <ele>899.6</ele>
        <time>2021-10-09T09:26:17</time>
      </trkpt>
      <trkpt lat="42.96985" lon="-0.04334">
        <ele>899.8</ele>
        <time>2021-10-09T09:26:18</time>
      </trkpt>
      <trkpt lat="42.96983" lon="-0.04334">
        <ele>900</ele>
        <time>2021-10-09T09:26:19</time>
      </trkpt>
      <trkpt lat="42.96981" lon="-0.04335">
        <ele>900.2</ele>
        <time>2021-10-09T09:26:20</time>
      </trkpt>
      <trkpt lat="42.9698" lon="-0.04334">
        <ele>900.2</ele>
        <time>2021-10-09T09:26:21</time>
      </trkpt>
      <trkpt lat="42.96979" lon="-0.04334">
        <ele>900.4</ele>
        <time>2021-10-09T09:26:22</time>
      </trkpt>
      <trkpt lat="42.96978" lon="-0.04335">
        <ele>900.6</ele>
        <time>2021-10-09T09:26:23</time>
      </trkpt>
      <trkpt lat="42.96977" lon="-0.04336">
        <ele>900.8</ele>
        <time>2021-10-09T09:26:24</time>
      </trkpt>
      <trkpt lat="42.96976" lon="-0.04336">
        <ele>900.8</ele>
        <time>2021-10-09T09:26:25</time>
      </trkpt>
      <trkpt lat="42.96974" lon="-0.04337">
        <ele>901</ele>
        <time>2021-10-09T09:26:26</time>
      </trkpt>
      <trkpt lat="42.96973" lon="-0.04338">
        <ele>901.2</ele>
        <time>2021-10-09T09:26:27</time>
      </trkpt>
      <trkpt lat="42.96972" lon="-0.04339">
        <ele>901.4</ele>
        <time>2021-10-09T09:26:28</time>
      </trkpt>
      <trkpt lat="42.9697" lon="-0.0434">
        <ele>901.6</ele>
        <time>2021-10-09T09:26:29</time>
      </trkpt>
      <trkpt lat="42.96968" lon="-0.04341">
        <ele>901.8</ele>
        <time>2021-10-09T09:26:30</time>
      </trkpt>
      <trkpt lat="42.96967" lon="-0.04341">
        <ele>901.8</ele>
        <time>2021-10-09T09:26:31</time>
      </trkpt>
      <trkpt lat="42.96965" lon="-0.04342">
        <ele>902</ele>
        <time>2021-10-09T09:26:32</time>
      </trkpt>
      <trkpt lat="42.96964" lon="-0.04342">
        <ele>902.2</ele>
        <time>2021-10-09T09:26:33</time>
      </trkpt>
      <trkpt lat="42.96963" lon="-0.04343">
        <ele>902.4</ele>
        <time>2021-10-09T09:26:34</time>
      </trkpt>
      <trkpt lat="42.96961" lon="-0.04344">
        <ele>902.6</ele>
        <time>2021-10-09T09:26:35</time>
      </trkpt>
      <trkpt lat="42.9696" lon="-0.04345">
        <ele>902.6</ele>
        <time>2021-10-09T09:26:36</time>
      </trkpt>
      <trkpt lat="42.96959" lon="-0.04346">
        <ele>902.8</ele>
        <time>2021-10-09T09:26:37</time>
      </trkpt>
      <trkpt lat="42.96958" lon="-0.04346">
        <ele>903</ele>
        <time>2021-10-09T09:26:38</time>
      </trkpt>
      <trkpt lat="42.96956" lon="-0.04347">
        <ele>903</ele>
        <time>2021-10-09T09:26:39</time>
      </trkpt>
      <trkpt lat="42.96955" lon="-0.04348">
        <ele>903.2</ele>
        <time>2021-10-09T09:26:40</time>
      </trkpt>
      <trkpt lat="42.96953" lon="-0.0435">
        <ele>903.4</ele>
        <time>2021-10-09T09:26:41</time>
      </trkpt>
      <trkpt lat="42.96952" lon="-0.04351">
        <ele>903.4</ele>
        <time>2021-10-09T09:26:42</time>
      </trkpt>
      <trkpt lat="42.96952" lon="-0.04352">
        <ele>903.6</ele>
        <time>2021-10-09T09:26:43</time>
      </trkpt>
      <trkpt lat="42.96951" lon="-0.04353">
        <ele>903.8</ele>
        <time>2021-10-09T09:26:44</time>
      </trkpt>
      <trkpt lat="42.96949" lon="-0.04354">
        <ele>903.8</ele>
        <time>2021-10-09T09:26:45</time>
      </trkpt>
      <trkpt lat="42.96948" lon="-0.04357">
        <ele>904</ele>
        <time>2021-10-09T09:26:46</time>
      </trkpt>
      <trkpt lat="42.96946" lon="-0.04359">
        <ele>904.4</ele>
        <time>2021-10-09T09:26:47</time>
      </trkpt>
      <trkpt lat="42.96945" lon="-0.0436">
        <ele>904.6</ele>
        <time>2021-10-09T09:26:48</time>
      </trkpt>
      <trkpt lat="42.96943" lon="-0.04362">
        <ele>905</ele>
        <time>2021-10-09T09:26:49</time>
      </trkpt>
      <trkpt lat="42.96942" lon="-0.04363">
        <ele>905</ele>
        <time>2021-10-09T09:26:50</time>
      </trkpt>
      <trkpt lat="42.9694" lon="-0.04364">
        <ele>905.2</ele>
        <time>2021-10-09T09:26:51</time>
      </trkpt>
      <trkpt lat="42.96939" lon="-0.04365">
        <ele>905.2</ele>
        <time>2021-10-09T09:26:52</time>
      </trkpt>
      <trkpt lat="42.96938" lon="-0.04366">
        <ele>905.2</ele>
        <time>2021-10-09T09:26:53</time>
      </trkpt>
      <trkpt lat="42.96937" lon="-0.04366">
        <ele>905.2</ele>
        <time>2021-10-09T09:26:54</time>
      </trkpt>
      <trkpt lat="42.96937" lon="-0.04367">
        <ele>905.2</ele>
        <time>2021-10-09T09:26:55</time>
      </trkpt>
      <trkpt lat="42.96937" lon="-0.04368">
        <ele>905.2</ele>
        <time>2021-10-09T09:26:56</time>
      </trkpt>
      <trkpt lat="42.96937" lon="-0.0437">
        <ele>905.2</ele>
        <time>2021-10-09T09:26:57</time>
      </trkpt>
      <trkpt lat="42.96936" lon="-0.04371">
        <ele>905</ele>
        <time>2021-10-09T09:26:58</time>
      </trkpt>
      <trkpt lat="42.96936" lon="-0.04372">
        <ele>905.2</ele>
        <time>2021-10-09T09:26:59</time>
      </trkpt>
      <trkpt lat="42.96936" lon="-0.04373">
        <ele>905.2</ele>
        <time>2021-10-09T09:27:00</time>
      </trkpt>
      <trkpt lat="42.96936" lon="-0.04373">
        <ele>905.4</ele>
        <time>2021-10-09T09:27:01</time>
      </trkpt>
      <trkpt lat="42.96935" lon="-0.04373">
        <ele>905.2</ele>
        <time>2021-10-09T09:27:02</time>
      </trkpt>
      <trkpt lat="42.96935" lon="-0.04373">
        <ele>905.2</ele>
        <time>2021-10-09T09:27:03</time>
      </trkpt>
      <trkpt lat="42.96935" lon="-0.04373">
        <ele>905.2</ele>
        <time>2021-10-09T09:27:04</time>
      </trkpt>
      <trkpt lat="42.96935" lon="-0.04374">
        <ele>905.2</ele>
        <time>2021-10-09T09:27:05</time>
      </trkpt>
      <trkpt lat="42.96924" lon="-0.04389">
        <ele>902.8</ele>
        <time>2021-10-09T09:42:38</time>
      </trkpt>
      <trkpt lat="42.96924" lon="-0.04391">
        <ele>903</ele>
        <time>2021-10-09T09:42:39</time>
      </trkpt>
      <trkpt lat="42.96923" lon="-0.04393">
        <ele>903.2</ele>
        <time>2021-10-09T09:42:40</time>
      </trkpt>
      <trkpt lat="42.96922" lon="-0.04394">
        <ele>903.2</ele>
        <time>2021-10-09T09:42:41</time>
      </trkpt>
      <trkpt lat="42.96921" lon="-0.04396">
        <ele>903.4</ele>
        <time>2021-10-09T09:42:42</time>
      </trkpt>
      <trkpt lat="42.9692" lon="-0.04397">
        <ele>903.4</ele>
        <time>2021-10-09T09:42:43</time>
      </trkpt>
      <trkpt lat="42.96919" lon="-0.04399">
        <ele>903.6</ele>
        <time>2021-10-09T09:42:44</time>
      </trkpt>
      <trkpt lat="42.96919" lon="-0.044">
        <ele>903.8</ele>
        <time>2021-10-09T09:42:45</time>
      </trkpt>
      <trkpt lat="42.96918" lon="-0.04402">
        <ele>903.8</ele>
        <time>2021-10-09T09:42:46</time>
      </trkpt>
      <trkpt lat="42.96917" lon="-0.04404">
        <ele>904</ele>
        <time>2021-10-09T09:42:47</time>
      </trkpt>
      <trkpt lat="42.96916" lon="-0.04405">
        <ele>904</ele>
        <time>2021-10-09T09:42:48</time>
      </trkpt>
      <trkpt lat="42.96916" lon="-0.04407">
        <ele>904</ele>
        <time>2021-10-09T09:42:49</time>
      </trkpt>
      <trkpt lat="42.96915" lon="-0.04409">
        <ele>904.2</ele>
        <time>2021-10-09T09:42:50</time>
      </trkpt>
      <trkpt lat="42.96914" lon="-0.04411">
        <ele>904.2</ele>
        <time>2021-10-09T09:42:51</time>
      </trkpt>
      <trkpt lat="42.96913" lon="-0.04412">
        <ele>904.2</ele>
        <time>2021-10-09T09:42:52</time>
      </trkpt>
      <trkpt lat="42.96912" lon="-0.04414">
        <ele>904.4</ele>
        <time>2021-10-09T09:42:53</time>
      </trkpt>
      <trkpt lat="42.96911" lon="-0.04415">
        <ele>904.6</ele>
        <time>2021-10-09T09:42:54</time>
      </trkpt>
      <trkpt lat="42.96911" lon="-0.04417">
        <ele>904.6</ele>
        <time>2021-10-09T09:42:55</time>
      </trkpt>
      <trkpt lat="42.9691" lon="-0.04418">
        <ele>904.6</ele>
        <time>2021-10-09T09:42:56</time>
      </trkpt>
      <trkpt lat="42.96909" lon="-0.0442">
        <ele>904.6</ele>
        <time>2021-10-09T09:42:57</time>
      </trkpt>
      <trkpt lat="42.96908" lon="-0.04421">
        <ele>905</ele>
        <time>2021-10-09T09:42:58</time>
      </trkpt>
      <trkpt lat="42.96908" lon="-0.04423">
        <ele>905</ele>
        <time>2021-10-09T09:42:59</time>
      </trkpt>
      <trkpt lat="42.96907" lon="-0.04424">
        <ele>905</ele>
        <time>2021-10-09T09:43:00</time>
      </trkpt>
      <trkpt lat="42.96906" lon="-0.04425">
        <ele>904.8</ele>
        <time>2021-10-09T09:43:01</time>
      </trkpt>
      <trkpt lat="42.96905" lon="-0.04426">
        <ele>905</ele>
        <time>2021-10-09T09:43:02</time>
      </trkpt>
      <trkpt lat="42.96905" lon="-0.04427">
        <ele>905.2</ele>
        <time>2021-10-09T09:43:03</time>
      </trkpt>
      <trkpt lat="42.96904" lon="-0.04429">
        <ele>905.4</ele>
        <time>2021-10-09T09:43:04</time>
      </trkpt>
      <trkpt lat="42.96903" lon="-0.0443">
        <ele>905.4</ele>
        <time>2021-10-09T09:43:05</time>
      </trkpt>
      <trkpt lat="42.96902" lon="-0.04432">
        <ele>905.4</ele>
        <time>2021-10-09T09:43:06</time>
      </trkpt>
      <trkpt lat="42.96902" lon="-0.04433">
        <ele>905.6</ele>
        <time>2021-10-09T09:43:07</time>
      </trkpt>
      <trkpt lat="42.96901" lon="-0.04435">
        <ele>905.8</ele>
        <time>2021-10-09T09:43:08</time>
      </trkpt>
      <trkpt lat="42.96901" lon="-0.04436">
        <ele>905.8</ele>
        <time>2021-10-09T09:43:09</time>
      </trkpt>
      <trkpt lat="42.969" lon="-0.04437">
        <ele>905.8</ele>
        <time>2021-10-09T09:43:10</time>
      </trkpt>
      <trkpt lat="42.96899" lon="-0.04438">
        <ele>906.2</ele>
        <time>2021-10-09T09:43:11</time>
      </trkpt>
      <trkpt lat="42.96899" lon="-0.04439">
        <ele>906.4</ele>
        <time>2021-10-09T09:43:12</time>
      </trkpt>
      <trkpt lat="42.96898" lon="-0.0444">
        <ele>906.6</ele>
        <time>2021-10-09T09:43:13</time>
      </trkpt>
      <trkpt lat="42.96897" lon="-0.04441">
        <ele>906.8</ele>
        <time>2021-10-09T09:43:14</time>
      </trkpt>
      <trkpt lat="42.96897" lon="-0.04443">
        <ele>906.8</ele>
        <time>2021-10-09T09:43:15</time>
      </trkpt>
      <trkpt lat="42.96896" lon="-0.04444">
        <ele>907.2</ele>
        <time>2021-10-09T09:43:16</time>
      </trkpt>
      <trkpt lat="42.96896" lon="-0.04445">
        <ele>907.4</ele>
        <time>2021-10-09T09:43:17</time>
      </trkpt>
      <trkpt lat="42.96895" lon="-0.04446">
        <ele>907.4</ele>
        <time>2021-10-09T09:43:18</time>
      </trkpt>
      <trkpt lat="42.96894" lon="-0.04448">
        <ele>907.6</ele>
        <time>2021-10-09T09:43:19</time>
      </trkpt>
      <trkpt lat="42.96894" lon="-0.04449">
        <ele>907.8</ele>
        <time>2021-10-09T09:43:20</time>
      </trkpt>
      <trkpt lat="42.96893" lon="-0.04451">
        <ele>908</ele>
        <time>2021-10-09T09:43:21</time>
      </trkpt>
      <trkpt lat="42.96893" lon="-0.04452">
        <ele>908.2</ele>
        <time>2021-10-09T09:43:22</time>
      </trkpt>
      <trkpt lat="42.96892" lon="-0.04453">
        <ele>908.4</ele>
        <time>2021-10-09T09:43:23</time>
      </trkpt>
      <trkpt lat="42.96891" lon="-0.04455">
        <ele>908.8</ele>
        <time>2021-10-09T09:43:24</time>
      </trkpt>
      <trkpt lat="42.9689" lon="-0.04456">
        <ele>908.8</ele>
        <time>2021-10-09T09:43:25</time>
      </trkpt>
      <trkpt lat="42.9689" lon="-0.04458">
        <ele>909.2</ele>
        <time>2021-10-09T09:43:26</time>
      </trkpt>
      <trkpt lat="42.9689" lon="-0.04459">
        <ele>909.4</ele>
        <time>2021-10-09T09:43:27</time>
      </trkpt>
      <trkpt lat="42.96889" lon="-0.0446">
        <ele>909.4</ele>
        <time>2021-10-09T09:43:28</time>
      </trkpt>
      <trkpt lat="42.96889" lon="-0.04462">
        <ele>909.6</ele>
        <time>2021-10-09T09:43:29</time>
      </trkpt>
      <trkpt lat="42.96888" lon="-0.04463">
        <ele>909.8</ele>
        <time>2021-10-09T09:43:30</time>
      </trkpt>
      <trkpt lat="42.96888" lon="-0.04464">
        <ele>910</ele>
        <time>2021-10-09T09:43:31</time>
      </trkpt>
      <trkpt lat="42.96887" lon="-0.04466">
        <ele>910</ele>
        <time>2021-10-09T09:43:32</time>
      </trkpt>
      <trkpt lat="42.96887" lon="-0.04467">
        <ele>910.2</ele>
        <time>2021-10-09T09:43:33</time>
      </trkpt>
      <trkpt lat="42.96887" lon="-0.04468">
        <ele>910.2</ele>
        <time>2021-10-09T09:43:34</time>
      </trkpt>
      <trkpt lat="42.96886" lon="-0.0447">
        <ele>910.4</ele>
        <time>2021-10-09T09:43:35</time>
      </trkpt>
      <trkpt lat="42.96886" lon="-0.04472">
        <ele>910.6</ele>
        <time>2021-10-09T09:43:36</time>
      </trkpt>
      <trkpt lat="42.96885" lon="-0.04473">
        <ele>910.6</ele>
        <time>2021-10-09T09:43:37</time>
      </trkpt>
      <trkpt lat="42.96885" lon="-0.04474">
        <ele>910.8</ele>
        <time>2021-10-09T09:43:38</time>
      </trkpt>
      <trkpt lat="42.96885" lon="-0.04475">
        <ele>910.8</ele>
        <time>2021-10-09T09:43:39</time>
      </trkpt>
      <trkpt lat="42.96884" lon="-0.04476">
        <ele>910.8</ele>
        <time>2021-10-09T09:43:40</time>
      </trkpt>
      <trkpt lat="42.96884" lon="-0.04476">
        <ele>911</ele>
        <time>2021-10-09T09:43:41</time>
      </trkpt>
      <trkpt lat="42.96883" lon="-0.04477">
        <ele>911</ele>
        <time>2021-10-09T09:43:42</time>
      </trkpt>
      <trkpt lat="42.96883" lon="-0.04477">
        <ele>911</ele>
        <time>2021-10-09T09:43:43</time>
      </trkpt>
      <trkpt lat="42.96883" lon="-0.04477">
        <ele>911</ele>
        <time>2021-10-09T09:43:44</time>
      </trkpt>
      <trkpt lat="42.96883" lon="-0.04477">
        <ele>910.8</ele>
        <time>2021-10-09T09:43:45</time>
      </trkpt>
      <trkpt lat="42.96873" lon="-0.04454">
        <ele>916</ele>
        <time>2021-10-09T09:47:18</time>
      </trkpt>
      <trkpt lat="42.96871" lon="-0.04453">
        <ele>916.4</ele>
        <time>2021-10-09T09:47:19</time>
      </trkpt>
      <trkpt lat="42.9687" lon="-0.04452">
        <ele>917</ele>
        <time>2021-10-09T09:47:20</time>
      </trkpt>
      <trkpt lat="42.96869" lon="-0.0445">
        <ele>917.6</ele>
        <time>2021-10-09T09:47:21</time>
      </trkpt>
      <trkpt lat="42.96868" lon="-0.04448">
        <ele>918</ele>
        <time>2021-10-09T09:47:22</time>
      </trkpt>
      <trkpt lat="42.96868" lon="-0.04447">
        <ele>918.6</ele>
        <time>2021-10-09T09:47:23</time>
      </trkpt>
      <trkpt lat="42.96867" lon="-0.04444">
        <ele>919.2</ele>
        <time>2021-10-09T09:47:24</time>
      </trkpt>
      <trkpt lat="42.96867" lon="-0.04442">
        <ele>919.6</ele>
        <time>2021-10-09T09:47:25</time>
      </trkpt>
      <trkpt lat="42.96867" lon="-0.0444">
        <ele>920</ele>
        <time>2021-10-09T09:47:26</time>
      </trkpt>
      <trkpt lat="42.96867" lon="-0.04438">
        <ele>920.6</ele>
        <time>2021-10-09T09:47:27</time>
      </trkpt>
      <trkpt lat="42.96866" lon="-0.04436">
        <ele>921.4</ele>
        <time>2021-10-09T09:47:28</time>
      </trkpt>
      <trkpt lat="42.96866" lon="-0.04436">
        <ele>921.8</ele>
        <time>2021-10-09T09:47:29</time>
      </trkpt>
      <trkpt lat="42.96866" lon="-0.04435">
        <ele>922.2</ele>
        <time>2021-10-09T09:47:30</time>
      </trkpt>
      <trkpt lat="42.96866" lon="-0.04434">
        <ele>922.2</ele>
        <time>2021-10-09T09:47:31</time>
      </trkpt>
      <trkpt lat="42.96866" lon="-0.04432">
        <ele>922.2</ele>
        <time>2021-10-09T09:47:32</time>
      </trkpt>
      <trkpt lat="42.96866" lon="-0.0443">
        <ele>922.6</ele>
        <time>2021-10-09T09:47:33</time>
      </trkpt>
      <trkpt lat="42.96866" lon="-0.04428">
        <ele>923</ele>
        <time>2021-10-09T09:47:34</time>
      </trkpt>
      <trkpt lat="42.96866" lon="-0.04425">
        <ele>923.6</ele>
        <time>2021-10-09T09:47:35</time>
      </trkpt>
      <trkpt lat="42.96865" lon="-0.04424">
        <ele>924.2</ele>
        <time>2021-10-09T09:47:36</time>
      </trkpt>
      <trkpt lat="42.96866" lon="-0.04421">
        <ele>924.6</ele>
        <time>2021-10-09T09:47:37</time>
      </trkpt>
      <trkpt lat="42.96865" lon="-0.04419">
        <ele>924.6</ele>
        <time>2021-10-09T09:47:38</time>
      </trkpt>
      <trkpt lat="42.96865" lon="-0.04417">
        <ele>925</ele>
        <time>2021-10-09T09:47:39</time>
      </trkpt>
      <trkpt lat="42.96865" lon="-0.04415">
        <ele>925.4</ele>
        <time>2021-10-09T09:47:40</time>
      </trkpt>
      <trkpt lat="42.96865" lon="-0.04413">
        <ele>925.8</ele>
        <time>2021-10-09T09:47:41</time>
      </trkpt>
      <trkpt lat="42.96865" lon="-0.04411">
        <ele>926</ele>
        <time>2021-10-09T09:47:42</time>
      </trkpt>
      <trkpt lat="42.96865" lon="-0.04409">
        <ele>926.4</ele>
        <time>2021-10-09T09:47:43</time>
      </trkpt>
      <trkpt lat="42.96865" lon="-0.04407">
        <ele>926.4</ele>
        <time>2021-10-09T09:47:44</time>
      </trkpt>
      <trkpt lat="42.96865" lon="-0.04405">
        <ele>926.6</ele>
        <time>2021-10-09T09:47:45</time>
      </trkpt>
      <trkpt lat="42.96865" lon="-0.04402">
        <ele>927</ele>
        <time>2021-10-09T09:47:46</time>
      </trkpt>
      <trkpt lat="42.96865" lon="-0.04401">
        <ele>927.2</ele>
        <time>2021-10-09T09:47:47</time>
      </trkpt>
      <trkpt lat="42.96865" lon="-0.04399">
        <ele>927.4</ele>
        <time>2021-10-09T09:47:48</time>
      </trkpt>
      <trkpt lat="42.96865" lon="-0.04397">
        <ele>927.6</ele>
        <time>2021-10-09T09:47:49</time>
      </trkpt>
      <trkpt lat="42.96864" lon="-0.04395">
        <ele>928</ele>
        <time>2021-10-09T09:47:50</time>
      </trkpt>
      <trkpt lat="42.96864" lon="-0.04393">
        <ele>928.2</ele>
        <time>2021-10-09T09:47:51</time>
      </trkpt>
      <trkpt lat="42.96864" lon="-0.04391">
        <ele>928.4</ele>
        <time>2021-10-09T09:47:52</time>
      </trkpt>
      <trkpt lat="42.96864" lon="-0.04389">
        <ele>928.4</ele>
        <time>2021-10-09T09:47:53</time>
      </trkpt>
      <trkpt lat="42.96864" lon="-0.04387">
        <ele>928.8</ele>
        <time>2021-10-09T09:47:54</time>
      </trkpt>
      <trkpt lat="42.96864" lon="-0.04386">
        <ele>929</ele>
        <time>2021-10-09T09:47:55</time>
      </trkpt>
      <trkpt lat="42.96864" lon="-0.04384">
        <ele>929.2</ele>
        <time>2021-10-09T09:47:56</time>
      </trkpt>
      <trkpt lat="42.96865" lon="-0.04382">
        <ele>929.4</ele>
        <time>2021-10-09T09:47:57</time>
      </trkpt>
      <trkpt lat="42.96865" lon="-0.0438">
        <ele>929.6</ele>
        <time>2021-10-09T09:47:58</time>
      </trkpt>
      <trkpt lat="42.96866" lon="-0.04379">
        <ele>929.8</ele>
        <time>2021-10-09T09:47:59</time>
      </trkpt>
      <trkpt lat="42.96866" lon="-0.04377">
        <ele>930</ele>
        <time>2021-10-09T09:48:00</time>
      </trkpt>
      <trkpt lat="42.96865" lon="-0.04375">
        <ele>930.2</ele>
        <time>2021-10-09T09:48:01</time>
      </trkpt>
      <trkpt lat="42.96865" lon="-0.04374">
        <ele>930.4</ele>
        <time>2021-10-09T09:48:02</time>
      </trkpt>
      <trkpt lat="42.96865" lon="-0.04374">
        <ele>930.4</ele>
        <time>2021-10-09T09:48:03</time>
      </trkpt>
      <trkpt lat="42.96865" lon="-0.04374">
        <ele>930.4</ele>
        <time>2021-10-09T09:48:04</time>
      </trkpt>
      <trkpt lat="42.96865" lon="-0.04373">
        <ele>930.2</ele>
        <time>2021-10-09T09:48:05</time>
      </trkpt>
      <trkpt lat="42.96864" lon="-0.04372">
        <ele>930.4</ele>
        <time>2021-10-09T09:48:06</time>
      </trkpt>
      <trkpt lat="42.96864" lon="-0.04371">
        <ele>930.4</ele>
        <time>2021-10-09T09:48:07</time>
      </trkpt>
      <trkpt lat="42.96864" lon="-0.0437">
        <ele>930.4</ele>
        <time>2021-10-09T09:48:08</time>
      </trkpt>
      <trkpt lat="42.96864" lon="-0.0437">
        <ele>930.4</ele>
        <time>2021-10-09T09:48:09</time>
      </trkpt>
      <trkpt lat="42.96873" lon="-0.04297">
        <ele>940</ele>
        <time>2021-10-09T09:49:46</time>
      </trkpt>
      <trkpt lat="42.96873" lon="-0.04295">
        <ele>940.2</ele>
        <time>2021-10-09T09:49:47</time>
      </trkpt>
      <trkpt lat="42.96873" lon="-0.04294">
        <ele>940.2</ele>
        <time>2021-10-09T09:49:48</time>
      </trkpt>
      <trkpt lat="42.96874" lon="-0.04293">
        <ele>940.4</ele>
        <time>2021-10-09T09:49:49</time>
      </trkpt>
      <trkpt lat="42.96874" lon="-0.04292">
        <ele>940.8</ele>
        <time>2021-10-09T09:49:50</time>
      </trkpt>
      <trkpt lat="42.96875" lon="-0.0429">
        <ele>941</ele>
        <time>2021-10-09T09:49:51</time>
      </trkpt>
      <trkpt lat="42.96875" lon="-0.04289">
        <ele>941</ele>
        <time>2021-10-09T09:49:52</time>
      </trkpt>
      <trkpt lat="42.96875" lon="-0.04288">
        <ele>941.2</ele>
        <time>2021-10-09T09:49:53</time>
      </trkpt>
      <trkpt lat="42.96874" lon="-0.04287">
        <ele>941.4</ele>
        <time>2021-10-09T09:49:54</time>
      </trkpt>
      <trkpt lat="42.96874" lon="-0.04286">
        <ele>941.6</ele>
        <time>2021-10-09T09:49:55</time>
      </trkpt>
      <trkpt lat="42.96874" lon="-0.04285">
        <ele>941.8</ele>
        <time>2021-10-09T09:49:56</time>
      </trkpt>
      <trkpt lat="42.96874" lon="-0.04283">
        <ele>942</ele>
        <time>2021-10-09T09:49:57</time>
      </trkpt>
      <trkpt lat="42.96874" lon="-0.04281">
        <ele>942.2</ele>
        <time>2021-10-09T09:49:58</time>
      </trkpt>
      <trkpt lat="42.96874" lon="-0.04279">
        <ele>942.6</ele>
        <time>2021-10-09T09:49:59</time>
      </trkpt>
      <trkpt lat="42.96874" lon="-0.04278">
        <ele>942.8</ele>
        <time>2021-10-09T09:50:00</time>
      </trkpt>
      <trkpt lat="42.96882" lon="-0.04206">
        <ele>951.2</ele>
        <time>2021-10-09T09:50:52</time>
      </trkpt>
      <trkpt lat="42.96882" lon="-0.04205">
        <ele>951.4</ele>
        <time>2021-10-09T09:50:53</time>
      </trkpt>
      <trkpt lat="42.96882" lon="-0.04204">
        <ele>951.6</ele>
        <time>2021-10-09T09:50:54</time>
      </trkpt>
      <trkpt lat="42.96882" lon="-0.04204">
        <ele>951.8</ele>
        <time>2021-10-09T09:50:55</time>
      </trkpt>
      <trkpt lat="42.96882" lon="-0.04204">
        <ele>951.8</ele>
        <time>2021-10-09T09:50:56</time>
      </trkpt>
      <trkpt lat="42.96882" lon="-0.04204">
        <ele>951.8</ele>
        <time>2021-10-09T09:50:57</time>
      </trkpt>
      <trkpt lat="42.96877" lon="-0.04181">
        <ele>954.6</ele>
        <time>2021-10-09T09:51:14</time>
      </trkpt>
      <trkpt lat="42.96877" lon="-0.04178">
        <ele>954.6</ele>
        <time>2021-10-09T09:51:15</time>
      </trkpt>
      <trkpt lat="42.96877" lon="-0.04176">
        <ele>954.8</ele>
        <time>2021-10-09T09:51:16</time>
      </trkpt>
      <trkpt lat="42.96878" lon="-0.04175">
        <ele>955</ele>
        <time>2021-10-09T09:51:17</time>
      </trkpt>
      <trkpt lat="42.96878" lon="-0.04173">
        <ele>955.2</ele>
        <time>2021-10-09T09:51:18</time>
      </trkpt>
      <trkpt lat="42.96878" lon="-0.04172">
        <ele>955.4</ele>
        <time>2021-10-09T09:51:19</time>
      </trkpt>
      <trkpt lat="42.96878" lon="-0.0417">
        <ele>955.4</ele>
        <time>2021-10-09T09:51:20</time>
      </trkpt>
      <trkpt lat="42.96878" lon="-0.04169">
        <ele>955.6</ele>
        <time>2021-10-09T09:51:21</time>
      </trkpt>
      <trkpt lat="42.96878" lon="-0.04168">
        <ele>955.8</ele>
        <time>2021-10-09T09:51:22</time>
      </trkpt>
      <trkpt lat="42.96879" lon="-0.04167">
        <ele>956</ele>
        <time>2021-10-09T09:51:23</time>
      </trkpt>
      <trkpt lat="42.96879" lon="-0.04166">
        <ele>956.2</ele>
        <time>2021-10-09T09:51:24</time>
      </trkpt>
      <trkpt lat="42.9688" lon="-0.04165">
        <ele>956.2</ele>
        <time>2021-10-09T09:51:25</time>
      </trkpt>
      <trkpt lat="42.9688" lon="-0.04164">
        <ele>956.4</ele>
        <time>2021-10-09T09:51:26</time>
      </trkpt>
      <trkpt lat="42.9688" lon="-0.04162">
        <ele>956.6</ele>
        <time>2021-10-09T09:51:27</time>
      </trkpt>
      <trkpt lat="42.96884" lon="-0.04127">
        <ele>962.8</ele>
        <time>2021-10-09T09:51:51</time>
      </trkpt>
      <trkpt lat="42.96883" lon="-0.04125">
        <ele>962.8</ele>
        <time>2021-10-09T09:51:52</time>
      </trkpt>
      <trkpt lat="42.96883" lon="-0.04123">
        <ele>963</ele>
        <time>2021-10-09T09:51:53</time>
      </trkpt>
      <trkpt lat="42.96883" lon="-0.04121">
        <ele>963.2</ele>
        <time>2021-10-09T09:51:54</time>
      </trkpt>
      <trkpt lat="42.96883" lon="-0.04119">
        <ele>963.2</ele>
        <time>2021-10-09T09:51:55</time>
      </trkpt>
      <trkpt lat="42.96883" lon="-0.04118">
        <ele>963.4</ele>
        <time>2021-10-09T09:51:56</time>
      </trkpt>
      <trkpt lat="42.96884" lon="-0.04117">
        <ele>963.4</ele>
        <time>2021-10-09T09:51:57</time>
      </trkpt>
      <trkpt lat="42.96885" lon="-0.04115">
        <ele>963.6</ele>
        <time>2021-10-09T09:51:58</time>
      </trkpt>
      <trkpt lat="42.96885" lon="-0.04112">
        <ele>963.8</ele>
        <time>2021-10-09T09:51:59</time>
      </trkpt>
      <trkpt lat="42.96885" lon="-0.04111">
        <ele>964</ele>
        <time>2021-10-09T09:52:00</time>
      </trkpt>
      <trkpt lat="42.96885" lon="-0.0411">
        <ele>964</ele>
        <time>2021-10-09T09:52:01</time>
      </trkpt>
      <trkpt lat="42.96886" lon="-0.04108">
        <ele>964.2</ele>
        <time>2021-10-09T09:52:02</time>
      </trkpt>
      <trkpt lat="42.96887" lon="-0.04107">
        <ele>964.4</ele>
        <time>2021-10-09T09:52:03</time>
      </trkpt>
      <trkpt lat="42.96887" lon="-0.04104">
        <ele>964.4</ele>
        <time>2021-10-09T09:52:04</time>
      </trkpt>
      <trkpt lat="42.96888" lon="-0.04102">
        <ele>964.6</ele>
        <time>2021-10-09T09:52:05</time>
      </trkpt>
      <trkpt lat="42.96888" lon="-0.04101">
        <ele>964.8</ele>
        <time>2021-10-09T09:52:06</time>
      </trkpt>
      <trkpt lat="42.96889" lon="-0.041">
        <ele>965</ele>
        <time>2021-10-09T09:52:07</time>
      </trkpt>
      <trkpt lat="42.96889" lon="-0.04099">
        <ele>965</ele>
        <time>2021-10-09T09:52:08</time>
      </trkpt>
      <trkpt lat="42.9689" lon="-0.04097">
        <ele>965.2</ele>
        <time>2021-10-09T09:52:09</time>
      </trkpt>
      <trkpt lat="42.9689" lon="-0.04096">
        <ele>965.4</ele>
        <time>2021-10-09T09:52:10</time>
      </trkpt>
      <trkpt lat="42.96891" lon="-0.04094">
        <ele>965.6</ele>
        <time>2021-10-09T09:52:11</time>
      </trkpt>
      <trkpt lat="42.96891" lon="-0.04093">
        <ele>965.8</ele>
        <time>2021-10-09T09:52:12</time>
      </trkpt>
      <trkpt lat="42.96892" lon="-0.04092">
        <ele>966</ele>
        <time>2021-10-09T09:52:13</time>
      </trkpt>
      <trkpt lat="42.96892" lon="-0.0409">
        <ele>966</ele>
        <time>2021-10-09T09:52:14</time>
      </trkpt>
      <trkpt lat="42.96893" lon="-0.04088">
        <ele>966.2</ele>
        <time>2021-10-09T09:52:15</time>
      </trkpt>
      <trkpt lat="42.96893" lon="-0.04087">
        <ele>966.4</ele>
        <time>2021-10-09T09:52:16</time>
      </trkpt>
      <trkpt lat="42.96893" lon="-0.04085">
        <ele>966.6</ele>
        <time>2021-10-09T09:52:17</time>
      </trkpt>
      <trkpt lat="42.96894" lon="-0.04084">
        <ele>966.8</ele>
        <time>2021-10-09T09:52:18</time>
      </trkpt>
      <trkpt lat="42.96894" lon="-0.04082">
        <ele>967</ele>
        <time>2021-10-09T09:52:19</time>
      </trkpt>
      <trkpt lat="42.96894" lon="-0.0408">
        <ele>967.4</ele>
        <time>2021-10-09T09:52:20</time>
      </trkpt>
      <trkpt lat="42.96894" lon="-0.04078">
        <ele>967.6</ele>
        <time>2021-10-09T09:52:21</time>
      </trkpt>
      <trkpt lat="42.96895" lon="-0.04077">
        <ele>968</ele>
        <time>2021-10-09T09:52:22</time>
      </trkpt>
      <trkpt lat="42.96895" lon="-0.04076">
        <ele>968.2</ele>
        <time>2021-10-09T09:52:23</time>
      </trkpt>
      <trkpt lat="42.96896" lon="-0.04075">
        <ele>968.4</ele>
        <time>2021-10-09T09:52:24</time>
      </trkpt>
      <trkpt lat="42.96897" lon="-0.04074">
        <ele>968.6</ele>
        <time>2021-10-09T09:52:25</time>
      </trkpt>
      <trkpt lat="42.96897" lon="-0.04073">
        <ele>968.8</ele>
        <time>2021-10-09T09:52:26</time>
      </trkpt>
      <trkpt lat="42.96897" lon="-0.04072">
        <ele>969</ele>
        <time>2021-10-09T09:52:27</time>
      </trkpt>
      <trkpt lat="42.96898" lon="-0.04071">
        <ele>969.2</ele>
        <time>2021-10-09T09:52:28</time>
      </trkpt>
      <trkpt lat="42.96898" lon="-0.04069">
        <ele>969.4</ele>
        <time>2021-10-09T09:52:29</time>
      </trkpt>
      <trkpt lat="42.96898" lon="-0.04068">
        <ele>969.6</ele>
        <time>2021-10-09T09:52:30</time>
      </trkpt>
      <trkpt lat="42.96898" lon="-0.04066">
        <ele>969.6</ele>
        <time>2021-10-09T09:52:31</time>
      </trkpt>
      <trkpt lat="42.96898" lon="-0.04065">
        <ele>970</ele>
        <time>2021-10-09T09:52:32</time>
      </trkpt>
      <trkpt lat="42.96899" lon="-0.04064">
        <ele>970.2</ele>
        <time>2021-10-09T09:52:33</time>
      </trkpt>
      <trkpt lat="42.96899" lon="-0.04062">
        <ele>970.2</ele>
        <time>2021-10-09T09:52:34</time>
      </trkpt>
      <trkpt lat="42.96899" lon="-0.0406">
        <ele>970.4</ele>
        <time>2021-10-09T09:52:35</time>
      </trkpt>
      <trkpt lat="42.96899" lon="-0.04058">
        <ele>970.6</ele>
        <time>2021-10-09T09:52:36</time>
      </trkpt>
      <trkpt lat="42.969" lon="-0.04056">
        <ele>970.8</ele>
        <time>2021-10-09T09:52:37</time>
      </trkpt>
      <trkpt lat="42.969" lon="-0.04054">
        <ele>971</ele>
        <time>2021-10-09T09:52:38</time>
      </trkpt>
      <trkpt lat="42.969" lon="-0.04053">
        <ele>971.2</ele>
        <time>2021-10-09T09:52:39</time>
      </trkpt>
      <trkpt lat="42.969" lon="-0.04051">
        <ele>971.4</ele>
        <time>2021-10-09T09:52:40</time>
      </trkpt>
      <trkpt lat="42.96901" lon="-0.0405">
        <ele>971.6</ele>
        <time>2021-10-09T09:52:41</time>
      </trkpt>
      <trkpt lat="42.96901" lon="-0.04048">
        <ele>971.6</ele>
        <time>2021-10-09T09:52:42</time>
      </trkpt>
      <trkpt lat="42.96902" lon="-0.04047">
        <ele>971.8</ele>
        <time>2021-10-09T09:52:43</time>
      </trkpt>
      <trkpt lat="42.96903" lon="-0.04045">
        <ele>972</ele>
        <time>2021-10-09T09:52:44</time>
      </trkpt>
      <trkpt lat="42.96904" lon="-0.04044">
        <ele>972.2</ele>
        <time>2021-10-09T09:52:45</time>
      </trkpt>
      <trkpt lat="42.96904" lon="-0.04043">
        <ele>972.2</ele>
        <time>2021-10-09T09:52:46</time>
      </trkpt>
      <trkpt lat="42.96905" lon="-0.04042">
        <ele>972.4</ele>
        <time>2021-10-09T09:52:47</time>
      </trkpt>
      <trkpt lat="42.96905" lon="-0.04041">
        <ele>972.6</ele>
        <time>2021-10-09T09:52:48</time>
      </trkpt>
      <trkpt lat="42.96906" lon="-0.04041">
        <ele>972.8</ele>
        <time>2021-10-09T09:52:49</time>
      </trkpt>
      <trkpt lat="42.96906" lon="-0.0404">
        <ele>972.8</ele>
        <time>2021-10-09T09:52:50</time>
      </trkpt>
      <trkpt lat="42.96906" lon="-0.04038">
        <ele>973.2</ele>
        <time>2021-10-09T09:52:51</time>
      </trkpt>
      <trkpt lat="42.96907" lon="-0.04037">
        <ele>973.2</ele>
        <time>2021-10-09T09:52:52</time>
      </trkpt>
      <trkpt lat="42.96909" lon="-0.04023">
        <ele>975</ele>
        <time>2021-10-09T09:53:00</time>
      </trkpt>
      <trkpt lat="42.9691" lon="-0.04022">
        <ele>975.2</ele>
        <time>2021-10-09T09:53:01</time>
      </trkpt>
      <trkpt lat="42.9691" lon="-0.0402">
        <ele>975.4</ele>
        <time>2021-10-09T09:53:02</time>
      </trkpt>
      <trkpt lat="42.9691" lon="-0.04019">
        <ele>975.8</ele>
        <time>2021-10-09T09:53:03</time>
      </trkpt>
      <trkpt lat="42.96911" lon="-0.04017">
        <ele>976</ele>
        <time>2021-10-09T09:53:04</time>
      </trkpt>
      <trkpt lat="42.96911" lon="-0.04016">
        <ele>976.2</ele>
        <time>2021-10-09T09:53:05</time>
      </trkpt>
      <trkpt lat="42.96912" lon="-0.04015">
        <ele>976.6</ele>
        <time>2021-10-09T09:53:06</time>
      </trkpt>
      <trkpt lat="42.96913" lon="-0.04014">
        <ele>976.8</ele>
        <time>2021-10-09T09:53:07</time>
      </trkpt>
      <trkpt lat="42.96913" lon="-0.04013">
        <ele>977</ele>
        <time>2021-10-09T09:53:08</time>
      </trkpt>
      <trkpt lat="42.96914" lon="-0.04012">
        <ele>977.2</ele>
        <time>2021-10-09T09:53:09</time>
      </trkpt>
      <trkpt lat="42.96915" lon="-0.04011">
        <ele>977.4</ele>
        <time>2021-10-09T09:53:10</time>
      </trkpt>
      <trkpt lat="42.96915" lon="-0.0401">
        <ele>977.8</ele>
        <time>2021-10-09T09:53:11</time>
      </trkpt>
      <trkpt lat="42.96915" lon="-0.04009">
        <ele>978</ele>
        <time>2021-10-09T09:53:12</time>
      </trkpt>
      <trkpt lat="42.96916" lon="-0.04008">
        <ele>978.2</ele>
        <time>2021-10-09T09:53:13</time>
      </trkpt>
      <trkpt lat="42.96916" lon="-0.04006">
        <ele>978.4</ele>
        <time>2021-10-09T09:53:14</time>
      </trkpt>
      <trkpt lat="42.96916" lon="-0.04005">
        <ele>978.6</ele>
        <time>2021-10-09T09:53:15</time>
      </trkpt>
      <trkpt lat="42.96917" lon="-0.04004">
        <ele>979</ele>
        <time>2021-10-09T09:53:16</time>
      </trkpt>
      <trkpt lat="42.96917" lon="-0.04003">
        <ele>979.2</ele>
        <time>2021-10-09T09:53:17</time>
      </trkpt>
      <trkpt lat="42.96918" lon="-0.04001">
        <ele>979.4</ele>
        <time>2021-10-09T09:53:18</time>
      </trkpt>
      <trkpt lat="42.96919" lon="-0.04">
        <ele>979.8</ele>
        <time>2021-10-09T09:53:19</time>
      </trkpt>
      <trkpt lat="42.9692" lon="-0.03999">
        <ele>980</ele>
        <time>2021-10-09T09:53:20</time>
      </trkpt>
      <trkpt lat="42.9692" lon="-0.03998">
        <ele>980.2</ele>
        <time>2021-10-09T09:53:21</time>
      </trkpt>
      <trkpt lat="42.9692" lon="-0.03997">
        <ele>980.6</ele>
        <time>2021-10-09T09:53:22</time>
      </trkpt>
      <trkpt lat="42.96921" lon="-0.03996">
        <ele>980.8</ele>
        <time>2021-10-09T09:53:23</time>
      </trkpt>
      <trkpt lat="42.96922" lon="-0.03994">
        <ele>981.2</ele>
        <time>2021-10-09T09:53:24</time>
      </trkpt>
      <trkpt lat="42.96923" lon="-0.03993">
        <ele>981.2</ele>
        <time>2021-10-09T09:53:25</time>
      </trkpt>
      <trkpt lat="42.96924" lon="-0.03993">
        <ele>981.6</ele>
        <time>2021-10-09T09:53:26</time>
      </trkpt>
      <trkpt lat="42.96924" lon="-0.03992">
        <ele>981.8</ele>
        <time>2021-10-09T09:53:27</time>
      </trkpt>
      <trkpt lat="42.96925" lon="-0.0399">
        <ele>982.2</ele>
        <time>2021-10-09T09:53:28</time>
      </trkpt>
      <trkpt lat="42.96925" lon="-0.03989">
        <ele>982.4</ele>
        <time>2021-10-09T09:53:29</time>
      </trkpt>
      <trkpt lat="42.96926" lon="-0.03987">
        <ele>982.8</ele>
        <time>2021-10-09T09:53:30</time>
      </trkpt>
      <trkpt lat="42.96926" lon="-0.03986">
        <ele>983.2</ele>
        <time>2021-10-09T09:53:31</time>
      </trkpt>
      <trkpt lat="42.96927" lon="-0.03985">
        <ele>983.6</ele>
        <time>2021-10-09T09:53:32</time>
      </trkpt>
      <trkpt lat="42.96927" lon="-0.03983">
        <ele>984</ele>
        <time>2021-10-09T09:53:33</time>
      </trkpt>
      <trkpt lat="42.96928" lon="-0.03982">
        <ele>984.6</ele>
        <time>2021-10-09T09:53:34</time>
      </trkpt>
      <trkpt lat="42.96928" lon="-0.03981">
        <ele>985</ele>
        <time>2021-10-09T09:53:35</time>
      </trkpt>
      <trkpt lat="42.96929" lon="-0.0398">
        <ele>985.4</ele>
        <time>2021-10-09T09:53:36</time>
      </trkpt>
      <trkpt lat="42.9693" lon="-0.03978">
        <ele>986</ele>
        <time>2021-10-09T09:53:37</time>
      </trkpt>
      <trkpt lat="42.9693" lon="-0.03977">
        <ele>986.4</ele>
        <time>2021-10-09T09:53:38</time>
      </trkpt>
      <trkpt lat="42.9693" lon="-0.03975">
        <ele>986.8</ele>
        <time>2021-10-09T09:53:39</time>
      </trkpt>
      <trkpt lat="42.9693" lon="-0.03973">
        <ele>987.4</ele>
        <time>2021-10-09T09:53:40</time>
      </trkpt>
      <trkpt lat="42.96931" lon="-0.03971">
        <ele>987.8</ele>
        <time>2021-10-09T09:53:41</time>
      </trkpt>
      <trkpt lat="42.96931" lon="-0.03969">
        <ele>988.2</ele>
        <time>2021-10-09T09:53:42</time>
      </trkpt>
      <trkpt lat="42.96932" lon="-0.03967">
        <ele>988.6</ele>
        <time>2021-10-09T09:53:43</time>
      </trkpt>
      <trkpt lat="42.96933" lon="-0.03965">
        <ele>989</ele>
        <time>2021-10-09T09:53:44</time>
      </trkpt>
      <trkpt lat="42.96933" lon="-0.03963">
        <ele>989.6</ele>
        <time>2021-10-09T09:53:45</time>
      </trkpt>
      <trkpt lat="42.96934" lon="-0.03961">
        <ele>990.2</ele>
        <time>2021-10-09T09:53:46</time>
      </trkpt>
      <trkpt lat="42.96934" lon="-0.03959">
        <ele>990.6</ele>
        <time>2021-10-09T09:53:47</time>
      </trkpt>
      <trkpt lat="42.96935" lon="-0.03957">
        <ele>991.4</ele>
        <time>2021-10-09T09:53:48</time>
      </trkpt>
      <trkpt lat="42.96934" lon="-0.03956">
        <ele>991.8</ele>
        <time>2021-10-09T09:53:49</time>
      </trkpt>
      <trkpt lat="42.96934" lon="-0.03954">
        <ele>992.6</ele>
        <time>2021-10-09T09:53:50</time>
      </trkpt>
      <trkpt lat="42.96934" lon="-0.03952">
        <ele>993.2</ele>
        <time>2021-10-09T09:53:51</time>
      </trkpt>
      <trkpt lat="42.96934" lon="-0.03951">
        <ele>993.4</ele>
        <time>2021-10-09T09:53:52</time>
      </trkpt>
      <trkpt lat="42.96934" lon="-0.0395">
        <ele>993.8</ele>
        <time>2021-10-09T09:53:53</time>
      </trkpt>
      <trkpt lat="42.96933" lon="-0.03949">
        <ele>994</ele>
        <time>2021-10-09T09:53:54</time>
      </trkpt>
      <trkpt lat="42.96933" lon="-0.03949">
        <ele>994</ele>
        <time>2021-10-09T09:53:55</time>
      </trkpt>
      <trkpt lat="42.96933" lon="-0.03949">
        <ele>994</ele>
        <time>2021-10-09T09:53:56</time>
      </trkpt>
      <trkpt lat="42.96933" lon="-0.03949">
        <ele>994</ele>
        <time>2021-10-09T09:53:57</time>
      </trkpt>
      <trkpt lat="42.96934" lon="-0.03949">
        <ele>994</ele>
        <time>2021-10-09T09:53:58</time>
      </trkpt>
      <trkpt lat="42.96934" lon="-0.03949">
        <ele>994</ele>
        <time>2021-10-09T09:53:59</time>
      </trkpt>
      <trkpt lat="42.96933" lon="-0.03949">
        <ele>993.8</ele>
        <time>2021-10-09T09:54:00</time>
      </trkpt>
      <trkpt lat="42.96933" lon="-0.03949">
        <ele>993.8</ele>
        <time>2021-10-09T09:54:01</time>
      </trkpt>
      <trkpt lat="42.9692" lon="-0.03956">
        <ele>996.6</ele>
        <time>2021-10-09T09:56:45</time>
      </trkpt>
      <trkpt lat="42.96919" lon="-0.03957">
        <ele>997</ele>
        <time>2021-10-09T09:56:46</time>
      </trkpt>
      <trkpt lat="42.96918" lon="-0.03958">
        <ele>997.4</ele>
        <time>2021-10-09T09:56:47</time>
      </trkpt>
      <trkpt lat="42.96917" lon="-0.03959">
        <ele>997.8</ele>
        <time>2021-10-09T09:56:48</time>
      </trkpt>
      <trkpt lat="42.96916" lon="-0.0396">
        <ele>998</ele>
        <time>2021-10-09T09:56:49</time>
      </trkpt>
      <trkpt lat="42.96915" lon="-0.03961">
        <ele>998.4</ele>
        <time>2021-10-09T09:56:50</time>
      </trkpt>
      <trkpt lat="42.96914" lon="-0.03961">
        <ele>998.8</ele>
        <time>2021-10-09T09:56:51</time>
      </trkpt>
      <trkpt lat="42.96913" lon="-0.03961">
        <ele>999.2</ele>
        <time>2021-10-09T09:56:52</time>
      </trkpt>
      <trkpt lat="42.96911" lon="-0.03962">
        <ele>999.6</ele>
        <time>2021-10-09T09:56:53</time>
      </trkpt>
      <trkpt lat="42.9691" lon="-0.03962">
        <ele>1000</ele>
        <time>2021-10-09T09:56:54</time>
      </trkpt>
      <trkpt lat="42.96908" lon="-0.03963">
        <ele>1000.4</ele>
        <time>2021-10-09T09:56:55</time>
      </trkpt>
      <trkpt lat="42.96907" lon="-0.03963">
        <ele>1001.2</ele>
        <time>2021-10-09T09:56:56</time>
      </trkpt>
      <trkpt lat="42.96905" lon="-0.03964">
        <ele>1001.6</ele>
        <time>2021-10-09T09:56:57</time>
      </trkpt>
      <trkpt lat="42.96904" lon="-0.03964">
        <ele>1002.2</ele>
        <time>2021-10-09T09:56:58</time>
      </trkpt>
      <trkpt lat="42.96902" lon="-0.03965">
        <ele>1002.8</ele>
        <time>2021-10-09T09:56:59</time>
      </trkpt>
      <trkpt lat="42.96901" lon="-0.03965">
        <ele>1003.4</ele>
        <time>2021-10-09T09:57:00</time>
      </trkpt>
      <trkpt lat="42.969" lon="-0.03965">
        <ele>1003.8</ele>
        <time>2021-10-09T09:57:01</time>
      </trkpt>
      <trkpt lat="42.96898" lon="-0.03966">
        <ele>1004.6</ele>
        <time>2021-10-09T09:57:02</time>
      </trkpt>
      <trkpt lat="42.96898" lon="-0.03965">
        <ele>1005.4</ele>
        <time>2021-10-09T09:57:03</time>
      </trkpt>
      <trkpt lat="42.96897" lon="-0.03965">
        <ele>1006</ele>
        <time>2021-10-09T09:57:04</time>
      </trkpt>
      <trkpt lat="42.96896" lon="-0.03966">
        <ele>1006.2</ele>
        <time>2021-10-09T09:57:05</time>
      </trkpt>
      <trkpt lat="42.96895" lon="-0.03966">
        <ele>1006.4</ele>
        <time>2021-10-09T09:57:06</time>
      </trkpt>
      <trkpt lat="42.96895" lon="-0.03966">
        <ele>1006.4</ele>
        <time>2021-10-09T09:57:07</time>
      </trkpt>
      <trkpt lat="42.96895" lon="-0.03966">
        <ele>1006.6</ele>
        <time>2021-10-09T09:57:08</time>
      </trkpt>
      <trkpt lat="42.96895" lon="-0.03966">
        <ele>1006.6</ele>
        <time>2021-10-09T09:57:09</time>
      </trkpt>
      <trkpt lat="42.96894" lon="-0.03966">
        <ele>1006.4</ele>
        <time>2021-10-09T09:57:10</time>
      </trkpt>
      <trkpt lat="42.96882" lon="-0.03968">
        <ele>1011.2</ele>
        <time>2021-10-09T09:57:19</time>
      </trkpt>
      <trkpt lat="42.96882" lon="-0.03968">
        <ele>1011.2</ele>
        <time>2021-10-09T09:57:20</time>
      </trkpt>
      <trkpt lat="42.96881" lon="-0.03968">
        <ele>1011</ele>
        <time>2021-10-09T09:57:21</time>
      </trkpt>
      <trkpt lat="42.9688" lon="-0.03969">
        <ele>1011.2</ele>
        <time>2021-10-09T09:57:22</time>
      </trkpt>
      <trkpt lat="42.9688" lon="-0.03969">
        <ele>1011</ele>
        <time>2021-10-09T09:57:23</time>
      </trkpt>
      <trkpt lat="42.9688" lon="-0.03969">
        <ele>1011</ele>
        <time>2021-10-09T09:57:24</time>
      </trkpt>
      <trkpt lat="42.96784" lon="-0.03891">
        <ele>1054.4</ele>
        <time>2021-10-09T10:10:01</time>
      </trkpt>
      <trkpt lat="42.96786" lon="-0.03888">
        <ele>1054.2</ele>
        <time>2021-10-09T10:10:02</time>
      </trkpt>
      <trkpt lat="42.96787" lon="-0.03883">
        <ele>1054</ele>
        <time>2021-10-09T10:10:03</time>
      </trkpt>
      <trkpt lat="42.96788" lon="-0.0388">
        <ele>1053.8</ele>
        <time>2021-10-09T10:10:04</time>
      </trkpt>
      <trkpt lat="42.96789" lon="-0.03876">
        <ele>1053.8</ele>
        <time>2021-10-09T10:10:05</time>
      </trkpt>
      <trkpt lat="42.9679" lon="-0.03869">
        <ele>1053.6</ele>
        <time>2021-10-09T10:10:06</time>
      </trkpt>
      <trkpt lat="42.96791" lon="-0.03864">
        <ele>1053.8</ele>
        <time>2021-10-09T10:10:07</time>
      </trkpt>
      <trkpt lat="42.96792" lon="-0.03858">
        <ele>1053.8</ele>
        <time>2021-10-09T10:10:08</time>
      </trkpt>
      <trkpt lat="42.96794" lon="-0.03852">
        <ele>1054</ele>
        <time>2021-10-09T10:10:09</time>
      </trkpt>
      <trkpt lat="42.96795" lon="-0.03846">
        <ele>1054.2</ele>
        <time>2021-10-09T10:10:10</time>
      </trkpt>
      <trkpt lat="42.96796" lon="-0.03839">
        <ele>1054.4</ele>
        <time>2021-10-09T10:10:11</time>
      </trkpt>
      <trkpt lat="42.96797" lon="-0.03833">
        <ele>1054.6</ele>
        <time>2021-10-09T10:10:12</time>
      </trkpt>
      <trkpt lat="42.96798" lon="-0.03828">
        <ele>1054.6</ele>
        <time>2021-10-09T10:10:13</time>
      </trkpt>
      <trkpt lat="42.96799" lon="-0.03822">
        <ele>1054.8</ele>
        <time>2021-10-09T10:10:14</time>
      </trkpt>
      <trkpt lat="42.96799" lon="-0.03818">
        <ele>1054.8</ele>
        <time>2021-10-09T10:10:15</time>
      </trkpt>
      <trkpt lat="42.968" lon="-0.03814">
        <ele>1054.8</ele>
        <time>2021-10-09T10:10:16</time>
      </trkpt>
      <trkpt lat="42.968" lon="-0.03811">
        <ele>1055</ele>
        <time>2021-10-09T10:10:17</time>
      </trkpt>
      <trkpt lat="42.968" lon="-0.03808">
        <ele>1055</ele>
        <time>2021-10-09T10:10:18</time>
      </trkpt>
      <trkpt lat="42.96801" lon="-0.03805">
        <ele>1055</ele>
        <time>2021-10-09T10:10:19</time>
      </trkpt>
      <trkpt lat="42.96801" lon="-0.03802">
        <ele>1055.2</ele>
        <time>2021-10-09T10:10:20</time>
      </trkpt>
      <trkpt lat="42.96802" lon="-0.03798">
        <ele>1055.2</ele>
        <time>2021-10-09T10:10:21</time>
      </trkpt>
      <trkpt lat="42.96802" lon="-0.03793">
        <ele>1055.4</ele>
        <time>2021-10-09T10:10:22</time>
      </trkpt>
      <trkpt lat="42.96802" lon="-0.03789">
        <ele>1055.4</ele>
        <time>2021-10-09T10:10:23</time>
      </trkpt>
      <trkpt lat="42.96803" lon="-0.03786">
        <ele>1055.6</ele>
        <time>2021-10-09T10:10:24</time>
      </trkpt>
      <trkpt lat="42.96803" lon="-0.03782">
        <ele>1055.6</ele>
        <time>2021-10-09T10:10:25</time>
      </trkpt>
      <trkpt lat="42.96803" lon="-0.0378">
        <ele>1055.8</ele>
        <time>2021-10-09T10:10:26</time>
      </trkpt>
      <trkpt lat="42.96803" lon="-0.03777">
        <ele>1056</ele>
        <time>2021-10-09T10:10:27</time>
      </trkpt>
      <trkpt lat="42.96804" lon="-0.03774">
        <ele>1056</ele>
        <time>2021-10-09T10:10:28</time>
      </trkpt>
      <trkpt lat="42.96804" lon="-0.03771">
        <ele>1056.2</ele>
        <time>2021-10-09T10:10:29</time>
      </trkpt>
      <trkpt lat="42.96804" lon="-0.03768">
        <ele>1056.2</ele>
        <time>2021-10-09T10:10:30</time>
      </trkpt>
      <trkpt lat="42.96804" lon="-0.03766">
        <ele>1056.2</ele>
        <time>2021-10-09T10:10:31</time>
      </trkpt>
      <trkpt lat="42.96804" lon="-0.03762">
        <ele>1056.4</ele>
        <time>2021-10-09T10:10:32</time>
      </trkpt>
      <trkpt lat="42.96804" lon="-0.0376">
        <ele>1056.4</ele>
        <time>2021-10-09T10:10:33</time>
      </trkpt>
      <trkpt lat="42.96804" lon="-0.03758">
        <ele>1056.6</ele>
        <time>2021-10-09T10:10:34</time>
      </trkpt>
      <trkpt lat="42.96805" lon="-0.03755">
        <ele>1056.8</ele>
        <time>2021-10-09T10:10:35</time>
      </trkpt>
      <trkpt lat="42.96805" lon="-0.03752">
        <ele>1056.8</ele>
        <time>2021-10-09T10:10:36</time>
      </trkpt>
      <trkpt lat="42.96805" lon="-0.03749">
        <ele>1057</ele>
        <time>2021-10-09T10:10:37</time>
      </trkpt>
      <trkpt lat="42.96805" lon="-0.03746">
        <ele>1057.2</ele>
        <time>2021-10-09T10:10:38</time>
      </trkpt>
      <trkpt lat="42.96805" lon="-0.03743">
        <ele>1057.2</ele>
        <time>2021-10-09T10:10:39</time>
      </trkpt>
      <trkpt lat="42.96805" lon="-0.0374">
        <ele>1057.4</ele>
        <time>2021-10-09T10:10:40</time>
      </trkpt>
      <trkpt lat="42.96805" lon="-0.03738">
        <ele>1057.4</ele>
        <time>2021-10-09T10:10:41</time>
      </trkpt>
      <trkpt lat="42.96805" lon="-0.03735">
        <ele>1057.4</ele>
        <time>2021-10-09T10:10:42</time>
      </trkpt>
      <trkpt lat="42.96805" lon="-0.03733">
        <ele>1057.6</ele>
        <time>2021-10-09T10:10:43</time>
      </trkpt>
      <trkpt lat="42.96805" lon="-0.0373">
        <ele>1057.6</ele>
        <time>2021-10-09T10:10:44</time>
      </trkpt>
      <trkpt lat="42.96805" lon="-0.03727">
        <ele>1057.8</ele>
        <time>2021-10-09T10:10:45</time>
      </trkpt>
      <trkpt lat="42.96805" lon="-0.03725">
        <ele>1057.8</ele>
        <time>2021-10-09T10:10:46</time>
      </trkpt>
      <trkpt lat="42.96805" lon="-0.03723">
        <ele>1058</ele>
        <time>2021-10-09T10:10:47</time>
      </trkpt>
      <trkpt lat="42.96805" lon="-0.0372">
        <ele>1058</ele>
        <time>2021-10-09T10:10:48</time>
      </trkpt>
      <trkpt lat="42.96806" lon="-0.03717">
        <ele>1058.2</ele>
        <time>2021-10-09T10:10:49</time>
      </trkpt>
      <trkpt lat="42.96806" lon="-0.03714">
        <ele>1058.4</ele>
        <time>2021-10-09T10:10:50</time>
      </trkpt>
      <trkpt lat="42.96805" lon="-0.03712">
        <ele>1058.4</ele>
        <time>2021-10-09T10:10:51</time>
      </trkpt>
      <trkpt lat="42.96806" lon="-0.03709">
        <ele>1058.6</ele>
        <time>2021-10-09T10:10:52</time>
      </trkpt>
      <trkpt lat="42.96806" lon="-0.03707">
        <ele>1058.6</ele>
        <time>2021-10-09T10:10:53</time>
      </trkpt>
      <trkpt lat="42.96806" lon="-0.03705">
        <ele>1058.8</ele>
        <time>2021-10-09T10:10:54</time>
      </trkpt>
      <trkpt lat="42.96806" lon="-0.03702">
        <ele>1058.8</ele>
        <time>2021-10-09T10:10:55</time>
      </trkpt>
      <trkpt lat="42.96806" lon="-0.037">
        <ele>1059</ele>
        <time>2021-10-09T10:10:56</time>
      </trkpt>
      <trkpt lat="42.96806" lon="-0.03697">
        <ele>1059</ele>
        <time>2021-10-09T10:10:57</time>
      </trkpt>
      <trkpt lat="42.96806" lon="-0.03694">
        <ele>1059.2</ele>
        <time>2021-10-09T10:10:58</time>
      </trkpt>
      <trkpt lat="42.96806" lon="-0.03692">
        <ele>1059.4</ele>
        <time>2021-10-09T10:10:59</time>
      </trkpt>
      <trkpt lat="42.96807" lon="-0.03689">
        <ele>1059.4</ele>
        <time>2021-10-09T10:11:00</time>
      </trkpt>
      <trkpt lat="42.96807" lon="-0.03687">
        <ele>1059.6</ele>
        <time>2021-10-09T10:11:01</time>
      </trkpt>
      <trkpt lat="42.96808" lon="-0.03684">
        <ele>1059.8</ele>
        <time>2021-10-09T10:11:02</time>
      </trkpt>
      <trkpt lat="42.96808" lon="-0.03681">
        <ele>1060</ele>
        <time>2021-10-09T10:11:03</time>
      </trkpt>
      <trkpt lat="42.96808" lon="-0.03677">
        <ele>1060</ele>
        <time>2021-10-09T10:11:04</time>
      </trkpt>
      <trkpt lat="42.96809" lon="-0.03674">
        <ele>1060.2</ele>
        <time>2021-10-09T10:11:05</time>
      </trkpt>
      <trkpt lat="42.96809" lon="-0.03671">
        <ele>1060.4</ele>
        <time>2021-10-09T10:11:06</time>
      </trkpt>
      <trkpt lat="42.96809" lon="-0.03669">
        <ele>1060.4</ele>
        <time>2021-10-09T10:11:07</time>
      </trkpt>
      <trkpt lat="42.9681" lon="-0.03667">
        <ele>1060.6</ele>
        <time>2021-10-09T10:11:08</time>
      </trkpt>
      <trkpt lat="42.9681" lon="-0.03664">
        <ele>1060.8</ele>
        <time>2021-10-09T10:11:09</time>
      </trkpt>
      <trkpt lat="42.9681" lon="-0.03662">
        <ele>1061</ele>
        <time>2021-10-09T10:11:10</time>
      </trkpt>
      <trkpt lat="42.96811" lon="-0.03659">
        <ele>1061.2</ele>
        <time>2021-10-09T10:11:11</time>
      </trkpt>
      <trkpt lat="42.96811" lon="-0.03657">
        <ele>1061.4</ele>
        <time>2021-10-09T10:11:12</time>
      </trkpt>
      <trkpt lat="42.96811" lon="-0.03655">
        <ele>1061.4</ele>
        <time>2021-10-09T10:11:13</time>
      </trkpt>
      <trkpt lat="42.96812" lon="-0.03653">
        <ele>1061.6</ele>
        <time>2021-10-09T10:11:14</time>
      </trkpt>
      <trkpt lat="42.96812" lon="-0.03651">
        <ele>1061.6</ele>
        <time>2021-10-09T10:11:15</time>
      </trkpt>
      <trkpt lat="42.96813" lon="-0.03649">
        <ele>1061.8</ele>
        <time>2021-10-09T10:11:16</time>
      </trkpt>
      <trkpt lat="42.96813" lon="-0.03646">
        <ele>1062</ele>
        <time>2021-10-09T10:11:17</time>
      </trkpt>
      <trkpt lat="42.96813" lon="-0.03644">
        <ele>1062.2</ele>
        <time>2021-10-09T10:11:18</time>
      </trkpt>
      <trkpt lat="42.96813" lon="-0.0364">
        <ele>1062.4</ele>
        <time>2021-10-09T10:11:19</time>
      </trkpt>
      <trkpt lat="42.96813" lon="-0.03638">
        <ele>1062.6</ele>
        <time>2021-10-09T10:11:20</time>
      </trkpt>
      <trkpt lat="42.96814" lon="-0.03636">
        <ele>1062.8</ele>
        <time>2021-10-09T10:11:21</time>
      </trkpt>
      <trkpt lat="42.96815" lon="-0.03633">
        <ele>1062.8</ele>
        <time>2021-10-09T10:11:22</time>
      </trkpt>
      <trkpt lat="42.96815" lon="-0.03631">
        <ele>1062.8</ele>
        <time>2021-10-09T10:11:23</time>
      </trkpt>
      <trkpt lat="42.96816" lon="-0.03629">
        <ele>1063</ele>
        <time>2021-10-09T10:11:24</time>
      </trkpt>
      <trkpt lat="42.96816" lon="-0.03627">
        <ele>1063.2</ele>
        <time>2021-10-09T10:11:25</time>
      </trkpt>
      <trkpt lat="42.96817" lon="-0.03625">
        <ele>1063.2</ele>
        <time>2021-10-09T10:11:26</time>
      </trkpt>
      <trkpt lat="42.96817" lon="-0.03622">
        <ele>1063.4</ele>
        <time>2021-10-09T10:11:27</time>
      </trkpt>
      <trkpt lat="42.96818" lon="-0.0362">
        <ele>1063.4</ele>
        <time>2021-10-09T10:11:28</time>
      </trkpt>
      <trkpt lat="42.96818" lon="-0.03618">
        <ele>1063.6</ele>
        <time>2021-10-09T10:11:29</time>
      </trkpt>
      <trkpt lat="42.96819" lon="-0.03615">
        <ele>1063.6</ele>
        <time>2021-10-09T10:11:30</time>
      </trkpt>
      <trkpt lat="42.96819" lon="-0.03612">
        <ele>1063.8</ele>
        <time>2021-10-09T10:11:31</time>
      </trkpt>
      <trkpt lat="42.9682" lon="-0.03609">
        <ele>1064</ele>
        <time>2021-10-09T10:11:32</time>
      </trkpt>
      <trkpt lat="42.9682" lon="-0.03607">
        <ele>1064</ele>
        <time>2021-10-09T10:11:33</time>
      </trkpt>
      <trkpt lat="42.96821" lon="-0.03605">
        <ele>1064.4</ele>
        <time>2021-10-09T10:11:34</time>
      </trkpt>
      <trkpt lat="42.96821" lon="-0.03602">
        <ele>1064.4</ele>
        <time>2021-10-09T10:11:35</time>
      </trkpt>
      <trkpt lat="42.96821" lon="-0.036">
        <ele>1064.6</ele>
        <time>2021-10-09T10:11:36</time>
      </trkpt>
      <trkpt lat="42.96821" lon="-0.03598">
        <ele>1064.6</ele>
        <time>2021-10-09T10:11:37</time>
      </trkpt>
      <trkpt lat="42.96822" lon="-0.03595">
        <ele>1064.8</ele>
        <time>2021-10-09T10:11:38</time>
      </trkpt>
      <trkpt lat="42.96822" lon="-0.03593">
        <ele>1064.8</ele>
        <time>2021-10-09T10:11:39</time>
      </trkpt>
      <trkpt lat="42.96822" lon="-0.03591">
        <ele>1065</ele>
        <time>2021-10-09T10:11:40</time>
      </trkpt>
      <trkpt lat="42.96823" lon="-0.03588">
        <ele>1065.2</ele>
        <time>2021-10-09T10:11:41</time>
      </trkpt>
      <trkpt lat="42.96823" lon="-0.03586">
        <ele>1065.4</ele>
        <time>2021-10-09T10:11:42</time>
      </trkpt>
      <trkpt lat="42.96823" lon="-0.03584">
        <ele>1065.4</ele>
        <time>2021-10-09T10:11:43</time>
      </trkpt>
      <trkpt lat="42.96823" lon="-0.03581">
        <ele>1065.6</ele>
        <time>2021-10-09T10:11:44</time>
      </trkpt>
      <trkpt lat="42.96824" lon="-0.03579">
        <ele>1065.8</ele>
        <time>2021-10-09T10:11:45</time>
      </trkpt>
      <trkpt lat="42.96824" lon="-0.03576">
        <ele>1065.8</ele>
        <time>2021-10-09T10:11:46</time>
      </trkpt>
      <trkpt lat="42.96824" lon="-0.03574">
        <ele>1066</ele>
        <time>2021-10-09T10:11:47</time>
      </trkpt>
      <trkpt lat="42.96824" lon="-0.03571">
        <ele>1066</ele>
        <time>2021-10-09T10:11:48</time>
      </trkpt>
      <trkpt lat="42.96824" lon="-0.03568">
        <ele>1066.2</ele>
        <time>2021-10-09T10:11:49</time>
      </trkpt>
      <trkpt lat="42.96824" lon="-0.03566">
        <ele>1066.4</ele>
        <time>2021-10-09T10:11:50</time>
      </trkpt>
      <trkpt lat="42.96824" lon="-0.03563">
        <ele>1066.4</ele>
        <time>2021-10-09T10:11:51</time>
      </trkpt>
      <trkpt lat="42.96824" lon="-0.0356">
        <ele>1066.6</ele>
        <time>2021-10-09T10:11:52</time>
      </trkpt>
      <trkpt lat="42.96824" lon="-0.03557">
        <ele>1066.8</ele>
        <time>2021-10-09T10:11:53</time>
      </trkpt>
      <trkpt lat="42.96825" lon="-0.03554">
        <ele>1066.8</ele>
        <time>2021-10-09T10:11:54</time>
      </trkpt>
      <trkpt lat="42.96825" lon="-0.03552">
        <ele>1067</ele>
        <time>2021-10-09T10:11:55</time>
      </trkpt>
      <trkpt lat="42.96825" lon="-0.03549">
        <ele>1067.2</ele>
        <time>2021-10-09T10:11:56</time>
      </trkpt>
      <trkpt lat="42.96825" lon="-0.03547">
        <ele>1067.2</ele>
        <time>2021-10-09T10:11:57</time>
      </trkpt>
      <trkpt lat="42.96825" lon="-0.03545">
        <ele>1067.2</ele>
        <time>2021-10-09T10:11:58</time>
      </trkpt>
      <trkpt lat="42.96825" lon="-0.03542">
        <ele>1067.4</ele>
        <time>2021-10-09T10:11:59</time>
      </trkpt>
      <trkpt lat="42.96825" lon="-0.03539">
        <ele>1067.4</ele>
        <time>2021-10-09T10:12:00</time>
      </trkpt>
      <trkpt lat="42.96825" lon="-0.03537">
        <ele>1067.6</ele>
        <time>2021-10-09T10:12:01</time>
      </trkpt>
      <trkpt lat="42.96826" lon="-0.03534">
        <ele>1067.6</ele>
        <time>2021-10-09T10:12:02</time>
      </trkpt>
      <trkpt lat="42.96827" lon="-0.03532">
        <ele>1067.6</ele>
        <time>2021-10-09T10:12:03</time>
      </trkpt>
      <trkpt lat="42.96827" lon="-0.03529">
        <ele>1067.8</ele>
        <time>2021-10-09T10:12:04</time>
      </trkpt>
      <trkpt lat="42.96828" lon="-0.03527">
        <ele>1067.8</ele>
        <time>2021-10-09T10:12:05</time>
      </trkpt>
      <trkpt lat="42.96829" lon="-0.03524">
        <ele>1067.8</ele>
        <time>2021-10-09T10:12:06</time>
      </trkpt>
      <trkpt lat="42.9683" lon="-0.03523">
        <ele>1067.8</ele>
        <time>2021-10-09T10:12:07</time>
      </trkpt>
      <trkpt lat="42.96831" lon="-0.0352">
        <ele>1067.8</ele>
        <time>2021-10-09T10:12:08</time>
      </trkpt>
      <trkpt lat="42.96832" lon="-0.03517">
        <ele>1068</ele>
        <time>2021-10-09T10:12:09</time>
      </trkpt>
      <trkpt lat="42.96834" lon="-0.03515">
        <ele>1067.8</ele>
        <time>2021-10-09T10:12:10</time>
      </trkpt>
      <trkpt lat="42.96835" lon="-0.03512">
        <ele>1067.6</ele>
        <time>2021-10-09T10:12:11</time>
      </trkpt>
      <trkpt lat="42.96836" lon="-0.03509">
        <ele>1067.6</ele>
        <time>2021-10-09T10:12:12</time>
      </trkpt>
      <trkpt lat="42.96837" lon="-0.03506">
        <ele>1067.2</ele>
        <time>2021-10-09T10:12:13</time>
      </trkpt>
      <trkpt lat="42.96839" lon="-0.03502">
        <ele>1067.2</ele>
        <time>2021-10-09T10:12:14</time>
      </trkpt>
      <trkpt lat="42.9684" lon="-0.035">
        <ele>1067</ele>
        <time>2021-10-09T10:12:15</time>
      </trkpt>
      <trkpt lat="42.96842" lon="-0.03497">
        <ele>1066.6</ele>
        <time>2021-10-09T10:12:16</time>
      </trkpt>
      <trkpt lat="42.96844" lon="-0.03494">
        <ele>1066.4</ele>
        <time>2021-10-09T10:12:17</time>
      </trkpt>
      <trkpt lat="42.96846" lon="-0.0349">
        <ele>1066</ele>
        <time>2021-10-09T10:12:18</time>
      </trkpt>
      <trkpt lat="42.96849" lon="-0.03486">
        <ele>1065.8</ele>
        <time>2021-10-09T10:12:19</time>
      </trkpt>
      <trkpt lat="42.96851" lon="-0.03483">
        <ele>1065.4</ele>
        <time>2021-10-09T10:12:20</time>
      </trkpt>
      <trkpt lat="42.96855" lon="-0.03479">
        <ele>1065</ele>
        <time>2021-10-09T10:12:21</time>
      </trkpt>
      <trkpt lat="42.96857" lon="-0.03475">
        <ele>1064.6</ele>
        <time>2021-10-09T10:12:22</time>
      </trkpt>
      <trkpt lat="42.96859" lon="-0.0347">
        <ele>1064.4</ele>
        <time>2021-10-09T10:12:23</time>
      </trkpt>
      <trkpt lat="42.96862" lon="-0.03467">
        <ele>1063.8</ele>
        <time>2021-10-09T10:12:24</time>
      </trkpt>
      <trkpt lat="42.96865" lon="-0.03463">
        <ele>1063.6</ele>
        <time>2021-10-09T10:12:25</time>
      </trkpt>
      <trkpt lat="42.96868" lon="-0.03459">
        <ele>1063.2</ele>
        <time>2021-10-09T10:12:26</time>
      </trkpt>
      <trkpt lat="42.96872" lon="-0.03456">
        <ele>1062.8</ele>
        <time>2021-10-09T10:12:27</time>
      </trkpt>
      <trkpt lat="42.96877" lon="-0.03451">
        <ele>1062.4</ele>
        <time>2021-10-09T10:12:28</time>
      </trkpt>
      <trkpt lat="42.96881" lon="-0.03447">
        <ele>1062</ele>
        <time>2021-10-09T10:12:29</time>
      </trkpt>
      <trkpt lat="42.96885" lon="-0.03442">
        <ele>1061.4</ele>
        <time>2021-10-09T10:12:30</time>
      </trkpt>
      <trkpt lat="42.96891" lon="-0.03437">
        <ele>1060.8</ele>
        <time>2021-10-09T10:12:31</time>
      </trkpt>
      <trkpt lat="42.96895" lon="-0.03432">
        <ele>1060.6</ele>
        <time>2021-10-09T10:12:32</time>
      </trkpt>
      <trkpt lat="42.96899" lon="-0.03426">
        <ele>1060</ele>
        <time>2021-10-09T10:12:33</time>
      </trkpt>
      <trkpt lat="42.96901" lon="-0.0342">
        <ele>1059.8</ele>
        <time>2021-10-09T10:12:34</time>
      </trkpt>
      <trkpt lat="42.96904" lon="-0.03414">
        <ele>1059.2</ele>
        <time>2021-10-09T10:12:35</time>
      </trkpt>
      <trkpt lat="42.96905" lon="-0.03409">
        <ele>1058.8</ele>
        <time>2021-10-09T10:12:36</time>
      </trkpt>
      <trkpt lat="42.96908" lon="-0.03404">
        <ele>1058.4</ele>
        <time>2021-10-09T10:12:37</time>
      </trkpt>
      <trkpt lat="42.96911" lon="-0.03398">
        <ele>1058.2</ele>
        <time>2021-10-09T10:12:38</time>
      </trkpt>
      <trkpt lat="42.96913" lon="-0.03392">
        <ele>1058</ele>
        <time>2021-10-09T10:12:39</time>
      </trkpt>
      <trkpt lat="42.96918" lon="-0.03387">
        <ele>1058</ele>
        <time>2021-10-09T10:12:40</time>
      </trkpt>
      <trkpt lat="42.9692" lon="-0.03384">
        <ele>1058.4</ele>
        <time>2021-10-09T10:12:41</time>
      </trkpt>
      <trkpt lat="42.96924" lon="-0.03381">
        <ele>1058.4</ele>
        <time>2021-10-09T10:12:42</time>
      </trkpt>
      <trkpt lat="42.96926" lon="-0.03379">
        <ele>1058.4</ele>
        <time>2021-10-09T10:12:43</time>
      </trkpt>
      <trkpt lat="42.96929" lon="-0.03378">
        <ele>1058.6</ele>
        <time>2021-10-09T10:12:44</time>
      </trkpt>
      <trkpt lat="42.96931" lon="-0.03378">
        <ele>1058.6</ele>
        <time>2021-10-09T10:12:45</time>
      </trkpt>
      <trkpt lat="42.96934" lon="-0.03377">
        <ele>1058.8</ele>
        <time>2021-10-09T10:12:46</time>
      </trkpt>
      <trkpt lat="42.96938" lon="-0.03377">
        <ele>1058.8</ele>
        <time>2021-10-09T10:12:47</time>
      </trkpt>
      <trkpt lat="42.9694" lon="-0.03377">
        <ele>1059</ele>
        <time>2021-10-09T10:12:48</time>
      </trkpt>
      <trkpt lat="42.96943" lon="-0.03377">
        <ele>1059</ele>
        <time>2021-10-09T10:12:49</time>
      </trkpt>
      <trkpt lat="42.96946" lon="-0.03378">
        <ele>1059</ele>
        <time>2021-10-09T10:12:50</time>
      </trkpt>
      <trkpt lat="42.9695" lon="-0.03378">
        <ele>1059.2</ele>
        <time>2021-10-09T10:12:51</time>
      </trkpt>
      <trkpt lat="42.96955" lon="-0.03378">
        <ele>1059.2</ele>
        <time>2021-10-09T10:12:52</time>
      </trkpt>
      <trkpt lat="42.9696" lon="-0.03378">
        <ele>1059.4</ele>
        <time>2021-10-09T10:12:53</time>
      </trkpt>
      <trkpt lat="42.96965" lon="-0.03377">
        <ele>1059.4</ele>
        <time>2021-10-09T10:12:54</time>
      </trkpt>
      <trkpt lat="42.96969" lon="-0.03376">
        <ele>1059.4</ele>
        <time>2021-10-09T10:12:55</time>
      </trkpt>
      <trkpt lat="42.96971" lon="-0.03376">
        <ele>1059.6</ele>
        <time>2021-10-09T10:12:56</time>
      </trkpt>
      <trkpt lat="42.96973" lon="-0.03376">
        <ele>1059.8</ele>
        <time>2021-10-09T10:12:57</time>
      </trkpt>
      <trkpt lat="42.96976" lon="-0.03376">
        <ele>1059.8</ele>
        <time>2021-10-09T10:12:58</time>
      </trkpt>
      <trkpt lat="42.96978" lon="-0.03375">
        <ele>1059.8</ele>
        <time>2021-10-09T10:12:59</time>
      </trkpt>
      <trkpt lat="42.9698" lon="-0.03373">
        <ele>1059.8</ele>
        <time>2021-10-09T10:13:00</time>
      </trkpt>
      <trkpt lat="42.96982" lon="-0.03373">
        <ele>1060</ele>
        <time>2021-10-09T10:13:01</time>
      </trkpt>
      <trkpt lat="42.96984" lon="-0.03372">
        <ele>1060</ele>
        <time>2021-10-09T10:13:02</time>
      </trkpt>
      <trkpt lat="42.96986" lon="-0.03371">
        <ele>1060</ele>
        <time>2021-10-09T10:13:03</time>
      </trkpt>
      <trkpt lat="42.96988" lon="-0.0337">
        <ele>1060.2</ele>
        <time>2021-10-09T10:13:04</time>
      </trkpt>
      <trkpt lat="42.9699" lon="-0.03369">
        <ele>1060.2</ele>
        <time>2021-10-09T10:13:05</time>
      </trkpt>
      <trkpt lat="42.96992" lon="-0.03368">
        <ele>1060.4</ele>
        <time>2021-10-09T10:13:06</time>
      </trkpt>
      <trkpt lat="42.96994" lon="-0.03367">
        <ele>1060.4</ele>
        <time>2021-10-09T10:13:07</time>
      </trkpt>
      <trkpt lat="42.96996" lon="-0.03366">
        <ele>1060.6</ele>
        <time>2021-10-09T10:13:08</time>
      </trkpt>
      <trkpt lat="42.96998" lon="-0.03365">
        <ele>1060.6</ele>
        <time>2021-10-09T10:13:09</time>
      </trkpt>
      <trkpt lat="42.97" lon="-0.03363">
        <ele>1060.8</ele>
        <time>2021-10-09T10:13:10</time>
      </trkpt>
      <trkpt lat="42.97002" lon="-0.03362">
        <ele>1060.8</ele>
        <time>2021-10-09T10:13:11</time>
      </trkpt>
      <trkpt lat="42.97004" lon="-0.03361">
        <ele>1061</ele>
        <time>2021-10-09T10:13:12</time>
      </trkpt>
      <trkpt lat="42.97006" lon="-0.0336">
        <ele>1061.2</ele>
        <time>2021-10-09T10:13:13</time>
      </trkpt>
      <trkpt lat="42.97007" lon="-0.0336">
        <ele>1061.2</ele>
        <time>2021-10-09T10:13:14</time>
      </trkpt>
      <trkpt lat="42.97009" lon="-0.03359">
        <ele>1061.4</ele>
        <time>2021-10-09T10:13:15</time>
      </trkpt>
      <trkpt lat="42.97011" lon="-0.03358">
        <ele>1061.4</ele>
        <time>2021-10-09T10:13:16</time>
      </trkpt>
      <trkpt lat="42.97013" lon="-0.03357">
        <ele>1061.6</ele>
        <time>2021-10-09T10:13:17</time>
      </trkpt>
      <trkpt lat="42.97015" lon="-0.03356">
        <ele>1061.8</ele>
        <time>2021-10-09T10:13:18</time>
      </trkpt>
      <trkpt lat="42.97017" lon="-0.03356">
        <ele>1061.8</ele>
        <time>2021-10-09T10:13:19</time>
      </trkpt>
      <trkpt lat="42.97019" lon="-0.03355">
        <ele>1062</ele>
        <time>2021-10-09T10:13:20</time>
      </trkpt>
      <trkpt lat="42.97021" lon="-0.03354">
        <ele>1062</ele>
        <time>2021-10-09T10:13:21</time>
      </trkpt>
      <trkpt lat="42.97023" lon="-0.03354">
        <ele>1062.2</ele>
        <time>2021-10-09T10:13:22</time>
      </trkpt>
      <trkpt lat="42.97025" lon="-0.03353">
        <ele>1062.4</ele>
        <time>2021-10-09T10:13:23</time>
      </trkpt>
      <trkpt lat="42.97027" lon="-0.03352">
        <ele>1062.6</ele>
        <time>2021-10-09T10:13:24</time>
      </trkpt>
      <trkpt lat="42.97029" lon="-0.03351">
        <ele>1062.6</ele>
        <time>2021-10-09T10:13:25</time>
      </trkpt>
      <trkpt lat="42.97031" lon="-0.0335">
        <ele>1062.8</ele>
        <time>2021-10-09T10:13:26</time>
      </trkpt>
      <trkpt lat="42.97033" lon="-0.03349">
        <ele>1063</ele>
        <time>2021-10-09T10:13:27</time>
      </trkpt>
      <trkpt lat="42.97035" lon="-0.03349">
        <ele>1063.2</ele>
        <time>2021-10-09T10:13:28</time>
      </trkpt>
      <trkpt lat="42.97037" lon="-0.03348">
        <ele>1063.4</ele>
        <time>2021-10-09T10:13:29</time>
      </trkpt>
      <trkpt lat="42.97039" lon="-0.03346">
        <ele>1063.4</ele>
        <time>2021-10-09T10:13:30</time>
      </trkpt>
      <trkpt lat="42.9704" lon="-0.03345">
        <ele>1063.6</ele>
        <time>2021-10-09T10:13:31</time>
      </trkpt>
      <trkpt lat="42.97042" lon="-0.03344">
        <ele>1063.6</ele>
        <time>2021-10-09T10:13:32</time>
      </trkpt>
      <trkpt lat="42.97044" lon="-0.03343">
        <ele>1063.8</ele>
        <time>2021-10-09T10:13:33</time>
      </trkpt>
      <trkpt lat="42.97046" lon="-0.03342">
        <ele>1064</ele>
        <time>2021-10-09T10:13:34</time>
      </trkpt>
      <trkpt lat="42.97048" lon="-0.03341">
        <ele>1064.2</ele>
        <time>2021-10-09T10:13:35</time>
      </trkpt>
      <trkpt lat="42.9705" lon="-0.03341">
        <ele>1064.4</ele>
        <time>2021-10-09T10:13:36</time>
      </trkpt>
      <trkpt lat="42.97052" lon="-0.0334">
        <ele>1064.4</ele>
        <time>2021-10-09T10:13:37</time>
      </trkpt>
      <trkpt lat="42.97053" lon="-0.0334">
        <ele>1064.6</ele>
        <time>2021-10-09T10:13:38</time>
      </trkpt>
      <trkpt lat="42.97055" lon="-0.03339">
        <ele>1064.8</ele>
        <time>2021-10-09T10:13:39</time>
      </trkpt>
      <trkpt lat="42.97056" lon="-0.03339">
        <ele>1065</ele>
        <time>2021-10-09T10:13:40</time>
      </trkpt>
      <trkpt lat="42.97058" lon="-0.03339">
        <ele>1065</ele>
        <time>2021-10-09T10:13:41</time>
      </trkpt>
      <trkpt lat="42.97059" lon="-0.03339">
        <ele>1065.2</ele>
        <time>2021-10-09T10:13:42</time>
      </trkpt>
      <trkpt lat="42.97061" lon="-0.03339">
        <ele>1065.4</ele>
        <time>2021-10-09T10:13:43</time>
      </trkpt>
      <trkpt lat="42.97063" lon="-0.0334">
        <ele>1065.4</ele>
        <time>2021-10-09T10:13:44</time>
      </trkpt>
      <trkpt lat="42.97065" lon="-0.0334">
        <ele>1065.6</ele>
        <time>2021-10-09T10:13:45</time>
      </trkpt>
      <trkpt lat="42.97066" lon="-0.03341">
        <ele>1065.8</ele>
        <time>2021-10-09T10:13:46</time>
      </trkpt>
      <trkpt lat="42.97068" lon="-0.03342">
        <ele>1065.8</ele>
        <time>2021-10-09T10:13:47</time>
      </trkpt>
      <trkpt lat="42.9707" lon="-0.03344">
        <ele>1065.8</ele>
        <time>2021-10-09T10:13:48</time>
      </trkpt>
      <trkpt lat="42.97072" lon="-0.03345">
        <ele>1066</ele>
        <time>2021-10-09T10:13:49</time>
      </trkpt>
      <trkpt lat="42.97074" lon="-0.03346">
        <ele>1066.2</ele>
        <time>2021-10-09T10:13:50</time>
      </trkpt>
      <trkpt lat="42.97076" lon="-0.03348">
        <ele>1066.4</ele>
        <time>2021-10-09T10:13:51</time>
      </trkpt>
      <trkpt lat="42.97078" lon="-0.03349">
        <ele>1066.6</ele>
        <time>2021-10-09T10:13:52</time>
      </trkpt>
      <trkpt lat="42.9708" lon="-0.03351">
        <ele>1066.8</ele>
        <time>2021-10-09T10:13:53</time>
      </trkpt>
      <trkpt lat="42.97082" lon="-0.03352">
        <ele>1066.8</ele>
        <time>2021-10-09T10:13:54</time>
      </trkpt>
      <trkpt lat="42.97084" lon="-0.03354">
        <ele>1067</ele>
        <time>2021-10-09T10:13:55</time>
      </trkpt>
      <trkpt lat="42.97087" lon="-0.03356">
        <ele>1067</ele>
        <time>2021-10-09T10:13:56</time>
      </trkpt>
      <trkpt lat="42.97088" lon="-0.03357">
        <ele>1067.2</ele>
        <time>2021-10-09T10:13:57</time>
      </trkpt>
      <trkpt lat="42.97091" lon="-0.03359">
        <ele>1067.4</ele>
        <time>2021-10-09T10:13:58</time>
      </trkpt>
      <trkpt lat="42.97093" lon="-0.0336">
        <ele>1067.6</ele>
        <time>2021-10-09T10:13:59</time>
      </trkpt>
      <trkpt lat="42.97095" lon="-0.03362">
        <ele>1067.6</ele>
        <time>2021-10-09T10:14:00</time>
      </trkpt>
      <trkpt lat="42.97097" lon="-0.03363">
        <ele>1067.6</ele>
        <time>2021-10-09T10:14:01</time>
      </trkpt>
      <trkpt lat="42.97099" lon="-0.03365">
        <ele>1067.8</ele>
        <time>2021-10-09T10:14:02</time>
      </trkpt>
      <trkpt lat="42.97101" lon="-0.03366">
        <ele>1068</ele>
        <time>2021-10-09T10:14:03</time>
      </trkpt>
      <trkpt lat="42.97103" lon="-0.03368">
        <ele>1068</ele>
        <time>2021-10-09T10:14:04</time>
      </trkpt>
      <trkpt lat="42.97105" lon="-0.03369">
        <ele>1068.2</ele>
        <time>2021-10-09T10:14:05</time>
      </trkpt>
      <trkpt lat="42.97107" lon="-0.03371">
        <ele>1068.4</ele>
        <time>2021-10-09T10:14:06</time>
      </trkpt>
      <trkpt lat="42.97109" lon="-0.03372">
        <ele>1068.4</ele>
        <time>2021-10-09T10:14:07</time>
      </trkpt>
      <trkpt lat="42.97111" lon="-0.03373">
        <ele>1068.6</ele>
        <time>2021-10-09T10:14:08</time>
      </trkpt>
      <trkpt lat="42.97113" lon="-0.03375">
        <ele>1068.6</ele>
        <time>2021-10-09T10:14:09</time>
      </trkpt>
      <trkpt lat="42.97115" lon="-0.03376">
        <ele>1069</ele>
        <time>2021-10-09T10:14:10</time>
      </trkpt>
      <trkpt lat="42.97117" lon="-0.03378">
        <ele>1069</ele>
        <time>2021-10-09T10:14:11</time>
      </trkpt>
      <trkpt lat="42.97119" lon="-0.03379">
        <ele>1069.2</ele>
        <time>2021-10-09T10:14:12</time>
      </trkpt>
      <trkpt lat="42.97121" lon="-0.0338">
        <ele>1069.4</ele>
        <time>2021-10-09T10:14:13</time>
      </trkpt>
      <trkpt lat="42.97123" lon="-0.03382">
        <ele>1069.6</ele>
        <time>2021-10-09T10:14:14</time>
      </trkpt>
      <trkpt lat="42.97124" lon="-0.03383">
        <ele>1069.6</ele>
        <time>2021-10-09T10:14:15</time>
      </trkpt>
      <trkpt lat="42.97126" lon="-0.03385">
        <ele>1069.8</ele>
        <time>2021-10-09T10:14:16</time>
      </trkpt>
      <trkpt lat="42.97128" lon="-0.03386">
        <ele>1069.8</ele>
        <time>2021-10-09T10:14:17</time>
      </trkpt>
      <trkpt lat="42.97129" lon="-0.03388">
        <ele>1070</ele>
        <time>2021-10-09T10:14:18</time>
      </trkpt>
      <trkpt lat="42.97131" lon="-0.03389">
        <ele>1070.2</ele>
        <time>2021-10-09T10:14:19</time>
      </trkpt>
      <trkpt lat="42.97133" lon="-0.03391">
        <ele>1070.4</ele>
        <time>2021-10-09T10:14:20</time>
      </trkpt>
      <trkpt lat="42.97135" lon="-0.03392">
        <ele>1070.6</ele>
        <time>2021-10-09T10:14:21</time>
      </trkpt>
      <trkpt lat="42.97136" lon="-0.03394">
        <ele>1070.8</ele>
        <time>2021-10-09T10:14:22</time>
      </trkpt>
      <trkpt lat="42.97138" lon="-0.03395">
        <ele>1070.8</ele>
        <time>2021-10-09T10:14:23</time>
      </trkpt>
      <trkpt lat="42.9714" lon="-0.03396">
        <ele>1071</ele>
        <time>2021-10-09T10:14:24</time>
      </trkpt>
      <trkpt lat="42.97142" lon="-0.03397">
        <ele>1071.2</ele>
        <time>2021-10-09T10:14:25</time>
      </trkpt>
      <trkpt lat="42.97144" lon="-0.03399">
        <ele>1071.2</ele>
        <time>2021-10-09T10:14:26</time>
      </trkpt>
      <trkpt lat="42.97147" lon="-0.034">
        <ele>1071.4</ele>
        <time>2021-10-09T10:14:27</time>
      </trkpt>
      <trkpt lat="42.97149" lon="-0.034">
        <ele>1071.6</ele>
        <time>2021-10-09T10:14:28</time>
      </trkpt>
      <trkpt lat="42.97151" lon="-0.03401">
        <ele>1071.6</ele>
        <time>2021-10-09T10:14:29</time>
      </trkpt>
      <trkpt lat="42.97153" lon="-0.03402">
        <ele>1071.6</ele>
        <time>2021-10-09T10:14:30</time>
      </trkpt>
      <trkpt lat="42.97156" lon="-0.03402">
        <ele>1071.6</ele>
        <time>2021-10-09T10:14:31</time>
      </trkpt>
      <trkpt lat="42.97158" lon="-0.03402">
        <ele>1071.8</ele>
        <time>2021-10-09T10:14:32</time>
      </trkpt>
      <trkpt lat="42.9716" lon="-0.03402">
        <ele>1071.8</ele>
        <time>2021-10-09T10:14:33</time>
      </trkpt>
      <trkpt lat="42.97163" lon="-0.03402">
        <ele>1072</ele>
        <time>2021-10-09T10:14:34</time>
      </trkpt>
      <trkpt lat="42.97166" lon="-0.03402">
        <ele>1072.2</ele>
        <time>2021-10-09T10:14:35</time>
      </trkpt>
      <trkpt lat="42.97169" lon="-0.03402">
        <ele>1072</ele>
        <time>2021-10-09T10:14:36</time>
      </trkpt>
      <trkpt lat="42.97171" lon="-0.03401">
        <ele>1072.2</ele>
        <time>2021-10-09T10:14:37</time>
      </trkpt>
      <trkpt lat="42.97173" lon="-0.03401">
        <ele>1072.4</ele>
        <time>2021-10-09T10:14:38</time>
      </trkpt>
      <trkpt lat="42.97176" lon="-0.03401">
        <ele>1072.4</ele>
        <time>2021-10-09T10:14:39</time>
      </trkpt>
      <trkpt lat="42.97178" lon="-0.034">
        <ele>1072.4</ele>
        <time>2021-10-09T10:14:40</time>
      </trkpt>
      <trkpt lat="42.97181" lon="-0.03399">
        <ele>1072.6</ele>
        <time>2021-10-09T10:14:41</time>
      </trkpt>
      <trkpt lat="42.97183" lon="-0.03398">
        <ele>1072.6</ele>
        <time>2021-10-09T10:14:42</time>
      </trkpt>
      <trkpt lat="42.97185" lon="-0.03396">
        <ele>1072.8</ele>
        <time>2021-10-09T10:14:43</time>
      </trkpt>
      <trkpt lat="42.97187" lon="-0.03395">
        <ele>1072.8</ele>
        <time>2021-10-09T10:14:44</time>
      </trkpt>
      <trkpt lat="42.97189" lon="-0.03393">
        <ele>1073</ele>
        <time>2021-10-09T10:14:45</time>
      </trkpt>
      <trkpt lat="42.97192" lon="-0.03392">
        <ele>1073</ele>
        <time>2021-10-09T10:14:46</time>
      </trkpt>
      <trkpt lat="42.97194" lon="-0.0339">
        <ele>1073</ele>
        <time>2021-10-09T10:14:47</time>
      </trkpt>
      <trkpt lat="42.97196" lon="-0.03388">
        <ele>1073.2</ele>
        <time>2021-10-09T10:14:48</time>
      </trkpt>
      <trkpt lat="42.97198" lon="-0.03386">
        <ele>1073.4</ele>
        <time>2021-10-09T10:14:49</time>
      </trkpt>
      <trkpt lat="42.972" lon="-0.03384">
        <ele>1073.4</ele>
        <time>2021-10-09T10:14:50</time>
      </trkpt>
      <trkpt lat="42.97202" lon="-0.03383">
        <ele>1073.6</ele>
        <time>2021-10-09T10:14:51</time>
      </trkpt>
      <trkpt lat="42.97204" lon="-0.03381">
        <ele>1073.8</ele>
        <time>2021-10-09T10:14:52</time>
      </trkpt>
      <trkpt lat="42.97206" lon="-0.03379">
        <ele>1074</ele>
        <time>2021-10-09T10:14:53</time>
      </trkpt>
      <trkpt lat="42.97207" lon="-0.03378">
        <ele>1074</ele>
        <time>2021-10-09T10:14:54</time>
      </trkpt>
      <trkpt lat="42.97209" lon="-0.03376">
        <ele>1074</ele>
        <time>2021-10-09T10:14:55</time>
      </trkpt>
      <trkpt lat="42.97211" lon="-0.03375">
        <ele>1074.2</ele>
        <time>2021-10-09T10:14:56</time>
      </trkpt>
      <trkpt lat="42.97213" lon="-0.03373">
        <ele>1074.6</ele>
        <time>2021-10-09T10:14:57</time>
      </trkpt>
      <trkpt lat="42.97215" lon="-0.03373">
        <ele>1074.6</ele>
        <time>2021-10-09T10:14:58</time>
      </trkpt>
      <trkpt lat="42.97217" lon="-0.03371">
        <ele>1074.8</ele>
        <time>2021-10-09T10:14:59</time>
      </trkpt>
      <trkpt lat="42.97218" lon="-0.0337">
        <ele>1075</ele>
        <time>2021-10-09T10:15:00</time>
      </trkpt>
      <trkpt lat="42.9722" lon="-0.03368">
        <ele>1075.2</ele>
        <time>2021-10-09T10:15:01</time>
      </trkpt>
      <trkpt lat="42.97222" lon="-0.03367">
        <ele>1075.4</ele>
        <time>2021-10-09T10:15:02</time>
      </trkpt>
      <trkpt lat="42.97224" lon="-0.03366">
        <ele>1075.6</ele>
        <time>2021-10-09T10:15:03</time>
      </trkpt>
      <trkpt lat="42.97226" lon="-0.03364">
        <ele>1075.8</ele>
        <time>2021-10-09T10:15:04</time>
      </trkpt>
      <trkpt lat="42.97228" lon="-0.03363">
        <ele>1075.8</ele>
        <time>2021-10-09T10:15:05</time>
      </trkpt>
      <trkpt lat="42.9723" lon="-0.03362">
        <ele>1076</ele>
        <time>2021-10-09T10:15:06</time>
      </trkpt>
      <trkpt lat="42.97232" lon="-0.0336">
        <ele>1076.2</ele>
        <time>2021-10-09T10:15:07</time>
      </trkpt>
      <trkpt lat="42.97234" lon="-0.03359">
        <ele>1076.2</ele>
        <time>2021-10-09T10:15:08</time>
      </trkpt>
      <trkpt lat="42.97236" lon="-0.03357">
        <ele>1076.4</ele>
        <time>2021-10-09T10:15:09</time>
      </trkpt>
      <trkpt lat="42.97238" lon="-0.03355">
        <ele>1076.6</ele>
        <time>2021-10-09T10:15:10</time>
      </trkpt>
      <trkpt lat="42.9724" lon="-0.03354">
        <ele>1076.6</ele>
        <time>2021-10-09T10:15:11</time>
      </trkpt>
      <trkpt lat="42.97241" lon="-0.03352">
        <ele>1076.8</ele>
        <time>2021-10-09T10:15:12</time>
      </trkpt>
      <trkpt lat="42.97243" lon="-0.0335">
        <ele>1077</ele>
        <time>2021-10-09T10:15:13</time>
      </trkpt>
      <trkpt lat="42.97245" lon="-0.03349">
        <ele>1077</ele>
        <time>2021-10-09T10:15:14</time>
      </trkpt>
      <trkpt lat="42.97247" lon="-0.03348">
        <ele>1077.2</ele>
        <time>2021-10-09T10:15:15</time>
      </trkpt>
      <trkpt lat="42.97249" lon="-0.03346">
        <ele>1077.2</ele>
        <time>2021-10-09T10:15:16</time>
      </trkpt>
      <trkpt lat="42.9725" lon="-0.03344">
        <ele>1077.2</ele>
        <time>2021-10-09T10:15:17</time>
      </trkpt>
      <trkpt lat="42.97252" lon="-0.03342">
        <ele>1077.4</ele>
        <time>2021-10-09T10:15:18</time>
      </trkpt>
      <trkpt lat="42.97254" lon="-0.03341">
        <ele>1077.4</ele>
        <time>2021-10-09T10:15:19</time>
      </trkpt>
      <trkpt lat="42.97256" lon="-0.03339">
        <ele>1077.4</ele>
        <time>2021-10-09T10:15:20</time>
      </trkpt>
      <trkpt lat="42.97258" lon="-0.03337">
        <ele>1077.4</ele>
        <time>2021-10-09T10:15:21</time>
      </trkpt>
      <trkpt lat="42.97261" lon="-0.03335">
        <ele>1077.8</ele>
        <time>2021-10-09T10:15:22</time>
      </trkpt>
      <trkpt lat="42.97263" lon="-0.03333">
        <ele>1077.6</ele>
        <time>2021-10-09T10:15:23</time>
      </trkpt>
      <trkpt lat="42.97265" lon="-0.03331">
        <ele>1077.8</ele>
        <time>2021-10-09T10:15:24</time>
      </trkpt>
      <trkpt lat="42.97267" lon="-0.03329">
        <ele>1077.8</ele>
        <time>2021-10-09T10:15:25</time>
      </trkpt>
      <trkpt lat="42.97269" lon="-0.03328">
        <ele>1077.8</ele>
        <time>2021-10-09T10:15:26</time>
      </trkpt>
      <trkpt lat="42.9727" lon="-0.03327">
        <ele>1077.8</ele>
        <time>2021-10-09T10:15:27</time>
      </trkpt>
      <trkpt lat="42.97272" lon="-0.03325">
        <ele>1077.8</ele>
        <time>2021-10-09T10:15:28</time>
      </trkpt>
      <trkpt lat="42.97274" lon="-0.03323">
        <ele>1077.8</ele>
        <time>2021-10-09T10:15:29</time>
      </trkpt>
      <trkpt lat="42.97276" lon="-0.03322">
        <ele>1077.8</ele>
        <time>2021-10-09T10:15:30</time>
      </trkpt>
      <trkpt lat="42.97277" lon="-0.03321">
        <ele>1077.6</ele>
        <time>2021-10-09T10:15:31</time>
      </trkpt>
      <trkpt lat="42.97279" lon="-0.03319">
        <ele>1077.6</ele>
        <time>2021-10-09T10:15:32</time>
      </trkpt>
      <trkpt lat="42.97281" lon="-0.03319">
        <ele>1077.6</ele>
        <time>2021-10-09T10:15:33</time>
      </trkpt>
      <trkpt lat="42.97283" lon="-0.03318">
        <ele>1077.6</ele>
        <time>2021-10-09T10:15:34</time>
      </trkpt>
      <trkpt lat="42.97285" lon="-0.03317">
        <ele>1077.6</ele>
        <time>2021-10-09T10:15:35</time>
      </trkpt>
      <trkpt lat="42.97287" lon="-0.03316">
        <ele>1077.4</ele>
        <time>2021-10-09T10:15:36</time>
      </trkpt>
      <trkpt lat="42.97289" lon="-0.03316">
        <ele>1077.4</ele>
        <time>2021-10-09T10:15:37</time>
      </trkpt>
      <trkpt lat="42.97293" lon="-0.03316">
        <ele>1077.2</ele>
        <time>2021-10-09T10:15:38</time>
      </trkpt>
      <trkpt lat="42.97295" lon="-0.03316">
        <ele>1077</ele>
        <time>2021-10-09T10:15:39</time>
      </trkpt>
      <trkpt lat="42.97298" lon="-0.03317">
        <ele>1077.2</ele>
        <time>2021-10-09T10:15:40</time>
      </trkpt>
      <trkpt lat="42.97301" lon="-0.03318">
        <ele>1077.4</ele>
        <time>2021-10-09T10:15:41</time>
      </trkpt>
      <trkpt lat="42.97304" lon="-0.03318">
        <ele>1077.4</ele>
        <time>2021-10-09T10:15:42</time>
      </trkpt>
      <trkpt lat="42.97307" lon="-0.03318">
        <ele>1077.6</ele>
        <time>2021-10-09T10:15:43</time>
      </trkpt>
      <trkpt lat="42.9731" lon="-0.03318">
        <ele>1077.8</ele>
        <time>2021-10-09T10:15:44</time>
      </trkpt>
      <trkpt lat="42.97312" lon="-0.03317">
        <ele>1078</ele>
        <time>2021-10-09T10:15:45</time>
      </trkpt>
      <trkpt lat="42.97314" lon="-0.03315">
        <ele>1078.2</ele>
        <time>2021-10-09T10:15:46</time>
      </trkpt>
      <trkpt lat="42.97316" lon="-0.03313">
        <ele>1078.4</ele>
        <time>2021-10-09T10:15:47</time>
      </trkpt>
      <trkpt lat="42.97318" lon="-0.03311">
        <ele>1078.8</ele>
        <time>2021-10-09T10:15:48</time>
      </trkpt>
      <trkpt lat="42.97318" lon="-0.03309">
        <ele>1079</ele>
        <time>2021-10-09T10:15:49</time>
      </trkpt>
      <trkpt lat="42.97318" lon="-0.03307">
        <ele>1079.2</ele>
        <time>2021-10-09T10:15:50</time>
      </trkpt>
      <trkpt lat="42.97317" lon="-0.03306">
        <ele>1079.4</ele>
        <time>2021-10-09T10:15:51</time>
      </trkpt>
      <trkpt lat="42.97317" lon="-0.03304">
        <ele>1079.6</ele>
        <time>2021-10-09T10:15:52</time>
      </trkpt>
      <trkpt lat="42.97316" lon="-0.03302">
        <ele>1079.8</ele>
        <time>2021-10-09T10:15:53</time>
      </trkpt>
      <trkpt lat="42.97315" lon="-0.03301">
        <ele>1080</ele>
        <time>2021-10-09T10:15:54</time>
      </trkpt>
      <trkpt lat="42.97314" lon="-0.033">
        <ele>1080.2</ele>
        <time>2021-10-09T10:15:55</time>
      </trkpt>
      <trkpt lat="42.97312" lon="-0.03299">
        <ele>1080.6</ele>
        <time>2021-10-09T10:15:56</time>
      </trkpt>
      <trkpt lat="42.97312" lon="-0.03298">
        <ele>1080.8</ele>
        <time>2021-10-09T10:15:57</time>
      </trkpt>
      <trkpt lat="42.97311" lon="-0.03296">
        <ele>1081</ele>
        <time>2021-10-09T10:15:58</time>
      </trkpt>
      <trkpt lat="42.9731" lon="-0.03295">
        <ele>1081.2</ele>
        <time>2021-10-09T10:15:59</time>
      </trkpt>
      <trkpt lat="42.97309" lon="-0.03294">
        <ele>1081.6</ele>
        <time>2021-10-09T10:16:00</time>
      </trkpt>
      <trkpt lat="42.97309" lon="-0.03292">
        <ele>1081.6</ele>
        <time>2021-10-09T10:16:01</time>
      </trkpt>
      <trkpt lat="42.97308" lon="-0.0329">
        <ele>1082</ele>
        <time>2021-10-09T10:16:02</time>
      </trkpt>
      <trkpt lat="42.97308" lon="-0.03289">
        <ele>1082</ele>
        <time>2021-10-09T10:16:03</time>
      </trkpt>
      <trkpt lat="42.97308" lon="-0.03287">
        <ele>1082.4</ele>
        <time>2021-10-09T10:16:04</time>
      </trkpt>
      <trkpt lat="42.97307" lon="-0.03286">
        <ele>1082.6</ele>
        <time>2021-10-09T10:16:05</time>
      </trkpt>
      <trkpt lat="42.97306" lon="-0.03284">
        <ele>1082.8</ele>
        <time>2021-10-09T10:16:06</time>
      </trkpt>
      <trkpt lat="42.97306" lon="-0.03282">
        <ele>1083</ele>
        <time>2021-10-09T10:16:07</time>
      </trkpt>
      <trkpt lat="42.97305" lon="-0.0328">
        <ele>1083.2</ele>
        <time>2021-10-09T10:16:08</time>
      </trkpt>
      <trkpt lat="42.97304" lon="-0.03278">
        <ele>1083.4</ele>
        <time>2021-10-09T10:16:09</time>
      </trkpt>
      <trkpt lat="42.97303" lon="-0.03277">
        <ele>1083.6</ele>
        <time>2021-10-09T10:16:10</time>
      </trkpt>
      <trkpt lat="42.97302" lon="-0.03275">
        <ele>1083.8</ele>
        <time>2021-10-09T10:16:11</time>
      </trkpt>
      <trkpt lat="42.97302" lon="-0.03274">
        <ele>1084</ele>
        <time>2021-10-09T10:16:12</time>
      </trkpt>
      <trkpt lat="42.97301" lon="-0.03272">
        <ele>1084.2</ele>
        <time>2021-10-09T10:16:13</time>
      </trkpt>
      <trkpt lat="42.973" lon="-0.0327">
        <ele>1084.4</ele>
        <time>2021-10-09T10:16:14</time>
      </trkpt>
      <trkpt lat="42.97299" lon="-0.03268">
        <ele>1084.6</ele>
        <time>2021-10-09T10:16:15</time>
      </trkpt>
      <trkpt lat="42.97298" lon="-0.03267">
        <ele>1084.8</ele>
        <time>2021-10-09T10:16:16</time>
      </trkpt>
      <trkpt lat="42.97297" lon="-0.03266">
        <ele>1085</ele>
        <time>2021-10-09T10:16:17</time>
      </trkpt>
      <trkpt lat="42.97296" lon="-0.03265">
        <ele>1085.2</ele>
        <time>2021-10-09T10:16:18</time>
      </trkpt>
      <trkpt lat="42.97294" lon="-0.03264">
        <ele>1085.4</ele>
        <time>2021-10-09T10:16:19</time>
      </trkpt>
      <trkpt lat="42.97293" lon="-0.03263">
        <ele>1085.6</ele>
        <time>2021-10-09T10:16:20</time>
      </trkpt>
      <trkpt lat="42.97292" lon="-0.03261">
        <ele>1085.8</ele>
        <time>2021-10-09T10:16:21</time>
      </trkpt>
      <trkpt lat="42.97291" lon="-0.0326">
        <ele>1086</ele>
        <time>2021-10-09T10:16:22</time>
      </trkpt>
      <trkpt lat="42.9729" lon="-0.03259">
        <ele>1086.2</ele>
        <time>2021-10-09T10:16:23</time>
      </trkpt>
      <trkpt lat="42.97289" lon="-0.03258">
        <ele>1086.4</ele>
        <time>2021-10-09T10:16:24</time>
      </trkpt>
      <trkpt lat="42.97288" lon="-0.03256">
        <ele>1086.6</ele>
        <time>2021-10-09T10:16:25</time>
      </trkpt>
      <trkpt lat="42.97287" lon="-0.03255">
        <ele>1086.8</ele>
        <time>2021-10-09T10:16:26</time>
      </trkpt>
      <trkpt lat="42.97285" lon="-0.03253">
        <ele>1087</ele>
        <time>2021-10-09T10:16:27</time>
      </trkpt>
      <trkpt lat="42.97284" lon="-0.03252">
        <ele>1087.2</ele>
        <time>2021-10-09T10:16:28</time>
      </trkpt>
      <trkpt lat="42.97283" lon="-0.03251">
        <ele>1087.4</ele>
        <time>2021-10-09T10:16:29</time>
      </trkpt>
      <trkpt lat="42.97282" lon="-0.0325">
        <ele>1087.6</ele>
        <time>2021-10-09T10:16:30</time>
      </trkpt>
      <trkpt lat="42.9728" lon="-0.03249">
        <ele>1087.8</ele>
        <time>2021-10-09T10:16:31</time>
      </trkpt>
      <trkpt lat="42.97279" lon="-0.03248">
        <ele>1088</ele>
        <time>2021-10-09T10:16:32</time>
      </trkpt>
      <trkpt lat="42.97278" lon="-0.03246">
        <ele>1088.2</ele>
        <time>2021-10-09T10:16:33</time>
      </trkpt>
      <trkpt lat="42.97277" lon="-0.03245">
        <ele>1088.4</ele>
        <time>2021-10-09T10:16:34</time>
      </trkpt>
      <trkpt lat="42.97276" lon="-0.03243">
        <ele>1088.6</ele>
        <time>2021-10-09T10:16:35</time>
      </trkpt>
      <trkpt lat="42.97276" lon="-0.03242">
        <ele>1088.8</ele>
        <time>2021-10-09T10:16:36</time>
      </trkpt>
      <trkpt lat="42.97275" lon="-0.0324">
        <ele>1088.8</ele>
        <time>2021-10-09T10:16:37</time>
      </trkpt>
      <trkpt lat="42.97275" lon="-0.03239">
        <ele>1089</ele>
        <time>2021-10-09T10:16:38</time>
      </trkpt>
      <trkpt lat="42.97275" lon="-0.03237">
        <ele>1089.2</ele>
        <time>2021-10-09T10:16:39</time>
      </trkpt>
      <trkpt lat="42.97275" lon="-0.03235">
        <ele>1089.4</ele>
        <time>2021-10-09T10:16:40</time>
      </trkpt>
      <trkpt lat="42.97275" lon="-0.03236">
        <ele>1089.4</ele>
        <time>2021-10-09T10:16:41</time>
      </trkpt>
      <trkpt lat="42.97275" lon="-0.03235">
        <ele>1089.8</ele>
        <time>2021-10-09T10:16:42</time>
      </trkpt>
      <trkpt lat="42.97276" lon="-0.03233">
        <ele>1089.8</ele>
        <time>2021-10-09T10:16:43</time>
      </trkpt>
      <trkpt lat="42.97277" lon="-0.03232">
        <ele>1090</ele>
        <time>2021-10-09T10:16:44</time>
      </trkpt>
      <trkpt lat="42.97277" lon="-0.0323">
        <ele>1090.2</ele>
        <time>2021-10-09T10:16:45</time>
      </trkpt>
      <trkpt lat="42.97278" lon="-0.03228">
        <ele>1090.4</ele>
        <time>2021-10-09T10:16:46</time>
      </trkpt>
      <trkpt lat="42.97278" lon="-0.03227">
        <ele>1090.6</ele>
        <time>2021-10-09T10:16:47</time>
      </trkpt>
      <trkpt lat="42.97279" lon="-0.03226">
        <ele>1090.6</ele>
        <time>2021-10-09T10:16:48</time>
      </trkpt>
      <trkpt lat="42.9728" lon="-0.03225">
        <ele>1090.8</ele>
        <time>2021-10-09T10:16:49</time>
      </trkpt>
      <trkpt lat="42.97281" lon="-0.03224">
        <ele>1091</ele>
        <time>2021-10-09T10:16:50</time>
      </trkpt>
      <trkpt lat="42.97282" lon="-0.03223">
        <ele>1091.2</ele>
        <time>2021-10-09T10:16:51</time>
      </trkpt>
      <trkpt lat="42.97283" lon="-0.03222">
        <ele>1091.4</ele>
        <time>2021-10-09T10:16:52</time>
      </trkpt>
      <trkpt lat="42.97284" lon="-0.03222">
        <ele>1091.6</ele>
        <time>2021-10-09T10:16:53</time>
      </trkpt>
      <trkpt lat="42.97285" lon="-0.03221">
        <ele>1091.8</ele>
        <time>2021-10-09T10:16:54</time>
      </trkpt>
      <trkpt lat="42.97286" lon="-0.03221">
        <ele>1091.8</ele>
        <time>2021-10-09T10:16:55</time>
      </trkpt>
      <trkpt lat="42.97288" lon="-0.0322">
        <ele>1092</ele>
        <time>2021-10-09T10:16:56</time>
      </trkpt>
      <trkpt lat="42.97289" lon="-0.0322">
        <ele>1092.2</ele>
        <time>2021-10-09T10:16:57</time>
      </trkpt>
      <trkpt lat="42.97291" lon="-0.03219">
        <ele>1092.4</ele>
        <time>2021-10-09T10:16:58</time>
      </trkpt>
      <trkpt lat="42.97292" lon="-0.03219">
        <ele>1092.4</ele>
        <time>2021-10-09T10:16:59</time>
      </trkpt>
      <trkpt lat="42.97294" lon="-0.03219">
        <ele>1092.6</ele>
        <time>2021-10-09T10:17:00</time>
      </trkpt>
      <trkpt lat="42.97295" lon="-0.03219">
        <ele>1092.8</ele>
        <time>2021-10-09T10:17:01</time>
      </trkpt>
      <trkpt lat="42.97297" lon="-0.03219">
        <ele>1092.8</ele>
        <time>2021-10-09T10:17:02</time>
      </trkpt>
      <trkpt lat="42.97299" lon="-0.03221">
        <ele>1093</ele>
        <time>2021-10-09T10:17:03</time>
      </trkpt>
      <trkpt lat="42.973" lon="-0.03221">
        <ele>1093.2</ele>
        <time>2021-10-09T10:17:04</time>
      </trkpt>
      <trkpt lat="42.97302" lon="-0.03221">
        <ele>1093.4</ele>
        <time>2021-10-09T10:17:05</time>
      </trkpt>
      <trkpt lat="42.97303" lon="-0.03222">
        <ele>1093.6</ele>
        <time>2021-10-09T10:17:06</time>
      </trkpt>
      <trkpt lat="42.97305" lon="-0.03223">
        <ele>1093.6</ele>
        <time>2021-10-09T10:17:07</time>
      </trkpt>
      <trkpt lat="42.97307" lon="-0.03224">
        <ele>1093.8</ele>
        <time>2021-10-09T10:17:08</time>
      </trkpt>
      <trkpt lat="42.97309" lon="-0.03225">
        <ele>1094</ele>
        <time>2021-10-09T10:17:09</time>
      </trkpt>
      <trkpt lat="42.9731" lon="-0.03227">
        <ele>1094</ele>
        <time>2021-10-09T10:17:10</time>
      </trkpt>
      <trkpt lat="42.97312" lon="-0.03228">
        <ele>1094.2</ele>
        <time>2021-10-09T10:17:11</time>
      </trkpt>
      <trkpt lat="42.97314" lon="-0.03229">
        <ele>1094.4</ele>
        <time>2021-10-09T10:17:12</time>
      </trkpt>
      <trkpt lat="42.97315" lon="-0.03229">
        <ele>1094.6</ele>
        <time>2021-10-09T10:17:13</time>
      </trkpt>
      <trkpt lat="42.97317" lon="-0.03228">
        <ele>1094.8</ele>
        <time>2021-10-09T10:17:14</time>
      </trkpt>
      <trkpt lat="42.97318" lon="-0.03228">
        <ele>1094.8</ele>
        <time>2021-10-09T10:17:15</time>
      </trkpt>
      <trkpt lat="42.9732" lon="-0.03227">
        <ele>1095</ele>
        <time>2021-10-09T10:17:16</time>
      </trkpt>
      <trkpt lat="42.97321" lon="-0.03225">
        <ele>1095.2</ele>
        <time>2021-10-09T10:17:17</time>
      </trkpt>
      <trkpt lat="42.97322" lon="-0.03224">
        <ele>1095.4</ele>
        <time>2021-10-09T10:17:18</time>
      </trkpt>
      <trkpt lat="42.97322" lon="-0.03222">
        <ele>1095.4</ele>
        <time>2021-10-09T10:17:19</time>
      </trkpt>
      <trkpt lat="42.97322" lon="-0.03221">
        <ele>1095.6</ele>
        <time>2021-10-09T10:17:20</time>
      </trkpt>
      <trkpt lat="42.97321" lon="-0.03219">
        <ele>1095.8</ele>
        <time>2021-10-09T10:17:21</time>
      </trkpt>
      <trkpt lat="42.97321" lon="-0.03219">
        <ele>1096</ele>
        <time>2021-10-09T10:17:22</time>
      </trkpt>
      <trkpt lat="42.9732" lon="-0.03218">
        <ele>1096.2</ele>
        <time>2021-10-09T10:17:23</time>
      </trkpt>
      <trkpt lat="42.9732" lon="-0.03217">
        <ele>1096.4</ele>
        <time>2021-10-09T10:17:24</time>
      </trkpt>
      <trkpt lat="42.97319" lon="-0.03215">
        <ele>1096.6</ele>
        <time>2021-10-09T10:17:25</time>
      </trkpt>
      <trkpt lat="42.97319" lon="-0.03214">
        <ele>1096.8</ele>
        <time>2021-10-09T10:17:26</time>
      </trkpt>
      <trkpt lat="42.97318" lon="-0.03213">
        <ele>1096.8</ele>
        <time>2021-10-09T10:17:27</time>
      </trkpt>
      <trkpt lat="42.97317" lon="-0.03211">
        <ele>1097</ele>
        <time>2021-10-09T10:17:28</time>
      </trkpt>
      <trkpt lat="42.97316" lon="-0.0321">
        <ele>1097.2</ele>
        <time>2021-10-09T10:17:29</time>
      </trkpt>
      <trkpt lat="42.97315" lon="-0.03209">
        <ele>1097.4</ele>
        <time>2021-10-09T10:17:30</time>
      </trkpt>
      <trkpt lat="42.97314" lon="-0.03208">
        <ele>1097.4</ele>
        <time>2021-10-09T10:17:31</time>
      </trkpt>
      <trkpt lat="42.97313" lon="-0.03207">
        <ele>1097.6</ele>
        <time>2021-10-09T10:17:32</time>
      </trkpt>
      <trkpt lat="42.97312" lon="-0.03206">
        <ele>1097.8</ele>
        <time>2021-10-09T10:17:33</time>
      </trkpt>
      <trkpt lat="42.97311" lon="-0.03205">
        <ele>1098</ele>
        <time>2021-10-09T10:17:34</time>
      </trkpt>
      <trkpt lat="42.9731" lon="-0.03203">
        <ele>1098.2</ele>
        <time>2021-10-09T10:17:35</time>
      </trkpt>
      <trkpt lat="42.97309" lon="-0.03202">
        <ele>1098.4</ele>
        <time>2021-10-09T10:17:36</time>
      </trkpt>
      <trkpt lat="42.97308" lon="-0.03201">
        <ele>1098.6</ele>
        <time>2021-10-09T10:17:37</time>
      </trkpt>
      <trkpt lat="42.97307" lon="-0.032">
        <ele>1098.8</ele>
        <time>2021-10-09T10:17:38</time>
      </trkpt>
      <trkpt lat="42.97305" lon="-0.03199">
        <ele>1099</ele>
        <time>2021-10-09T10:17:39</time>
      </trkpt>
      <trkpt lat="42.97304" lon="-0.03198">
        <ele>1099.2</ele>
        <time>2021-10-09T10:17:40</time>
      </trkpt>
      <trkpt lat="42.97303" lon="-0.03198">
        <ele>1099.4</ele>
        <time>2021-10-09T10:17:41</time>
      </trkpt>
      <trkpt lat="42.97302" lon="-0.03197">
        <ele>1099.4</ele>
        <time>2021-10-09T10:17:42</time>
      </trkpt>
      <trkpt lat="42.973" lon="-0.03197">
        <ele>1099.6</ele>
        <time>2021-10-09T10:17:43</time>
      </trkpt>
      <trkpt lat="42.97299" lon="-0.03196">
        <ele>1099.8</ele>
        <time>2021-10-09T10:17:44</time>
      </trkpt>
      <trkpt lat="42.97297" lon="-0.03196">
        <ele>1100</ele>
        <time>2021-10-09T10:17:45</time>
      </trkpt>
      <trkpt lat="42.97296" lon="-0.03195">
        <ele>1100.4</ele>
        <time>2021-10-09T10:17:46</time>
      </trkpt>
      <trkpt lat="42.97294" lon="-0.03195">
        <ele>1100.4</ele>
        <time>2021-10-09T10:17:47</time>
      </trkpt>
      <trkpt lat="42.97293" lon="-0.03194">
        <ele>1100.6</ele>
        <time>2021-10-09T10:17:48</time>
      </trkpt>
      <trkpt lat="42.97291" lon="-0.03194">
        <ele>1100.8</ele>
        <time>2021-10-09T10:17:49</time>
      </trkpt>
      <trkpt lat="42.9729" lon="-0.03194">
        <ele>1101</ele>
        <time>2021-10-09T10:17:50</time>
      </trkpt>
      <trkpt lat="42.97288" lon="-0.03194">
        <ele>1101.2</ele>
        <time>2021-10-09T10:17:51</time>
      </trkpt>
      <trkpt lat="42.97287" lon="-0.03193">
        <ele>1101.4</ele>
        <time>2021-10-09T10:17:52</time>
      </trkpt>
      <trkpt lat="42.97286" lon="-0.03193">
        <ele>1101.6</ele>
        <time>2021-10-09T10:17:53</time>
      </trkpt>
      <trkpt lat="42.97284" lon="-0.03192">
        <ele>1101.6</ele>
        <time>2021-10-09T10:17:54</time>
      </trkpt>
      <trkpt lat="42.97283" lon="-0.03192">
        <ele>1102</ele>
        <time>2021-10-09T10:17:55</time>
      </trkpt>
      <trkpt lat="42.97281" lon="-0.03191">
        <ele>1102.2</ele>
        <time>2021-10-09T10:17:56</time>
      </trkpt>
      <trkpt lat="42.9728" lon="-0.03191">
        <ele>1102.2</ele>
        <time>2021-10-09T10:17:57</time>
      </trkpt>
      <trkpt lat="42.97279" lon="-0.0319">
        <ele>1102.4</ele>
        <time>2021-10-09T10:17:58</time>
      </trkpt>
      <trkpt lat="42.97277" lon="-0.03189">
        <ele>1102.6</ele>
        <time>2021-10-09T10:17:59</time>
      </trkpt>
      <trkpt lat="42.97276" lon="-0.03188">
        <ele>1102.8</ele>
        <time>2021-10-09T10:18:00</time>
      </trkpt>
      <trkpt lat="42.97275" lon="-0.03188">
        <ele>1103</ele>
        <time>2021-10-09T10:18:01</time>
      </trkpt>
      <trkpt lat="42.97273" lon="-0.03187">
        <ele>1103.2</ele>
        <time>2021-10-09T10:18:02</time>
      </trkpt>
      <trkpt lat="42.97272" lon="-0.03186">
        <ele>1103.2</ele>
        <time>2021-10-09T10:18:03</time>
      </trkpt>
      <trkpt lat="42.9727" lon="-0.03185">
        <ele>1103.4</ele>
        <time>2021-10-09T10:18:04</time>
      </trkpt>
      <trkpt lat="42.97269" lon="-0.03184">
        <ele>1103.4</ele>
        <time>2021-10-09T10:18:05</time>
      </trkpt>
      <trkpt lat="42.97268" lon="-0.03183">
        <ele>1103.6</ele>
        <time>2021-10-09T10:18:06</time>
      </trkpt>
      <trkpt lat="42.97267" lon="-0.03182">
        <ele>1103.8</ele>
        <time>2021-10-09T10:18:07</time>
      </trkpt>
      <trkpt lat="42.97265" lon="-0.03181">
        <ele>1104</ele>
        <time>2021-10-09T10:18:08</time>
      </trkpt>
      <trkpt lat="42.97264" lon="-0.0318">
        <ele>1104.2</ele>
        <time>2021-10-09T10:18:09</time>
      </trkpt>
      <trkpt lat="42.97262" lon="-0.03179">
        <ele>1104.4</ele>
        <time>2021-10-09T10:18:10</time>
      </trkpt>
      <trkpt lat="42.97261" lon="-0.03178">
        <ele>1104.6</ele>
        <time>2021-10-09T10:18:11</time>
      </trkpt>
      <trkpt lat="42.9726" lon="-0.03177">
        <ele>1104.6</ele>
        <time>2021-10-09T10:18:12</time>
      </trkpt>
      <trkpt lat="42.97259" lon="-0.03176">
        <ele>1104.8</ele>
        <time>2021-10-09T10:18:13</time>
      </trkpt>
      <trkpt lat="42.97258" lon="-0.03175">
        <ele>1105</ele>
        <time>2021-10-09T10:18:14</time>
      </trkpt>
      <trkpt lat="42.97256" lon="-0.03174">
        <ele>1105.2</ele>
        <time>2021-10-09T10:18:15</time>
      </trkpt>
      <trkpt lat="42.97255" lon="-0.03173">
        <ele>1105.4</ele>
        <time>2021-10-09T10:18:16</time>
      </trkpt>
      <trkpt lat="42.97254" lon="-0.03172">
        <ele>1105.6</ele>
        <time>2021-10-09T10:18:17</time>
      </trkpt>
      <trkpt lat="42.97252" lon="-0.03171">
        <ele>1105.6</ele>
        <time>2021-10-09T10:18:18</time>
      </trkpt>
      <trkpt lat="42.97251" lon="-0.0317">
        <ele>1105.8</ele>
        <time>2021-10-09T10:18:19</time>
      </trkpt>
      <trkpt lat="42.9725" lon="-0.03169">
        <ele>1106</ele>
        <time>2021-10-09T10:18:20</time>
      </trkpt>
      <trkpt lat="42.97249" lon="-0.03169">
        <ele>1106</ele>
        <time>2021-10-09T10:18:21</time>
      </trkpt>
      <trkpt lat="42.97247" lon="-0.03168">
        <ele>1106.2</ele>
        <time>2021-10-09T10:18:22</time>
      </trkpt>
      <trkpt lat="42.97247" lon="-0.03167">
        <ele>1106.4</ele>
        <time>2021-10-09T10:18:23</time>
      </trkpt>
      <trkpt lat="42.97246" lon="-0.03165">
        <ele>1106.6</ele>
        <time>2021-10-09T10:18:24</time>
      </trkpt>
      <trkpt lat="42.97245" lon="-0.03164">
        <ele>1106.8</ele>
        <time>2021-10-09T10:18:25</time>
      </trkpt>
      <trkpt lat="42.97245" lon="-0.03163">
        <ele>1107</ele>
        <time>2021-10-09T10:18:26</time>
      </trkpt>
      <trkpt lat="42.97246" lon="-0.03161">
        <ele>1107.2</ele>
        <time>2021-10-09T10:18:27</time>
      </trkpt>
      <trkpt lat="42.97246" lon="-0.03159">
        <ele>1107.2</ele>
        <time>2021-10-09T10:18:28</time>
      </trkpt>
      <trkpt lat="42.97247" lon="-0.03158">
        <ele>1107.4</ele>
        <time>2021-10-09T10:18:29</time>
      </trkpt>
      <trkpt lat="42.97248" lon="-0.03157">
        <ele>1107.6</ele>
        <time>2021-10-09T10:18:30</time>
      </trkpt>
      <trkpt lat="42.97249" lon="-0.03155">
        <ele>1107.6</ele>
        <time>2021-10-09T10:18:31</time>
      </trkpt>
      <trkpt lat="42.9725" lon="-0.03155">
        <ele>1107.8</ele>
        <time>2021-10-09T10:18:32</time>
      </trkpt>
      <trkpt lat="42.97251" lon="-0.03155">
        <ele>1108</ele>
        <time>2021-10-09T10:18:33</time>
      </trkpt>
      <trkpt lat="42.97252" lon="-0.03155">
        <ele>1108.2</ele>
        <time>2021-10-09T10:18:34</time>
      </trkpt>
      <trkpt lat="42.97254" lon="-0.03156">
        <ele>1108.4</ele>
        <time>2021-10-09T10:18:35</time>
      </trkpt>
      <trkpt lat="42.97255" lon="-0.03157">
        <ele>1108.6</ele>
        <time>2021-10-09T10:18:36</time>
      </trkpt>
      <trkpt lat="42.97256" lon="-0.03158">
        <ele>1108.8</ele>
        <time>2021-10-09T10:18:37</time>
      </trkpt>
      <trkpt lat="42.97258" lon="-0.03159">
        <ele>1109</ele>
        <time>2021-10-09T10:18:38</time>
      </trkpt>
      <trkpt lat="42.97259" lon="-0.03159">
        <ele>1109</ele>
        <time>2021-10-09T10:18:39</time>
      </trkpt>
      <trkpt lat="42.9726" lon="-0.0316">
        <ele>1109.2</ele>
        <time>2021-10-09T10:18:40</time>
      </trkpt>
      <trkpt lat="42.97262" lon="-0.03161">
        <ele>1109.2</ele>
        <time>2021-10-09T10:18:41</time>
      </trkpt>
      <trkpt lat="42.97263" lon="-0.03162">
        <ele>1109.4</ele>
        <time>2021-10-09T10:18:42</time>
      </trkpt>
      <trkpt lat="42.97264" lon="-0.03162">
        <ele>1109.6</ele>
        <time>2021-10-09T10:18:43</time>
      </trkpt>
      <trkpt lat="42.97266" lon="-0.03163">
        <ele>1109.8</ele>
        <time>2021-10-09T10:18:44</time>
      </trkpt>
      <trkpt lat="42.97267" lon="-0.03164">
        <ele>1110</ele>
        <time>2021-10-09T10:18:45</time>
      </trkpt>
      <trkpt lat="42.97268" lon="-0.03164">
        <ele>1110.4</ele>
        <time>2021-10-09T10:18:46</time>
      </trkpt>
      <trkpt lat="42.9727" lon="-0.03165">
        <ele>1110.4</ele>
        <time>2021-10-09T10:18:47</time>
      </trkpt>
      <trkpt lat="42.97271" lon="-0.03164">
        <ele>1110.6</ele>
        <time>2021-10-09T10:18:48</time>
      </trkpt>
      <trkpt lat="42.97273" lon="-0.03164">
        <ele>1110.8</ele>
        <time>2021-10-09T10:18:49</time>
      </trkpt>
      <trkpt lat="42.97275" lon="-0.03164">
        <ele>1111</ele>
        <time>2021-10-09T10:18:50</time>
      </trkpt>
      <trkpt lat="42.97276" lon="-0.03164">
        <ele>1111</ele>
        <time>2021-10-09T10:18:51</time>
      </trkpt>
      <trkpt lat="42.97278" lon="-0.03164">
        <ele>1111.2</ele>
        <time>2021-10-09T10:18:52</time>
      </trkpt>
      <trkpt lat="42.97279" lon="-0.03163">
        <ele>1111.2</ele>
        <time>2021-10-09T10:18:53</time>
      </trkpt>
      <trkpt lat="42.97281" lon="-0.03162">
        <ele>1111.6</ele>
        <time>2021-10-09T10:18:54</time>
      </trkpt>
      <trkpt lat="42.97282" lon="-0.03161">
        <ele>1111.8</ele>
        <time>2021-10-09T10:18:55</time>
      </trkpt>
      <trkpt lat="42.97283" lon="-0.03161">
        <ele>1111.8</ele>
        <time>2021-10-09T10:18:56</time>
      </trkpt>
      <trkpt lat="42.97285" lon="-0.0316">
        <ele>1111.8</ele>
        <time>2021-10-09T10:18:57</time>
      </trkpt>
      <trkpt lat="42.97286" lon="-0.03159">
        <ele>1112</ele>
        <time>2021-10-09T10:18:58</time>
      </trkpt>
      <trkpt lat="42.97287" lon="-0.03158">
        <ele>1112.2</ele>
        <time>2021-10-09T10:18:59</time>
      </trkpt>
      <trkpt lat="42.97288" lon="-0.03157">
        <ele>1112.2</ele>
        <time>2021-10-09T10:19:00</time>
      </trkpt>
      <trkpt lat="42.97289" lon="-0.03157">
        <ele>1112.4</ele>
        <time>2021-10-09T10:19:01</time>
      </trkpt>
      <trkpt lat="42.9729" lon="-0.03157">
        <ele>1112.6</ele>
        <time>2021-10-09T10:19:02</time>
      </trkpt>
      <trkpt lat="42.97292" lon="-0.03156">
        <ele>1112.8</ele>
        <time>2021-10-09T10:19:03</time>
      </trkpt>
      <trkpt lat="42.97293" lon="-0.03155">
        <ele>1112.8</ele>
        <time>2021-10-09T10:19:04</time>
      </trkpt>
      <trkpt lat="42.97294" lon="-0.03154">
        <ele>1113</ele>
        <time>2021-10-09T10:19:05</time>
      </trkpt>
      <trkpt lat="42.97295" lon="-0.03154">
        <ele>1113.2</ele>
        <time>2021-10-09T10:19:06</time>
      </trkpt>
      <trkpt lat="42.97296" lon="-0.03153">
        <ele>1113.4</ele>
        <time>2021-10-09T10:19:07</time>
      </trkpt>
      <trkpt lat="42.97297" lon="-0.03153">
        <ele>1113.6</ele>
        <time>2021-10-09T10:19:08</time>
      </trkpt>
      <trkpt lat="42.97298" lon="-0.03152">
        <ele>1113.6</ele>
        <time>2021-10-09T10:19:09</time>
      </trkpt>
      <trkpt lat="42.97299" lon="-0.03151">
        <ele>1113.8</ele>
        <time>2021-10-09T10:19:10</time>
      </trkpt>
      <trkpt lat="42.973" lon="-0.03151">
        <ele>1114</ele>
        <time>2021-10-09T10:19:11</time>
      </trkpt>
      <trkpt lat="42.97301" lon="-0.03151">
        <ele>1114.2</ele>
        <time>2021-10-09T10:19:12</time>
      </trkpt>
      <trkpt lat="42.97302" lon="-0.03151">
        <ele>1114.4</ele>
        <time>2021-10-09T10:19:13</time>
      </trkpt>
      <trkpt lat="42.97303" lon="-0.03151">
        <ele>1114.4</ele>
        <time>2021-10-09T10:19:14</time>
      </trkpt>
      <trkpt lat="42.97304" lon="-0.03151">
        <ele>1114.6</ele>
        <time>2021-10-09T10:19:15</time>
      </trkpt>
      <trkpt lat="42.97305" lon="-0.0315">
        <ele>1114.8</ele>
        <time>2021-10-09T10:19:16</time>
      </trkpt>
      <trkpt lat="42.97306" lon="-0.0315">
        <ele>1115</ele>
        <time>2021-10-09T10:19:17</time>
      </trkpt>
      <trkpt lat="42.97308" lon="-0.0315">
        <ele>1115.2</ele>
        <time>2021-10-09T10:19:18</time>
      </trkpt>
      <trkpt lat="42.97309" lon="-0.0315">
        <ele>1115.4</ele>
        <time>2021-10-09T10:19:19</time>
      </trkpt>
      <trkpt lat="42.9731" lon="-0.0315">
        <ele>1115.6</ele>
        <time>2021-10-09T10:19:20</time>
      </trkpt>
      <trkpt lat="42.97311" lon="-0.0315">
        <ele>1115.8</ele>
        <time>2021-10-09T10:19:21</time>
      </trkpt>
      <trkpt lat="42.97313" lon="-0.0315">
        <ele>1116</ele>
        <time>2021-10-09T10:19:22</time>
      </trkpt>
      <trkpt lat="42.97314" lon="-0.0315">
        <ele>1116.2</ele>
        <time>2021-10-09T10:19:23</time>
      </trkpt>
      <trkpt lat="42.97315" lon="-0.03151">
        <ele>1116.4</ele>
        <time>2021-10-09T10:19:24</time>
      </trkpt>
      <trkpt lat="42.97316" lon="-0.03151">
        <ele>1116.4</ele>
        <time>2021-10-09T10:19:25</time>
      </trkpt>
      <trkpt lat="42.97317" lon="-0.03151">
        <ele>1116.6</ele>
        <time>2021-10-09T10:19:26</time>
      </trkpt>
      <trkpt lat="42.97319" lon="-0.03152">
        <ele>1116.8</ele>
        <time>2021-10-09T10:19:27</time>
      </trkpt>
      <trkpt lat="42.9732" lon="-0.03152">
        <ele>1117</ele>
        <time>2021-10-09T10:19:28</time>
      </trkpt>
      <trkpt lat="42.97321" lon="-0.03152">
        <ele>1117.2</ele>
        <time>2021-10-09T10:19:29</time>
      </trkpt>
      <trkpt lat="42.97322" lon="-0.03152">
        <ele>1117.4</ele>
        <time>2021-10-09T10:19:30</time>
      </trkpt>
      <trkpt lat="42.97323" lon="-0.03153">
        <ele>1117.4</ele>
        <time>2021-10-09T10:19:31</time>
      </trkpt>
      <trkpt lat="42.97325" lon="-0.03153">
        <ele>1117.6</ele>
        <time>2021-10-09T10:19:32</time>
      </trkpt>
      <trkpt lat="42.97326" lon="-0.03153">
        <ele>1117.8</ele>
        <time>2021-10-09T10:19:33</time>
      </trkpt>
      <trkpt lat="42.97327" lon="-0.03154">
        <ele>1118</ele>
        <time>2021-10-09T10:19:34</time>
      </trkpt>
      <trkpt lat="42.97328" lon="-0.03155">
        <ele>1118.2</ele>
        <time>2021-10-09T10:19:35</time>
      </trkpt>
      <trkpt lat="42.9733" lon="-0.03155">
        <ele>1118.4</ele>
        <time>2021-10-09T10:19:36</time>
      </trkpt>
      <trkpt lat="42.97331" lon="-0.03155">
        <ele>1118.4</ele>
        <time>2021-10-09T10:19:37</time>
      </trkpt>
      <trkpt lat="42.97332" lon="-0.03155">
        <ele>1118.6</ele>
        <time>2021-10-09T10:19:38</time>
      </trkpt>
      <trkpt lat="42.97333" lon="-0.03156">
        <ele>1118.8</ele>
        <time>2021-10-09T10:19:39</time>
      </trkpt>
      <trkpt lat="42.97335" lon="-0.03156">
        <ele>1119</ele>
        <time>2021-10-09T10:19:40</time>
      </trkpt>
      <trkpt lat="42.97336" lon="-0.03156">
        <ele>1119</ele>
        <time>2021-10-09T10:19:41</time>
      </trkpt>
      <trkpt lat="42.97337" lon="-0.03156">
        <ele>1119.2</ele>
        <time>2021-10-09T10:19:42</time>
      </trkpt>
      <trkpt lat="42.97339" lon="-0.03157">
        <ele>1119.4</ele>
        <time>2021-10-09T10:19:43</time>
      </trkpt>
      <trkpt lat="42.9734" lon="-0.03157">
        <ele>1119.6</ele>
        <time>2021-10-09T10:19:44</time>
      </trkpt>
      <trkpt lat="42.97341" lon="-0.03157">
        <ele>1119.8</ele>
        <time>2021-10-09T10:19:45</time>
      </trkpt>
      <trkpt lat="42.97342" lon="-0.03158">
        <ele>1119.8</ele>
        <time>2021-10-09T10:19:46</time>
      </trkpt>
      <trkpt lat="42.97344" lon="-0.03158">
        <ele>1120.2</ele>
        <time>2021-10-09T10:19:47</time>
      </trkpt>
      <trkpt lat="42.97345" lon="-0.03158">
        <ele>1120.2</ele>
        <time>2021-10-09T10:19:48</time>
      </trkpt>
      <trkpt lat="42.97346" lon="-0.03158">
        <ele>1120.4</ele>
        <time>2021-10-09T10:19:49</time>
      </trkpt>
      <trkpt lat="42.97348" lon="-0.03158">
        <ele>1120.6</ele>
        <time>2021-10-09T10:19:50</time>
      </trkpt>
      <trkpt lat="42.97349" lon="-0.03158">
        <ele>1120.6</ele>
        <time>2021-10-09T10:19:51</time>
      </trkpt>
      <trkpt lat="42.97351" lon="-0.03158">
        <ele>1120.8</ele>
        <time>2021-10-09T10:19:52</time>
      </trkpt>
      <trkpt lat="42.97352" lon="-0.03157">
        <ele>1121</ele>
        <time>2021-10-09T10:19:53</time>
      </trkpt>
      <trkpt lat="42.97353" lon="-0.03157">
        <ele>1121.2</ele>
        <time>2021-10-09T10:19:54</time>
      </trkpt>
      <trkpt lat="42.97354" lon="-0.03157">
        <ele>1121.4</ele>
        <time>2021-10-09T10:19:55</time>
      </trkpt>
      <trkpt lat="42.97356" lon="-0.03157">
        <ele>1121.4</ele>
        <time>2021-10-09T10:19:56</time>
      </trkpt>
      <trkpt lat="42.97357" lon="-0.03156">
        <ele>1121.6</ele>
        <time>2021-10-09T10:19:57</time>
      </trkpt>
      <trkpt lat="42.97358" lon="-0.03156">
        <ele>1121.8</ele>
        <time>2021-10-09T10:19:58</time>
      </trkpt>
      <trkpt lat="42.97359" lon="-0.03156">
        <ele>1122</ele>
        <time>2021-10-09T10:19:59</time>
      </trkpt>
      <trkpt lat="42.9736" lon="-0.03156">
        <ele>1122.2</ele>
        <time>2021-10-09T10:20:00</time>
      </trkpt>
      <trkpt lat="42.97362" lon="-0.03155">
        <ele>1122.4</ele>
        <time>2021-10-09T10:20:01</time>
      </trkpt>
      <trkpt lat="42.97363" lon="-0.03155">
        <ele>1122.6</ele>
        <time>2021-10-09T10:20:02</time>
      </trkpt>
      <trkpt lat="42.97364" lon="-0.03155">
        <ele>1122.6</ele>
        <time>2021-10-09T10:20:03</time>
      </trkpt>
      <trkpt lat="42.97365" lon="-0.03154">
        <ele>1122.8</ele>
        <time>2021-10-09T10:20:04</time>
      </trkpt>
      <trkpt lat="42.97366" lon="-0.03153">
        <ele>1123</ele>
        <time>2021-10-09T10:20:05</time>
      </trkpt>
      <trkpt lat="42.97368" lon="-0.03153">
        <ele>1123.2</ele>
        <time>2021-10-09T10:20:06</time>
      </trkpt>
      <trkpt lat="42.97369" lon="-0.03152">
        <ele>1123.4</ele>
        <time>2021-10-09T10:20:07</time>
      </trkpt>
      <trkpt lat="42.9737" lon="-0.03151">
        <ele>1123.6</ele>
        <time>2021-10-09T10:20:08</time>
      </trkpt>
      <trkpt lat="42.97372" lon="-0.0315">
        <ele>1123.8</ele>
        <time>2021-10-09T10:20:09</time>
      </trkpt>
      <trkpt lat="42.97373" lon="-0.03148">
        <ele>1124</ele>
        <time>2021-10-09T10:20:10</time>
      </trkpt>
      <trkpt lat="42.97374" lon="-0.03147">
        <ele>1124.2</ele>
        <time>2021-10-09T10:20:11</time>
      </trkpt>
      <trkpt lat="42.97375" lon="-0.03146">
        <ele>1124.2</ele>
        <time>2021-10-09T10:20:12</time>
      </trkpt>
      <trkpt lat="42.97375" lon="-0.03144">
        <ele>1124.4</ele>
        <time>2021-10-09T10:20:13</time>
      </trkpt>
      <trkpt lat="42.97376" lon="-0.03142">
        <ele>1124.4</ele>
        <time>2021-10-09T10:20:14</time>
      </trkpt>
      <trkpt lat="42.97376" lon="-0.0314">
        <ele>1124.6</ele>
        <time>2021-10-09T10:20:15</time>
      </trkpt>
      <trkpt lat="42.97375" lon="-0.03139">
        <ele>1124.6</ele>
        <time>2021-10-09T10:20:16</time>
      </trkpt>
      <trkpt lat="42.97375" lon="-0.03138">
        <ele>1124.8</ele>
        <time>2021-10-09T10:20:17</time>
      </trkpt>
      <trkpt lat="42.97374" lon="-0.03137">
        <ele>1125</ele>
        <time>2021-10-09T10:20:18</time>
      </trkpt>
      <trkpt lat="42.97373" lon="-0.03136">
        <ele>1125</ele>
        <time>2021-10-09T10:20:19</time>
      </trkpt>
      <trkpt lat="42.97372" lon="-0.03135">
        <ele>1125.2</ele>
        <time>2021-10-09T10:20:20</time>
      </trkpt>
      <trkpt lat="42.97371" lon="-0.03134">
        <ele>1125.4</ele>
        <time>2021-10-09T10:20:21</time>
      </trkpt>
      <trkpt lat="42.9737" lon="-0.03133">
        <ele>1125.6</ele>
        <time>2021-10-09T10:20:22</time>
      </trkpt>
      <trkpt lat="42.97369" lon="-0.03132">
        <ele>1125.8</ele>
        <time>2021-10-09T10:20:23</time>
      </trkpt>
      <trkpt lat="42.97368" lon="-0.03132">
        <ele>1126</ele>
        <time>2021-10-09T10:20:24</time>
      </trkpt>
      <trkpt lat="42.97367" lon="-0.03131">
        <ele>1126.2</ele>
        <time>2021-10-09T10:20:25</time>
      </trkpt>
      <trkpt lat="42.97365" lon="-0.03131">
        <ele>1126.2</ele>
        <time>2021-10-09T10:20:26</time>
      </trkpt>
      <trkpt lat="42.97364" lon="-0.03131">
        <ele>1126.4</ele>
        <time>2021-10-09T10:20:27</time>
      </trkpt>
      <trkpt lat="42.97363" lon="-0.0313">
        <ele>1126.6</ele>
        <time>2021-10-09T10:20:28</time>
      </trkpt>
      <trkpt lat="42.97362" lon="-0.0313">
        <ele>1126.8</ele>
        <time>2021-10-09T10:20:29</time>
      </trkpt>
      <trkpt lat="42.97361" lon="-0.03131">
        <ele>1127</ele>
        <time>2021-10-09T10:20:30</time>
      </trkpt>
      <trkpt lat="42.97359" lon="-0.03131">
        <ele>1127</ele>
        <time>2021-10-09T10:20:31</time>
      </trkpt>
      <trkpt lat="42.97358" lon="-0.0313">
        <ele>1127.2</ele>
        <time>2021-10-09T10:20:32</time>
      </trkpt>
      <trkpt lat="42.97356" lon="-0.0313">
        <ele>1127.4</ele>
        <time>2021-10-09T10:20:33</time>
      </trkpt>
      <trkpt lat="42.97355" lon="-0.03129">
        <ele>1127.4</ele>
        <time>2021-10-09T10:20:34</time>
      </trkpt>
      <trkpt lat="42.97354" lon="-0.03129">
        <ele>1127.6</ele>
        <time>2021-10-09T10:20:35</time>
      </trkpt>
      <trkpt lat="42.97352" lon="-0.03129">
        <ele>1127.8</ele>
        <time>2021-10-09T10:20:36</time>
      </trkpt>
      <trkpt lat="42.97351" lon="-0.03129">
        <ele>1128</ele>
        <time>2021-10-09T10:20:37</time>
      </trkpt>
      <trkpt lat="42.9735" lon="-0.03128">
        <ele>1128</ele>
        <time>2021-10-09T10:20:38</time>
      </trkpt>
      <trkpt lat="42.97348" lon="-0.03128">
        <ele>1128.2</ele>
        <time>2021-10-09T10:20:39</time>
      </trkpt>
      <trkpt lat="42.97347" lon="-0.03128">
        <ele>1128.4</ele>
        <time>2021-10-09T10:20:40</time>
      </trkpt>
      <trkpt lat="42.97346" lon="-0.03128">
        <ele>1128.6</ele>
        <time>2021-10-09T10:20:41</time>
      </trkpt>
      <trkpt lat="42.97344" lon="-0.03128">
        <ele>1128.6</ele>
        <time>2021-10-09T10:20:42</time>
      </trkpt>
      <trkpt lat="42.97343" lon="-0.03127">
        <ele>1128.8</ele>
        <time>2021-10-09T10:20:43</time>
      </trkpt>
      <trkpt lat="42.97341" lon="-0.03127">
        <ele>1129</ele>
        <time>2021-10-09T10:20:44</time>
      </trkpt>
      <trkpt lat="42.9734" lon="-0.03127">
        <ele>1129.2</ele>
        <time>2021-10-09T10:20:45</time>
      </trkpt>
      <trkpt lat="42.97339" lon="-0.03126">
        <ele>1129.4</ele>
        <time>2021-10-09T10:20:46</time>
      </trkpt>
      <trkpt lat="42.97337" lon="-0.03125">
        <ele>1129.4</ele>
        <time>2021-10-09T10:20:47</time>
      </trkpt>
      <trkpt lat="42.97336" lon="-0.03124">
        <ele>1129.6</ele>
        <time>2021-10-09T10:20:48</time>
      </trkpt>
      <trkpt lat="42.97335" lon="-0.03123">
        <ele>1129.8</ele>
        <time>2021-10-09T10:20:49</time>
      </trkpt>
      <trkpt lat="42.97333" lon="-0.03123">
        <ele>1130</ele>
        <time>2021-10-09T10:20:50</time>
      </trkpt>
      <trkpt lat="42.97332" lon="-0.03121">
        <ele>1130</ele>
        <time>2021-10-09T10:20:51</time>
      </trkpt>
      <trkpt lat="42.97331" lon="-0.0312">
        <ele>1130.2</ele>
        <time>2021-10-09T10:20:52</time>
      </trkpt>
      <trkpt lat="42.9733" lon="-0.03119">
        <ele>1130.4</ele>
        <time>2021-10-09T10:20:53</time>
      </trkpt>
      <trkpt lat="42.97329" lon="-0.03118">
        <ele>1130.6</ele>
        <time>2021-10-09T10:20:54</time>
      </trkpt>
      <trkpt lat="42.97327" lon="-0.03118">
        <ele>1130.6</ele>
        <time>2021-10-09T10:20:55</time>
      </trkpt>
      <trkpt lat="42.97326" lon="-0.03117">
        <ele>1130.8</ele>
        <time>2021-10-09T10:20:56</time>
      </trkpt>
      <trkpt lat="42.97325" lon="-0.03116">
        <ele>1131</ele>
        <time>2021-10-09T10:20:57</time>
      </trkpt>
      <trkpt lat="42.97324" lon="-0.03115">
        <ele>1131</ele>
        <time>2021-10-09T10:20:58</time>
      </trkpt>
      <trkpt lat="42.97323" lon="-0.03113">
        <ele>1131.2</ele>
        <time>2021-10-09T10:20:59</time>
      </trkpt>
      <trkpt lat="42.97321" lon="-0.03113">
        <ele>1131.4</ele>
        <time>2021-10-09T10:21:00</time>
      </trkpt>
      <trkpt lat="42.9732" lon="-0.03112">
        <ele>1131.4</ele>
        <time>2021-10-09T10:21:01</time>
      </trkpt>
      <trkpt lat="42.97318" lon="-0.03112">
        <ele>1131.6</ele>
        <time>2021-10-09T10:21:02</time>
      </trkpt>
      <trkpt lat="42.97317" lon="-0.03112">
        <ele>1131.8</ele>
        <time>2021-10-09T10:21:03</time>
      </trkpt>
      <trkpt lat="42.97315" lon="-0.03112">
        <ele>1131.8</ele>
        <time>2021-10-09T10:21:04</time>
      </trkpt>
      <trkpt lat="42.97314" lon="-0.03112">
        <ele>1132</ele>
        <time>2021-10-09T10:21:05</time>
      </trkpt>
      <trkpt lat="42.97313" lon="-0.03112">
        <ele>1132.4</ele>
        <time>2021-10-09T10:21:06</time>
      </trkpt>
      <trkpt lat="42.97312" lon="-0.03112">
        <ele>1132.4</ele>
        <time>2021-10-09T10:21:07</time>
      </trkpt>
      <trkpt lat="42.97311" lon="-0.03112">
        <ele>1132.6</ele>
        <time>2021-10-09T10:21:08</time>
      </trkpt>
      <trkpt lat="42.97309" lon="-0.03112">
        <ele>1133</ele>
        <time>2021-10-09T10:21:09</time>
      </trkpt>
      <trkpt lat="42.97307" lon="-0.03112">
        <ele>1133</ele>
        <time>2021-10-09T10:21:10</time>
      </trkpt>
      <trkpt lat="42.97306" lon="-0.03112">
        <ele>1133.2</ele>
        <time>2021-10-09T10:21:11</time>
      </trkpt>
      <trkpt lat="42.97305" lon="-0.03112">
        <ele>1133.4</ele>
        <time>2021-10-09T10:21:12</time>
      </trkpt>
      <trkpt lat="42.97304" lon="-0.03113">
        <ele>1133.6</ele>
        <time>2021-10-09T10:21:13</time>
      </trkpt>
      <trkpt lat="42.97302" lon="-0.03113">
        <ele>1133.8</ele>
        <time>2021-10-09T10:21:14</time>
      </trkpt>
      <trkpt lat="42.97301" lon="-0.03113">
        <ele>1134</ele>
        <time>2021-10-09T10:21:15</time>
      </trkpt>
      <trkpt lat="42.973" lon="-0.03113">
        <ele>1134</ele>
        <time>2021-10-09T10:21:16</time>
      </trkpt>
      <trkpt lat="42.97298" lon="-0.03112">
        <ele>1134.2</ele>
        <time>2021-10-09T10:21:17</time>
      </trkpt>
      <trkpt lat="42.97297" lon="-0.03112">
        <ele>1134.4</ele>
        <time>2021-10-09T10:21:18</time>
      </trkpt>
      <trkpt lat="42.97296" lon="-0.03111">
        <ele>1134.4</ele>
        <time>2021-10-09T10:21:19</time>
      </trkpt>
      <trkpt lat="42.97294" lon="-0.0311">
        <ele>1134.6</ele>
        <time>2021-10-09T10:21:20</time>
      </trkpt>
      <trkpt lat="42.97293" lon="-0.03109">
        <ele>1134.8</ele>
        <time>2021-10-09T10:21:21</time>
      </trkpt>
      <trkpt lat="42.97291" lon="-0.03108">
        <ele>1135</ele>
        <time>2021-10-09T10:21:22</time>
      </trkpt>
      <trkpt lat="42.9729" lon="-0.03107">
        <ele>1135</ele>
        <time>2021-10-09T10:21:23</time>
      </trkpt>
      <trkpt lat="42.97289" lon="-0.03105">
        <ele>1135.2</ele>
        <time>2021-10-09T10:21:24</time>
      </trkpt>
      <trkpt lat="42.97288" lon="-0.03104">
        <ele>1135.4</ele>
        <time>2021-10-09T10:21:25</time>
      </trkpt>
      <trkpt lat="42.97287" lon="-0.03103">
        <ele>1135.4</ele>
        <time>2021-10-09T10:21:26</time>
      </trkpt>
      <trkpt lat="42.97286" lon="-0.03102">
        <ele>1135.6</ele>
        <time>2021-10-09T10:21:27</time>
      </trkpt>
      <trkpt lat="42.97285" lon="-0.03101">
        <ele>1135.6</ele>
        <time>2021-10-09T10:21:28</time>
      </trkpt>
      <trkpt lat="42.97284" lon="-0.031">
        <ele>1135.8</ele>
        <time>2021-10-09T10:21:29</time>
      </trkpt>
      <trkpt lat="42.97282" lon="-0.03099">
        <ele>1135.8</ele>
        <time>2021-10-09T10:21:30</time>
      </trkpt>
      <trkpt lat="42.97281" lon="-0.03098">
        <ele>1136</ele>
        <time>2021-10-09T10:21:31</time>
      </trkpt>
      <trkpt lat="42.97279" lon="-0.03098">
        <ele>1136.2</ele>
        <time>2021-10-09T10:21:32</time>
      </trkpt>
      <trkpt lat="42.97278" lon="-0.03097">
        <ele>1136.2</ele>
        <time>2021-10-09T10:21:33</time>
      </trkpt>
      <trkpt lat="42.97277" lon="-0.03096">
        <ele>1136.4</ele>
        <time>2021-10-09T10:21:34</time>
      </trkpt>
      <trkpt lat="42.97275" lon="-0.03096">
        <ele>1136.6</ele>
        <time>2021-10-09T10:21:35</time>
      </trkpt>
      <trkpt lat="42.97273" lon="-0.03096">
        <ele>1136.8</ele>
        <time>2021-10-09T10:21:36</time>
      </trkpt>
      <trkpt lat="42.97272" lon="-0.03096">
        <ele>1137</ele>
        <time>2021-10-09T10:21:37</time>
      </trkpt>
      <trkpt lat="42.9727" lon="-0.03095">
        <ele>1137.2</ele>
        <time>2021-10-09T10:21:38</time>
      </trkpt>
      <trkpt lat="42.97269" lon="-0.03095">
        <ele>1137.2</ele>
        <time>2021-10-09T10:21:39</time>
      </trkpt>
      <trkpt lat="42.97267" lon="-0.03095">
        <ele>1137.4</ele>
        <time>2021-10-09T10:21:40</time>
      </trkpt>
      <trkpt lat="42.97265" lon="-0.03095">
        <ele>1137.6</ele>
        <time>2021-10-09T10:21:41</time>
      </trkpt>
      <trkpt lat="42.97264" lon="-0.03095">
        <ele>1137.8</ele>
        <time>2021-10-09T10:21:42</time>
      </trkpt>
      <trkpt lat="42.97262" lon="-0.03095">
        <ele>1137.8</ele>
        <time>2021-10-09T10:21:43</time>
      </trkpt>
      <trkpt lat="42.9726" lon="-0.03095">
        <ele>1138</ele>
        <time>2021-10-09T10:21:44</time>
      </trkpt>
      <trkpt lat="42.97259" lon="-0.03095">
        <ele>1138.2</ele>
        <time>2021-10-09T10:21:45</time>
      </trkpt>
      <trkpt lat="42.97258" lon="-0.03094">
        <ele>1138.2</ele>
        <time>2021-10-09T10:21:46</time>
      </trkpt>
      <trkpt lat="42.97256" lon="-0.03094">
        <ele>1138.4</ele>
        <time>2021-10-09T10:21:47</time>
      </trkpt>
      <trkpt lat="42.97254" lon="-0.03093">
        <ele>1138.6</ele>
        <time>2021-10-09T10:21:48</time>
      </trkpt>
      <trkpt lat="42.97253" lon="-0.03093">
        <ele>1138.6</ele>
        <time>2021-10-09T10:21:49</time>
      </trkpt>
      <trkpt lat="42.97251" lon="-0.03093">
        <ele>1138.8</ele>
        <time>2021-10-09T10:21:50</time>
      </trkpt>
      <trkpt lat="42.9725" lon="-0.03093">
        <ele>1138.8</ele>
        <time>2021-10-09T10:21:51</time>
      </trkpt>
      <trkpt lat="42.97248" lon="-0.03092">
        <ele>1139</ele>
        <time>2021-10-09T10:21:52</time>
      </trkpt>
      <trkpt lat="42.97246" lon="-0.03092">
        <ele>1139.2</ele>
        <time>2021-10-09T10:21:53</time>
      </trkpt>
      <trkpt lat="42.97245" lon="-0.03091">
        <ele>1139.2</ele>
        <time>2021-10-09T10:21:54</time>
      </trkpt>
      <trkpt lat="42.97243" lon="-0.03091">
        <ele>1139.4</ele>
        <time>2021-10-09T10:21:55</time>
      </trkpt>
      <trkpt lat="42.97242" lon="-0.0309">
        <ele>1139.4</ele>
        <time>2021-10-09T10:21:56</time>
      </trkpt>
      <trkpt lat="42.9724" lon="-0.0309">
        <ele>1139.6</ele>
        <time>2021-10-09T10:21:57</time>
      </trkpt>
      <trkpt lat="42.97239" lon="-0.03089">
        <ele>1139.8</ele>
        <time>2021-10-09T10:21:58</time>
      </trkpt>
      <trkpt lat="42.97237" lon="-0.03089">
        <ele>1140</ele>
        <time>2021-10-09T10:21:59</time>
      </trkpt>
      <trkpt lat="42.97236" lon="-0.03088">
        <ele>1140.2</ele>
        <time>2021-10-09T10:22:00</time>
      </trkpt>
      <trkpt lat="42.97234" lon="-0.03087">
        <ele>1140.2</ele>
        <time>2021-10-09T10:22:01</time>
      </trkpt>
      <trkpt lat="42.97233" lon="-0.03087">
        <ele>1140.4</ele>
        <time>2021-10-09T10:22:02</time>
      </trkpt>
      <trkpt lat="42.97231" lon="-0.03086">
        <ele>1140.6</ele>
        <time>2021-10-09T10:22:03</time>
      </trkpt>
      <trkpt lat="42.9723" lon="-0.03085">
        <ele>1140.8</ele>
        <time>2021-10-09T10:22:04</time>
      </trkpt>
      <trkpt lat="42.97229" lon="-0.03085">
        <ele>1141</ele>
        <time>2021-10-09T10:22:05</time>
      </trkpt>
      <trkpt lat="42.97227" lon="-0.03084">
        <ele>1141</ele>
        <time>2021-10-09T10:22:06</time>
      </trkpt>
      <trkpt lat="42.97226" lon="-0.03082">
        <ele>1141.2</ele>
        <time>2021-10-09T10:22:07</time>
      </trkpt>
      <trkpt lat="42.97225" lon="-0.03081">
        <ele>1141.4</ele>
        <time>2021-10-09T10:22:08</time>
      </trkpt>
      <trkpt lat="42.97224" lon="-0.0308">
        <ele>1141.6</ele>
        <time>2021-10-09T10:22:09</time>
      </trkpt>
      <trkpt lat="42.97222" lon="-0.03079">
        <ele>1141.8</ele>
        <time>2021-10-09T10:22:10</time>
      </trkpt>
      <trkpt lat="42.97221" lon="-0.03077">
        <ele>1141.8</ele>
        <time>2021-10-09T10:22:11</time>
      </trkpt>
      <trkpt lat="42.97221" lon="-0.03076">
        <ele>1142</ele>
        <time>2021-10-09T10:22:12</time>
      </trkpt>
      <trkpt lat="42.9722" lon="-0.03074">
        <ele>1142.2</ele>
        <time>2021-10-09T10:22:13</time>
      </trkpt>
      <trkpt lat="42.97218" lon="-0.03072">
        <ele>1142.4</ele>
        <time>2021-10-09T10:22:14</time>
      </trkpt>
      <trkpt lat="42.97218" lon="-0.0307">
        <ele>1142.4</ele>
        <time>2021-10-09T10:22:15</time>
      </trkpt>
      <trkpt lat="42.97217" lon="-0.03068">
        <ele>1142.6</ele>
        <time>2021-10-09T10:22:16</time>
      </trkpt>
      <trkpt lat="42.97216" lon="-0.03065">
        <ele>1142.6</ele>
        <time>2021-10-09T10:22:17</time>
      </trkpt>
      <trkpt lat="42.97215" lon="-0.03063">
        <ele>1142.8</ele>
        <time>2021-10-09T10:22:18</time>
      </trkpt>
      <trkpt lat="42.97215" lon="-0.03061">
        <ele>1142.8</ele>
        <time>2021-10-09T10:22:19</time>
      </trkpt>
      <trkpt lat="42.97214" lon="-0.03059">
        <ele>1143</ele>
        <time>2021-10-09T10:22:20</time>
      </trkpt>
      <trkpt lat="42.97213" lon="-0.03056">
        <ele>1143</ele>
        <time>2021-10-09T10:22:21</time>
      </trkpt>
      <trkpt lat="42.97213" lon="-0.03055">
        <ele>1143</ele>
        <time>2021-10-09T10:22:22</time>
      </trkpt>
      <trkpt lat="42.97213" lon="-0.03053">
        <ele>1143.2</ele>
        <time>2021-10-09T10:22:23</time>
      </trkpt>
      <trkpt lat="42.97212" lon="-0.03051">
        <ele>1143.2</ele>
        <time>2021-10-09T10:22:24</time>
      </trkpt>
      <trkpt lat="42.97211" lon="-0.03049">
        <ele>1143.4</ele>
        <time>2021-10-09T10:22:25</time>
      </trkpt>
      <trkpt lat="42.9721" lon="-0.03047">
        <ele>1143.4</ele>
        <time>2021-10-09T10:22:26</time>
      </trkpt>
      <trkpt lat="42.97209" lon="-0.03045">
        <ele>1143.4</ele>
        <time>2021-10-09T10:22:27</time>
      </trkpt>
      <trkpt lat="42.97208" lon="-0.03043">
        <ele>1143.6</ele>
        <time>2021-10-09T10:22:28</time>
      </trkpt>
      <trkpt lat="42.97207" lon="-0.03041">
        <ele>1143.6</ele>
        <time>2021-10-09T10:22:29</time>
      </trkpt>
      <trkpt lat="42.97206" lon="-0.03039">
        <ele>1143.8</ele>
        <time>2021-10-09T10:22:30</time>
      </trkpt>
      <trkpt lat="42.97205" lon="-0.03037">
        <ele>1143.8</ele>
        <time>2021-10-09T10:22:31</time>
      </trkpt>
      <trkpt lat="42.97204" lon="-0.03035">
        <ele>1144</ele>
        <time>2021-10-09T10:22:32</time>
      </trkpt>
      <trkpt lat="42.97204" lon="-0.03033">
        <ele>1144</ele>
        <time>2021-10-09T10:22:33</time>
      </trkpt>
      <trkpt lat="42.97203" lon="-0.03031">
        <ele>1144.2</ele>
        <time>2021-10-09T10:22:34</time>
      </trkpt>
      <trkpt lat="42.97202" lon="-0.0303">
        <ele>1144.2</ele>
        <time>2021-10-09T10:22:35</time>
      </trkpt>
      <trkpt lat="42.972" lon="-0.03027">
        <ele>1144.4</ele>
        <time>2021-10-09T10:22:36</time>
      </trkpt>
      <trkpt lat="42.97199" lon="-0.03025">
        <ele>1144.4</ele>
        <time>2021-10-09T10:22:37</time>
      </trkpt>
      <trkpt lat="42.97198" lon="-0.03023">
        <ele>1144.4</ele>
        <time>2021-10-09T10:22:38</time>
      </trkpt>
      <trkpt lat="42.97197" lon="-0.03021">
        <ele>1144.6</ele>
        <time>2021-10-09T10:22:39</time>
      </trkpt>
      <trkpt lat="42.97196" lon="-0.03019">
        <ele>1144.6</ele>
        <time>2021-10-09T10:22:40</time>
      </trkpt>
      <trkpt lat="42.97195" lon="-0.03017">
        <ele>1144.8</ele>
        <time>2021-10-09T10:22:41</time>
      </trkpt>
      <trkpt lat="42.97193" lon="-0.03015">
        <ele>1144.8</ele>
        <time>2021-10-09T10:22:42</time>
      </trkpt>
      <trkpt lat="42.97192" lon="-0.03013">
        <ele>1145</ele>
        <time>2021-10-09T10:22:43</time>
      </trkpt>
      <trkpt lat="42.97191" lon="-0.03011">
        <ele>1145</ele>
        <time>2021-10-09T10:22:44</time>
      </trkpt>
      <trkpt lat="42.97189" lon="-0.03008">
        <ele>1145.2</ele>
        <time>2021-10-09T10:22:45</time>
      </trkpt>
      <trkpt lat="42.97188" lon="-0.03006">
        <ele>1145.4</ele>
        <time>2021-10-09T10:22:46</time>
      </trkpt>
      <trkpt lat="42.97187" lon="-0.03004">
        <ele>1145.4</ele>
        <time>2021-10-09T10:22:47</time>
      </trkpt>
      <trkpt lat="42.97184" lon="-0.03">
        <ele>1145.6</ele>
        <time>2021-10-09T10:22:48</time>
      </trkpt>
      <trkpt lat="42.97184" lon="-0.03">
        <ele>1145.8</ele>
        <time>2021-10-09T10:22:49</time>
      </trkpt>
      <trkpt lat="42.97183" lon="-0.02998">
        <ele>1145.8</ele>
        <time>2021-10-09T10:22:50</time>
      </trkpt>
      <trkpt lat="42.97182" lon="-0.02996">
        <ele>1146</ele>
        <time>2021-10-09T10:22:51</time>
      </trkpt>
      <trkpt lat="42.97181" lon="-0.02994">
        <ele>1146.2</ele>
        <time>2021-10-09T10:22:52</time>
      </trkpt>
      <trkpt lat="42.9718" lon="-0.02992">
        <ele>1146.4</ele>
        <time>2021-10-09T10:22:53</time>
      </trkpt>
      <trkpt lat="42.97179" lon="-0.02991">
        <ele>1146.4</ele>
        <time>2021-10-09T10:22:54</time>
      </trkpt>
      <trkpt lat="42.97177" lon="-0.02989">
        <ele>1146.6</ele>
        <time>2021-10-09T10:22:55</time>
      </trkpt>
      <trkpt lat="42.97176" lon="-0.02987">
        <ele>1146.8</ele>
        <time>2021-10-09T10:22:56</time>
      </trkpt>
      <trkpt lat="42.97175" lon="-0.02985">
        <ele>1147</ele>
        <time>2021-10-09T10:22:57</time>
      </trkpt>
      <trkpt lat="42.97174" lon="-0.02983">
        <ele>1147.2</ele>
        <time>2021-10-09T10:22:58</time>
      </trkpt>
      <trkpt lat="42.97173" lon="-0.02981">
        <ele>1147.2</ele>
        <time>2021-10-09T10:22:59</time>
      </trkpt>
      <trkpt lat="42.97172" lon="-0.0298">
        <ele>1147.4</ele>
        <time>2021-10-09T10:23:00</time>
      </trkpt>
      <trkpt lat="42.97171" lon="-0.02978">
        <ele>1147.6</ele>
        <time>2021-10-09T10:23:01</time>
      </trkpt>
      <trkpt lat="42.9717" lon="-0.02975">
        <ele>1147.8</ele>
        <time>2021-10-09T10:23:02</time>
      </trkpt>
      <trkpt lat="42.97169" lon="-0.02973">
        <ele>1148</ele>
        <time>2021-10-09T10:23:03</time>
      </trkpt>
      <trkpt lat="42.97168" lon="-0.02971">
        <ele>1148.2</ele>
        <time>2021-10-09T10:23:04</time>
      </trkpt>
      <trkpt lat="42.97166" lon="-0.02969">
        <ele>1148.2</ele>
        <time>2021-10-09T10:23:05</time>
      </trkpt>
      <trkpt lat="42.97164" lon="-0.02965">
        <ele>1148.4</ele>
        <time>2021-10-09T10:23:06</time>
      </trkpt>
      <trkpt lat="42.97164" lon="-0.02965">
        <ele>1148.6</ele>
        <time>2021-10-09T10:23:07</time>
      </trkpt>
      <trkpt lat="42.97163" lon="-0.02964">
        <ele>1148.6</ele>
        <time>2021-10-09T10:23:08</time>
      </trkpt>
      <trkpt lat="42.97162" lon="-0.02962">
        <ele>1148.8</ele>
        <time>2021-10-09T10:23:09</time>
      </trkpt>
      <trkpt lat="42.97161" lon="-0.0296">
        <ele>1148.8</ele>
        <time>2021-10-09T10:23:10</time>
      </trkpt>
      <trkpt lat="42.97158" lon="-0.02956">
        <ele>1149</ele>
        <time>2021-10-09T10:23:11</time>
      </trkpt>
      <trkpt lat="42.97158" lon="-0.02956">
        <ele>1149.2</ele>
        <time>2021-10-09T10:23:12</time>
      </trkpt>
      <trkpt lat="42.97157" lon="-0.02955">
        <ele>1149.4</ele>
        <time>2021-10-09T10:23:13</time>
      </trkpt>
      <trkpt lat="42.97155" lon="-0.02954">
        <ele>1149.6</ele>
        <time>2021-10-09T10:23:14</time>
      </trkpt>
      <trkpt lat="42.97154" lon="-0.02953">
        <ele>1149.6</ele>
        <time>2021-10-09T10:23:15</time>
      </trkpt>
      <trkpt lat="42.97153" lon="-0.02952">
        <ele>1149.8</ele>
        <time>2021-10-09T10:23:16</time>
      </trkpt>
      <trkpt lat="42.97152" lon="-0.02951">
        <ele>1150</ele>
        <time>2021-10-09T10:23:17</time>
      </trkpt>
      <trkpt lat="42.9715" lon="-0.0295">
        <ele>1150.2</ele>
        <time>2021-10-09T10:23:18</time>
      </trkpt>
      <trkpt lat="42.97149" lon="-0.02949">
        <ele>1150.4</ele>
        <time>2021-10-09T10:23:19</time>
      </trkpt>
      <trkpt lat="42.97148" lon="-0.02949">
        <ele>1150.6</ele>
        <time>2021-10-09T10:23:20</time>
      </trkpt>
      <trkpt lat="42.97146" lon="-0.02948">
        <ele>1150.8</ele>
        <time>2021-10-09T10:23:21</time>
      </trkpt>
      <trkpt lat="42.97145" lon="-0.02946">
        <ele>1151</ele>
        <time>2021-10-09T10:23:22</time>
      </trkpt>
      <trkpt lat="42.97143" lon="-0.02946">
        <ele>1151.2</ele>
        <time>2021-10-09T10:23:23</time>
      </trkpt>
      <trkpt lat="42.97142" lon="-0.02944">
        <ele>1151.4</ele>
        <time>2021-10-09T10:23:24</time>
      </trkpt>
      <trkpt lat="42.9714" lon="-0.02942">
        <ele>1151.6</ele>
        <time>2021-10-09T10:23:25</time>
      </trkpt>
      <trkpt lat="42.9714" lon="-0.02942">
        <ele>1151.8</ele>
        <time>2021-10-09T10:23:26</time>
      </trkpt>
      <trkpt lat="42.97138" lon="-0.02942">
        <ele>1152.2</ele>
        <time>2021-10-09T10:23:27</time>
      </trkpt>
      <trkpt lat="42.97137" lon="-0.02941">
        <ele>1152.4</ele>
        <time>2021-10-09T10:23:28</time>
      </trkpt>
      <trkpt lat="42.97136" lon="-0.0294">
        <ele>1152.6</ele>
        <time>2021-10-09T10:23:29</time>
      </trkpt>
      <trkpt lat="42.97134" lon="-0.0294">
        <ele>1152.8</ele>
        <time>2021-10-09T10:23:30</time>
      </trkpt>
      <trkpt lat="42.97132" lon="-0.02939">
        <ele>1153</ele>
        <time>2021-10-09T10:23:31</time>
      </trkpt>
      <trkpt lat="42.97132" lon="-0.02939">
        <ele>1153.2</ele>
        <time>2021-10-09T10:23:32</time>
      </trkpt>
      <trkpt lat="42.9713" lon="-0.02939">
        <ele>1153.6</ele>
        <time>2021-10-09T10:23:33</time>
      </trkpt>
      <trkpt lat="42.97129" lon="-0.02939">
        <ele>1153.8</ele>
        <time>2021-10-09T10:23:34</time>
      </trkpt>
      <trkpt lat="42.97128" lon="-0.02939">
        <ele>1154</ele>
        <time>2021-10-09T10:23:35</time>
      </trkpt>
      <trkpt lat="42.97127" lon="-0.02939">
        <ele>1154.2</ele>
        <time>2021-10-09T10:23:36</time>
      </trkpt>
      <trkpt lat="42.97125" lon="-0.02939">
        <ele>1154.4</ele>
        <time>2021-10-09T10:23:37</time>
      </trkpt>
      <trkpt lat="42.97122" lon="-0.0294">
        <ele>1154.6</ele>
        <time>2021-10-09T10:23:38</time>
      </trkpt>
      <trkpt lat="42.97122" lon="-0.0294">
        <ele>1155</ele>
        <time>2021-10-09T10:23:39</time>
      </trkpt>
      <trkpt lat="42.97121" lon="-0.02941">
        <ele>1155</ele>
        <time>2021-10-09T10:23:40</time>
      </trkpt>
      <trkpt lat="42.9712" lon="-0.02941">
        <ele>1155.4</ele>
        <time>2021-10-09T10:23:41</time>
      </trkpt>
      <trkpt lat="42.97119" lon="-0.02941">
        <ele>1155.6</ele>
        <time>2021-10-09T10:23:42</time>
      </trkpt>
      <trkpt lat="42.97118" lon="-0.02942">
        <ele>1155.8</ele>
        <time>2021-10-09T10:23:43</time>
      </trkpt>
      <trkpt lat="42.97115" lon="-0.02943">
        <ele>1156</ele>
        <time>2021-10-09T10:23:44</time>
      </trkpt>
      <trkpt lat="42.97115" lon="-0.02943">
        <ele>1156.2</ele>
        <time>2021-10-09T10:23:45</time>
      </trkpt>
      <trkpt lat="42.97114" lon="-0.02943">
        <ele>1156.4</ele>
        <time>2021-10-09T10:23:46</time>
      </trkpt>
      <trkpt lat="42.97112" lon="-0.02944">
        <ele>1156.6</ele>
        <time>2021-10-09T10:23:47</time>
      </trkpt>
      <trkpt lat="42.97111" lon="-0.02944">
        <ele>1156.8</ele>
        <time>2021-10-09T10:23:48</time>
      </trkpt>
      <trkpt lat="42.97109" lon="-0.02945">
        <ele>1156.8</ele>
        <time>2021-10-09T10:23:49</time>
      </trkpt>
      <trkpt lat="42.97105" lon="-0.02945">
        <ele>1156.8</ele>
        <time>2021-10-09T10:23:50</time>
      </trkpt>
      <trkpt lat="42.97105" lon="-0.02945">
        <ele>1157</ele>
        <time>2021-10-09T10:23:51</time>
      </trkpt>
      <trkpt lat="42.97104" lon="-0.02945">
        <ele>1157</ele>
        <time>2021-10-09T10:23:52</time>
      </trkpt>
      <trkpt lat="42.97102" lon="-0.02945">
        <ele>1157.2</ele>
        <time>2021-10-09T10:23:53</time>
      </trkpt>
      <trkpt lat="42.971" lon="-0.02945">
        <ele>1157.4</ele>
        <time>2021-10-09T10:23:54</time>
      </trkpt>
      <trkpt lat="42.97096" lon="-0.02944">
        <ele>1157.4</ele>
        <time>2021-10-09T10:23:55</time>
      </trkpt>
      <trkpt lat="42.97096" lon="-0.02944">
        <ele>1157.4</ele>
        <time>2021-10-09T10:23:56</time>
      </trkpt>
      <trkpt lat="42.97095" lon="-0.02943">
        <ele>1157.6</ele>
        <time>2021-10-09T10:23:57</time>
      </trkpt>
      <trkpt lat="42.97093" lon="-0.02943">
        <ele>1157.8</ele>
        <time>2021-10-09T10:23:58</time>
      </trkpt>
      <trkpt lat="42.97091" lon="-0.02942">
        <ele>1157.8</ele>
        <time>2021-10-09T10:23:59</time>
      </trkpt>
      <trkpt lat="42.97088" lon="-0.02942">
        <ele>1158</ele>
        <time>2021-10-09T10:24:00</time>
      </trkpt>
      <trkpt lat="42.97088" lon="-0.02942">
        <ele>1158</ele>
        <time>2021-10-09T10:24:01</time>
      </trkpt>
      <trkpt lat="42.97086" lon="-0.02941">
        <ele>1158.2</ele>
        <time>2021-10-09T10:24:02</time>
      </trkpt>
      <trkpt lat="42.97083" lon="-0.02941">
        <ele>1158.2</ele>
        <time>2021-10-09T10:24:03</time>
      </trkpt>
      <trkpt lat="42.97083" lon="-0.02941">
        <ele>1158.4</ele>
        <time>2021-10-09T10:24:04</time>
      </trkpt>
      <trkpt lat="42.9708" lon="-0.0294">
        <ele>1158.6</ele>
        <time>2021-10-09T10:24:05</time>
      </trkpt>
      <trkpt lat="42.9708" lon="-0.0294">
        <ele>1158.6</ele>
        <time>2021-10-09T10:24:06</time>
      </trkpt>
      <trkpt lat="42.97079" lon="-0.02939">
        <ele>1158.8</ele>
        <time>2021-10-09T10:24:07</time>
      </trkpt>
      <trkpt lat="42.97077" lon="-0.02938">
        <ele>1159</ele>
        <time>2021-10-09T10:24:08</time>
      </trkpt>
      <trkpt lat="42.97076" lon="-0.02938">
        <ele>1159</ele>
        <time>2021-10-09T10:24:09</time>
      </trkpt>
      <trkpt lat="42.97074" lon="-0.02937">
        <ele>1159.2</ele>
        <time>2021-10-09T10:24:10</time>
      </trkpt>
      <trkpt lat="42.97073" lon="-0.02936">
        <ele>1159.2</ele>
        <time>2021-10-09T10:24:11</time>
      </trkpt>
      <trkpt lat="42.97072" lon="-0.02936">
        <ele>1159.4</ele>
        <time>2021-10-09T10:24:12</time>
      </trkpt>
      <trkpt lat="42.9707" lon="-0.02935">
        <ele>1159.6</ele>
        <time>2021-10-09T10:24:13</time>
      </trkpt>
      <trkpt lat="42.97069" lon="-0.02936">
        <ele>1159.6</ele>
        <time>2021-10-09T10:24:14</time>
      </trkpt>
      <trkpt lat="42.97067" lon="-0.02936">
        <ele>1159.8</ele>
        <time>2021-10-09T10:24:15</time>
      </trkpt>
      <trkpt lat="42.97065" lon="-0.02935">
        <ele>1159.8</ele>
        <time>2021-10-09T10:24:16</time>
      </trkpt>
      <trkpt lat="42.97065" lon="-0.02935">
        <ele>1160</ele>
        <time>2021-10-09T10:24:17</time>
      </trkpt>
      <trkpt lat="42.97065" lon="-0.02934">
        <ele>1160</ele>
        <time>2021-10-09T10:24:18</time>
      </trkpt>
      <trkpt lat="42.97063" lon="-0.02933">
        <ele>1160.2</ele>
        <time>2021-10-09T10:24:19</time>
      </trkpt>
      <trkpt lat="42.97061" lon="-0.02932">
        <ele>1160.4</ele>
        <time>2021-10-09T10:24:20</time>
      </trkpt>
      <trkpt lat="42.97061" lon="-0.02932">
        <ele>1160.4</ele>
        <time>2021-10-09T10:24:21</time>
      </trkpt>
      <trkpt lat="42.97059" lon="-0.02931">
        <ele>1160.6</ele>
        <time>2021-10-09T10:24:22</time>
      </trkpt>
      <trkpt lat="42.97058" lon="-0.02931">
        <ele>1160.6</ele>
        <time>2021-10-09T10:24:23</time>
      </trkpt>
      <trkpt lat="42.97056" lon="-0.0293">
        <ele>1160.8</ele>
        <time>2021-10-09T10:24:24</time>
      </trkpt>
      <trkpt lat="42.97055" lon="-0.02929">
        <ele>1161</ele>
        <time>2021-10-09T10:24:25</time>
      </trkpt>
      <trkpt lat="42.97053" lon="-0.02928">
        <ele>1161.2</ele>
        <time>2021-10-09T10:24:26</time>
      </trkpt>
      <trkpt lat="42.97052" lon="-0.02928">
        <ele>1161.2</ele>
        <time>2021-10-09T10:24:27</time>
      </trkpt>
      <trkpt lat="42.97052" lon="-0.02928">
        <ele>1161.2</ele>
        <time>2021-10-09T10:24:28</time>
      </trkpt>
      <trkpt lat="42.9705" lon="-0.02927">
        <ele>1161.4</ele>
        <time>2021-10-09T10:24:29</time>
      </trkpt>
      <trkpt lat="42.97049" lon="-0.02926">
        <ele>1161.4</ele>
        <time>2021-10-09T10:24:30</time>
      </trkpt>
      <trkpt lat="42.97047" lon="-0.02925">
        <ele>1161.6</ele>
        <time>2021-10-09T10:24:31</time>
      </trkpt>
      <trkpt lat="42.97045" lon="-0.02924">
        <ele>1161.6</ele>
        <time>2021-10-09T10:24:32</time>
      </trkpt>
      <trkpt lat="42.97045" lon="-0.02924">
        <ele>1161.8</ele>
        <time>2021-10-09T10:24:33</time>
      </trkpt>
      <trkpt lat="42.97042" lon="-0.02923">
        <ele>1162</ele>
        <time>2021-10-09T10:24:34</time>
      </trkpt>
      <trkpt lat="42.97041" lon="-0.02922">
        <ele>1162</ele>
        <time>2021-10-09T10:24:35</time>
      </trkpt>
      <trkpt lat="42.97041" lon="-0.02922">
        <ele>1162.2</ele>
        <time>2021-10-09T10:24:36</time>
      </trkpt>
      <trkpt lat="42.97039" lon="-0.02922">
        <ele>1162.2</ele>
        <time>2021-10-09T10:24:37</time>
      </trkpt>
      <trkpt lat="42.97036" lon="-0.0292">
        <ele>1162.4</ele>
        <time>2021-10-09T10:24:38</time>
      </trkpt>
      <trkpt lat="42.97035" lon="-0.0292">
        <ele>1162.6</ele>
        <time>2021-10-09T10:24:39</time>
      </trkpt>
      <trkpt lat="42.97034" lon="-0.02919">
        <ele>1162.8</ele>
        <time>2021-10-09T10:24:40</time>
      </trkpt>
      <trkpt lat="42.97034" lon="-0.02919">
        <ele>1163</ele>
        <time>2021-10-09T10:24:41</time>
      </trkpt>
      <trkpt lat="42.97033" lon="-0.02918">
        <ele>1163.2</ele>
        <time>2021-10-09T10:24:42</time>
      </trkpt>
      <trkpt lat="42.97031" lon="-0.02918">
        <ele>1163.4</ele>
        <time>2021-10-09T10:24:43</time>
      </trkpt>
      <trkpt lat="42.9703" lon="-0.02917">
        <ele>1163.6</ele>
        <time>2021-10-09T10:24:44</time>
      </trkpt>
      <trkpt lat="42.97026" lon="-0.02917">
        <ele>1163.6</ele>
        <time>2021-10-09T10:24:45</time>
      </trkpt>
      <trkpt lat="42.97025" lon="-0.02917">
        <ele>1163.8</ele>
        <time>2021-10-09T10:24:46</time>
      </trkpt>
      <trkpt lat="42.97025" lon="-0.02917">
        <ele>1163.8</ele>
        <time>2021-10-09T10:24:47</time>
      </trkpt>
      <trkpt lat="42.97022" lon="-0.02917">
        <ele>1164</ele>
        <time>2021-10-09T10:24:48</time>
      </trkpt>
      <trkpt lat="42.97022" lon="-0.02917">
        <ele>1164</ele>
        <time>2021-10-09T10:24:49</time>
      </trkpt>
      <trkpt lat="42.97019" lon="-0.02917">
        <ele>1164.2</ele>
        <time>2021-10-09T10:24:50</time>
      </trkpt>
      <trkpt lat="42.97017" lon="-0.02917">
        <ele>1164.4</ele>
        <time>2021-10-09T10:24:51</time>
      </trkpt>
      <trkpt lat="42.97017" lon="-0.02917">
        <ele>1164.4</ele>
        <time>2021-10-09T10:24:52</time>
      </trkpt>
      <trkpt lat="42.97016" lon="-0.02916">
        <ele>1164.6</ele>
        <time>2021-10-09T10:24:53</time>
      </trkpt>
      <trkpt lat="42.97015" lon="-0.02916">
        <ele>1164.6</ele>
        <time>2021-10-09T10:24:54</time>
      </trkpt>
      <trkpt lat="42.97013" lon="-0.02916">
        <ele>1164.8</ele>
        <time>2021-10-09T10:24:55</time>
      </trkpt>
      <trkpt lat="42.97011" lon="-0.02916">
        <ele>1164.8</ele>
        <time>2021-10-09T10:24:56</time>
      </trkpt>
      <trkpt lat="42.9701" lon="-0.02916">
        <ele>1165</ele>
        <time>2021-10-09T10:24:57</time>
      </trkpt>
      <trkpt lat="42.97008" lon="-0.02916">
        <ele>1165</ele>
        <time>2021-10-09T10:24:58</time>
      </trkpt>
      <trkpt lat="42.97008" lon="-0.02916">
        <ele>1165.2</ele>
        <time>2021-10-09T10:24:59</time>
      </trkpt>
      <trkpt lat="42.97007" lon="-0.02916">
        <ele>1165.4</ele>
        <time>2021-10-09T10:25:00</time>
      </trkpt>
      <trkpt lat="42.97006" lon="-0.02915">
        <ele>1165.4</ele>
        <time>2021-10-09T10:25:01</time>
      </trkpt>
      <trkpt lat="42.97005" lon="-0.02915">
        <ele>1165.4</ele>
        <time>2021-10-09T10:25:02</time>
      </trkpt>
      <trkpt lat="42.97004" lon="-0.02915">
        <ele>1165.6</ele>
        <time>2021-10-09T10:25:03</time>
      </trkpt>
      <trkpt lat="42.97004" lon="-0.02915">
        <ele>1165.6</ele>
        <time>2021-10-09T10:25:04</time>
      </trkpt>
      <trkpt lat="42.97004" lon="-0.02915">
        <ele>1165.6</ele>
        <time>2021-10-09T10:25:05</time>
      </trkpt>
      <trkpt lat="42.97004" lon="-0.02915">
        <ele>1165.4</ele>
        <time>2021-10-09T10:25:06</time>
      </trkpt>
      <trkpt lat="42.97004" lon="-0.02915">
        <ele>1165.8</ele>
        <time>2021-10-09T10:25:07</time>
      </trkpt>
      <trkpt lat="42.97004" lon="-0.02915">
        <ele>1165.8</ele>
        <time>2021-10-09T10:25:08</time>
      </trkpt>
      <trkpt lat="42.97004" lon="-0.02915">
        <ele>1165.8</ele>
        <time>2021-10-09T10:25:09</time>
      </trkpt>
      <trkpt lat="42.97004" lon="-0.02915">
        <ele>1165.6</ele>
        <time>2021-10-09T10:25:10</time>
      </trkpt>
      <trkpt lat="42.96988" lon="-0.02906">
        <ele>1167.2</ele>
        <time>2021-10-09T10:25:27</time>
      </trkpt>
      <trkpt lat="42.96986" lon="-0.02905">
        <ele>1167.4</ele>
        <time>2021-10-09T10:25:28</time>
      </trkpt>
      <trkpt lat="42.96985" lon="-0.02904">
        <ele>1167.6</ele>
        <time>2021-10-09T10:25:29</time>
      </trkpt>
      <trkpt lat="42.96984" lon="-0.02903">
        <ele>1167.6</ele>
        <time>2021-10-09T10:25:30</time>
      </trkpt>
      <trkpt lat="42.96984" lon="-0.02903">
        <ele>1167.8</ele>
        <time>2021-10-09T10:25:31</time>
      </trkpt>
      <trkpt lat="42.96983" lon="-0.02902">
        <ele>1168</ele>
        <time>2021-10-09T10:25:32</time>
      </trkpt>
      <trkpt lat="42.9698" lon="-0.02899">
        <ele>1168</ele>
        <time>2021-10-09T10:25:33</time>
      </trkpt>
      <trkpt lat="42.96979" lon="-0.02898">
        <ele>1168.2</ele>
        <time>2021-10-09T10:25:34</time>
      </trkpt>
      <trkpt lat="42.96979" lon="-0.02898">
        <ele>1168.2</ele>
        <time>2021-10-09T10:25:35</time>
      </trkpt>
      <trkpt lat="42.96978" lon="-0.02897">
        <ele>1168.4</ele>
        <time>2021-10-09T10:25:36</time>
      </trkpt>
      <trkpt lat="42.96975" lon="-0.02894">
        <ele>1168.4</ele>
        <time>2021-10-09T10:25:37</time>
      </trkpt>
      <trkpt lat="42.96973" lon="-0.02893">
        <ele>1168.6</ele>
        <time>2021-10-09T10:25:38</time>
      </trkpt>
      <trkpt lat="42.96973" lon="-0.02893">
        <ele>1168.6</ele>
        <time>2021-10-09T10:25:39</time>
      </trkpt>
      <trkpt lat="42.9697" lon="-0.02891">
        <ele>1168.6</ele>
        <time>2021-10-09T10:25:40</time>
      </trkpt>
      <trkpt lat="42.9697" lon="-0.02891">
        <ele>1168.6</ele>
        <time>2021-10-09T10:25:41</time>
      </trkpt>
      <trkpt lat="42.96968" lon="-0.02891">
        <ele>1168.8</ele>
        <time>2021-10-09T10:25:42</time>
      </trkpt>
      <trkpt lat="42.96965" lon="-0.0289">
        <ele>1168.8</ele>
        <time>2021-10-09T10:25:43</time>
      </trkpt>
      <trkpt lat="42.96963" lon="-0.0289">
        <ele>1169</ele>
        <time>2021-10-09T10:25:44</time>
      </trkpt>
      <trkpt lat="42.96959" lon="-0.0289">
        <ele>1169</ele>
        <time>2021-10-09T10:25:45</time>
      </trkpt>
      <trkpt lat="42.96957" lon="-0.0289">
        <ele>1169.2</ele>
        <time>2021-10-09T10:25:46</time>
      </trkpt>
      <trkpt lat="42.96957" lon="-0.0289">
        <ele>1169.2</ele>
        <time>2021-10-09T10:25:47</time>
      </trkpt>
      <trkpt lat="42.96953" lon="-0.02889">
        <ele>1169.2</ele>
        <time>2021-10-09T10:25:48</time>
      </trkpt>
      <trkpt lat="42.96953" lon="-0.02889">
        <ele>1169.4</ele>
        <time>2021-10-09T10:25:49</time>
      </trkpt>
      <trkpt lat="42.96951" lon="-0.02889">
        <ele>1169.4</ele>
        <time>2021-10-09T10:25:50</time>
      </trkpt>
      <trkpt lat="42.96949" lon="-0.02889">
        <ele>1169.6</ele>
        <time>2021-10-09T10:25:51</time>
      </trkpt>
      <trkpt lat="42.96945" lon="-0.02887">
        <ele>1169.6</ele>
        <time>2021-10-09T10:25:52</time>
      </trkpt>
      <trkpt lat="42.96943" lon="-0.02887">
        <ele>1169.6</ele>
        <time>2021-10-09T10:25:53</time>
      </trkpt>
      <trkpt lat="42.96941" lon="-0.02886">
        <ele>1169.6</ele>
        <time>2021-10-09T10:25:54</time>
      </trkpt>
      <trkpt lat="42.96939" lon="-0.02885">
        <ele>1169.6</ele>
        <time>2021-10-09T10:25:55</time>
      </trkpt>
      <trkpt lat="42.96937" lon="-0.02884">
        <ele>1169.8</ele>
        <time>2021-10-09T10:25:56</time>
      </trkpt>
      <trkpt lat="42.96935" lon="-0.02884">
        <ele>1170</ele>
        <time>2021-10-09T10:25:57</time>
      </trkpt>
      <trkpt lat="42.96933" lon="-0.02883">
        <ele>1170</ele>
        <time>2021-10-09T10:25:58</time>
      </trkpt>
      <trkpt lat="42.96931" lon="-0.02882">
        <ele>1170.2</ele>
        <time>2021-10-09T10:25:59</time>
      </trkpt>
      <trkpt lat="42.96928" lon="-0.02881">
        <ele>1170.4</ele>
        <time>2021-10-09T10:26:00</time>
      </trkpt>
      <trkpt lat="42.96926" lon="-0.02879">
        <ele>1170.8</ele>
        <time>2021-10-09T10:26:01</time>
      </trkpt>
      <trkpt lat="42.96924" lon="-0.02876">
        <ele>1171</ele>
        <time>2021-10-09T10:26:02</time>
      </trkpt>
      <trkpt lat="42.96923" lon="-0.02873">
        <ele>1171.4</ele>
        <time>2021-10-09T10:26:03</time>
      </trkpt>
      <trkpt lat="42.96922" lon="-0.0287">
        <ele>1171.8</ele>
        <time>2021-10-09T10:26:04</time>
      </trkpt>
      <trkpt lat="42.96922" lon="-0.02867">
        <ele>1172</ele>
        <time>2021-10-09T10:26:05</time>
      </trkpt>
      <trkpt lat="42.96922" lon="-0.02864">
        <ele>1172.6</ele>
        <time>2021-10-09T10:26:06</time>
      </trkpt>
      <trkpt lat="42.96923" lon="-0.02861">
        <ele>1172.8</ele>
        <time>2021-10-09T10:26:07</time>
      </trkpt>
      <trkpt lat="42.96923" lon="-0.02858">
        <ele>1173</ele>
        <time>2021-10-09T10:26:08</time>
      </trkpt>
      <trkpt lat="42.96923" lon="-0.02855">
        <ele>1173.2</ele>
        <time>2021-10-09T10:26:09</time>
      </trkpt>
      <trkpt lat="42.96923" lon="-0.02853">
        <ele>1173.6</ele>
        <time>2021-10-09T10:26:10</time>
      </trkpt>
      <trkpt lat="42.96923" lon="-0.0285">
        <ele>1173.8</ele>
        <time>2021-10-09T10:26:11</time>
      </trkpt>
      <trkpt lat="42.96923" lon="-0.02848">
        <ele>1174</ele>
        <time>2021-10-09T10:26:12</time>
      </trkpt>
      <trkpt lat="42.96924" lon="-0.02845">
        <ele>1174.2</ele>
        <time>2021-10-09T10:26:13</time>
      </trkpt>
      <trkpt lat="42.96924" lon="-0.02842">
        <ele>1174.2</ele>
        <time>2021-10-09T10:26:14</time>
      </trkpt>
      <trkpt lat="42.96924" lon="-0.0284">
        <ele>1174.4</ele>
        <time>2021-10-09T10:26:15</time>
      </trkpt>
      <trkpt lat="42.96924" lon="-0.02837">
        <ele>1174.8</ele>
        <time>2021-10-09T10:26:16</time>
      </trkpt>
      <trkpt lat="42.96923" lon="-0.02835">
        <ele>1175</ele>
        <time>2021-10-09T10:26:17</time>
      </trkpt>
      <trkpt lat="42.96923" lon="-0.02833">
        <ele>1175.2</ele>
        <time>2021-10-09T10:26:18</time>
      </trkpt>
      <trkpt lat="42.96922" lon="-0.02831">
        <ele>1175.6</ele>
        <time>2021-10-09T10:26:19</time>
      </trkpt>
      <trkpt lat="42.96921" lon="-0.02829">
        <ele>1175.6</ele>
        <time>2021-10-09T10:26:20</time>
      </trkpt>
      <trkpt lat="42.9692" lon="-0.02827">
        <ele>1176</ele>
        <time>2021-10-09T10:26:21</time>
      </trkpt>
      <trkpt lat="42.96919" lon="-0.02826">
        <ele>1176.2</ele>
        <time>2021-10-09T10:26:22</time>
      </trkpt>
      <trkpt lat="42.96919" lon="-0.02826">
        <ele>1176.4</ele>
        <time>2021-10-09T10:26:23</time>
      </trkpt>
      <trkpt lat="42.96918" lon="-0.02824">
        <ele>1176.6</ele>
        <time>2021-10-09T10:26:24</time>
      </trkpt>
      <trkpt lat="42.96916" lon="-0.0282">
        <ele>1176.8</ele>
        <time>2021-10-09T10:26:25</time>
      </trkpt>
      <trkpt lat="42.96916" lon="-0.02818">
        <ele>1177.2</ele>
        <time>2021-10-09T10:26:26</time>
      </trkpt>
      <trkpt lat="42.96916" lon="-0.02816">
        <ele>1177.2</ele>
        <time>2021-10-09T10:26:27</time>
      </trkpt>
      <trkpt lat="42.96916" lon="-0.02814">
        <ele>1177.4</ele>
        <time>2021-10-09T10:26:28</time>
      </trkpt>
      <trkpt lat="42.96916" lon="-0.02813">
        <ele>1177.6</ele>
        <time>2021-10-09T10:26:29</time>
      </trkpt>
      <trkpt lat="42.96916" lon="-0.02811">
        <ele>1177.8</ele>
        <time>2021-10-09T10:26:30</time>
      </trkpt>
      <trkpt lat="42.96916" lon="-0.02809">
        <ele>1177.8</ele>
        <time>2021-10-09T10:26:31</time>
      </trkpt>
      <trkpt lat="42.96916" lon="-0.02808">
        <ele>1178</ele>
        <time>2021-10-09T10:26:32</time>
      </trkpt>
      <trkpt lat="42.96916" lon="-0.02805">
        <ele>1178.2</ele>
        <time>2021-10-09T10:26:33</time>
      </trkpt>
      <trkpt lat="42.96916" lon="-0.02803">
        <ele>1178.4</ele>
        <time>2021-10-09T10:26:34</time>
      </trkpt>
      <trkpt lat="42.96917" lon="-0.02801">
        <ele>1178.6</ele>
        <time>2021-10-09T10:26:35</time>
      </trkpt>
      <trkpt lat="42.96918" lon="-0.028">
        <ele>1178.6</ele>
        <time>2021-10-09T10:26:36</time>
      </trkpt>
      <trkpt lat="42.96918" lon="-0.02798">
        <ele>1178.8</ele>
        <time>2021-10-09T10:26:37</time>
      </trkpt>
      <trkpt lat="42.96918" lon="-0.02796">
        <ele>1179</ele>
        <time>2021-10-09T10:26:38</time>
      </trkpt>
      <trkpt lat="42.96919" lon="-0.02794">
        <ele>1179.2</ele>
        <time>2021-10-09T10:26:39</time>
      </trkpt>
      <trkpt lat="42.96919" lon="-0.02792">
        <ele>1179.2</ele>
        <time>2021-10-09T10:26:40</time>
      </trkpt>
      <trkpt lat="42.96919" lon="-0.0279">
        <ele>1179.4</ele>
        <time>2021-10-09T10:26:41</time>
      </trkpt>
      <trkpt lat="42.9692" lon="-0.02788">
        <ele>1179.6</ele>
        <time>2021-10-09T10:26:42</time>
      </trkpt>
      <trkpt lat="42.9692" lon="-0.02786">
        <ele>1179.8</ele>
        <time>2021-10-09T10:26:43</time>
      </trkpt>
      <trkpt lat="42.9692" lon="-0.02784">
        <ele>1180</ele>
        <time>2021-10-09T10:26:44</time>
      </trkpt>
      <trkpt lat="42.96921" lon="-0.02782">
        <ele>1180</ele>
        <time>2021-10-09T10:26:45</time>
      </trkpt>
      <trkpt lat="42.96921" lon="-0.0278">
        <ele>1180.2</ele>
        <time>2021-10-09T10:26:46</time>
      </trkpt>
      <trkpt lat="42.96921" lon="-0.0278">
        <ele>1180.4</ele>
        <time>2021-10-09T10:26:47</time>
      </trkpt>
      <trkpt lat="42.96922" lon="-0.02776">
        <ele>1180.6</ele>
        <time>2021-10-09T10:26:48</time>
      </trkpt>
      <trkpt lat="42.96922" lon="-0.02775">
        <ele>1180.8</ele>
        <time>2021-10-09T10:26:49</time>
      </trkpt>
      <trkpt lat="42.96922" lon="-0.02775">
        <ele>1180.8</ele>
        <time>2021-10-09T10:26:50</time>
      </trkpt>
      <trkpt lat="42.96922" lon="-0.02775">
        <ele>1180.8</ele>
        <time>2021-10-09T10:26:51</time>
      </trkpt>
      <trkpt lat="42.96921" lon="-0.02774">
        <ele>1180.8</ele>
        <time>2021-10-09T10:26:52</time>
      </trkpt>
      <trkpt lat="42.96921" lon="-0.02773">
        <ele>1180.8</ele>
        <time>2021-10-09T10:26:53</time>
      </trkpt>
      <trkpt lat="42.96921" lon="-0.02773">
        <ele>1180.8</ele>
        <time>2021-10-09T10:26:54</time>
      </trkpt>
      <trkpt lat="42.96921" lon="-0.02773">
        <ele>1180.8</ele>
        <time>2021-10-09T10:26:55</time>
      </trkpt>
      <trkpt lat="42.96922" lon="-0.02772">
        <ele>1180.8</ele>
        <time>2021-10-09T10:26:56</time>
      </trkpt>
      <trkpt lat="42.96922" lon="-0.02752">
        <ele>1181.6</ele>
        <time>2021-10-09T10:27:27</time>
      </trkpt>
      <trkpt lat="42.96922" lon="-0.02751">
        <ele>1181.8</ele>
        <time>2021-10-09T10:27:28</time>
      </trkpt>
      <trkpt lat="42.96922" lon="-0.02749">
        <ele>1182</ele>
        <time>2021-10-09T10:27:29</time>
      </trkpt>
      <trkpt lat="42.96922" lon="-0.02748">
        <ele>1182.2</ele>
        <time>2021-10-09T10:27:30</time>
      </trkpt>
      <trkpt lat="42.96922" lon="-0.02745">
        <ele>1182.4</ele>
        <time>2021-10-09T10:27:31</time>
      </trkpt>
      <trkpt lat="42.96922" lon="-0.02743">
        <ele>1182.6</ele>
        <time>2021-10-09T10:27:32</time>
      </trkpt>
      <trkpt lat="42.96922" lon="-0.02741">
        <ele>1182.8</ele>
        <time>2021-10-09T10:27:33</time>
      </trkpt>
      <trkpt lat="42.96922" lon="-0.02739">
        <ele>1183.2</ele>
        <time>2021-10-09T10:27:34</time>
      </trkpt>
      <trkpt lat="42.96922" lon="-0.02736">
        <ele>1183.2</ele>
        <time>2021-10-09T10:27:35</time>
      </trkpt>
      <trkpt lat="42.96922" lon="-0.02733">
        <ele>1183.4</ele>
        <time>2021-10-09T10:27:36</time>
      </trkpt>
      <trkpt lat="42.96922" lon="-0.0273">
        <ele>1183.6</ele>
        <time>2021-10-09T10:27:37</time>
      </trkpt>
      <trkpt lat="42.96922" lon="-0.02728">
        <ele>1183.8</ele>
        <time>2021-10-09T10:27:38</time>
      </trkpt>
      <trkpt lat="42.96922" lon="-0.02725">
        <ele>1184</ele>
        <time>2021-10-09T10:27:39</time>
      </trkpt>
      <trkpt lat="42.96922" lon="-0.02723">
        <ele>1184.2</ele>
        <time>2021-10-09T10:27:40</time>
      </trkpt>
      <trkpt lat="42.96922" lon="-0.02721">
        <ele>1184.4</ele>
        <time>2021-10-09T10:27:41</time>
      </trkpt>
      <trkpt lat="42.96922" lon="-0.02719">
        <ele>1184.6</ele>
        <time>2021-10-09T10:27:42</time>
      </trkpt>
      <trkpt lat="42.96922" lon="-0.02717">
        <ele>1185</ele>
        <time>2021-10-09T10:27:43</time>
      </trkpt>
      <trkpt lat="42.96922" lon="-0.02714">
        <ele>1185.2</ele>
        <time>2021-10-09T10:27:44</time>
      </trkpt>
      <trkpt lat="42.96922" lon="-0.02712">
        <ele>1185.4</ele>
        <time>2021-10-09T10:27:45</time>
      </trkpt>
      <trkpt lat="42.96922" lon="-0.02708">
        <ele>1185.8</ele>
        <time>2021-10-09T10:27:46</time>
      </trkpt>
      <trkpt lat="42.96922" lon="-0.02704">
        <ele>1186</ele>
        <time>2021-10-09T10:27:47</time>
      </trkpt>
      <trkpt lat="42.96922" lon="-0.02701">
        <ele>1186.4</ele>
        <time>2021-10-09T10:27:48</time>
      </trkpt>
      <trkpt lat="42.96922" lon="-0.02697">
        <ele>1186.8</ele>
        <time>2021-10-09T10:27:49</time>
      </trkpt>
      <trkpt lat="42.96922" lon="-0.02694">
        <ele>1187</ele>
        <time>2021-10-09T10:27:50</time>
      </trkpt>
      <trkpt lat="42.96922" lon="-0.0269">
        <ele>1187.2</ele>
        <time>2021-10-09T10:27:51</time>
      </trkpt>
      <trkpt lat="42.96923" lon="-0.02687">
        <ele>1187.6</ele>
        <time>2021-10-09T10:27:52</time>
      </trkpt>
      <trkpt lat="42.96923" lon="-0.02684">
        <ele>1188</ele>
        <time>2021-10-09T10:27:53</time>
      </trkpt>
      <trkpt lat="42.96922" lon="-0.0268">
        <ele>1188.2</ele>
        <time>2021-10-09T10:27:54</time>
      </trkpt>
      <trkpt lat="42.96922" lon="-0.02676">
        <ele>1188.4</ele>
        <time>2021-10-09T10:27:55</time>
      </trkpt>
      <trkpt lat="42.96922" lon="-0.02673">
        <ele>1188.8</ele>
        <time>2021-10-09T10:27:56</time>
      </trkpt>
      <trkpt lat="42.96921" lon="-0.0267">
        <ele>1189</ele>
        <time>2021-10-09T10:27:57</time>
      </trkpt>
      <trkpt lat="42.96921" lon="-0.02667">
        <ele>1189.4</ele>
        <time>2021-10-09T10:27:58</time>
      </trkpt>
      <trkpt lat="42.96921" lon="-0.02663">
        <ele>1189.6</ele>
        <time>2021-10-09T10:27:59</time>
      </trkpt>
      <trkpt lat="42.9692" lon="-0.0266">
        <ele>1190</ele>
        <time>2021-10-09T10:28:00</time>
      </trkpt>
      <trkpt lat="42.96919" lon="-0.02656">
        <ele>1190.4</ele>
        <time>2021-10-09T10:28:01</time>
      </trkpt>
      <trkpt lat="42.96918" lon="-0.02652">
        <ele>1190.6</ele>
        <time>2021-10-09T10:28:02</time>
      </trkpt>
      <trkpt lat="42.96918" lon="-0.02649">
        <ele>1191</ele>
        <time>2021-10-09T10:28:03</time>
      </trkpt>
      <trkpt lat="42.96917" lon="-0.02645">
        <ele>1191.4</ele>
        <time>2021-10-09T10:28:04</time>
      </trkpt>
      <trkpt lat="42.96916" lon="-0.02641">
        <ele>1191.4</ele>
        <time>2021-10-09T10:28:05</time>
      </trkpt>
      <trkpt lat="42.96916" lon="-0.02637">
        <ele>1191.8</ele>
        <time>2021-10-09T10:28:06</time>
      </trkpt>
      <trkpt lat="42.96915" lon="-0.02634">
        <ele>1191.8</ele>
        <time>2021-10-09T10:28:07</time>
      </trkpt>
      <trkpt lat="42.96915" lon="-0.02631">
        <ele>1192</ele>
        <time>2021-10-09T10:28:08</time>
      </trkpt>
      <trkpt lat="42.96915" lon="-0.02627">
        <ele>1192.4</ele>
        <time>2021-10-09T10:28:09</time>
      </trkpt>
      <trkpt lat="42.96914" lon="-0.02624">
        <ele>1192.6</ele>
        <time>2021-10-09T10:28:10</time>
      </trkpt>
      <trkpt lat="42.96914" lon="-0.0262">
        <ele>1192.8</ele>
        <time>2021-10-09T10:28:11</time>
      </trkpt>
      <trkpt lat="42.96914" lon="-0.02616">
        <ele>1193.2</ele>
        <time>2021-10-09T10:28:12</time>
      </trkpt>
      <trkpt lat="42.96913" lon="-0.02611">
        <ele>1193.4</ele>
        <time>2021-10-09T10:28:13</time>
      </trkpt>
      <trkpt lat="42.96913" lon="-0.02605">
        <ele>1193.8</ele>
        <time>2021-10-09T10:28:14</time>
      </trkpt>
      <trkpt lat="42.96912" lon="-0.026">
        <ele>1194.2</ele>
        <time>2021-10-09T10:28:15</time>
      </trkpt>
      <trkpt lat="42.9691" lon="-0.02593">
        <ele>1194.6</ele>
        <time>2021-10-09T10:28:16</time>
      </trkpt>
      <trkpt lat="42.96909" lon="-0.02589">
        <ele>1194.8</ele>
        <time>2021-10-09T10:28:17</time>
      </trkpt>
      <trkpt lat="42.96908" lon="-0.02585">
        <ele>1195.2</ele>
        <time>2021-10-09T10:28:18</time>
      </trkpt>
      <trkpt lat="42.96908" lon="-0.02581">
        <ele>1195.8</ele>
        <time>2021-10-09T10:28:19</time>
      </trkpt>
      <trkpt lat="42.96909" lon="-0.02574">
        <ele>1196.2</ele>
        <time>2021-10-09T10:28:20</time>
      </trkpt>
      <trkpt lat="42.96911" lon="-0.0257">
        <ele>1196.6</ele>
        <time>2021-10-09T10:28:21</time>
      </trkpt>
      <trkpt lat="42.96913" lon="-0.02567">
        <ele>1197</ele>
        <time>2021-10-09T10:28:22</time>
      </trkpt>
      <trkpt lat="42.96915" lon="-0.02567">
        <ele>1197.2</ele>
        <time>2021-10-09T10:28:23</time>
      </trkpt>
      <trkpt lat="42.96917" lon="-0.02568">
        <ele>1197.2</ele>
        <time>2021-10-09T10:28:24</time>
      </trkpt>
      <trkpt lat="42.96919" lon="-0.02572">
        <ele>1197.2</ele>
        <time>2021-10-09T10:28:25</time>
      </trkpt>
      <trkpt lat="42.96921" lon="-0.02576">
        <ele>1197.8</ele>
        <time>2021-10-09T10:28:26</time>
      </trkpt>
      <trkpt lat="42.96923" lon="-0.0258">
        <ele>1197.8</ele>
        <time>2021-10-09T10:28:27</time>
      </trkpt>
      <trkpt lat="42.96924" lon="-0.02584">
        <ele>1197.8</ele>
        <time>2021-10-09T10:28:28</time>
      </trkpt>
      <trkpt lat="42.96926" lon="-0.02588">
        <ele>1197.8</ele>
        <time>2021-10-09T10:28:29</time>
      </trkpt>
      <trkpt lat="42.96927" lon="-0.02591">
        <ele>1198</ele>
        <time>2021-10-09T10:28:30</time>
      </trkpt>
      <trkpt lat="42.96929" lon="-0.02595">
        <ele>1198.4</ele>
        <time>2021-10-09T10:28:31</time>
      </trkpt>
      <trkpt lat="42.9693" lon="-0.02597">
        <ele>1198.6</ele>
        <time>2021-10-09T10:28:32</time>
      </trkpt>
      <trkpt lat="42.96931" lon="-0.026">
        <ele>1198.8</ele>
        <time>2021-10-09T10:28:33</time>
      </trkpt>
      <trkpt lat="42.96932" lon="-0.02602">
        <ele>1198.8</ele>
        <time>2021-10-09T10:28:34</time>
      </trkpt>
      <trkpt lat="42.96933" lon="-0.02604">
        <ele>1198.8</ele>
        <time>2021-10-09T10:28:35</time>
      </trkpt>
      <trkpt lat="42.96934" lon="-0.02606">
        <ele>1199</ele>
        <time>2021-10-09T10:28:36</time>
      </trkpt>
      <trkpt lat="42.96935" lon="-0.02608">
        <ele>1199.2</ele>
        <time>2021-10-09T10:28:37</time>
      </trkpt>
      <trkpt lat="42.96936" lon="-0.0261">
        <ele>1199.2</ele>
        <time>2021-10-09T10:28:38</time>
      </trkpt>
      <trkpt lat="42.96937" lon="-0.02612">
        <ele>1199.4</ele>
        <time>2021-10-09T10:28:39</time>
      </trkpt>
      <trkpt lat="42.96938" lon="-0.02613">
        <ele>1199.8</ele>
        <time>2021-10-09T10:28:40</time>
      </trkpt>
      <trkpt lat="42.96939" lon="-0.02615">
        <ele>1199.8</ele>
        <time>2021-10-09T10:28:41</time>
      </trkpt>
      <trkpt lat="42.9694" lon="-0.02617">
        <ele>1200</ele>
        <time>2021-10-09T10:28:42</time>
      </trkpt>
      <trkpt lat="42.96941" lon="-0.02619">
        <ele>1200.2</ele>
        <time>2021-10-09T10:28:43</time>
      </trkpt>
      <trkpt lat="42.96942" lon="-0.02621">
        <ele>1200.4</ele>
        <time>2021-10-09T10:28:44</time>
      </trkpt>
      <trkpt lat="42.96942" lon="-0.02623">
        <ele>1200.4</ele>
        <time>2021-10-09T10:28:45</time>
      </trkpt>
      <trkpt lat="42.96944" lon="-0.02625">
        <ele>1200.8</ele>
        <time>2021-10-09T10:28:46</time>
      </trkpt>
      <trkpt lat="42.96946" lon="-0.02627">
        <ele>1201.2</ele>
        <time>2021-10-09T10:28:47</time>
      </trkpt>
      <trkpt lat="42.96948" lon="-0.0263">
        <ele>1201.4</ele>
        <time>2021-10-09T10:28:48</time>
      </trkpt>
      <trkpt lat="42.9695" lon="-0.02632">
        <ele>1201.6</ele>
        <time>2021-10-09T10:28:49</time>
      </trkpt>
      <trkpt lat="42.96952" lon="-0.02633">
        <ele>1201.8</ele>
        <time>2021-10-09T10:28:50</time>
      </trkpt>
      <trkpt lat="42.96953" lon="-0.02634">
        <ele>1202</ele>
        <time>2021-10-09T10:28:51</time>
      </trkpt>
      <trkpt lat="42.96953" lon="-0.02634">
        <ele>1202.2</ele>
        <time>2021-10-09T10:28:52</time>
      </trkpt>
      <trkpt lat="42.96954" lon="-0.02634">
        <ele>1202.2</ele>
        <time>2021-10-09T10:28:53</time>
      </trkpt>
      <trkpt lat="42.96954" lon="-0.02635">
        <ele>1202.2</ele>
        <time>2021-10-09T10:28:54</time>
      </trkpt>
      <trkpt lat="42.96955" lon="-0.02635">
        <ele>1202.2</ele>
        <time>2021-10-09T10:28:55</time>
      </trkpt>
      <trkpt lat="42.96955" lon="-0.02635">
        <ele>1202.2</ele>
        <time>2021-10-09T10:28:56</time>
      </trkpt>
      <trkpt lat="42.96955" lon="-0.02635">
        <ele>1202.2</ele>
        <time>2021-10-09T10:28:57</time>
      </trkpt>
      <trkpt lat="42.96955" lon="-0.02634">
        <ele>1202.2</ele>
        <time>2021-10-09T10:28:58</time>
      </trkpt>
      <trkpt lat="42.96955" lon="-0.02634">
        <ele>1202.2</ele>
        <time>2021-10-09T10:28:59</time>
      </trkpt>
      <trkpt lat="42.9697" lon="-0.02638">
        <ele>1203.4</ele>
        <time>2021-10-09T10:29:14</time>
      </trkpt>
      <trkpt lat="42.96972" lon="-0.02638">
        <ele>1203.6</ele>
        <time>2021-10-09T10:29:15</time>
      </trkpt>
      <trkpt lat="42.96973" lon="-0.02638">
        <ele>1203.6</ele>
        <time>2021-10-09T10:29:16</time>
      </trkpt>
      <trkpt lat="42.96975" lon="-0.02637">
        <ele>1203.8</ele>
        <time>2021-10-09T10:29:17</time>
      </trkpt>
      <trkpt lat="42.96977" lon="-0.02636">
        <ele>1204.2</ele>
        <time>2021-10-09T10:29:18</time>
      </trkpt>
      <trkpt lat="42.96978" lon="-0.02635">
        <ele>1204.4</ele>
        <time>2021-10-09T10:29:19</time>
      </trkpt>
      <trkpt lat="42.9698" lon="-0.02634">
        <ele>1204.6</ele>
        <time>2021-10-09T10:29:20</time>
      </trkpt>
      <trkpt lat="42.96982" lon="-0.02633">
        <ele>1205</ele>
        <time>2021-10-09T10:29:21</time>
      </trkpt>
      <trkpt lat="42.96984" lon="-0.02632">
        <ele>1205</ele>
        <time>2021-10-09T10:29:22</time>
      </trkpt>
      <trkpt lat="42.96986" lon="-0.0263">
        <ele>1205.4</ele>
        <time>2021-10-09T10:29:23</time>
      </trkpt>
      <trkpt lat="42.96988" lon="-0.02629">
        <ele>1205.6</ele>
        <time>2021-10-09T10:29:24</time>
      </trkpt>
      <trkpt lat="42.96991" lon="-0.02627">
        <ele>1206</ele>
        <time>2021-10-09T10:29:25</time>
      </trkpt>
      <trkpt lat="42.96993" lon="-0.02626">
        <ele>1206.4</ele>
        <time>2021-10-09T10:29:26</time>
      </trkpt>
      <trkpt lat="42.96995" lon="-0.02624">
        <ele>1206.6</ele>
        <time>2021-10-09T10:29:27</time>
      </trkpt>
      <trkpt lat="42.96998" lon="-0.02622">
        <ele>1207</ele>
        <time>2021-10-09T10:29:28</time>
      </trkpt>
      <trkpt lat="42.97" lon="-0.02621">
        <ele>1207.4</ele>
        <time>2021-10-09T10:29:29</time>
      </trkpt>
      <trkpt lat="42.97002" lon="-0.02619">
        <ele>1207.8</ele>
        <time>2021-10-09T10:29:30</time>
      </trkpt>
      <trkpt lat="42.97005" lon="-0.02618">
        <ele>1208</ele>
        <time>2021-10-09T10:29:31</time>
      </trkpt>
      <trkpt lat="42.97007" lon="-0.02616">
        <ele>1208.2</ele>
        <time>2021-10-09T10:29:32</time>
      </trkpt>
      <trkpt lat="42.9701" lon="-0.02615">
        <ele>1208.6</ele>
        <time>2021-10-09T10:29:33</time>
      </trkpt>
      <trkpt lat="42.97012" lon="-0.02615">
        <ele>1209</ele>
        <time>2021-10-09T10:29:34</time>
      </trkpt>
      <trkpt lat="42.97015" lon="-0.02614">
        <ele>1209.2</ele>
        <time>2021-10-09T10:29:35</time>
      </trkpt>
      <trkpt lat="42.97017" lon="-0.02614">
        <ele>1209.6</ele>
        <time>2021-10-09T10:29:36</time>
      </trkpt>
      <trkpt lat="42.97019" lon="-0.02614">
        <ele>1210</ele>
        <time>2021-10-09T10:29:37</time>
      </trkpt>
      <trkpt lat="42.97021" lon="-0.02615">
        <ele>1210.4</ele>
        <time>2021-10-09T10:29:38</time>
      </trkpt>
      <trkpt lat="42.97023" lon="-0.02615">
        <ele>1210.6</ele>
        <time>2021-10-09T10:29:39</time>
      </trkpt>
      <trkpt lat="42.97024" lon="-0.02616">
        <ele>1210.8</ele>
        <time>2021-10-09T10:29:40</time>
      </trkpt>
      <trkpt lat="42.97025" lon="-0.02617">
        <ele>1210.8</ele>
        <time>2021-10-09T10:29:41</time>
      </trkpt>
      <trkpt lat="42.97027" lon="-0.02618">
        <ele>1211</ele>
        <time>2021-10-09T10:29:42</time>
      </trkpt>
      <trkpt lat="42.97028" lon="-0.02619">
        <ele>1211.2</ele>
        <time>2021-10-09T10:29:43</time>
      </trkpt>
      <trkpt lat="42.97028" lon="-0.0262">
        <ele>1211</ele>
        <time>2021-10-09T10:29:44</time>
      </trkpt>
      <trkpt lat="42.97028" lon="-0.02621">
        <ele>1211</ele>
        <time>2021-10-09T10:29:45</time>
      </trkpt>
      <trkpt lat="42.97028" lon="-0.02621">
        <ele>1211</ele>
        <time>2021-10-09T10:29:46</time>
      </trkpt>
      <trkpt lat="42.97028" lon="-0.02621">
        <ele>1211</ele>
        <time>2021-10-09T10:29:47</time>
      </trkpt>
      <trkpt lat="42.97028" lon="-0.02621">
        <ele>1211</ele>
        <time>2021-10-09T10:29:48</time>
      </trkpt>
      <trkpt lat="42.97028" lon="-0.0262">
        <ele>1211</ele>
        <time>2021-10-09T10:29:49</time>
      </trkpt>
      <trkpt lat="42.97027" lon="-0.02619">
        <ele>1211</ele>
        <time>2021-10-09T10:29:50</time>
      </trkpt>
      <trkpt lat="42.97027" lon="-0.02619">
        <ele>1211</ele>
        <time>2021-10-09T10:29:51</time>
      </trkpt>
      <trkpt lat="42.97026" lon="-0.02619">
        <ele>1211</ele>
        <time>2021-10-09T10:29:52</time>
      </trkpt>
      <trkpt lat="42.97025" lon="-0.02618">
        <ele>1210.8</ele>
        <time>2021-10-09T10:29:53</time>
      </trkpt>
      <trkpt lat="42.97011" lon="-0.02618">
        <ele>1209.2</ele>
        <time>2021-10-09T10:30:00</time>
      </trkpt>
      <trkpt lat="42.97009" lon="-0.02619">
        <ele>1208.8</ele>
        <time>2021-10-09T10:30:01</time>
      </trkpt>
      <trkpt lat="42.97007" lon="-0.0262">
        <ele>1208.4</ele>
        <time>2021-10-09T10:30:02</time>
      </trkpt>
      <trkpt lat="42.97006" lon="-0.02621">
        <ele>1208.2</ele>
        <time>2021-10-09T10:30:03</time>
      </trkpt>
      <trkpt lat="42.97005" lon="-0.02621">
        <ele>1208</ele>
        <time>2021-10-09T10:30:04</time>
      </trkpt>
      <trkpt lat="42.97003" lon="-0.02622">
        <ele>1207.8</ele>
        <time>2021-10-09T10:30:05</time>
      </trkpt>
      <trkpt lat="42.97003" lon="-0.02624">
        <ele>1207.8</ele>
        <time>2021-10-09T10:30:06</time>
      </trkpt>
      <trkpt lat="42.97002" lon="-0.02624">
        <ele>1207.6</ele>
        <time>2021-10-09T10:30:07</time>
      </trkpt>
      <trkpt lat="42.97001" lon="-0.02625">
        <ele>1207.4</ele>
        <time>2021-10-09T10:30:08</time>
      </trkpt>
      <trkpt lat="42.97001" lon="-0.02624">
        <ele>1207.4</ele>
        <time>2021-10-09T10:30:09</time>
      </trkpt>
      <trkpt lat="42.97001" lon="-0.02624">
        <ele>1207.4</ele>
        <time>2021-10-09T10:30:10</time>
      </trkpt>
      <trkpt lat="42.97001" lon="-0.02624">
        <ele>1207.4</ele>
        <time>2021-10-09T10:30:11</time>
      </trkpt>
      <trkpt lat="42.97001" lon="-0.02624">
        <ele>1207.4</ele>
        <time>2021-10-09T10:30:12</time>
      </trkpt>
      <trkpt lat="42.97001" lon="-0.02624">
        <ele>1207.4</ele>
        <time>2021-10-09T10:30:13</time>
      </trkpt>
      <trkpt lat="42.97001" lon="-0.02624">
        <ele>1207.4</ele>
        <time>2021-10-09T10:30:14</time>
      </trkpt>
      <trkpt lat="42.97" lon="-0.02624">
        <ele>1207.4</ele>
        <time>2021-10-09T10:30:15</time>
      </trkpt>
      <trkpt lat="42.97014" lon="-0.02617">
        <ele>1209</ele>
        <time>2021-10-09T10:30:56</time>
      </trkpt>
      <trkpt lat="42.97015" lon="-0.02616">
        <ele>1209.2</ele>
        <time>2021-10-09T10:30:57</time>
      </trkpt>
      <trkpt lat="42.97017" lon="-0.02616">
        <ele>1209.2</ele>
        <time>2021-10-09T10:30:58</time>
      </trkpt>
      <trkpt lat="42.97018" lon="-0.02615">
        <ele>1209.4</ele>
        <time>2021-10-09T10:30:59</time>
      </trkpt>
      <trkpt lat="42.97019" lon="-0.02615">
        <ele>1209.6</ele>
        <time>2021-10-09T10:31:00</time>
      </trkpt>
      <trkpt lat="42.9702" lon="-0.02615">
        <ele>1209.8</ele>
        <time>2021-10-09T10:31:01</time>
      </trkpt>
      <trkpt lat="42.97021" lon="-0.02616">
        <ele>1210</ele>
        <time>2021-10-09T10:31:02</time>
      </trkpt>
      <trkpt lat="42.97023" lon="-0.02616">
        <ele>1210.2</ele>
        <time>2021-10-09T10:31:03</time>
      </trkpt>
      <trkpt lat="42.97024" lon="-0.02616">
        <ele>1210.4</ele>
        <time>2021-10-09T10:31:04</time>
      </trkpt>
      <trkpt lat="42.97025" lon="-0.02616">
        <ele>1210.4</ele>
        <time>2021-10-09T10:31:05</time>
      </trkpt>
      <trkpt lat="42.97026" lon="-0.02617">
        <ele>1210.4</ele>
        <time>2021-10-09T10:31:06</time>
      </trkpt>
      <trkpt lat="42.97027" lon="-0.02618">
        <ele>1210.6</ele>
        <time>2021-10-09T10:31:07</time>
      </trkpt>
      <trkpt lat="42.97028" lon="-0.02619">
        <ele>1210.6</ele>
        <time>2021-10-09T10:31:08</time>
      </trkpt>
      <trkpt lat="42.9703" lon="-0.02619">
        <ele>1210.8</ele>
        <time>2021-10-09T10:31:09</time>
      </trkpt>
      <trkpt lat="42.97031" lon="-0.0262">
        <ele>1210.8</ele>
        <time>2021-10-09T10:31:10</time>
      </trkpt>
      <trkpt lat="42.97032" lon="-0.02621">
        <ele>1210.8</ele>
        <time>2021-10-09T10:31:11</time>
      </trkpt>
      <trkpt lat="42.97033" lon="-0.02622">
        <ele>1210.8</ele>
        <time>2021-10-09T10:31:12</time>
      </trkpt>
      <trkpt lat="42.97035" lon="-0.02624">
        <ele>1211</ele>
        <time>2021-10-09T10:31:13</time>
      </trkpt>
      <trkpt lat="42.97036" lon="-0.02625">
        <ele>1210.8</ele>
        <time>2021-10-09T10:31:14</time>
      </trkpt>
      <trkpt lat="42.97037" lon="-0.02627">
        <ele>1210.8</ele>
        <time>2021-10-09T10:31:15</time>
      </trkpt>
      <trkpt lat="42.97038" lon="-0.02629">
        <ele>1211</ele>
        <time>2021-10-09T10:31:16</time>
      </trkpt>
      <trkpt lat="42.97039" lon="-0.0263">
        <ele>1210.8</ele>
        <time>2021-10-09T10:31:17</time>
      </trkpt>
      <trkpt lat="42.9704" lon="-0.0263">
        <ele>1211</ele>
        <time>2021-10-09T10:31:18</time>
      </trkpt>
      <trkpt lat="42.97041" lon="-0.02631">
        <ele>1211</ele>
        <time>2021-10-09T10:31:19</time>
      </trkpt>
      <trkpt lat="42.97042" lon="-0.02633">
        <ele>1211</ele>
        <time>2021-10-09T10:31:20</time>
      </trkpt>
      <trkpt lat="42.97043" lon="-0.02635">
        <ele>1211.2</ele>
        <time>2021-10-09T10:31:21</time>
      </trkpt>
      <trkpt lat="42.97044" lon="-0.02638">
        <ele>1211</ele>
        <time>2021-10-09T10:31:22</time>
      </trkpt>
      <trkpt lat="42.97046" lon="-0.0264">
        <ele>1211.2</ele>
        <time>2021-10-09T10:31:23</time>
      </trkpt>
      <trkpt lat="42.97047" lon="-0.02642">
        <ele>1211</ele>
        <time>2021-10-09T10:31:24</time>
      </trkpt>
      <trkpt lat="42.97048" lon="-0.02644">
        <ele>1210.8</ele>
        <time>2021-10-09T10:31:25</time>
      </trkpt>
      <trkpt lat="42.9705" lon="-0.02646">
        <ele>1210.8</ele>
        <time>2021-10-09T10:31:26</time>
      </trkpt>
      <trkpt lat="42.97051" lon="-0.02647">
        <ele>1211</ele>
        <time>2021-10-09T10:31:27</time>
      </trkpt>
      <trkpt lat="42.97052" lon="-0.02649">
        <ele>1210.8</ele>
        <time>2021-10-09T10:31:28</time>
      </trkpt>
      <trkpt lat="42.97053" lon="-0.02651">
        <ele>1211</ele>
        <time>2021-10-09T10:31:29</time>
      </trkpt>
      <trkpt lat="42.97055" lon="-0.02653">
        <ele>1211</ele>
        <time>2021-10-09T10:31:30</time>
      </trkpt>
      <trkpt lat="42.97057" lon="-0.02654">
        <ele>1211.2</ele>
        <time>2021-10-09T10:31:31</time>
      </trkpt>
      <trkpt lat="42.97059" lon="-0.02655">
        <ele>1211.2</ele>
        <time>2021-10-09T10:31:32</time>
      </trkpt>
      <trkpt lat="42.97061" lon="-0.02655">
        <ele>1211.4</ele>
        <time>2021-10-09T10:31:33</time>
      </trkpt>
      <trkpt lat="42.97063" lon="-0.02656">
        <ele>1211.6</ele>
        <time>2021-10-09T10:31:34</time>
      </trkpt>
      <trkpt lat="42.97065" lon="-0.02656">
        <ele>1211.6</ele>
        <time>2021-10-09T10:31:35</time>
      </trkpt>
      <trkpt lat="42.97067" lon="-0.02656">
        <ele>1211.8</ele>
        <time>2021-10-09T10:31:36</time>
      </trkpt>
      <trkpt lat="42.97068" lon="-0.02656">
        <ele>1211.8</ele>
        <time>2021-10-09T10:31:37</time>
      </trkpt>
      <trkpt lat="42.9707" lon="-0.02657">
        <ele>1211.8</ele>
        <time>2021-10-09T10:31:38</time>
      </trkpt>
      <trkpt lat="42.97071" lon="-0.02657">
        <ele>1212.2</ele>
        <time>2021-10-09T10:31:39</time>
      </trkpt>
      <trkpt lat="42.97073" lon="-0.02657">
        <ele>1212.4</ele>
        <time>2021-10-09T10:31:40</time>
      </trkpt>
      <trkpt lat="42.97074" lon="-0.02657">
        <ele>1212.4</ele>
        <time>2021-10-09T10:31:41</time>
      </trkpt>
      <trkpt lat="42.97076" lon="-0.02657">
        <ele>1212.6</ele>
        <time>2021-10-09T10:31:42</time>
      </trkpt>
      <trkpt lat="42.97077" lon="-0.02657">
        <ele>1213</ele>
        <time>2021-10-09T10:31:43</time>
      </trkpt>
      <trkpt lat="42.97079" lon="-0.02657">
        <ele>1213.2</ele>
        <time>2021-10-09T10:31:44</time>
      </trkpt>
      <trkpt lat="42.9708" lon="-0.02656">
        <ele>1213.2</ele>
        <time>2021-10-09T10:31:45</time>
      </trkpt>
      <trkpt lat="42.97082" lon="-0.02656">
        <ele>1213.4</ele>
        <time>2021-10-09T10:31:46</time>
      </trkpt>
      <trkpt lat="42.97083" lon="-0.02656">
        <ele>1213.4</ele>
        <time>2021-10-09T10:31:47</time>
      </trkpt>
      <trkpt lat="42.97085" lon="-0.02656">
        <ele>1213.8</ele>
        <time>2021-10-09T10:31:48</time>
      </trkpt>
      <trkpt lat="42.97087" lon="-0.02656">
        <ele>1214</ele>
        <time>2021-10-09T10:31:49</time>
      </trkpt>
      <trkpt lat="42.97088" lon="-0.02656">
        <ele>1214.2</ele>
        <time>2021-10-09T10:31:50</time>
      </trkpt>
      <trkpt lat="42.9709" lon="-0.02655">
        <ele>1214.4</ele>
        <time>2021-10-09T10:31:51</time>
      </trkpt>
      <trkpt lat="42.97092" lon="-0.02655">
        <ele>1214.6</ele>
        <time>2021-10-09T10:31:52</time>
      </trkpt>
      <trkpt lat="42.97094" lon="-0.02655">
        <ele>1214.8</ele>
        <time>2021-10-09T10:31:53</time>
      </trkpt>
      <trkpt lat="42.97095" lon="-0.02654">
        <ele>1215</ele>
        <time>2021-10-09T10:31:54</time>
      </trkpt>
      <trkpt lat="42.97097" lon="-0.02653">
        <ele>1215</ele>
        <time>2021-10-09T10:31:55</time>
      </trkpt>
      <trkpt lat="42.97098" lon="-0.02653">
        <ele>1215.2</ele>
        <time>2021-10-09T10:31:56</time>
      </trkpt>
      <trkpt lat="42.971" lon="-0.02652">
        <ele>1215.4</ele>
        <time>2021-10-09T10:31:57</time>
      </trkpt>
      <trkpt lat="42.97101" lon="-0.02652">
        <ele>1215.4</ele>
        <time>2021-10-09T10:31:58</time>
      </trkpt>
      <trkpt lat="42.97103" lon="-0.02652">
        <ele>1215.4</ele>
        <time>2021-10-09T10:31:59</time>
      </trkpt>
      <trkpt lat="42.97104" lon="-0.02652">
        <ele>1215.8</ele>
        <time>2021-10-09T10:32:00</time>
      </trkpt>
      <trkpt lat="42.97106" lon="-0.02652">
        <ele>1216</ele>
        <time>2021-10-09T10:32:01</time>
      </trkpt>
      <trkpt lat="42.97107" lon="-0.02653">
        <ele>1216.2</ele>
        <time>2021-10-09T10:32:02</time>
      </trkpt>
      <trkpt lat="42.97109" lon="-0.02654">
        <ele>1216.2</ele>
        <time>2021-10-09T10:32:03</time>
      </trkpt>
      <trkpt lat="42.9711" lon="-0.02656">
        <ele>1216.6</ele>
        <time>2021-10-09T10:32:04</time>
      </trkpt>
      <trkpt lat="42.97112" lon="-0.02657">
        <ele>1216.6</ele>
        <time>2021-10-09T10:32:05</time>
      </trkpt>
      <trkpt lat="42.97113" lon="-0.02659">
        <ele>1216.8</ele>
        <time>2021-10-09T10:32:06</time>
      </trkpt>
      <trkpt lat="42.97115" lon="-0.0266">
        <ele>1216.8</ele>
        <time>2021-10-09T10:32:07</time>
      </trkpt>
      <trkpt lat="42.97116" lon="-0.02662">
        <ele>1217</ele>
        <time>2021-10-09T10:32:08</time>
      </trkpt>
      <trkpt lat="42.97117" lon="-0.02665">
        <ele>1217</ele>
        <time>2021-10-09T10:32:09</time>
      </trkpt>
      <trkpt lat="42.97118" lon="-0.02667">
        <ele>1217.4</ele>
        <time>2021-10-09T10:32:10</time>
      </trkpt>
      <trkpt lat="42.97119" lon="-0.02669">
        <ele>1217.6</ele>
        <time>2021-10-09T10:32:11</time>
      </trkpt>
      <trkpt lat="42.97121" lon="-0.02672">
        <ele>1217.6</ele>
        <time>2021-10-09T10:32:12</time>
      </trkpt>
      <trkpt lat="42.97122" lon="-0.02674">
        <ele>1217.8</ele>
        <time>2021-10-09T10:32:13</time>
      </trkpt>
      <trkpt lat="42.97123" lon="-0.02676">
        <ele>1217.8</ele>
        <time>2021-10-09T10:32:14</time>
      </trkpt>
      <trkpt lat="42.97124" lon="-0.02679">
        <ele>1218</ele>
        <time>2021-10-09T10:32:15</time>
      </trkpt>
      <trkpt lat="42.97125" lon="-0.02681">
        <ele>1218.2</ele>
        <time>2021-10-09T10:32:16</time>
      </trkpt>
      <trkpt lat="42.97126" lon="-0.02683">
        <ele>1218.2</ele>
        <time>2021-10-09T10:32:17</time>
      </trkpt>
      <trkpt lat="42.97126" lon="-0.02685">
        <ele>1218.4</ele>
        <time>2021-10-09T10:32:18</time>
      </trkpt>
      <trkpt lat="42.97127" lon="-0.02687">
        <ele>1218.6</ele>
        <time>2021-10-09T10:32:19</time>
      </trkpt>
      <trkpt lat="42.97128" lon="-0.02689">
        <ele>1218.8</ele>
        <time>2021-10-09T10:32:20</time>
      </trkpt>
      <trkpt lat="42.97129" lon="-0.02691">
        <ele>1219</ele>
        <time>2021-10-09T10:32:21</time>
      </trkpt>
      <trkpt lat="42.9713" lon="-0.02693">
        <ele>1219</ele>
        <time>2021-10-09T10:32:22</time>
      </trkpt>
      <trkpt lat="42.97131" lon="-0.02695">
        <ele>1219.2</ele>
        <time>2021-10-09T10:32:23</time>
      </trkpt>
      <trkpt lat="42.97132" lon="-0.02697">
        <ele>1219.4</ele>
        <time>2021-10-09T10:32:24</time>
      </trkpt>
      <trkpt lat="42.97133" lon="-0.02699">
        <ele>1219.4</ele>
        <time>2021-10-09T10:32:25</time>
      </trkpt>
      <trkpt lat="42.97134" lon="-0.02701">
        <ele>1219.8</ele>
        <time>2021-10-09T10:32:26</time>
      </trkpt>
      <trkpt lat="42.97135" lon="-0.02703">
        <ele>1220</ele>
        <time>2021-10-09T10:32:27</time>
      </trkpt>
      <trkpt lat="42.97136" lon="-0.02705">
        <ele>1220.2</ele>
        <time>2021-10-09T10:32:28</time>
      </trkpt>
      <trkpt lat="42.97137" lon="-0.02706">
        <ele>1220.4</ele>
        <time>2021-10-09T10:32:29</time>
      </trkpt>
      <trkpt lat="42.97138" lon="-0.02708">
        <ele>1220.2</ele>
        <time>2021-10-09T10:32:30</time>
      </trkpt>
      <trkpt lat="42.97139" lon="-0.0271">
        <ele>1220.4</ele>
        <time>2021-10-09T10:32:31</time>
      </trkpt>
      <trkpt lat="42.9714" lon="-0.02712">
        <ele>1220.6</ele>
        <time>2021-10-09T10:32:32</time>
      </trkpt>
      <trkpt lat="42.97141" lon="-0.02713">
        <ele>1220.8</ele>
        <time>2021-10-09T10:32:33</time>
      </trkpt>
      <trkpt lat="42.97141" lon="-0.02715">
        <ele>1221</ele>
        <time>2021-10-09T10:32:34</time>
      </trkpt>
      <trkpt lat="42.97142" lon="-0.02717">
        <ele>1221</ele>
        <time>2021-10-09T10:32:35</time>
      </trkpt>
      <trkpt lat="42.97143" lon="-0.02719">
        <ele>1221.2</ele>
        <time>2021-10-09T10:32:36</time>
      </trkpt>
      <trkpt lat="42.97144" lon="-0.02721">
        <ele>1221.4</ele>
        <time>2021-10-09T10:32:37</time>
      </trkpt>
      <trkpt lat="42.97144" lon="-0.02721">
        <ele>1221.4</ele>
        <time>2021-10-09T10:32:38</time>
      </trkpt>
      <trkpt lat="42.97146" lon="-0.02725">
        <ele>1221.8</ele>
        <time>2021-10-09T10:32:39</time>
      </trkpt>
      <trkpt lat="42.97146" lon="-0.02727">
        <ele>1222</ele>
        <time>2021-10-09T10:32:40</time>
      </trkpt>
      <trkpt lat="42.97147" lon="-0.02729">
        <ele>1222</ele>
        <time>2021-10-09T10:32:41</time>
      </trkpt>
      <trkpt lat="42.97148" lon="-0.02731">
        <ele>1222.2</ele>
        <time>2021-10-09T10:32:42</time>
      </trkpt>
      <trkpt lat="42.97149" lon="-0.02733">
        <ele>1222.2</ele>
        <time>2021-10-09T10:32:43</time>
      </trkpt>
      <trkpt lat="42.97149" lon="-0.02735">
        <ele>1222.4</ele>
        <time>2021-10-09T10:32:44</time>
      </trkpt>
      <trkpt lat="42.9715" lon="-0.02737">
        <ele>1222.6</ele>
        <time>2021-10-09T10:32:45</time>
      </trkpt>
      <trkpt lat="42.9715" lon="-0.02739">
        <ele>1222.8</ele>
        <time>2021-10-09T10:32:46</time>
      </trkpt>
      <trkpt lat="42.97151" lon="-0.02741">
        <ele>1223</ele>
        <time>2021-10-09T10:32:47</time>
      </trkpt>
      <trkpt lat="42.97151" lon="-0.02743">
        <ele>1223</ele>
        <time>2021-10-09T10:32:48</time>
      </trkpt>
      <trkpt lat="42.97152" lon="-0.02745">
        <ele>1223.2</ele>
        <time>2021-10-09T10:32:49</time>
      </trkpt>
      <trkpt lat="42.97153" lon="-0.02747">
        <ele>1223.4</ele>
        <time>2021-10-09T10:32:50</time>
      </trkpt>
      <trkpt lat="42.97153" lon="-0.02749">
        <ele>1223.4</ele>
        <time>2021-10-09T10:32:51</time>
      </trkpt>
      <trkpt lat="42.97154" lon="-0.02752">
        <ele>1223.6</ele>
        <time>2021-10-09T10:32:52</time>
      </trkpt>
      <trkpt lat="42.97154" lon="-0.02754">
        <ele>1223.8</ele>
        <time>2021-10-09T10:32:53</time>
      </trkpt>
      <trkpt lat="42.97155" lon="-0.02757">
        <ele>1224</ele>
        <time>2021-10-09T10:32:54</time>
      </trkpt>
      <trkpt lat="42.97155" lon="-0.02759">
        <ele>1224</ele>
        <time>2021-10-09T10:32:55</time>
      </trkpt>
      <trkpt lat="42.97155" lon="-0.02762">
        <ele>1224.2</ele>
        <time>2021-10-09T10:32:56</time>
      </trkpt>
      <trkpt lat="42.97155" lon="-0.02765">
        <ele>1224.4</ele>
        <time>2021-10-09T10:32:57</time>
      </trkpt>
      <trkpt lat="42.97155" lon="-0.02767">
        <ele>1224.4</ele>
        <time>2021-10-09T10:32:58</time>
      </trkpt>
      <trkpt lat="42.97155" lon="-0.0277">
        <ele>1224.4</ele>
        <time>2021-10-09T10:32:59</time>
      </trkpt>
      <trkpt lat="42.97155" lon="-0.02773">
        <ele>1224.6</ele>
        <time>2021-10-09T10:33:00</time>
      </trkpt>
      <trkpt lat="42.97155" lon="-0.02776">
        <ele>1224.8</ele>
        <time>2021-10-09T10:33:01</time>
      </trkpt>
      <trkpt lat="42.97155" lon="-0.02779">
        <ele>1224.8</ele>
        <time>2021-10-09T10:33:02</time>
      </trkpt>
      <trkpt lat="42.97154" lon="-0.02781">
        <ele>1225</ele>
        <time>2021-10-09T10:33:03</time>
      </trkpt>
      <trkpt lat="42.97154" lon="-0.02784">
        <ele>1225</ele>
        <time>2021-10-09T10:33:04</time>
      </trkpt>
      <trkpt lat="42.97154" lon="-0.02787">
        <ele>1225.2</ele>
        <time>2021-10-09T10:33:05</time>
      </trkpt>
      <trkpt lat="42.97154" lon="-0.0279">
        <ele>1225.4</ele>
        <time>2021-10-09T10:33:06</time>
      </trkpt>
      <trkpt lat="42.97154" lon="-0.02793">
        <ele>1225.4</ele>
        <time>2021-10-09T10:33:07</time>
      </trkpt>
      <trkpt lat="42.97155" lon="-0.02795">
        <ele>1225.4</ele>
        <time>2021-10-09T10:33:08</time>
      </trkpt>
      <trkpt lat="42.97157" lon="-0.02797">
        <ele>1225.8</ele>
        <time>2021-10-09T10:33:09</time>
      </trkpt>
      <trkpt lat="42.97159" lon="-0.02798">
        <ele>1225.8</ele>
        <time>2021-10-09T10:33:10</time>
      </trkpt>
      <trkpt lat="42.97161" lon="-0.02798">
        <ele>1226</ele>
        <time>2021-10-09T10:33:11</time>
      </trkpt>
      <trkpt lat="42.97162" lon="-0.02797">
        <ele>1226</ele>
        <time>2021-10-09T10:33:12</time>
      </trkpt>
      <trkpt lat="42.97164" lon="-0.02796">
        <ele>1226.2</ele>
        <time>2021-10-09T10:33:13</time>
      </trkpt>
      <trkpt lat="42.97165" lon="-0.02795">
        <ele>1226.4</ele>
        <time>2021-10-09T10:33:14</time>
      </trkpt>
      <trkpt lat="42.97166" lon="-0.02793">
        <ele>1226.8</ele>
        <time>2021-10-09T10:33:15</time>
      </trkpt>
      <trkpt lat="42.97166" lon="-0.0279">
        <ele>1227</ele>
        <time>2021-10-09T10:33:16</time>
      </trkpt>
      <trkpt lat="42.97166" lon="-0.02788">
        <ele>1227.2</ele>
        <time>2021-10-09T10:33:17</time>
      </trkpt>
      <trkpt lat="42.97166" lon="-0.02785">
        <ele>1227.4</ele>
        <time>2021-10-09T10:33:18</time>
      </trkpt>
      <trkpt lat="42.97165" lon="-0.02783">
        <ele>1227.8</ele>
        <time>2021-10-09T10:33:19</time>
      </trkpt>
      <trkpt lat="42.97166" lon="-0.0278">
        <ele>1228</ele>
        <time>2021-10-09T10:33:20</time>
      </trkpt>
      <trkpt lat="42.97166" lon="-0.02778">
        <ele>1228</ele>
        <time>2021-10-09T10:33:21</time>
      </trkpt>
      <trkpt lat="42.97165" lon="-0.02775">
        <ele>1228</ele>
        <time>2021-10-09T10:33:22</time>
      </trkpt>
      <trkpt lat="42.97166" lon="-0.02773">
        <ele>1228.2</ele>
        <time>2021-10-09T10:33:23</time>
      </trkpt>
      <trkpt lat="42.97166" lon="-0.0277">
        <ele>1228.4</ele>
        <time>2021-10-09T10:33:24</time>
      </trkpt>
      <trkpt lat="42.97166" lon="-0.02768">
        <ele>1228.6</ele>
        <time>2021-10-09T10:33:25</time>
      </trkpt>
      <trkpt lat="42.97166" lon="-0.02765">
        <ele>1228.8</ele>
        <time>2021-10-09T10:33:26</time>
      </trkpt>
      <trkpt lat="42.97167" lon="-0.02763">
        <ele>1228.8</ele>
        <time>2021-10-09T10:33:27</time>
      </trkpt>
      <trkpt lat="42.97167" lon="-0.0276">
        <ele>1229</ele>
        <time>2021-10-09T10:33:28</time>
      </trkpt>
      <trkpt lat="42.97167" lon="-0.02758">
        <ele>1229.2</ele>
        <time>2021-10-09T10:33:29</time>
      </trkpt>
      <trkpt lat="42.97167" lon="-0.02755">
        <ele>1229.4</ele>
        <time>2021-10-09T10:33:30</time>
      </trkpt>
      <trkpt lat="42.97167" lon="-0.02752">
        <ele>1229.6</ele>
        <time>2021-10-09T10:33:31</time>
      </trkpt>
      <trkpt lat="42.97167" lon="-0.0275">
        <ele>1229.8</ele>
        <time>2021-10-09T10:33:32</time>
      </trkpt>
      <trkpt lat="42.97167" lon="-0.02747">
        <ele>1230</ele>
        <time>2021-10-09T10:33:33</time>
      </trkpt>
      <trkpt lat="42.97167" lon="-0.02745">
        <ele>1230.2</ele>
        <time>2021-10-09T10:33:34</time>
      </trkpt>
      <trkpt lat="42.97167" lon="-0.02742">
        <ele>1230.4</ele>
        <time>2021-10-09T10:33:35</time>
      </trkpt>
      <trkpt lat="42.97167" lon="-0.02739">
        <ele>1230.4</ele>
        <time>2021-10-09T10:33:36</time>
      </trkpt>
      <trkpt lat="42.97167" lon="-0.02736">
        <ele>1230.6</ele>
        <time>2021-10-09T10:33:37</time>
      </trkpt>
      <trkpt lat="42.97167" lon="-0.02734">
        <ele>1230.8</ele>
        <time>2021-10-09T10:33:38</time>
      </trkpt>
      <trkpt lat="42.97167" lon="-0.02731">
        <ele>1231.2</ele>
        <time>2021-10-09T10:33:39</time>
      </trkpt>
      <trkpt lat="42.97167" lon="-0.02728">
        <ele>1231.2</ele>
        <time>2021-10-09T10:33:40</time>
      </trkpt>
      <trkpt lat="42.97167" lon="-0.02725">
        <ele>1231.4</ele>
        <time>2021-10-09T10:33:41</time>
      </trkpt>
      <trkpt lat="42.97167" lon="-0.02723">
        <ele>1231.6</ele>
        <time>2021-10-09T10:33:42</time>
      </trkpt>
      <trkpt lat="42.97166" lon="-0.0272">
        <ele>1231.8</ele>
        <time>2021-10-09T10:33:43</time>
      </trkpt>
      <trkpt lat="42.97166" lon="-0.02718">
        <ele>1231.8</ele>
        <time>2021-10-09T10:33:44</time>
      </trkpt>
      <trkpt lat="42.97166" lon="-0.02715">
        <ele>1232</ele>
        <time>2021-10-09T10:33:45</time>
      </trkpt>
      <trkpt lat="42.97166" lon="-0.02713">
        <ele>1232.2</ele>
        <time>2021-10-09T10:33:46</time>
      </trkpt>
      <trkpt lat="42.97165" lon="-0.0271">
        <ele>1232.4</ele>
        <time>2021-10-09T10:33:47</time>
      </trkpt>
      <trkpt lat="42.97165" lon="-0.02708">
        <ele>1232.4</ele>
        <time>2021-10-09T10:33:48</time>
      </trkpt>
      <trkpt lat="42.97164" lon="-0.02705">
        <ele>1232.6</ele>
        <time>2021-10-09T10:33:49</time>
      </trkpt>
      <trkpt lat="42.97164" lon="-0.02703">
        <ele>1232.8</ele>
        <time>2021-10-09T10:33:50</time>
      </trkpt>
      <trkpt lat="42.97164" lon="-0.027">
        <ele>1233</ele>
        <time>2021-10-09T10:33:51</time>
      </trkpt>
      <trkpt lat="42.97163" lon="-0.02698">
        <ele>1233.2</ele>
        <time>2021-10-09T10:33:52</time>
      </trkpt>
      <trkpt lat="42.97163" lon="-0.02696">
        <ele>1233.4</ele>
        <time>2021-10-09T10:33:53</time>
      </trkpt>
      <trkpt lat="42.97163" lon="-0.02693">
        <ele>1233.6</ele>
        <time>2021-10-09T10:33:54</time>
      </trkpt>
      <trkpt lat="42.97162" lon="-0.02691">
        <ele>1233.8</ele>
        <time>2021-10-09T10:33:55</time>
      </trkpt>
      <trkpt lat="42.97162" lon="-0.02688">
        <ele>1233.8</ele>
        <time>2021-10-09T10:33:56</time>
      </trkpt>
      <trkpt lat="42.97161" lon="-0.02685">
        <ele>1233.8</ele>
        <time>2021-10-09T10:33:57</time>
      </trkpt>
      <trkpt lat="42.97161" lon="-0.02683">
        <ele>1234.2</ele>
        <time>2021-10-09T10:33:58</time>
      </trkpt>
      <trkpt lat="42.9716" lon="-0.0268">
        <ele>1234.2</ele>
        <time>2021-10-09T10:33:59</time>
      </trkpt>
      <trkpt lat="42.9716" lon="-0.02678">
        <ele>1234.4</ele>
        <time>2021-10-09T10:34:00</time>
      </trkpt>
      <trkpt lat="42.9716" lon="-0.02675">
        <ele>1234.6</ele>
        <time>2021-10-09T10:34:01</time>
      </trkpt>
      <trkpt lat="42.9716" lon="-0.02673">
        <ele>1234.8</ele>
        <time>2021-10-09T10:34:02</time>
      </trkpt>
      <trkpt lat="42.97159" lon="-0.0267">
        <ele>1235</ele>
        <time>2021-10-09T10:34:03</time>
      </trkpt>
      <trkpt lat="42.97159" lon="-0.02668">
        <ele>1235.2</ele>
        <time>2021-10-09T10:34:04</time>
      </trkpt>
      <trkpt lat="42.97159" lon="-0.02666">
        <ele>1235.4</ele>
        <time>2021-10-09T10:34:05</time>
      </trkpt>
      <trkpt lat="42.97159" lon="-0.02664">
        <ele>1235.4</ele>
        <time>2021-10-09T10:34:06</time>
      </trkpt>
      <trkpt lat="42.97158" lon="-0.02662">
        <ele>1235.8</ele>
        <time>2021-10-09T10:34:07</time>
      </trkpt>
      <trkpt lat="42.97158" lon="-0.02659">
        <ele>1235.8</ele>
        <time>2021-10-09T10:34:08</time>
      </trkpt>
      <trkpt lat="42.97157" lon="-0.02657">
        <ele>1235.8</ele>
        <time>2021-10-09T10:34:09</time>
      </trkpt>
      <trkpt lat="42.97157" lon="-0.02655">
        <ele>1236</ele>
        <time>2021-10-09T10:34:10</time>
      </trkpt>
      <trkpt lat="42.97157" lon="-0.02653">
        <ele>1236.2</ele>
        <time>2021-10-09T10:34:11</time>
      </trkpt>
      <trkpt lat="42.97157" lon="-0.02651">
        <ele>1236.4</ele>
        <time>2021-10-09T10:34:12</time>
      </trkpt>
      <trkpt lat="42.97157" lon="-0.02648">
        <ele>1236.8</ele>
        <time>2021-10-09T10:34:13</time>
      </trkpt>
      <trkpt lat="42.97157" lon="-0.02646">
        <ele>1236.8</ele>
        <time>2021-10-09T10:34:14</time>
      </trkpt>
      <trkpt lat="42.97157" lon="-0.02644">
        <ele>1237.2</ele>
        <time>2021-10-09T10:34:15</time>
      </trkpt>
      <trkpt lat="42.97157" lon="-0.02642">
        <ele>1237.2</ele>
        <time>2021-10-09T10:34:16</time>
      </trkpt>
      <trkpt lat="42.97157" lon="-0.0264">
        <ele>1237.4</ele>
        <time>2021-10-09T10:34:17</time>
      </trkpt>
      <trkpt lat="42.97157" lon="-0.02638">
        <ele>1237.4</ele>
        <time>2021-10-09T10:34:18</time>
      </trkpt>
      <trkpt lat="42.97157" lon="-0.02636">
        <ele>1237.6</ele>
        <time>2021-10-09T10:34:19</time>
      </trkpt>
      <trkpt lat="42.97158" lon="-0.02634">
        <ele>1237.8</ele>
        <time>2021-10-09T10:34:20</time>
      </trkpt>
      <trkpt lat="42.97158" lon="-0.02632">
        <ele>1238</ele>
        <time>2021-10-09T10:34:21</time>
      </trkpt>
      <trkpt lat="42.97159" lon="-0.0263">
        <ele>1238.2</ele>
        <time>2021-10-09T10:34:22</time>
      </trkpt>
      <trkpt lat="42.97159" lon="-0.02628">
        <ele>1238.4</ele>
        <time>2021-10-09T10:34:23</time>
      </trkpt>
      <trkpt lat="42.9716" lon="-0.02626">
        <ele>1238.4</ele>
        <time>2021-10-09T10:34:24</time>
      </trkpt>
      <trkpt lat="42.97161" lon="-0.02625">
        <ele>1238.6</ele>
        <time>2021-10-09T10:34:25</time>
      </trkpt>
      <trkpt lat="42.97162" lon="-0.02623">
        <ele>1238.8</ele>
        <time>2021-10-09T10:34:26</time>
      </trkpt>
      <trkpt lat="42.97162" lon="-0.02621">
        <ele>1239</ele>
        <time>2021-10-09T10:34:27</time>
      </trkpt>
      <trkpt lat="42.97163" lon="-0.02619">
        <ele>1239.2</ele>
        <time>2021-10-09T10:34:28</time>
      </trkpt>
      <trkpt lat="42.97163" lon="-0.02617">
        <ele>1239.2</ele>
        <time>2021-10-09T10:34:29</time>
      </trkpt>
      <trkpt lat="42.97164" lon="-0.02616">
        <ele>1239.6</ele>
        <time>2021-10-09T10:34:30</time>
      </trkpt>
      <trkpt lat="42.97165" lon="-0.02614">
        <ele>1239.6</ele>
        <time>2021-10-09T10:34:31</time>
      </trkpt>
      <trkpt lat="42.97165" lon="-0.02612">
        <ele>1239.8</ele>
        <time>2021-10-09T10:34:32</time>
      </trkpt>
      <trkpt lat="42.97166" lon="-0.0261">
        <ele>1240</ele>
        <time>2021-10-09T10:34:33</time>
      </trkpt>
      <trkpt lat="42.97166" lon="-0.02608">
        <ele>1240.2</ele>
        <time>2021-10-09T10:34:34</time>
      </trkpt>
      <trkpt lat="42.97167" lon="-0.02606">
        <ele>1240.4</ele>
        <time>2021-10-09T10:34:35</time>
      </trkpt>
      <trkpt lat="42.97167" lon="-0.02604">
        <ele>1240.6</ele>
        <time>2021-10-09T10:34:36</time>
      </trkpt>
      <trkpt lat="42.97168" lon="-0.02602">
        <ele>1240.8</ele>
        <time>2021-10-09T10:34:37</time>
      </trkpt>
      <trkpt lat="42.97168" lon="-0.02601">
        <ele>1241</ele>
        <time>2021-10-09T10:34:38</time>
      </trkpt>
      <trkpt lat="42.97169" lon="-0.02599">
        <ele>1241.2</ele>
        <time>2021-10-09T10:34:39</time>
      </trkpt>
      <trkpt lat="42.97169" lon="-0.02597">
        <ele>1241.4</ele>
        <time>2021-10-09T10:34:40</time>
      </trkpt>
      <trkpt lat="42.9717" lon="-0.02595">
        <ele>1241.8</ele>
        <time>2021-10-09T10:34:41</time>
      </trkpt>
      <trkpt lat="42.9717" lon="-0.02593">
        <ele>1242</ele>
        <time>2021-10-09T10:34:42</time>
      </trkpt>
      <trkpt lat="42.9717" lon="-0.02591">
        <ele>1242</ele>
        <time>2021-10-09T10:34:43</time>
      </trkpt>
      <trkpt lat="42.97171" lon="-0.02589">
        <ele>1242.2</ele>
        <time>2021-10-09T10:34:44</time>
      </trkpt>
      <trkpt lat="42.97171" lon="-0.02587">
        <ele>1242.4</ele>
        <time>2021-10-09T10:34:45</time>
      </trkpt>
      <trkpt lat="42.97172" lon="-0.02586">
        <ele>1242.6</ele>
        <time>2021-10-09T10:34:46</time>
      </trkpt>
      <trkpt lat="42.97172" lon="-0.02584">
        <ele>1242.8</ele>
        <time>2021-10-09T10:34:47</time>
      </trkpt>
      <trkpt lat="42.97172" lon="-0.02582">
        <ele>1243</ele>
        <time>2021-10-09T10:34:48</time>
      </trkpt>
      <trkpt lat="42.97173" lon="-0.02579">
        <ele>1243.2</ele>
        <time>2021-10-09T10:34:49</time>
      </trkpt>
      <trkpt lat="42.97173" lon="-0.02577">
        <ele>1243.4</ele>
        <time>2021-10-09T10:34:50</time>
      </trkpt>
      <trkpt lat="42.97174" lon="-0.02574">
        <ele>1243.8</ele>
        <time>2021-10-09T10:34:51</time>
      </trkpt>
      <trkpt lat="42.97175" lon="-0.02571">
        <ele>1244</ele>
        <time>2021-10-09T10:34:52</time>
      </trkpt>
      <trkpt lat="42.97175" lon="-0.0257">
        <ele>1244.2</ele>
        <time>2021-10-09T10:34:53</time>
      </trkpt>
      <trkpt lat="42.97175" lon="-0.0257">
        <ele>1244.2</ele>
        <time>2021-10-09T10:34:54</time>
      </trkpt>
      <trkpt lat="42.97175" lon="-0.02569">
        <ele>1244.2</ele>
        <time>2021-10-09T10:34:55</time>
      </trkpt>
      <trkpt lat="42.97175" lon="-0.02569">
        <ele>1244</ele>
        <time>2021-10-09T10:34:56</time>
      </trkpt>
      <trkpt lat="42.97175" lon="-0.02569">
        <ele>1244</ele>
        <time>2021-10-09T10:34:57</time>
      </trkpt>
      <trkpt lat="42.97175" lon="-0.02569">
        <ele>1244</ele>
        <time>2021-10-09T10:34:58</time>
      </trkpt>
      <trkpt lat="42.97175" lon="-0.02569">
        <ele>1244</ele>
        <time>2021-10-09T10:34:59</time>
      </trkpt>
      <trkpt lat="42.97175" lon="-0.02569">
        <ele>1244</ele>
        <time>2021-10-09T10:35:00</time>
      </trkpt>
      <trkpt lat="42.97175" lon="-0.02569">
        <ele>1244</ele>
        <time>2021-10-09T10:35:01</time>
      </trkpt>
      <trkpt lat="42.97171" lon="-0.02541">
        <ele>1245.8</ele>
        <time>2021-10-09T10:37:22</time>
      </trkpt>
      <trkpt lat="42.9717" lon="-0.02538">
        <ele>1246</ele>
        <time>2021-10-09T10:37:23</time>
      </trkpt>
      <trkpt lat="42.97169" lon="-0.02535">
        <ele>1246.2</ele>
        <time>2021-10-09T10:37:24</time>
      </trkpt>
      <trkpt lat="42.97168" lon="-0.02532">
        <ele>1246.4</ele>
        <time>2021-10-09T10:37:25</time>
      </trkpt>
      <trkpt lat="42.97167" lon="-0.02529">
        <ele>1246.6</ele>
        <time>2021-10-09T10:37:26</time>
      </trkpt>
      <trkpt lat="42.97165" lon="-0.02526">
        <ele>1246.8</ele>
        <time>2021-10-09T10:37:27</time>
      </trkpt>
      <trkpt lat="42.97164" lon="-0.02523">
        <ele>1247</ele>
        <time>2021-10-09T10:37:28</time>
      </trkpt>
      <trkpt lat="42.97162" lon="-0.0252">
        <ele>1247</ele>
        <time>2021-10-09T10:37:29</time>
      </trkpt>
      <trkpt lat="42.9716" lon="-0.02517">
        <ele>1247</ele>
        <time>2021-10-09T10:37:30</time>
      </trkpt>
      <trkpt lat="42.97159" lon="-0.02514">
        <ele>1247.2</ele>
        <time>2021-10-09T10:37:31</time>
      </trkpt>
      <trkpt lat="42.97157" lon="-0.02511">
        <ele>1247.4</ele>
        <time>2021-10-09T10:37:32</time>
      </trkpt>
      <trkpt lat="42.97155" lon="-0.02508">
        <ele>1247.6</ele>
        <time>2021-10-09T10:37:33</time>
      </trkpt>
      <trkpt lat="42.97152" lon="-0.02505">
        <ele>1247.8</ele>
        <time>2021-10-09T10:37:34</time>
      </trkpt>
      <trkpt lat="42.97151" lon="-0.02502">
        <ele>1247.8</ele>
        <time>2021-10-09T10:37:35</time>
      </trkpt>
      <trkpt lat="42.9715" lon="-0.02498">
        <ele>1248</ele>
        <time>2021-10-09T10:37:36</time>
      </trkpt>
      <trkpt lat="42.97151" lon="-0.02495">
        <ele>1248.2</ele>
        <time>2021-10-09T10:37:37</time>
      </trkpt>
      <trkpt lat="42.97154" lon="-0.02494">
        <ele>1248.4</ele>
        <time>2021-10-09T10:37:38</time>
      </trkpt>
      <trkpt lat="42.97156" lon="-0.02495">
        <ele>1248.8</ele>
        <time>2021-10-09T10:37:39</time>
      </trkpt>
      <trkpt lat="42.97158" lon="-0.02497">
        <ele>1249.2</ele>
        <time>2021-10-09T10:37:40</time>
      </trkpt>
      <trkpt lat="42.9716" lon="-0.025">
        <ele>1249.4</ele>
        <time>2021-10-09T10:37:41</time>
      </trkpt>
      <trkpt lat="42.97162" lon="-0.02503">
        <ele>1249.4</ele>
        <time>2021-10-09T10:37:42</time>
      </trkpt>
      <trkpt lat="42.97163" lon="-0.02507">
        <ele>1249.8</ele>
        <time>2021-10-09T10:37:43</time>
      </trkpt>
      <trkpt lat="42.97165" lon="-0.0251">
        <ele>1250</ele>
        <time>2021-10-09T10:37:44</time>
      </trkpt>
      <trkpt lat="42.97167" lon="-0.02513">
        <ele>1250.2</ele>
        <time>2021-10-09T10:37:45</time>
      </trkpt>
      <trkpt lat="42.97169" lon="-0.02515">
        <ele>1250.4</ele>
        <time>2021-10-09T10:37:46</time>
      </trkpt>
      <trkpt lat="42.97171" lon="-0.02518">
        <ele>1250.8</ele>
        <time>2021-10-09T10:37:47</time>
      </trkpt>
      <trkpt lat="42.97173" lon="-0.02521">
        <ele>1250.8</ele>
        <time>2021-10-09T10:37:48</time>
      </trkpt>
      <trkpt lat="42.97175" lon="-0.02523">
        <ele>1251.2</ele>
        <time>2021-10-09T10:37:49</time>
      </trkpt>
      <trkpt lat="42.97177" lon="-0.02526">
        <ele>1251.2</ele>
        <time>2021-10-09T10:37:50</time>
      </trkpt>
      <trkpt lat="42.97179" lon="-0.02528">
        <ele>1251.4</ele>
        <time>2021-10-09T10:37:51</time>
      </trkpt>
      <trkpt lat="42.9718" lon="-0.02531">
        <ele>1251.8</ele>
        <time>2021-10-09T10:37:52</time>
      </trkpt>
      <trkpt lat="42.97182" lon="-0.02534">
        <ele>1252</ele>
        <time>2021-10-09T10:37:53</time>
      </trkpt>
      <trkpt lat="42.97183" lon="-0.02536">
        <ele>1252.4</ele>
        <time>2021-10-09T10:37:54</time>
      </trkpt>
      <trkpt lat="42.97185" lon="-0.02539">
        <ele>1252.6</ele>
        <time>2021-10-09T10:37:55</time>
      </trkpt>
      <trkpt lat="42.97186" lon="-0.02541">
        <ele>1252.6</ele>
        <time>2021-10-09T10:37:56</time>
      </trkpt>
      <trkpt lat="42.97188" lon="-0.02544">
        <ele>1252.6</ele>
        <time>2021-10-09T10:37:57</time>
      </trkpt>
      <trkpt lat="42.97189" lon="-0.02547">
        <ele>1252.8</ele>
        <time>2021-10-09T10:37:58</time>
      </trkpt>
      <trkpt lat="42.9719" lon="-0.0255">
        <ele>1253</ele>
        <time>2021-10-09T10:37:59</time>
      </trkpt>
      <trkpt lat="42.97192" lon="-0.02552">
        <ele>1253.2</ele>
        <time>2021-10-09T10:38:00</time>
      </trkpt>
      <trkpt lat="42.97193" lon="-0.02555">
        <ele>1253.6</ele>
        <time>2021-10-09T10:38:01</time>
      </trkpt>
      <trkpt lat="42.97194" lon="-0.02558">
        <ele>1254</ele>
        <time>2021-10-09T10:38:02</time>
      </trkpt>
      <trkpt lat="42.97196" lon="-0.02561">
        <ele>1254.2</ele>
        <time>2021-10-09T10:38:03</time>
      </trkpt>
      <trkpt lat="42.97197" lon="-0.02563">
        <ele>1254.4</ele>
        <time>2021-10-09T10:38:04</time>
      </trkpt>
      <trkpt lat="42.97198" lon="-0.02566">
        <ele>1254.6</ele>
        <time>2021-10-09T10:38:05</time>
      </trkpt>
      <trkpt lat="42.972" lon="-0.02568">
        <ele>1254.8</ele>
        <time>2021-10-09T10:38:06</time>
      </trkpt>
      <trkpt lat="42.97201" lon="-0.02571">
        <ele>1255</ele>
        <time>2021-10-09T10:38:07</time>
      </trkpt>
      <trkpt lat="42.97203" lon="-0.02574">
        <ele>1255.4</ele>
        <time>2021-10-09T10:38:08</time>
      </trkpt>
      <trkpt lat="42.97204" lon="-0.02576">
        <ele>1255.6</ele>
        <time>2021-10-09T10:38:09</time>
      </trkpt>
      <trkpt lat="42.97206" lon="-0.02578">
        <ele>1256</ele>
        <time>2021-10-09T10:38:10</time>
      </trkpt>
      <trkpt lat="42.97207" lon="-0.02581">
        <ele>1256</ele>
        <time>2021-10-09T10:38:11</time>
      </trkpt>
      <trkpt lat="42.97209" lon="-0.02584">
        <ele>1256.4</ele>
        <time>2021-10-09T10:38:12</time>
      </trkpt>
      <trkpt lat="42.9721" lon="-0.02586">
        <ele>1256.6</ele>
        <time>2021-10-09T10:38:13</time>
      </trkpt>
      <trkpt lat="42.97212" lon="-0.02589">
        <ele>1256.8</ele>
        <time>2021-10-09T10:38:14</time>
      </trkpt>
      <trkpt lat="42.97214" lon="-0.02591">
        <ele>1257</ele>
        <time>2021-10-09T10:38:15</time>
      </trkpt>
      <trkpt lat="42.97215" lon="-0.02594">
        <ele>1257.2</ele>
        <time>2021-10-09T10:38:16</time>
      </trkpt>
      <trkpt lat="42.97217" lon="-0.02597">
        <ele>1257.4</ele>
        <time>2021-10-09T10:38:17</time>
      </trkpt>
      <trkpt lat="42.97219" lon="-0.02599">
        <ele>1257.8</ele>
        <time>2021-10-09T10:38:18</time>
      </trkpt>
      <trkpt lat="42.97221" lon="-0.02601">
        <ele>1258</ele>
        <time>2021-10-09T10:38:19</time>
      </trkpt>
      <trkpt lat="42.97222" lon="-0.02604">
        <ele>1258.2</ele>
        <time>2021-10-09T10:38:20</time>
      </trkpt>
      <trkpt lat="42.97224" lon="-0.02607">
        <ele>1258.4</ele>
        <time>2021-10-09T10:38:21</time>
      </trkpt>
      <trkpt lat="42.97225" lon="-0.02609">
        <ele>1258.8</ele>
        <time>2021-10-09T10:38:22</time>
      </trkpt>
      <trkpt lat="42.97227" lon="-0.02612">
        <ele>1259</ele>
        <time>2021-10-09T10:38:23</time>
      </trkpt>
      <trkpt lat="42.97229" lon="-0.02614">
        <ele>1259</ele>
        <time>2021-10-09T10:38:24</time>
      </trkpt>
      <trkpt lat="42.97231" lon="-0.02617">
        <ele>1259.2</ele>
        <time>2021-10-09T10:38:25</time>
      </trkpt>
      <trkpt lat="42.97233" lon="-0.02619">
        <ele>1259.6</ele>
        <time>2021-10-09T10:38:26</time>
      </trkpt>
      <trkpt lat="42.97235" lon="-0.02622">
        <ele>1259.8</ele>
        <time>2021-10-09T10:38:27</time>
      </trkpt>
      <trkpt lat="42.97237" lon="-0.02624">
        <ele>1260</ele>
        <time>2021-10-09T10:38:28</time>
      </trkpt>
      <trkpt lat="42.97238" lon="-0.02627">
        <ele>1260.2</ele>
        <time>2021-10-09T10:38:29</time>
      </trkpt>
      <trkpt lat="42.9724" lon="-0.0263">
        <ele>1260.6</ele>
        <time>2021-10-09T10:38:30</time>
      </trkpt>
      <trkpt lat="42.97241" lon="-0.02632">
        <ele>1260.6</ele>
        <time>2021-10-09T10:38:31</time>
      </trkpt>
      <trkpt lat="42.97243" lon="-0.02635">
        <ele>1260.6</ele>
        <time>2021-10-09T10:38:32</time>
      </trkpt>
      <trkpt lat="42.97244" lon="-0.02638">
        <ele>1261</ele>
        <time>2021-10-09T10:38:33</time>
      </trkpt>
      <trkpt lat="42.97245" lon="-0.02641">
        <ele>1261.2</ele>
        <time>2021-10-09T10:38:34</time>
      </trkpt>
      <trkpt lat="42.97246" lon="-0.02644">
        <ele>1261.4</ele>
        <time>2021-10-09T10:38:35</time>
      </trkpt>
      <trkpt lat="42.97248" lon="-0.02647">
        <ele>1261.8</ele>
        <time>2021-10-09T10:38:36</time>
      </trkpt>
      <trkpt lat="42.97249" lon="-0.0265">
        <ele>1262</ele>
        <time>2021-10-09T10:38:37</time>
      </trkpt>
      <trkpt lat="42.9725" lon="-0.02653">
        <ele>1262.4</ele>
        <time>2021-10-09T10:38:38</time>
      </trkpt>
      <trkpt lat="42.97252" lon="-0.02655">
        <ele>1262.4</ele>
        <time>2021-10-09T10:38:39</time>
      </trkpt>
      <trkpt lat="42.97253" lon="-0.02658">
        <ele>1262.8</ele>
        <time>2021-10-09T10:38:40</time>
      </trkpt>
      <trkpt lat="42.97255" lon="-0.0266">
        <ele>1263</ele>
        <time>2021-10-09T10:38:41</time>
      </trkpt>
      <trkpt lat="42.97257" lon="-0.02662">
        <ele>1263.2</ele>
        <time>2021-10-09T10:38:42</time>
      </trkpt>
      <trkpt lat="42.97259" lon="-0.02665">
        <ele>1263.2</ele>
        <time>2021-10-09T10:38:43</time>
      </trkpt>
      <trkpt lat="42.97261" lon="-0.02666">
        <ele>1263.4</ele>
        <time>2021-10-09T10:38:44</time>
      </trkpt>
      <trkpt lat="42.97263" lon="-0.02668">
        <ele>1263.8</ele>
        <time>2021-10-09T10:38:45</time>
      </trkpt>
      <trkpt lat="42.97266" lon="-0.02669">
        <ele>1264</ele>
        <time>2021-10-09T10:38:46</time>
      </trkpt>
      <trkpt lat="42.97268" lon="-0.02671">
        <ele>1264.2</ele>
        <time>2021-10-09T10:38:47</time>
      </trkpt>
      <trkpt lat="42.9727" lon="-0.02672">
        <ele>1264.4</ele>
        <time>2021-10-09T10:38:48</time>
      </trkpt>
      <trkpt lat="42.97272" lon="-0.02673">
        <ele>1264.4</ele>
        <time>2021-10-09T10:38:49</time>
      </trkpt>
      <trkpt lat="42.97274" lon="-0.02675">
        <ele>1264.6</ele>
        <time>2021-10-09T10:38:50</time>
      </trkpt>
      <trkpt lat="42.97277" lon="-0.02676">
        <ele>1265</ele>
        <time>2021-10-09T10:38:51</time>
      </trkpt>
      <trkpt lat="42.97279" lon="-0.02678">
        <ele>1265.2</ele>
        <time>2021-10-09T10:38:52</time>
      </trkpt>
      <trkpt lat="42.97281" lon="-0.0268">
        <ele>1265.4</ele>
        <time>2021-10-09T10:38:53</time>
      </trkpt>
      <trkpt lat="42.97282" lon="-0.02682">
        <ele>1265.6</ele>
        <time>2021-10-09T10:38:54</time>
      </trkpt>
      <trkpt lat="42.97284" lon="-0.02685">
        <ele>1265.8</ele>
        <time>2021-10-09T10:38:55</time>
      </trkpt>
      <trkpt lat="42.97286" lon="-0.02687">
        <ele>1266</ele>
        <time>2021-10-09T10:38:56</time>
      </trkpt>
      <trkpt lat="42.97288" lon="-0.02689">
        <ele>1266.2</ele>
        <time>2021-10-09T10:38:57</time>
      </trkpt>
      <trkpt lat="42.97289" lon="-0.02691">
        <ele>1266.4</ele>
        <time>2021-10-09T10:38:58</time>
      </trkpt>
      <trkpt lat="42.97291" lon="-0.02694">
        <ele>1266.6</ele>
        <time>2021-10-09T10:38:59</time>
      </trkpt>
      <trkpt lat="42.97292" lon="-0.02697">
        <ele>1266.8</ele>
        <time>2021-10-09T10:39:00</time>
      </trkpt>
      <trkpt lat="42.97293" lon="-0.027">
        <ele>1267</ele>
        <time>2021-10-09T10:39:01</time>
      </trkpt>
      <trkpt lat="42.97294" lon="-0.02703">
        <ele>1267</ele>
        <time>2021-10-09T10:39:02</time>
      </trkpt>
      <trkpt lat="42.97295" lon="-0.02706">
        <ele>1267.4</ele>
        <time>2021-10-09T10:39:03</time>
      </trkpt>
      <trkpt lat="42.97296" lon="-0.02709">
        <ele>1267.6</ele>
        <time>2021-10-09T10:39:04</time>
      </trkpt>
      <trkpt lat="42.97297" lon="-0.02712">
        <ele>1267.8</ele>
        <time>2021-10-09T10:39:05</time>
      </trkpt>
      <trkpt lat="42.97298" lon="-0.02715">
        <ele>1268</ele>
        <time>2021-10-09T10:39:06</time>
      </trkpt>
      <trkpt lat="42.973" lon="-0.02718">
        <ele>1268.2</ele>
        <time>2021-10-09T10:39:07</time>
      </trkpt>
      <trkpt lat="42.97301" lon="-0.02722">
        <ele>1268.4</ele>
        <time>2021-10-09T10:39:08</time>
      </trkpt>
      <trkpt lat="42.97301" lon="-0.02725">
        <ele>1268.6</ele>
        <time>2021-10-09T10:39:09</time>
      </trkpt>
      <trkpt lat="42.97302" lon="-0.02728">
        <ele>1268.8</ele>
        <time>2021-10-09T10:39:10</time>
      </trkpt>
      <trkpt lat="42.97303" lon="-0.02731">
        <ele>1269</ele>
        <time>2021-10-09T10:39:11</time>
      </trkpt>
      <trkpt lat="42.97304" lon="-0.02734">
        <ele>1269.2</ele>
        <time>2021-10-09T10:39:12</time>
      </trkpt>
      <trkpt lat="42.97305" lon="-0.02737">
        <ele>1269.4</ele>
        <time>2021-10-09T10:39:13</time>
      </trkpt>
      <trkpt lat="42.97306" lon="-0.0274">
        <ele>1269.8</ele>
        <time>2021-10-09T10:39:14</time>
      </trkpt>
      <trkpt lat="42.97307" lon="-0.02743">
        <ele>1270</ele>
        <time>2021-10-09T10:39:15</time>
      </trkpt>
      <trkpt lat="42.97309" lon="-0.02746">
        <ele>1270.2</ele>
        <time>2021-10-09T10:39:16</time>
      </trkpt>
      <trkpt lat="42.9731" lon="-0.02749">
        <ele>1270.4</ele>
        <time>2021-10-09T10:39:17</time>
      </trkpt>
      <trkpt lat="42.97311" lon="-0.02752">
        <ele>1270.6</ele>
        <time>2021-10-09T10:39:18</time>
      </trkpt>
      <trkpt lat="42.97312" lon="-0.02755">
        <ele>1270.8</ele>
        <time>2021-10-09T10:39:19</time>
      </trkpt>
      <trkpt lat="42.97314" lon="-0.02757">
        <ele>1271</ele>
        <time>2021-10-09T10:39:20</time>
      </trkpt>
      <trkpt lat="42.97316" lon="-0.02759">
        <ele>1271.4</ele>
        <time>2021-10-09T10:39:21</time>
      </trkpt>
      <trkpt lat="42.97317" lon="-0.02761">
        <ele>1271.4</ele>
        <time>2021-10-09T10:39:22</time>
      </trkpt>
      <trkpt lat="42.97319" lon="-0.02763">
        <ele>1271.6</ele>
        <time>2021-10-09T10:39:23</time>
      </trkpt>
      <trkpt lat="42.97321" lon="-0.02765">
        <ele>1271.8</ele>
        <time>2021-10-09T10:39:24</time>
      </trkpt>
      <trkpt lat="42.97322" lon="-0.02767">
        <ele>1272</ele>
        <time>2021-10-09T10:39:25</time>
      </trkpt>
      <trkpt lat="42.97324" lon="-0.02768">
        <ele>1272.2</ele>
        <time>2021-10-09T10:39:26</time>
      </trkpt>
      <trkpt lat="42.97326" lon="-0.02769">
        <ele>1272.2</ele>
        <time>2021-10-09T10:39:27</time>
      </trkpt>
      <trkpt lat="42.97327" lon="-0.02769">
        <ele>1272.4</ele>
        <time>2021-10-09T10:39:28</time>
      </trkpt>
      <trkpt lat="42.97328" lon="-0.0277">
        <ele>1272.4</ele>
        <time>2021-10-09T10:39:29</time>
      </trkpt>
      <trkpt lat="42.9733" lon="-0.02769">
        <ele>1272.4</ele>
        <time>2021-10-09T10:39:30</time>
      </trkpt>
      <trkpt lat="42.97331" lon="-0.02767">
        <ele>1272.4</ele>
        <time>2021-10-09T10:39:31</time>
      </trkpt>
      <trkpt lat="42.97331" lon="-0.02765">
        <ele>1272.6</ele>
        <time>2021-10-09T10:39:32</time>
      </trkpt>
      <trkpt lat="42.97332" lon="-0.02762">
        <ele>1272.8</ele>
        <time>2021-10-09T10:39:33</time>
      </trkpt>
      <trkpt lat="42.97334" lon="-0.02763">
        <ele>1272.8</ele>
        <time>2021-10-09T10:39:34</time>
      </trkpt>
      <trkpt lat="42.97335" lon="-0.02765">
        <ele>1272.6</ele>
        <time>2021-10-09T10:39:35</time>
      </trkpt>
      <trkpt lat="42.97334" lon="-0.02768">
        <ele>1272.4</ele>
        <time>2021-10-09T10:39:36</time>
      </trkpt>
      <trkpt lat="42.97333" lon="-0.02769">
        <ele>1272.4</ele>
        <time>2021-10-09T10:39:37</time>
      </trkpt>
      <trkpt lat="42.97333" lon="-0.02769">
        <ele>1272.4</ele>
        <time>2021-10-09T10:39:38</time>
      </trkpt>
      <trkpt lat="42.97333" lon="-0.02769">
        <ele>1272.4</ele>
        <time>2021-10-09T10:39:39</time>
      </trkpt>
      <trkpt lat="42.97333" lon="-0.0277">
        <ele>1272.4</ele>
        <time>2021-10-09T10:39:40</time>
      </trkpt>
      <trkpt lat="42.97333" lon="-0.02769">
        <ele>1272.4</ele>
        <time>2021-10-09T10:39:41</time>
      </trkpt>
      <trkpt lat="42.97333" lon="-0.0277">
        <ele>1272.6</ele>
        <time>2021-10-09T10:39:42</time>
      </trkpt>
      <trkpt lat="42.97333" lon="-0.0277">
        <ele>1272.4</ele>
        <time>2021-10-09T10:39:43</time>
      </trkpt>
      <trkpt lat="42.97333" lon="-0.02771">
        <ele>1272.4</ele>
        <time>2021-10-09T10:39:44</time>
      </trkpt>
      <trkpt lat="42.97333" lon="-0.02771">
        <ele>1272.4</ele>
        <time>2021-10-09T10:39:45</time>
      </trkpt>
      <trkpt lat="42.97324" lon="-0.02753">
        <ele>1275.2</ele>
        <time>2021-10-09T10:53:22</time>
      </trkpt>
      <trkpt lat="42.97323" lon="-0.02751">
        <ele>1275.2</ele>
        <time>2021-10-09T10:53:23</time>
      </trkpt>
      <trkpt lat="42.97323" lon="-0.0275">
        <ele>1275.4</ele>
        <time>2021-10-09T10:53:24</time>
      </trkpt>
      <trkpt lat="42.97322" lon="-0.02748">
        <ele>1275.6</ele>
        <time>2021-10-09T10:53:25</time>
      </trkpt>
      <trkpt lat="42.97322" lon="-0.02746">
        <ele>1275.8</ele>
        <time>2021-10-09T10:53:26</time>
      </trkpt>
      <trkpt lat="42.97322" lon="-0.02744">
        <ele>1276</ele>
        <time>2021-10-09T10:53:27</time>
      </trkpt>
      <trkpt lat="42.97322" lon="-0.02742">
        <ele>1276</ele>
        <time>2021-10-09T10:53:28</time>
      </trkpt>
      <trkpt lat="42.97322" lon="-0.02741">
        <ele>1276.2</ele>
        <time>2021-10-09T10:53:29</time>
      </trkpt>
      <trkpt lat="42.97322" lon="-0.02739">
        <ele>1276.4</ele>
        <time>2021-10-09T10:53:30</time>
      </trkpt>
      <trkpt lat="42.97322" lon="-0.02737">
        <ele>1276.6</ele>
        <time>2021-10-09T10:53:31</time>
      </trkpt>
      <trkpt lat="42.97322" lon="-0.02735">
        <ele>1276.6</ele>
        <time>2021-10-09T10:53:32</time>
      </trkpt>
      <trkpt lat="42.97322" lon="-0.02733">
        <ele>1276.8</ele>
        <time>2021-10-09T10:53:33</time>
      </trkpt>
      <trkpt lat="42.97322" lon="-0.02732">
        <ele>1277</ele>
        <time>2021-10-09T10:53:34</time>
      </trkpt>
      <trkpt lat="42.97322" lon="-0.0273">
        <ele>1277.2</ele>
        <time>2021-10-09T10:53:35</time>
      </trkpt>
      <trkpt lat="42.97322" lon="-0.02728">
        <ele>1277.4</ele>
        <time>2021-10-09T10:53:36</time>
      </trkpt>
      <trkpt lat="42.97323" lon="-0.02726">
        <ele>1277.4</ele>
        <time>2021-10-09T10:53:37</time>
      </trkpt>
      <trkpt lat="42.97323" lon="-0.02724">
        <ele>1277.6</ele>
        <time>2021-10-09T10:53:38</time>
      </trkpt>
      <trkpt lat="42.97323" lon="-0.02723">
        <ele>1277.8</ele>
        <time>2021-10-09T10:53:39</time>
      </trkpt>
      <trkpt lat="42.97323" lon="-0.02721">
        <ele>1278</ele>
        <time>2021-10-09T10:53:40</time>
      </trkpt>
      <trkpt lat="42.97323" lon="-0.02719">
        <ele>1278</ele>
        <time>2021-10-09T10:53:41</time>
      </trkpt>
      <trkpt lat="42.97324" lon="-0.02718">
        <ele>1278.2</ele>
        <time>2021-10-09T10:53:42</time>
      </trkpt>
      <trkpt lat="42.97324" lon="-0.02716">
        <ele>1278.4</ele>
        <time>2021-10-09T10:53:43</time>
      </trkpt>
      <trkpt lat="42.97324" lon="-0.02714">
        <ele>1278.6</ele>
        <time>2021-10-09T10:53:44</time>
      </trkpt>
      <trkpt lat="42.97325" lon="-0.02712">
        <ele>1278.8</ele>
        <time>2021-10-09T10:53:45</time>
      </trkpt>
      <trkpt lat="42.97325" lon="-0.0271">
        <ele>1279</ele>
        <time>2021-10-09T10:53:46</time>
      </trkpt>
      <trkpt lat="42.97326" lon="-0.02709">
        <ele>1279.2</ele>
        <time>2021-10-09T10:53:47</time>
      </trkpt>
      <trkpt lat="42.97326" lon="-0.02707">
        <ele>1279.2</ele>
        <time>2021-10-09T10:53:48</time>
      </trkpt>
      <trkpt lat="42.97326" lon="-0.02705">
        <ele>1279.6</ele>
        <time>2021-10-09T10:53:49</time>
      </trkpt>
      <trkpt lat="42.97327" lon="-0.02703">
        <ele>1279.6</ele>
        <time>2021-10-09T10:53:50</time>
      </trkpt>
      <trkpt lat="42.97327" lon="-0.02701">
        <ele>1279.8</ele>
        <time>2021-10-09T10:53:51</time>
      </trkpt>
      <trkpt lat="42.97327" lon="-0.02699">
        <ele>1280.2</ele>
        <time>2021-10-09T10:53:52</time>
      </trkpt>
      <trkpt lat="42.97327" lon="-0.02697">
        <ele>1280.2</ele>
        <time>2021-10-09T10:53:53</time>
      </trkpt>
      <trkpt lat="42.97328" lon="-0.02696">
        <ele>1280.4</ele>
        <time>2021-10-09T10:53:54</time>
      </trkpt>
      <trkpt lat="42.97328" lon="-0.02694">
        <ele>1280.6</ele>
        <time>2021-10-09T10:53:55</time>
      </trkpt>
      <trkpt lat="42.97328" lon="-0.02692">
        <ele>1280.8</ele>
        <time>2021-10-09T10:53:56</time>
      </trkpt>
      <trkpt lat="42.97328" lon="-0.0269">
        <ele>1281</ele>
        <time>2021-10-09T10:53:57</time>
      </trkpt>
      <trkpt lat="42.97328" lon="-0.02689">
        <ele>1281</ele>
        <time>2021-10-09T10:53:58</time>
      </trkpt>
      <trkpt lat="42.97328" lon="-0.02687">
        <ele>1281.4</ele>
        <time>2021-10-09T10:53:59</time>
      </trkpt>
      <trkpt lat="42.97329" lon="-0.02685">
        <ele>1281.4</ele>
        <time>2021-10-09T10:54:00</time>
      </trkpt>
      <trkpt lat="42.97329" lon="-0.02683">
        <ele>1281.6</ele>
        <time>2021-10-09T10:54:01</time>
      </trkpt>
      <trkpt lat="42.97329" lon="-0.02682">
        <ele>1281.8</ele>
        <time>2021-10-09T10:54:02</time>
      </trkpt>
      <trkpt lat="42.97329" lon="-0.0268">
        <ele>1282</ele>
        <time>2021-10-09T10:54:03</time>
      </trkpt>
      <trkpt lat="42.97329" lon="-0.02678">
        <ele>1282.2</ele>
        <time>2021-10-09T10:54:04</time>
      </trkpt>
      <trkpt lat="42.9733" lon="-0.02676">
        <ele>1282.2</ele>
        <time>2021-10-09T10:54:05</time>
      </trkpt>
      <trkpt lat="42.9733" lon="-0.02675">
        <ele>1282.4</ele>
        <time>2021-10-09T10:54:06</time>
      </trkpt>
      <trkpt lat="42.97329" lon="-0.02673">
        <ele>1282.8</ele>
        <time>2021-10-09T10:54:07</time>
      </trkpt>
      <trkpt lat="42.97329" lon="-0.02671">
        <ele>1282.8</ele>
        <time>2021-10-09T10:54:08</time>
      </trkpt>
      <trkpt lat="42.97329" lon="-0.02669">
        <ele>1283</ele>
        <time>2021-10-09T10:54:09</time>
      </trkpt>
      <trkpt lat="42.97329" lon="-0.02667">
        <ele>1283.2</ele>
        <time>2021-10-09T10:54:10</time>
      </trkpt>
      <trkpt lat="42.97329" lon="-0.02666">
        <ele>1283.4</ele>
        <time>2021-10-09T10:54:11</time>
      </trkpt>
      <trkpt lat="42.97329" lon="-0.02664">
        <ele>1283.4</ele>
        <time>2021-10-09T10:54:12</time>
      </trkpt>
      <trkpt lat="42.97329" lon="-0.02662">
        <ele>1283.6</ele>
        <time>2021-10-09T10:54:13</time>
      </trkpt>
      <trkpt lat="42.97329" lon="-0.0266">
        <ele>1283.8</ele>
        <time>2021-10-09T10:54:14</time>
      </trkpt>
      <trkpt lat="42.97329" lon="-0.02659">
        <ele>1284</ele>
        <time>2021-10-09T10:54:15</time>
      </trkpt>
      <trkpt lat="42.97329" lon="-0.02657">
        <ele>1284.2</ele>
        <time>2021-10-09T10:54:16</time>
      </trkpt>
      <trkpt lat="42.9733" lon="-0.02655">
        <ele>1284.4</ele>
        <time>2021-10-09T10:54:17</time>
      </trkpt>
      <trkpt lat="42.9733" lon="-0.02653">
        <ele>1284.4</ele>
        <time>2021-10-09T10:54:18</time>
      </trkpt>
      <trkpt lat="42.9733" lon="-0.02652">
        <ele>1284.6</ele>
        <time>2021-10-09T10:54:19</time>
      </trkpt>
      <trkpt lat="42.97329" lon="-0.0265">
        <ele>1284.8</ele>
        <time>2021-10-09T10:54:20</time>
      </trkpt>
      <trkpt lat="42.97329" lon="-0.02648">
        <ele>1285</ele>
        <time>2021-10-09T10:54:21</time>
      </trkpt>
      <trkpt lat="42.97329" lon="-0.02647">
        <ele>1285</ele>
        <time>2021-10-09T10:54:22</time>
      </trkpt>
      <trkpt lat="42.97329" lon="-0.02645">
        <ele>1285.2</ele>
        <time>2021-10-09T10:54:23</time>
      </trkpt>
      <trkpt lat="42.97329" lon="-0.02643">
        <ele>1285.4</ele>
        <time>2021-10-09T10:54:24</time>
      </trkpt>
      <trkpt lat="42.97329" lon="-0.02641">
        <ele>1285.6</ele>
        <time>2021-10-09T10:54:25</time>
      </trkpt>
      <trkpt lat="42.97329" lon="-0.02639">
        <ele>1285.8</ele>
        <time>2021-10-09T10:54:26</time>
      </trkpt>
      <trkpt lat="42.97329" lon="-0.02637">
        <ele>1285.8</ele>
        <time>2021-10-09T10:54:27</time>
      </trkpt>
      <trkpt lat="42.97329" lon="-0.02636">
        <ele>1286</ele>
        <time>2021-10-09T10:54:28</time>
      </trkpt>
      <trkpt lat="42.97329" lon="-0.02634">
        <ele>1286.2</ele>
        <time>2021-10-09T10:54:29</time>
      </trkpt>
      <trkpt lat="42.9733" lon="-0.02632">
        <ele>1286.4</ele>
        <time>2021-10-09T10:54:30</time>
      </trkpt>
      <trkpt lat="42.9733" lon="-0.0263">
        <ele>1286.6</ele>
        <time>2021-10-09T10:54:31</time>
      </trkpt>
      <trkpt lat="42.9733" lon="-0.02628">
        <ele>1286.6</ele>
        <time>2021-10-09T10:54:32</time>
      </trkpt>
      <trkpt lat="42.9733" lon="-0.02627">
        <ele>1286.8</ele>
        <time>2021-10-09T10:54:33</time>
      </trkpt>
      <trkpt lat="42.9733" lon="-0.02625">
        <ele>1287.2</ele>
        <time>2021-10-09T10:54:34</time>
      </trkpt>
      <trkpt lat="42.9733" lon="-0.02623">
        <ele>1287.2</ele>
        <time>2021-10-09T10:54:35</time>
      </trkpt>
      <trkpt lat="42.97329" lon="-0.02622">
        <ele>1287.4</ele>
        <time>2021-10-09T10:54:36</time>
      </trkpt>
      <trkpt lat="42.97329" lon="-0.0262">
        <ele>1287.6</ele>
        <time>2021-10-09T10:54:37</time>
      </trkpt>
      <trkpt lat="42.97329" lon="-0.02618">
        <ele>1287.8</ele>
        <time>2021-10-09T10:54:38</time>
      </trkpt>
      <trkpt lat="42.97329" lon="-0.02616">
        <ele>1288</ele>
        <time>2021-10-09T10:54:39</time>
      </trkpt>
      <trkpt lat="42.97329" lon="-0.02614">
        <ele>1288.2</ele>
        <time>2021-10-09T10:54:40</time>
      </trkpt>
      <trkpt lat="42.97329" lon="-0.02612">
        <ele>1288.4</ele>
        <time>2021-10-09T10:54:41</time>
      </trkpt>
      <trkpt lat="42.9733" lon="-0.0261">
        <ele>1288.6</ele>
        <time>2021-10-09T10:54:42</time>
      </trkpt>
      <trkpt lat="42.9733" lon="-0.02608">
        <ele>1288.8</ele>
        <time>2021-10-09T10:54:43</time>
      </trkpt>
      <trkpt lat="42.9733" lon="-0.02606">
        <ele>1288.8</ele>
        <time>2021-10-09T10:54:44</time>
      </trkpt>
      <trkpt lat="42.9733" lon="-0.02604">
        <ele>1289.2</ele>
        <time>2021-10-09T10:54:45</time>
      </trkpt>
      <trkpt lat="42.9733" lon="-0.02602">
        <ele>1289.2</ele>
        <time>2021-10-09T10:54:46</time>
      </trkpt>
      <trkpt lat="42.9733" lon="-0.026">
        <ele>1289.4</ele>
        <time>2021-10-09T10:54:47</time>
      </trkpt>
      <trkpt lat="42.9733" lon="-0.02599">
        <ele>1289.6</ele>
        <time>2021-10-09T10:54:48</time>
      </trkpt>
      <trkpt lat="42.9733" lon="-0.02597">
        <ele>1289.8</ele>
        <time>2021-10-09T10:54:49</time>
      </trkpt>
      <trkpt lat="42.9733" lon="-0.02595">
        <ele>1290</ele>
        <time>2021-10-09T10:54:50</time>
      </trkpt>
      <trkpt lat="42.9733" lon="-0.02593">
        <ele>1290.2</ele>
        <time>2021-10-09T10:54:51</time>
      </trkpt>
      <trkpt lat="42.9733" lon="-0.02591">
        <ele>1290.2</ele>
        <time>2021-10-09T10:54:52</time>
      </trkpt>
      <trkpt lat="42.9733" lon="-0.02589">
        <ele>1290.6</ele>
        <time>2021-10-09T10:54:53</time>
      </trkpt>
      <trkpt lat="42.9733" lon="-0.02587">
        <ele>1290.6</ele>
        <time>2021-10-09T10:54:54</time>
      </trkpt>
      <trkpt lat="42.9733" lon="-0.02585">
        <ele>1290.8</ele>
        <time>2021-10-09T10:54:55</time>
      </trkpt>
      <trkpt lat="42.97329" lon="-0.02584">
        <ele>1291</ele>
        <time>2021-10-09T10:54:56</time>
      </trkpt>
      <trkpt lat="42.97329" lon="-0.02582">
        <ele>1291</ele>
        <time>2021-10-09T10:54:57</time>
      </trkpt>
      <trkpt lat="42.97329" lon="-0.0258">
        <ele>1291.2</ele>
        <time>2021-10-09T10:54:58</time>
      </trkpt>
      <trkpt lat="42.97328" lon="-0.02578">
        <ele>1291.4</ele>
        <time>2021-10-09T10:54:59</time>
      </trkpt>
      <trkpt lat="42.97328" lon="-0.02577">
        <ele>1291.6</ele>
        <time>2021-10-09T10:55:00</time>
      </trkpt>
      <trkpt lat="42.97328" lon="-0.02575">
        <ele>1291.6</ele>
        <time>2021-10-09T10:55:01</time>
      </trkpt>
      <trkpt lat="42.97327" lon="-0.02573">
        <ele>1291.8</ele>
        <time>2021-10-09T10:55:02</time>
      </trkpt>
      <trkpt lat="42.97327" lon="-0.02572">
        <ele>1292</ele>
        <time>2021-10-09T10:55:03</time>
      </trkpt>
      <trkpt lat="42.97327" lon="-0.0257">
        <ele>1292.2</ele>
        <time>2021-10-09T10:55:04</time>
      </trkpt>
      <trkpt lat="42.97326" lon="-0.02568">
        <ele>1292.4</ele>
        <time>2021-10-09T10:55:05</time>
      </trkpt>
      <trkpt lat="42.97326" lon="-0.02566">
        <ele>1292.6</ele>
        <time>2021-10-09T10:55:06</time>
      </trkpt>
      <trkpt lat="42.97325" lon="-0.02564">
        <ele>1292.8</ele>
        <time>2021-10-09T10:55:07</time>
      </trkpt>
      <trkpt lat="42.97325" lon="-0.02562">
        <ele>1293</ele>
        <time>2021-10-09T10:55:08</time>
      </trkpt>
      <trkpt lat="42.97325" lon="-0.0256">
        <ele>1293.2</ele>
        <time>2021-10-09T10:55:09</time>
      </trkpt>
      <trkpt lat="42.97324" lon="-0.02558">
        <ele>1293.4</ele>
        <time>2021-10-09T10:55:10</time>
      </trkpt>
      <trkpt lat="42.97323" lon="-0.02556">
        <ele>1293.6</ele>
        <time>2021-10-09T10:55:11</time>
      </trkpt>
      <trkpt lat="42.97322" lon="-0.02555">
        <ele>1293.6</ele>
        <time>2021-10-09T10:55:12</time>
      </trkpt>
      <trkpt lat="42.97321" lon="-0.02553">
        <ele>1293.8</ele>
        <time>2021-10-09T10:55:13</time>
      </trkpt>
      <trkpt lat="42.97321" lon="-0.02551">
        <ele>1294.2</ele>
        <time>2021-10-09T10:55:14</time>
      </trkpt>
      <trkpt lat="42.9732" lon="-0.02549">
        <ele>1294.2</ele>
        <time>2021-10-09T10:55:15</time>
      </trkpt>
      <trkpt lat="42.97319" lon="-0.02547">
        <ele>1294.4</ele>
        <time>2021-10-09T10:55:16</time>
      </trkpt>
      <trkpt lat="42.97318" lon="-0.02545">
        <ele>1294.6</ele>
        <time>2021-10-09T10:55:17</time>
      </trkpt>
      <trkpt lat="42.97318" lon="-0.02543">
        <ele>1294.6</ele>
        <time>2021-10-09T10:55:18</time>
      </trkpt>
      <trkpt lat="42.97317" lon="-0.02541">
        <ele>1295</ele>
        <time>2021-10-09T10:55:19</time>
      </trkpt>
      <trkpt lat="42.97316" lon="-0.02539">
        <ele>1295.2</ele>
        <time>2021-10-09T10:55:20</time>
      </trkpt>
      <trkpt lat="42.97316" lon="-0.02537">
        <ele>1295.4</ele>
        <time>2021-10-09T10:55:21</time>
      </trkpt>
      <trkpt lat="42.97315" lon="-0.02535">
        <ele>1295.4</ele>
        <time>2021-10-09T10:55:22</time>
      </trkpt>
      <trkpt lat="42.97315" lon="-0.02533">
        <ele>1295.8</ele>
        <time>2021-10-09T10:55:23</time>
      </trkpt>
      <trkpt lat="42.97314" lon="-0.02531">
        <ele>1295.8</ele>
        <time>2021-10-09T10:55:24</time>
      </trkpt>
      <trkpt lat="42.97313" lon="-0.02529">
        <ele>1296</ele>
        <time>2021-10-09T10:55:25</time>
      </trkpt>
      <trkpt lat="42.97313" lon="-0.02527">
        <ele>1296.2</ele>
        <time>2021-10-09T10:55:26</time>
      </trkpt>
      <trkpt lat="42.97313" lon="-0.02524">
        <ele>1296.4</ele>
        <time>2021-10-09T10:55:27</time>
      </trkpt>
      <trkpt lat="42.97313" lon="-0.02522">
        <ele>1296.6</ele>
        <time>2021-10-09T10:55:28</time>
      </trkpt>
      <trkpt lat="42.97312" lon="-0.0252">
        <ele>1296.8</ele>
        <time>2021-10-09T10:55:29</time>
      </trkpt>
      <trkpt lat="42.97311" lon="-0.02517">
        <ele>1297</ele>
        <time>2021-10-09T10:55:30</time>
      </trkpt>
      <trkpt lat="42.9731" lon="-0.02515">
        <ele>1297</ele>
        <time>2021-10-09T10:55:31</time>
      </trkpt>
      <trkpt lat="42.9731" lon="-0.02512">
        <ele>1297.2</ele>
        <time>2021-10-09T10:55:32</time>
      </trkpt>
      <trkpt lat="42.97309" lon="-0.0251">
        <ele>1297.4</ele>
        <time>2021-10-09T10:55:33</time>
      </trkpt>
      <trkpt lat="42.97309" lon="-0.02508">
        <ele>1297.6</ele>
        <time>2021-10-09T10:55:34</time>
      </trkpt>
      <trkpt lat="42.97309" lon="-0.02506">
        <ele>1297.8</ele>
        <time>2021-10-09T10:55:35</time>
      </trkpt>
      <trkpt lat="42.97309" lon="-0.02503">
        <ele>1298</ele>
        <time>2021-10-09T10:55:36</time>
      </trkpt>
      <trkpt lat="42.9731" lon="-0.02501">
        <ele>1298</ele>
        <time>2021-10-09T10:55:37</time>
      </trkpt>
      <trkpt lat="42.9731" lon="-0.02499">
        <ele>1298.2</ele>
        <time>2021-10-09T10:55:38</time>
      </trkpt>
      <trkpt lat="42.9731" lon="-0.02497">
        <ele>1298.4</ele>
        <time>2021-10-09T10:55:39</time>
      </trkpt>
      <trkpt lat="42.9731" lon="-0.02496">
        <ele>1298.4</ele>
        <time>2021-10-09T10:55:40</time>
      </trkpt>
      <trkpt lat="42.97309" lon="-0.02494">
        <ele>1298.6</ele>
        <time>2021-10-09T10:55:41</time>
      </trkpt>
      <trkpt lat="42.97309" lon="-0.02492">
        <ele>1298.8</ele>
        <time>2021-10-09T10:55:42</time>
      </trkpt>
      <trkpt lat="42.97309" lon="-0.02491">
        <ele>1299</ele>
        <time>2021-10-09T10:55:43</time>
      </trkpt>
      <trkpt lat="42.97309" lon="-0.02489">
        <ele>1299</ele>
        <time>2021-10-09T10:55:44</time>
      </trkpt>
      <trkpt lat="42.97309" lon="-0.02487">
        <ele>1299.2</ele>
        <time>2021-10-09T10:55:45</time>
      </trkpt>
      <trkpt lat="42.97309" lon="-0.02484">
        <ele>1299.4</ele>
        <time>2021-10-09T10:55:46</time>
      </trkpt>
      <trkpt lat="42.97309" lon="-0.02482">
        <ele>1299.6</ele>
        <time>2021-10-09T10:55:47</time>
      </trkpt>
      <trkpt lat="42.97309" lon="-0.0248">
        <ele>1299.8</ele>
        <time>2021-10-09T10:55:48</time>
      </trkpt>
      <trkpt lat="42.97308" lon="-0.02478">
        <ele>1299.8</ele>
        <time>2021-10-09T10:55:49</time>
      </trkpt>
      <trkpt lat="42.97308" lon="-0.02476">
        <ele>1300</ele>
        <time>2021-10-09T10:55:50</time>
      </trkpt>
      <trkpt lat="42.97308" lon="-0.02474">
        <ele>1300.2</ele>
        <time>2021-10-09T10:55:51</time>
      </trkpt>
      <trkpt lat="42.97308" lon="-0.02472">
        <ele>1300.4</ele>
        <time>2021-10-09T10:55:52</time>
      </trkpt>
      <trkpt lat="42.97308" lon="-0.0247">
        <ele>1300.4</ele>
        <time>2021-10-09T10:55:53</time>
      </trkpt>
      <trkpt lat="42.97307" lon="-0.02468">
        <ele>1300.6</ele>
        <time>2021-10-09T10:55:54</time>
      </trkpt>
      <trkpt lat="42.97307" lon="-0.02466">
        <ele>1300.8</ele>
        <time>2021-10-09T10:55:55</time>
      </trkpt>
      <trkpt lat="42.97308" lon="-0.02464">
        <ele>1300.8</ele>
        <time>2021-10-09T10:55:56</time>
      </trkpt>
      <trkpt lat="42.97308" lon="-0.02462">
        <ele>1301</ele>
        <time>2021-10-09T10:55:57</time>
      </trkpt>
      <trkpt lat="42.97308" lon="-0.0246">
        <ele>1301.2</ele>
        <time>2021-10-09T10:55:58</time>
      </trkpt>
      <trkpt lat="42.97307" lon="-0.02458">
        <ele>1301.4</ele>
        <time>2021-10-09T10:55:59</time>
      </trkpt>
      <trkpt lat="42.97307" lon="-0.02456">
        <ele>1301.4</ele>
        <time>2021-10-09T10:56:00</time>
      </trkpt>
      <trkpt lat="42.97306" lon="-0.02454">
        <ele>1301.6</ele>
        <time>2021-10-09T10:56:01</time>
      </trkpt>
      <trkpt lat="42.97306" lon="-0.02452">
        <ele>1302</ele>
        <time>2021-10-09T10:56:02</time>
      </trkpt>
      <trkpt lat="42.97306" lon="-0.0245">
        <ele>1302</ele>
        <time>2021-10-09T10:56:03</time>
      </trkpt>
      <trkpt lat="42.97305" lon="-0.02448">
        <ele>1302.2</ele>
        <time>2021-10-09T10:56:04</time>
      </trkpt>
      <trkpt lat="42.97305" lon="-0.02446">
        <ele>1302.2</ele>
        <time>2021-10-09T10:56:05</time>
      </trkpt>
      <trkpt lat="42.97305" lon="-0.02444">
        <ele>1302.4</ele>
        <time>2021-10-09T10:56:06</time>
      </trkpt>
      <trkpt lat="42.97305" lon="-0.02442">
        <ele>1302.8</ele>
        <time>2021-10-09T10:56:07</time>
      </trkpt>
      <trkpt lat="42.97304" lon="-0.0244">
        <ele>1303</ele>
        <time>2021-10-09T10:56:08</time>
      </trkpt>
      <trkpt lat="42.97304" lon="-0.02438">
        <ele>1303</ele>
        <time>2021-10-09T10:56:09</time>
      </trkpt>
      <trkpt lat="42.97304" lon="-0.02436">
        <ele>1303.2</ele>
        <time>2021-10-09T10:56:10</time>
      </trkpt>
      <trkpt lat="42.97304" lon="-0.02434">
        <ele>1303.4</ele>
        <time>2021-10-09T10:56:11</time>
      </trkpt>
      <trkpt lat="42.97303" lon="-0.02432">
        <ele>1303.6</ele>
        <time>2021-10-09T10:56:12</time>
      </trkpt>
      <trkpt lat="42.97303" lon="-0.0243">
        <ele>1303.6</ele>
        <time>2021-10-09T10:56:13</time>
      </trkpt>
      <trkpt lat="42.97302" lon="-0.02428">
        <ele>1304</ele>
        <time>2021-10-09T10:56:14</time>
      </trkpt>
      <trkpt lat="42.97302" lon="-0.02426">
        <ele>1304.2</ele>
        <time>2021-10-09T10:56:15</time>
      </trkpt>
      <trkpt lat="42.97302" lon="-0.02424">
        <ele>1304.4</ele>
        <time>2021-10-09T10:56:16</time>
      </trkpt>
      <trkpt lat="42.97302" lon="-0.02422">
        <ele>1304.4</ele>
        <time>2021-10-09T10:56:17</time>
      </trkpt>
      <trkpt lat="42.97302" lon="-0.0242">
        <ele>1304.6</ele>
        <time>2021-10-09T10:56:18</time>
      </trkpt>
      <trkpt lat="42.97301" lon="-0.02418">
        <ele>1304.8</ele>
        <time>2021-10-09T10:56:19</time>
      </trkpt>
      <trkpt lat="42.97301" lon="-0.02416">
        <ele>1304.8</ele>
        <time>2021-10-09T10:56:20</time>
      </trkpt>
      <trkpt lat="42.973" lon="-0.02415">
        <ele>1305.2</ele>
        <time>2021-10-09T10:56:21</time>
      </trkpt>
      <trkpt lat="42.973" lon="-0.02413">
        <ele>1305.4</ele>
        <time>2021-10-09T10:56:22</time>
      </trkpt>
      <trkpt lat="42.97299" lon="-0.02411">
        <ele>1305.6</ele>
        <time>2021-10-09T10:56:23</time>
      </trkpt>
      <trkpt lat="42.97299" lon="-0.02409">
        <ele>1305.8</ele>
        <time>2021-10-09T10:56:24</time>
      </trkpt>
      <trkpt lat="42.97298" lon="-0.02407">
        <ele>1306</ele>
        <time>2021-10-09T10:56:25</time>
      </trkpt>
      <trkpt lat="42.97298" lon="-0.02406">
        <ele>1306.2</ele>
        <time>2021-10-09T10:56:26</time>
      </trkpt>
      <trkpt lat="42.97298" lon="-0.02404">
        <ele>1306.4</ele>
        <time>2021-10-09T10:56:27</time>
      </trkpt>
      <trkpt lat="42.97297" lon="-0.02402">
        <ele>1306.6</ele>
        <time>2021-10-09T10:56:28</time>
      </trkpt>
      <trkpt lat="42.97297" lon="-0.024">
        <ele>1306.6</ele>
        <time>2021-10-09T10:56:29</time>
      </trkpt>
      <trkpt lat="42.97297" lon="-0.02398">
        <ele>1306.8</ele>
        <time>2021-10-09T10:56:30</time>
      </trkpt>
      <trkpt lat="42.97296" lon="-0.02396">
        <ele>1307</ele>
        <time>2021-10-09T10:56:31</time>
      </trkpt>
      <trkpt lat="42.97296" lon="-0.02394">
        <ele>1307.2</ele>
        <time>2021-10-09T10:56:32</time>
      </trkpt>
      <trkpt lat="42.97295" lon="-0.02393">
        <ele>1307.2</ele>
        <time>2021-10-09T10:56:33</time>
      </trkpt>
      <trkpt lat="42.97295" lon="-0.02391">
        <ele>1307.4</ele>
        <time>2021-10-09T10:56:34</time>
      </trkpt>
      <trkpt lat="42.97294" lon="-0.02389">
        <ele>1307.8</ele>
        <time>2021-10-09T10:56:35</time>
      </trkpt>
      <trkpt lat="42.97294" lon="-0.02387">
        <ele>1307.8</ele>
        <time>2021-10-09T10:56:36</time>
      </trkpt>
      <trkpt lat="42.97294" lon="-0.02386">
        <ele>1308</ele>
        <time>2021-10-09T10:56:37</time>
      </trkpt>
      <trkpt lat="42.97293" lon="-0.02384">
        <ele>1308.2</ele>
        <time>2021-10-09T10:56:38</time>
      </trkpt>
      <trkpt lat="42.97293" lon="-0.02382">
        <ele>1308.4</ele>
        <time>2021-10-09T10:56:39</time>
      </trkpt>
      <trkpt lat="42.97292" lon="-0.02381">
        <ele>1308.4</ele>
        <time>2021-10-09T10:56:40</time>
      </trkpt>
      <trkpt lat="42.97292" lon="-0.02379">
        <ele>1308.6</ele>
        <time>2021-10-09T10:56:41</time>
      </trkpt>
      <trkpt lat="42.97291" lon="-0.02378">
        <ele>1308.8</ele>
        <time>2021-10-09T10:56:42</time>
      </trkpt>
      <trkpt lat="42.97291" lon="-0.02376">
        <ele>1309</ele>
        <time>2021-10-09T10:56:43</time>
      </trkpt>
      <trkpt lat="42.9729" lon="-0.02374">
        <ele>1309</ele>
        <time>2021-10-09T10:56:44</time>
      </trkpt>
      <trkpt lat="42.9729" lon="-0.02372">
        <ele>1309.2</ele>
        <time>2021-10-09T10:56:45</time>
      </trkpt>
      <trkpt lat="42.97289" lon="-0.02371">
        <ele>1309.4</ele>
        <time>2021-10-09T10:56:46</time>
      </trkpt>
      <trkpt lat="42.97289" lon="-0.02369">
        <ele>1309.6</ele>
        <time>2021-10-09T10:56:47</time>
      </trkpt>
      <trkpt lat="42.97289" lon="-0.02367">
        <ele>1309.8</ele>
        <time>2021-10-09T10:56:48</time>
      </trkpt>
      <trkpt lat="42.97288" lon="-0.02366">
        <ele>1309.8</ele>
        <time>2021-10-09T10:56:49</time>
      </trkpt>
      <trkpt lat="42.97288" lon="-0.02364">
        <ele>1310</ele>
        <time>2021-10-09T10:56:50</time>
      </trkpt>
      <trkpt lat="42.97287" lon="-0.02363">
        <ele>1310.2</ele>
        <time>2021-10-09T10:56:51</time>
      </trkpt>
      <trkpt lat="42.97286" lon="-0.02361">
        <ele>1310.4</ele>
        <time>2021-10-09T10:56:52</time>
      </trkpt>
      <trkpt lat="42.97286" lon="-0.02359">
        <ele>1310.6</ele>
        <time>2021-10-09T10:56:53</time>
      </trkpt>
      <trkpt lat="42.97285" lon="-0.02357">
        <ele>1310.6</ele>
        <time>2021-10-09T10:56:54</time>
      </trkpt>
      <trkpt lat="42.97285" lon="-0.02355">
        <ele>1310.8</ele>
        <time>2021-10-09T10:56:55</time>
      </trkpt>
      <trkpt lat="42.97285" lon="-0.02354">
        <ele>1311</ele>
        <time>2021-10-09T10:56:56</time>
      </trkpt>
      <trkpt lat="42.97285" lon="-0.02352">
        <ele>1311.2</ele>
        <time>2021-10-09T10:56:57</time>
      </trkpt>
      <trkpt lat="42.97285" lon="-0.0235">
        <ele>1311.4</ele>
        <time>2021-10-09T10:56:58</time>
      </trkpt>
      <trkpt lat="42.97284" lon="-0.02348">
        <ele>1311.4</ele>
        <time>2021-10-09T10:56:59</time>
      </trkpt>
      <trkpt lat="42.97284" lon="-0.02347">
        <ele>1311.6</ele>
        <time>2021-10-09T10:57:00</time>
      </trkpt>
      <trkpt lat="42.97283" lon="-0.02345">
        <ele>1311.8</ele>
        <time>2021-10-09T10:57:01</time>
      </trkpt>
      <trkpt lat="42.97283" lon="-0.02343">
        <ele>1312</ele>
        <time>2021-10-09T10:57:02</time>
      </trkpt>
      <trkpt lat="42.97282" lon="-0.02341">
        <ele>1312</ele>
        <time>2021-10-09T10:57:03</time>
      </trkpt>
      <trkpt lat="42.97282" lon="-0.02339">
        <ele>1312.2</ele>
        <time>2021-10-09T10:57:04</time>
      </trkpt>
      <trkpt lat="42.97281" lon="-0.02338">
        <ele>1312.4</ele>
        <time>2021-10-09T10:57:05</time>
      </trkpt>
      <trkpt lat="42.97281" lon="-0.02336">
        <ele>1312.6</ele>
        <time>2021-10-09T10:57:06</time>
      </trkpt>
      <trkpt lat="42.9728" lon="-0.02334">
        <ele>1312.6</ele>
        <time>2021-10-09T10:57:07</time>
      </trkpt>
      <trkpt lat="42.9728" lon="-0.02332">
        <ele>1312.8</ele>
        <time>2021-10-09T10:57:08</time>
      </trkpt>
      <trkpt lat="42.9728" lon="-0.0233">
        <ele>1313</ele>
        <time>2021-10-09T10:57:09</time>
      </trkpt>
      <trkpt lat="42.9728" lon="-0.02328">
        <ele>1313.2</ele>
        <time>2021-10-09T10:57:10</time>
      </trkpt>
      <trkpt lat="42.9728" lon="-0.02326">
        <ele>1313.2</ele>
        <time>2021-10-09T10:57:11</time>
      </trkpt>
      <trkpt lat="42.97279" lon="-0.02324">
        <ele>1313.4</ele>
        <time>2021-10-09T10:57:12</time>
      </trkpt>
      <trkpt lat="42.97279" lon="-0.02322">
        <ele>1313.6</ele>
        <time>2021-10-09T10:57:13</time>
      </trkpt>
      <trkpt lat="42.97279" lon="-0.0232">
        <ele>1313.8</ele>
        <time>2021-10-09T10:57:14</time>
      </trkpt>
      <trkpt lat="42.97278" lon="-0.02318">
        <ele>1314</ele>
        <time>2021-10-09T10:57:15</time>
      </trkpt>
      <trkpt lat="42.97278" lon="-0.02316">
        <ele>1314.2</ele>
        <time>2021-10-09T10:57:16</time>
      </trkpt>
      <trkpt lat="42.97278" lon="-0.02314">
        <ele>1314.4</ele>
        <time>2021-10-09T10:57:17</time>
      </trkpt>
      <trkpt lat="42.97278" lon="-0.02312">
        <ele>1314.4</ele>
        <time>2021-10-09T10:57:18</time>
      </trkpt>
      <trkpt lat="42.97277" lon="-0.02311">
        <ele>1314.6</ele>
        <time>2021-10-09T10:57:19</time>
      </trkpt>
      <trkpt lat="42.97277" lon="-0.02309">
        <ele>1314.8</ele>
        <time>2021-10-09T10:57:20</time>
      </trkpt>
      <trkpt lat="42.97276" lon="-0.02307">
        <ele>1315</ele>
        <time>2021-10-09T10:57:21</time>
      </trkpt>
      <trkpt lat="42.97276" lon="-0.02305">
        <ele>1315.2</ele>
        <time>2021-10-09T10:57:22</time>
      </trkpt>
      <trkpt lat="42.97276" lon="-0.02303">
        <ele>1315.2</ele>
        <time>2021-10-09T10:57:23</time>
      </trkpt>
      <trkpt lat="42.97275" lon="-0.02302">
        <ele>1315.4</ele>
        <time>2021-10-09T10:57:24</time>
      </trkpt>
      <trkpt lat="42.97274" lon="-0.023">
        <ele>1315.6</ele>
        <time>2021-10-09T10:57:25</time>
      </trkpt>
      <trkpt lat="42.97274" lon="-0.02298">
        <ele>1315.8</ele>
        <time>2021-10-09T10:57:26</time>
      </trkpt>
      <trkpt lat="42.97274" lon="-0.02296">
        <ele>1316</ele>
        <time>2021-10-09T10:57:27</time>
      </trkpt>
      <trkpt lat="42.97273" lon="-0.02295">
        <ele>1316.2</ele>
        <time>2021-10-09T10:57:28</time>
      </trkpt>
      <trkpt lat="42.97273" lon="-0.02293">
        <ele>1316.4</ele>
        <time>2021-10-09T10:57:29</time>
      </trkpt>
      <trkpt lat="42.97273" lon="-0.02291">
        <ele>1316.6</ele>
        <time>2021-10-09T10:57:30</time>
      </trkpt>
      <trkpt lat="42.97272" lon="-0.02289">
        <ele>1316.6</ele>
        <time>2021-10-09T10:57:31</time>
      </trkpt>
      <trkpt lat="42.97272" lon="-0.02287">
        <ele>1316.8</ele>
        <time>2021-10-09T10:57:32</time>
      </trkpt>
      <trkpt lat="42.97271" lon="-0.02285">
        <ele>1317</ele>
        <time>2021-10-09T10:57:33</time>
      </trkpt>
      <trkpt lat="42.97271" lon="-0.02283">
        <ele>1317.2</ele>
        <time>2021-10-09T10:57:34</time>
      </trkpt>
      <trkpt lat="42.9727" lon="-0.02281">
        <ele>1317.4</ele>
        <time>2021-10-09T10:57:35</time>
      </trkpt>
      <trkpt lat="42.9727" lon="-0.0228">
        <ele>1317.6</ele>
        <time>2021-10-09T10:57:36</time>
      </trkpt>
      <trkpt lat="42.9727" lon="-0.02278">
        <ele>1317.8</ele>
        <time>2021-10-09T10:57:37</time>
      </trkpt>
      <trkpt lat="42.9727" lon="-0.02276">
        <ele>1317.8</ele>
        <time>2021-10-09T10:57:38</time>
      </trkpt>
      <trkpt lat="42.97269" lon="-0.02274">
        <ele>1318.2</ele>
        <time>2021-10-09T10:57:39</time>
      </trkpt>
      <trkpt lat="42.97269" lon="-0.02272">
        <ele>1318.2</ele>
        <time>2021-10-09T10:57:40</time>
      </trkpt>
      <trkpt lat="42.97268" lon="-0.02271">
        <ele>1318.6</ele>
        <time>2021-10-09T10:57:41</time>
      </trkpt>
      <trkpt lat="42.97268" lon="-0.02269">
        <ele>1318.6</ele>
        <time>2021-10-09T10:57:42</time>
      </trkpt>
      <trkpt lat="42.97268" lon="-0.02267">
        <ele>1318.8</ele>
        <time>2021-10-09T10:57:43</time>
      </trkpt>
      <trkpt lat="42.97267" lon="-0.02265">
        <ele>1319</ele>
        <time>2021-10-09T10:57:44</time>
      </trkpt>
      <trkpt lat="42.97267" lon="-0.02263">
        <ele>1319.2</ele>
        <time>2021-10-09T10:57:45</time>
      </trkpt>
      <trkpt lat="42.97266" lon="-0.02261">
        <ele>1319.4</ele>
        <time>2021-10-09T10:57:46</time>
      </trkpt>
      <trkpt lat="42.97266" lon="-0.02259">
        <ele>1319.6</ele>
        <time>2021-10-09T10:57:47</time>
      </trkpt>
      <trkpt lat="42.97266" lon="-0.02258">
        <ele>1319.8</ele>
        <time>2021-10-09T10:57:48</time>
      </trkpt>
      <trkpt lat="42.97265" lon="-0.02256">
        <ele>1320</ele>
        <time>2021-10-09T10:57:49</time>
      </trkpt>
      <trkpt lat="42.97265" lon="-0.02254">
        <ele>1320.2</ele>
        <time>2021-10-09T10:57:50</time>
      </trkpt>
      <trkpt lat="42.97264" lon="-0.02252">
        <ele>1320.4</ele>
        <time>2021-10-09T10:57:51</time>
      </trkpt>
      <trkpt lat="42.97264" lon="-0.0225">
        <ele>1320.6</ele>
        <time>2021-10-09T10:57:52</time>
      </trkpt>
      <trkpt lat="42.97264" lon="-0.02248">
        <ele>1320.8</ele>
        <time>2021-10-09T10:57:53</time>
      </trkpt>
      <trkpt lat="42.97263" lon="-0.02247">
        <ele>1321</ele>
        <time>2021-10-09T10:57:54</time>
      </trkpt>
      <trkpt lat="42.97263" lon="-0.02245">
        <ele>1321.2</ele>
        <time>2021-10-09T10:57:55</time>
      </trkpt>
      <trkpt lat="42.97262" lon="-0.02243">
        <ele>1321.2</ele>
        <time>2021-10-09T10:57:56</time>
      </trkpt>
      <trkpt lat="42.97262" lon="-0.02241">
        <ele>1321.4</ele>
        <time>2021-10-09T10:57:57</time>
      </trkpt>
      <trkpt lat="42.97261" lon="-0.02239">
        <ele>1321.8</ele>
        <time>2021-10-09T10:57:58</time>
      </trkpt>
      <trkpt lat="42.97261" lon="-0.02237">
        <ele>1322</ele>
        <time>2021-10-09T10:57:59</time>
      </trkpt>
      <trkpt lat="42.9726" lon="-0.02235">
        <ele>1322</ele>
        <time>2021-10-09T10:58:00</time>
      </trkpt>
      <trkpt lat="42.9726" lon="-0.02234">
        <ele>1322.2</ele>
        <time>2021-10-09T10:58:01</time>
      </trkpt>
      <trkpt lat="42.9726" lon="-0.02232">
        <ele>1322.4</ele>
        <time>2021-10-09T10:58:02</time>
      </trkpt>
      <trkpt lat="42.97259" lon="-0.0223">
        <ele>1322.6</ele>
        <time>2021-10-09T10:58:03</time>
      </trkpt>
      <trkpt lat="42.97259" lon="-0.02228">
        <ele>1322.8</ele>
        <time>2021-10-09T10:58:04</time>
      </trkpt>
      <trkpt lat="42.97258" lon="-0.02227">
        <ele>1323</ele>
        <time>2021-10-09T10:58:05</time>
      </trkpt>
      <trkpt lat="42.97258" lon="-0.02225">
        <ele>1323.2</ele>
        <time>2021-10-09T10:58:06</time>
      </trkpt>
      <trkpt lat="42.97257" lon="-0.02223">
        <ele>1323.4</ele>
        <time>2021-10-09T10:58:07</time>
      </trkpt>
      <trkpt lat="42.97257" lon="-0.02221">
        <ele>1323.6</ele>
        <time>2021-10-09T10:58:08</time>
      </trkpt>
      <trkpt lat="42.97257" lon="-0.02219">
        <ele>1323.8</ele>
        <time>2021-10-09T10:58:09</time>
      </trkpt>
      <trkpt lat="42.97257" lon="-0.02217">
        <ele>1324</ele>
        <time>2021-10-09T10:58:10</time>
      </trkpt>
      <trkpt lat="42.97256" lon="-0.02215">
        <ele>1324.2</ele>
        <time>2021-10-09T10:58:11</time>
      </trkpt>
      <trkpt lat="42.97255" lon="-0.02213">
        <ele>1324.4</ele>
        <time>2021-10-09T10:58:12</time>
      </trkpt>
      <trkpt lat="42.97255" lon="-0.02212">
        <ele>1324.6</ele>
        <time>2021-10-09T10:58:13</time>
      </trkpt>
      <trkpt lat="42.97254" lon="-0.0221">
        <ele>1324.8</ele>
        <time>2021-10-09T10:58:14</time>
      </trkpt>
      <trkpt lat="42.97254" lon="-0.02208">
        <ele>1325</ele>
        <time>2021-10-09T10:58:15</time>
      </trkpt>
      <trkpt lat="42.97254" lon="-0.02206">
        <ele>1325.2</ele>
        <time>2021-10-09T10:58:16</time>
      </trkpt>
      <trkpt lat="42.97253" lon="-0.02204">
        <ele>1325.4</ele>
        <time>2021-10-09T10:58:17</time>
      </trkpt>
      <trkpt lat="42.97253" lon="-0.02202">
        <ele>1325.4</ele>
        <time>2021-10-09T10:58:18</time>
      </trkpt>
      <trkpt lat="42.97252" lon="-0.022">
        <ele>1325.6</ele>
        <time>2021-10-09T10:58:19</time>
      </trkpt>
      <trkpt lat="42.97252" lon="-0.02198">
        <ele>1325.8</ele>
        <time>2021-10-09T10:58:20</time>
      </trkpt>
      <trkpt lat="42.97252" lon="-0.02196">
        <ele>1325.8</ele>
        <time>2021-10-09T10:58:21</time>
      </trkpt>
      <trkpt lat="42.97251" lon="-0.02194">
        <ele>1326.2</ele>
        <time>2021-10-09T10:58:22</time>
      </trkpt>
      <trkpt lat="42.97251" lon="-0.02192">
        <ele>1326.4</ele>
        <time>2021-10-09T10:58:23</time>
      </trkpt>
      <trkpt lat="42.9725" lon="-0.02191">
        <ele>1326.6</ele>
        <time>2021-10-09T10:58:24</time>
      </trkpt>
      <trkpt lat="42.97249" lon="-0.02189">
        <ele>1327</ele>
        <time>2021-10-09T10:58:25</time>
      </trkpt>
      <trkpt lat="42.97249" lon="-0.02187">
        <ele>1327</ele>
        <time>2021-10-09T10:58:26</time>
      </trkpt>
      <trkpt lat="42.97248" lon="-0.02185">
        <ele>1327.2</ele>
        <time>2021-10-09T10:58:27</time>
      </trkpt>
      <trkpt lat="42.97248" lon="-0.02184">
        <ele>1327.4</ele>
        <time>2021-10-09T10:58:28</time>
      </trkpt>
      <trkpt lat="42.97247" lon="-0.02182">
        <ele>1327.6</ele>
        <time>2021-10-09T10:58:29</time>
      </trkpt>
      <trkpt lat="42.97246" lon="-0.02181">
        <ele>1327.8</ele>
        <time>2021-10-09T10:58:30</time>
      </trkpt>
      <trkpt lat="42.97245" lon="-0.02179">
        <ele>1328</ele>
        <time>2021-10-09T10:58:31</time>
      </trkpt>
      <trkpt lat="42.97244" lon="-0.02178">
        <ele>1328</ele>
        <time>2021-10-09T10:58:32</time>
      </trkpt>
      <trkpt lat="42.97243" lon="-0.02177">
        <ele>1328.2</ele>
        <time>2021-10-09T10:58:33</time>
      </trkpt>
      <trkpt lat="42.97242" lon="-0.02175">
        <ele>1328.6</ele>
        <time>2021-10-09T10:58:34</time>
      </trkpt>
      <trkpt lat="42.97241" lon="-0.02174">
        <ele>1328.6</ele>
        <time>2021-10-09T10:58:35</time>
      </trkpt>
      <trkpt lat="42.9724" lon="-0.02172">
        <ele>1328.8</ele>
        <time>2021-10-09T10:58:36</time>
      </trkpt>
      <trkpt lat="42.97239" lon="-0.02171">
        <ele>1329</ele>
        <time>2021-10-09T10:58:37</time>
      </trkpt>
      <trkpt lat="42.97238" lon="-0.02169">
        <ele>1329.2</ele>
        <time>2021-10-09T10:58:38</time>
      </trkpt>
      <trkpt lat="42.97237" lon="-0.02168">
        <ele>1329.4</ele>
        <time>2021-10-09T10:58:39</time>
      </trkpt>
      <trkpt lat="42.97236" lon="-0.02166">
        <ele>1329.6</ele>
        <time>2021-10-09T10:58:40</time>
      </trkpt>
      <trkpt lat="42.97235" lon="-0.02165">
        <ele>1329.8</ele>
        <time>2021-10-09T10:58:41</time>
      </trkpt>
      <trkpt lat="42.97234" lon="-0.02163">
        <ele>1330</ele>
        <time>2021-10-09T10:58:42</time>
      </trkpt>
      <trkpt lat="42.97233" lon="-0.02162">
        <ele>1330.2</ele>
        <time>2021-10-09T10:58:43</time>
      </trkpt>
      <trkpt lat="42.97232" lon="-0.0216">
        <ele>1330.4</ele>
        <time>2021-10-09T10:58:44</time>
      </trkpt>
      <trkpt lat="42.97231" lon="-0.02159">
        <ele>1330.6</ele>
        <time>2021-10-09T10:58:45</time>
      </trkpt>
      <trkpt lat="42.97229" lon="-0.02157">
        <ele>1330.8</ele>
        <time>2021-10-09T10:58:46</time>
      </trkpt>
      <trkpt lat="42.97228" lon="-0.02156">
        <ele>1331</ele>
        <time>2021-10-09T10:58:47</time>
      </trkpt>
      <trkpt lat="42.97227" lon="-0.02155">
        <ele>1331.2</ele>
        <time>2021-10-09T10:58:48</time>
      </trkpt>
      <trkpt lat="42.97226" lon="-0.02153">
        <ele>1331.4</ele>
        <time>2021-10-09T10:58:49</time>
      </trkpt>
      <trkpt lat="42.97225" lon="-0.02152">
        <ele>1331.6</ele>
        <time>2021-10-09T10:58:50</time>
      </trkpt>
      <trkpt lat="42.97224" lon="-0.0215">
        <ele>1331.8</ele>
        <time>2021-10-09T10:58:51</time>
      </trkpt>
      <trkpt lat="42.97223" lon="-0.02149">
        <ele>1332</ele>
        <time>2021-10-09T10:58:52</time>
      </trkpt>
      <trkpt lat="42.97222" lon="-0.02147">
        <ele>1332</ele>
        <time>2021-10-09T10:58:53</time>
      </trkpt>
      <trkpt lat="42.97221" lon="-0.02146">
        <ele>1332.4</ele>
        <time>2021-10-09T10:58:54</time>
      </trkpt>
      <trkpt lat="42.9722" lon="-0.02144">
        <ele>1332.4</ele>
        <time>2021-10-09T10:58:55</time>
      </trkpt>
      <trkpt lat="42.97219" lon="-0.02143">
        <ele>1332.8</ele>
        <time>2021-10-09T10:58:56</time>
      </trkpt>
      <trkpt lat="42.97218" lon="-0.02141">
        <ele>1332.8</ele>
        <time>2021-10-09T10:58:57</time>
      </trkpt>
      <trkpt lat="42.97218" lon="-0.0214">
        <ele>1333</ele>
        <time>2021-10-09T10:58:58</time>
      </trkpt>
      <trkpt lat="42.97217" lon="-0.02138">
        <ele>1333.2</ele>
        <time>2021-10-09T10:58:59</time>
      </trkpt>
      <trkpt lat="42.97216" lon="-0.02137">
        <ele>1333.4</ele>
        <time>2021-10-09T10:59:00</time>
      </trkpt>
      <trkpt lat="42.97215" lon="-0.02135">
        <ele>1333.6</ele>
        <time>2021-10-09T10:59:01</time>
      </trkpt>
      <trkpt lat="42.97214" lon="-0.02133">
        <ele>1333.8</ele>
        <time>2021-10-09T10:59:02</time>
      </trkpt>
      <trkpt lat="42.97214" lon="-0.02132">
        <ele>1334</ele>
        <time>2021-10-09T10:59:03</time>
      </trkpt>
      <trkpt lat="42.97213" lon="-0.0213">
        <ele>1334.2</ele>
        <time>2021-10-09T10:59:04</time>
      </trkpt>
      <trkpt lat="42.97213" lon="-0.02128">
        <ele>1334.4</ele>
        <time>2021-10-09T10:59:05</time>
      </trkpt>
      <trkpt lat="42.97212" lon="-0.02126">
        <ele>1334.6</ele>
        <time>2021-10-09T10:59:06</time>
      </trkpt>
      <trkpt lat="42.97212" lon="-0.02124">
        <ele>1334.6</ele>
        <time>2021-10-09T10:59:07</time>
      </trkpt>
      <trkpt lat="42.97211" lon="-0.02122">
        <ele>1334.8</ele>
        <time>2021-10-09T10:59:08</time>
      </trkpt>
      <trkpt lat="42.9721" lon="-0.0212">
        <ele>1335</ele>
        <time>2021-10-09T10:59:09</time>
      </trkpt>
      <trkpt lat="42.9721" lon="-0.02118">
        <ele>1335.2</ele>
        <time>2021-10-09T10:59:10</time>
      </trkpt>
      <trkpt lat="42.97209" lon="-0.02116">
        <ele>1335.4</ele>
        <time>2021-10-09T10:59:11</time>
      </trkpt>
      <trkpt lat="42.97209" lon="-0.02115">
        <ele>1335.6</ele>
        <time>2021-10-09T10:59:12</time>
      </trkpt>
      <trkpt lat="42.97208" lon="-0.02113">
        <ele>1335.8</ele>
        <time>2021-10-09T10:59:13</time>
      </trkpt>
      <trkpt lat="42.97208" lon="-0.02111">
        <ele>1336</ele>
        <time>2021-10-09T10:59:14</time>
      </trkpt>
      <trkpt lat="42.97208" lon="-0.02109">
        <ele>1336.2</ele>
        <time>2021-10-09T10:59:15</time>
      </trkpt>
      <trkpt lat="42.97208" lon="-0.02107">
        <ele>1336.2</ele>
        <time>2021-10-09T10:59:16</time>
      </trkpt>
      <trkpt lat="42.97207" lon="-0.02105">
        <ele>1336.4</ele>
        <time>2021-10-09T10:59:17</time>
      </trkpt>
      <trkpt lat="42.97207" lon="-0.02103">
        <ele>1336.6</ele>
        <time>2021-10-09T10:59:18</time>
      </trkpt>
      <trkpt lat="42.97207" lon="-0.02101">
        <ele>1336.8</ele>
        <time>2021-10-09T10:59:19</time>
      </trkpt>
      <trkpt lat="42.97206" lon="-0.02099">
        <ele>1337</ele>
        <time>2021-10-09T10:59:20</time>
      </trkpt>
      <trkpt lat="42.97206" lon="-0.02097">
        <ele>1337.2</ele>
        <time>2021-10-09T10:59:21</time>
      </trkpt>
      <trkpt lat="42.97206" lon="-0.02095">
        <ele>1337.2</ele>
        <time>2021-10-09T10:59:22</time>
      </trkpt>
      <trkpt lat="42.97205" lon="-0.02092">
        <ele>1337.6</ele>
        <time>2021-10-09T10:59:23</time>
      </trkpt>
      <trkpt lat="42.97205" lon="-0.0209">
        <ele>1337.8</ele>
        <time>2021-10-09T10:59:24</time>
      </trkpt>
      <trkpt lat="42.97205" lon="-0.02088">
        <ele>1337.8</ele>
        <time>2021-10-09T10:59:25</time>
      </trkpt>
      <trkpt lat="42.97204" lon="-0.02086">
        <ele>1338.2</ele>
        <time>2021-10-09T10:59:26</time>
      </trkpt>
      <trkpt lat="42.97204" lon="-0.02084">
        <ele>1338.4</ele>
        <time>2021-10-09T10:59:27</time>
      </trkpt>
      <trkpt lat="42.97203" lon="-0.02082">
        <ele>1338.4</ele>
        <time>2021-10-09T10:59:28</time>
      </trkpt>
      <trkpt lat="42.97203" lon="-0.0208">
        <ele>1338.6</ele>
        <time>2021-10-09T10:59:29</time>
      </trkpt>
      <trkpt lat="42.97203" lon="-0.02077">
        <ele>1338.8</ele>
        <time>2021-10-09T10:59:30</time>
      </trkpt>
      <trkpt lat="42.97202" lon="-0.02075">
        <ele>1339</ele>
        <time>2021-10-09T10:59:31</time>
      </trkpt>
      <trkpt lat="42.97202" lon="-0.02072">
        <ele>1339.2</ele>
        <time>2021-10-09T10:59:32</time>
      </trkpt>
      <trkpt lat="42.97202" lon="-0.0207">
        <ele>1339.2</ele>
        <time>2021-10-09T10:59:33</time>
      </trkpt>
      <trkpt lat="42.97202" lon="-0.02067">
        <ele>1339.4</ele>
        <time>2021-10-09T10:59:34</time>
      </trkpt>
      <trkpt lat="42.97201" lon="-0.02065">
        <ele>1339.6</ele>
        <time>2021-10-09T10:59:35</time>
      </trkpt>
      <trkpt lat="42.97201" lon="-0.02062">
        <ele>1339.8</ele>
        <time>2021-10-09T10:59:36</time>
      </trkpt>
      <trkpt lat="42.97201" lon="-0.0206">
        <ele>1339.6</ele>
        <time>2021-10-09T10:59:37</time>
      </trkpt>
      <trkpt lat="42.97201" lon="-0.02057">
        <ele>1340</ele>
        <time>2021-10-09T10:59:38</time>
      </trkpt>
      <trkpt lat="42.972" lon="-0.02054">
        <ele>1340</ele>
        <time>2021-10-09T10:59:39</time>
      </trkpt>
      <trkpt lat="42.972" lon="-0.02052">
        <ele>1340</ele>
        <time>2021-10-09T10:59:40</time>
      </trkpt>
      <trkpt lat="42.972" lon="-0.02049">
        <ele>1340.2</ele>
        <time>2021-10-09T10:59:41</time>
      </trkpt>
      <trkpt lat="42.972" lon="-0.02046">
        <ele>1340.4</ele>
        <time>2021-10-09T10:59:42</time>
      </trkpt>
      <trkpt lat="42.972" lon="-0.02044">
        <ele>1340.4</ele>
        <time>2021-10-09T10:59:43</time>
      </trkpt>
      <trkpt lat="42.97199" lon="-0.02041">
        <ele>1340.4</ele>
        <time>2021-10-09T10:59:44</time>
      </trkpt>
      <trkpt lat="42.97199" lon="-0.02039">
        <ele>1340.6</ele>
        <time>2021-10-09T10:59:45</time>
      </trkpt>
      <trkpt lat="42.97199" lon="-0.02036">
        <ele>1340.8</ele>
        <time>2021-10-09T10:59:46</time>
      </trkpt>
      <trkpt lat="42.97199" lon="-0.02033">
        <ele>1340.8</ele>
        <time>2021-10-09T10:59:47</time>
      </trkpt>
      <trkpt lat="42.97199" lon="-0.02031">
        <ele>1341</ele>
        <time>2021-10-09T10:59:48</time>
      </trkpt>
      <trkpt lat="42.972" lon="-0.02028">
        <ele>1341.2</ele>
        <time>2021-10-09T10:59:49</time>
      </trkpt>
      <trkpt lat="42.972" lon="-0.02025">
        <ele>1341.2</ele>
        <time>2021-10-09T10:59:50</time>
      </trkpt>
      <trkpt lat="42.972" lon="-0.02022">
        <ele>1341.4</ele>
        <time>2021-10-09T10:59:51</time>
      </trkpt>
      <trkpt lat="42.972" lon="-0.0202">
        <ele>1341.4</ele>
        <time>2021-10-09T10:59:52</time>
      </trkpt>
      <trkpt lat="42.972" lon="-0.02017">
        <ele>1341.6</ele>
        <time>2021-10-09T10:59:53</time>
      </trkpt>
      <trkpt lat="42.972" lon="-0.02014">
        <ele>1341.8</ele>
        <time>2021-10-09T10:59:54</time>
      </trkpt>
      <trkpt lat="42.972" lon="-0.02012">
        <ele>1342</ele>
        <time>2021-10-09T10:59:55</time>
      </trkpt>
      <trkpt lat="42.972" lon="-0.02009">
        <ele>1342</ele>
        <time>2021-10-09T10:59:56</time>
      </trkpt>
      <trkpt lat="42.972" lon="-0.02007">
        <ele>1342.2</ele>
        <time>2021-10-09T10:59:57</time>
      </trkpt>
      <trkpt lat="42.972" lon="-0.02004">
        <ele>1342.2</ele>
        <time>2021-10-09T10:59:58</time>
      </trkpt>
      <trkpt lat="42.972" lon="-0.02002">
        <ele>1342.4</ele>
        <time>2021-10-09T10:59:59</time>
      </trkpt>
      <trkpt lat="42.972" lon="-0.01999">
        <ele>1342.6</ele>
        <time>2021-10-09T11:00:00</time>
      </trkpt>
      <trkpt lat="42.972" lon="-0.01996">
        <ele>1342.8</ele>
        <time>2021-10-09T11:00:01</time>
      </trkpt>
      <trkpt lat="42.972" lon="-0.01994">
        <ele>1342.8</ele>
        <time>2021-10-09T11:00:02</time>
      </trkpt>
      <trkpt lat="42.972" lon="-0.01991">
        <ele>1343</ele>
        <time>2021-10-09T11:00:03</time>
      </trkpt>
      <trkpt lat="42.972" lon="-0.01989">
        <ele>1343.2</ele>
        <time>2021-10-09T11:00:04</time>
      </trkpt>
      <trkpt lat="42.972" lon="-0.01986">
        <ele>1343.2</ele>
        <time>2021-10-09T11:00:05</time>
      </trkpt>
      <trkpt lat="42.97199" lon="-0.01984">
        <ele>1343.4</ele>
        <time>2021-10-09T11:00:06</time>
      </trkpt>
      <trkpt lat="42.97199" lon="-0.01981">
        <ele>1343.6</ele>
        <time>2021-10-09T11:00:07</time>
      </trkpt>
      <trkpt lat="42.97199" lon="-0.01979">
        <ele>1343.8</ele>
        <time>2021-10-09T11:00:08</time>
      </trkpt>
      <trkpt lat="42.97198" lon="-0.01977">
        <ele>1343.8</ele>
        <time>2021-10-09T11:00:09</time>
      </trkpt>
      <trkpt lat="42.97198" lon="-0.01975">
        <ele>1344</ele>
        <time>2021-10-09T11:00:10</time>
      </trkpt>
      <trkpt lat="42.97197" lon="-0.01973">
        <ele>1344.2</ele>
        <time>2021-10-09T11:00:11</time>
      </trkpt>
      <trkpt lat="42.97197" lon="-0.01971">
        <ele>1344.4</ele>
        <time>2021-10-09T11:00:12</time>
      </trkpt>
      <trkpt lat="42.97196" lon="-0.01968">
        <ele>1344.6</ele>
        <time>2021-10-09T11:00:13</time>
      </trkpt>
      <trkpt lat="42.97196" lon="-0.01966">
        <ele>1344.6</ele>
        <time>2021-10-09T11:00:14</time>
      </trkpt>
      <trkpt lat="42.97195" lon="-0.01964">
        <ele>1344.8</ele>
        <time>2021-10-09T11:00:15</time>
      </trkpt>
      <trkpt lat="42.97195" lon="-0.01962">
        <ele>1344.8</ele>
        <time>2021-10-09T11:00:16</time>
      </trkpt>
      <trkpt lat="42.97194" lon="-0.01959">
        <ele>1345</ele>
        <time>2021-10-09T11:00:17</time>
      </trkpt>
      <trkpt lat="42.97194" lon="-0.01957">
        <ele>1345.2</ele>
        <time>2021-10-09T11:00:18</time>
      </trkpt>
      <trkpt lat="42.97194" lon="-0.01955">
        <ele>1345.4</ele>
        <time>2021-10-09T11:00:19</time>
      </trkpt>
      <trkpt lat="42.97193" lon="-0.01952">
        <ele>1345.6</ele>
        <time>2021-10-09T11:00:20</time>
      </trkpt>
      <trkpt lat="42.97192" lon="-0.0195">
        <ele>1345.8</ele>
        <time>2021-10-09T11:00:21</time>
      </trkpt>
      <trkpt lat="42.97192" lon="-0.01948">
        <ele>1345.8</ele>
        <time>2021-10-09T11:00:22</time>
      </trkpt>
      <trkpt lat="42.97191" lon="-0.01946">
        <ele>1346</ele>
        <time>2021-10-09T11:00:23</time>
      </trkpt>
      <trkpt lat="42.97191" lon="-0.01944">
        <ele>1346.2</ele>
        <time>2021-10-09T11:00:24</time>
      </trkpt>
      <trkpt lat="42.9719" lon="-0.01943">
        <ele>1346.4</ele>
        <time>2021-10-09T11:00:25</time>
      </trkpt>
      <trkpt lat="42.9719" lon="-0.01941">
        <ele>1346.6</ele>
        <time>2021-10-09T11:00:26</time>
      </trkpt>
      <trkpt lat="42.97189" lon="-0.01939">
        <ele>1346.6</ele>
        <time>2021-10-09T11:00:27</time>
      </trkpt>
      <trkpt lat="42.97189" lon="-0.01937">
        <ele>1347</ele>
        <time>2021-10-09T11:00:28</time>
      </trkpt>
      <trkpt lat="42.97189" lon="-0.01935">
        <ele>1347.2</ele>
        <time>2021-10-09T11:00:29</time>
      </trkpt>
      <trkpt lat="42.97188" lon="-0.01934">
        <ele>1347.4</ele>
        <time>2021-10-09T11:00:30</time>
      </trkpt>
      <trkpt lat="42.97187" lon="-0.01932">
        <ele>1347.4</ele>
        <time>2021-10-09T11:00:31</time>
      </trkpt>
      <trkpt lat="42.97187" lon="-0.0193">
        <ele>1347.8</ele>
        <time>2021-10-09T11:00:32</time>
      </trkpt>
      <trkpt lat="42.97186" lon="-0.01928">
        <ele>1348</ele>
        <time>2021-10-09T11:00:33</time>
      </trkpt>
      <trkpt lat="42.97186" lon="-0.01926">
        <ele>1348.2</ele>
        <time>2021-10-09T11:00:34</time>
      </trkpt>
      <trkpt lat="42.97185" lon="-0.01924">
        <ele>1348.4</ele>
        <time>2021-10-09T11:00:35</time>
      </trkpt>
      <trkpt lat="42.97185" lon="-0.01922">
        <ele>1348.4</ele>
        <time>2021-10-09T11:00:36</time>
      </trkpt>
      <trkpt lat="42.97184" lon="-0.0192">
        <ele>1348.8</ele>
        <time>2021-10-09T11:00:37</time>
      </trkpt>
      <trkpt lat="42.97184" lon="-0.01918">
        <ele>1349</ele>
        <time>2021-10-09T11:00:38</time>
      </trkpt>
      <trkpt lat="42.97184" lon="-0.01916">
        <ele>1349.2</ele>
        <time>2021-10-09T11:00:39</time>
      </trkpt>
      <trkpt lat="42.97183" lon="-0.01914">
        <ele>1349.2</ele>
        <time>2021-10-09T11:00:40</time>
      </trkpt>
      <trkpt lat="42.97183" lon="-0.01912">
        <ele>1349.6</ele>
        <time>2021-10-09T11:00:41</time>
      </trkpt>
      <trkpt lat="42.97183" lon="-0.0191">
        <ele>1349.8</ele>
        <time>2021-10-09T11:00:42</time>
      </trkpt>
      <trkpt lat="42.97182" lon="-0.01908">
        <ele>1350</ele>
        <time>2021-10-09T11:00:43</time>
      </trkpt>
      <trkpt lat="42.97182" lon="-0.01907">
        <ele>1350.2</ele>
        <time>2021-10-09T11:00:44</time>
      </trkpt>
      <trkpt lat="42.97181" lon="-0.01905">
        <ele>1350.4</ele>
        <time>2021-10-09T11:00:45</time>
      </trkpt>
      <trkpt lat="42.9718" lon="-0.01903">
        <ele>1350.6</ele>
        <time>2021-10-09T11:00:46</time>
      </trkpt>
      <trkpt lat="42.9718" lon="-0.01902">
        <ele>1351</ele>
        <time>2021-10-09T11:00:47</time>
      </trkpt>
      <trkpt lat="42.97179" lon="-0.019">
        <ele>1351</ele>
        <time>2021-10-09T11:00:48</time>
      </trkpt>
      <trkpt lat="42.97178" lon="-0.01898">
        <ele>1351.2</ele>
        <time>2021-10-09T11:00:49</time>
      </trkpt>
      <trkpt lat="42.97178" lon="-0.01897">
        <ele>1351.4</ele>
        <time>2021-10-09T11:00:50</time>
      </trkpt>
      <trkpt lat="42.97177" lon="-0.01895">
        <ele>1351.8</ele>
        <time>2021-10-09T11:00:51</time>
      </trkpt>
      <trkpt lat="42.97176" lon="-0.01893">
        <ele>1352</ele>
        <time>2021-10-09T11:00:52</time>
      </trkpt>
      <trkpt lat="42.97176" lon="-0.01892">
        <ele>1352.2</ele>
        <time>2021-10-09T11:00:53</time>
      </trkpt>
      <trkpt lat="42.97175" lon="-0.0189">
        <ele>1352.4</ele>
        <time>2021-10-09T11:00:54</time>
      </trkpt>
      <trkpt lat="42.97175" lon="-0.01888">
        <ele>1352.6</ele>
        <time>2021-10-09T11:00:55</time>
      </trkpt>
      <trkpt lat="42.97175" lon="-0.01886">
        <ele>1352.8</ele>
        <time>2021-10-09T11:00:56</time>
      </trkpt>
      <trkpt lat="42.97174" lon="-0.01884">
        <ele>1353</ele>
        <time>2021-10-09T11:00:57</time>
      </trkpt>
      <trkpt lat="42.97174" lon="-0.01883">
        <ele>1353.2</ele>
        <time>2021-10-09T11:00:58</time>
      </trkpt>
      <trkpt lat="42.97173" lon="-0.01881">
        <ele>1353.4</ele>
        <time>2021-10-09T11:00:59</time>
      </trkpt>
      <trkpt lat="42.97173" lon="-0.01879">
        <ele>1353.8</ele>
        <time>2021-10-09T11:01:00</time>
      </trkpt>
      <trkpt lat="42.97173" lon="-0.01877">
        <ele>1353.8</ele>
        <time>2021-10-09T11:01:01</time>
      </trkpt>
      <trkpt lat="42.97173" lon="-0.01875">
        <ele>1354.2</ele>
        <time>2021-10-09T11:01:02</time>
      </trkpt>
      <trkpt lat="42.97172" lon="-0.01873">
        <ele>1354.4</ele>
        <time>2021-10-09T11:01:03</time>
      </trkpt>
      <trkpt lat="42.97172" lon="-0.01871">
        <ele>1354.6</ele>
        <time>2021-10-09T11:01:04</time>
      </trkpt>
      <trkpt lat="42.97172" lon="-0.01869">
        <ele>1354.6</ele>
        <time>2021-10-09T11:01:05</time>
      </trkpt>
      <trkpt lat="42.97172" lon="-0.01867">
        <ele>1355</ele>
        <time>2021-10-09T11:01:06</time>
      </trkpt>
      <trkpt lat="42.97171" lon="-0.01866">
        <ele>1355.2</ele>
        <time>2021-10-09T11:01:07</time>
      </trkpt>
      <trkpt lat="42.97171" lon="-0.01864">
        <ele>1355.2</ele>
        <time>2021-10-09T11:01:08</time>
      </trkpt>
      <trkpt lat="42.97171" lon="-0.01862">
        <ele>1355.6</ele>
        <time>2021-10-09T11:01:09</time>
      </trkpt>
      <trkpt lat="42.97171" lon="-0.0186">
        <ele>1355.8</ele>
        <time>2021-10-09T11:01:10</time>
      </trkpt>
      <trkpt lat="42.97171" lon="-0.01858">
        <ele>1356</ele>
        <time>2021-10-09T11:01:11</time>
      </trkpt>
      <trkpt lat="42.97171" lon="-0.01856">
        <ele>1356.2</ele>
        <time>2021-10-09T11:01:12</time>
      </trkpt>
      <trkpt lat="42.97171" lon="-0.01853">
        <ele>1356.4</ele>
        <time>2021-10-09T11:01:13</time>
      </trkpt>
      <trkpt lat="42.97171" lon="-0.01851">
        <ele>1356.6</ele>
        <time>2021-10-09T11:01:14</time>
      </trkpt>
      <trkpt lat="42.97171" lon="-0.0185">
        <ele>1356.8</ele>
        <time>2021-10-09T11:01:15</time>
      </trkpt>
      <trkpt lat="42.97171" lon="-0.01848">
        <ele>1357</ele>
        <time>2021-10-09T11:01:16</time>
      </trkpt>
      <trkpt lat="42.97171" lon="-0.01846">
        <ele>1357.2</ele>
        <time>2021-10-09T11:01:17</time>
      </trkpt>
      <trkpt lat="42.97171" lon="-0.01844">
        <ele>1357.4</ele>
        <time>2021-10-09T11:01:18</time>
      </trkpt>
      <trkpt lat="42.97171" lon="-0.01842">
        <ele>1357.6</ele>
        <time>2021-10-09T11:01:19</time>
      </trkpt>
      <trkpt lat="42.97171" lon="-0.0184">
        <ele>1357.8</ele>
        <time>2021-10-09T11:01:20</time>
      </trkpt>
      <trkpt lat="42.97172" lon="-0.01838">
        <ele>1358</ele>
        <time>2021-10-09T11:01:21</time>
      </trkpt>
      <trkpt lat="42.97172" lon="-0.01836">
        <ele>1358.2</ele>
        <time>2021-10-09T11:01:22</time>
      </trkpt>
      <trkpt lat="42.97172" lon="-0.01834">
        <ele>1358.4</ele>
        <time>2021-10-09T11:01:23</time>
      </trkpt>
      <trkpt lat="42.97172" lon="-0.01833">
        <ele>1358.6</ele>
        <time>2021-10-09T11:01:24</time>
      </trkpt>
      <trkpt lat="42.97172" lon="-0.01831">
        <ele>1358.8</ele>
        <time>2021-10-09T11:01:25</time>
      </trkpt>
      <trkpt lat="42.97173" lon="-0.01829">
        <ele>1359</ele>
        <time>2021-10-09T11:01:26</time>
      </trkpt>
      <trkpt lat="42.97173" lon="-0.01827">
        <ele>1359.2</ele>
        <time>2021-10-09T11:01:27</time>
      </trkpt>
      <trkpt lat="42.97174" lon="-0.01825">
        <ele>1359.4</ele>
        <time>2021-10-09T11:01:28</time>
      </trkpt>
      <trkpt lat="42.97174" lon="-0.01824">
        <ele>1359.6</ele>
        <time>2021-10-09T11:01:29</time>
      </trkpt>
      <trkpt lat="42.97175" lon="-0.01822">
        <ele>1359.8</ele>
        <time>2021-10-09T11:01:30</time>
      </trkpt>
      <trkpt lat="42.97176" lon="-0.01821">
        <ele>1360</ele>
        <time>2021-10-09T11:01:31</time>
      </trkpt>
      <trkpt lat="42.97176" lon="-0.01819">
        <ele>1360.2</ele>
        <time>2021-10-09T11:01:32</time>
      </trkpt>
      <trkpt lat="42.97177" lon="-0.01819">
        <ele>1360.4</ele>
        <time>2021-10-09T11:01:33</time>
      </trkpt>
      <trkpt lat="42.97178" lon="-0.01817">
        <ele>1360.4</ele>
        <time>2021-10-09T11:01:34</time>
      </trkpt>
      <trkpt lat="42.97179" lon="-0.01816">
        <ele>1360.8</ele>
        <time>2021-10-09T11:01:35</time>
      </trkpt>
      <trkpt lat="42.97179" lon="-0.01814">
        <ele>1361.2</ele>
        <time>2021-10-09T11:01:36</time>
      </trkpt>
      <trkpt lat="42.9718" lon="-0.01812">
        <ele>1361.2</ele>
        <time>2021-10-09T11:01:37</time>
      </trkpt>
      <trkpt lat="42.97181" lon="-0.0181">
        <ele>1361.6</ele>
        <time>2021-10-09T11:01:38</time>
      </trkpt>
      <trkpt lat="42.97181" lon="-0.01808">
        <ele>1361.8</ele>
        <time>2021-10-09T11:01:39</time>
      </trkpt>
      <trkpt lat="42.97182" lon="-0.01807">
        <ele>1362</ele>
        <time>2021-10-09T11:01:40</time>
      </trkpt>
      <trkpt lat="42.97182" lon="-0.01805">
        <ele>1362.2</ele>
        <time>2021-10-09T11:01:41</time>
      </trkpt>
      <trkpt lat="42.97183" lon="-0.01803">
        <ele>1362.6</ele>
        <time>2021-10-09T11:01:42</time>
      </trkpt>
      <trkpt lat="42.97184" lon="-0.01802">
        <ele>1362.6</ele>
        <time>2021-10-09T11:01:43</time>
      </trkpt>
      <trkpt lat="42.97185" lon="-0.01801">
        <ele>1363</ele>
        <time>2021-10-09T11:01:44</time>
      </trkpt>
      <trkpt lat="42.97186" lon="-0.01799">
        <ele>1363</ele>
        <time>2021-10-09T11:01:45</time>
      </trkpt>
      <trkpt lat="42.97188" lon="-0.01798">
        <ele>1363.4</ele>
        <time>2021-10-09T11:01:46</time>
      </trkpt>
      <trkpt lat="42.97189" lon="-0.01797">
        <ele>1363.6</ele>
        <time>2021-10-09T11:01:47</time>
      </trkpt>
      <trkpt lat="42.9719" lon="-0.01795">
        <ele>1363.6</ele>
        <time>2021-10-09T11:01:48</time>
      </trkpt>
      <trkpt lat="42.97191" lon="-0.01794">
        <ele>1363.8</ele>
        <time>2021-10-09T11:01:49</time>
      </trkpt>
      <trkpt lat="42.97192" lon="-0.01793">
        <ele>1364</ele>
        <time>2021-10-09T11:01:50</time>
      </trkpt>
      <trkpt lat="42.97194" lon="-0.01792">
        <ele>1364.2</ele>
        <time>2021-10-09T11:01:51</time>
      </trkpt>
      <trkpt lat="42.97195" lon="-0.01791">
        <ele>1364.4</ele>
        <time>2021-10-09T11:01:52</time>
      </trkpt>
      <trkpt lat="42.97196" lon="-0.01791">
        <ele>1364.6</ele>
        <time>2021-10-09T11:01:53</time>
      </trkpt>
      <trkpt lat="42.97197" lon="-0.01791">
        <ele>1364.8</ele>
        <time>2021-10-09T11:01:54</time>
      </trkpt>
      <trkpt lat="42.97199" lon="-0.0179">
        <ele>1365.2</ele>
        <time>2021-10-09T11:01:55</time>
      </trkpt>
      <trkpt lat="42.97201" lon="-0.0179">
        <ele>1365.4</ele>
        <time>2021-10-09T11:01:56</time>
      </trkpt>
      <trkpt lat="42.97202" lon="-0.01789">
        <ele>1365.6</ele>
        <time>2021-10-09T11:01:57</time>
      </trkpt>
      <trkpt lat="42.97203" lon="-0.01789">
        <ele>1365.6</ele>
        <time>2021-10-09T11:01:58</time>
      </trkpt>
      <trkpt lat="42.97205" lon="-0.01788">
        <ele>1365.8</ele>
        <time>2021-10-09T11:01:59</time>
      </trkpt>
      <trkpt lat="42.97207" lon="-0.01788">
        <ele>1365.8</ele>
        <time>2021-10-09T11:02:00</time>
      </trkpt>
      <trkpt lat="42.97208" lon="-0.01788">
        <ele>1366</ele>
        <time>2021-10-09T11:02:01</time>
      </trkpt>
      <trkpt lat="42.9721" lon="-0.01788">
        <ele>1366.2</ele>
        <time>2021-10-09T11:02:02</time>
      </trkpt>
      <trkpt lat="42.97211" lon="-0.01788">
        <ele>1366.4</ele>
        <time>2021-10-09T11:02:03</time>
      </trkpt>
      <trkpt lat="42.97213" lon="-0.01789">
        <ele>1366.6</ele>
        <time>2021-10-09T11:02:04</time>
      </trkpt>
      <trkpt lat="42.97214" lon="-0.0179">
        <ele>1366.6</ele>
        <time>2021-10-09T11:02:05</time>
      </trkpt>
      <trkpt lat="42.97216" lon="-0.0179">
        <ele>1366.8</ele>
        <time>2021-10-09T11:02:06</time>
      </trkpt>
      <trkpt lat="42.97217" lon="-0.01791">
        <ele>1367</ele>
        <time>2021-10-09T11:02:07</time>
      </trkpt>
      <trkpt lat="42.97219" lon="-0.01792">
        <ele>1366.8</ele>
        <time>2021-10-09T11:02:08</time>
      </trkpt>
      <trkpt lat="42.9722" lon="-0.01793">
        <ele>1367</ele>
        <time>2021-10-09T11:02:09</time>
      </trkpt>
      <trkpt lat="42.97222" lon="-0.01794">
        <ele>1367.4</ele>
        <time>2021-10-09T11:02:10</time>
      </trkpt>
      <trkpt lat="42.97223" lon="-0.01796">
        <ele>1367.4</ele>
        <time>2021-10-09T11:02:11</time>
      </trkpt>
      <trkpt lat="42.97225" lon="-0.01797">
        <ele>1367.4</ele>
        <time>2021-10-09T11:02:12</time>
      </trkpt>
      <trkpt lat="42.97226" lon="-0.01799">
        <ele>1367.6</ele>
        <time>2021-10-09T11:02:13</time>
      </trkpt>
      <trkpt lat="42.97227" lon="-0.01801">
        <ele>1367.6</ele>
        <time>2021-10-09T11:02:14</time>
      </trkpt>
      <trkpt lat="42.97228" lon="-0.01803">
        <ele>1367.6</ele>
        <time>2021-10-09T11:02:15</time>
      </trkpt>
      <trkpt lat="42.97229" lon="-0.01805">
        <ele>1367.8</ele>
        <time>2021-10-09T11:02:16</time>
      </trkpt>
      <trkpt lat="42.9723" lon="-0.01807">
        <ele>1367.8</ele>
        <time>2021-10-09T11:02:17</time>
      </trkpt>
      <trkpt lat="42.9723" lon="-0.01809">
        <ele>1367.8</ele>
        <time>2021-10-09T11:02:18</time>
      </trkpt>
      <trkpt lat="42.97231" lon="-0.01811">
        <ele>1368</ele>
        <time>2021-10-09T11:02:19</time>
      </trkpt>
      <trkpt lat="42.97231" lon="-0.01814">
        <ele>1368.4</ele>
        <time>2021-10-09T11:02:20</time>
      </trkpt>
      <trkpt lat="42.97232" lon="-0.01816">
        <ele>1368.4</ele>
        <time>2021-10-09T11:02:21</time>
      </trkpt>
      <trkpt lat="42.97232" lon="-0.01818">
        <ele>1368.4</ele>
        <time>2021-10-09T11:02:22</time>
      </trkpt>
      <trkpt lat="42.97233" lon="-0.0182">
        <ele>1368.6</ele>
        <time>2021-10-09T11:02:23</time>
      </trkpt>
      <trkpt lat="42.97233" lon="-0.01823">
        <ele>1368.6</ele>
        <time>2021-10-09T11:02:24</time>
      </trkpt>
      <trkpt lat="42.97234" lon="-0.01825">
        <ele>1368.8</ele>
        <time>2021-10-09T11:02:25</time>
      </trkpt>
      <trkpt lat="42.97234" lon="-0.01827">
        <ele>1369</ele>
        <time>2021-10-09T11:02:26</time>
      </trkpt>
      <trkpt lat="42.97235" lon="-0.0183">
        <ele>1369</ele>
        <time>2021-10-09T11:02:27</time>
      </trkpt>
      <trkpt lat="42.97235" lon="-0.01832">
        <ele>1369.2</ele>
        <time>2021-10-09T11:02:28</time>
      </trkpt>
      <trkpt lat="42.97235" lon="-0.01834">
        <ele>1369.4</ele>
        <time>2021-10-09T11:02:29</time>
      </trkpt>
      <trkpt lat="42.97236" lon="-0.01836">
        <ele>1369.6</ele>
        <time>2021-10-09T11:02:30</time>
      </trkpt>
      <trkpt lat="42.97236" lon="-0.01839">
        <ele>1369.8</ele>
        <time>2021-10-09T11:02:31</time>
      </trkpt>
      <trkpt lat="42.97237" lon="-0.01841">
        <ele>1369.8</ele>
        <time>2021-10-09T11:02:32</time>
      </trkpt>
      <trkpt lat="42.97237" lon="-0.01844">
        <ele>1370.2</ele>
        <time>2021-10-09T11:02:33</time>
      </trkpt>
      <trkpt lat="42.97238" lon="-0.01846">
        <ele>1370.2</ele>
        <time>2021-10-09T11:02:34</time>
      </trkpt>
      <trkpt lat="42.97238" lon="-0.01848">
        <ele>1370.2</ele>
        <time>2021-10-09T11:02:35</time>
      </trkpt>
      <trkpt lat="42.97239" lon="-0.01851">
        <ele>1370.4</ele>
        <time>2021-10-09T11:02:36</time>
      </trkpt>
      <trkpt lat="42.97239" lon="-0.01853">
        <ele>1370.6</ele>
        <time>2021-10-09T11:02:37</time>
      </trkpt>
      <trkpt lat="42.9724" lon="-0.01855">
        <ele>1370.6</ele>
        <time>2021-10-09T11:02:38</time>
      </trkpt>
      <trkpt lat="42.9724" lon="-0.01858">
        <ele>1370.8</ele>
        <time>2021-10-09T11:02:39</time>
      </trkpt>
      <trkpt lat="42.97241" lon="-0.0186">
        <ele>1371.2</ele>
        <time>2021-10-09T11:02:40</time>
      </trkpt>
      <trkpt lat="42.97241" lon="-0.01862">
        <ele>1371.2</ele>
        <time>2021-10-09T11:02:41</time>
      </trkpt>
      <trkpt lat="42.97242" lon="-0.01865">
        <ele>1371.4</ele>
        <time>2021-10-09T11:02:42</time>
      </trkpt>
      <trkpt lat="42.97242" lon="-0.01867">
        <ele>1371.6</ele>
        <time>2021-10-09T11:02:43</time>
      </trkpt>
      <trkpt lat="42.97243" lon="-0.01869">
        <ele>1371.6</ele>
        <time>2021-10-09T11:02:44</time>
      </trkpt>
      <trkpt lat="42.97243" lon="-0.01872">
        <ele>1371.6</ele>
        <time>2021-10-09T11:02:45</time>
      </trkpt>
      <trkpt lat="42.97244" lon="-0.01874">
        <ele>1371.8</ele>
        <time>2021-10-09T11:02:46</time>
      </trkpt>
      <trkpt lat="42.97245" lon="-0.01876">
        <ele>1372</ele>
        <time>2021-10-09T11:02:47</time>
      </trkpt>
      <trkpt lat="42.97245" lon="-0.01878">
        <ele>1372.2</ele>
        <time>2021-10-09T11:02:48</time>
      </trkpt>
      <trkpt lat="42.97246" lon="-0.0188">
        <ele>1372.4</ele>
        <time>2021-10-09T11:02:49</time>
      </trkpt>
      <trkpt lat="42.97247" lon="-0.01882">
        <ele>1372.4</ele>
        <time>2021-10-09T11:02:50</time>
      </trkpt>
      <trkpt lat="42.97248" lon="-0.01885">
        <ele>1372.6</ele>
        <time>2021-10-09T11:02:51</time>
      </trkpt>
      <trkpt lat="42.97249" lon="-0.01886">
        <ele>1373</ele>
        <time>2021-10-09T11:02:52</time>
      </trkpt>
      <trkpt lat="42.9725" lon="-0.01888">
        <ele>1373</ele>
        <time>2021-10-09T11:02:53</time>
      </trkpt>
      <trkpt lat="42.97251" lon="-0.0189">
        <ele>1373.2</ele>
        <time>2021-10-09T11:02:54</time>
      </trkpt>
      <trkpt lat="42.97252" lon="-0.01892">
        <ele>1373.4</ele>
        <time>2021-10-09T11:02:55</time>
      </trkpt>
      <trkpt lat="42.97254" lon="-0.01893">
        <ele>1373.8</ele>
        <time>2021-10-09T11:02:56</time>
      </trkpt>
      <trkpt lat="42.97255" lon="-0.01894">
        <ele>1374</ele>
        <time>2021-10-09T11:02:57</time>
      </trkpt>
      <trkpt lat="42.97256" lon="-0.01896">
        <ele>1374</ele>
        <time>2021-10-09T11:02:58</time>
      </trkpt>
      <trkpt lat="42.97258" lon="-0.01898">
        <ele>1374.4</ele>
        <time>2021-10-09T11:02:59</time>
      </trkpt>
      <trkpt lat="42.97259" lon="-0.01899">
        <ele>1374.4</ele>
        <time>2021-10-09T11:03:00</time>
      </trkpt>
      <trkpt lat="42.9726" lon="-0.019">
        <ele>1374.6</ele>
        <time>2021-10-09T11:03:01</time>
      </trkpt>
      <trkpt lat="42.97262" lon="-0.01901">
        <ele>1374.8</ele>
        <time>2021-10-09T11:03:02</time>
      </trkpt>
      <trkpt lat="42.97263" lon="-0.01903">
        <ele>1375</ele>
        <time>2021-10-09T11:03:03</time>
      </trkpt>
      <trkpt lat="42.97265" lon="-0.01904">
        <ele>1375.2</ele>
        <time>2021-10-09T11:03:04</time>
      </trkpt>
      <trkpt lat="42.97266" lon="-0.01905">
        <ele>1375.2</ele>
        <time>2021-10-09T11:03:05</time>
      </trkpt>
      <trkpt lat="42.97268" lon="-0.01906">
        <ele>1375.4</ele>
        <time>2021-10-09T11:03:06</time>
      </trkpt>
      <trkpt lat="42.97269" lon="-0.01907">
        <ele>1375.6</ele>
        <time>2021-10-09T11:03:07</time>
      </trkpt>
      <trkpt lat="42.97271" lon="-0.01909">
        <ele>1375.8</ele>
        <time>2021-10-09T11:03:08</time>
      </trkpt>
      <trkpt lat="42.97272" lon="-0.0191">
        <ele>1375.8</ele>
        <time>2021-10-09T11:03:09</time>
      </trkpt>
      <trkpt lat="42.97273" lon="-0.01912">
        <ele>1376</ele>
        <time>2021-10-09T11:03:10</time>
      </trkpt>
      <trkpt lat="42.97275" lon="-0.01913">
        <ele>1376.2</ele>
        <time>2021-10-09T11:03:11</time>
      </trkpt>
      <trkpt lat="42.97276" lon="-0.01914">
        <ele>1376.4</ele>
        <time>2021-10-09T11:03:12</time>
      </trkpt>
      <trkpt lat="42.97278" lon="-0.01915">
        <ele>1376.6</ele>
        <time>2021-10-09T11:03:13</time>
      </trkpt>
      <trkpt lat="42.97279" lon="-0.01917">
        <ele>1377</ele>
        <time>2021-10-09T11:03:14</time>
      </trkpt>
      <trkpt lat="42.97281" lon="-0.01918">
        <ele>1377</ele>
        <time>2021-10-09T11:03:15</time>
      </trkpt>
      <trkpt lat="42.97282" lon="-0.01919">
        <ele>1377.2</ele>
        <time>2021-10-09T11:03:16</time>
      </trkpt>
      <trkpt lat="42.97284" lon="-0.0192">
        <ele>1377.2</ele>
        <time>2021-10-09T11:03:17</time>
      </trkpt>
      <trkpt lat="42.97285" lon="-0.01921">
        <ele>1377.6</ele>
        <time>2021-10-09T11:03:18</time>
      </trkpt>
      <trkpt lat="42.97287" lon="-0.01922">
        <ele>1377.6</ele>
        <time>2021-10-09T11:03:19</time>
      </trkpt>
      <trkpt lat="42.97288" lon="-0.01923">
        <ele>1378</ele>
        <time>2021-10-09T11:03:20</time>
      </trkpt>
      <trkpt lat="42.97289" lon="-0.01924">
        <ele>1378.2</ele>
        <time>2021-10-09T11:03:21</time>
      </trkpt>
      <trkpt lat="42.97291" lon="-0.01926">
        <ele>1378.4</ele>
        <time>2021-10-09T11:03:22</time>
      </trkpt>
      <trkpt lat="42.97292" lon="-0.01927">
        <ele>1378.6</ele>
        <time>2021-10-09T11:03:23</time>
      </trkpt>
      <trkpt lat="42.97294" lon="-0.01928">
        <ele>1378.8</ele>
        <time>2021-10-09T11:03:24</time>
      </trkpt>
      <trkpt lat="42.97295" lon="-0.0193">
        <ele>1378.8</ele>
        <time>2021-10-09T11:03:25</time>
      </trkpt>
      <trkpt lat="42.97297" lon="-0.01931">
        <ele>1379</ele>
        <time>2021-10-09T11:03:26</time>
      </trkpt>
      <trkpt lat="42.97298" lon="-0.01932">
        <ele>1379.4</ele>
        <time>2021-10-09T11:03:27</time>
      </trkpt>
      <trkpt lat="42.973" lon="-0.01933">
        <ele>1379.6</ele>
        <time>2021-10-09T11:03:28</time>
      </trkpt>
      <trkpt lat="42.97301" lon="-0.01934">
        <ele>1379.6</ele>
        <time>2021-10-09T11:03:29</time>
      </trkpt>
      <trkpt lat="42.97303" lon="-0.01936">
        <ele>1379.8</ele>
        <time>2021-10-09T11:03:30</time>
      </trkpt>
      <trkpt lat="42.97304" lon="-0.01938">
        <ele>1379.8</ele>
        <time>2021-10-09T11:03:31</time>
      </trkpt>
      <trkpt lat="42.97305" lon="-0.01939">
        <ele>1380</ele>
        <time>2021-10-09T11:03:32</time>
      </trkpt>
      <trkpt lat="42.97307" lon="-0.0194">
        <ele>1380.2</ele>
        <time>2021-10-09T11:03:33</time>
      </trkpt>
      <trkpt lat="42.97309" lon="-0.01941">
        <ele>1380.2</ele>
        <time>2021-10-09T11:03:34</time>
      </trkpt>
      <trkpt lat="42.9731" lon="-0.01942">
        <ele>1380.6</ele>
        <time>2021-10-09T11:03:35</time>
      </trkpt>
      <trkpt lat="42.97312" lon="-0.01943">
        <ele>1380.6</ele>
        <time>2021-10-09T11:03:36</time>
      </trkpt>
      <trkpt lat="42.97314" lon="-0.01944">
        <ele>1380.8</ele>
        <time>2021-10-09T11:03:37</time>
      </trkpt>
      <trkpt lat="42.97315" lon="-0.01945">
        <ele>1380.8</ele>
        <time>2021-10-09T11:03:38</time>
      </trkpt>
      <trkpt lat="42.97317" lon="-0.01946">
        <ele>1381</ele>
        <time>2021-10-09T11:03:39</time>
      </trkpt>
      <trkpt lat="42.97319" lon="-0.01947">
        <ele>1381.2</ele>
        <time>2021-10-09T11:03:40</time>
      </trkpt>
      <trkpt lat="42.97321" lon="-0.01948">
        <ele>1381.2</ele>
        <time>2021-10-09T11:03:41</time>
      </trkpt>
      <trkpt lat="42.97323" lon="-0.01948">
        <ele>1381.2</ele>
        <time>2021-10-09T11:03:42</time>
      </trkpt>
      <trkpt lat="42.97325" lon="-0.01949">
        <ele>1381.4</ele>
        <time>2021-10-09T11:03:43</time>
      </trkpt>
      <trkpt lat="42.97326" lon="-0.0195">
        <ele>1381.4</ele>
        <time>2021-10-09T11:03:44</time>
      </trkpt>
      <trkpt lat="42.97328" lon="-0.0195">
        <ele>1381.6</ele>
        <time>2021-10-09T11:03:45</time>
      </trkpt>
      <trkpt lat="42.9733" lon="-0.0195">
        <ele>1381.8</ele>
        <time>2021-10-09T11:03:46</time>
      </trkpt>
      <trkpt lat="42.97332" lon="-0.01951">
        <ele>1382</ele>
        <time>2021-10-09T11:03:47</time>
      </trkpt>
      <trkpt lat="42.97334" lon="-0.0195">
        <ele>1382</ele>
        <time>2021-10-09T11:03:48</time>
      </trkpt>
      <trkpt lat="42.97336" lon="-0.0195">
        <ele>1382</ele>
        <time>2021-10-09T11:03:49</time>
      </trkpt>
      <trkpt lat="42.97338" lon="-0.0195">
        <ele>1382.2</ele>
        <time>2021-10-09T11:03:50</time>
      </trkpt>
      <trkpt lat="42.9734" lon="-0.0195">
        <ele>1382.4</ele>
        <time>2021-10-09T11:03:51</time>
      </trkpt>
      <trkpt lat="42.97341" lon="-0.01949">
        <ele>1382.4</ele>
        <time>2021-10-09T11:03:52</time>
      </trkpt>
      <trkpt lat="42.97343" lon="-0.01948">
        <ele>1382.6</ele>
        <time>2021-10-09T11:03:53</time>
      </trkpt>
      <trkpt lat="42.97345" lon="-0.01948">
        <ele>1383</ele>
        <time>2021-10-09T11:03:54</time>
      </trkpt>
      <trkpt lat="42.97346" lon="-0.01947">
        <ele>1383</ele>
        <time>2021-10-09T11:03:55</time>
      </trkpt>
      <trkpt lat="42.97348" lon="-0.01946">
        <ele>1383</ele>
        <time>2021-10-09T11:03:56</time>
      </trkpt>
      <trkpt lat="42.9735" lon="-0.01945">
        <ele>1383.4</ele>
        <time>2021-10-09T11:03:57</time>
      </trkpt>
      <trkpt lat="42.97351" lon="-0.01944">
        <ele>1383.4</ele>
        <time>2021-10-09T11:03:58</time>
      </trkpt>
      <trkpt lat="42.97353" lon="-0.01943">
        <ele>1383.6</ele>
        <time>2021-10-09T11:03:59</time>
      </trkpt>
      <trkpt lat="42.97355" lon="-0.01942">
        <ele>1383.6</ele>
        <time>2021-10-09T11:04:00</time>
      </trkpt>
      <trkpt lat="42.97356" lon="-0.01941">
        <ele>1383.8</ele>
        <time>2021-10-09T11:04:01</time>
      </trkpt>
      <trkpt lat="42.97358" lon="-0.01939">
        <ele>1384</ele>
        <time>2021-10-09T11:04:02</time>
      </trkpt>
      <trkpt lat="42.97359" lon="-0.01938">
        <ele>1384</ele>
        <time>2021-10-09T11:04:03</time>
      </trkpt>
      <trkpt lat="42.9736" lon="-0.01937">
        <ele>1384.4</ele>
        <time>2021-10-09T11:04:04</time>
      </trkpt>
      <trkpt lat="42.97362" lon="-0.01935">
        <ele>1384.6</ele>
        <time>2021-10-09T11:04:05</time>
      </trkpt>
      <trkpt lat="42.97363" lon="-0.01934">
        <ele>1384.6</ele>
        <time>2021-10-09T11:04:06</time>
      </trkpt>
      <trkpt lat="42.97365" lon="-0.01933">
        <ele>1384.8</ele>
        <time>2021-10-09T11:04:07</time>
      </trkpt>
      <trkpt lat="42.97366" lon="-0.01931">
        <ele>1385</ele>
        <time>2021-10-09T11:04:08</time>
      </trkpt>
      <trkpt lat="42.97368" lon="-0.0193">
        <ele>1385.2</ele>
        <time>2021-10-09T11:04:09</time>
      </trkpt>
      <trkpt lat="42.97369" lon="-0.01928">
        <ele>1385.4</ele>
        <time>2021-10-09T11:04:10</time>
      </trkpt>
      <trkpt lat="42.9737" lon="-0.01927">
        <ele>1385.6</ele>
        <time>2021-10-09T11:04:11</time>
      </trkpt>
      <trkpt lat="42.97372" lon="-0.01925">
        <ele>1385.8</ele>
        <time>2021-10-09T11:04:12</time>
      </trkpt>
      <trkpt lat="42.97373" lon="-0.01924">
        <ele>1386</ele>
        <time>2021-10-09T11:04:13</time>
      </trkpt>
      <trkpt lat="42.97374" lon="-0.01922">
        <ele>1386.2</ele>
        <time>2021-10-09T11:04:14</time>
      </trkpt>
      <trkpt lat="42.97376" lon="-0.01921">
        <ele>1386.2</ele>
        <time>2021-10-09T11:04:15</time>
      </trkpt>
      <trkpt lat="42.97377" lon="-0.01919">
        <ele>1386.4</ele>
        <time>2021-10-09T11:04:16</time>
      </trkpt>
      <trkpt lat="42.97378" lon="-0.01918">
        <ele>1386.4</ele>
        <time>2021-10-09T11:04:17</time>
      </trkpt>
      <trkpt lat="42.97379" lon="-0.01916">
        <ele>1386.8</ele>
        <time>2021-10-09T11:04:18</time>
      </trkpt>
      <trkpt lat="42.97381" lon="-0.01915">
        <ele>1386.8</ele>
        <time>2021-10-09T11:04:19</time>
      </trkpt>
      <trkpt lat="42.97382" lon="-0.01913">
        <ele>1387.2</ele>
        <time>2021-10-09T11:04:20</time>
      </trkpt>
      <trkpt lat="42.97383" lon="-0.01911">
        <ele>1387.4</ele>
        <time>2021-10-09T11:04:21</time>
      </trkpt>
      <trkpt lat="42.97384" lon="-0.0191">
        <ele>1387.4</ele>
        <time>2021-10-09T11:04:22</time>
      </trkpt>
      <trkpt lat="42.97385" lon="-0.01908">
        <ele>1387.6</ele>
        <time>2021-10-09T11:04:23</time>
      </trkpt>
      <trkpt lat="42.97386" lon="-0.01906">
        <ele>1387.8</ele>
        <time>2021-10-09T11:04:24</time>
      </trkpt>
      <trkpt lat="42.97387" lon="-0.01904">
        <ele>1388</ele>
        <time>2021-10-09T11:04:25</time>
      </trkpt>
      <trkpt lat="42.97389" lon="-0.01903">
        <ele>1388</ele>
        <time>2021-10-09T11:04:26</time>
      </trkpt>
      <trkpt lat="42.9739" lon="-0.01901">
        <ele>1388.2</ele>
        <time>2021-10-09T11:04:27</time>
      </trkpt>
      <trkpt lat="42.97391" lon="-0.01899">
        <ele>1388.6</ele>
        <time>2021-10-09T11:04:28</time>
      </trkpt>
      <trkpt lat="42.97392" lon="-0.01898">
        <ele>1388.6</ele>
        <time>2021-10-09T11:04:29</time>
      </trkpt>
      <trkpt lat="42.97393" lon="-0.01896">
        <ele>1388.8</ele>
        <time>2021-10-09T11:04:30</time>
      </trkpt>
      <trkpt lat="42.97394" lon="-0.01894">
        <ele>1388.8</ele>
        <time>2021-10-09T11:04:31</time>
      </trkpt>
      <trkpt lat="42.97394" lon="-0.01892">
        <ele>1389</ele>
        <time>2021-10-09T11:04:32</time>
      </trkpt>
      <trkpt lat="42.97395" lon="-0.0189">
        <ele>1389.2</ele>
        <time>2021-10-09T11:04:33</time>
      </trkpt>
      <trkpt lat="42.97396" lon="-0.01888">
        <ele>1389.4</ele>
        <time>2021-10-09T11:04:34</time>
      </trkpt>
      <trkpt lat="42.97397" lon="-0.01886">
        <ele>1389.6</ele>
        <time>2021-10-09T11:04:35</time>
      </trkpt>
      <trkpt lat="42.97398" lon="-0.01884">
        <ele>1389.6</ele>
        <time>2021-10-09T11:04:36</time>
      </trkpt>
      <trkpt lat="42.97399" lon="-0.01882">
        <ele>1389.8</ele>
        <time>2021-10-09T11:04:37</time>
      </trkpt>
      <trkpt lat="42.974" lon="-0.0188">
        <ele>1390.2</ele>
        <time>2021-10-09T11:04:38</time>
      </trkpt>
      <trkpt lat="42.974" lon="-0.01878">
        <ele>1390.4</ele>
        <time>2021-10-09T11:04:39</time>
      </trkpt>
      <trkpt lat="42.97401" lon="-0.01876">
        <ele>1390.4</ele>
        <time>2021-10-09T11:04:40</time>
      </trkpt>
      <trkpt lat="42.97401" lon="-0.01874">
        <ele>1390.6</ele>
        <time>2021-10-09T11:04:41</time>
      </trkpt>
      <trkpt lat="42.97402" lon="-0.01872">
        <ele>1390.8</ele>
        <time>2021-10-09T11:04:42</time>
      </trkpt>
      <trkpt lat="42.97403" lon="-0.0187">
        <ele>1391</ele>
        <time>2021-10-09T11:04:43</time>
      </trkpt>
      <trkpt lat="42.97404" lon="-0.01868">
        <ele>1391.2</ele>
        <time>2021-10-09T11:04:44</time>
      </trkpt>
      <trkpt lat="42.97404" lon="-0.01866">
        <ele>1391.4</ele>
        <time>2021-10-09T11:04:45</time>
      </trkpt>
      <trkpt lat="42.97404" lon="-0.01864">
        <ele>1391.6</ele>
        <time>2021-10-09T11:04:46</time>
      </trkpt>
      <trkpt lat="42.97405" lon="-0.01862">
        <ele>1391.8</ele>
        <time>2021-10-09T11:04:47</time>
      </trkpt>
      <trkpt lat="42.97406" lon="-0.0186">
        <ele>1392</ele>
        <time>2021-10-09T11:04:48</time>
      </trkpt>
      <trkpt lat="42.97406" lon="-0.01858">
        <ele>1392.2</ele>
        <time>2021-10-09T11:04:49</time>
      </trkpt>
      <trkpt lat="42.97407" lon="-0.01856">
        <ele>1392.4</ele>
        <time>2021-10-09T11:04:50</time>
      </trkpt>
      <trkpt lat="42.97408" lon="-0.01854">
        <ele>1392.4</ele>
        <time>2021-10-09T11:04:51</time>
      </trkpt>
      <trkpt lat="42.97408" lon="-0.01852">
        <ele>1392.6</ele>
        <time>2021-10-09T11:04:52</time>
      </trkpt>
      <trkpt lat="42.97409" lon="-0.0185">
        <ele>1392.8</ele>
        <time>2021-10-09T11:04:53</time>
      </trkpt>
      <trkpt lat="42.97409" lon="-0.01848">
        <ele>1393.2</ele>
        <time>2021-10-09T11:04:54</time>
      </trkpt>
      <trkpt lat="42.9741" lon="-0.01846">
        <ele>1393.4</ele>
        <time>2021-10-09T11:04:55</time>
      </trkpt>
      <trkpt lat="42.97411" lon="-0.01844">
        <ele>1393.6</ele>
        <time>2021-10-09T11:04:56</time>
      </trkpt>
      <trkpt lat="42.97411" lon="-0.01842">
        <ele>1393.8</ele>
        <time>2021-10-09T11:04:57</time>
      </trkpt>
      <trkpt lat="42.97412" lon="-0.0184">
        <ele>1393.8</ele>
        <time>2021-10-09T11:04:58</time>
      </trkpt>
      <trkpt lat="42.97412" lon="-0.01838">
        <ele>1394.2</ele>
        <time>2021-10-09T11:04:59</time>
      </trkpt>
      <trkpt lat="42.97413" lon="-0.01836">
        <ele>1394.2</ele>
        <time>2021-10-09T11:05:00</time>
      </trkpt>
      <trkpt lat="42.97414" lon="-0.01834">
        <ele>1394.6</ele>
        <time>2021-10-09T11:05:01</time>
      </trkpt>
      <trkpt lat="42.97415" lon="-0.01832">
        <ele>1394.6</ele>
        <time>2021-10-09T11:05:02</time>
      </trkpt>
      <trkpt lat="42.97416" lon="-0.01831">
        <ele>1394.8</ele>
        <time>2021-10-09T11:05:03</time>
      </trkpt>
      <trkpt lat="42.97416" lon="-0.01829">
        <ele>1395</ele>
        <time>2021-10-09T11:05:04</time>
      </trkpt>
      <trkpt lat="42.97417" lon="-0.01827">
        <ele>1395.2</ele>
        <time>2021-10-09T11:05:05</time>
      </trkpt>
      <trkpt lat="42.97418" lon="-0.01825">
        <ele>1395.4</ele>
        <time>2021-10-09T11:05:06</time>
      </trkpt>
      <trkpt lat="42.97419" lon="-0.01823">
        <ele>1395.6</ele>
        <time>2021-10-09T11:05:07</time>
      </trkpt>
      <trkpt lat="42.9742" lon="-0.01821">
        <ele>1395.6</ele>
        <time>2021-10-09T11:05:08</time>
      </trkpt>
      <trkpt lat="42.97421" lon="-0.01819">
        <ele>1395.8</ele>
        <time>2021-10-09T11:05:09</time>
      </trkpt>
      <trkpt lat="42.97422" lon="-0.01818">
        <ele>1395.8</ele>
        <time>2021-10-09T11:05:10</time>
      </trkpt>
      <trkpt lat="42.97423" lon="-0.01816">
        <ele>1396.2</ele>
        <time>2021-10-09T11:05:11</time>
      </trkpt>
      <trkpt lat="42.97424" lon="-0.01814">
        <ele>1396.2</ele>
        <time>2021-10-09T11:05:12</time>
      </trkpt>
      <trkpt lat="42.97425" lon="-0.01813">
        <ele>1396.4</ele>
        <time>2021-10-09T11:05:13</time>
      </trkpt>
      <trkpt lat="42.97427" lon="-0.01811">
        <ele>1396.4</ele>
        <time>2021-10-09T11:05:14</time>
      </trkpt>
      <trkpt lat="42.97428" lon="-0.0181">
        <ele>1396.6</ele>
        <time>2021-10-09T11:05:15</time>
      </trkpt>
      <trkpt lat="42.97429" lon="-0.01809">
        <ele>1396.8</ele>
        <time>2021-10-09T11:05:16</time>
      </trkpt>
      <trkpt lat="42.97431" lon="-0.01807">
        <ele>1397</ele>
        <time>2021-10-09T11:05:17</time>
      </trkpt>
      <trkpt lat="42.97432" lon="-0.01806">
        <ele>1397.2</ele>
        <time>2021-10-09T11:05:18</time>
      </trkpt>
      <trkpt lat="42.97434" lon="-0.01805">
        <ele>1397.4</ele>
        <time>2021-10-09T11:05:19</time>
      </trkpt>
      <trkpt lat="42.97435" lon="-0.01804">
        <ele>1397.6</ele>
        <time>2021-10-09T11:05:20</time>
      </trkpt>
      <trkpt lat="42.97436" lon="-0.01802">
        <ele>1397.6</ele>
        <time>2021-10-09T11:05:21</time>
      </trkpt>
      <trkpt lat="42.97438" lon="-0.01801">
        <ele>1397.6</ele>
        <time>2021-10-09T11:05:22</time>
      </trkpt>
      <trkpt lat="42.97439" lon="-0.018">
        <ele>1398</ele>
        <time>2021-10-09T11:05:23</time>
      </trkpt>
      <trkpt lat="42.97441" lon="-0.01799">
        <ele>1398.2</ele>
        <time>2021-10-09T11:05:24</time>
      </trkpt>
      <trkpt lat="42.97442" lon="-0.01797">
        <ele>1398.2</ele>
        <time>2021-10-09T11:05:25</time>
      </trkpt>
      <trkpt lat="42.97443" lon="-0.01796">
        <ele>1398.4</ele>
        <time>2021-10-09T11:05:26</time>
      </trkpt>
      <trkpt lat="42.97445" lon="-0.01795">
        <ele>1398.6</ele>
        <time>2021-10-09T11:05:27</time>
      </trkpt>
      <trkpt lat="42.97446" lon="-0.01794">
        <ele>1398.8</ele>
        <time>2021-10-09T11:05:28</time>
      </trkpt>
      <trkpt lat="42.97448" lon="-0.01793">
        <ele>1398.8</ele>
        <time>2021-10-09T11:05:29</time>
      </trkpt>
      <trkpt lat="42.9745" lon="-0.01793">
        <ele>1399</ele>
        <time>2021-10-09T11:05:30</time>
      </trkpt>
      <trkpt lat="42.97451" lon="-0.01792">
        <ele>1399.4</ele>
        <time>2021-10-09T11:05:31</time>
      </trkpt>
      <trkpt lat="42.97453" lon="-0.01791">
        <ele>1399.4</ele>
        <time>2021-10-09T11:05:32</time>
      </trkpt>
      <trkpt lat="42.97454" lon="-0.0179">
        <ele>1399.6</ele>
        <time>2021-10-09T11:05:33</time>
      </trkpt>
      <trkpt lat="42.97456" lon="-0.01789">
        <ele>1399.6</ele>
        <time>2021-10-09T11:05:34</time>
      </trkpt>
      <trkpt lat="42.97457" lon="-0.01788">
        <ele>1399.8</ele>
        <time>2021-10-09T11:05:35</time>
      </trkpt>
      <trkpt lat="42.97459" lon="-0.01787">
        <ele>1400</ele>
        <time>2021-10-09T11:05:36</time>
      </trkpt>
      <trkpt lat="42.9746" lon="-0.01786">
        <ele>1400.2</ele>
        <time>2021-10-09T11:05:37</time>
      </trkpt>
      <trkpt lat="42.97462" lon="-0.01785">
        <ele>1400.2</ele>
        <time>2021-10-09T11:05:38</time>
      </trkpt>
      <trkpt lat="42.97463" lon="-0.01784">
        <ele>1400.6</ele>
        <time>2021-10-09T11:05:39</time>
      </trkpt>
      <trkpt lat="42.97465" lon="-0.01783">
        <ele>1400.6</ele>
        <time>2021-10-09T11:05:40</time>
      </trkpt>
      <trkpt lat="42.97466" lon="-0.01782">
        <ele>1400.8</ele>
        <time>2021-10-09T11:05:41</time>
      </trkpt>
      <trkpt lat="42.97468" lon="-0.01781">
        <ele>1400.8</ele>
        <time>2021-10-09T11:05:42</time>
      </trkpt>
      <trkpt lat="42.97469" lon="-0.0178">
        <ele>1401</ele>
        <time>2021-10-09T11:05:43</time>
      </trkpt>
      <trkpt lat="42.97471" lon="-0.01779">
        <ele>1401.2</ele>
        <time>2021-10-09T11:05:44</time>
      </trkpt>
      <trkpt lat="42.97472" lon="-0.01777">
        <ele>1401.2</ele>
        <time>2021-10-09T11:05:45</time>
      </trkpt>
      <trkpt lat="42.97474" lon="-0.01777">
        <ele>1401.2</ele>
        <time>2021-10-09T11:05:46</time>
      </trkpt>
      <trkpt lat="42.97475" lon="-0.01776">
        <ele>1401.6</ele>
        <time>2021-10-09T11:05:47</time>
      </trkpt>
      <trkpt lat="42.97477" lon="-0.01775">
        <ele>1401.8</ele>
        <time>2021-10-09T11:05:48</time>
      </trkpt>
      <trkpt lat="42.97479" lon="-0.01774">
        <ele>1401.8</ele>
        <time>2021-10-09T11:05:49</time>
      </trkpt>
      <trkpt lat="42.9748" lon="-0.01773">
        <ele>1401.8</ele>
        <time>2021-10-09T11:05:50</time>
      </trkpt>
      <trkpt lat="42.97482" lon="-0.01772">
        <ele>1402</ele>
        <time>2021-10-09T11:05:51</time>
      </trkpt>
      <trkpt lat="42.97483" lon="-0.01772">
        <ele>1402.2</ele>
        <time>2021-10-09T11:05:52</time>
      </trkpt>
      <trkpt lat="42.97485" lon="-0.01771">
        <ele>1402.6</ele>
        <time>2021-10-09T11:05:53</time>
      </trkpt>
      <trkpt lat="42.97487" lon="-0.0177">
        <ele>1402.6</ele>
        <time>2021-10-09T11:05:54</time>
      </trkpt>
      <trkpt lat="42.97488" lon="-0.01769">
        <ele>1402.4</ele>
        <time>2021-10-09T11:05:55</time>
      </trkpt>
      <trkpt lat="42.9749" lon="-0.01768">
        <ele>1402.6</ele>
        <time>2021-10-09T11:05:56</time>
      </trkpt>
      <trkpt lat="42.97491" lon="-0.01767">
        <ele>1402.8</ele>
        <time>2021-10-09T11:05:57</time>
      </trkpt>
      <trkpt lat="42.97492" lon="-0.01766">
        <ele>1403</ele>
        <time>2021-10-09T11:05:58</time>
      </trkpt>
      <trkpt lat="42.97494" lon="-0.01764">
        <ele>1403</ele>
        <time>2021-10-09T11:05:59</time>
      </trkpt>
      <trkpt lat="42.97495" lon="-0.01763">
        <ele>1403</ele>
        <time>2021-10-09T11:06:00</time>
      </trkpt>
      <trkpt lat="42.97497" lon="-0.01762">
        <ele>1403.4</ele>
        <time>2021-10-09T11:06:01</time>
      </trkpt>
      <trkpt lat="42.97499" lon="-0.01761">
        <ele>1403.4</ele>
        <time>2021-10-09T11:06:02</time>
      </trkpt>
      <trkpt lat="42.975" lon="-0.0176">
        <ele>1403.6</ele>
        <time>2021-10-09T11:06:03</time>
      </trkpt>
      <trkpt lat="42.97502" lon="-0.01759">
        <ele>1403.6</ele>
        <time>2021-10-09T11:06:04</time>
      </trkpt>
      <trkpt lat="42.97503" lon="-0.01758">
        <ele>1403.8</ele>
        <time>2021-10-09T11:06:05</time>
      </trkpt>
      <trkpt lat="42.97505" lon="-0.01757">
        <ele>1404</ele>
        <time>2021-10-09T11:06:06</time>
      </trkpt>
      <trkpt lat="42.97506" lon="-0.01756">
        <ele>1404</ele>
        <time>2021-10-09T11:06:07</time>
      </trkpt>
      <trkpt lat="42.97508" lon="-0.01755">
        <ele>1404.2</ele>
        <time>2021-10-09T11:06:08</time>
      </trkpt>
      <trkpt lat="42.97509" lon="-0.01754">
        <ele>1404.2</ele>
        <time>2021-10-09T11:06:09</time>
      </trkpt>
      <trkpt lat="42.97511" lon="-0.01753">
        <ele>1404.4</ele>
        <time>2021-10-09T11:06:10</time>
      </trkpt>
      <trkpt lat="42.97513" lon="-0.01752">
        <ele>1404.6</ele>
        <time>2021-10-09T11:06:11</time>
      </trkpt>
      <trkpt lat="42.97514" lon="-0.01752">
        <ele>1404.8</ele>
        <time>2021-10-09T11:06:12</time>
      </trkpt>
      <trkpt lat="42.97516" lon="-0.01751">
        <ele>1405</ele>
        <time>2021-10-09T11:06:13</time>
      </trkpt>
      <trkpt lat="42.97517" lon="-0.0175">
        <ele>1405</ele>
        <time>2021-10-09T11:06:14</time>
      </trkpt>
      <trkpt lat="42.97519" lon="-0.01749">
        <ele>1405.2</ele>
        <time>2021-10-09T11:06:15</time>
      </trkpt>
      <trkpt lat="42.9752" lon="-0.01748">
        <ele>1405.4</ele>
        <time>2021-10-09T11:06:16</time>
      </trkpt>
      <trkpt lat="42.97522" lon="-0.01747">
        <ele>1405.6</ele>
        <time>2021-10-09T11:06:17</time>
      </trkpt>
      <trkpt lat="42.97523" lon="-0.01746">
        <ele>1405.6</ele>
        <time>2021-10-09T11:06:18</time>
      </trkpt>
      <trkpt lat="42.97525" lon="-0.01745">
        <ele>1405.6</ele>
        <time>2021-10-09T11:06:19</time>
      </trkpt>
      <trkpt lat="42.97527" lon="-0.01744">
        <ele>1405.8</ele>
        <time>2021-10-09T11:06:20</time>
      </trkpt>
      <trkpt lat="42.97528" lon="-0.01744">
        <ele>1406</ele>
        <time>2021-10-09T11:06:21</time>
      </trkpt>
      <trkpt lat="42.9753" lon="-0.01743">
        <ele>1406.2</ele>
        <time>2021-10-09T11:06:22</time>
      </trkpt>
      <trkpt lat="42.97532" lon="-0.01742">
        <ele>1406.6</ele>
        <time>2021-10-09T11:06:23</time>
      </trkpt>
      <trkpt lat="42.97533" lon="-0.01741">
        <ele>1406.8</ele>
        <time>2021-10-09T11:06:24</time>
      </trkpt>
      <trkpt lat="42.97535" lon="-0.01739">
        <ele>1406.6</ele>
        <time>2021-10-09T11:06:25</time>
      </trkpt>
      <trkpt lat="42.97537" lon="-0.01738">
        <ele>1406.8</ele>
        <time>2021-10-09T11:06:26</time>
      </trkpt>
      <trkpt lat="42.97538" lon="-0.01737">
        <ele>1407</ele>
        <time>2021-10-09T11:06:27</time>
      </trkpt>
      <trkpt lat="42.9754" lon="-0.01736">
        <ele>1407.2</ele>
        <time>2021-10-09T11:06:28</time>
      </trkpt>
      <trkpt lat="42.97541" lon="-0.01735">
        <ele>1407.4</ele>
        <time>2021-10-09T11:06:29</time>
      </trkpt>
      <trkpt lat="42.97543" lon="-0.01733">
        <ele>1407.4</ele>
        <time>2021-10-09T11:06:30</time>
      </trkpt>
      <trkpt lat="42.97545" lon="-0.01732">
        <ele>1407.4</ele>
        <time>2021-10-09T11:06:31</time>
      </trkpt>
      <trkpt lat="42.97546" lon="-0.01731">
        <ele>1407.8</ele>
        <time>2021-10-09T11:06:32</time>
      </trkpt>
      <trkpt lat="42.97548" lon="-0.0173">
        <ele>1407.8</ele>
        <time>2021-10-09T11:06:33</time>
      </trkpt>
      <trkpt lat="42.9755" lon="-0.01729">
        <ele>1407.8</ele>
        <time>2021-10-09T11:06:34</time>
      </trkpt>
      <trkpt lat="42.97551" lon="-0.01728">
        <ele>1408</ele>
        <time>2021-10-09T11:06:35</time>
      </trkpt>
      <trkpt lat="42.97553" lon="-0.01727">
        <ele>1408.2</ele>
        <time>2021-10-09T11:06:36</time>
      </trkpt>
      <trkpt lat="42.97554" lon="-0.01725">
        <ele>1408.4</ele>
        <time>2021-10-09T11:06:37</time>
      </trkpt>
      <trkpt lat="42.97555" lon="-0.01723">
        <ele>1408.4</ele>
        <time>2021-10-09T11:06:38</time>
      </trkpt>
      <trkpt lat="42.97557" lon="-0.01722">
        <ele>1408.6</ele>
        <time>2021-10-09T11:06:39</time>
      </trkpt>
      <trkpt lat="42.97558" lon="-0.01721">
        <ele>1408.8</ele>
        <time>2021-10-09T11:06:40</time>
      </trkpt>
      <trkpt lat="42.9756" lon="-0.01719">
        <ele>1409</ele>
        <time>2021-10-09T11:06:41</time>
      </trkpt>
      <trkpt lat="42.97561" lon="-0.01718">
        <ele>1409</ele>
        <time>2021-10-09T11:06:42</time>
      </trkpt>
      <trkpt lat="42.97563" lon="-0.01716">
        <ele>1409</ele>
        <time>2021-10-09T11:06:43</time>
      </trkpt>
      <trkpt lat="42.97564" lon="-0.01715">
        <ele>1409.2</ele>
        <time>2021-10-09T11:06:44</time>
      </trkpt>
      <trkpt lat="42.97566" lon="-0.01714">
        <ele>1409.4</ele>
        <time>2021-10-09T11:06:45</time>
      </trkpt>
      <trkpt lat="42.97568" lon="-0.01713">
        <ele>1409.6</ele>
        <time>2021-10-09T11:06:46</time>
      </trkpt>
      <trkpt lat="42.97569" lon="-0.01711">
        <ele>1409.6</ele>
        <time>2021-10-09T11:06:47</time>
      </trkpt>
      <trkpt lat="42.97571" lon="-0.0171">
        <ele>1409.6</ele>
        <time>2021-10-09T11:06:48</time>
      </trkpt>
      <trkpt lat="42.97572" lon="-0.01709">
        <ele>1409.8</ele>
        <time>2021-10-09T11:06:49</time>
      </trkpt>
      <trkpt lat="42.97574" lon="-0.01708">
        <ele>1410.2</ele>
        <time>2021-10-09T11:06:50</time>
      </trkpt>
      <trkpt lat="42.97575" lon="-0.01706">
        <ele>1410.2</ele>
        <time>2021-10-09T11:06:51</time>
      </trkpt>
      <trkpt lat="42.97577" lon="-0.01705">
        <ele>1410.2</ele>
        <time>2021-10-09T11:06:52</time>
      </trkpt>
      <trkpt lat="42.97578" lon="-0.01704">
        <ele>1410.4</ele>
        <time>2021-10-09T11:06:53</time>
      </trkpt>
      <trkpt lat="42.9758" lon="-0.01702">
        <ele>1410.6</ele>
        <time>2021-10-09T11:06:54</time>
      </trkpt>
      <trkpt lat="42.97581" lon="-0.01701">
        <ele>1410.8</ele>
        <time>2021-10-09T11:06:55</time>
      </trkpt>
      <trkpt lat="42.97582" lon="-0.01699">
        <ele>1411</ele>
        <time>2021-10-09T11:06:56</time>
      </trkpt>
      <trkpt lat="42.97584" lon="-0.01698">
        <ele>1411.2</ele>
        <time>2021-10-09T11:06:57</time>
      </trkpt>
      <trkpt lat="42.97585" lon="-0.01696">
        <ele>1411.2</ele>
        <time>2021-10-09T11:06:58</time>
      </trkpt>
      <trkpt lat="42.97586" lon="-0.01694">
        <ele>1411.4</ele>
        <time>2021-10-09T11:06:59</time>
      </trkpt>
      <trkpt lat="42.97587" lon="-0.01693">
        <ele>1411.8</ele>
        <time>2021-10-09T11:07:00</time>
      </trkpt>
      <trkpt lat="42.97589" lon="-0.01691">
        <ele>1411.8</ele>
        <time>2021-10-09T11:07:01</time>
      </trkpt>
      <trkpt lat="42.9759" lon="-0.01689">
        <ele>1412</ele>
        <time>2021-10-09T11:07:02</time>
      </trkpt>
      <trkpt lat="42.97591" lon="-0.01687">
        <ele>1412</ele>
        <time>2021-10-09T11:07:03</time>
      </trkpt>
      <trkpt lat="42.97592" lon="-0.01685">
        <ele>1412.4</ele>
        <time>2021-10-09T11:07:04</time>
      </trkpt>
      <trkpt lat="42.97593" lon="-0.01683">
        <ele>1412.6</ele>
        <time>2021-10-09T11:07:05</time>
      </trkpt>
      <trkpt lat="42.97594" lon="-0.01681">
        <ele>1412.6</ele>
        <time>2021-10-09T11:07:06</time>
      </trkpt>
      <trkpt lat="42.97595" lon="-0.01679">
        <ele>1412.6</ele>
        <time>2021-10-09T11:07:07</time>
      </trkpt>
      <trkpt lat="42.97596" lon="-0.01677">
        <ele>1412.8</ele>
        <time>2021-10-09T11:07:08</time>
      </trkpt>
      <trkpt lat="42.97597" lon="-0.01675">
        <ele>1413.2</ele>
        <time>2021-10-09T11:07:09</time>
      </trkpt>
      <trkpt lat="42.97597" lon="-0.01672">
        <ele>1413.4</ele>
        <time>2021-10-09T11:07:10</time>
      </trkpt>
      <trkpt lat="42.97598" lon="-0.0167">
        <ele>1413.6</ele>
        <time>2021-10-09T11:07:11</time>
      </trkpt>
      <trkpt lat="42.97599" lon="-0.01668">
        <ele>1413.6</ele>
        <time>2021-10-09T11:07:12</time>
      </trkpt>
      <trkpt lat="42.976" lon="-0.01666">
        <ele>1413.8</ele>
        <time>2021-10-09T11:07:13</time>
      </trkpt>
      <trkpt lat="42.97601" lon="-0.01664">
        <ele>1414</ele>
        <time>2021-10-09T11:07:14</time>
      </trkpt>
      <trkpt lat="42.97601" lon="-0.01661">
        <ele>1414.2</ele>
        <time>2021-10-09T11:07:15</time>
      </trkpt>
      <trkpt lat="42.97602" lon="-0.01659">
        <ele>1414.2</ele>
        <time>2021-10-09T11:07:16</time>
      </trkpt>
      <trkpt lat="42.97603" lon="-0.01657">
        <ele>1414.4</ele>
        <time>2021-10-09T11:07:17</time>
      </trkpt>
      <trkpt lat="42.97604" lon="-0.01655">
        <ele>1413.8</ele>
        <time>2021-10-09T11:07:18</time>
      </trkpt>
      <trkpt lat="42.97604" lon="-0.01652">
        <ele>1413.8</ele>
        <time>2021-10-09T11:07:19</time>
      </trkpt>
      <trkpt lat="42.97605" lon="-0.0165">
        <ele>1415</ele>
        <time>2021-10-09T11:07:20</time>
      </trkpt>
      <trkpt lat="42.97606" lon="-0.01647">
        <ele>1415</ele>
        <time>2021-10-09T11:07:21</time>
      </trkpt>
      <trkpt lat="42.97606" lon="-0.01645">
        <ele>1415.2</ele>
        <time>2021-10-09T11:07:22</time>
      </trkpt>
      <trkpt lat="42.97607" lon="-0.01643">
        <ele>1415.4</ele>
        <time>2021-10-09T11:07:23</time>
      </trkpt>
      <trkpt lat="42.97608" lon="-0.0164">
        <ele>1415.4</ele>
        <time>2021-10-09T11:07:24</time>
      </trkpt>
      <trkpt lat="42.97609" lon="-0.01638">
        <ele>1415.6</ele>
        <time>2021-10-09T11:07:25</time>
      </trkpt>
      <trkpt lat="42.9761" lon="-0.01635">
        <ele>1415.8</ele>
        <time>2021-10-09T11:07:26</time>
      </trkpt>
      <trkpt lat="42.97611" lon="-0.01632">
        <ele>1416</ele>
        <time>2021-10-09T11:07:27</time>
      </trkpt>
      <trkpt lat="42.97611" lon="-0.0163">
        <ele>1416</ele>
        <time>2021-10-09T11:07:28</time>
      </trkpt>
      <trkpt lat="42.97613" lon="-0.01626">
        <ele>1416.2</ele>
        <time>2021-10-09T11:07:29</time>
      </trkpt>
      <trkpt lat="42.97614" lon="-0.01623">
        <ele>1416.4</ele>
        <time>2021-10-09T11:07:30</time>
      </trkpt>
      <trkpt lat="42.97615" lon="-0.0162">
        <ele>1416.6</ele>
        <time>2021-10-09T11:07:31</time>
      </trkpt>
      <trkpt lat="42.97616" lon="-0.01617">
        <ele>1416.8</ele>
        <time>2021-10-09T11:07:32</time>
      </trkpt>
      <trkpt lat="42.97617" lon="-0.01614">
        <ele>1417</ele>
        <time>2021-10-09T11:07:33</time>
      </trkpt>
      <trkpt lat="42.97618" lon="-0.01611">
        <ele>1417.2</ele>
        <time>2021-10-09T11:07:34</time>
      </trkpt>
      <trkpt lat="42.97619" lon="-0.01608">
        <ele>1417.2</ele>
        <time>2021-10-09T11:07:35</time>
      </trkpt>
      <trkpt lat="42.9762" lon="-0.01605">
        <ele>1417.6</ele>
        <time>2021-10-09T11:07:36</time>
      </trkpt>
      <trkpt lat="42.97621" lon="-0.01602">
        <ele>1417.8</ele>
        <time>2021-10-09T11:07:37</time>
      </trkpt>
      <trkpt lat="42.97622" lon="-0.01599">
        <ele>1418</ele>
        <time>2021-10-09T11:07:38</time>
      </trkpt>
      <trkpt lat="42.97624" lon="-0.01596">
        <ele>1418.4</ele>
        <time>2021-10-09T11:07:39</time>
      </trkpt>
      <trkpt lat="42.97625" lon="-0.01593">
        <ele>1418.4</ele>
        <time>2021-10-09T11:07:40</time>
      </trkpt>
      <trkpt lat="42.97626" lon="-0.0159">
        <ele>1418.6</ele>
        <time>2021-10-09T11:07:41</time>
      </trkpt>
      <trkpt lat="42.97627" lon="-0.01587">
        <ele>1418.8</ele>
        <time>2021-10-09T11:07:42</time>
      </trkpt>
      <trkpt lat="42.97628" lon="-0.01584">
        <ele>1419.2</ele>
        <time>2021-10-09T11:07:43</time>
      </trkpt>
      <trkpt lat="42.97629" lon="-0.01581">
        <ele>1419.4</ele>
        <time>2021-10-09T11:07:44</time>
      </trkpt>
      <trkpt lat="42.9763" lon="-0.01578">
        <ele>1419.6</ele>
        <time>2021-10-09T11:07:45</time>
      </trkpt>
      <trkpt lat="42.97632" lon="-0.01575">
        <ele>1419.8</ele>
        <time>2021-10-09T11:07:46</time>
      </trkpt>
      <trkpt lat="42.97633" lon="-0.01572">
        <ele>1420.2</ele>
        <time>2021-10-09T11:07:47</time>
      </trkpt>
      <trkpt lat="42.97634" lon="-0.01569">
        <ele>1420.4</ele>
        <time>2021-10-09T11:07:48</time>
      </trkpt>
      <trkpt lat="42.97635" lon="-0.01566">
        <ele>1420.8</ele>
        <time>2021-10-09T11:07:49</time>
      </trkpt>
      <trkpt lat="42.97637" lon="-0.01562">
        <ele>1420.8</ele>
        <time>2021-10-09T11:07:50</time>
      </trkpt>
      <trkpt lat="42.97638" lon="-0.01559">
        <ele>1421</ele>
        <time>2021-10-09T11:07:51</time>
      </trkpt>
      <trkpt lat="42.97639" lon="-0.01556">
        <ele>1421.4</ele>
        <time>2021-10-09T11:07:52</time>
      </trkpt>
      <trkpt lat="42.97641" lon="-0.01553">
        <ele>1421.6</ele>
        <time>2021-10-09T11:07:53</time>
      </trkpt>
      <trkpt lat="42.97642" lon="-0.01549">
        <ele>1421.8</ele>
        <time>2021-10-09T11:07:54</time>
      </trkpt>
      <trkpt lat="42.97643" lon="-0.01546">
        <ele>1422.2</ele>
        <time>2021-10-09T11:07:55</time>
      </trkpt>
      <trkpt lat="42.97644" lon="-0.01543">
        <ele>1422.4</ele>
        <time>2021-10-09T11:07:56</time>
      </trkpt>
      <trkpt lat="42.97645" lon="-0.0154">
        <ele>1422.6</ele>
        <time>2021-10-09T11:07:57</time>
      </trkpt>
      <trkpt lat="42.97647" lon="-0.01536">
        <ele>1422.8</ele>
        <time>2021-10-09T11:07:58</time>
      </trkpt>
      <trkpt lat="42.97648" lon="-0.01533">
        <ele>1423.2</ele>
        <time>2021-10-09T11:07:59</time>
      </trkpt>
      <trkpt lat="42.97649" lon="-0.0153">
        <ele>1423.2</ele>
        <time>2021-10-09T11:08:00</time>
      </trkpt>
      <trkpt lat="42.9765" lon="-0.01527">
        <ele>1423.4</ele>
        <time>2021-10-09T11:08:01</time>
      </trkpt>
      <trkpt lat="42.97652" lon="-0.01524">
        <ele>1423.8</ele>
        <time>2021-10-09T11:08:02</time>
      </trkpt>
      <trkpt lat="42.97653" lon="-0.0152">
        <ele>1423.8</ele>
        <time>2021-10-09T11:08:03</time>
      </trkpt>
      <trkpt lat="42.97655" lon="-0.01517">
        <ele>1424</ele>
        <time>2021-10-09T11:08:04</time>
      </trkpt>
      <trkpt lat="42.97656" lon="-0.01514">
        <ele>1424.4</ele>
        <time>2021-10-09T11:08:05</time>
      </trkpt>
      <trkpt lat="42.97658" lon="-0.01511">
        <ele>1424.4</ele>
        <time>2021-10-09T11:08:06</time>
      </trkpt>
      <trkpt lat="42.9766" lon="-0.01509">
        <ele>1424.6</ele>
        <time>2021-10-09T11:08:07</time>
      </trkpt>
      <trkpt lat="42.97662" lon="-0.01506">
        <ele>1424.8</ele>
        <time>2021-10-09T11:08:08</time>
      </trkpt>
      <trkpt lat="42.97664" lon="-0.01503">
        <ele>1425</ele>
        <time>2021-10-09T11:08:09</time>
      </trkpt>
      <trkpt lat="42.97666" lon="-0.01501">
        <ele>1425</ele>
        <time>2021-10-09T11:08:10</time>
      </trkpt>
      <trkpt lat="42.97669" lon="-0.01499">
        <ele>1425.2</ele>
        <time>2021-10-09T11:08:11</time>
      </trkpt>
      <trkpt lat="42.97671" lon="-0.01496">
        <ele>1425.4</ele>
        <time>2021-10-09T11:08:12</time>
      </trkpt>
      <trkpt lat="42.97674" lon="-0.01494">
        <ele>1425.6</ele>
        <time>2021-10-09T11:08:13</time>
      </trkpt>
      <trkpt lat="42.97676" lon="-0.01492">
        <ele>1425.8</ele>
        <time>2021-10-09T11:08:14</time>
      </trkpt>
      <trkpt lat="42.97679" lon="-0.0149">
        <ele>1426</ele>
        <time>2021-10-09T11:08:15</time>
      </trkpt>
      <trkpt lat="42.97681" lon="-0.01489">
        <ele>1426.2</ele>
        <time>2021-10-09T11:08:16</time>
      </trkpt>
      <trkpt lat="42.97684" lon="-0.01487">
        <ele>1426.4</ele>
        <time>2021-10-09T11:08:17</time>
      </trkpt>
      <trkpt lat="42.97687" lon="-0.01485">
        <ele>1426.6</ele>
        <time>2021-10-09T11:08:18</time>
      </trkpt>
      <trkpt lat="42.97689" lon="-0.01484">
        <ele>1426.8</ele>
        <time>2021-10-09T11:08:19</time>
      </trkpt>
      <trkpt lat="42.97692" lon="-0.01482">
        <ele>1427</ele>
        <time>2021-10-09T11:08:20</time>
      </trkpt>
      <trkpt lat="42.97695" lon="-0.01481">
        <ele>1427.4</ele>
        <time>2021-10-09T11:08:21</time>
      </trkpt>
      <trkpt lat="42.97697" lon="-0.01479">
        <ele>1427.6</ele>
        <time>2021-10-09T11:08:22</time>
      </trkpt>
      <trkpt lat="42.977" lon="-0.01477">
        <ele>1427.6</ele>
        <time>2021-10-09T11:08:23</time>
      </trkpt>
      <trkpt lat="42.97703" lon="-0.01475">
        <ele>1427.8</ele>
        <time>2021-10-09T11:08:24</time>
      </trkpt>
      <trkpt lat="42.97705" lon="-0.01474">
        <ele>1427.8</ele>
        <time>2021-10-09T11:08:25</time>
      </trkpt>
      <trkpt lat="42.97708" lon="-0.01472">
        <ele>1428</ele>
        <time>2021-10-09T11:08:26</time>
      </trkpt>
      <trkpt lat="42.9771" lon="-0.0147">
        <ele>1428.2</ele>
        <time>2021-10-09T11:08:27</time>
      </trkpt>
      <trkpt lat="42.97713" lon="-0.01468">
        <ele>1428.4</ele>
        <time>2021-10-09T11:08:28</time>
      </trkpt>
      <trkpt lat="42.97716" lon="-0.01466">
        <ele>1428.6</ele>
        <time>2021-10-09T11:08:29</time>
      </trkpt>
      <trkpt lat="42.97718" lon="-0.01464">
        <ele>1428.8</ele>
        <time>2021-10-09T11:08:30</time>
      </trkpt>
      <trkpt lat="42.97721" lon="-0.01462">
        <ele>1429</ele>
        <time>2021-10-09T11:08:31</time>
      </trkpt>
      <trkpt lat="42.97724" lon="-0.0146">
        <ele>1429</ele>
        <time>2021-10-09T11:08:32</time>
      </trkpt>
      <trkpt lat="42.97727" lon="-0.01458">
        <ele>1429.2</ele>
        <time>2021-10-09T11:08:33</time>
      </trkpt>
      <trkpt lat="42.97729" lon="-0.01456">
        <ele>1429.2</ele>
        <time>2021-10-09T11:08:34</time>
      </trkpt>
      <trkpt lat="42.97732" lon="-0.01454">
        <ele>1429.4</ele>
        <time>2021-10-09T11:08:35</time>
      </trkpt>
      <trkpt lat="42.97735" lon="-0.01452">
        <ele>1429.6</ele>
        <time>2021-10-09T11:08:36</time>
      </trkpt>
      <trkpt lat="42.97737" lon="-0.0145">
        <ele>1429.6</ele>
        <time>2021-10-09T11:08:37</time>
      </trkpt>
      <trkpt lat="42.9774" lon="-0.01447">
        <ele>1430</ele>
        <time>2021-10-09T11:08:38</time>
      </trkpt>
      <trkpt lat="42.97742" lon="-0.01444">
        <ele>1430</ele>
        <time>2021-10-09T11:08:39</time>
      </trkpt>
      <trkpt lat="42.97744" lon="-0.01441">
        <ele>1430.4</ele>
        <time>2021-10-09T11:08:40</time>
      </trkpt>
      <trkpt lat="42.97745" lon="-0.01438">
        <ele>1430.6</ele>
        <time>2021-10-09T11:08:41</time>
      </trkpt>
      <trkpt lat="42.97746" lon="-0.01434">
        <ele>1431</ele>
        <time>2021-10-09T11:08:42</time>
      </trkpt>
      <trkpt lat="42.97746" lon="-0.01431">
        <ele>1431.4</ele>
        <time>2021-10-09T11:08:43</time>
      </trkpt>
      <trkpt lat="42.97746" lon="-0.01428">
        <ele>1431.6</ele>
        <time>2021-10-09T11:08:44</time>
      </trkpt>
      <trkpt lat="42.97745" lon="-0.01425">
        <ele>1432</ele>
        <time>2021-10-09T11:08:45</time>
      </trkpt>
      <trkpt lat="42.97744" lon="-0.01423">
        <ele>1432.4</ele>
        <time>2021-10-09T11:08:46</time>
      </trkpt>
      <trkpt lat="42.97743" lon="-0.0142">
        <ele>1432.8</ele>
        <time>2021-10-09T11:08:47</time>
      </trkpt>
      <trkpt lat="42.97741" lon="-0.01418">
        <ele>1433</ele>
        <time>2021-10-09T11:08:48</time>
      </trkpt>
      <trkpt lat="42.97739" lon="-0.01417">
        <ele>1433.4</ele>
        <time>2021-10-09T11:08:49</time>
      </trkpt>
      <trkpt lat="42.97737" lon="-0.01416">
        <ele>1433.8</ele>
        <time>2021-10-09T11:08:50</time>
      </trkpt>
      <trkpt lat="42.97735" lon="-0.01416">
        <ele>1434</ele>
        <time>2021-10-09T11:08:51</time>
      </trkpt>
      <trkpt lat="42.97733" lon="-0.01416">
        <ele>1434</ele>
        <time>2021-10-09T11:08:52</time>
      </trkpt>
      <trkpt lat="42.97731" lon="-0.01416">
        <ele>1434.4</ele>
        <time>2021-10-09T11:08:53</time>
      </trkpt>
      <trkpt lat="42.97729" lon="-0.01416">
        <ele>1434.4</ele>
        <time>2021-10-09T11:08:54</time>
      </trkpt>
      <trkpt lat="42.97727" lon="-0.01417">
        <ele>1434.6</ele>
        <time>2021-10-09T11:08:55</time>
      </trkpt>
      <trkpt lat="42.97725" lon="-0.01418">
        <ele>1434.8</ele>
        <time>2021-10-09T11:08:56</time>
      </trkpt>
      <trkpt lat="42.97723" lon="-0.01419">
        <ele>1435.2</ele>
        <time>2021-10-09T11:08:57</time>
      </trkpt>
      <trkpt lat="42.97721" lon="-0.0142">
        <ele>1435.2</ele>
        <time>2021-10-09T11:08:58</time>
      </trkpt>
      <trkpt lat="42.97719" lon="-0.01421">
        <ele>1435.2</ele>
        <time>2021-10-09T11:08:59</time>
      </trkpt>
      <trkpt lat="42.97717" lon="-0.01422">
        <ele>1435.6</ele>
        <time>2021-10-09T11:09:00</time>
      </trkpt>
      <trkpt lat="42.97714" lon="-0.01423">
        <ele>1436</ele>
        <time>2021-10-09T11:09:01</time>
      </trkpt>
      <trkpt lat="42.97712" lon="-0.01424">
        <ele>1436.2</ele>
        <time>2021-10-09T11:09:02</time>
      </trkpt>
      <trkpt lat="42.9771" lon="-0.01425">
        <ele>1436.4</ele>
        <time>2021-10-09T11:09:03</time>
      </trkpt>
      <trkpt lat="42.97707" lon="-0.01426">
        <ele>1436.6</ele>
        <time>2021-10-09T11:09:04</time>
      </trkpt>
      <trkpt lat="42.97705" lon="-0.01427">
        <ele>1436.6</ele>
        <time>2021-10-09T11:09:05</time>
      </trkpt>
      <trkpt lat="42.97702" lon="-0.01428">
        <ele>1436.8</ele>
        <time>2021-10-09T11:09:06</time>
      </trkpt>
      <trkpt lat="42.97699" lon="-0.01429">
        <ele>1437.2</ele>
        <time>2021-10-09T11:09:07</time>
      </trkpt>
      <trkpt lat="42.97697" lon="-0.01429">
        <ele>1437.4</ele>
        <time>2021-10-09T11:09:08</time>
      </trkpt>
      <trkpt lat="42.97694" lon="-0.0143">
        <ele>1437.6</ele>
        <time>2021-10-09T11:09:09</time>
      </trkpt>
      <trkpt lat="42.97691" lon="-0.01431">
        <ele>1437.8</ele>
        <time>2021-10-09T11:09:10</time>
      </trkpt>
      <trkpt lat="42.97689" lon="-0.01431">
        <ele>1437.8</ele>
        <time>2021-10-09T11:09:11</time>
      </trkpt>
      <trkpt lat="42.97686" lon="-0.01432">
        <ele>1438</ele>
        <time>2021-10-09T11:09:12</time>
      </trkpt>
      <trkpt lat="42.97683" lon="-0.01433">
        <ele>1438</ele>
        <time>2021-10-09T11:09:13</time>
      </trkpt>
      <trkpt lat="42.9768" lon="-0.01433">
        <ele>1438.2</ele>
        <time>2021-10-09T11:09:14</time>
      </trkpt>
      <trkpt lat="42.97678" lon="-0.01433">
        <ele>1438.6</ele>
        <time>2021-10-09T11:09:15</time>
      </trkpt>
      <trkpt lat="42.97675" lon="-0.01434">
        <ele>1438.8</ele>
        <time>2021-10-09T11:09:16</time>
      </trkpt>
      <trkpt lat="42.97672" lon="-0.01435">
        <ele>1439</ele>
        <time>2021-10-09T11:09:17</time>
      </trkpt>
      <trkpt lat="42.9767" lon="-0.01435">
        <ele>1439.4</ele>
        <time>2021-10-09T11:09:18</time>
      </trkpt>
      <trkpt lat="42.97667" lon="-0.01436">
        <ele>1439.4</ele>
        <time>2021-10-09T11:09:19</time>
      </trkpt>
      <trkpt lat="42.97664" lon="-0.01436">
        <ele>1439.6</ele>
        <time>2021-10-09T11:09:20</time>
      </trkpt>
      <trkpt lat="42.97661" lon="-0.01437">
        <ele>1439.8</ele>
        <time>2021-10-09T11:09:21</time>
      </trkpt>
      <trkpt lat="42.97659" lon="-0.01437">
        <ele>1440.2</ele>
        <time>2021-10-09T11:09:22</time>
      </trkpt>
      <trkpt lat="42.97656" lon="-0.01438">
        <ele>1440.2</ele>
        <time>2021-10-09T11:09:23</time>
      </trkpt>
      <trkpt lat="42.97653" lon="-0.01438">
        <ele>1440.4</ele>
        <time>2021-10-09T11:09:24</time>
      </trkpt>
      <trkpt lat="42.97651" lon="-0.01439">
        <ele>1440.8</ele>
        <time>2021-10-09T11:09:25</time>
      </trkpt>
      <trkpt lat="42.97648" lon="-0.01439">
        <ele>1441</ele>
        <time>2021-10-09T11:09:26</time>
      </trkpt>
      <trkpt lat="42.97645" lon="-0.01439">
        <ele>1441.2</ele>
        <time>2021-10-09T11:09:27</time>
      </trkpt>
      <trkpt lat="42.97643" lon="-0.0144">
        <ele>1441.6</ele>
        <time>2021-10-09T11:09:28</time>
      </trkpt>
      <trkpt lat="42.9764" lon="-0.0144">
        <ele>1441.8</ele>
        <time>2021-10-09T11:09:29</time>
      </trkpt>
      <trkpt lat="42.97637" lon="-0.01441">
        <ele>1442</ele>
        <time>2021-10-09T11:09:30</time>
      </trkpt>
      <trkpt lat="42.97634" lon="-0.01441">
        <ele>1442.2</ele>
        <time>2021-10-09T11:09:31</time>
      </trkpt>
      <trkpt lat="42.97632" lon="-0.01441">
        <ele>1442.6</ele>
        <time>2021-10-09T11:09:32</time>
      </trkpt>
      <trkpt lat="42.97629" lon="-0.01442">
        <ele>1442.8</ele>
        <time>2021-10-09T11:09:33</time>
      </trkpt>
      <trkpt lat="42.97626" lon="-0.01442">
        <ele>1443</ele>
        <time>2021-10-09T11:09:34</time>
      </trkpt>
      <trkpt lat="42.97623" lon="-0.01442">
        <ele>1443.2</ele>
        <time>2021-10-09T11:09:35</time>
      </trkpt>
      <trkpt lat="42.97621" lon="-0.01443">
        <ele>1443.4</ele>
        <time>2021-10-09T11:09:36</time>
      </trkpt>
      <trkpt lat="42.97618" lon="-0.01443">
        <ele>1443.6</ele>
        <time>2021-10-09T11:09:37</time>
      </trkpt>
      <trkpt lat="42.97615" lon="-0.01443">
        <ele>1443.8</ele>
        <time>2021-10-09T11:09:38</time>
      </trkpt>
      <trkpt lat="42.97612" lon="-0.01444">
        <ele>1444</ele>
        <time>2021-10-09T11:09:39</time>
      </trkpt>
      <trkpt lat="42.9761" lon="-0.01444">
        <ele>1444.2</ele>
        <time>2021-10-09T11:09:40</time>
      </trkpt>
      <trkpt lat="42.97607" lon="-0.01445">
        <ele>1444.4</ele>
        <time>2021-10-09T11:09:41</time>
      </trkpt>
      <trkpt lat="42.97604" lon="-0.01445">
        <ele>1444.8</ele>
        <time>2021-10-09T11:09:42</time>
      </trkpt>
      <trkpt lat="42.97601" lon="-0.01446">
        <ele>1444.8</ele>
        <time>2021-10-09T11:09:43</time>
      </trkpt>
      <trkpt lat="42.97598" lon="-0.01446">
        <ele>1445</ele>
        <time>2021-10-09T11:09:44</time>
      </trkpt>
      <trkpt lat="42.97596" lon="-0.01446">
        <ele>1445.4</ele>
        <time>2021-10-09T11:09:45</time>
      </trkpt>
      <trkpt lat="42.97593" lon="-0.01447">
        <ele>1445.6</ele>
        <time>2021-10-09T11:09:46</time>
      </trkpt>
      <trkpt lat="42.9759" lon="-0.01447">
        <ele>1445.8</ele>
        <time>2021-10-09T11:09:47</time>
      </trkpt>
      <trkpt lat="42.97587" lon="-0.01448">
        <ele>1446.2</ele>
        <time>2021-10-09T11:09:48</time>
      </trkpt>
      <trkpt lat="42.97585" lon="-0.01449">
        <ele>1446.2</ele>
        <time>2021-10-09T11:09:49</time>
      </trkpt>
      <trkpt lat="42.97582" lon="-0.01451">
        <ele>1446.6</ele>
        <time>2021-10-09T11:09:50</time>
      </trkpt>
      <trkpt lat="42.97579" lon="-0.01452">
        <ele>1446.8</ele>
        <time>2021-10-09T11:09:51</time>
      </trkpt>
      <trkpt lat="42.97577" lon="-0.01454">
        <ele>1447</ele>
        <time>2021-10-09T11:09:52</time>
      </trkpt>
      <trkpt lat="42.97574" lon="-0.01455">
        <ele>1447.4</ele>
        <time>2021-10-09T11:09:53</time>
      </trkpt>
      <trkpt lat="42.97572" lon="-0.01457">
        <ele>1447.6</ele>
        <time>2021-10-09T11:09:54</time>
      </trkpt>
      <trkpt lat="42.9757" lon="-0.01459">
        <ele>1447.8</ele>
        <time>2021-10-09T11:09:55</time>
      </trkpt>
      <trkpt lat="42.97567" lon="-0.0146">
        <ele>1448</ele>
        <time>2021-10-09T11:09:56</time>
      </trkpt>
      <trkpt lat="42.97565" lon="-0.01462">
        <ele>1448.4</ele>
        <time>2021-10-09T11:09:57</time>
      </trkpt>
      <trkpt lat="42.97562" lon="-0.01464">
        <ele>1448.6</ele>
        <time>2021-10-09T11:09:58</time>
      </trkpt>
      <trkpt lat="42.9756" lon="-0.01466">
        <ele>1448.8</ele>
        <time>2021-10-09T11:09:59</time>
      </trkpt>
      <trkpt lat="42.97558" lon="-0.01468">
        <ele>1449</ele>
        <time>2021-10-09T11:10:00</time>
      </trkpt>
      <trkpt lat="42.97555" lon="-0.0147">
        <ele>1449.2</ele>
        <time>2021-10-09T11:10:01</time>
      </trkpt>
      <trkpt lat="42.97553" lon="-0.01472">
        <ele>1449.6</ele>
        <time>2021-10-09T11:10:02</time>
      </trkpt>
      <trkpt lat="42.97551" lon="-0.01474">
        <ele>1449.8</ele>
        <time>2021-10-09T11:10:03</time>
      </trkpt>
      <trkpt lat="42.97548" lon="-0.01476">
        <ele>1450</ele>
        <time>2021-10-09T11:10:04</time>
      </trkpt>
      <trkpt lat="42.97546" lon="-0.01478">
        <ele>1450.2</ele>
        <time>2021-10-09T11:10:05</time>
      </trkpt>
      <trkpt lat="42.97544" lon="-0.0148">
        <ele>1450.4</ele>
        <time>2021-10-09T11:10:06</time>
      </trkpt>
      <trkpt lat="42.97541" lon="-0.01482">
        <ele>1450.8</ele>
        <time>2021-10-09T11:10:07</time>
      </trkpt>
      <trkpt lat="42.97539" lon="-0.01483">
        <ele>1451</ele>
        <time>2021-10-09T11:10:08</time>
      </trkpt>
      <trkpt lat="42.97536" lon="-0.01485">
        <ele>1451.2</ele>
        <time>2021-10-09T11:10:09</time>
      </trkpt>
      <trkpt lat="42.97534" lon="-0.01486">
        <ele>1451.4</ele>
        <time>2021-10-09T11:10:10</time>
      </trkpt>
      <trkpt lat="42.97531" lon="-0.01488">
        <ele>1451.6</ele>
        <time>2021-10-09T11:10:11</time>
      </trkpt>
      <trkpt lat="42.97528" lon="-0.01489">
        <ele>1451.6</ele>
        <time>2021-10-09T11:10:12</time>
      </trkpt>
      <trkpt lat="42.97525" lon="-0.01489">
        <ele>1451.8</ele>
        <time>2021-10-09T11:10:13</time>
      </trkpt>
      <trkpt lat="42.97523" lon="-0.0149">
        <ele>1452</ele>
        <time>2021-10-09T11:10:14</time>
      </trkpt>
      <trkpt lat="42.9752" lon="-0.01491">
        <ele>1452.4</ele>
        <time>2021-10-09T11:10:15</time>
      </trkpt>
      <trkpt lat="42.97517" lon="-0.01491">
        <ele>1452.4</ele>
        <time>2021-10-09T11:10:16</time>
      </trkpt>
      <trkpt lat="42.97514" lon="-0.01491">
        <ele>1452.6</ele>
        <time>2021-10-09T11:10:17</time>
      </trkpt>
      <trkpt lat="42.97512" lon="-0.0149">
        <ele>1452.8</ele>
        <time>2021-10-09T11:10:18</time>
      </trkpt>
      <trkpt lat="42.97509" lon="-0.0149">
        <ele>1453</ele>
        <time>2021-10-09T11:10:19</time>
      </trkpt>
      <trkpt lat="42.97506" lon="-0.01489">
        <ele>1453.2</ele>
        <time>2021-10-09T11:10:20</time>
      </trkpt>
      <trkpt lat="42.97504" lon="-0.01488">
        <ele>1453.2</ele>
        <time>2021-10-09T11:10:21</time>
      </trkpt>
      <trkpt lat="42.97501" lon="-0.01487">
        <ele>1453.6</ele>
        <time>2021-10-09T11:10:22</time>
      </trkpt>
      <trkpt lat="42.97499" lon="-0.01485">
        <ele>1453.8</ele>
        <time>2021-10-09T11:10:23</time>
      </trkpt>
      <trkpt lat="42.97497" lon="-0.01484">
        <ele>1454</ele>
        <time>2021-10-09T11:10:24</time>
      </trkpt>
      <trkpt lat="42.97494" lon="-0.01483">
        <ele>1454</ele>
        <time>2021-10-09T11:10:25</time>
      </trkpt>
      <trkpt lat="42.97492" lon="-0.01482">
        <ele>1454.4</ele>
        <time>2021-10-09T11:10:26</time>
      </trkpt>
      <trkpt lat="42.97491" lon="-0.01481">
        <ele>1454.4</ele>
        <time>2021-10-09T11:10:27</time>
      </trkpt>
      <trkpt lat="42.97489" lon="-0.01479">
        <ele>1454.4</ele>
        <time>2021-10-09T11:10:28</time>
      </trkpt>
      <trkpt lat="42.97488" lon="-0.01478">
        <ele>1454.4</ele>
        <time>2021-10-09T11:10:29</time>
      </trkpt>
      <trkpt lat="42.97487" lon="-0.01476">
        <ele>1454.6</ele>
        <time>2021-10-09T11:10:30</time>
      </trkpt>
      <trkpt lat="42.97486" lon="-0.01474">
        <ele>1454.8</ele>
        <time>2021-10-09T11:10:31</time>
      </trkpt>
      <trkpt lat="42.97485" lon="-0.01472">
        <ele>1455</ele>
        <time>2021-10-09T11:10:32</time>
      </trkpt>
      <trkpt lat="42.97485" lon="-0.0147">
        <ele>1455</ele>
        <time>2021-10-09T11:10:33</time>
      </trkpt>
      <trkpt lat="42.97485" lon="-0.0147">
        <ele>1455.2</ele>
        <time>2021-10-09T11:10:34</time>
      </trkpt>
      <trkpt lat="42.97485" lon="-0.0147">
        <ele>1455.2</ele>
        <time>2021-10-09T11:10:35</time>
      </trkpt>
      <trkpt lat="42.97485" lon="-0.0147">
        <ele>1455.2</ele>
        <time>2021-10-09T11:10:36</time>
      </trkpt>
      <trkpt lat="42.97485" lon="-0.0147">
        <ele>1455.4</ele>
        <time>2021-10-09T11:10:37</time>
      </trkpt>
      <trkpt lat="42.97485" lon="-0.0147">
        <ele>1455.2</ele>
        <time>2021-10-09T11:10:38</time>
      </trkpt>
      <trkpt lat="42.97485" lon="-0.0147">
        <ele>1455.2</ele>
        <time>2021-10-09T11:10:39</time>
      </trkpt>
      <trkpt lat="42.97485" lon="-0.0147">
        <ele>1455.2</ele>
        <time>2021-10-09T11:10:40</time>
      </trkpt>
      <trkpt lat="42.97485" lon="-0.0147">
        <ele>1455.2</ele>
        <time>2021-10-09T11:10:41</time>
      </trkpt>
      <trkpt lat="42.97492" lon="-0.01443">
        <ele>1457.2</ele>
        <time>2021-10-09T11:14:33</time>
      </trkpt>
      <trkpt lat="42.97493" lon="-0.01441">
        <ele>1457.4</ele>
        <time>2021-10-09T11:14:35</time>
      </trkpt>
      <trkpt lat="42.97495" lon="-0.01438">
        <ele>1457.4</ele>
        <time>2021-10-09T11:14:36</time>
      </trkpt>
      <trkpt lat="42.97498" lon="-0.01435">
        <ele>1457.8</ele>
        <time>2021-10-09T11:14:37</time>
      </trkpt>
      <trkpt lat="42.97499" lon="-0.01433">
        <ele>1457.8</ele>
        <time>2021-10-09T11:14:39</time>
      </trkpt>
      <trkpt lat="42.97503" lon="-0.01431">
        <ele>1458.2</ele>
        <time>2021-10-09T11:14:40</time>
      </trkpt>
      <trkpt lat="42.97505" lon="-0.01429">
        <ele>1458.4</ele>
        <time>2021-10-09T11:14:41</time>
      </trkpt>
      <trkpt lat="42.97507" lon="-0.01428">
        <ele>1458.4</ele>
        <time>2021-10-09T11:14:42</time>
      </trkpt>
      <trkpt lat="42.97509" lon="-0.01426">
        <ele>1458.6</ele>
        <time>2021-10-09T11:14:43</time>
      </trkpt>
      <trkpt lat="42.97511" lon="-0.01425">
        <ele>1458.6</ele>
        <time>2021-10-09T11:14:44</time>
      </trkpt>
      <trkpt lat="42.97513" lon="-0.01423">
        <ele>1458.8</ele>
        <time>2021-10-09T11:14:46</time>
      </trkpt>
      <trkpt lat="42.97516" lon="-0.0142">
        <ele>1459.2</ele>
        <time>2021-10-09T11:14:47</time>
      </trkpt>
      <trkpt lat="42.97518" lon="-0.01419">
        <ele>1459.4</ele>
        <time>2021-10-09T11:14:48</time>
      </trkpt>
      <trkpt lat="42.9752" lon="-0.01417">
        <ele>1459.6</ele>
        <time>2021-10-09T11:14:49</time>
      </trkpt>
      <trkpt lat="42.97522" lon="-0.01416">
        <ele>1459.6</ele>
        <time>2021-10-09T11:14:50</time>
      </trkpt>
      <trkpt lat="42.97524" lon="-0.01414">
        <ele>1459.6</ele>
        <time>2021-10-09T11:14:51</time>
      </trkpt>
      <trkpt lat="42.97526" lon="-0.01413">
        <ele>1459.8</ele>
        <time>2021-10-09T11:14:53</time>
      </trkpt>
      <trkpt lat="42.97528" lon="-0.01412">
        <ele>1460</ele>
        <time>2021-10-09T11:14:54</time>
      </trkpt>
      <trkpt lat="42.97532" lon="-0.01409">
        <ele>1460.2</ele>
        <time>2021-10-09T11:14:55</time>
      </trkpt>
      <trkpt lat="42.97533" lon="-0.01408">
        <ele>1460.2</ele>
        <time>2021-10-09T11:14:56</time>
      </trkpt>
      <trkpt lat="42.97535" lon="-0.01406">
        <ele>1460.4</ele>
        <time>2021-10-09T11:14:57</time>
      </trkpt>
      <trkpt lat="42.97537" lon="-0.01405">
        <ele>1460.4</ele>
        <time>2021-10-09T11:14:59</time>
      </trkpt>
      <trkpt lat="42.97539" lon="-0.01404">
        <ele>1460.6</ele>
        <time>2021-10-09T11:15:00</time>
      </trkpt>
      <trkpt lat="42.97543" lon="-0.01401">
        <ele>1460.8</ele>
        <time>2021-10-09T11:15:01</time>
      </trkpt>
      <trkpt lat="42.97545" lon="-0.014">
        <ele>1461.2</ele>
        <time>2021-10-09T11:15:02</time>
      </trkpt>
      <trkpt lat="42.97547" lon="-0.01398">
        <ele>1461.2</ele>
        <time>2021-10-09T11:15:04</time>
      </trkpt>
      <trkpt lat="42.97548" lon="-0.01397">
        <ele>1461.4</ele>
        <time>2021-10-09T11:15:05</time>
      </trkpt>
      <trkpt lat="42.9755" lon="-0.01395">
        <ele>1461.4</ele>
        <time>2021-10-09T11:15:06</time>
      </trkpt>
      <trkpt lat="42.97554" lon="-0.01393">
        <ele>1461.6</ele>
        <time>2021-10-09T11:15:08</time>
      </trkpt>
      <trkpt lat="42.97557" lon="-0.0139">
        <ele>1462</ele>
        <time>2021-10-09T11:15:10</time>
      </trkpt>
      <trkpt lat="42.97559" lon="-0.01389">
        <ele>1462</ele>
        <time>2021-10-09T11:15:11</time>
      </trkpt>
      <trkpt lat="42.97561" lon="-0.01388">
        <ele>1462.2</ele>
        <time>2021-10-09T11:15:12</time>
      </trkpt>
      <trkpt lat="42.97564" lon="-0.01385">
        <ele>1462.4</ele>
        <time>2021-10-09T11:15:13</time>
      </trkpt>
      <trkpt lat="42.97566" lon="-0.01384">
        <ele>1462.4</ele>
        <time>2021-10-09T11:15:14</time>
      </trkpt>
      <trkpt lat="42.97568" lon="-0.01383">
        <ele>1462.6</ele>
        <time>2021-10-09T11:15:16</time>
      </trkpt>
      <trkpt lat="42.9757" lon="-0.01382">
        <ele>1462.8</ele>
        <time>2021-10-09T11:15:17</time>
      </trkpt>
      <trkpt lat="42.97572" lon="-0.01381">
        <ele>1463</ele>
        <time>2021-10-09T11:15:18</time>
      </trkpt>
      <trkpt lat="42.97576" lon="-0.01378">
        <ele>1463.2</ele>
        <time>2021-10-09T11:15:19</time>
      </trkpt>
      <trkpt lat="42.97577" lon="-0.01377">
        <ele>1463.4</ele>
        <time>2021-10-09T11:15:21</time>
      </trkpt>
      <trkpt lat="42.97579" lon="-0.01376">
        <ele>1463.6</ele>
        <time>2021-10-09T11:15:22</time>
      </trkpt>
      <trkpt lat="42.97581" lon="-0.01375">
        <ele>1463.6</ele>
        <time>2021-10-09T11:15:23</time>
      </trkpt>
      <trkpt lat="42.97584" lon="-0.01373">
        <ele>1464</ele>
        <time>2021-10-09T11:15:24</time>
      </trkpt>
      <trkpt lat="42.97586" lon="-0.01371">
        <ele>1464.2</ele>
        <time>2021-10-09T11:15:25</time>
      </trkpt>
      <trkpt lat="42.97588" lon="-0.0137">
        <ele>1464.2</ele>
        <time>2021-10-09T11:15:26</time>
      </trkpt>
      <trkpt lat="42.97589" lon="-0.01368">
        <ele>1464.4</ele>
        <time>2021-10-09T11:15:28</time>
      </trkpt>
      <trkpt lat="42.97591" lon="-0.01367">
        <ele>1464.6</ele>
        <time>2021-10-09T11:15:29</time>
      </trkpt>
      <trkpt lat="42.97593" lon="-0.01366">
        <ele>1464.6</ele>
        <time>2021-10-09T11:15:30</time>
      </trkpt>
      <trkpt lat="42.97595" lon="-0.01365">
        <ele>1464.8</ele>
        <time>2021-10-09T11:15:31</time>
      </trkpt>
      <trkpt lat="42.97597" lon="-0.01364">
        <ele>1465</ele>
        <time>2021-10-09T11:15:32</time>
      </trkpt>
      <trkpt lat="42.976" lon="-0.01361">
        <ele>1465.4</ele>
        <time>2021-10-09T11:15:34</time>
      </trkpt>
      <trkpt lat="42.97602" lon="-0.0136">
        <ele>1465.6</ele>
        <time>2021-10-09T11:15:35</time>
      </trkpt>
      <trkpt lat="42.97603" lon="-0.01358">
        <ele>1465.6</ele>
        <time>2021-10-09T11:15:36</time>
      </trkpt>
      <trkpt lat="42.97607" lon="-0.01356">
        <ele>1465.8</ele>
        <time>2021-10-09T11:15:37</time>
      </trkpt>
      <trkpt lat="42.97609" lon="-0.01355">
        <ele>1466</ele>
        <time>2021-10-09T11:15:39</time>
      </trkpt>
      <trkpt lat="42.9761" lon="-0.01354">
        <ele>1466.2</ele>
        <time>2021-10-09T11:15:40</time>
      </trkpt>
      <trkpt lat="42.97612" lon="-0.01353">
        <ele>1466.6</ele>
        <time>2021-10-09T11:15:41</time>
      </trkpt>
      <trkpt lat="42.97614" lon="-0.01351">
        <ele>1466.6</ele>
        <time>2021-10-09T11:15:42</time>
      </trkpt>
      <trkpt lat="42.97615" lon="-0.0135">
        <ele>1466.8</ele>
        <time>2021-10-09T11:15:43</time>
      </trkpt>
      <trkpt lat="42.97617" lon="-0.01348">
        <ele>1467</ele>
        <time>2021-10-09T11:15:44</time>
      </trkpt>
      <trkpt lat="42.97618" lon="-0.01346">
        <ele>1467</ele>
        <time>2021-10-09T11:15:45</time>
      </trkpt>
      <trkpt lat="42.97619" lon="-0.01345">
        <ele>1467.2</ele>
        <time>2021-10-09T11:15:46</time>
      </trkpt>
      <trkpt lat="42.97623" lon="-0.01343">
        <ele>1467.4</ele>
        <time>2021-10-09T11:15:47</time>
      </trkpt>
      <trkpt lat="42.97625" lon="-0.01342">
        <ele>1467.8</ele>
        <time>2021-10-09T11:15:48</time>
      </trkpt>
      <trkpt lat="42.97626" lon="-0.01341">
        <ele>1467.8</ele>
        <time>2021-10-09T11:15:50</time>
      </trkpt>
      <trkpt lat="42.97628" lon="-0.01339">
        <ele>1468</ele>
        <time>2021-10-09T11:15:51</time>
      </trkpt>
      <trkpt lat="42.9763" lon="-0.01337">
        <ele>1468.2</ele>
        <time>2021-10-09T11:15:52</time>
      </trkpt>
      <trkpt lat="42.97631" lon="-0.01336">
        <ele>1468.2</ele>
        <time>2021-10-09T11:15:53</time>
      </trkpt>
      <trkpt lat="42.97633" lon="-0.01335">
        <ele>1468.4</ele>
        <time>2021-10-09T11:15:54</time>
      </trkpt>
      <trkpt lat="42.97635" lon="-0.01334">
        <ele>1468.4</ele>
        <time>2021-10-09T11:15:55</time>
      </trkpt>
      <trkpt lat="42.97639" lon="-0.01331">
        <ele>1468.8</ele>
        <time>2021-10-09T11:15:56</time>
      </trkpt>
      <trkpt lat="42.9764" lon="-0.0133">
        <ele>1468.8</ele>
        <time>2021-10-09T11:15:57</time>
      </trkpt>
      <trkpt lat="42.97642" lon="-0.01329">
        <ele>1469.2</ele>
        <time>2021-10-09T11:15:59</time>
      </trkpt>
      <trkpt lat="42.97644" lon="-0.01328">
        <ele>1469.2</ele>
        <time>2021-10-09T11:16:00</time>
      </trkpt>
      <trkpt lat="42.97645" lon="-0.01326">
        <ele>1469.4</ele>
        <time>2021-10-09T11:16:01</time>
      </trkpt>
      <trkpt lat="42.97647" lon="-0.01325">
        <ele>1469.4</ele>
        <time>2021-10-09T11:16:02</time>
      </trkpt>
      <trkpt lat="42.97651" lon="-0.01323">
        <ele>1469.8</ele>
        <time>2021-10-09T11:16:04</time>
      </trkpt>
      <trkpt lat="42.97653" lon="-0.01322">
        <ele>1470</ele>
        <time>2021-10-09T11:16:05</time>
      </trkpt>
      <trkpt lat="42.97656" lon="-0.0132">
        <ele>1470.2</ele>
        <time>2021-10-09T11:16:07</time>
      </trkpt>
      <trkpt lat="42.97658" lon="-0.01319">
        <ele>1470.2</ele>
        <time>2021-10-09T11:16:08</time>
      </trkpt>
      <trkpt lat="42.97659" lon="-0.01318">
        <ele>1470.2</ele>
        <time>2021-10-09T11:16:09</time>
      </trkpt>
      <trkpt lat="42.97663" lon="-0.01316">
        <ele>1470.8</ele>
        <time>2021-10-09T11:16:10</time>
      </trkpt>
      <trkpt lat="42.97665" lon="-0.01315">
        <ele>1471</ele>
        <time>2021-10-09T11:16:11</time>
      </trkpt>
      <trkpt lat="42.97666" lon="-0.01314">
        <ele>1471</ele>
        <time>2021-10-09T11:16:12</time>
      </trkpt>
      <trkpt lat="42.97668" lon="-0.01313">
        <ele>1471.2</ele>
        <time>2021-10-09T11:16:14</time>
      </trkpt>
      <trkpt lat="42.97669" lon="-0.01312">
        <ele>1471.2</ele>
        <time>2021-10-09T11:16:15</time>
      </trkpt>
      <trkpt lat="42.97671" lon="-0.01311">
        <ele>1471.4</ele>
        <time>2021-10-09T11:16:16</time>
      </trkpt>
      <trkpt lat="42.97673" lon="-0.01309">
        <ele>1471.8</ele>
        <time>2021-10-09T11:16:17</time>
      </trkpt>
      <trkpt lat="42.97674" lon="-0.01308">
        <ele>1471.8</ele>
        <time>2021-10-09T11:16:18</time>
      </trkpt>
      <trkpt lat="42.97676" lon="-0.01307">
        <ele>1471.8</ele>
        <time>2021-10-09T11:16:19</time>
      </trkpt>
      <trkpt lat="42.97677" lon="-0.01306">
        <ele>1472</ele>
        <time>2021-10-09T11:16:20</time>
      </trkpt>
      <trkpt lat="42.97679" lon="-0.01305">
        <ele>1472.2</ele>
        <time>2021-10-09T11:16:21</time>
      </trkpt>
      <trkpt lat="42.97681" lon="-0.01304">
        <ele>1472.4</ele>
        <time>2021-10-09T11:16:22</time>
      </trkpt>
      <trkpt lat="42.97682" lon="-0.01302">
        <ele>1472.6</ele>
        <time>2021-10-09T11:16:23</time>
      </trkpt>
      <trkpt lat="42.97684" lon="-0.01301">
        <ele>1472.6</ele>
        <time>2021-10-09T11:16:24</time>
      </trkpt>
      <trkpt lat="42.97685" lon="-0.013">
        <ele>1472.8</ele>
        <time>2021-10-09T11:16:25</time>
      </trkpt>
      <trkpt lat="42.97687" lon="-0.01299">
        <ele>1473</ele>
        <time>2021-10-09T11:16:26</time>
      </trkpt>
      <trkpt lat="42.97688" lon="-0.01298">
        <ele>1473.2</ele>
        <time>2021-10-09T11:16:27</time>
      </trkpt>
      <trkpt lat="42.9769" lon="-0.01296">
        <ele>1473.2</ele>
        <time>2021-10-09T11:16:28</time>
      </trkpt>
      <trkpt lat="42.97691" lon="-0.01295">
        <ele>1473.4</ele>
        <time>2021-10-09T11:16:29</time>
      </trkpt>
      <trkpt lat="42.97693" lon="-0.01293">
        <ele>1473.6</ele>
        <time>2021-10-09T11:16:30</time>
      </trkpt>
      <trkpt lat="42.97694" lon="-0.01292">
        <ele>1473.8</ele>
        <time>2021-10-09T11:16:31</time>
      </trkpt>
      <trkpt lat="42.97695" lon="-0.0129">
        <ele>1474</ele>
        <time>2021-10-09T11:16:32</time>
      </trkpt>
      <trkpt lat="42.97696" lon="-0.01288">
        <ele>1474</ele>
        <time>2021-10-09T11:16:33</time>
      </trkpt>
      <trkpt lat="42.97698" lon="-0.01287">
        <ele>1474.4</ele>
        <time>2021-10-09T11:16:34</time>
      </trkpt>
      <trkpt lat="42.97699" lon="-0.01285">
        <ele>1474.4</ele>
        <time>2021-10-09T11:16:35</time>
      </trkpt>
      <trkpt lat="42.97701" lon="-0.01284">
        <ele>1474.6</ele>
        <time>2021-10-09T11:16:36</time>
      </trkpt>
      <trkpt lat="42.97702" lon="-0.01282">
        <ele>1474.8</ele>
        <time>2021-10-09T11:16:37</time>
      </trkpt>
      <trkpt lat="42.97703" lon="-0.0128">
        <ele>1474.8</ele>
        <time>2021-10-09T11:16:38</time>
      </trkpt>
      <trkpt lat="42.97705" lon="-0.01279">
        <ele>1475.2</ele>
        <time>2021-10-09T11:16:39</time>
      </trkpt>
      <trkpt lat="42.97706" lon="-0.01277">
        <ele>1475.2</ele>
        <time>2021-10-09T11:16:40</time>
      </trkpt>
      <trkpt lat="42.97707" lon="-0.01275">
        <ele>1475.4</ele>
        <time>2021-10-09T11:16:41</time>
      </trkpt>
      <trkpt lat="42.97708" lon="-0.01273">
        <ele>1475.6</ele>
        <time>2021-10-09T11:16:42</time>
      </trkpt>
      <trkpt lat="42.97709" lon="-0.01271">
        <ele>1475.8</ele>
        <time>2021-10-09T11:16:43</time>
      </trkpt>
      <trkpt lat="42.97711" lon="-0.01269">
        <ele>1476</ele>
        <time>2021-10-09T11:16:44</time>
      </trkpt>
      <trkpt lat="42.97712" lon="-0.01268">
        <ele>1476.2</ele>
        <time>2021-10-09T11:16:45</time>
      </trkpt>
      <trkpt lat="42.97713" lon="-0.01266">
        <ele>1476.2</ele>
        <time>2021-10-09T11:16:46</time>
      </trkpt>
      <trkpt lat="42.97714" lon="-0.01264">
        <ele>1476.2</ele>
        <time>2021-10-09T11:16:47</time>
      </trkpt>
      <trkpt lat="42.97715" lon="-0.01263">
        <ele>1476.4</ele>
        <time>2021-10-09T11:16:48</time>
      </trkpt>
      <trkpt lat="42.97717" lon="-0.01261">
        <ele>1476.6</ele>
        <time>2021-10-09T11:16:49</time>
      </trkpt>
      <trkpt lat="42.97718" lon="-0.01259">
        <ele>1476.8</ele>
        <time>2021-10-09T11:16:50</time>
      </trkpt>
      <trkpt lat="42.9772" lon="-0.01257">
        <ele>1477</ele>
        <time>2021-10-09T11:16:51</time>
      </trkpt>
      <trkpt lat="42.9772" lon="-0.01255">
        <ele>1477.2</ele>
        <time>2021-10-09T11:16:52</time>
      </trkpt>
      <trkpt lat="42.97721" lon="-0.01253">
        <ele>1477.4</ele>
        <time>2021-10-09T11:16:53</time>
      </trkpt>
      <trkpt lat="42.97722" lon="-0.01251">
        <ele>1477.6</ele>
        <time>2021-10-09T11:16:54</time>
      </trkpt>
      <trkpt lat="42.97723" lon="-0.01249">
        <ele>1477.6</ele>
        <time>2021-10-09T11:16:55</time>
      </trkpt>
      <trkpt lat="42.97724" lon="-0.01247">
        <ele>1478</ele>
        <time>2021-10-09T11:16:56</time>
      </trkpt>
      <trkpt lat="42.97725" lon="-0.01245">
        <ele>1478</ele>
        <time>2021-10-09T11:16:57</time>
      </trkpt>
      <trkpt lat="42.97727" lon="-0.01243">
        <ele>1478.2</ele>
        <time>2021-10-09T11:16:58</time>
      </trkpt>
      <trkpt lat="42.97728" lon="-0.01241">
        <ele>1478.4</ele>
        <time>2021-10-09T11:16:59</time>
      </trkpt>
      <trkpt lat="42.97729" lon="-0.01239">
        <ele>1478.4</ele>
        <time>2021-10-09T11:17:00</time>
      </trkpt>
      <trkpt lat="42.9773" lon="-0.01237">
        <ele>1478.8</ele>
        <time>2021-10-09T11:17:01</time>
      </trkpt>
      <trkpt lat="42.97731" lon="-0.01235">
        <ele>1479</ele>
        <time>2021-10-09T11:17:02</time>
      </trkpt>
      <trkpt lat="42.97731" lon="-0.01233">
        <ele>1479.2</ele>
        <time>2021-10-09T11:17:03</time>
      </trkpt>
      <trkpt lat="42.97732" lon="-0.01231">
        <ele>1479.2</ele>
        <time>2021-10-09T11:17:04</time>
      </trkpt>
      <trkpt lat="42.97733" lon="-0.01229">
        <ele>1479.6</ele>
        <time>2021-10-09T11:17:05</time>
      </trkpt>
      <trkpt lat="42.97733" lon="-0.01227">
        <ele>1479.6</ele>
        <time>2021-10-09T11:17:06</time>
      </trkpt>
      <trkpt lat="42.97734" lon="-0.01225">
        <ele>1479.6</ele>
        <time>2021-10-09T11:17:07</time>
      </trkpt>
      <trkpt lat="42.97735" lon="-0.01222">
        <ele>1479.8</ele>
        <time>2021-10-09T11:17:08</time>
      </trkpt>
      <trkpt lat="42.97736" lon="-0.0122">
        <ele>1480</ele>
        <time>2021-10-09T11:17:09</time>
      </trkpt>
      <trkpt lat="42.97736" lon="-0.01218">
        <ele>1480.2</ele>
        <time>2021-10-09T11:17:10</time>
      </trkpt>
      <trkpt lat="42.97736" lon="-0.01215">
        <ele>1480.4</ele>
        <time>2021-10-09T11:17:11</time>
      </trkpt>
      <trkpt lat="42.97737" lon="-0.01213">
        <ele>1480.6</ele>
        <time>2021-10-09T11:17:12</time>
      </trkpt>
      <trkpt lat="42.97737" lon="-0.0121">
        <ele>1480.8</ele>
        <time>2021-10-09T11:17:13</time>
      </trkpt>
      <trkpt lat="42.97737" lon="-0.01208">
        <ele>1481</ele>
        <time>2021-10-09T11:17:14</time>
      </trkpt>
      <trkpt lat="42.97737" lon="-0.01206">
        <ele>1481.2</ele>
        <time>2021-10-09T11:17:15</time>
      </trkpt>
      <trkpt lat="42.97737" lon="-0.01204">
        <ele>1481.6</ele>
        <time>2021-10-09T11:17:16</time>
      </trkpt>
      <trkpt lat="42.97737" lon="-0.01201">
        <ele>1481.6</ele>
        <time>2021-10-09T11:17:17</time>
      </trkpt>
      <trkpt lat="42.97737" lon="-0.01199">
        <ele>1481.8</ele>
        <time>2021-10-09T11:17:18</time>
      </trkpt>
      <trkpt lat="42.97737" lon="-0.01197">
        <ele>1482</ele>
        <time>2021-10-09T11:17:19</time>
      </trkpt>
      <trkpt lat="42.97736" lon="-0.01195">
        <ele>1482.2</ele>
        <time>2021-10-09T11:17:20</time>
      </trkpt>
      <trkpt lat="42.97736" lon="-0.01192">
        <ele>1482.4</ele>
        <time>2021-10-09T11:17:21</time>
      </trkpt>
      <trkpt lat="42.97735" lon="-0.0119">
        <ele>1482.6</ele>
        <time>2021-10-09T11:17:22</time>
      </trkpt>
      <trkpt lat="42.97735" lon="-0.01188">
        <ele>1482.8</ele>
        <time>2021-10-09T11:17:23</time>
      </trkpt>
      <trkpt lat="42.97734" lon="-0.01186">
        <ele>1483</ele>
        <time>2021-10-09T11:17:24</time>
      </trkpt>
      <trkpt lat="42.97733" lon="-0.01183">
        <ele>1483.2</ele>
        <time>2021-10-09T11:17:25</time>
      </trkpt>
      <trkpt lat="42.97732" lon="-0.01181">
        <ele>1483.2</ele>
        <time>2021-10-09T11:17:26</time>
      </trkpt>
      <trkpt lat="42.97732" lon="-0.01179">
        <ele>1483.4</ele>
        <time>2021-10-09T11:17:27</time>
      </trkpt>
      <trkpt lat="42.97731" lon="-0.01177">
        <ele>1483.6</ele>
        <time>2021-10-09T11:17:28</time>
      </trkpt>
      <trkpt lat="42.9773" lon="-0.01175">
        <ele>1483.8</ele>
        <time>2021-10-09T11:17:29</time>
      </trkpt>
      <trkpt lat="42.97729" lon="-0.01172">
        <ele>1483.8</ele>
        <time>2021-10-09T11:17:30</time>
      </trkpt>
      <trkpt lat="42.97728" lon="-0.0117">
        <ele>1484</ele>
        <time>2021-10-09T11:17:31</time>
      </trkpt>
      <trkpt lat="42.97727" lon="-0.01168">
        <ele>1484.2</ele>
        <time>2021-10-09T11:17:32</time>
      </trkpt>
      <trkpt lat="42.97726" lon="-0.01166">
        <ele>1484.4</ele>
        <time>2021-10-09T11:17:33</time>
      </trkpt>
      <trkpt lat="42.97725" lon="-0.01164">
        <ele>1484.6</ele>
        <time>2021-10-09T11:17:34</time>
      </trkpt>
      <trkpt lat="42.97724" lon="-0.01161">
        <ele>1484.8</ele>
        <time>2021-10-09T11:17:35</time>
      </trkpt>
      <trkpt lat="42.97724" lon="-0.01159">
        <ele>1485</ele>
        <time>2021-10-09T11:17:36</time>
      </trkpt>
      <trkpt lat="42.97723" lon="-0.01157">
        <ele>1485.2</ele>
        <time>2021-10-09T11:17:37</time>
      </trkpt>
      <trkpt lat="42.97722" lon="-0.01155">
        <ele>1485.2</ele>
        <time>2021-10-09T11:17:38</time>
      </trkpt>
      <trkpt lat="42.97721" lon="-0.01153">
        <ele>1485.4</ele>
        <time>2021-10-09T11:17:39</time>
      </trkpt>
      <trkpt lat="42.9772" lon="-0.01151">
        <ele>1485.6</ele>
        <time>2021-10-09T11:17:40</time>
      </trkpt>
      <trkpt lat="42.97719" lon="-0.01148">
        <ele>1485.8</ele>
        <time>2021-10-09T11:17:41</time>
      </trkpt>
      <trkpt lat="42.97718" lon="-0.01146">
        <ele>1485.8</ele>
        <time>2021-10-09T11:17:42</time>
      </trkpt>
      <trkpt lat="42.97717" lon="-0.01144">
        <ele>1486.2</ele>
        <time>2021-10-09T11:17:43</time>
      </trkpt>
      <trkpt lat="42.97716" lon="-0.01142">
        <ele>1486.4</ele>
        <time>2021-10-09T11:17:44</time>
      </trkpt>
      <trkpt lat="42.97716" lon="-0.01139">
        <ele>1486.4</ele>
        <time>2021-10-09T11:17:45</time>
      </trkpt>
      <trkpt lat="42.97715" lon="-0.01137">
        <ele>1486.6</ele>
        <time>2021-10-09T11:17:46</time>
      </trkpt>
      <trkpt lat="42.97714" lon="-0.01135">
        <ele>1486.6</ele>
        <time>2021-10-09T11:17:47</time>
      </trkpt>
      <trkpt lat="42.97713" lon="-0.01133">
        <ele>1487</ele>
        <time>2021-10-09T11:17:48</time>
      </trkpt>
      <trkpt lat="42.97712" lon="-0.0113">
        <ele>1487.2</ele>
        <time>2021-10-09T11:17:49</time>
      </trkpt>
      <trkpt lat="42.97712" lon="-0.01128">
        <ele>1487.4</ele>
        <time>2021-10-09T11:17:50</time>
      </trkpt>
      <trkpt lat="42.97711" lon="-0.01126">
        <ele>1487.6</ele>
        <time>2021-10-09T11:17:51</time>
      </trkpt>
      <trkpt lat="42.9771" lon="-0.01123">
        <ele>1487.8</ele>
        <time>2021-10-09T11:17:52</time>
      </trkpt>
      <trkpt lat="42.9771" lon="-0.01121">
        <ele>1488</ele>
        <time>2021-10-09T11:17:53</time>
      </trkpt>
      <trkpt lat="42.97709" lon="-0.01118">
        <ele>1488.2</ele>
        <time>2021-10-09T11:17:54</time>
      </trkpt>
      <trkpt lat="42.97708" lon="-0.01116">
        <ele>1488.4</ele>
        <time>2021-10-09T11:17:55</time>
      </trkpt>
      <trkpt lat="42.97708" lon="-0.01114">
        <ele>1488.6</ele>
        <time>2021-10-09T11:17:56</time>
      </trkpt>
      <trkpt lat="42.97707" lon="-0.01111">
        <ele>1488.8</ele>
        <time>2021-10-09T11:17:57</time>
      </trkpt>
      <trkpt lat="42.97707" lon="-0.01109">
        <ele>1488.8</ele>
        <time>2021-10-09T11:17:58</time>
      </trkpt>
      <trkpt lat="42.97707" lon="-0.01106">
        <ele>1489.2</ele>
        <time>2021-10-09T11:17:59</time>
      </trkpt>
      <trkpt lat="42.97706" lon="-0.01104">
        <ele>1489.4</ele>
        <time>2021-10-09T11:18:00</time>
      </trkpt>
      <trkpt lat="42.97706" lon="-0.01102">
        <ele>1489.6</ele>
        <time>2021-10-09T11:18:01</time>
      </trkpt>
      <trkpt lat="42.97705" lon="-0.01099">
        <ele>1489.8</ele>
        <time>2021-10-09T11:18:02</time>
      </trkpt>
      <trkpt lat="42.97705" lon="-0.01097">
        <ele>1490</ele>
        <time>2021-10-09T11:18:03</time>
      </trkpt>
      <trkpt lat="42.97704" lon="-0.01095">
        <ele>1490.2</ele>
        <time>2021-10-09T11:18:04</time>
      </trkpt>
      <trkpt lat="42.97703" lon="-0.01092">
        <ele>1490.2</ele>
        <time>2021-10-09T11:18:05</time>
      </trkpt>
      <trkpt lat="42.97703" lon="-0.0109">
        <ele>1490.6</ele>
        <time>2021-10-09T11:18:06</time>
      </trkpt>
      <trkpt lat="42.97702" lon="-0.01088">
        <ele>1490.6</ele>
        <time>2021-10-09T11:18:07</time>
      </trkpt>
      <trkpt lat="42.97702" lon="-0.01085">
        <ele>1491</ele>
        <time>2021-10-09T11:18:08</time>
      </trkpt>
      <trkpt lat="42.97701" lon="-0.01083">
        <ele>1491</ele>
        <time>2021-10-09T11:18:09</time>
      </trkpt>
      <trkpt lat="42.97701" lon="-0.0108">
        <ele>1491.2</ele>
        <time>2021-10-09T11:18:10</time>
      </trkpt>
      <trkpt lat="42.977" lon="-0.01078">
        <ele>1491.4</ele>
        <time>2021-10-09T11:18:11</time>
      </trkpt>
      <trkpt lat="42.977" lon="-0.01075">
        <ele>1491.6</ele>
        <time>2021-10-09T11:18:12</time>
      </trkpt>
      <trkpt lat="42.97699" lon="-0.01073">
        <ele>1491.8</ele>
        <time>2021-10-09T11:18:13</time>
      </trkpt>
      <trkpt lat="42.97699" lon="-0.01071">
        <ele>1492.2</ele>
        <time>2021-10-09T11:18:14</time>
      </trkpt>
      <trkpt lat="42.97699" lon="-0.01068">
        <ele>1492.2</ele>
        <time>2021-10-09T11:18:15</time>
      </trkpt>
      <trkpt lat="42.97698" lon="-0.01066">
        <ele>1492.4</ele>
        <time>2021-10-09T11:18:16</time>
      </trkpt>
      <trkpt lat="42.97697" lon="-0.01063">
        <ele>1492.6</ele>
        <time>2021-10-09T11:18:17</time>
      </trkpt>
      <trkpt lat="42.97697" lon="-0.01061">
        <ele>1492.8</ele>
        <time>2021-10-09T11:18:18</time>
      </trkpt>
      <trkpt lat="42.97696" lon="-0.01059">
        <ele>1493</ele>
        <time>2021-10-09T11:18:19</time>
      </trkpt>
      <trkpt lat="42.97696" lon="-0.01056">
        <ele>1493</ele>
        <time>2021-10-09T11:18:20</time>
      </trkpt>
      <trkpt lat="42.97695" lon="-0.01054">
        <ele>1493.2</ele>
        <time>2021-10-09T11:18:21</time>
      </trkpt>
      <trkpt lat="42.97694" lon="-0.01051">
        <ele>1493.6</ele>
        <time>2021-10-09T11:18:22</time>
      </trkpt>
      <trkpt lat="42.97694" lon="-0.01049">
        <ele>1493.6</ele>
        <time>2021-10-09T11:18:23</time>
      </trkpt>
      <trkpt lat="42.97693" lon="-0.01047">
        <ele>1493.8</ele>
        <time>2021-10-09T11:18:24</time>
      </trkpt>
      <trkpt lat="42.97693" lon="-0.01044">
        <ele>1494</ele>
        <time>2021-10-09T11:18:25</time>
      </trkpt>
      <trkpt lat="42.97692" lon="-0.01042">
        <ele>1494.2</ele>
        <time>2021-10-09T11:18:26</time>
      </trkpt>
      <trkpt lat="42.97692" lon="-0.01039">
        <ele>1494.4</ele>
        <time>2021-10-09T11:18:27</time>
      </trkpt>
      <trkpt lat="42.97691" lon="-0.01037">
        <ele>1494.4</ele>
        <time>2021-10-09T11:18:28</time>
      </trkpt>
      <trkpt lat="42.97691" lon="-0.01035">
        <ele>1494.8</ele>
        <time>2021-10-09T11:18:29</time>
      </trkpt>
      <trkpt lat="42.9769" lon="-0.01032">
        <ele>1495</ele>
        <time>2021-10-09T11:18:30</time>
      </trkpt>
      <trkpt lat="42.9769" lon="-0.0103">
        <ele>1495.2</ele>
        <time>2021-10-09T11:18:31</time>
      </trkpt>
      <trkpt lat="42.97689" lon="-0.01027">
        <ele>1495.4</ele>
        <time>2021-10-09T11:18:32</time>
      </trkpt>
      <trkpt lat="42.97688" lon="-0.01025">
        <ele>1495.6</ele>
        <time>2021-10-09T11:18:33</time>
      </trkpt>
      <trkpt lat="42.97687" lon="-0.01023">
        <ele>1495.8</ele>
        <time>2021-10-09T11:18:34</time>
      </trkpt>
      <trkpt lat="42.97687" lon="-0.01021">
        <ele>1496</ele>
        <time>2021-10-09T11:18:35</time>
      </trkpt>
      <trkpt lat="42.97686" lon="-0.01018">
        <ele>1496</ele>
        <time>2021-10-09T11:18:36</time>
      </trkpt>
      <trkpt lat="42.97685" lon="-0.01016">
        <ele>1496.4</ele>
        <time>2021-10-09T11:18:37</time>
      </trkpt>
      <trkpt lat="42.97684" lon="-0.01014">
        <ele>1496.6</ele>
        <time>2021-10-09T11:18:38</time>
      </trkpt>
      <trkpt lat="42.97683" lon="-0.01012">
        <ele>1496.6</ele>
        <time>2021-10-09T11:18:39</time>
      </trkpt>
      <trkpt lat="42.97682" lon="-0.0101">
        <ele>1496.8</ele>
        <time>2021-10-09T11:18:40</time>
      </trkpt>
      <trkpt lat="42.97681" lon="-0.01008">
        <ele>1497</ele>
        <time>2021-10-09T11:18:41</time>
      </trkpt>
      <trkpt lat="42.9768" lon="-0.01006">
        <ele>1497</ele>
        <time>2021-10-09T11:18:42</time>
      </trkpt>
      <trkpt lat="42.97678" lon="-0.01003">
        <ele>1497.2</ele>
        <time>2021-10-09T11:18:43</time>
      </trkpt>
      <trkpt lat="42.97677" lon="-0.01001">
        <ele>1497.2</ele>
        <time>2021-10-09T11:18:44</time>
      </trkpt>
      <trkpt lat="42.97676" lon="-0.00999">
        <ele>1497.4</ele>
        <time>2021-10-09T11:18:45</time>
      </trkpt>
      <trkpt lat="42.97675" lon="-0.00997">
        <ele>1497.6</ele>
        <time>2021-10-09T11:18:46</time>
      </trkpt>
      <trkpt lat="42.97674" lon="-0.00995">
        <ele>1497.8</ele>
        <time>2021-10-09T11:18:47</time>
      </trkpt>
      <trkpt lat="42.97672" lon="-0.00993">
        <ele>1497.8</ele>
        <time>2021-10-09T11:18:48</time>
      </trkpt>
      <trkpt lat="42.97671" lon="-0.00991">
        <ele>1498</ele>
        <time>2021-10-09T11:18:49</time>
      </trkpt>
      <trkpt lat="42.9767" lon="-0.00988">
        <ele>1498.2</ele>
        <time>2021-10-09T11:18:50</time>
      </trkpt>
      <trkpt lat="42.97669" lon="-0.00986">
        <ele>1498.2</ele>
        <time>2021-10-09T11:18:51</time>
      </trkpt>
      <trkpt lat="42.97668" lon="-0.00984">
        <ele>1498.4</ele>
        <time>2021-10-09T11:18:52</time>
      </trkpt>
      <trkpt lat="42.97667" lon="-0.00981">
        <ele>1498.6</ele>
        <time>2021-10-09T11:18:53</time>
      </trkpt>
      <trkpt lat="42.97665" lon="-0.00979">
        <ele>1498.6</ele>
        <time>2021-10-09T11:18:54</time>
      </trkpt>
      <trkpt lat="42.97664" lon="-0.00976">
        <ele>1498.8</ele>
        <time>2021-10-09T11:18:55</time>
      </trkpt>
      <trkpt lat="42.97664" lon="-0.00974">
        <ele>1498.8</ele>
        <time>2021-10-09T11:18:56</time>
      </trkpt>
      <trkpt lat="42.97662" lon="-0.00968">
        <ele>1499</ele>
        <time>2021-10-09T11:18:58</time>
      </trkpt>
      <trkpt lat="42.97661" lon="-0.00966">
        <ele>1499.2</ele>
        <time>2021-10-09T11:18:59</time>
      </trkpt>
      <trkpt lat="42.97661" lon="-0.00963">
        <ele>1499.2</ele>
        <time>2021-10-09T11:19:00</time>
      </trkpt>
      <trkpt lat="42.97661" lon="-0.0096">
        <ele>1499.4</ele>
        <time>2021-10-09T11:19:01</time>
      </trkpt>
      <trkpt lat="42.97661" lon="-0.00956">
        <ele>1499.4</ele>
        <time>2021-10-09T11:19:02</time>
      </trkpt>
      <trkpt lat="42.97661" lon="-0.00953">
        <ele>1499.4</ele>
        <time>2021-10-09T11:19:03</time>
      </trkpt>
      <trkpt lat="42.97661" lon="-0.0095">
        <ele>1499.6</ele>
        <time>2021-10-09T11:19:04</time>
      </trkpt>
      <trkpt lat="42.97662" lon="-0.00947">
        <ele>1499.6</ele>
        <time>2021-10-09T11:19:05</time>
      </trkpt>
      <trkpt lat="42.97662" lon="-0.00944">
        <ele>1499.6</ele>
        <time>2021-10-09T11:19:06</time>
      </trkpt>
      <trkpt lat="42.97663" lon="-0.00942">
        <ele>1499.6</ele>
        <time>2021-10-09T11:19:07</time>
      </trkpt>
      <trkpt lat="42.97664" lon="-0.00939">
        <ele>1499.6</ele>
        <time>2021-10-09T11:19:08</time>
      </trkpt>
      <trkpt lat="42.97665" lon="-0.00936">
        <ele>1499.8</ele>
        <time>2021-10-09T11:19:09</time>
      </trkpt>
      <trkpt lat="42.97667" lon="-0.00934">
        <ele>1500</ele>
        <time>2021-10-09T11:19:10</time>
      </trkpt>
      <trkpt lat="42.97668" lon="-0.00932">
        <ele>1500</ele>
        <time>2021-10-09T11:19:11</time>
      </trkpt>
      <trkpt lat="42.9767" lon="-0.0093">
        <ele>1500</ele>
        <time>2021-10-09T11:19:12</time>
      </trkpt>
      <trkpt lat="42.97671" lon="-0.00928">
        <ele>1500.4</ele>
        <time>2021-10-09T11:19:13</time>
      </trkpt>
      <trkpt lat="42.97673" lon="-0.00926">
        <ele>1500.4</ele>
        <time>2021-10-09T11:19:14</time>
      </trkpt>
      <trkpt lat="42.97674" lon="-0.00924">
        <ele>1500.6</ele>
        <time>2021-10-09T11:19:15</time>
      </trkpt>
      <trkpt lat="42.97676" lon="-0.00923">
        <ele>1500.6</ele>
        <time>2021-10-09T11:19:16</time>
      </trkpt>
      <trkpt lat="42.97677" lon="-0.00921">
        <ele>1500.6</ele>
        <time>2021-10-09T11:19:17</time>
      </trkpt>
      <trkpt lat="42.97679" lon="-0.00919">
        <ele>1501</ele>
        <time>2021-10-09T11:19:18</time>
      </trkpt>
      <trkpt lat="42.97681" lon="-0.00918">
        <ele>1501</ele>
        <time>2021-10-09T11:19:19</time>
      </trkpt>
      <trkpt lat="42.97682" lon="-0.00917">
        <ele>1501.2</ele>
        <time>2021-10-09T11:19:20</time>
      </trkpt>
      <trkpt lat="42.97683" lon="-0.00915">
        <ele>1501.4</ele>
        <time>2021-10-09T11:19:21</time>
      </trkpt>
      <trkpt lat="42.97684" lon="-0.00912">
        <ele>1501.4</ele>
        <time>2021-10-09T11:19:22</time>
      </trkpt>
      <trkpt lat="42.97684" lon="-0.00909">
        <ele>1501.6</ele>
        <time>2021-10-09T11:19:23</time>
      </trkpt>
      <trkpt lat="42.97684" lon="-0.00906">
        <ele>1501.8</ele>
        <time>2021-10-09T11:19:24</time>
      </trkpt>
      <trkpt lat="42.97684" lon="-0.00903">
        <ele>1502.2</ele>
        <time>2021-10-09T11:19:25</time>
      </trkpt>
      <trkpt lat="42.97683" lon="-0.009">
        <ele>1502.4</ele>
        <time>2021-10-09T11:19:26</time>
      </trkpt>
      <trkpt lat="42.97683" lon="-0.00897">
        <ele>1502.8</ele>
        <time>2021-10-09T11:19:27</time>
      </trkpt>
      <trkpt lat="42.97683" lon="-0.00895">
        <ele>1503.2</ele>
        <time>2021-10-09T11:19:28</time>
      </trkpt>
      <trkpt lat="42.97683" lon="-0.00892">
        <ele>1503.6</ele>
        <time>2021-10-09T11:19:29</time>
      </trkpt>
      <trkpt lat="42.97683" lon="-0.0089">
        <ele>1504</ele>
        <time>2021-10-09T11:19:30</time>
      </trkpt>
      <trkpt lat="42.97682" lon="-0.00888">
        <ele>1504.2</ele>
        <time>2021-10-09T11:19:31</time>
      </trkpt>
      <trkpt lat="42.97682" lon="-0.00885">
        <ele>1504.6</ele>
        <time>2021-10-09T11:19:32</time>
      </trkpt>
      <trkpt lat="42.97681" lon="-0.00883">
        <ele>1505</ele>
        <time>2021-10-09T11:19:33</time>
      </trkpt>
      <trkpt lat="42.97681" lon="-0.00881">
        <ele>1505.2</ele>
        <time>2021-10-09T11:19:34</time>
      </trkpt>
      <trkpt lat="42.9768" lon="-0.00879">
        <ele>1505.6</ele>
        <time>2021-10-09T11:19:35</time>
      </trkpt>
      <trkpt lat="42.97679" lon="-0.00876">
        <ele>1505.8</ele>
        <time>2021-10-09T11:19:36</time>
      </trkpt>
      <trkpt lat="42.97679" lon="-0.00874">
        <ele>1506.2</ele>
        <time>2021-10-09T11:19:37</time>
      </trkpt>
      <trkpt lat="42.97678" lon="-0.00872">
        <ele>1506.6</ele>
        <time>2021-10-09T11:19:38</time>
      </trkpt>
      <trkpt lat="42.97677" lon="-0.0087">
        <ele>1506.8</ele>
        <time>2021-10-09T11:19:39</time>
      </trkpt>
      <trkpt lat="42.97676" lon="-0.00868">
        <ele>1507.2</ele>
        <time>2021-10-09T11:19:40</time>
      </trkpt>
      <trkpt lat="42.97675" lon="-0.00867">
        <ele>1507.4</ele>
        <time>2021-10-09T11:19:41</time>
      </trkpt>
      <trkpt lat="42.97674" lon="-0.00865">
        <ele>1507.6</ele>
        <time>2021-10-09T11:19:42</time>
      </trkpt>
      <trkpt lat="42.97672" lon="-0.00864">
        <ele>1508</ele>
        <time>2021-10-09T11:19:43</time>
      </trkpt>
      <trkpt lat="42.97671" lon="-0.00862">
        <ele>1508.2</ele>
        <time>2021-10-09T11:19:44</time>
      </trkpt>
      <trkpt lat="42.9767" lon="-0.0086">
        <ele>1508.4</ele>
        <time>2021-10-09T11:19:45</time>
      </trkpt>
      <trkpt lat="42.97669" lon="-0.00859">
        <ele>1508.8</ele>
        <time>2021-10-09T11:19:46</time>
      </trkpt>
      <trkpt lat="42.97668" lon="-0.00857">
        <ele>1509</ele>
        <time>2021-10-09T11:19:47</time>
      </trkpt>
      <trkpt lat="42.97667" lon="-0.00856">
        <ele>1509.2</ele>
        <time>2021-10-09T11:19:48</time>
      </trkpt>
      <trkpt lat="42.97666" lon="-0.00854">
        <ele>1509.4</ele>
        <time>2021-10-09T11:19:49</time>
      </trkpt>
      <trkpt lat="42.97664" lon="-0.00852">
        <ele>1509.6</ele>
        <time>2021-10-09T11:19:50</time>
      </trkpt>
      <trkpt lat="42.97662" lon="-0.00851">
        <ele>1509.8</ele>
        <time>2021-10-09T11:19:51</time>
      </trkpt>
      <trkpt lat="42.97661" lon="-0.00851">
        <ele>1510</ele>
        <time>2021-10-09T11:19:52</time>
      </trkpt>
      <trkpt lat="42.97659" lon="-0.0085">
        <ele>1510.2</ele>
        <time>2021-10-09T11:19:53</time>
      </trkpt>
      <trkpt lat="42.97657" lon="-0.0085">
        <ele>1510.2</ele>
        <time>2021-10-09T11:19:54</time>
      </trkpt>
      <trkpt lat="42.97656" lon="-0.00851">
        <ele>1510.2</ele>
        <time>2021-10-09T11:19:55</time>
      </trkpt>
      <trkpt lat="42.97654" lon="-0.00851">
        <ele>1510.4</ele>
        <time>2021-10-09T11:19:56</time>
      </trkpt>
      <trkpt lat="42.97652" lon="-0.00852">
        <ele>1510.4</ele>
        <time>2021-10-09T11:19:57</time>
      </trkpt>
      <trkpt lat="42.9765" lon="-0.00853">
        <ele>1510.6</ele>
        <time>2021-10-09T11:19:58</time>
      </trkpt>
      <trkpt lat="42.97648" lon="-0.00854">
        <ele>1510.6</ele>
        <time>2021-10-09T11:19:59</time>
      </trkpt>
      <trkpt lat="42.97646" lon="-0.00855">
        <ele>1510.8</ele>
        <time>2021-10-09T11:20:00</time>
      </trkpt>
      <trkpt lat="42.97644" lon="-0.00857">
        <ele>1510.8</ele>
        <time>2021-10-09T11:20:01</time>
      </trkpt>
      <trkpt lat="42.97642" lon="-0.00858">
        <ele>1510.8</ele>
        <time>2021-10-09T11:20:02</time>
      </trkpt>
      <trkpt lat="42.97641" lon="-0.0086">
        <ele>1511</ele>
        <time>2021-10-09T11:20:03</time>
      </trkpt>
      <trkpt lat="42.97639" lon="-0.00862">
        <ele>1511.2</ele>
        <time>2021-10-09T11:20:04</time>
      </trkpt>
      <trkpt lat="42.97638" lon="-0.00864">
        <ele>1511.2</ele>
        <time>2021-10-09T11:20:05</time>
      </trkpt>
      <trkpt lat="42.97637" lon="-0.00866">
        <ele>1511.2</ele>
        <time>2021-10-09T11:20:06</time>
      </trkpt>
      <trkpt lat="42.97636" lon="-0.00868">
        <ele>1511.4</ele>
        <time>2021-10-09T11:20:07</time>
      </trkpt>
      <trkpt lat="42.97635" lon="-0.00871">
        <ele>1511.6</ele>
        <time>2021-10-09T11:20:08</time>
      </trkpt>
      <trkpt lat="42.97635" lon="-0.00874">
        <ele>1511.6</ele>
        <time>2021-10-09T11:20:09</time>
      </trkpt>
      <trkpt lat="42.97634" lon="-0.00876">
        <ele>1511.8</ele>
        <time>2021-10-09T11:20:10</time>
      </trkpt>
      <trkpt lat="42.97634" lon="-0.00879">
        <ele>1512</ele>
        <time>2021-10-09T11:20:11</time>
      </trkpt>
      <trkpt lat="42.97633" lon="-0.00881">
        <ele>1512</ele>
        <time>2021-10-09T11:20:12</time>
      </trkpt>
      <trkpt lat="42.97633" lon="-0.00884">
        <ele>1512.2</ele>
        <time>2021-10-09T11:20:13</time>
      </trkpt>
      <trkpt lat="42.97633" lon="-0.00887">
        <ele>1512.4</ele>
        <time>2021-10-09T11:20:14</time>
      </trkpt>
      <trkpt lat="42.97633" lon="-0.00889">
        <ele>1512.6</ele>
        <time>2021-10-09T11:20:15</time>
      </trkpt>
      <trkpt lat="42.97632" lon="-0.00892">
        <ele>1512.8</ele>
        <time>2021-10-09T11:20:16</time>
      </trkpt>
      <trkpt lat="42.97632" lon="-0.00895">
        <ele>1512.8</ele>
        <time>2021-10-09T11:20:17</time>
      </trkpt>
      <trkpt lat="42.97632" lon="-0.00897">
        <ele>1513.2</ele>
        <time>2021-10-09T11:20:18</time>
      </trkpt>
      <trkpt lat="42.97631" lon="-0.009">
        <ele>1513.2</ele>
        <time>2021-10-09T11:20:19</time>
      </trkpt>
      <trkpt lat="42.97631" lon="-0.00903">
        <ele>1513.4</ele>
        <time>2021-10-09T11:20:20</time>
      </trkpt>
      <trkpt lat="42.97631" lon="-0.00906">
        <ele>1513.4</ele>
        <time>2021-10-09T11:20:21</time>
      </trkpt>
      <trkpt lat="42.97631" lon="-0.00908">
        <ele>1513.6</ele>
        <time>2021-10-09T11:20:22</time>
      </trkpt>
      <trkpt lat="42.97631" lon="-0.00911">
        <ele>1513.8</ele>
        <time>2021-10-09T11:20:23</time>
      </trkpt>
      <trkpt lat="42.97631" lon="-0.00914">
        <ele>1514</ele>
        <time>2021-10-09T11:20:24</time>
      </trkpt>
      <trkpt lat="42.97631" lon="-0.00917">
        <ele>1514</ele>
        <time>2021-10-09T11:20:25</time>
      </trkpt>
      <trkpt lat="42.97631" lon="-0.00919">
        <ele>1514.2</ele>
        <time>2021-10-09T11:20:26</time>
      </trkpt>
      <trkpt lat="42.97631" lon="-0.00922">
        <ele>1514.2</ele>
        <time>2021-10-09T11:20:27</time>
      </trkpt>
      <trkpt lat="42.97631" lon="-0.00925">
        <ele>1514.4</ele>
        <time>2021-10-09T11:20:28</time>
      </trkpt>
      <trkpt lat="42.97631" lon="-0.00928">
        <ele>1514.6</ele>
        <time>2021-10-09T11:20:29</time>
      </trkpt>
      <trkpt lat="42.97631" lon="-0.0093">
        <ele>1514.6</ele>
        <time>2021-10-09T11:20:30</time>
      </trkpt>
      <trkpt lat="42.97631" lon="-0.00933">
        <ele>1515</ele>
        <time>2021-10-09T11:20:31</time>
      </trkpt>
      <trkpt lat="42.97631" lon="-0.00936">
        <ele>1515.2</ele>
        <time>2021-10-09T11:20:32</time>
      </trkpt>
      <trkpt lat="42.97631" lon="-0.00939">
        <ele>1515.4</ele>
        <time>2021-10-09T11:20:33</time>
      </trkpt>
      <trkpt lat="42.97631" lon="-0.00942">
        <ele>1515.6</ele>
        <time>2021-10-09T11:20:34</time>
      </trkpt>
      <trkpt lat="42.9763" lon="-0.00945">
        <ele>1515.8</ele>
        <time>2021-10-09T11:20:35</time>
      </trkpt>
      <trkpt lat="42.9763" lon="-0.00947">
        <ele>1515.8</ele>
        <time>2021-10-09T11:20:36</time>
      </trkpt>
      <trkpt lat="42.9763" lon="-0.0095">
        <ele>1516.2</ele>
        <time>2021-10-09T11:20:37</time>
      </trkpt>
      <trkpt lat="42.9763" lon="-0.00953">
        <ele>1516.2</ele>
        <time>2021-10-09T11:20:38</time>
      </trkpt>
      <trkpt lat="42.9763" lon="-0.00956">
        <ele>1516.4</ele>
        <time>2021-10-09T11:20:39</time>
      </trkpt>
      <trkpt lat="42.9763" lon="-0.00959">
        <ele>1516.6</ele>
        <time>2021-10-09T11:20:40</time>
      </trkpt>
      <trkpt lat="42.97629" lon="-0.00962">
        <ele>1516.6</ele>
        <time>2021-10-09T11:20:41</time>
      </trkpt>
      <trkpt lat="42.9763" lon="-0.00965">
        <ele>1516.6</ele>
        <time>2021-10-09T11:20:42</time>
      </trkpt>
      <trkpt lat="42.9763" lon="-0.00968">
        <ele>1516.8</ele>
        <time>2021-10-09T11:20:43</time>
      </trkpt>
      <trkpt lat="42.9763" lon="-0.00971">
        <ele>1517</ele>
        <time>2021-10-09T11:20:44</time>
      </trkpt>
      <trkpt lat="42.9763" lon="-0.00974">
        <ele>1517.2</ele>
        <time>2021-10-09T11:20:45</time>
      </trkpt>
      <trkpt lat="42.97629" lon="-0.00977">
        <ele>1517.2</ele>
        <time>2021-10-09T11:20:46</time>
      </trkpt>
      <trkpt lat="42.97629" lon="-0.0098">
        <ele>1517.4</ele>
        <time>2021-10-09T11:20:47</time>
      </trkpt>
      <trkpt lat="42.97629" lon="-0.00983">
        <ele>1517.6</ele>
        <time>2021-10-09T11:20:48</time>
      </trkpt>
      <trkpt lat="42.97629" lon="-0.00986">
        <ele>1517.8</ele>
        <time>2021-10-09T11:20:49</time>
      </trkpt>
      <trkpt lat="42.97629" lon="-0.0099">
        <ele>1517.8</ele>
        <time>2021-10-09T11:20:50</time>
      </trkpt>
      <trkpt lat="42.97629" lon="-0.00993">
        <ele>1518</ele>
        <time>2021-10-09T11:20:51</time>
      </trkpt>
      <trkpt lat="42.97629" lon="-0.00996">
        <ele>1518.2</ele>
        <time>2021-10-09T11:20:52</time>
      </trkpt>
      <trkpt lat="42.97629" lon="-0.00999">
        <ele>1518.2</ele>
        <time>2021-10-09T11:20:53</time>
      </trkpt>
      <trkpt lat="42.97628" lon="-0.01002">
        <ele>1518.2</ele>
        <time>2021-10-09T11:20:54</time>
      </trkpt>
      <trkpt lat="42.97628" lon="-0.01006">
        <ele>1518.6</ele>
        <time>2021-10-09T11:20:55</time>
      </trkpt>
      <trkpt lat="42.97628" lon="-0.01009">
        <ele>1518.8</ele>
        <time>2021-10-09T11:20:56</time>
      </trkpt>
      <trkpt lat="42.97627" lon="-0.01013">
        <ele>1519</ele>
        <time>2021-10-09T11:20:57</time>
      </trkpt>
      <trkpt lat="42.97627" lon="-0.01017">
        <ele>1519</ele>
        <time>2021-10-09T11:20:58</time>
      </trkpt>
      <trkpt lat="42.97627" lon="-0.01021">
        <ele>1519.2</ele>
        <time>2021-10-09T11:20:59</time>
      </trkpt>
      <trkpt lat="42.97626" lon="-0.01024">
        <ele>1519.2</ele>
        <time>2021-10-09T11:21:00</time>
      </trkpt>
      <trkpt lat="42.97626" lon="-0.01028">
        <ele>1519.4</ele>
        <time>2021-10-09T11:21:01</time>
      </trkpt>
      <trkpt lat="42.97625" lon="-0.01032">
        <ele>1519.4</ele>
        <time>2021-10-09T11:21:02</time>
      </trkpt>
      <trkpt lat="42.97624" lon="-0.01036">
        <ele>1519.4</ele>
        <time>2021-10-09T11:21:03</time>
      </trkpt>
      <trkpt lat="42.97623" lon="-0.0104">
        <ele>1519.4</ele>
        <time>2021-10-09T11:21:04</time>
      </trkpt>
      <trkpt lat="42.97622" lon="-0.01045">
        <ele>1519.6</ele>
        <time>2021-10-09T11:21:05</time>
      </trkpt>
      <trkpt lat="42.97621" lon="-0.01049">
        <ele>1519.6</ele>
        <time>2021-10-09T11:21:06</time>
      </trkpt>
      <trkpt lat="42.97621" lon="-0.01053">
        <ele>1519.8</ele>
        <time>2021-10-09T11:21:07</time>
      </trkpt>
      <trkpt lat="42.9762" lon="-0.01057">
        <ele>1519.6</ele>
        <time>2021-10-09T11:21:08</time>
      </trkpt>
      <trkpt lat="42.97619" lon="-0.0106">
        <ele>1519.8</ele>
        <time>2021-10-09T11:21:09</time>
      </trkpt>
      <trkpt lat="42.97618" lon="-0.01065">
        <ele>1519.8</ele>
        <time>2021-10-09T11:21:10</time>
      </trkpt>
      <trkpt lat="42.97617" lon="-0.01069">
        <ele>1520</ele>
        <time>2021-10-09T11:21:11</time>
      </trkpt>
      <trkpt lat="42.97616" lon="-0.01073">
        <ele>1520</ele>
        <time>2021-10-09T11:21:12</time>
      </trkpt>
      <trkpt lat="42.97615" lon="-0.01077">
        <ele>1520</ele>
        <time>2021-10-09T11:21:13</time>
      </trkpt>
      <trkpt lat="42.97614" lon="-0.01081">
        <ele>1520</ele>
        <time>2021-10-09T11:21:14</time>
      </trkpt>
      <trkpt lat="42.97613" lon="-0.01085">
        <ele>1520</ele>
        <time>2021-10-09T11:21:15</time>
      </trkpt>
      <trkpt lat="42.97613" lon="-0.01089">
        <ele>1520</ele>
        <time>2021-10-09T11:21:16</time>
      </trkpt>
      <trkpt lat="42.97612" lon="-0.01093">
        <ele>1520</ele>
        <time>2021-10-09T11:21:17</time>
      </trkpt>
      <trkpt lat="42.97611" lon="-0.01098">
        <ele>1520.2</ele>
        <time>2021-10-09T11:21:18</time>
      </trkpt>
      <trkpt lat="42.97611" lon="-0.01102">
        <ele>1520.4</ele>
        <time>2021-10-09T11:21:19</time>
      </trkpt>
      <trkpt lat="42.9761" lon="-0.01107">
        <ele>1520.4</ele>
        <time>2021-10-09T11:21:20</time>
      </trkpt>
      <trkpt lat="42.97609" lon="-0.01111">
        <ele>1520.4</ele>
        <time>2021-10-09T11:21:21</time>
      </trkpt>
      <trkpt lat="42.97609" lon="-0.01116">
        <ele>1520.6</ele>
        <time>2021-10-09T11:21:22</time>
      </trkpt>
      <trkpt lat="42.97608" lon="-0.0112">
        <ele>1520.6</ele>
        <time>2021-10-09T11:21:23</time>
      </trkpt>
      <trkpt lat="42.97607" lon="-0.01124">
        <ele>1520.6</ele>
        <time>2021-10-09T11:21:24</time>
      </trkpt>
      <trkpt lat="42.97606" lon="-0.01128">
        <ele>1520.8</ele>
        <time>2021-10-09T11:21:25</time>
      </trkpt>
      <trkpt lat="42.97605" lon="-0.01132">
        <ele>1520.8</ele>
        <time>2021-10-09T11:21:26</time>
      </trkpt>
      <trkpt lat="42.97603" lon="-0.01136">
        <ele>1521.2</ele>
        <time>2021-10-09T11:21:27</time>
      </trkpt>
      <trkpt lat="42.97602" lon="-0.0114">
        <ele>1521.2</ele>
        <time>2021-10-09T11:21:28</time>
      </trkpt>
      <trkpt lat="42.976" lon="-0.01144">
        <ele>1521.4</ele>
        <time>2021-10-09T11:21:29</time>
      </trkpt>
      <trkpt lat="42.97598" lon="-0.01148">
        <ele>1521.2</ele>
        <time>2021-10-09T11:21:30</time>
      </trkpt>
      <trkpt lat="42.97596" lon="-0.01152">
        <ele>1521.4</ele>
        <time>2021-10-09T11:21:31</time>
      </trkpt>
      <trkpt lat="42.97594" lon="-0.01155">
        <ele>1521.6</ele>
        <time>2021-10-09T11:21:32</time>
      </trkpt>
      <trkpt lat="42.97591" lon="-0.01158">
        <ele>1521.6</ele>
        <time>2021-10-09T11:21:33</time>
      </trkpt>
      <trkpt lat="42.97588" lon="-0.0116">
        <ele>1521.4</ele>
        <time>2021-10-09T11:21:34</time>
      </trkpt>
      <trkpt lat="42.97586" lon="-0.01161">
        <ele>1521.4</ele>
        <time>2021-10-09T11:21:35</time>
      </trkpt>
      <trkpt lat="42.97583" lon="-0.01163">
        <ele>1521.6</ele>
        <time>2021-10-09T11:21:36</time>
      </trkpt>
      <trkpt lat="42.97579" lon="-0.01164">
        <ele>1521.6</ele>
        <time>2021-10-09T11:21:37</time>
      </trkpt>
      <trkpt lat="42.97576" lon="-0.01165">
        <ele>1521.6</ele>
        <time>2021-10-09T11:21:38</time>
      </trkpt>
      <trkpt lat="42.97573" lon="-0.01165">
        <ele>1522</ele>
        <time>2021-10-09T11:21:39</time>
      </trkpt>
      <trkpt lat="42.9757" lon="-0.01164">
        <ele>1522</ele>
        <time>2021-10-09T11:21:40</time>
      </trkpt>
      <trkpt lat="42.97567" lon="-0.01164">
        <ele>1522.4</ele>
        <time>2021-10-09T11:21:41</time>
      </trkpt>
      <trkpt lat="42.97564" lon="-0.01163">
        <ele>1522.6</ele>
        <time>2021-10-09T11:21:42</time>
      </trkpt>
      <trkpt lat="42.97561" lon="-0.01161">
        <ele>1522.8</ele>
        <time>2021-10-09T11:21:43</time>
      </trkpt>
      <trkpt lat="42.97558" lon="-0.01159">
        <ele>1523</ele>
        <time>2021-10-09T11:21:44</time>
      </trkpt>
      <trkpt lat="42.97556" lon="-0.01158">
        <ele>1523</ele>
        <time>2021-10-09T11:21:45</time>
      </trkpt>
      <trkpt lat="42.97554" lon="-0.01156">
        <ele>1523.2</ele>
        <time>2021-10-09T11:21:46</time>
      </trkpt>
      <trkpt lat="42.97553" lon="-0.01154">
        <ele>1523.6</ele>
        <time>2021-10-09T11:21:47</time>
      </trkpt>
      <trkpt lat="42.97551" lon="-0.01151">
        <ele>1523.6</ele>
        <time>2021-10-09T11:21:48</time>
      </trkpt>
      <trkpt lat="42.9755" lon="-0.01149">
        <ele>1523.8</ele>
        <time>2021-10-09T11:21:49</time>
      </trkpt>
      <trkpt lat="42.97548" lon="-0.01147">
        <ele>1524.2</ele>
        <time>2021-10-09T11:21:50</time>
      </trkpt>
      <trkpt lat="42.97547" lon="-0.01144">
        <ele>1524.4</ele>
        <time>2021-10-09T11:21:51</time>
      </trkpt>
      <trkpt lat="42.97547" lon="-0.01141">
        <ele>1524.6</ele>
        <time>2021-10-09T11:21:52</time>
      </trkpt>
      <trkpt lat="42.97546" lon="-0.01139">
        <ele>1524.8</ele>
        <time>2021-10-09T11:21:53</time>
      </trkpt>
      <trkpt lat="42.97545" lon="-0.01136">
        <ele>1525</ele>
        <time>2021-10-09T11:21:54</time>
      </trkpt>
      <trkpt lat="42.97545" lon="-0.01133">
        <ele>1525.2</ele>
        <time>2021-10-09T11:21:55</time>
      </trkpt>
      <trkpt lat="42.97544" lon="-0.0113">
        <ele>1525.4</ele>
        <time>2021-10-09T11:21:56</time>
      </trkpt>
      <trkpt lat="42.97544" lon="-0.01127">
        <ele>1525.8</ele>
        <time>2021-10-09T11:21:57</time>
      </trkpt>
      <trkpt lat="42.97544" lon="-0.01125">
        <ele>1526</ele>
        <time>2021-10-09T11:21:58</time>
      </trkpt>
      <trkpt lat="42.97544" lon="-0.01122">
        <ele>1526.2</ele>
        <time>2021-10-09T11:21:59</time>
      </trkpt>
      <trkpt lat="42.97544" lon="-0.01119">
        <ele>1526.4</ele>
        <time>2021-10-09T11:22:00</time>
      </trkpt>
      <trkpt lat="42.97544" lon="-0.01116">
        <ele>1526.6</ele>
        <time>2021-10-09T11:22:01</time>
      </trkpt>
      <trkpt lat="42.97544" lon="-0.01113">
        <ele>1527</ele>
        <time>2021-10-09T11:22:02</time>
      </trkpt>
      <trkpt lat="42.97544" lon="-0.0111">
        <ele>1527</ele>
        <time>2021-10-09T11:22:03</time>
      </trkpt>
      <trkpt lat="42.97545" lon="-0.01108">
        <ele>1527.2</ele>
        <time>2021-10-09T11:22:04</time>
      </trkpt>
      <trkpt lat="42.97545" lon="-0.01105">
        <ele>1527.6</ele>
        <time>2021-10-09T11:22:05</time>
      </trkpt>
      <trkpt lat="42.97545" lon="-0.01103">
        <ele>1527.8</ele>
        <time>2021-10-09T11:22:06</time>
      </trkpt>
      <trkpt lat="42.97545" lon="-0.011">
        <ele>1528</ele>
        <time>2021-10-09T11:22:07</time>
      </trkpt>
      <trkpt lat="42.97545" lon="-0.01097">
        <ele>1528.2</ele>
        <time>2021-10-09T11:22:08</time>
      </trkpt>
      <trkpt lat="42.97545" lon="-0.01095">
        <ele>1528.4</ele>
        <time>2021-10-09T11:22:09</time>
      </trkpt>
      <trkpt lat="42.97545" lon="-0.01092">
        <ele>1528.6</ele>
        <time>2021-10-09T11:22:10</time>
      </trkpt>
      <trkpt lat="42.97544" lon="-0.0109">
        <ele>1529</ele>
        <time>2021-10-09T11:22:11</time>
      </trkpt>
      <trkpt lat="42.97544" lon="-0.01087">
        <ele>1529.2</ele>
        <time>2021-10-09T11:22:12</time>
      </trkpt>
      <trkpt lat="42.97543" lon="-0.01085">
        <ele>1529.4</ele>
        <time>2021-10-09T11:22:13</time>
      </trkpt>
      <trkpt lat="42.97542" lon="-0.01083">
        <ele>1529.6</ele>
        <time>2021-10-09T11:22:14</time>
      </trkpt>
      <trkpt lat="42.97541" lon="-0.0108">
        <ele>1529.8</ele>
        <time>2021-10-09T11:22:15</time>
      </trkpt>
      <trkpt lat="42.9754" lon="-0.01078">
        <ele>1530</ele>
        <time>2021-10-09T11:22:16</time>
      </trkpt>
      <trkpt lat="42.97539" lon="-0.01076">
        <ele>1530.2</ele>
        <time>2021-10-09T11:22:17</time>
      </trkpt>
      <trkpt lat="42.97538" lon="-0.01074">
        <ele>1530.4</ele>
        <time>2021-10-09T11:22:18</time>
      </trkpt>
      <trkpt lat="42.97536" lon="-0.01072">
        <ele>1530.6</ele>
        <time>2021-10-09T11:22:19</time>
      </trkpt>
      <trkpt lat="42.97535" lon="-0.0107">
        <ele>1530.8</ele>
        <time>2021-10-09T11:22:20</time>
      </trkpt>
      <trkpt lat="42.97533" lon="-0.01068">
        <ele>1531</ele>
        <time>2021-10-09T11:22:21</time>
      </trkpt>
      <trkpt lat="42.97532" lon="-0.01066">
        <ele>1531</ele>
        <time>2021-10-09T11:22:22</time>
      </trkpt>
      <trkpt lat="42.9753" lon="-0.01064">
        <ele>1531.2</ele>
        <time>2021-10-09T11:22:23</time>
      </trkpt>
      <trkpt lat="42.97529" lon="-0.01062">
        <ele>1531.2</ele>
        <time>2021-10-09T11:22:24</time>
      </trkpt>
      <trkpt lat="42.97527" lon="-0.0106">
        <ele>1531.6</ele>
        <time>2021-10-09T11:22:25</time>
      </trkpt>
      <trkpt lat="42.97525" lon="-0.01058">
        <ele>1531.6</ele>
        <time>2021-10-09T11:22:26</time>
      </trkpt>
      <trkpt lat="42.97524" lon="-0.01056">
        <ele>1531.8</ele>
        <time>2021-10-09T11:22:27</time>
      </trkpt>
      <trkpt lat="42.97522" lon="-0.01054">
        <ele>1532</ele>
        <time>2021-10-09T11:22:28</time>
      </trkpt>
      <trkpt lat="42.9752" lon="-0.01052">
        <ele>1532.2</ele>
        <time>2021-10-09T11:22:29</time>
      </trkpt>
      <trkpt lat="42.97518" lon="-0.0105">
        <ele>1532.4</ele>
        <time>2021-10-09T11:22:30</time>
      </trkpt>
      <trkpt lat="42.97516" lon="-0.01047">
        <ele>1532.6</ele>
        <time>2021-10-09T11:22:31</time>
      </trkpt>
      <trkpt lat="42.97514" lon="-0.01045">
        <ele>1532.8</ele>
        <time>2021-10-09T11:22:32</time>
      </trkpt>
      <trkpt lat="42.97512" lon="-0.01043">
        <ele>1532.8</ele>
        <time>2021-10-09T11:22:33</time>
      </trkpt>
      <trkpt lat="42.9751" lon="-0.0104">
        <ele>1533</ele>
        <time>2021-10-09T11:22:34</time>
      </trkpt>
      <trkpt lat="42.97507" lon="-0.01038">
        <ele>1533.2</ele>
        <time>2021-10-09T11:22:35</time>
      </trkpt>
      <trkpt lat="42.97505" lon="-0.01036">
        <ele>1533.4</ele>
        <time>2021-10-09T11:22:36</time>
      </trkpt>
      <trkpt lat="42.97503" lon="-0.01034">
        <ele>1533.6</ele>
        <time>2021-10-09T11:22:37</time>
      </trkpt>
      <trkpt lat="42.975" lon="-0.01032">
        <ele>1533.8</ele>
        <time>2021-10-09T11:22:38</time>
      </trkpt>
      <trkpt lat="42.97498" lon="-0.0103">
        <ele>1534</ele>
        <time>2021-10-09T11:22:39</time>
      </trkpt>
      <trkpt lat="42.97495" lon="-0.01028">
        <ele>1534.2</ele>
        <time>2021-10-09T11:22:40</time>
      </trkpt>
      <trkpt lat="42.97493" lon="-0.01026">
        <ele>1534.6</ele>
        <time>2021-10-09T11:22:41</time>
      </trkpt>
      <trkpt lat="42.97491" lon="-0.01024">
        <ele>1534.4</ele>
        <time>2021-10-09T11:22:42</time>
      </trkpt>
      <trkpt lat="42.97488" lon="-0.01022">
        <ele>1534.4</ele>
        <time>2021-10-09T11:22:43</time>
      </trkpt>
      <trkpt lat="42.97486" lon="-0.01019">
        <ele>1534.6</ele>
        <time>2021-10-09T11:22:44</time>
      </trkpt>
      <trkpt lat="42.97484" lon="-0.01017">
        <ele>1534.8</ele>
        <time>2021-10-09T11:22:45</time>
      </trkpt>
      <trkpt lat="42.97481" lon="-0.01015">
        <ele>1535</ele>
        <time>2021-10-09T11:22:46</time>
      </trkpt>
      <trkpt lat="42.97479" lon="-0.01013">
        <ele>1535.2</ele>
        <time>2021-10-09T11:22:47</time>
      </trkpt>
      <trkpt lat="42.97476" lon="-0.0101">
        <ele>1535.2</ele>
        <time>2021-10-09T11:22:48</time>
      </trkpt>
      <trkpt lat="42.97473" lon="-0.01008">
        <ele>1535.4</ele>
        <time>2021-10-09T11:22:49</time>
      </trkpt>
      <trkpt lat="42.97471" lon="-0.01005">
        <ele>1535.6</ele>
        <time>2021-10-09T11:22:50</time>
      </trkpt>
      <trkpt lat="42.97468" lon="-0.01003">
        <ele>1535.8</ele>
        <time>2021-10-09T11:22:51</time>
      </trkpt>
      <trkpt lat="42.97466" lon="-0.01">
        <ele>1535.8</ele>
        <time>2021-10-09T11:22:52</time>
      </trkpt>
      <trkpt lat="42.97464" lon="-0.00998">
        <ele>1536</ele>
        <time>2021-10-09T11:22:53</time>
      </trkpt>
      <trkpt lat="42.97461" lon="-0.00995">
        <ele>1536</ele>
        <time>2021-10-09T11:22:54</time>
      </trkpt>
      <trkpt lat="42.97459" lon="-0.00993">
        <ele>1536.2</ele>
        <time>2021-10-09T11:22:55</time>
      </trkpt>
      <trkpt lat="42.97456" lon="-0.0099">
        <ele>1536.4</ele>
        <time>2021-10-09T11:22:56</time>
      </trkpt>
      <trkpt lat="42.97453" lon="-0.00988">
        <ele>1536.6</ele>
        <time>2021-10-09T11:22:57</time>
      </trkpt>
      <trkpt lat="42.97451" lon="-0.00986">
        <ele>1536.6</ele>
        <time>2021-10-09T11:22:58</time>
      </trkpt>
      <trkpt lat="42.97449" lon="-0.00983">
        <ele>1537</ele>
        <time>2021-10-09T11:22:59</time>
      </trkpt>
      <trkpt lat="42.97446" lon="-0.00981">
        <ele>1537</ele>
        <time>2021-10-09T11:23:00</time>
      </trkpt>
      <trkpt lat="42.97444" lon="-0.00979">
        <ele>1537.2</ele>
        <time>2021-10-09T11:23:01</time>
      </trkpt>
      <trkpt lat="42.97441" lon="-0.00977">
        <ele>1537.4</ele>
        <time>2021-10-09T11:23:02</time>
      </trkpt>
      <trkpt lat="42.97439" lon="-0.00975">
        <ele>1537.4</ele>
        <time>2021-10-09T11:23:03</time>
      </trkpt>
      <trkpt lat="42.97437" lon="-0.00972">
        <ele>1537.6</ele>
        <time>2021-10-09T11:23:04</time>
      </trkpt>
      <trkpt lat="42.97434" lon="-0.0097">
        <ele>1537.8</ele>
        <time>2021-10-09T11:23:05</time>
      </trkpt>
      <trkpt lat="42.97432" lon="-0.00968">
        <ele>1538</ele>
        <time>2021-10-09T11:23:06</time>
      </trkpt>
      <trkpt lat="42.9743" lon="-0.00966">
        <ele>1538.2</ele>
        <time>2021-10-09T11:23:07</time>
      </trkpt>
      <trkpt lat="42.97428" lon="-0.00963">
        <ele>1538.4</ele>
        <time>2021-10-09T11:23:08</time>
      </trkpt>
      <trkpt lat="42.97426" lon="-0.0096">
        <ele>1538.4</ele>
        <time>2021-10-09T11:23:09</time>
      </trkpt>
      <trkpt lat="42.97424" lon="-0.00957">
        <ele>1538.6</ele>
        <time>2021-10-09T11:23:10</time>
      </trkpt>
      <trkpt lat="42.97422" lon="-0.00954">
        <ele>1538.8</ele>
        <time>2021-10-09T11:23:11</time>
      </trkpt>
      <trkpt lat="42.9742" lon="-0.00951">
        <ele>1538.8</ele>
        <time>2021-10-09T11:23:12</time>
      </trkpt>
      <trkpt lat="42.97418" lon="-0.00948">
        <ele>1539</ele>
        <time>2021-10-09T11:23:13</time>
      </trkpt>
      <trkpt lat="42.97416" lon="-0.00945">
        <ele>1539.2</ele>
        <time>2021-10-09T11:23:14</time>
      </trkpt>
      <trkpt lat="42.97415" lon="-0.00942">
        <ele>1539.4</ele>
        <time>2021-10-09T11:23:15</time>
      </trkpt>
      <trkpt lat="42.97414" lon="-0.00939">
        <ele>1539.4</ele>
        <time>2021-10-09T11:23:16</time>
      </trkpt>
      <trkpt lat="42.97414" lon="-0.00935">
        <ele>1539.6</ele>
        <time>2021-10-09T11:23:17</time>
      </trkpt>
      <trkpt lat="42.97415" lon="-0.00932">
        <ele>1539.8</ele>
        <time>2021-10-09T11:23:18</time>
      </trkpt>
      <trkpt lat="42.97417" lon="-0.0093">
        <ele>1540</ele>
        <time>2021-10-09T11:23:19</time>
      </trkpt>
      <trkpt lat="42.97419" lon="-0.00929">
        <ele>1540.4</ele>
        <time>2021-10-09T11:23:20</time>
      </trkpt>
      <trkpt lat="42.97422" lon="-0.0093">
        <ele>1540.6</ele>
        <time>2021-10-09T11:23:21</time>
      </trkpt>
      <trkpt lat="42.97424" lon="-0.00931">
        <ele>1541</ele>
        <time>2021-10-09T11:23:22</time>
      </trkpt>
      <trkpt lat="42.97426" lon="-0.00932">
        <ele>1541</ele>
        <time>2021-10-09T11:23:23</time>
      </trkpt>
      <trkpt lat="42.97428" lon="-0.00933">
        <ele>1541.2</ele>
        <time>2021-10-09T11:23:24</time>
      </trkpt>
      <trkpt lat="42.9743" lon="-0.00934">
        <ele>1541.4</ele>
        <time>2021-10-09T11:23:25</time>
      </trkpt>
      <trkpt lat="42.97432" lon="-0.00935">
        <ele>1541.6</ele>
        <time>2021-10-09T11:23:26</time>
      </trkpt>
      <trkpt lat="42.97434" lon="-0.00936">
        <ele>1541.6</ele>
        <time>2021-10-09T11:23:27</time>
      </trkpt>
      <trkpt lat="42.97435" lon="-0.00938">
        <ele>1541.8</ele>
        <time>2021-10-09T11:23:28</time>
      </trkpt>
      <trkpt lat="42.97437" lon="-0.00939">
        <ele>1542.2</ele>
        <time>2021-10-09T11:23:29</time>
      </trkpt>
      <trkpt lat="42.97439" lon="-0.0094">
        <ele>1542.2</ele>
        <time>2021-10-09T11:23:30</time>
      </trkpt>
      <trkpt lat="42.97441" lon="-0.00941">
        <ele>1542.4</ele>
        <time>2021-10-09T11:23:31</time>
      </trkpt>
      <trkpt lat="42.97443" lon="-0.00942">
        <ele>1542.6</ele>
        <time>2021-10-09T11:23:32</time>
      </trkpt>
      <trkpt lat="42.97445" lon="-0.00942">
        <ele>1542.8</ele>
        <time>2021-10-09T11:23:33</time>
      </trkpt>
      <trkpt lat="42.97447" lon="-0.00943">
        <ele>1543</ele>
        <time>2021-10-09T11:23:34</time>
      </trkpt>
      <trkpt lat="42.97449" lon="-0.00944">
        <ele>1543</ele>
        <time>2021-10-09T11:23:35</time>
      </trkpt>
      <trkpt lat="42.9745" lon="-0.00945">
        <ele>1543.4</ele>
        <time>2021-10-09T11:23:36</time>
      </trkpt>
      <trkpt lat="42.97452" lon="-0.00945">
        <ele>1543.4</ele>
        <time>2021-10-09T11:23:37</time>
      </trkpt>
      <trkpt lat="42.97454" lon="-0.00946">
        <ele>1543.8</ele>
        <time>2021-10-09T11:23:38</time>
      </trkpt>
      <trkpt lat="42.97456" lon="-0.00947">
        <ele>1544</ele>
        <time>2021-10-09T11:23:39</time>
      </trkpt>
      <trkpt lat="42.97458" lon="-0.00947">
        <ele>1544</ele>
        <time>2021-10-09T11:23:40</time>
      </trkpt>
      <trkpt lat="42.9746" lon="-0.00948">
        <ele>1544.2</ele>
        <time>2021-10-09T11:23:41</time>
      </trkpt>
      <trkpt lat="42.97462" lon="-0.00948">
        <ele>1544.2</ele>
        <time>2021-10-09T11:23:42</time>
      </trkpt>
      <trkpt lat="42.97464" lon="-0.00948">
        <ele>1544.6</ele>
        <time>2021-10-09T11:23:43</time>
      </trkpt>
      <trkpt lat="42.97466" lon="-0.00948">
        <ele>1545</ele>
        <time>2021-10-09T11:23:44</time>
      </trkpt>
      <trkpt lat="42.97467" lon="-0.00948">
        <ele>1545</ele>
        <time>2021-10-09T11:23:45</time>
      </trkpt>
      <trkpt lat="42.97469" lon="-0.00947">
        <ele>1545.2</ele>
        <time>2021-10-09T11:23:46</time>
      </trkpt>
      <trkpt lat="42.97471" lon="-0.00947">
        <ele>1545.4</ele>
        <time>2021-10-09T11:23:47</time>
      </trkpt>
      <trkpt lat="42.97473" lon="-0.00946">
        <ele>1545.6</ele>
        <time>2021-10-09T11:23:48</time>
      </trkpt>
      <trkpt lat="42.97475" lon="-0.00945">
        <ele>1545.8</ele>
        <time>2021-10-09T11:23:49</time>
      </trkpt>
      <trkpt lat="42.97476" lon="-0.00944">
        <ele>1546</ele>
        <time>2021-10-09T11:23:50</time>
      </trkpt>
      <trkpt lat="42.97478" lon="-0.00944">
        <ele>1546.2</ele>
        <time>2021-10-09T11:23:51</time>
      </trkpt>
      <trkpt lat="42.9748" lon="-0.00943">
        <ele>1546.4</ele>
        <time>2021-10-09T11:23:52</time>
      </trkpt>
      <trkpt lat="42.97482" lon="-0.00942">
        <ele>1546.6</ele>
        <time>2021-10-09T11:23:53</time>
      </trkpt>
      <trkpt lat="42.97484" lon="-0.00941">
        <ele>1546.8</ele>
        <time>2021-10-09T11:23:54</time>
      </trkpt>
      <trkpt lat="42.97485" lon="-0.0094">
        <ele>1546.8</ele>
        <time>2021-10-09T11:23:55</time>
      </trkpt>
      <trkpt lat="42.97487" lon="-0.00939">
        <ele>1547</ele>
        <time>2021-10-09T11:23:56</time>
      </trkpt>
      <trkpt lat="42.97488" lon="-0.00937">
        <ele>1547.2</ele>
        <time>2021-10-09T11:23:57</time>
      </trkpt>
      <trkpt lat="42.9749" lon="-0.00936">
        <ele>1547.6</ele>
        <time>2021-10-09T11:23:58</time>
      </trkpt>
      <trkpt lat="42.97492" lon="-0.00935">
        <ele>1547.8</ele>
        <time>2021-10-09T11:23:59</time>
      </trkpt>
      <trkpt lat="42.97493" lon="-0.00934">
        <ele>1548</ele>
        <time>2021-10-09T11:24:00</time>
      </trkpt>
      <trkpt lat="42.97495" lon="-0.00933">
        <ele>1548.2</ele>
        <time>2021-10-09T11:24:01</time>
      </trkpt>
      <trkpt lat="42.97496" lon="-0.00932">
        <ele>1548.4</ele>
        <time>2021-10-09T11:24:02</time>
      </trkpt>
      <trkpt lat="42.97498" lon="-0.00931">
        <ele>1548.6</ele>
        <time>2021-10-09T11:24:03</time>
      </trkpt>
      <trkpt lat="42.975" lon="-0.00929">
        <ele>1548.8</ele>
        <time>2021-10-09T11:24:04</time>
      </trkpt>
      <trkpt lat="42.97501" lon="-0.00928">
        <ele>1549</ele>
        <time>2021-10-09T11:24:05</time>
      </trkpt>
      <trkpt lat="42.97503" lon="-0.00926">
        <ele>1549.2</ele>
        <time>2021-10-09T11:24:06</time>
      </trkpt>
      <trkpt lat="42.97504" lon="-0.00925">
        <ele>1549.4</ele>
        <time>2021-10-09T11:24:07</time>
      </trkpt>
      <trkpt lat="42.97505" lon="-0.00923">
        <ele>1549.6</ele>
        <time>2021-10-09T11:24:08</time>
      </trkpt>
      <trkpt lat="42.97507" lon="-0.00922">
        <ele>1549.8</ele>
        <time>2021-10-09T11:24:09</time>
      </trkpt>
      <trkpt lat="42.97508" lon="-0.0092">
        <ele>1550</ele>
        <time>2021-10-09T11:24:10</time>
      </trkpt>
      <trkpt lat="42.9751" lon="-0.00919">
        <ele>1550.2</ele>
        <time>2021-10-09T11:24:11</time>
      </trkpt>
      <trkpt lat="42.97511" lon="-0.00917">
        <ele>1550.4</ele>
        <time>2021-10-09T11:24:12</time>
      </trkpt>
      <trkpt lat="42.97512" lon="-0.00915">
        <ele>1550.4</ele>
        <time>2021-10-09T11:24:13</time>
      </trkpt>
      <trkpt lat="42.97514" lon="-0.00914">
        <ele>1550.8</ele>
        <time>2021-10-09T11:24:14</time>
      </trkpt>
      <trkpt lat="42.97515" lon="-0.00912">
        <ele>1551</ele>
        <time>2021-10-09T11:24:15</time>
      </trkpt>
      <trkpt lat="42.97516" lon="-0.0091">
        <ele>1551.2</ele>
        <time>2021-10-09T11:24:16</time>
      </trkpt>
      <trkpt lat="42.97518" lon="-0.00909">
        <ele>1551.6</ele>
        <time>2021-10-09T11:24:17</time>
      </trkpt>
      <trkpt lat="42.97519" lon="-0.00907">
        <ele>1551.8</ele>
        <time>2021-10-09T11:24:18</time>
      </trkpt>
      <trkpt lat="42.9752" lon="-0.00905">
        <ele>1552</ele>
        <time>2021-10-09T11:24:19</time>
      </trkpt>
      <trkpt lat="42.97522" lon="-0.00904">
        <ele>1552</ele>
        <time>2021-10-09T11:24:20</time>
      </trkpt>
      <trkpt lat="42.97523" lon="-0.00902">
        <ele>1552.2</ele>
        <time>2021-10-09T11:24:21</time>
      </trkpt>
      <trkpt lat="42.97524" lon="-0.009">
        <ele>1552.4</ele>
        <time>2021-10-09T11:24:22</time>
      </trkpt>
      <trkpt lat="42.97526" lon="-0.00899">
        <ele>1552.6</ele>
        <time>2021-10-09T11:24:23</time>
      </trkpt>
      <trkpt lat="42.97527" lon="-0.00897">
        <ele>1553</ele>
        <time>2021-10-09T11:24:24</time>
      </trkpt>
      <trkpt lat="42.97528" lon="-0.00895">
        <ele>1553</ele>
        <time>2021-10-09T11:24:25</time>
      </trkpt>
      <trkpt lat="42.97529" lon="-0.00893">
        <ele>1553.2</ele>
        <time>2021-10-09T11:24:26</time>
      </trkpt>
      <trkpt lat="42.9753" lon="-0.00892">
        <ele>1553.6</ele>
        <time>2021-10-09T11:24:27</time>
      </trkpt>
      <trkpt lat="42.97531" lon="-0.0089">
        <ele>1553.8</ele>
        <time>2021-10-09T11:24:28</time>
      </trkpt>
      <trkpt lat="42.97532" lon="-0.00888">
        <ele>1554</ele>
        <time>2021-10-09T11:24:29</time>
      </trkpt>
      <trkpt lat="42.97533" lon="-0.00885">
        <ele>1554.2</ele>
        <time>2021-10-09T11:24:30</time>
      </trkpt>
      <trkpt lat="42.97534" lon="-0.00883">
        <ele>1554.4</ele>
        <time>2021-10-09T11:24:31</time>
      </trkpt>
      <trkpt lat="42.97535" lon="-0.00881">
        <ele>1554.6</ele>
        <time>2021-10-09T11:24:32</time>
      </trkpt>
      <trkpt lat="42.97535" lon="-0.00879">
        <ele>1554.6</ele>
        <time>2021-10-09T11:24:33</time>
      </trkpt>
      <trkpt lat="42.97536" lon="-0.00876">
        <ele>1555</ele>
        <time>2021-10-09T11:24:34</time>
      </trkpt>
      <trkpt lat="42.97536" lon="-0.00874">
        <ele>1555.2</ele>
        <time>2021-10-09T11:24:35</time>
      </trkpt>
      <trkpt lat="42.97536" lon="-0.00871">
        <ele>1555.4</ele>
        <time>2021-10-09T11:24:36</time>
      </trkpt>
      <trkpt lat="42.97536" lon="-0.00869">
        <ele>1555.6</ele>
        <time>2021-10-09T11:24:37</time>
      </trkpt>
      <trkpt lat="42.97536" lon="-0.00867">
        <ele>1555.8</ele>
        <time>2021-10-09T11:24:38</time>
      </trkpt>
      <trkpt lat="42.97535" lon="-0.00865">
        <ele>1556</ele>
        <time>2021-10-09T11:24:39</time>
      </trkpt>
      <trkpt lat="42.97535" lon="-0.00863">
        <ele>1556.4</ele>
        <time>2021-10-09T11:24:40</time>
      </trkpt>
      <trkpt lat="42.97534" lon="-0.0086">
        <ele>1556.6</ele>
        <time>2021-10-09T11:24:41</time>
      </trkpt>
      <trkpt lat="42.97533" lon="-0.00858">
        <ele>1557</ele>
        <time>2021-10-09T11:24:42</time>
      </trkpt>
      <trkpt lat="42.97532" lon="-0.00857">
        <ele>1557</ele>
        <time>2021-10-09T11:24:43</time>
      </trkpt>
      <trkpt lat="42.97531" lon="-0.00855">
        <ele>1557.2</ele>
        <time>2021-10-09T11:24:44</time>
      </trkpt>
      <trkpt lat="42.97529" lon="-0.00854">
        <ele>1557.4</ele>
        <time>2021-10-09T11:24:45</time>
      </trkpt>
      <trkpt lat="42.97528" lon="-0.00853">
        <ele>1557.6</ele>
        <time>2021-10-09T11:24:46</time>
      </trkpt>
      <trkpt lat="42.97526" lon="-0.00852">
        <ele>1557.8</ele>
        <time>2021-10-09T11:24:47</time>
      </trkpt>
      <trkpt lat="42.97525" lon="-0.00851">
        <ele>1558</ele>
        <time>2021-10-09T11:24:48</time>
      </trkpt>
      <trkpt lat="42.97523" lon="-0.0085">
        <ele>1558.2</ele>
        <time>2021-10-09T11:24:49</time>
      </trkpt>
      <trkpt lat="42.97521" lon="-0.0085">
        <ele>1558.4</ele>
        <time>2021-10-09T11:24:50</time>
      </trkpt>
      <trkpt lat="42.9752" lon="-0.0085">
        <ele>1558.6</ele>
        <time>2021-10-09T11:24:51</time>
      </trkpt>
      <trkpt lat="42.97518" lon="-0.0085">
        <ele>1558.6</ele>
        <time>2021-10-09T11:24:52</time>
      </trkpt>
      <trkpt lat="42.97516" lon="-0.0085">
        <ele>1558.8</ele>
        <time>2021-10-09T11:24:53</time>
      </trkpt>
      <trkpt lat="42.97514" lon="-0.0085">
        <ele>1559</ele>
        <time>2021-10-09T11:24:54</time>
      </trkpt>
      <trkpt lat="42.97513" lon="-0.0085">
        <ele>1559.2</ele>
        <time>2021-10-09T11:24:55</time>
      </trkpt>
      <trkpt lat="42.97511" lon="-0.0085">
        <ele>1559.4</ele>
        <time>2021-10-09T11:24:56</time>
      </trkpt>
      <trkpt lat="42.97509" lon="-0.0085">
        <ele>1559.6</ele>
        <time>2021-10-09T11:24:57</time>
      </trkpt>
      <trkpt lat="42.97507" lon="-0.00849">
        <ele>1559.6</ele>
        <time>2021-10-09T11:24:58</time>
      </trkpt>
      <trkpt lat="42.97506" lon="-0.00849">
        <ele>1559.8</ele>
        <time>2021-10-09T11:24:59</time>
      </trkpt>
      <trkpt lat="42.97504" lon="-0.00849">
        <ele>1560</ele>
        <time>2021-10-09T11:25:00</time>
      </trkpt>
      <trkpt lat="42.97502" lon="-0.00849">
        <ele>1560</ele>
        <time>2021-10-09T11:25:01</time>
      </trkpt>
      <trkpt lat="42.975" lon="-0.00849">
        <ele>1560.2</ele>
        <time>2021-10-09T11:25:02</time>
      </trkpt>
      <trkpt lat="42.97499" lon="-0.00849">
        <ele>1560.2</ele>
        <time>2021-10-09T11:25:03</time>
      </trkpt>
      <trkpt lat="42.97497" lon="-0.00848">
        <ele>1560.6</ele>
        <time>2021-10-09T11:25:04</time>
      </trkpt>
      <trkpt lat="42.97495" lon="-0.00848">
        <ele>1560.8</ele>
        <time>2021-10-09T11:25:05</time>
      </trkpt>
      <trkpt lat="42.97493" lon="-0.00848">
        <ele>1560.8</ele>
        <time>2021-10-09T11:25:06</time>
      </trkpt>
      <trkpt lat="42.97491" lon="-0.00847">
        <ele>1560.8</ele>
        <time>2021-10-09T11:25:07</time>
      </trkpt>
      <trkpt lat="42.97489" lon="-0.00847">
        <ele>1561</ele>
        <time>2021-10-09T11:25:08</time>
      </trkpt>
      <trkpt lat="42.97488" lon="-0.00846">
        <ele>1561.2</ele>
        <time>2021-10-09T11:25:09</time>
      </trkpt>
      <trkpt lat="42.97486" lon="-0.00846">
        <ele>1561.2</ele>
        <time>2021-10-09T11:25:10</time>
      </trkpt>
      <trkpt lat="42.97484" lon="-0.00845">
        <ele>1561.4</ele>
        <time>2021-10-09T11:25:11</time>
      </trkpt>
      <trkpt lat="42.97482" lon="-0.00845">
        <ele>1561.6</ele>
        <time>2021-10-09T11:25:12</time>
      </trkpt>
      <trkpt lat="42.97481" lon="-0.00845">
        <ele>1561.8</ele>
        <time>2021-10-09T11:25:13</time>
      </trkpt>
      <trkpt lat="42.97479" lon="-0.00845">
        <ele>1562</ele>
        <time>2021-10-09T11:25:14</time>
      </trkpt>
      <trkpt lat="42.97477" lon="-0.00844">
        <ele>1562.2</ele>
        <time>2021-10-09T11:25:15</time>
      </trkpt>
      <trkpt lat="42.97475" lon="-0.00844">
        <ele>1562.2</ele>
        <time>2021-10-09T11:25:16</time>
      </trkpt>
      <trkpt lat="42.97474" lon="-0.00843">
        <ele>1562.4</ele>
        <time>2021-10-09T11:25:17</time>
      </trkpt>
      <trkpt lat="42.97472" lon="-0.00843">
        <ele>1562.6</ele>
        <time>2021-10-09T11:25:18</time>
      </trkpt>
      <trkpt lat="42.9747" lon="-0.00843">
        <ele>1562.8</ele>
        <time>2021-10-09T11:25:19</time>
      </trkpt>
      <trkpt lat="42.97468" lon="-0.00842">
        <ele>1563</ele>
        <time>2021-10-09T11:25:20</time>
      </trkpt>
      <trkpt lat="42.97467" lon="-0.00841">
        <ele>1563.2</ele>
        <time>2021-10-09T11:25:21</time>
      </trkpt>
      <trkpt lat="42.97465" lon="-0.0084">
        <ele>1563.4</ele>
        <time>2021-10-09T11:25:22</time>
      </trkpt>
      <trkpt lat="42.97463" lon="-0.0084">
        <ele>1563.4</ele>
        <time>2021-10-09T11:25:23</time>
      </trkpt>
      <trkpt lat="42.97461" lon="-0.00839">
        <ele>1563.6</ele>
        <time>2021-10-09T11:25:24</time>
      </trkpt>
      <trkpt lat="42.9746" lon="-0.00838">
        <ele>1563.8</ele>
        <time>2021-10-09T11:25:25</time>
      </trkpt>
      <trkpt lat="42.97458" lon="-0.00838">
        <ele>1563.8</ele>
        <time>2021-10-09T11:25:26</time>
      </trkpt>
      <trkpt lat="42.97456" lon="-0.00837">
        <ele>1564.2</ele>
        <time>2021-10-09T11:25:27</time>
      </trkpt>
      <trkpt lat="42.97454" lon="-0.00836">
        <ele>1564.2</ele>
        <time>2021-10-09T11:25:28</time>
      </trkpt>
      <trkpt lat="42.97453" lon="-0.00836">
        <ele>1564.4</ele>
        <time>2021-10-09T11:25:29</time>
      </trkpt>
      <trkpt lat="42.97451" lon="-0.00835">
        <ele>1564.6</ele>
        <time>2021-10-09T11:25:30</time>
      </trkpt>
      <trkpt lat="42.97449" lon="-0.00833">
        <ele>1564.8</ele>
        <time>2021-10-09T11:25:31</time>
      </trkpt>
      <trkpt lat="42.97448" lon="-0.00832">
        <ele>1565</ele>
        <time>2021-10-09T11:25:32</time>
      </trkpt>
      <trkpt lat="42.97447" lon="-0.0083">
        <ele>1565.2</ele>
        <time>2021-10-09T11:25:33</time>
      </trkpt>
      <trkpt lat="42.97445" lon="-0.00829">
        <ele>1565.4</ele>
        <time>2021-10-09T11:25:34</time>
      </trkpt>
      <trkpt lat="42.97444" lon="-0.00828">
        <ele>1565.6</ele>
        <time>2021-10-09T11:25:35</time>
      </trkpt>
      <trkpt lat="42.97442" lon="-0.00827">
        <ele>1565.8</ele>
        <time>2021-10-09T11:25:36</time>
      </trkpt>
      <trkpt lat="42.97441" lon="-0.00825">
        <ele>1566</ele>
        <time>2021-10-09T11:25:37</time>
      </trkpt>
      <trkpt lat="42.97439" lon="-0.00824">
        <ele>1566.2</ele>
        <time>2021-10-09T11:25:38</time>
      </trkpt>
      <trkpt lat="42.97438" lon="-0.00823">
        <ele>1566.4</ele>
        <time>2021-10-09T11:25:39</time>
      </trkpt>
      <trkpt lat="42.97436" lon="-0.00822">
        <ele>1566.6</ele>
        <time>2021-10-09T11:25:40</time>
      </trkpt>
      <trkpt lat="42.97435" lon="-0.0082">
        <ele>1567</ele>
        <time>2021-10-09T11:25:41</time>
      </trkpt>
      <trkpt lat="42.97433" lon="-0.00819">
        <ele>1567</ele>
        <time>2021-10-09T11:25:42</time>
      </trkpt>
      <trkpt lat="42.97432" lon="-0.00818">
        <ele>1567.2</ele>
        <time>2021-10-09T11:25:43</time>
      </trkpt>
      <trkpt lat="42.97431" lon="-0.00816">
        <ele>1567.6</ele>
        <time>2021-10-09T11:25:44</time>
      </trkpt>
      <trkpt lat="42.97429" lon="-0.00815">
        <ele>1567.8</ele>
        <time>2021-10-09T11:25:45</time>
      </trkpt>
      <trkpt lat="42.97428" lon="-0.00814">
        <ele>1568</ele>
        <time>2021-10-09T11:25:46</time>
      </trkpt>
      <trkpt lat="42.97426" lon="-0.00813">
        <ele>1568.2</ele>
        <time>2021-10-09T11:25:47</time>
      </trkpt>
      <trkpt lat="42.97425" lon="-0.00811">
        <ele>1568.4</ele>
        <time>2021-10-09T11:25:48</time>
      </trkpt>
      <trkpt lat="42.97423" lon="-0.00811">
        <ele>1568.6</ele>
        <time>2021-10-09T11:25:49</time>
      </trkpt>
      <trkpt lat="42.97422" lon="-0.0081">
        <ele>1568.8</ele>
        <time>2021-10-09T11:25:50</time>
      </trkpt>
      <trkpt lat="42.9742" lon="-0.00809">
        <ele>1569</ele>
        <time>2021-10-09T11:25:51</time>
      </trkpt>
      <trkpt lat="42.97419" lon="-0.00808">
        <ele>1569.2</ele>
        <time>2021-10-09T11:25:52</time>
      </trkpt>
      <trkpt lat="42.97417" lon="-0.00808">
        <ele>1569.4</ele>
        <time>2021-10-09T11:25:53</time>
      </trkpt>
      <trkpt lat="42.97416" lon="-0.00807">
        <ele>1569.8</ele>
        <time>2021-10-09T11:25:54</time>
      </trkpt>
      <trkpt lat="42.97414" lon="-0.00806">
        <ele>1570</ele>
        <time>2021-10-09T11:25:55</time>
      </trkpt>
      <trkpt lat="42.97413" lon="-0.00805">
        <ele>1570.2</ele>
        <time>2021-10-09T11:25:56</time>
      </trkpt>
      <trkpt lat="42.97411" lon="-0.00804">
        <ele>1570.4</ele>
        <time>2021-10-09T11:25:57</time>
      </trkpt>
      <trkpt lat="42.9741" lon="-0.00803">
        <ele>1570.4</ele>
        <time>2021-10-09T11:25:58</time>
      </trkpt>
      <trkpt lat="42.97408" lon="-0.00802">
        <ele>1570.6</ele>
        <time>2021-10-09T11:25:59</time>
      </trkpt>
      <trkpt lat="42.97407" lon="-0.00801">
        <ele>1571</ele>
        <time>2021-10-09T11:26:00</time>
      </trkpt>
      <trkpt lat="42.97406" lon="-0.00799">
        <ele>1571.2</ele>
        <time>2021-10-09T11:26:01</time>
      </trkpt>
      <trkpt lat="42.97405" lon="-0.00797">
        <ele>1571.2</ele>
        <time>2021-10-09T11:26:02</time>
      </trkpt>
      <trkpt lat="42.97405" lon="-0.00795">
        <ele>1571.4</ele>
        <time>2021-10-09T11:26:03</time>
      </trkpt>
      <trkpt lat="42.97405" lon="-0.00793">
        <ele>1571.6</ele>
        <time>2021-10-09T11:26:04</time>
      </trkpt>
      <trkpt lat="42.97405" lon="-0.00791">
        <ele>1571.6</ele>
        <time>2021-10-09T11:26:05</time>
      </trkpt>
      <trkpt lat="42.97405" lon="-0.00789">
        <ele>1571.8</ele>
        <time>2021-10-09T11:26:06</time>
      </trkpt>
      <trkpt lat="42.97406" lon="-0.00787">
        <ele>1571.8</ele>
        <time>2021-10-09T11:26:07</time>
      </trkpt>
      <trkpt lat="42.97407" lon="-0.00785">
        <ele>1572</ele>
        <time>2021-10-09T11:26:08</time>
      </trkpt>
      <trkpt lat="42.97409" lon="-0.00783">
        <ele>1572</ele>
        <time>2021-10-09T11:26:09</time>
      </trkpt>
      <trkpt lat="42.97411" lon="-0.00782">
        <ele>1572.2</ele>
        <time>2021-10-09T11:26:10</time>
      </trkpt>
      <trkpt lat="42.97412" lon="-0.00781">
        <ele>1572.4</ele>
        <time>2021-10-09T11:26:11</time>
      </trkpt>
      <trkpt lat="42.97414" lon="-0.0078">
        <ele>1572.6</ele>
        <time>2021-10-09T11:26:12</time>
      </trkpt>
      <trkpt lat="42.97416" lon="-0.0078">
        <ele>1572.6</ele>
        <time>2021-10-09T11:26:13</time>
      </trkpt>
      <trkpt lat="42.97418" lon="-0.00779">
        <ele>1572.8</ele>
        <time>2021-10-09T11:26:14</time>
      </trkpt>
      <trkpt lat="42.9742" lon="-0.00779">
        <ele>1573.2</ele>
        <time>2021-10-09T11:26:15</time>
      </trkpt>
      <trkpt lat="42.97422" lon="-0.00778">
        <ele>1573</ele>
        <time>2021-10-09T11:26:16</time>
      </trkpt>
      <trkpt lat="42.97423" lon="-0.00778">
        <ele>1573</ele>
        <time>2021-10-09T11:26:17</time>
      </trkpt>
      <trkpt lat="42.97425" lon="-0.00778">
        <ele>1573.4</ele>
        <time>2021-10-09T11:26:18</time>
      </trkpt>
      <trkpt lat="42.97427" lon="-0.00778">
        <ele>1573.6</ele>
        <time>2021-10-09T11:26:19</time>
      </trkpt>
      <trkpt lat="42.97429" lon="-0.00777">
        <ele>1573.6</ele>
        <time>2021-10-09T11:26:20</time>
      </trkpt>
      <trkpt lat="42.97431" lon="-0.00777">
        <ele>1574</ele>
        <time>2021-10-09T11:26:21</time>
      </trkpt>
      <trkpt lat="42.97432" lon="-0.00776">
        <ele>1574</ele>
        <time>2021-10-09T11:26:22</time>
      </trkpt>
      <trkpt lat="42.97434" lon="-0.00776">
        <ele>1574.2</ele>
        <time>2021-10-09T11:26:23</time>
      </trkpt>
      <trkpt lat="42.97436" lon="-0.00775">
        <ele>1574.2</ele>
        <time>2021-10-09T11:26:24</time>
      </trkpt>
      <trkpt lat="42.97437" lon="-0.00774">
        <ele>1574.4</ele>
        <time>2021-10-09T11:26:25</time>
      </trkpt>
      <trkpt lat="42.97439" lon="-0.00773">
        <ele>1574.6</ele>
        <time>2021-10-09T11:26:26</time>
      </trkpt>
      <trkpt lat="42.97441" lon="-0.00772">
        <ele>1574.8</ele>
        <time>2021-10-09T11:26:27</time>
      </trkpt>
      <trkpt lat="42.97442" lon="-0.00771">
        <ele>1574.8</ele>
        <time>2021-10-09T11:26:28</time>
      </trkpt>
      <trkpt lat="42.97444" lon="-0.0077">
        <ele>1575</ele>
        <time>2021-10-09T11:26:29</time>
      </trkpt>
      <trkpt lat="42.97446" lon="-0.00769">
        <ele>1575.4</ele>
        <time>2021-10-09T11:26:30</time>
      </trkpt>
      <trkpt lat="42.97447" lon="-0.00768">
        <ele>1575.4</ele>
        <time>2021-10-09T11:26:31</time>
      </trkpt>
      <trkpt lat="42.97449" lon="-0.00766">
        <ele>1575.4</ele>
        <time>2021-10-09T11:26:32</time>
      </trkpt>
      <trkpt lat="42.9745" lon="-0.00765">
        <ele>1575.6</ele>
        <time>2021-10-09T11:26:33</time>
      </trkpt>
      <trkpt lat="42.97452" lon="-0.00764">
        <ele>1575.8</ele>
        <time>2021-10-09T11:26:34</time>
      </trkpt>
      <trkpt lat="42.97453" lon="-0.00762">
        <ele>1576</ele>
        <time>2021-10-09T11:26:35</time>
      </trkpt>
      <trkpt lat="42.97455" lon="-0.00761">
        <ele>1576.4</ele>
        <time>2021-10-09T11:26:36</time>
      </trkpt>
      <trkpt lat="42.97456" lon="-0.00759">
        <ele>1576.6</ele>
        <time>2021-10-09T11:26:37</time>
      </trkpt>
      <trkpt lat="42.97457" lon="-0.00758">
        <ele>1576.8</ele>
        <time>2021-10-09T11:26:38</time>
      </trkpt>
      <trkpt lat="42.97458" lon="-0.00756">
        <ele>1576.8</ele>
        <time>2021-10-09T11:26:39</time>
      </trkpt>
      <trkpt lat="42.9746" lon="-0.00755">
        <ele>1577.2</ele>
        <time>2021-10-09T11:26:40</time>
      </trkpt>
      <trkpt lat="42.97461" lon="-0.00753">
        <ele>1577.4</ele>
        <time>2021-10-09T11:26:41</time>
      </trkpt>
      <trkpt lat="42.97462" lon="-0.00751">
        <ele>1577.4</ele>
        <time>2021-10-09T11:26:42</time>
      </trkpt>
      <trkpt lat="42.97463" lon="-0.0075">
        <ele>1577.8</ele>
        <time>2021-10-09T11:26:43</time>
      </trkpt>
      <trkpt lat="42.97464" lon="-0.00748">
        <ele>1578</ele>
        <time>2021-10-09T11:26:44</time>
      </trkpt>
      <trkpt lat="42.97465" lon="-0.00746">
        <ele>1578</ele>
        <time>2021-10-09T11:26:45</time>
      </trkpt>
      <trkpt lat="42.97467" lon="-0.00745">
        <ele>1578.2</ele>
        <time>2021-10-09T11:26:46</time>
      </trkpt>
      <trkpt lat="42.97468" lon="-0.00743">
        <ele>1578.6</ele>
        <time>2021-10-09T11:26:47</time>
      </trkpt>
      <trkpt lat="42.97469" lon="-0.00741">
        <ele>1578.8</ele>
        <time>2021-10-09T11:26:48</time>
      </trkpt>
      <trkpt lat="42.9747" lon="-0.00739">
        <ele>1578.8</ele>
        <time>2021-10-09T11:26:49</time>
      </trkpt>
      <trkpt lat="42.97471" lon="-0.00737">
        <ele>1579</ele>
        <time>2021-10-09T11:26:50</time>
      </trkpt>
      <trkpt lat="42.97472" lon="-0.00735">
        <ele>1579.2</ele>
        <time>2021-10-09T11:26:51</time>
      </trkpt>
      <trkpt lat="42.97473" lon="-0.00733">
        <ele>1579.6</ele>
        <time>2021-10-09T11:26:52</time>
      </trkpt>
      <trkpt lat="42.97474" lon="-0.00732">
        <ele>1579.6</ele>
        <time>2021-10-09T11:26:53</time>
      </trkpt>
      <trkpt lat="42.97475" lon="-0.0073">
        <ele>1579.8</ele>
        <time>2021-10-09T11:26:54</time>
      </trkpt>
      <trkpt lat="42.97476" lon="-0.00728">
        <ele>1580</ele>
        <time>2021-10-09T11:26:55</time>
      </trkpt>
      <trkpt lat="42.97477" lon="-0.00726">
        <ele>1580.2</ele>
        <time>2021-10-09T11:26:56</time>
      </trkpt>
      <trkpt lat="42.97478" lon="-0.00724">
        <ele>1580.4</ele>
        <time>2021-10-09T11:26:57</time>
      </trkpt>
      <trkpt lat="42.97479" lon="-0.00722">
        <ele>1580.6</ele>
        <time>2021-10-09T11:26:58</time>
      </trkpt>
      <trkpt lat="42.9748" lon="-0.0072">
        <ele>1580.8</ele>
        <time>2021-10-09T11:26:59</time>
      </trkpt>
      <trkpt lat="42.97481" lon="-0.00718">
        <ele>1581</ele>
        <time>2021-10-09T11:27:00</time>
      </trkpt>
      <trkpt lat="42.97482" lon="-0.00716">
        <ele>1581</ele>
        <time>2021-10-09T11:27:01</time>
      </trkpt>
      <trkpt lat="42.97483" lon="-0.00714">
        <ele>1581.2</ele>
        <time>2021-10-09T11:27:02</time>
      </trkpt>
      <trkpt lat="42.97484" lon="-0.00712">
        <ele>1581.4</ele>
        <time>2021-10-09T11:27:03</time>
      </trkpt>
      <trkpt lat="42.97485" lon="-0.0071">
        <ele>1581.6</ele>
        <time>2021-10-09T11:27:04</time>
      </trkpt>
      <trkpt lat="42.97486" lon="-0.00708">
        <ele>1581.8</ele>
        <time>2021-10-09T11:27:05</time>
      </trkpt>
      <trkpt lat="42.97487" lon="-0.00707">
        <ele>1581.8</ele>
        <time>2021-10-09T11:27:06</time>
      </trkpt>
      <trkpt lat="42.97489" lon="-0.00705">
        <ele>1582.2</ele>
        <time>2021-10-09T11:27:07</time>
      </trkpt>
      <trkpt lat="42.9749" lon="-0.00703">
        <ele>1582.2</ele>
        <time>2021-10-09T11:27:08</time>
      </trkpt>
      <trkpt lat="42.97492" lon="-0.00702">
        <ele>1582.4</ele>
        <time>2021-10-09T11:27:09</time>
      </trkpt>
      <trkpt lat="42.97493" lon="-0.007">
        <ele>1582.6</ele>
        <time>2021-10-09T11:27:10</time>
      </trkpt>
      <trkpt lat="42.97494" lon="-0.00698">
        <ele>1582.8</ele>
        <time>2021-10-09T11:27:11</time>
      </trkpt>
      <trkpt lat="42.97496" lon="-0.00697">
        <ele>1583.2</ele>
        <time>2021-10-09T11:27:12</time>
      </trkpt>
      <trkpt lat="42.97497" lon="-0.00695">
        <ele>1583.2</ele>
        <time>2021-10-09T11:27:13</time>
      </trkpt>
      <trkpt lat="42.97499" lon="-0.00694">
        <ele>1583.2</ele>
        <time>2021-10-09T11:27:14</time>
      </trkpt>
      <trkpt lat="42.975" lon="-0.00692">
        <ele>1583.4</ele>
        <time>2021-10-09T11:27:15</time>
      </trkpt>
      <trkpt lat="42.97501" lon="-0.0069">
        <ele>1583.6</ele>
        <time>2021-10-09T11:27:16</time>
      </trkpt>
      <trkpt lat="42.97501" lon="-0.00688">
        <ele>1584</ele>
        <time>2021-10-09T11:27:17</time>
      </trkpt>
      <trkpt lat="42.97502" lon="-0.00685">
        <ele>1584</ele>
        <time>2021-10-09T11:27:18</time>
      </trkpt>
      <trkpt lat="42.97501" lon="-0.00683">
        <ele>1584.2</ele>
        <time>2021-10-09T11:27:19</time>
      </trkpt>
      <trkpt lat="42.975" lon="-0.00681">
        <ele>1584.6</ele>
        <time>2021-10-09T11:27:20</time>
      </trkpt>
      <trkpt lat="42.97498" lon="-0.0068">
        <ele>1584.8</ele>
        <time>2021-10-09T11:27:21</time>
      </trkpt>
      <trkpt lat="42.97497" lon="-0.0068">
        <ele>1585</ele>
        <time>2021-10-09T11:27:22</time>
      </trkpt>
      <trkpt lat="42.97495" lon="-0.0068">
        <ele>1585.2</ele>
        <time>2021-10-09T11:27:23</time>
      </trkpt>
      <trkpt lat="42.97493" lon="-0.00681">
        <ele>1585.2</ele>
        <time>2021-10-09T11:27:24</time>
      </trkpt>
      <trkpt lat="42.97492" lon="-0.00683">
        <ele>1585.2</ele>
        <time>2021-10-09T11:27:25</time>
      </trkpt>
      <trkpt lat="42.9749" lon="-0.00684">
        <ele>1585.4</ele>
        <time>2021-10-09T11:27:26</time>
      </trkpt>
      <trkpt lat="42.97489" lon="-0.00686">
        <ele>1585.6</ele>
        <time>2021-10-09T11:27:27</time>
      </trkpt>
      <trkpt lat="42.97487" lon="-0.00687">
        <ele>1585.6</ele>
        <time>2021-10-09T11:27:28</time>
      </trkpt>
      <trkpt lat="42.97485" lon="-0.00689">
        <ele>1585.8</ele>
        <time>2021-10-09T11:27:29</time>
      </trkpt>
      <trkpt lat="42.97484" lon="-0.0069">
        <ele>1585.8</ele>
        <time>2021-10-09T11:27:30</time>
      </trkpt>
      <trkpt lat="42.97482" lon="-0.00692">
        <ele>1586</ele>
        <time>2021-10-09T11:27:31</time>
      </trkpt>
      <trkpt lat="42.97481" lon="-0.00693">
        <ele>1586</ele>
        <time>2021-10-09T11:27:32</time>
      </trkpt>
      <trkpt lat="42.97479" lon="-0.00695">
        <ele>1586.2</ele>
        <time>2021-10-09T11:27:33</time>
      </trkpt>
      <trkpt lat="42.97477" lon="-0.00696">
        <ele>1586.4</ele>
        <time>2021-10-09T11:27:34</time>
      </trkpt>
      <trkpt lat="42.97476" lon="-0.00697">
        <ele>1586.4</ele>
        <time>2021-10-09T11:27:35</time>
      </trkpt>
      <trkpt lat="42.97474" lon="-0.00698">
        <ele>1586.6</ele>
        <time>2021-10-09T11:27:36</time>
      </trkpt>
      <trkpt lat="42.97473" lon="-0.007">
        <ele>1586.8</ele>
        <time>2021-10-09T11:27:37</time>
      </trkpt>
      <trkpt lat="42.97471" lon="-0.00701">
        <ele>1586.8</ele>
        <time>2021-10-09T11:27:38</time>
      </trkpt>
      <trkpt lat="42.97469" lon="-0.00702">
        <ele>1587.2</ele>
        <time>2021-10-09T11:27:39</time>
      </trkpt>
      <trkpt lat="42.97468" lon="-0.00703">
        <ele>1587.2</ele>
        <time>2021-10-09T11:27:40</time>
      </trkpt>
      <trkpt lat="42.97466" lon="-0.00703">
        <ele>1587.6</ele>
        <time>2021-10-09T11:27:41</time>
      </trkpt>
      <trkpt lat="42.97465" lon="-0.00704">
        <ele>1587.6</ele>
        <time>2021-10-09T11:27:42</time>
      </trkpt>
      <trkpt lat="42.97463" lon="-0.00705">
        <ele>1587.8</ele>
        <time>2021-10-09T11:27:43</time>
      </trkpt>
      <trkpt lat="42.97461" lon="-0.00705">
        <ele>1588</ele>
        <time>2021-10-09T11:27:44</time>
      </trkpt>
      <trkpt lat="42.9746" lon="-0.00705">
        <ele>1588.2</ele>
        <time>2021-10-09T11:27:45</time>
      </trkpt>
      <trkpt lat="42.97458" lon="-0.00705">
        <ele>1588.4</ele>
        <time>2021-10-09T11:27:46</time>
      </trkpt>
      <trkpt lat="42.97456" lon="-0.00705">
        <ele>1588.6</ele>
        <time>2021-10-09T11:27:47</time>
      </trkpt>
      <trkpt lat="42.97455" lon="-0.00704">
        <ele>1588.6</ele>
        <time>2021-10-09T11:27:48</time>
      </trkpt>
      <trkpt lat="42.97453" lon="-0.00704">
        <ele>1588.8</ele>
        <time>2021-10-09T11:27:49</time>
      </trkpt>
      <trkpt lat="42.97451" lon="-0.00704">
        <ele>1589</ele>
        <time>2021-10-09T11:27:50</time>
      </trkpt>
      <trkpt lat="42.97449" lon="-0.00704">
        <ele>1589.2</ele>
        <time>2021-10-09T11:27:51</time>
      </trkpt>
      <trkpt lat="42.97448" lon="-0.00704">
        <ele>1589.4</ele>
        <time>2021-10-09T11:27:52</time>
      </trkpt>
      <trkpt lat="42.97446" lon="-0.00704">
        <ele>1589.6</ele>
        <time>2021-10-09T11:27:53</time>
      </trkpt>
      <trkpt lat="42.97444" lon="-0.00704">
        <ele>1589.8</ele>
        <time>2021-10-09T11:27:54</time>
      </trkpt>
      <trkpt lat="42.97443" lon="-0.00704">
        <ele>1590</ele>
        <time>2021-10-09T11:27:55</time>
      </trkpt>
      <trkpt lat="42.97441" lon="-0.00704">
        <ele>1590</ele>
        <time>2021-10-09T11:27:56</time>
      </trkpt>
      <trkpt lat="42.97439" lon="-0.00703">
        <ele>1590.2</ele>
        <time>2021-10-09T11:27:57</time>
      </trkpt>
      <trkpt lat="42.97437" lon="-0.00703">
        <ele>1590.4</ele>
        <time>2021-10-09T11:27:58</time>
      </trkpt>
      <trkpt lat="42.97436" lon="-0.00703">
        <ele>1590.6</ele>
        <time>2021-10-09T11:27:59</time>
      </trkpt>
      <trkpt lat="42.97434" lon="-0.00702">
        <ele>1590.8</ele>
        <time>2021-10-09T11:28:00</time>
      </trkpt>
      <trkpt lat="42.97432" lon="-0.00702">
        <ele>1590.8</ele>
        <time>2021-10-09T11:28:01</time>
      </trkpt>
      <trkpt lat="42.97431" lon="-0.00702">
        <ele>1591.2</ele>
        <time>2021-10-09T11:28:02</time>
      </trkpt>
      <trkpt lat="42.97429" lon="-0.00702">
        <ele>1591.2</ele>
        <time>2021-10-09T11:28:03</time>
      </trkpt>
      <trkpt lat="42.97427" lon="-0.00701">
        <ele>1591.6</ele>
        <time>2021-10-09T11:28:04</time>
      </trkpt>
      <trkpt lat="42.97425" lon="-0.00701">
        <ele>1591.8</ele>
        <time>2021-10-09T11:28:05</time>
      </trkpt>
      <trkpt lat="42.97424" lon="-0.00701">
        <ele>1591.8</ele>
        <time>2021-10-09T11:28:06</time>
      </trkpt>
      <trkpt lat="42.97422" lon="-0.007">
        <ele>1592</ele>
        <time>2021-10-09T11:28:07</time>
      </trkpt>
      <trkpt lat="42.9742" lon="-0.007">
        <ele>1592.4</ele>
        <time>2021-10-09T11:28:08</time>
      </trkpt>
      <trkpt lat="42.97418" lon="-0.007">
        <ele>1592.4</ele>
        <time>2021-10-09T11:28:09</time>
      </trkpt>
      <trkpt lat="42.97417" lon="-0.007">
        <ele>1592.6</ele>
        <time>2021-10-09T11:28:10</time>
      </trkpt>
      <trkpt lat="42.97415" lon="-0.00699">
        <ele>1592.8</ele>
        <time>2021-10-09T11:28:11</time>
      </trkpt>
      <trkpt lat="42.97413" lon="-0.00699">
        <ele>1593</ele>
        <time>2021-10-09T11:28:12</time>
      </trkpt>
      <trkpt lat="42.97412" lon="-0.00699">
        <ele>1593</ele>
        <time>2021-10-09T11:28:13</time>
      </trkpt>
      <trkpt lat="42.9741" lon="-0.00698">
        <ele>1593.4</ele>
        <time>2021-10-09T11:28:14</time>
      </trkpt>
      <trkpt lat="42.97408" lon="-0.00698">
        <ele>1593.6</ele>
        <time>2021-10-09T11:28:15</time>
      </trkpt>
      <trkpt lat="42.97407" lon="-0.00697">
        <ele>1593.6</ele>
        <time>2021-10-09T11:28:16</time>
      </trkpt>
      <trkpt lat="42.97405" lon="-0.00697">
        <ele>1593.8</ele>
        <time>2021-10-09T11:28:17</time>
      </trkpt>
      <trkpt lat="42.97403" lon="-0.00696">
        <ele>1594.2</ele>
        <time>2021-10-09T11:28:18</time>
      </trkpt>
      <trkpt lat="42.97402" lon="-0.00696">
        <ele>1594.4</ele>
        <time>2021-10-09T11:28:19</time>
      </trkpt>
      <trkpt lat="42.974" lon="-0.00695">
        <ele>1594.6</ele>
        <time>2021-10-09T11:28:20</time>
      </trkpt>
      <trkpt lat="42.97399" lon="-0.00694">
        <ele>1594.8</ele>
        <time>2021-10-09T11:28:21</time>
      </trkpt>
      <trkpt lat="42.97397" lon="-0.00694">
        <ele>1595</ele>
        <time>2021-10-09T11:28:22</time>
      </trkpt>
      <trkpt lat="42.97395" lon="-0.00693">
        <ele>1595.2</ele>
        <time>2021-10-09T11:28:23</time>
      </trkpt>
      <trkpt lat="42.97394" lon="-0.00693">
        <ele>1595.4</ele>
        <time>2021-10-09T11:28:24</time>
      </trkpt>
      <trkpt lat="42.97392" lon="-0.00692">
        <ele>1595.6</ele>
        <time>2021-10-09T11:28:25</time>
      </trkpt>
      <trkpt lat="42.97391" lon="-0.00691">
        <ele>1595.8</ele>
        <time>2021-10-09T11:28:26</time>
      </trkpt>
      <trkpt lat="42.97389" lon="-0.0069">
        <ele>1596</ele>
        <time>2021-10-09T11:28:27</time>
      </trkpt>
      <trkpt lat="42.97388" lon="-0.0069">
        <ele>1596.2</ele>
        <time>2021-10-09T11:28:28</time>
      </trkpt>
      <trkpt lat="42.97386" lon="-0.00688">
        <ele>1596.4</ele>
        <time>2021-10-09T11:28:29</time>
      </trkpt>
      <trkpt lat="42.97385" lon="-0.00687">
        <ele>1596.6</ele>
        <time>2021-10-09T11:28:30</time>
      </trkpt>
      <trkpt lat="42.97384" lon="-0.00686">
        <ele>1596.8</ele>
        <time>2021-10-09T11:28:31</time>
      </trkpt>
      <trkpt lat="42.97383" lon="-0.00684">
        <ele>1597</ele>
        <time>2021-10-09T11:28:32</time>
      </trkpt>
      <trkpt lat="42.97381" lon="-0.00683">
        <ele>1597.2</ele>
        <time>2021-10-09T11:28:33</time>
      </trkpt>
      <trkpt lat="42.9738" lon="-0.00682">
        <ele>1597.4</ele>
        <time>2021-10-09T11:28:34</time>
      </trkpt>
      <trkpt lat="42.97379" lon="-0.00681">
        <ele>1597.6</ele>
        <time>2021-10-09T11:28:35</time>
      </trkpt>
      <trkpt lat="42.97377" lon="-0.0068">
        <ele>1597.8</ele>
        <time>2021-10-09T11:28:36</time>
      </trkpt>
      <trkpt lat="42.97376" lon="-0.00678">
        <ele>1598</ele>
        <time>2021-10-09T11:28:37</time>
      </trkpt>
      <trkpt lat="42.97375" lon="-0.00677">
        <ele>1598.2</ele>
        <time>2021-10-09T11:28:38</time>
      </trkpt>
      <trkpt lat="42.97374" lon="-0.00675">
        <ele>1598.4</ele>
        <time>2021-10-09T11:28:39</time>
      </trkpt>
      <trkpt lat="42.97373" lon="-0.00674">
        <ele>1598.6</ele>
        <time>2021-10-09T11:28:40</time>
      </trkpt>
      <trkpt lat="42.97372" lon="-0.00673">
        <ele>1598.8</ele>
        <time>2021-10-09T11:28:41</time>
      </trkpt>
      <trkpt lat="42.9737" lon="-0.00672">
        <ele>1599</ele>
        <time>2021-10-09T11:28:42</time>
      </trkpt>
      <trkpt lat="42.97369" lon="-0.00671">
        <ele>1599.2</ele>
        <time>2021-10-09T11:28:43</time>
      </trkpt>
      <trkpt lat="42.97368" lon="-0.0067">
        <ele>1599.4</ele>
        <time>2021-10-09T11:28:44</time>
      </trkpt>
      <trkpt lat="42.97367" lon="-0.00669">
        <ele>1599.6</ele>
        <time>2021-10-09T11:28:45</time>
      </trkpt>
      <trkpt lat="42.97365" lon="-0.00668">
        <ele>1599.6</ele>
        <time>2021-10-09T11:28:46</time>
      </trkpt>
      <trkpt lat="42.97364" lon="-0.00667">
        <ele>1600</ele>
        <time>2021-10-09T11:28:47</time>
      </trkpt>
      <trkpt lat="42.97363" lon="-0.00666">
        <ele>1600</ele>
        <time>2021-10-09T11:28:48</time>
      </trkpt>
      <trkpt lat="42.97362" lon="-0.00665">
        <ele>1600.2</ele>
        <time>2021-10-09T11:28:49</time>
      </trkpt>
      <trkpt lat="42.97361" lon="-0.00663">
        <ele>1600.4</ele>
        <time>2021-10-09T11:28:50</time>
      </trkpt>
      <trkpt lat="42.9736" lon="-0.00661">
        <ele>1600.6</ele>
        <time>2021-10-09T11:28:51</time>
      </trkpt>
      <trkpt lat="42.97359" lon="-0.0066">
        <ele>1600.8</ele>
        <time>2021-10-09T11:28:52</time>
      </trkpt>
      <trkpt lat="42.97358" lon="-0.00659">
        <ele>1601.2</ele>
        <time>2021-10-09T11:28:53</time>
      </trkpt>
      <trkpt lat="42.97357" lon="-0.00657">
        <ele>1601.2</ele>
        <time>2021-10-09T11:28:54</time>
      </trkpt>
      <trkpt lat="42.97356" lon="-0.00656">
        <ele>1601.4</ele>
        <time>2021-10-09T11:28:55</time>
      </trkpt>
      <trkpt lat="42.97355" lon="-0.00655">
        <ele>1601.4</ele>
        <time>2021-10-09T11:28:56</time>
      </trkpt>
      <trkpt lat="42.97354" lon="-0.00654">
        <ele>1601.8</ele>
        <time>2021-10-09T11:28:57</time>
      </trkpt>
      <trkpt lat="42.97354" lon="-0.00652">
        <ele>1602</ele>
        <time>2021-10-09T11:28:58</time>
      </trkpt>
      <trkpt lat="42.97353" lon="-0.00651">
        <ele>1602</ele>
        <time>2021-10-09T11:28:59</time>
      </trkpt>
      <trkpt lat="42.97352" lon="-0.00649">
        <ele>1602.2</ele>
        <time>2021-10-09T11:29:00</time>
      </trkpt>
      <trkpt lat="42.97351" lon="-0.00647">
        <ele>1602.2</ele>
        <time>2021-10-09T11:29:01</time>
      </trkpt>
      <trkpt lat="42.97351" lon="-0.00645">
        <ele>1602.6</ele>
        <time>2021-10-09T11:29:02</time>
      </trkpt>
      <trkpt lat="42.9735" lon="-0.00643">
        <ele>1602.8</ele>
        <time>2021-10-09T11:29:03</time>
      </trkpt>
      <trkpt lat="42.9735" lon="-0.00642">
        <ele>1602.8</ele>
        <time>2021-10-09T11:29:04</time>
      </trkpt>
      <trkpt lat="42.97349" lon="-0.0064">
        <ele>1603</ele>
        <time>2021-10-09T11:29:05</time>
      </trkpt>
      <trkpt lat="42.97348" lon="-0.00638">
        <ele>1603.2</ele>
        <time>2021-10-09T11:29:06</time>
      </trkpt>
      <trkpt lat="42.97348" lon="-0.00636">
        <ele>1603.2</ele>
        <time>2021-10-09T11:29:07</time>
      </trkpt>
      <trkpt lat="42.97347" lon="-0.00634">
        <ele>1603.4</ele>
        <time>2021-10-09T11:29:08</time>
      </trkpt>
      <trkpt lat="42.97347" lon="-0.00632">
        <ele>1603.6</ele>
        <time>2021-10-09T11:29:09</time>
      </trkpt>
      <trkpt lat="42.97346" lon="-0.0063">
        <ele>1603.6</ele>
        <time>2021-10-09T11:29:10</time>
      </trkpt>
      <trkpt lat="42.97346" lon="-0.00628">
        <ele>1603.8</ele>
        <time>2021-10-09T11:29:11</time>
      </trkpt>
      <trkpt lat="42.97346" lon="-0.00626">
        <ele>1604.2</ele>
        <time>2021-10-09T11:29:12</time>
      </trkpt>
      <trkpt lat="42.97345" lon="-0.00624">
        <ele>1604.4</ele>
        <time>2021-10-09T11:29:13</time>
      </trkpt>
      <trkpt lat="42.97344" lon="-0.00622">
        <ele>1604.4</ele>
        <time>2021-10-09T11:29:14</time>
      </trkpt>
      <trkpt lat="42.97344" lon="-0.00621">
        <ele>1604.6</ele>
        <time>2021-10-09T11:29:15</time>
      </trkpt>
      <trkpt lat="42.97343" lon="-0.00619">
        <ele>1604.8</ele>
        <time>2021-10-09T11:29:16</time>
      </trkpt>
      <trkpt lat="42.97343" lon="-0.00617">
        <ele>1605</ele>
        <time>2021-10-09T11:29:17</time>
      </trkpt>
      <trkpt lat="42.97342" lon="-0.00615">
        <ele>1605</ele>
        <time>2021-10-09T11:29:18</time>
      </trkpt>
      <trkpt lat="42.97342" lon="-0.00613">
        <ele>1605.2</ele>
        <time>2021-10-09T11:29:19</time>
      </trkpt>
      <trkpt lat="42.97341" lon="-0.00611">
        <ele>1605.2</ele>
        <time>2021-10-09T11:29:20</time>
      </trkpt>
      <trkpt lat="42.97341" lon="-0.00609">
        <ele>1605.4</ele>
        <time>2021-10-09T11:29:21</time>
      </trkpt>
      <trkpt lat="42.9734" lon="-0.00608">
        <ele>1605.6</ele>
        <time>2021-10-09T11:29:22</time>
      </trkpt>
      <trkpt lat="42.97339" lon="-0.00606">
        <ele>1605.8</ele>
        <time>2021-10-09T11:29:23</time>
      </trkpt>
      <trkpt lat="42.97338" lon="-0.00604">
        <ele>1606</ele>
        <time>2021-10-09T11:29:24</time>
      </trkpt>
      <trkpt lat="42.97337" lon="-0.00603">
        <ele>1606</ele>
        <time>2021-10-09T11:29:25</time>
      </trkpt>
      <trkpt lat="42.97336" lon="-0.00601">
        <ele>1606.2</ele>
        <time>2021-10-09T11:29:26</time>
      </trkpt>
      <trkpt lat="42.97336" lon="-0.006">
        <ele>1606.4</ele>
        <time>2021-10-09T11:29:27</time>
      </trkpt>
      <trkpt lat="42.97335" lon="-0.00598">
        <ele>1606.6</ele>
        <time>2021-10-09T11:29:28</time>
      </trkpt>
      <trkpt lat="42.97334" lon="-0.00596">
        <ele>1606.8</ele>
        <time>2021-10-09T11:29:29</time>
      </trkpt>
      <trkpt lat="42.97333" lon="-0.00595">
        <ele>1607</ele>
        <time>2021-10-09T11:29:30</time>
      </trkpt>
      <trkpt lat="42.97332" lon="-0.00593">
        <ele>1607</ele>
        <time>2021-10-09T11:29:31</time>
      </trkpt>
      <trkpt lat="42.97331" lon="-0.00592">
        <ele>1607.2</ele>
        <time>2021-10-09T11:29:32</time>
      </trkpt>
      <trkpt lat="42.9733" lon="-0.0059">
        <ele>1607.4</ele>
        <time>2021-10-09T11:29:33</time>
      </trkpt>
      <trkpt lat="42.97329" lon="-0.00589">
        <ele>1607.6</ele>
        <time>2021-10-09T11:29:34</time>
      </trkpt>
      <trkpt lat="42.97328" lon="-0.00587">
        <ele>1607.6</ele>
        <time>2021-10-09T11:29:35</time>
      </trkpt>
      <trkpt lat="42.97327" lon="-0.00586">
        <ele>1607.8</ele>
        <time>2021-10-09T11:29:36</time>
      </trkpt>
      <trkpt lat="42.97326" lon="-0.00584">
        <ele>1608</ele>
        <time>2021-10-09T11:29:37</time>
      </trkpt>
      <trkpt lat="42.97325" lon="-0.00583">
        <ele>1608</ele>
        <time>2021-10-09T11:29:38</time>
      </trkpt>
      <trkpt lat="42.97325" lon="-0.00581">
        <ele>1608.2</ele>
        <time>2021-10-09T11:29:39</time>
      </trkpt>
      <trkpt lat="42.97324" lon="-0.00579">
        <ele>1608.4</ele>
        <time>2021-10-09T11:29:40</time>
      </trkpt>
      <trkpt lat="42.97323" lon="-0.00578">
        <ele>1608.4</ele>
        <time>2021-10-09T11:29:41</time>
      </trkpt>
      <trkpt lat="42.97322" lon="-0.00576">
        <ele>1608.6</ele>
        <time>2021-10-09T11:29:42</time>
      </trkpt>
      <trkpt lat="42.97321" lon="-0.00575">
        <ele>1608.8</ele>
        <time>2021-10-09T11:29:43</time>
      </trkpt>
      <trkpt lat="42.9732" lon="-0.00573">
        <ele>1609</ele>
        <time>2021-10-09T11:29:44</time>
      </trkpt>
      <trkpt lat="42.97319" lon="-0.00572">
        <ele>1609.2</ele>
        <time>2021-10-09T11:29:45</time>
      </trkpt>
      <trkpt lat="42.97318" lon="-0.00571">
        <ele>1609.4</ele>
        <time>2021-10-09T11:29:46</time>
      </trkpt>
      <trkpt lat="42.97317" lon="-0.00569">
        <ele>1609.6</ele>
        <time>2021-10-09T11:29:47</time>
      </trkpt>
      <trkpt lat="42.97316" lon="-0.00568">
        <ele>1609.8</ele>
        <time>2021-10-09T11:29:48</time>
      </trkpt>
      <trkpt lat="42.97315" lon="-0.00567">
        <ele>1609.8</ele>
        <time>2021-10-09T11:29:49</time>
      </trkpt>
      <trkpt lat="42.97314" lon="-0.00566">
        <ele>1609.8</ele>
        <time>2021-10-09T11:29:50</time>
      </trkpt>
      <trkpt lat="42.97313" lon="-0.00564">
        <ele>1610</ele>
        <time>2021-10-09T11:29:51</time>
      </trkpt>
      <trkpt lat="42.97312" lon="-0.00563">
        <ele>1610.2</ele>
        <time>2021-10-09T11:29:52</time>
      </trkpt>
      <trkpt lat="42.97311" lon="-0.00562">
        <ele>1610.4</ele>
        <time>2021-10-09T11:29:53</time>
      </trkpt>
      <trkpt lat="42.9731" lon="-0.00561">
        <ele>1610.6</ele>
        <time>2021-10-09T11:29:54</time>
      </trkpt>
      <trkpt lat="42.97309" lon="-0.00559">
        <ele>1610.6</ele>
        <time>2021-10-09T11:29:55</time>
      </trkpt>
      <trkpt lat="42.97308" lon="-0.00558">
        <ele>1610.8</ele>
        <time>2021-10-09T11:29:56</time>
      </trkpt>
      <trkpt lat="42.97307" lon="-0.00557">
        <ele>1611</ele>
        <time>2021-10-09T11:29:57</time>
      </trkpt>
      <trkpt lat="42.97306" lon="-0.00555">
        <ele>1611.2</ele>
        <time>2021-10-09T11:29:58</time>
      </trkpt>
      <trkpt lat="42.97305" lon="-0.00554">
        <ele>1611.2</ele>
        <time>2021-10-09T11:29:59</time>
      </trkpt>
      <trkpt lat="42.97304" lon="-0.00553">
        <ele>1611.4</ele>
        <time>2021-10-09T11:30:00</time>
      </trkpt>
      <trkpt lat="42.97303" lon="-0.00552">
        <ele>1611.6</ele>
        <time>2021-10-09T11:30:01</time>
      </trkpt>
      <trkpt lat="42.97301" lon="-0.00552">
        <ele>1611.8</ele>
        <time>2021-10-09T11:30:02</time>
      </trkpt>
      <trkpt lat="42.973" lon="-0.00551">
        <ele>1612</ele>
        <time>2021-10-09T11:30:03</time>
      </trkpt>
      <trkpt lat="42.97299" lon="-0.0055">
        <ele>1612</ele>
        <time>2021-10-09T11:30:04</time>
      </trkpt>
      <trkpt lat="42.97298" lon="-0.00548">
        <ele>1612.2</ele>
        <time>2021-10-09T11:30:05</time>
      </trkpt>
      <trkpt lat="42.97297" lon="-0.00547">
        <ele>1612.4</ele>
        <time>2021-10-09T11:30:06</time>
      </trkpt>
      <trkpt lat="42.97296" lon="-0.00546">
        <ele>1612.6</ele>
        <time>2021-10-09T11:30:07</time>
      </trkpt>
      <trkpt lat="42.97295" lon="-0.00545">
        <ele>1612.6</ele>
        <time>2021-10-09T11:30:08</time>
      </trkpt>
      <trkpt lat="42.97294" lon="-0.00544">
        <ele>1612.8</ele>
        <time>2021-10-09T11:30:09</time>
      </trkpt>
      <trkpt lat="42.97293" lon="-0.00543">
        <ele>1613</ele>
        <time>2021-10-09T11:30:10</time>
      </trkpt>
      <trkpt lat="42.97291" lon="-0.00542">
        <ele>1613.2</ele>
        <time>2021-10-09T11:30:11</time>
      </trkpt>
      <trkpt lat="42.9729" lon="-0.0054">
        <ele>1613.2</ele>
        <time>2021-10-09T11:30:12</time>
      </trkpt>
      <trkpt lat="42.97289" lon="-0.0054">
        <ele>1613.4</ele>
        <time>2021-10-09T11:30:13</time>
      </trkpt>
      <trkpt lat="42.97288" lon="-0.00538">
        <ele>1613.6</ele>
        <time>2021-10-09T11:30:14</time>
      </trkpt>
      <trkpt lat="42.97287" lon="-0.00537">
        <ele>1613.8</ele>
        <time>2021-10-09T11:30:15</time>
      </trkpt>
      <trkpt lat="42.97285" lon="-0.00536">
        <ele>1614</ele>
        <time>2021-10-09T11:30:16</time>
      </trkpt>
      <trkpt lat="42.97284" lon="-0.00535">
        <ele>1614</ele>
        <time>2021-10-09T11:30:17</time>
      </trkpt>
      <trkpt lat="42.97283" lon="-0.00534">
        <ele>1614.2</ele>
        <time>2021-10-09T11:30:18</time>
      </trkpt>
      <trkpt lat="42.97282" lon="-0.00533">
        <ele>1614.4</ele>
        <time>2021-10-09T11:30:19</time>
      </trkpt>
      <trkpt lat="42.97281" lon="-0.00531">
        <ele>1614.6</ele>
        <time>2021-10-09T11:30:20</time>
      </trkpt>
      <trkpt lat="42.97279" lon="-0.0053">
        <ele>1614.6</ele>
        <time>2021-10-09T11:30:21</time>
      </trkpt>
      <trkpt lat="42.97278" lon="-0.00529">
        <ele>1614.8</ele>
        <time>2021-10-09T11:30:22</time>
      </trkpt>
      <trkpt lat="42.97277" lon="-0.00527">
        <ele>1615</ele>
        <time>2021-10-09T11:30:23</time>
      </trkpt>
      <trkpt lat="42.97276" lon="-0.00526">
        <ele>1615.2</ele>
        <time>2021-10-09T11:30:24</time>
      </trkpt>
      <trkpt lat="42.97275" lon="-0.00525">
        <ele>1615.2</ele>
        <time>2021-10-09T11:30:25</time>
      </trkpt>
      <trkpt lat="42.97274" lon="-0.00523">
        <ele>1615.4</ele>
        <time>2021-10-09T11:30:26</time>
      </trkpt>
      <trkpt lat="42.97273" lon="-0.00522">
        <ele>1615.6</ele>
        <time>2021-10-09T11:30:27</time>
      </trkpt>
      <trkpt lat="42.97272" lon="-0.0052">
        <ele>1615.8</ele>
        <time>2021-10-09T11:30:28</time>
      </trkpt>
      <trkpt lat="42.97271" lon="-0.00519">
        <ele>1615.8</ele>
        <time>2021-10-09T11:30:29</time>
      </trkpt>
      <trkpt lat="42.9727" lon="-0.00518">
        <ele>1616</ele>
        <time>2021-10-09T11:30:30</time>
      </trkpt>
      <trkpt lat="42.97268" lon="-0.00517">
        <ele>1616.2</ele>
        <time>2021-10-09T11:30:31</time>
      </trkpt>
      <trkpt lat="42.97267" lon="-0.00515">
        <ele>1616.2</ele>
        <time>2021-10-09T11:30:32</time>
      </trkpt>
      <trkpt lat="42.97266" lon="-0.00514">
        <ele>1616.4</ele>
        <time>2021-10-09T11:30:33</time>
      </trkpt>
      <trkpt lat="42.97265" lon="-0.00513">
        <ele>1616.6</ele>
        <time>2021-10-09T11:30:34</time>
      </trkpt>
      <trkpt lat="42.97265" lon="-0.00511">
        <ele>1616.8</ele>
        <time>2021-10-09T11:30:35</time>
      </trkpt>
      <trkpt lat="42.97264" lon="-0.0051">
        <ele>1616.8</ele>
        <time>2021-10-09T11:30:36</time>
      </trkpt>
      <trkpt lat="42.97263" lon="-0.00509">
        <ele>1617</ele>
        <time>2021-10-09T11:30:37</time>
      </trkpt>
      <trkpt lat="42.97262" lon="-0.00507">
        <ele>1617.2</ele>
        <time>2021-10-09T11:30:38</time>
      </trkpt>
      <trkpt lat="42.97261" lon="-0.00506">
        <ele>1617.4</ele>
        <time>2021-10-09T11:30:39</time>
      </trkpt>
      <trkpt lat="42.97259" lon="-0.00505">
        <ele>1617.4</ele>
        <time>2021-10-09T11:30:40</time>
      </trkpt>
      <trkpt lat="42.97258" lon="-0.00504">
        <ele>1617.6</ele>
        <time>2021-10-09T11:30:41</time>
      </trkpt>
      <trkpt lat="42.97257" lon="-0.00502">
        <ele>1617.8</ele>
        <time>2021-10-09T11:30:42</time>
      </trkpt>
      <trkpt lat="42.97256" lon="-0.00501">
        <ele>1618</ele>
        <time>2021-10-09T11:30:43</time>
      </trkpt>
      <trkpt lat="42.97255" lon="-0.005">
        <ele>1618.2</ele>
        <time>2021-10-09T11:30:44</time>
      </trkpt>
      <trkpt lat="42.97254" lon="-0.00498">
        <ele>1618.4</ele>
        <time>2021-10-09T11:30:45</time>
      </trkpt>
      <trkpt lat="42.97253" lon="-0.00497">
        <ele>1618.4</ele>
        <time>2021-10-09T11:30:46</time>
      </trkpt>
      <trkpt lat="42.97252" lon="-0.00496">
        <ele>1618.6</ele>
        <time>2021-10-09T11:30:47</time>
      </trkpt>
      <trkpt lat="42.97251" lon="-0.00494">
        <ele>1618.8</ele>
        <time>2021-10-09T11:30:48</time>
      </trkpt>
      <trkpt lat="42.9725" lon="-0.00493">
        <ele>1618.8</ele>
        <time>2021-10-09T11:30:49</time>
      </trkpt>
      <trkpt lat="42.97249" lon="-0.00492">
        <ele>1619</ele>
        <time>2021-10-09T11:30:50</time>
      </trkpt>
      <trkpt lat="42.97248" lon="-0.0049">
        <ele>1619.2</ele>
        <time>2021-10-09T11:30:51</time>
      </trkpt>
      <trkpt lat="42.97247" lon="-0.00489">
        <ele>1619.4</ele>
        <time>2021-10-09T11:30:52</time>
      </trkpt>
      <trkpt lat="42.97246" lon="-0.00488">
        <ele>1619.4</ele>
        <time>2021-10-09T11:30:53</time>
      </trkpt>
      <trkpt lat="42.97245" lon="-0.00486">
        <ele>1619.6</ele>
        <time>2021-10-09T11:30:54</time>
      </trkpt>
      <trkpt lat="42.97244" lon="-0.00485">
        <ele>1619.6</ele>
        <time>2021-10-09T11:30:55</time>
      </trkpt>
      <trkpt lat="42.97242" lon="-0.00484">
        <ele>1619.8</ele>
        <time>2021-10-09T11:30:56</time>
      </trkpt>
      <trkpt lat="42.97241" lon="-0.00482">
        <ele>1620</ele>
        <time>2021-10-09T11:30:57</time>
      </trkpt>
      <trkpt lat="42.9724" lon="-0.0048">
        <ele>1620.2</ele>
        <time>2021-10-09T11:30:58</time>
      </trkpt>
      <trkpt lat="42.97239" lon="-0.00479">
        <ele>1620.2</ele>
        <time>2021-10-09T11:30:59</time>
      </trkpt>
      <trkpt lat="42.97238" lon="-0.00477">
        <ele>1620.4</ele>
        <time>2021-10-09T11:31:00</time>
      </trkpt>
      <trkpt lat="42.97237" lon="-0.00476">
        <ele>1620.6</ele>
        <time>2021-10-09T11:31:01</time>
      </trkpt>
      <trkpt lat="42.97236" lon="-0.00475">
        <ele>1620.6</ele>
        <time>2021-10-09T11:31:02</time>
      </trkpt>
      <trkpt lat="42.97235" lon="-0.00474">
        <ele>1620.8</ele>
        <time>2021-10-09T11:31:03</time>
      </trkpt>
      <trkpt lat="42.97234" lon="-0.00472">
        <ele>1621</ele>
        <time>2021-10-09T11:31:04</time>
      </trkpt>
      <trkpt lat="42.97232" lon="-0.00471">
        <ele>1621.2</ele>
        <time>2021-10-09T11:31:05</time>
      </trkpt>
      <trkpt lat="42.97231" lon="-0.0047">
        <ele>1621.4</ele>
        <time>2021-10-09T11:31:06</time>
      </trkpt>
      <trkpt lat="42.9723" lon="-0.00468">
        <ele>1621.4</ele>
        <time>2021-10-09T11:31:07</time>
      </trkpt>
      <trkpt lat="42.97229" lon="-0.00467">
        <ele>1621.6</ele>
        <time>2021-10-09T11:31:08</time>
      </trkpt>
      <trkpt lat="42.97228" lon="-0.00465">
        <ele>1621.6</ele>
        <time>2021-10-09T11:31:09</time>
      </trkpt>
      <trkpt lat="42.97227" lon="-0.00464">
        <ele>1621.8</ele>
        <time>2021-10-09T11:31:10</time>
      </trkpt>
      <trkpt lat="42.97226" lon="-0.00463">
        <ele>1622</ele>
        <time>2021-10-09T11:31:11</time>
      </trkpt>
      <trkpt lat="42.97225" lon="-0.00461">
        <ele>1622.2</ele>
        <time>2021-10-09T11:31:12</time>
      </trkpt>
      <trkpt lat="42.97224" lon="-0.0046">
        <ele>1622.2</ele>
        <time>2021-10-09T11:31:13</time>
      </trkpt>
      <trkpt lat="42.97223" lon="-0.00458">
        <ele>1622.4</ele>
        <time>2021-10-09T11:31:14</time>
      </trkpt>
      <trkpt lat="42.97222" lon="-0.00457">
        <ele>1622.4</ele>
        <time>2021-10-09T11:31:15</time>
      </trkpt>
      <trkpt lat="42.97221" lon="-0.00456">
        <ele>1622.6</ele>
        <time>2021-10-09T11:31:16</time>
      </trkpt>
      <trkpt lat="42.9722" lon="-0.00455">
        <ele>1622.8</ele>
        <time>2021-10-09T11:31:17</time>
      </trkpt>
      <trkpt lat="42.97219" lon="-0.00453">
        <ele>1623</ele>
        <time>2021-10-09T11:31:18</time>
      </trkpt>
      <trkpt lat="42.97217" lon="-0.00452">
        <ele>1623.2</ele>
        <time>2021-10-09T11:31:19</time>
      </trkpt>
      <trkpt lat="42.97216" lon="-0.00451">
        <ele>1623.2</ele>
        <time>2021-10-09T11:31:20</time>
      </trkpt>
      <trkpt lat="42.97215" lon="-0.00449">
        <ele>1623.4</ele>
        <time>2021-10-09T11:31:21</time>
      </trkpt>
      <trkpt lat="42.97214" lon="-0.00448">
        <ele>1623.4</ele>
        <time>2021-10-09T11:31:22</time>
      </trkpt>
      <trkpt lat="42.97213" lon="-0.00446">
        <ele>1623.8</ele>
        <time>2021-10-09T11:31:23</time>
      </trkpt>
      <trkpt lat="42.97212" lon="-0.00445">
        <ele>1623.8</ele>
        <time>2021-10-09T11:31:24</time>
      </trkpt>
      <trkpt lat="42.97211" lon="-0.00443">
        <ele>1623.8</ele>
        <time>2021-10-09T11:31:25</time>
      </trkpt>
      <trkpt lat="42.9721" lon="-0.00442">
        <ele>1624</ele>
        <time>2021-10-09T11:31:26</time>
      </trkpt>
      <trkpt lat="42.97209" lon="-0.00441">
        <ele>1624.2</ele>
        <time>2021-10-09T11:31:27</time>
      </trkpt>
      <trkpt lat="42.97208" lon="-0.00439">
        <ele>1624.4</ele>
        <time>2021-10-09T11:31:28</time>
      </trkpt>
      <trkpt lat="42.97207" lon="-0.00438">
        <ele>1624.6</ele>
        <time>2021-10-09T11:31:29</time>
      </trkpt>
      <trkpt lat="42.97206" lon="-0.00436">
        <ele>1624.6</ele>
        <time>2021-10-09T11:31:30</time>
      </trkpt>
      <trkpt lat="42.97205" lon="-0.00435">
        <ele>1624.8</ele>
        <time>2021-10-09T11:31:31</time>
      </trkpt>
      <trkpt lat="42.97204" lon="-0.00433">
        <ele>1625</ele>
        <time>2021-10-09T11:31:32</time>
      </trkpt>
      <trkpt lat="42.97203" lon="-0.00432">
        <ele>1625.2</ele>
        <time>2021-10-09T11:31:33</time>
      </trkpt>
      <trkpt lat="42.97202" lon="-0.0043">
        <ele>1625.2</ele>
        <time>2021-10-09T11:31:34</time>
      </trkpt>
      <trkpt lat="42.97201" lon="-0.00429">
        <ele>1625.4</ele>
        <time>2021-10-09T11:31:35</time>
      </trkpt>
      <trkpt lat="42.972" lon="-0.00427">
        <ele>1625.6</ele>
        <time>2021-10-09T11:31:36</time>
      </trkpt>
      <trkpt lat="42.97199" lon="-0.00426">
        <ele>1625.6</ele>
        <time>2021-10-09T11:31:37</time>
      </trkpt>
      <trkpt lat="42.97198" lon="-0.00424">
        <ele>1625.8</ele>
        <time>2021-10-09T11:31:38</time>
      </trkpt>
      <trkpt lat="42.97197" lon="-0.00423">
        <ele>1626</ele>
        <time>2021-10-09T11:31:39</time>
      </trkpt>
      <trkpt lat="42.97196" lon="-0.00421">
        <ele>1626.2</ele>
        <time>2021-10-09T11:31:40</time>
      </trkpt>
      <trkpt lat="42.97195" lon="-0.0042">
        <ele>1626.4</ele>
        <time>2021-10-09T11:31:41</time>
      </trkpt>
      <trkpt lat="42.97193" lon="-0.00419">
        <ele>1626.4</ele>
        <time>2021-10-09T11:31:42</time>
      </trkpt>
      <trkpt lat="42.97192" lon="-0.00417">
        <ele>1626.6</ele>
        <time>2021-10-09T11:31:43</time>
      </trkpt>
      <trkpt lat="42.97191" lon="-0.00416">
        <ele>1626.6</ele>
        <time>2021-10-09T11:31:44</time>
      </trkpt>
      <trkpt lat="42.9719" lon="-0.00414">
        <ele>1626.8</ele>
        <time>2021-10-09T11:31:45</time>
      </trkpt>
      <trkpt lat="42.97189" lon="-0.00412">
        <ele>1627</ele>
        <time>2021-10-09T11:31:46</time>
      </trkpt>
      <trkpt lat="42.97189" lon="-0.00411">
        <ele>1627.2</ele>
        <time>2021-10-09T11:31:47</time>
      </trkpt>
      <trkpt lat="42.97188" lon="-0.00409">
        <ele>1627.4</ele>
        <time>2021-10-09T11:31:48</time>
      </trkpt>
      <trkpt lat="42.97186" lon="-0.00408">
        <ele>1627.4</ele>
        <time>2021-10-09T11:31:49</time>
      </trkpt>
      <trkpt lat="42.97186" lon="-0.00406">
        <ele>1627.6</ele>
        <time>2021-10-09T11:31:50</time>
      </trkpt>
      <trkpt lat="42.97185" lon="-0.00404">
        <ele>1627.6</ele>
        <time>2021-10-09T11:31:51</time>
      </trkpt>
      <trkpt lat="42.97184" lon="-0.00402">
        <ele>1627.8</ele>
        <time>2021-10-09T11:31:52</time>
      </trkpt>
      <trkpt lat="42.97183" lon="-0.004">
        <ele>1628</ele>
        <time>2021-10-09T11:31:53</time>
      </trkpt>
      <trkpt lat="42.97183" lon="-0.00399">
        <ele>1628</ele>
        <time>2021-10-09T11:31:54</time>
      </trkpt>
      <trkpt lat="42.97182" lon="-0.00397">
        <ele>1628.2</ele>
        <time>2021-10-09T11:31:55</time>
      </trkpt>
      <trkpt lat="42.97181" lon="-0.00395">
        <ele>1628.4</ele>
        <time>2021-10-09T11:31:56</time>
      </trkpt>
      <trkpt lat="42.9718" lon="-0.00394">
        <ele>1628.6</ele>
        <time>2021-10-09T11:31:57</time>
      </trkpt>
      <trkpt lat="42.97179" lon="-0.00392">
        <ele>1628.6</ele>
        <time>2021-10-09T11:31:58</time>
      </trkpt>
      <trkpt lat="42.97177" lon="-0.00391">
        <ele>1628.8</ele>
        <time>2021-10-09T11:31:59</time>
      </trkpt>
      <trkpt lat="42.97176" lon="-0.00389">
        <ele>1628.8</ele>
        <time>2021-10-09T11:32:00</time>
      </trkpt>
      <trkpt lat="42.97175" lon="-0.00388">
        <ele>1629</ele>
        <time>2021-10-09T11:32:01</time>
      </trkpt>
      <trkpt lat="42.97174" lon="-0.00386">
        <ele>1629.2</ele>
        <time>2021-10-09T11:32:02</time>
      </trkpt>
      <trkpt lat="42.97173" lon="-0.00384">
        <ele>1629.2</ele>
        <time>2021-10-09T11:32:03</time>
      </trkpt>
      <trkpt lat="42.97172" lon="-0.00382">
        <ele>1629.4</ele>
        <time>2021-10-09T11:32:04</time>
      </trkpt>
      <trkpt lat="42.97171" lon="-0.00381">
        <ele>1629.4</ele>
        <time>2021-10-09T11:32:05</time>
      </trkpt>
      <trkpt lat="42.9717" lon="-0.00379">
        <ele>1629.6</ele>
        <time>2021-10-09T11:32:06</time>
      </trkpt>
      <trkpt lat="42.97169" lon="-0.00377">
        <ele>1629.6</ele>
        <time>2021-10-09T11:32:07</time>
      </trkpt>
      <trkpt lat="42.97168" lon="-0.00375">
        <ele>1629.6</ele>
        <time>2021-10-09T11:32:08</time>
      </trkpt>
      <trkpt lat="42.97167" lon="-0.00374">
        <ele>1629.6</ele>
        <time>2021-10-09T11:32:09</time>
      </trkpt>
      <trkpt lat="42.97166" lon="-0.00372">
        <ele>1629.6</ele>
        <time>2021-10-09T11:32:10</time>
      </trkpt>
      <trkpt lat="42.97165" lon="-0.00371">
        <ele>1629.6</ele>
        <time>2021-10-09T11:32:11</time>
      </trkpt>
      <trkpt lat="42.97164" lon="-0.0037">
        <ele>1629.6</ele>
        <time>2021-10-09T11:32:12</time>
      </trkpt>
      <trkpt lat="42.97163" lon="-0.00368">
        <ele>1629.4</ele>
        <time>2021-10-09T11:32:13</time>
      </trkpt>
      <trkpt lat="42.97162" lon="-0.00367">
        <ele>1629.4</ele>
        <time>2021-10-09T11:32:14</time>
      </trkpt>
      <trkpt lat="42.97161" lon="-0.00365">
        <ele>1629.4</ele>
        <time>2021-10-09T11:32:15</time>
      </trkpt>
      <trkpt lat="42.97159" lon="-0.00364">
        <ele>1629.2</ele>
        <time>2021-10-09T11:32:16</time>
      </trkpt>
      <trkpt lat="42.97157" lon="-0.00362">
        <ele>1629.2</ele>
        <time>2021-10-09T11:32:17</time>
      </trkpt>
      <trkpt lat="42.97155" lon="-0.00361">
        <ele>1629.2</ele>
        <time>2021-10-09T11:32:18</time>
      </trkpt>
      <trkpt lat="42.97153" lon="-0.0036">
        <ele>1629</ele>
        <time>2021-10-09T11:32:19</time>
      </trkpt>
      <trkpt lat="42.97151" lon="-0.00358">
        <ele>1629</ele>
        <time>2021-10-09T11:32:20</time>
      </trkpt>
      <trkpt lat="42.97148" lon="-0.00357">
        <ele>1629</ele>
        <time>2021-10-09T11:32:21</time>
      </trkpt>
      <trkpt lat="42.97146" lon="-0.00355">
        <ele>1629</ele>
        <time>2021-10-09T11:32:22</time>
      </trkpt>
      <trkpt lat="42.97144" lon="-0.00353">
        <ele>1629</ele>
        <time>2021-10-09T11:32:23</time>
      </trkpt>
      <trkpt lat="42.97143" lon="-0.00351">
        <ele>1629</ele>
        <time>2021-10-09T11:32:24</time>
      </trkpt>
      <trkpt lat="42.97141" lon="-0.0035">
        <ele>1629</ele>
        <time>2021-10-09T11:32:25</time>
      </trkpt>
      <trkpt lat="42.9714" lon="-0.00348">
        <ele>1629.2</ele>
        <time>2021-10-09T11:32:26</time>
      </trkpt>
      <trkpt lat="42.97139" lon="-0.00347">
        <ele>1629.2</ele>
        <time>2021-10-09T11:32:27</time>
      </trkpt>
      <trkpt lat="42.97138" lon="-0.00345">
        <ele>1629.2</ele>
        <time>2021-10-09T11:32:28</time>
      </trkpt>
      <trkpt lat="42.97137" lon="-0.00343">
        <ele>1629.2</ele>
        <time>2021-10-09T11:32:29</time>
      </trkpt>
      <trkpt lat="42.97136" lon="-0.00342">
        <ele>1629.4</ele>
        <time>2021-10-09T11:32:30</time>
      </trkpt>
      <trkpt lat="42.97135" lon="-0.00341">
        <ele>1629.6</ele>
        <time>2021-10-09T11:32:31</time>
      </trkpt>
      <trkpt lat="42.97134" lon="-0.00339">
        <ele>1629.6</ele>
        <time>2021-10-09T11:32:32</time>
      </trkpt>
      <trkpt lat="42.97133" lon="-0.00337">
        <ele>1629.8</ele>
        <time>2021-10-09T11:32:33</time>
      </trkpt>
      <trkpt lat="42.97133" lon="-0.00336">
        <ele>1629.8</ele>
        <time>2021-10-09T11:32:34</time>
      </trkpt>
      <trkpt lat="42.97132" lon="-0.00334">
        <ele>1630</ele>
        <time>2021-10-09T11:32:35</time>
      </trkpt>
      <trkpt lat="42.97131" lon="-0.00332">
        <ele>1630.2</ele>
        <time>2021-10-09T11:32:36</time>
      </trkpt>
      <trkpt lat="42.9713" lon="-0.0033">
        <ele>1630.2</ele>
        <time>2021-10-09T11:32:37</time>
      </trkpt>
      <trkpt lat="42.9713" lon="-0.00328">
        <ele>1630.4</ele>
        <time>2021-10-09T11:32:38</time>
      </trkpt>
      <trkpt lat="42.97129" lon="-0.00327">
        <ele>1630.4</ele>
        <time>2021-10-09T11:32:39</time>
      </trkpt>
      <trkpt lat="42.97128" lon="-0.00325">
        <ele>1630.6</ele>
        <time>2021-10-09T11:32:40</time>
      </trkpt>
      <trkpt lat="42.97128" lon="-0.00323">
        <ele>1630.6</ele>
        <time>2021-10-09T11:32:41</time>
      </trkpt>
      <trkpt lat="42.97127" lon="-0.00321">
        <ele>1630.6</ele>
        <time>2021-10-09T11:32:42</time>
      </trkpt>
      <trkpt lat="42.97127" lon="-0.00319">
        <ele>1630.6</ele>
        <time>2021-10-09T11:32:43</time>
      </trkpt>
      <trkpt lat="42.97126" lon="-0.00317">
        <ele>1630.8</ele>
        <time>2021-10-09T11:32:44</time>
      </trkpt>
      <trkpt lat="42.97125" lon="-0.00315">
        <ele>1630.8</ele>
        <time>2021-10-09T11:32:45</time>
      </trkpt>
      <trkpt lat="42.97125" lon="-0.00313">
        <ele>1631</ele>
        <time>2021-10-09T11:32:46</time>
      </trkpt>
      <trkpt lat="42.97124" lon="-0.00312">
        <ele>1631</ele>
        <time>2021-10-09T11:32:47</time>
      </trkpt>
      <trkpt lat="42.97124" lon="-0.00311">
        <ele>1631</ele>
        <time>2021-10-09T11:32:48</time>
      </trkpt>
      <trkpt lat="42.97123" lon="-0.0031">
        <ele>1631</ele>
        <time>2021-10-09T11:32:49</time>
      </trkpt>
      <trkpt lat="42.97123" lon="-0.00308">
        <ele>1631</ele>
        <time>2021-10-09T11:32:50</time>
      </trkpt>
      <trkpt lat="42.97122" lon="-0.00307">
        <ele>1630.8</ele>
        <time>2021-10-09T11:32:51</time>
      </trkpt>
      <trkpt lat="42.9712" lon="-0.00305">
        <ele>1630.8</ele>
        <time>2021-10-09T11:32:52</time>
      </trkpt>
      <trkpt lat="42.97118" lon="-0.00304">
        <ele>1630.6</ele>
        <time>2021-10-09T11:32:53</time>
      </trkpt>
      <trkpt lat="42.97116" lon="-0.00303">
        <ele>1630.8</ele>
        <time>2021-10-09T11:32:54</time>
      </trkpt>
      <trkpt lat="42.97114" lon="-0.00302">
        <ele>1630.8</ele>
        <time>2021-10-09T11:32:55</time>
      </trkpt>
      <trkpt lat="42.97112" lon="-0.00301">
        <ele>1630.8</ele>
        <time>2021-10-09T11:32:56</time>
      </trkpt>
      <trkpt lat="42.97111" lon="-0.00301">
        <ele>1631</ele>
        <time>2021-10-09T11:32:57</time>
      </trkpt>
      <trkpt lat="42.97109" lon="-0.00301">
        <ele>1631</ele>
        <time>2021-10-09T11:32:58</time>
      </trkpt>
      <trkpt lat="42.97107" lon="-0.003">
        <ele>1631.2</ele>
        <time>2021-10-09T11:32:59</time>
      </trkpt>
      <trkpt lat="42.97106" lon="-0.003">
        <ele>1631.2</ele>
        <time>2021-10-09T11:33:00</time>
      </trkpt>
      <trkpt lat="42.97104" lon="-0.003">
        <ele>1631.6</ele>
        <time>2021-10-09T11:33:01</time>
      </trkpt>
      <trkpt lat="42.97103" lon="-0.003">
        <ele>1631.8</ele>
        <time>2021-10-09T11:33:02</time>
      </trkpt>
      <trkpt lat="42.97101" lon="-0.00299">
        <ele>1631.8</ele>
        <time>2021-10-09T11:33:03</time>
      </trkpt>
      <trkpt lat="42.97099" lon="-0.00299">
        <ele>1632</ele>
        <time>2021-10-09T11:33:04</time>
      </trkpt>
      <trkpt lat="42.97098" lon="-0.00299">
        <ele>1632.2</ele>
        <time>2021-10-09T11:33:05</time>
      </trkpt>
      <trkpt lat="42.97097" lon="-0.00298">
        <ele>1632.4</ele>
        <time>2021-10-09T11:33:06</time>
      </trkpt>
      <trkpt lat="42.97095" lon="-0.00298">
        <ele>1632.4</ele>
        <time>2021-10-09T11:33:07</time>
      </trkpt>
      <trkpt lat="42.97093" lon="-0.00299">
        <ele>1632.6</ele>
        <time>2021-10-09T11:33:08</time>
      </trkpt>
      <trkpt lat="42.97092" lon="-0.00299">
        <ele>1632.8</ele>
        <time>2021-10-09T11:33:09</time>
      </trkpt>
      <trkpt lat="42.9709" lon="-0.00299">
        <ele>1633</ele>
        <time>2021-10-09T11:33:10</time>
      </trkpt>
      <trkpt lat="42.97089" lon="-0.00299">
        <ele>1633.2</ele>
        <time>2021-10-09T11:33:11</time>
      </trkpt>
      <trkpt lat="42.97087" lon="-0.00299">
        <ele>1633.2</ele>
        <time>2021-10-09T11:33:12</time>
      </trkpt>
      <trkpt lat="42.97086" lon="-0.00299">
        <ele>1633.4</ele>
        <time>2021-10-09T11:33:13</time>
      </trkpt>
      <trkpt lat="42.97085" lon="-0.00299">
        <ele>1633.6</ele>
        <time>2021-10-09T11:33:14</time>
      </trkpt>
      <trkpt lat="42.97083" lon="-0.00299">
        <ele>1633.8</ele>
        <time>2021-10-09T11:33:15</time>
      </trkpt>
      <trkpt lat="42.97082" lon="-0.00298">
        <ele>1634</ele>
        <time>2021-10-09T11:33:16</time>
      </trkpt>
      <trkpt lat="42.97081" lon="-0.00298">
        <ele>1634.2</ele>
        <time>2021-10-09T11:33:17</time>
      </trkpt>
      <trkpt lat="42.97079" lon="-0.00298">
        <ele>1634.2</ele>
        <time>2021-10-09T11:33:18</time>
      </trkpt>
      <trkpt lat="42.97078" lon="-0.00298">
        <ele>1634.4</ele>
        <time>2021-10-09T11:33:19</time>
      </trkpt>
      <trkpt lat="42.97077" lon="-0.00299">
        <ele>1634.8</ele>
        <time>2021-10-09T11:33:20</time>
      </trkpt>
      <trkpt lat="42.97075" lon="-0.00299">
        <ele>1635</ele>
        <time>2021-10-09T11:33:21</time>
      </trkpt>
      <trkpt lat="42.97074" lon="-0.00298">
        <ele>1635.2</ele>
        <time>2021-10-09T11:33:22</time>
      </trkpt>
      <trkpt lat="42.97073" lon="-0.00298">
        <ele>1635.4</ele>
        <time>2021-10-09T11:33:23</time>
      </trkpt>
      <trkpt lat="42.97071" lon="-0.00298">
        <ele>1635.6</ele>
        <time>2021-10-09T11:33:24</time>
      </trkpt>
      <trkpt lat="42.9707" lon="-0.00299">
        <ele>1635.6</ele>
        <time>2021-10-09T11:33:25</time>
      </trkpt>
      <trkpt lat="42.97069" lon="-0.00299">
        <ele>1636</ele>
        <time>2021-10-09T11:33:26</time>
      </trkpt>
      <trkpt lat="42.97068" lon="-0.00299">
        <ele>1636.2</ele>
        <time>2021-10-09T11:33:27</time>
      </trkpt>
      <trkpt lat="42.97066" lon="-0.003">
        <ele>1636.4</ele>
        <time>2021-10-09T11:33:28</time>
      </trkpt>
      <trkpt lat="42.97065" lon="-0.003">
        <ele>1636.6</ele>
        <time>2021-10-09T11:33:29</time>
      </trkpt>
      <trkpt lat="42.97064" lon="-0.00301">
        <ele>1636.8</ele>
        <time>2021-10-09T11:33:30</time>
      </trkpt>
      <trkpt lat="42.97063" lon="-0.00303">
        <ele>1636.8</ele>
        <time>2021-10-09T11:33:31</time>
      </trkpt>
      <trkpt lat="42.97063" lon="-0.00304">
        <ele>1637</ele>
        <time>2021-10-09T11:33:32</time>
      </trkpt>
      <trkpt lat="42.97061" lon="-0.00304">
        <ele>1637.2</ele>
        <time>2021-10-09T11:33:33</time>
      </trkpt>
      <trkpt lat="42.9706" lon="-0.00305">
        <ele>1637.2</ele>
        <time>2021-10-09T11:33:34</time>
      </trkpt>
      <trkpt lat="42.97059" lon="-0.00306">
        <ele>1637.4</ele>
        <time>2021-10-09T11:33:35</time>
      </trkpt>
      <trkpt lat="42.97058" lon="-0.00307">
        <ele>1637.6</ele>
        <time>2021-10-09T11:33:36</time>
      </trkpt>
      <trkpt lat="42.97056" lon="-0.00307">
        <ele>1637.8</ele>
        <time>2021-10-09T11:33:37</time>
      </trkpt>
      <trkpt lat="42.97055" lon="-0.00308">
        <ele>1637.8</ele>
        <time>2021-10-09T11:33:38</time>
      </trkpt>
      <trkpt lat="42.97054" lon="-0.0031">
        <ele>1638</ele>
        <time>2021-10-09T11:33:39</time>
      </trkpt>
      <trkpt lat="42.97053" lon="-0.00311">
        <ele>1638.2</ele>
        <time>2021-10-09T11:33:40</time>
      </trkpt>
      <trkpt lat="42.97052" lon="-0.00313">
        <ele>1638.4</ele>
        <time>2021-10-09T11:33:41</time>
      </trkpt>
      <trkpt lat="42.97051" lon="-0.00314">
        <ele>1638.4</ele>
        <time>2021-10-09T11:33:42</time>
      </trkpt>
      <trkpt lat="42.97051" lon="-0.00316">
        <ele>1638.6</ele>
        <time>2021-10-09T11:33:43</time>
      </trkpt>
      <trkpt lat="42.9705" lon="-0.00317">
        <ele>1638.8</ele>
        <time>2021-10-09T11:33:44</time>
      </trkpt>
      <trkpt lat="42.97049" lon="-0.00319">
        <ele>1639</ele>
        <time>2021-10-09T11:33:45</time>
      </trkpt>
      <trkpt lat="42.97049" lon="-0.00321">
        <ele>1639.2</ele>
        <time>2021-10-09T11:33:46</time>
      </trkpt>
      <trkpt lat="42.97047" lon="-0.00325">
        <ele>1639.4</ele>
        <time>2021-10-09T11:33:47</time>
      </trkpt>
      <trkpt lat="42.97047" lon="-0.00325">
        <ele>1639.4</ele>
        <time>2021-10-09T11:33:48</time>
      </trkpt>
      <trkpt lat="42.97047" lon="-0.00326">
        <ele>1639.8</ele>
        <time>2021-10-09T11:33:49</time>
      </trkpt>
      <trkpt lat="42.97046" lon="-0.00327">
        <ele>1640</ele>
        <time>2021-10-09T11:33:50</time>
      </trkpt>
      <trkpt lat="42.97045" lon="-0.00329">
        <ele>1640.2</ele>
        <time>2021-10-09T11:33:51</time>
      </trkpt>
      <trkpt lat="42.97044" lon="-0.0033">
        <ele>1640.4</ele>
        <time>2021-10-09T11:33:52</time>
      </trkpt>
      <trkpt lat="42.97043" lon="-0.00332">
        <ele>1640.6</ele>
        <time>2021-10-09T11:33:53</time>
      </trkpt>
      <trkpt lat="42.97042" lon="-0.00333">
        <ele>1640.8</ele>
        <time>2021-10-09T11:33:54</time>
      </trkpt>
      <trkpt lat="42.97041" lon="-0.00335">
        <ele>1641.2</ele>
        <time>2021-10-09T11:33:55</time>
      </trkpt>
      <trkpt lat="42.9704" lon="-0.00336">
        <ele>1641.4</ele>
        <time>2021-10-09T11:33:56</time>
      </trkpt>
      <trkpt lat="42.9704" lon="-0.00337">
        <ele>1641.6</ele>
        <time>2021-10-09T11:33:57</time>
      </trkpt>
      <trkpt lat="42.97038" lon="-0.0034">
        <ele>1642</ele>
        <time>2021-10-09T11:33:58</time>
      </trkpt>
      <trkpt lat="42.97038" lon="-0.0034">
        <ele>1642.2</ele>
        <time>2021-10-09T11:33:59</time>
      </trkpt>
      <trkpt lat="42.97037" lon="-0.00341">
        <ele>1642.4</ele>
        <time>2021-10-09T11:34:00</time>
      </trkpt>
      <trkpt lat="42.97036" lon="-0.00343">
        <ele>1642.6</ele>
        <time>2021-10-09T11:34:01</time>
      </trkpt>
      <trkpt lat="42.97035" lon="-0.00345">
        <ele>1643</ele>
        <time>2021-10-09T11:34:02</time>
      </trkpt>
      <trkpt lat="42.97034" lon="-0.00346">
        <ele>1643.2</ele>
        <time>2021-10-09T11:34:03</time>
      </trkpt>
      <trkpt lat="42.97033" lon="-0.00348">
        <ele>1643.6</ele>
        <time>2021-10-09T11:34:04</time>
      </trkpt>
      <trkpt lat="42.97032" lon="-0.00349">
        <ele>1643.8</ele>
        <time>2021-10-09T11:34:05</time>
      </trkpt>
      <trkpt lat="42.97031" lon="-0.0035">
        <ele>1644.2</ele>
        <time>2021-10-09T11:34:06</time>
      </trkpt>
      <trkpt lat="42.9703" lon="-0.00352">
        <ele>1644.4</ele>
        <time>2021-10-09T11:34:07</time>
      </trkpt>
      <trkpt lat="42.9703" lon="-0.00354">
        <ele>1644.6</ele>
        <time>2021-10-09T11:34:08</time>
      </trkpt>
      <trkpt lat="42.97029" lon="-0.00355">
        <ele>1645</ele>
        <time>2021-10-09T11:34:09</time>
      </trkpt>
      <trkpt lat="42.97028" lon="-0.00357">
        <ele>1645.2</ele>
        <time>2021-10-09T11:34:10</time>
      </trkpt>
      <trkpt lat="42.97027" lon="-0.00358">
        <ele>1645.4</ele>
        <time>2021-10-09T11:34:11</time>
      </trkpt>
      <trkpt lat="42.97026" lon="-0.0036">
        <ele>1645.8</ele>
        <time>2021-10-09T11:34:12</time>
      </trkpt>
      <trkpt lat="42.97025" lon="-0.00361">
        <ele>1646</ele>
        <time>2021-10-09T11:34:13</time>
      </trkpt>
      <trkpt lat="42.97024" lon="-0.00363">
        <ele>1646.4</ele>
        <time>2021-10-09T11:34:14</time>
      </trkpt>
      <trkpt lat="42.97024" lon="-0.00364">
        <ele>1646.6</ele>
        <time>2021-10-09T11:34:15</time>
      </trkpt>
      <trkpt lat="42.97023" lon="-0.00366">
        <ele>1646.8</ele>
        <time>2021-10-09T11:34:16</time>
      </trkpt>
      <trkpt lat="42.97022" lon="-0.00367">
        <ele>1647</ele>
        <time>2021-10-09T11:34:17</time>
      </trkpt>
      <trkpt lat="42.97021" lon="-0.00369">
        <ele>1647.4</ele>
        <time>2021-10-09T11:34:18</time>
      </trkpt>
      <trkpt lat="42.9702" lon="-0.0037">
        <ele>1647.6</ele>
        <time>2021-10-09T11:34:19</time>
      </trkpt>
      <trkpt lat="42.97018" lon="-0.00373">
        <ele>1647.8</ele>
        <time>2021-10-09T11:34:20</time>
      </trkpt>
      <trkpt lat="42.97018" lon="-0.00373">
        <ele>1648</ele>
        <time>2021-10-09T11:34:21</time>
      </trkpt>
      <trkpt lat="42.97017" lon="-0.00374">
        <ele>1648.4</ele>
        <time>2021-10-09T11:34:22</time>
      </trkpt>
      <trkpt lat="42.97016" lon="-0.00376">
        <ele>1648.6</ele>
        <time>2021-10-09T11:34:23</time>
      </trkpt>
      <trkpt lat="42.97015" lon="-0.00377">
        <ele>1648.8</ele>
        <time>2021-10-09T11:34:24</time>
      </trkpt>
      <trkpt lat="42.97014" lon="-0.00379">
        <ele>1649</ele>
        <time>2021-10-09T11:34:25</time>
      </trkpt>
      <trkpt lat="42.97013" lon="-0.00382">
        <ele>1649.4</ele>
        <time>2021-10-09T11:34:26</time>
      </trkpt>
      <trkpt lat="42.97013" lon="-0.00382">
        <ele>1649.6</ele>
        <time>2021-10-09T11:34:27</time>
      </trkpt>
      <trkpt lat="42.97012" lon="-0.00384">
        <ele>1649.8</ele>
        <time>2021-10-09T11:34:28</time>
      </trkpt>
      <trkpt lat="42.97011" lon="-0.00385">
        <ele>1650.2</ele>
        <time>2021-10-09T11:34:29</time>
      </trkpt>
      <trkpt lat="42.97009" lon="-0.00388">
        <ele>1650.4</ele>
        <time>2021-10-09T11:34:30</time>
      </trkpt>
      <trkpt lat="42.97009" lon="-0.00388">
        <ele>1650.6</ele>
        <time>2021-10-09T11:34:31</time>
      </trkpt>
      <trkpt lat="42.97007" lon="-0.00389">
        <ele>1650.8</ele>
        <time>2021-10-09T11:34:32</time>
      </trkpt>
      <trkpt lat="42.97006" lon="-0.0039">
        <ele>1651</ele>
        <time>2021-10-09T11:34:33</time>
      </trkpt>
      <trkpt lat="42.97005" lon="-0.00391">
        <ele>1651.2</ele>
        <time>2021-10-09T11:34:34</time>
      </trkpt>
      <trkpt lat="42.97003" lon="-0.00394">
        <ele>1651.4</ele>
        <time>2021-10-09T11:34:35</time>
      </trkpt>
      <trkpt lat="42.97003" lon="-0.00394">
        <ele>1651.6</ele>
        <time>2021-10-09T11:34:36</time>
      </trkpt>
      <trkpt lat="42.97002" lon="-0.00395">
        <ele>1651.8</ele>
        <time>2021-10-09T11:34:37</time>
      </trkpt>
      <trkpt lat="42.97001" lon="-0.00397">
        <ele>1652</ele>
        <time>2021-10-09T11:34:38</time>
      </trkpt>
      <trkpt lat="42.96999" lon="-0.00398">
        <ele>1652.2</ele>
        <time>2021-10-09T11:34:39</time>
      </trkpt>
      <trkpt lat="42.96998" lon="-0.00399">
        <ele>1652.4</ele>
        <time>2021-10-09T11:34:40</time>
      </trkpt>
      <trkpt lat="42.96997" lon="-0.004">
        <ele>1652.6</ele>
        <time>2021-10-09T11:34:41</time>
      </trkpt>
      <trkpt lat="42.96995" lon="-0.00401">
        <ele>1652.8</ele>
        <time>2021-10-09T11:34:42</time>
      </trkpt>
      <trkpt lat="42.96994" lon="-0.00402">
        <ele>1653</ele>
        <time>2021-10-09T11:34:43</time>
      </trkpt>
      <trkpt lat="42.96992" lon="-0.00403">
        <ele>1653.2</ele>
        <time>2021-10-09T11:34:44</time>
      </trkpt>
      <trkpt lat="42.96991" lon="-0.00404">
        <ele>1653.4</ele>
        <time>2021-10-09T11:34:45</time>
      </trkpt>
      <trkpt lat="42.96989" lon="-0.00406">
        <ele>1653.6</ele>
        <time>2021-10-09T11:34:46</time>
      </trkpt>
      <trkpt lat="42.96989" lon="-0.00406">
        <ele>1653.8</ele>
        <time>2021-10-09T11:34:47</time>
      </trkpt>
      <trkpt lat="42.96986" lon="-0.00408">
        <ele>1654</ele>
        <time>2021-10-09T11:34:48</time>
      </trkpt>
      <trkpt lat="42.96986" lon="-0.00408">
        <ele>1654.2</ele>
        <time>2021-10-09T11:34:49</time>
      </trkpt>
      <trkpt lat="42.96984" lon="-0.00408">
        <ele>1654.2</ele>
        <time>2021-10-09T11:34:50</time>
      </trkpt>
      <trkpt lat="42.96983" lon="-0.00409">
        <ele>1654.4</ele>
        <time>2021-10-09T11:34:51</time>
      </trkpt>
      <trkpt lat="42.96981" lon="-0.0041">
        <ele>1654.6</ele>
        <time>2021-10-09T11:34:52</time>
      </trkpt>
      <trkpt lat="42.9698" lon="-0.00411">
        <ele>1654.8</ele>
        <time>2021-10-09T11:34:53</time>
      </trkpt>
      <trkpt lat="42.96979" lon="-0.00412">
        <ele>1655</ele>
        <time>2021-10-09T11:34:54</time>
      </trkpt>
      <trkpt lat="42.96976" lon="-0.00414">
        <ele>1655.2</ele>
        <time>2021-10-09T11:34:55</time>
      </trkpt>
      <trkpt lat="42.96974" lon="-0.00415">
        <ele>1655.4</ele>
        <time>2021-10-09T11:34:56</time>
      </trkpt>
      <trkpt lat="42.96974" lon="-0.00415">
        <ele>1655.6</ele>
        <time>2021-10-09T11:34:57</time>
      </trkpt>
      <trkpt lat="42.96973" lon="-0.00415">
        <ele>1655.8</ele>
        <time>2021-10-09T11:34:58</time>
      </trkpt>
      <trkpt lat="42.96972" lon="-0.00416">
        <ele>1656</ele>
        <time>2021-10-09T11:34:59</time>
      </trkpt>
      <trkpt lat="42.9697" lon="-0.00417">
        <ele>1656.2</ele>
        <time>2021-10-09T11:35:00</time>
      </trkpt>
      <trkpt lat="42.96969" lon="-0.00417">
        <ele>1656.4</ele>
        <time>2021-10-09T11:35:01</time>
      </trkpt>
      <trkpt lat="42.96967" lon="-0.00418">
        <ele>1656.4</ele>
        <time>2021-10-09T11:35:02</time>
      </trkpt>
      <trkpt lat="42.96966" lon="-0.00418">
        <ele>1656.6</ele>
        <time>2021-10-09T11:35:03</time>
      </trkpt>
      <trkpt lat="42.96964" lon="-0.00419">
        <ele>1656.8</ele>
        <time>2021-10-09T11:35:04</time>
      </trkpt>
      <trkpt lat="42.96961" lon="-0.00421">
        <ele>1657</ele>
        <time>2021-10-09T11:35:05</time>
      </trkpt>
      <trkpt lat="42.9696" lon="-0.00422">
        <ele>1657.2</ele>
        <time>2021-10-09T11:35:06</time>
      </trkpt>
      <trkpt lat="42.9696" lon="-0.00422">
        <ele>1657.4</ele>
        <time>2021-10-09T11:35:07</time>
      </trkpt>
      <trkpt lat="42.96958" lon="-0.00423">
        <ele>1657.6</ele>
        <time>2021-10-09T11:35:08</time>
      </trkpt>
      <trkpt lat="42.96957" lon="-0.00423">
        <ele>1657.6</ele>
        <time>2021-10-09T11:35:09</time>
      </trkpt>
      <trkpt lat="42.96956" lon="-0.00424">
        <ele>1657.8</ele>
        <time>2021-10-09T11:35:10</time>
      </trkpt>
      <trkpt lat="42.96953" lon="-0.00426">
        <ele>1658</ele>
        <time>2021-10-09T11:35:11</time>
      </trkpt>
      <trkpt lat="42.96953" lon="-0.00426">
        <ele>1658.2</ele>
        <time>2021-10-09T11:35:12</time>
      </trkpt>
      <trkpt lat="42.96951" lon="-0.00427">
        <ele>1658.4</ele>
        <time>2021-10-09T11:35:13</time>
      </trkpt>
      <trkpt lat="42.9695" lon="-0.00427">
        <ele>1658.6</ele>
        <time>2021-10-09T11:35:14</time>
      </trkpt>
      <trkpt lat="42.96947" lon="-0.00429">
        <ele>1658.6</ele>
        <time>2021-10-09T11:35:15</time>
      </trkpt>
      <trkpt lat="42.96945" lon="-0.00429">
        <ele>1659</ele>
        <time>2021-10-09T11:35:16</time>
      </trkpt>
      <trkpt lat="42.96944" lon="-0.0043">
        <ele>1659.2</ele>
        <time>2021-10-09T11:35:17</time>
      </trkpt>
      <trkpt lat="42.96942" lon="-0.00431">
        <ele>1659.2</ele>
        <time>2021-10-09T11:35:18</time>
      </trkpt>
      <trkpt lat="42.96941" lon="-0.00432">
        <ele>1659.4</ele>
        <time>2021-10-09T11:35:19</time>
      </trkpt>
      <trkpt lat="42.96939" lon="-0.00433">
        <ele>1659.6</ele>
        <time>2021-10-09T11:35:20</time>
      </trkpt>
      <trkpt lat="42.96939" lon="-0.00433">
        <ele>1659.8</ele>
        <time>2021-10-09T11:35:21</time>
      </trkpt>
      <trkpt lat="42.96938" lon="-0.00434">
        <ele>1660</ele>
        <time>2021-10-09T11:35:22</time>
      </trkpt>
      <trkpt lat="42.96937" lon="-0.00434">
        <ele>1660.2</ele>
        <time>2021-10-09T11:35:23</time>
      </trkpt>
      <trkpt lat="42.96935" lon="-0.00435">
        <ele>1660.2</ele>
        <time>2021-10-09T11:35:24</time>
      </trkpt>
      <trkpt lat="42.96932" lon="-0.00436">
        <ele>1660.4</ele>
        <time>2021-10-09T11:35:25</time>
      </trkpt>
      <trkpt lat="42.96931" lon="-0.00437">
        <ele>1660.4</ele>
        <time>2021-10-09T11:35:26</time>
      </trkpt>
      <trkpt lat="42.96931" lon="-0.00437">
        <ele>1660.6</ele>
        <time>2021-10-09T11:35:27</time>
      </trkpt>
      <trkpt lat="42.96929" lon="-0.00437">
        <ele>1660.8</ele>
        <time>2021-10-09T11:35:28</time>
      </trkpt>
      <trkpt lat="42.96927" lon="-0.00438">
        <ele>1661</ele>
        <time>2021-10-09T11:35:29</time>
      </trkpt>
      <trkpt lat="42.96926" lon="-0.00438">
        <ele>1661.2</ele>
        <time>2021-10-09T11:35:30</time>
      </trkpt>
      <trkpt lat="42.96923" lon="-0.00439">
        <ele>1661.2</ele>
        <time>2021-10-09T11:35:31</time>
      </trkpt>
      <trkpt lat="42.96923" lon="-0.00439">
        <ele>1661.4</ele>
        <time>2021-10-09T11:35:32</time>
      </trkpt>
      <trkpt lat="42.96921" lon="-0.0044">
        <ele>1661.6</ele>
        <time>2021-10-09T11:35:33</time>
      </trkpt>
      <trkpt lat="42.9692" lon="-0.00441">
        <ele>1661.6</ele>
        <time>2021-10-09T11:35:34</time>
      </trkpt>
      <trkpt lat="42.96918" lon="-0.00441">
        <ele>1662</ele>
        <time>2021-10-09T11:35:35</time>
      </trkpt>
      <trkpt lat="42.96916" lon="-0.00442">
        <ele>1662</ele>
        <time>2021-10-09T11:35:36</time>
      </trkpt>
      <trkpt lat="42.96915" lon="-0.00442">
        <ele>1662.2</ele>
        <time>2021-10-09T11:35:37</time>
      </trkpt>
      <trkpt lat="42.96913" lon="-0.00443">
        <ele>1662.2</ele>
        <time>2021-10-09T11:35:38</time>
      </trkpt>
      <trkpt lat="42.96912" lon="-0.00444">
        <ele>1662.6</ele>
        <time>2021-10-09T11:35:39</time>
      </trkpt>
      <trkpt lat="42.96908" lon="-0.00444">
        <ele>1662.6</ele>
        <time>2021-10-09T11:35:40</time>
      </trkpt>
      <trkpt lat="42.96908" lon="-0.00444">
        <ele>1662.6</ele>
        <time>2021-10-09T11:35:41</time>
      </trkpt>
      <trkpt lat="42.96907" lon="-0.00445">
        <ele>1662.8</ele>
        <time>2021-10-09T11:35:42</time>
      </trkpt>
      <trkpt lat="42.96905" lon="-0.00445">
        <ele>1663</ele>
        <time>2021-10-09T11:35:43</time>
      </trkpt>
      <trkpt lat="42.96903" lon="-0.00446">
        <ele>1663.2</ele>
        <time>2021-10-09T11:35:44</time>
      </trkpt>
      <trkpt lat="42.96902" lon="-0.00446">
        <ele>1663.2</ele>
        <time>2021-10-09T11:35:45</time>
      </trkpt>
      <trkpt lat="42.96899" lon="-0.00446">
        <ele>1663.4</ele>
        <time>2021-10-09T11:35:46</time>
      </trkpt>
      <trkpt lat="42.96897" lon="-0.00447">
        <ele>1663.6</ele>
        <time>2021-10-09T11:35:47</time>
      </trkpt>
      <trkpt lat="42.96895" lon="-0.00447">
        <ele>1663.8</ele>
        <time>2021-10-09T11:35:48</time>
      </trkpt>
      <trkpt lat="42.96895" lon="-0.00447">
        <ele>1664</ele>
        <time>2021-10-09T11:35:49</time>
      </trkpt>
      <trkpt lat="42.96894" lon="-0.00447">
        <ele>1664.2</ele>
        <time>2021-10-09T11:35:50</time>
      </trkpt>
      <trkpt lat="42.9689" lon="-0.00448">
        <ele>1664.2</ele>
        <time>2021-10-09T11:35:51</time>
      </trkpt>
      <trkpt lat="42.96889" lon="-0.00449">
        <ele>1664.4</ele>
        <time>2021-10-09T11:35:52</time>
      </trkpt>
      <trkpt lat="42.96889" lon="-0.00449">
        <ele>1664.6</ele>
        <time>2021-10-09T11:35:53</time>
      </trkpt>
      <trkpt lat="42.96885" lon="-0.0045">
        <ele>1664.6</ele>
        <time>2021-10-09T11:35:54</time>
      </trkpt>
      <trkpt lat="42.96884" lon="-0.00451">
        <ele>1664.8</ele>
        <time>2021-10-09T11:35:55</time>
      </trkpt>
      <trkpt lat="42.96882" lon="-0.00451">
        <ele>1665</ele>
        <time>2021-10-09T11:35:56</time>
      </trkpt>
      <trkpt lat="42.96882" lon="-0.00451">
        <ele>1665.2</ele>
        <time>2021-10-09T11:35:57</time>
      </trkpt>
      <trkpt lat="42.96879" lon="-0.00453">
        <ele>1665.4</ele>
        <time>2021-10-09T11:35:58</time>
      </trkpt>
      <trkpt lat="42.96877" lon="-0.00453">
        <ele>1665.6</ele>
        <time>2021-10-09T11:35:59</time>
      </trkpt>
      <trkpt lat="42.96876" lon="-0.00454">
        <ele>1665.6</ele>
        <time>2021-10-09T11:36:00</time>
      </trkpt>
      <trkpt lat="42.96876" lon="-0.00454">
        <ele>1665.8</ele>
        <time>2021-10-09T11:36:01</time>
      </trkpt>
      <trkpt lat="42.96873" lon="-0.00456">
        <ele>1666</ele>
        <time>2021-10-09T11:36:02</time>
      </trkpt>
      <trkpt lat="42.96871" lon="-0.00457">
        <ele>1666.2</ele>
        <time>2021-10-09T11:36:03</time>
      </trkpt>
      <trkpt lat="42.96869" lon="-0.00457">
        <ele>1666.2</ele>
        <time>2021-10-09T11:36:04</time>
      </trkpt>
      <trkpt lat="42.96868" lon="-0.00457">
        <ele>1666.4</ele>
        <time>2021-10-09T11:36:05</time>
      </trkpt>
      <trkpt lat="42.96866" lon="-0.00458">
        <ele>1666.4</ele>
        <time>2021-10-09T11:36:06</time>
      </trkpt>
      <trkpt lat="42.96865" lon="-0.00459">
        <ele>1666.6</ele>
        <time>2021-10-09T11:36:07</time>
      </trkpt>
      <trkpt lat="42.96863" lon="-0.0046">
        <ele>1666.8</ele>
        <time>2021-10-09T11:36:08</time>
      </trkpt>
      <trkpt lat="42.96862" lon="-0.00461">
        <ele>1666.8</ele>
        <time>2021-10-09T11:36:09</time>
      </trkpt>
      <trkpt lat="42.9686" lon="-0.00462">
        <ele>1667</ele>
        <time>2021-10-09T11:36:10</time>
      </trkpt>
      <trkpt lat="42.9686" lon="-0.00462">
        <ele>1667.2</ele>
        <time>2021-10-09T11:36:11</time>
      </trkpt>
      <trkpt lat="42.96859" lon="-0.00463">
        <ele>1667.2</ele>
        <time>2021-10-09T11:36:12</time>
      </trkpt>
      <trkpt lat="42.96857" lon="-0.00464">
        <ele>1667.4</ele>
        <time>2021-10-09T11:36:13</time>
      </trkpt>
      <trkpt lat="42.96856" lon="-0.00465">
        <ele>1667.6</ele>
        <time>2021-10-09T11:36:14</time>
      </trkpt>
      <trkpt lat="42.96854" lon="-0.00466">
        <ele>1667.6</ele>
        <time>2021-10-09T11:36:15</time>
      </trkpt>
      <trkpt lat="42.96853" lon="-0.00467">
        <ele>1667.8</ele>
        <time>2021-10-09T11:36:16</time>
      </trkpt>
      <trkpt lat="42.96851" lon="-0.00468">
        <ele>1668</ele>
        <time>2021-10-09T11:36:17</time>
      </trkpt>
      <trkpt lat="42.96848" lon="-0.0047">
        <ele>1668</ele>
        <time>2021-10-09T11:36:18</time>
      </trkpt>
      <trkpt lat="42.96847" lon="-0.00472">
        <ele>1668</ele>
        <time>2021-10-09T11:36:19</time>
      </trkpt>
      <trkpt lat="42.96847" lon="-0.00472">
        <ele>1668.2</ele>
        <time>2021-10-09T11:36:20</time>
      </trkpt>
      <trkpt lat="42.96845" lon="-0.00473">
        <ele>1668.2</ele>
        <time>2021-10-09T11:36:21</time>
      </trkpt>
      <trkpt lat="42.96844" lon="-0.00474">
        <ele>1668.4</ele>
        <time>2021-10-09T11:36:22</time>
      </trkpt>
      <trkpt lat="42.9684" lon="-0.00476">
        <ele>1668.6</ele>
        <time>2021-10-09T11:36:23</time>
      </trkpt>
      <trkpt lat="42.96839" lon="-0.00477">
        <ele>1668.8</ele>
        <time>2021-10-09T11:36:24</time>
      </trkpt>
      <trkpt lat="42.96838" lon="-0.00478">
        <ele>1668.8</ele>
        <time>2021-10-09T11:36:25</time>
      </trkpt>
      <trkpt lat="42.96836" lon="-0.0048">
        <ele>1669</ele>
        <time>2021-10-09T11:36:26</time>
      </trkpt>
      <trkpt lat="42.96835" lon="-0.00481">
        <ele>1669.2</ele>
        <time>2021-10-09T11:36:27</time>
      </trkpt>
      <trkpt lat="42.96835" lon="-0.00481">
        <ele>1669.4</ele>
        <time>2021-10-09T11:36:28</time>
      </trkpt>
      <trkpt lat="42.96833" lon="-0.00483">
        <ele>1669.4</ele>
        <time>2021-10-09T11:36:29</time>
      </trkpt>
      <trkpt lat="42.96832" lon="-0.00484">
        <ele>1669.6</ele>
        <time>2021-10-09T11:36:30</time>
      </trkpt>
      <trkpt lat="42.96829" lon="-0.00487">
        <ele>1669.6</ele>
        <time>2021-10-09T11:36:31</time>
      </trkpt>
      <trkpt lat="42.96828" lon="-0.00489">
        <ele>1669.8</ele>
        <time>2021-10-09T11:36:32</time>
      </trkpt>
      <trkpt lat="42.96827" lon="-0.0049">
        <ele>1670</ele>
        <time>2021-10-09T11:36:33</time>
      </trkpt>
      <trkpt lat="42.96826" lon="-0.00491">
        <ele>1670.2</ele>
        <time>2021-10-09T11:36:34</time>
      </trkpt>
      <trkpt lat="42.96825" lon="-0.00493">
        <ele>1670.2</ele>
        <time>2021-10-09T11:36:35</time>
      </trkpt>
      <trkpt lat="42.96823" lon="-0.00495">
        <ele>1670.4</ele>
        <time>2021-10-09T11:36:36</time>
      </trkpt>
      <trkpt lat="42.96823" lon="-0.00495">
        <ele>1670.4</ele>
        <time>2021-10-09T11:36:37</time>
      </trkpt>
      <trkpt lat="42.96821" lon="-0.00498">
        <ele>1670.6</ele>
        <time>2021-10-09T11:36:38</time>
      </trkpt>
      <trkpt lat="42.9682" lon="-0.00499">
        <ele>1670.8</ele>
        <time>2021-10-09T11:36:39</time>
      </trkpt>
      <trkpt lat="42.96819" lon="-0.00501">
        <ele>1670.8</ele>
        <time>2021-10-09T11:36:40</time>
      </trkpt>
      <trkpt lat="42.96817" lon="-0.00502">
        <ele>1671</ele>
        <time>2021-10-09T11:36:41</time>
      </trkpt>
      <trkpt lat="42.96816" lon="-0.00504">
        <ele>1671</ele>
        <time>2021-10-09T11:36:42</time>
      </trkpt>
      <trkpt lat="42.96815" lon="-0.00505">
        <ele>1671.2</ele>
        <time>2021-10-09T11:36:43</time>
      </trkpt>
      <trkpt lat="42.96814" lon="-0.00507">
        <ele>1671.4</ele>
        <time>2021-10-09T11:36:44</time>
      </trkpt>
      <trkpt lat="42.96813" lon="-0.00509">
        <ele>1671.6</ele>
        <time>2021-10-09T11:36:45</time>
      </trkpt>
      <trkpt lat="42.96812" lon="-0.0051">
        <ele>1671.6</ele>
        <time>2021-10-09T11:36:46</time>
      </trkpt>
      <trkpt lat="42.96811" lon="-0.00512">
        <ele>1671.8</ele>
        <time>2021-10-09T11:36:47</time>
      </trkpt>
      <trkpt lat="42.9681" lon="-0.00513">
        <ele>1672</ele>
        <time>2021-10-09T11:36:48</time>
      </trkpt>
      <trkpt lat="42.96809" lon="-0.00515">
        <ele>1672.2</ele>
        <time>2021-10-09T11:36:49</time>
      </trkpt>
      <trkpt lat="42.96808" lon="-0.00517">
        <ele>1672.4</ele>
        <time>2021-10-09T11:36:50</time>
      </trkpt>
      <trkpt lat="42.96806" lon="-0.00518">
        <ele>1672.6</ele>
        <time>2021-10-09T11:36:51</time>
      </trkpt>
      <trkpt lat="42.96806" lon="-0.00518">
        <ele>1672.6</ele>
        <time>2021-10-09T11:36:52</time>
      </trkpt>
      <trkpt lat="42.96804" lon="-0.00521">
        <ele>1673</ele>
        <time>2021-10-09T11:36:53</time>
      </trkpt>
      <trkpt lat="42.96803" lon="-0.00522">
        <ele>1673.2</ele>
        <time>2021-10-09T11:36:54</time>
      </trkpt>
      <trkpt lat="42.96802" lon="-0.00524">
        <ele>1673.4</ele>
        <time>2021-10-09T11:36:55</time>
      </trkpt>
      <trkpt lat="42.96801" lon="-0.00526">
        <ele>1673.4</ele>
        <time>2021-10-09T11:36:56</time>
      </trkpt>
      <trkpt lat="42.96801" lon="-0.00528">
        <ele>1673.6</ele>
        <time>2021-10-09T11:36:57</time>
      </trkpt>
      <trkpt lat="42.968" lon="-0.00531">
        <ele>1673.8</ele>
        <time>2021-10-09T11:36:58</time>
      </trkpt>
      <trkpt lat="42.968" lon="-0.00531">
        <ele>1674</ele>
        <time>2021-10-09T11:36:59</time>
      </trkpt>
      <trkpt lat="42.96799" lon="-0.00534">
        <ele>1674</ele>
        <time>2021-10-09T11:37:00</time>
      </trkpt>
      <trkpt lat="42.96797" lon="-0.00535">
        <ele>1674.4</ele>
        <time>2021-10-09T11:37:01</time>
      </trkpt>
      <trkpt lat="42.96796" lon="-0.00536">
        <ele>1674.6</ele>
        <time>2021-10-09T11:37:02</time>
      </trkpt>
      <trkpt lat="42.96794" lon="-0.00536">
        <ele>1674.6</ele>
        <time>2021-10-09T11:37:03</time>
      </trkpt>
      <trkpt lat="42.96794" lon="-0.00536">
        <ele>1674.8</ele>
        <time>2021-10-09T11:37:04</time>
      </trkpt>
      <trkpt lat="42.96791" lon="-0.00537">
        <ele>1675</ele>
        <time>2021-10-09T11:37:05</time>
      </trkpt>
      <trkpt lat="42.9679" lon="-0.00537">
        <ele>1675.2</ele>
        <time>2021-10-09T11:37:06</time>
      </trkpt>
      <trkpt lat="42.96788" lon="-0.00535">
        <ele>1675.4</ele>
        <time>2021-10-09T11:37:07</time>
      </trkpt>
      <trkpt lat="42.96789" lon="-0.00534">
        <ele>1675.4</ele>
        <time>2021-10-09T11:37:08</time>
      </trkpt>
      <trkpt lat="42.96789" lon="-0.00533">
        <ele>1675.6</ele>
        <time>2021-10-09T11:37:09</time>
      </trkpt>
      <trkpt lat="42.9679" lon="-0.00533">
        <ele>1675.6</ele>
        <time>2021-10-09T11:37:10</time>
      </trkpt>
      <trkpt lat="42.9679" lon="-0.00533">
        <ele>1675.4</ele>
        <time>2021-10-09T11:37:11</time>
      </trkpt>
      <trkpt lat="42.9679" lon="-0.00533">
        <ele>1675.4</ele>
        <time>2021-10-09T11:37:12</time>
      </trkpt>
      <trkpt lat="42.9679" lon="-0.00533">
        <ele>1675.4</ele>
        <time>2021-10-09T11:37:13</time>
      </trkpt>
      <trkpt lat="42.9679" lon="-0.00533">
        <ele>1675.6</ele>
        <time>2021-10-09T11:37:14</time>
      </trkpt>
      <trkpt lat="42.9679" lon="-0.00533">
        <ele>1675.6</ele>
        <time>2021-10-09T11:37:15</time>
      </trkpt>
      <trkpt lat="42.96791" lon="-0.00533">
        <ele>1675.6</ele>
        <time>2021-10-09T11:37:16</time>
      </trkpt>
      <trkpt lat="42.96791" lon="-0.00533">
        <ele>1675.6</ele>
        <time>2021-10-09T11:37:17</time>
      </trkpt>
      <trkpt lat="42.96789" lon="-0.00517">
        <ele>1677.4</ele>
        <time>2021-10-09T11:38:45</time>
      </trkpt>
      <trkpt lat="42.96789" lon="-0.00515">
        <ele>1678</ele>
        <time>2021-10-09T11:38:46</time>
      </trkpt>
      <trkpt lat="42.96789" lon="-0.00512">
        <ele>1678.6</ele>
        <time>2021-10-09T11:38:47</time>
      </trkpt>
      <trkpt lat="42.96789" lon="-0.00509">
        <ele>1679</ele>
        <time>2021-10-09T11:38:48</time>
      </trkpt>
      <trkpt lat="42.96789" lon="-0.00506">
        <ele>1679.4</ele>
        <time>2021-10-09T11:38:49</time>
      </trkpt>
      <trkpt lat="42.96788" lon="-0.00504">
        <ele>1680</ele>
        <time>2021-10-09T11:38:50</time>
      </trkpt>
      <trkpt lat="42.96788" lon="-0.00501">
        <ele>1680.6</ele>
        <time>2021-10-09T11:38:51</time>
      </trkpt>
      <trkpt lat="42.96788" lon="-0.00499">
        <ele>1680.6</ele>
        <time>2021-10-09T11:38:52</time>
      </trkpt>
      <trkpt lat="42.96788" lon="-0.00497">
        <ele>1680.6</ele>
        <time>2021-10-09T11:38:53</time>
      </trkpt>
      <trkpt lat="42.96788" lon="-0.00495">
        <ele>1680.6</ele>
        <time>2021-10-09T11:38:54</time>
      </trkpt>
      <trkpt lat="42.96788" lon="-0.00493">
        <ele>1680.6</ele>
        <time>2021-10-09T11:38:55</time>
      </trkpt>
      <trkpt lat="42.96788" lon="-0.00491">
        <ele>1680.6</ele>
        <time>2021-10-09T11:38:56</time>
      </trkpt>
      <trkpt lat="42.96789" lon="-0.00489">
        <ele>1680.6</ele>
        <time>2021-10-09T11:38:57</time>
      </trkpt>
      <trkpt lat="42.9679" lon="-0.00487">
        <ele>1680.8</ele>
        <time>2021-10-09T11:38:58</time>
      </trkpt>
      <trkpt lat="42.9679" lon="-0.00485">
        <ele>1681</ele>
        <time>2021-10-09T11:38:59</time>
      </trkpt>
      <trkpt lat="42.9679" lon="-0.00483">
        <ele>1681</ele>
        <time>2021-10-09T11:39:00</time>
      </trkpt>
      <trkpt lat="42.9679" lon="-0.0048">
        <ele>1681.2</ele>
        <time>2021-10-09T11:39:01</time>
      </trkpt>
      <trkpt lat="42.9679" lon="-0.00478">
        <ele>1681.2</ele>
        <time>2021-10-09T11:39:02</time>
      </trkpt>
      <trkpt lat="42.96791" lon="-0.00476">
        <ele>1681.2</ele>
        <time>2021-10-09T11:39:03</time>
      </trkpt>
      <trkpt lat="42.96791" lon="-0.00473">
        <ele>1681.2</ele>
        <time>2021-10-09T11:39:04</time>
      </trkpt>
      <trkpt lat="42.96791" lon="-0.00471">
        <ele>1681.2</ele>
        <time>2021-10-09T11:39:05</time>
      </trkpt>
      <trkpt lat="42.96791" lon="-0.00468">
        <ele>1681.4</ele>
        <time>2021-10-09T11:39:06</time>
      </trkpt>
      <trkpt lat="42.96791" lon="-0.00466">
        <ele>1681.4</ele>
        <time>2021-10-09T11:39:07</time>
      </trkpt>
      <trkpt lat="42.96791" lon="-0.00463">
        <ele>1681.4</ele>
        <time>2021-10-09T11:39:08</time>
      </trkpt>
      <trkpt lat="42.96791" lon="-0.0046">
        <ele>1681.6</ele>
        <time>2021-10-09T11:39:09</time>
      </trkpt>
      <trkpt lat="42.96791" lon="-0.00457">
        <ele>1681.6</ele>
        <time>2021-10-09T11:39:10</time>
      </trkpt>
      <trkpt lat="42.96791" lon="-0.00454">
        <ele>1681.6</ele>
        <time>2021-10-09T11:39:11</time>
      </trkpt>
      <trkpt lat="42.96791" lon="-0.0045">
        <ele>1681.8</ele>
        <time>2021-10-09T11:39:12</time>
      </trkpt>
      <trkpt lat="42.96791" lon="-0.00447">
        <ele>1682</ele>
        <time>2021-10-09T11:39:13</time>
      </trkpt>
      <trkpt lat="42.96791" lon="-0.00444">
        <ele>1682</ele>
        <time>2021-10-09T11:39:14</time>
      </trkpt>
      <trkpt lat="42.96791" lon="-0.00441">
        <ele>1682.2</ele>
        <time>2021-10-09T11:39:15</time>
      </trkpt>
      <trkpt lat="42.96791" lon="-0.00437">
        <ele>1682.2</ele>
        <time>2021-10-09T11:39:16</time>
      </trkpt>
      <trkpt lat="42.96791" lon="-0.00434">
        <ele>1682.4</ele>
        <time>2021-10-09T11:39:17</time>
      </trkpt>
      <trkpt lat="42.9679" lon="-0.00431">
        <ele>1682.4</ele>
        <time>2021-10-09T11:39:18</time>
      </trkpt>
      <trkpt lat="42.9679" lon="-0.00427">
        <ele>1682.4</ele>
        <time>2021-10-09T11:39:19</time>
      </trkpt>
      <trkpt lat="42.96791" lon="-0.00424">
        <ele>1682.6</ele>
        <time>2021-10-09T11:39:20</time>
      </trkpt>
      <trkpt lat="42.96792" lon="-0.00421">
        <ele>1682.8</ele>
        <time>2021-10-09T11:39:21</time>
      </trkpt>
      <trkpt lat="42.96793" lon="-0.00418">
        <ele>1682.8</ele>
        <time>2021-10-09T11:39:22</time>
      </trkpt>
      <trkpt lat="42.96794" lon="-0.00415">
        <ele>1683</ele>
        <time>2021-10-09T11:39:23</time>
      </trkpt>
      <trkpt lat="42.96795" lon="-0.00412">
        <ele>1683</ele>
        <time>2021-10-09T11:39:24</time>
      </trkpt>
      <trkpt lat="42.96796" lon="-0.00409">
        <ele>1683</ele>
        <time>2021-10-09T11:39:25</time>
      </trkpt>
      <trkpt lat="42.96798" lon="-0.00406">
        <ele>1683.2</ele>
        <time>2021-10-09T11:39:26</time>
      </trkpt>
      <trkpt lat="42.96799" lon="-0.00403">
        <ele>1683.2</ele>
        <time>2021-10-09T11:39:27</time>
      </trkpt>
      <trkpt lat="42.968" lon="-0.004">
        <ele>1683.2</ele>
        <time>2021-10-09T11:39:28</time>
      </trkpt>
      <trkpt lat="42.96801" lon="-0.00397">
        <ele>1683.4</ele>
        <time>2021-10-09T11:39:29</time>
      </trkpt>
      <trkpt lat="42.96802" lon="-0.00394">
        <ele>1683.6</ele>
        <time>2021-10-09T11:39:30</time>
      </trkpt>
      <trkpt lat="42.96802" lon="-0.00391">
        <ele>1683.6</ele>
        <time>2021-10-09T11:39:31</time>
      </trkpt>
      <trkpt lat="42.96804" lon="-0.00389">
        <ele>1683.8</ele>
        <time>2021-10-09T11:39:32</time>
      </trkpt>
      <trkpt lat="42.96805" lon="-0.00386">
        <ele>1683.8</ele>
        <time>2021-10-09T11:39:33</time>
      </trkpt>
      <trkpt lat="42.96806" lon="-0.00384">
        <ele>1684</ele>
        <time>2021-10-09T11:39:34</time>
      </trkpt>
      <trkpt lat="42.96807" lon="-0.00381">
        <ele>1684.2</ele>
        <time>2021-10-09T11:39:35</time>
      </trkpt>
      <trkpt lat="42.96807" lon="-0.00379">
        <ele>1684.4</ele>
        <time>2021-10-09T11:39:36</time>
      </trkpt>
      <trkpt lat="42.96808" lon="-0.00376">
        <ele>1684.4</ele>
        <time>2021-10-09T11:39:37</time>
      </trkpt>
      <trkpt lat="42.96809" lon="-0.00374">
        <ele>1684.4</ele>
        <time>2021-10-09T11:39:38</time>
      </trkpt>
      <trkpt lat="42.9681" lon="-0.00371">
        <ele>1684.6</ele>
        <time>2021-10-09T11:39:39</time>
      </trkpt>
      <trkpt lat="42.96812" lon="-0.00369">
        <ele>1684.6</ele>
        <time>2021-10-09T11:39:40</time>
      </trkpt>
      <trkpt lat="42.96813" lon="-0.00366">
        <ele>1684.8</ele>
        <time>2021-10-09T11:39:41</time>
      </trkpt>
      <trkpt lat="42.96814" lon="-0.00364">
        <ele>1684.8</ele>
        <time>2021-10-09T11:39:42</time>
      </trkpt>
      <trkpt lat="42.96815" lon="-0.00362">
        <ele>1684.8</ele>
        <time>2021-10-09T11:39:43</time>
      </trkpt>
      <trkpt lat="42.96817" lon="-0.00359">
        <ele>1685</ele>
        <time>2021-10-09T11:39:44</time>
      </trkpt>
      <trkpt lat="42.96818" lon="-0.00357">
        <ele>1685</ele>
        <time>2021-10-09T11:39:45</time>
      </trkpt>
      <trkpt lat="42.9682" lon="-0.00355">
        <ele>1685.2</ele>
        <time>2021-10-09T11:39:46</time>
      </trkpt>
      <trkpt lat="42.96822" lon="-0.00353">
        <ele>1685.2</ele>
        <time>2021-10-09T11:39:47</time>
      </trkpt>
      <trkpt lat="42.96823" lon="-0.00351">
        <ele>1685.2</ele>
        <time>2021-10-09T11:39:48</time>
      </trkpt>
      <trkpt lat="42.96825" lon="-0.00348">
        <ele>1685.2</ele>
        <time>2021-10-09T11:39:49</time>
      </trkpt>
      <trkpt lat="42.96826" lon="-0.00345">
        <ele>1685.2</ele>
        <time>2021-10-09T11:39:50</time>
      </trkpt>
      <trkpt lat="42.96828" lon="-0.00343">
        <ele>1685.4</ele>
        <time>2021-10-09T11:39:51</time>
      </trkpt>
      <trkpt lat="42.96829" lon="-0.00341">
        <ele>1685.6</ele>
        <time>2021-10-09T11:39:52</time>
      </trkpt>
      <trkpt lat="42.9683" lon="-0.00339">
        <ele>1685.6</ele>
        <time>2021-10-09T11:39:53</time>
      </trkpt>
      <trkpt lat="42.96831" lon="-0.00338">
        <ele>1685.6</ele>
        <time>2021-10-09T11:39:54</time>
      </trkpt>
      <trkpt lat="42.96832" lon="-0.00336">
        <ele>1685.6</ele>
        <time>2021-10-09T11:39:55</time>
      </trkpt>
      <trkpt lat="42.96833" lon="-0.00333">
        <ele>1685.8</ele>
        <time>2021-10-09T11:39:56</time>
      </trkpt>
      <trkpt lat="42.96834" lon="-0.0033">
        <ele>1685.8</ele>
        <time>2021-10-09T11:39:57</time>
      </trkpt>
      <trkpt lat="42.96835" lon="-0.00328">
        <ele>1685.8</ele>
        <time>2021-10-09T11:39:58</time>
      </trkpt>
      <trkpt lat="42.96836" lon="-0.00325">
        <ele>1686</ele>
        <time>2021-10-09T11:39:59</time>
      </trkpt>
      <trkpt lat="42.96836" lon="-0.00322">
        <ele>1686</ele>
        <time>2021-10-09T11:40:00</time>
      </trkpt>
      <trkpt lat="42.96837" lon="-0.00318">
        <ele>1686</ele>
        <time>2021-10-09T11:40:01</time>
      </trkpt>
      <trkpt lat="42.96837" lon="-0.00314">
        <ele>1686.2</ele>
        <time>2021-10-09T11:40:02</time>
      </trkpt>
      <trkpt lat="42.96837" lon="-0.0031">
        <ele>1686.2</ele>
        <time>2021-10-09T11:40:03</time>
      </trkpt>
      <trkpt lat="42.96838" lon="-0.00307">
        <ele>1686.2</ele>
        <time>2021-10-09T11:40:04</time>
      </trkpt>
      <trkpt lat="42.96838" lon="-0.00304">
        <ele>1686.4</ele>
        <time>2021-10-09T11:40:05</time>
      </trkpt>
      <trkpt lat="42.96839" lon="-0.00301">
        <ele>1686.4</ele>
        <time>2021-10-09T11:40:06</time>
      </trkpt>
      <trkpt lat="42.96839" lon="-0.00297">
        <ele>1686.4</ele>
        <time>2021-10-09T11:40:07</time>
      </trkpt>
      <trkpt lat="42.96839" lon="-0.00294">
        <ele>1686.6</ele>
        <time>2021-10-09T11:40:08</time>
      </trkpt>
      <trkpt lat="42.96839" lon="-0.0029">
        <ele>1686.6</ele>
        <time>2021-10-09T11:40:09</time>
      </trkpt>
      <trkpt lat="42.96839" lon="-0.00287">
        <ele>1686.8</ele>
        <time>2021-10-09T11:40:10</time>
      </trkpt>
      <trkpt lat="42.9684" lon="-0.00284">
        <ele>1686.6</ele>
        <time>2021-10-09T11:40:11</time>
      </trkpt>
      <trkpt lat="42.9684" lon="-0.0028">
        <ele>1686.8</ele>
        <time>2021-10-09T11:40:12</time>
      </trkpt>
      <trkpt lat="42.9684" lon="-0.00277">
        <ele>1686.8</ele>
        <time>2021-10-09T11:40:13</time>
      </trkpt>
      <trkpt lat="42.9684" lon="-0.00273">
        <ele>1687</ele>
        <time>2021-10-09T11:40:14</time>
      </trkpt>
      <trkpt lat="42.9684" lon="-0.00269">
        <ele>1687</ele>
        <time>2021-10-09T11:40:15</time>
      </trkpt>
      <trkpt lat="42.96841" lon="-0.00265">
        <ele>1687</ele>
        <time>2021-10-09T11:40:16</time>
      </trkpt>
      <trkpt lat="42.96841" lon="-0.00261">
        <ele>1687.2</ele>
        <time>2021-10-09T11:40:17</time>
      </trkpt>
      <trkpt lat="42.96841" lon="-0.00258">
        <ele>1687</ele>
        <time>2021-10-09T11:40:18</time>
      </trkpt>
      <trkpt lat="42.96842" lon="-0.00255">
        <ele>1687</ele>
        <time>2021-10-09T11:40:19</time>
      </trkpt>
      <trkpt lat="42.96842" lon="-0.00251">
        <ele>1687</ele>
        <time>2021-10-09T11:40:20</time>
      </trkpt>
      <trkpt lat="42.96842" lon="-0.00247">
        <ele>1687</ele>
        <time>2021-10-09T11:40:21</time>
      </trkpt>
      <trkpt lat="42.96843" lon="-0.00243">
        <ele>1687.2</ele>
        <time>2021-10-09T11:40:22</time>
      </trkpt>
      <trkpt lat="42.96843" lon="-0.0024">
        <ele>1687</ele>
        <time>2021-10-09T11:40:23</time>
      </trkpt>
      <trkpt lat="42.96843" lon="-0.00236">
        <ele>1687.2</ele>
        <time>2021-10-09T11:40:24</time>
      </trkpt>
      <trkpt lat="42.96844" lon="-0.00232">
        <ele>1687.2</ele>
        <time>2021-10-09T11:40:25</time>
      </trkpt>
      <trkpt lat="42.96844" lon="-0.00228">
        <ele>1687.2</ele>
        <time>2021-10-09T11:40:26</time>
      </trkpt>
      <trkpt lat="42.96844" lon="-0.00224">
        <ele>1687.4</ele>
        <time>2021-10-09T11:40:27</time>
      </trkpt>
      <trkpt lat="42.96843" lon="-0.0022">
        <ele>1687.4</ele>
        <time>2021-10-09T11:40:28</time>
      </trkpt>
      <trkpt lat="42.96843" lon="-0.00215">
        <ele>1687.4</ele>
        <time>2021-10-09T11:40:29</time>
      </trkpt>
      <trkpt lat="42.96843" lon="-0.00211">
        <ele>1687.4</ele>
        <time>2021-10-09T11:40:30</time>
      </trkpt>
      <trkpt lat="42.96843" lon="-0.00206">
        <ele>1687.4</ele>
        <time>2021-10-09T11:40:31</time>
      </trkpt>
      <trkpt lat="42.96843" lon="-0.00202">
        <ele>1687.6</ele>
        <time>2021-10-09T11:40:32</time>
      </trkpt>
      <trkpt lat="42.96843" lon="-0.00198">
        <ele>1687.6</ele>
        <time>2021-10-09T11:40:33</time>
      </trkpt>
      <trkpt lat="42.96843" lon="-0.00194">
        <ele>1687.6</ele>
        <time>2021-10-09T11:40:34</time>
      </trkpt>
      <trkpt lat="42.96843" lon="-0.0019">
        <ele>1687.6</ele>
        <time>2021-10-09T11:40:35</time>
      </trkpt>
      <trkpt lat="42.96843" lon="-0.00186">
        <ele>1687.6</ele>
        <time>2021-10-09T11:40:36</time>
      </trkpt>
      <trkpt lat="42.96843" lon="-0.00182">
        <ele>1687.8</ele>
        <time>2021-10-09T11:40:37</time>
      </trkpt>
      <trkpt lat="42.96843" lon="-0.00178">
        <ele>1687.8</ele>
        <time>2021-10-09T11:40:38</time>
      </trkpt>
      <trkpt lat="42.96843" lon="-0.00173">
        <ele>1688</ele>
        <time>2021-10-09T11:40:39</time>
      </trkpt>
      <trkpt lat="42.96843" lon="-0.00169">
        <ele>1688</ele>
        <time>2021-10-09T11:40:40</time>
      </trkpt>
      <trkpt lat="42.96843" lon="-0.00165">
        <ele>1688.2</ele>
        <time>2021-10-09T11:40:41</time>
      </trkpt>
      <trkpt lat="42.96843" lon="-0.00162">
        <ele>1688.2</ele>
        <time>2021-10-09T11:40:42</time>
      </trkpt>
      <trkpt lat="42.96843" lon="-0.00158">
        <ele>1688.2</ele>
        <time>2021-10-09T11:40:43</time>
      </trkpt>
      <trkpt lat="42.96844" lon="-0.00154">
        <ele>1688.4</ele>
        <time>2021-10-09T11:40:44</time>
      </trkpt>
      <trkpt lat="42.96844" lon="-0.0015">
        <ele>1688.6</ele>
        <time>2021-10-09T11:40:45</time>
      </trkpt>
      <trkpt lat="42.96844" lon="-0.00146">
        <ele>1688.8</ele>
        <time>2021-10-09T11:40:46</time>
      </trkpt>
      <trkpt lat="42.96844" lon="-0.00142">
        <ele>1688.8</ele>
        <time>2021-10-09T11:40:47</time>
      </trkpt>
      <trkpt lat="42.96845" lon="-0.00138">
        <ele>1688.8</ele>
        <time>2021-10-09T11:40:48</time>
      </trkpt>
      <trkpt lat="42.96845" lon="-0.00134">
        <ele>1688.8</ele>
        <time>2021-10-09T11:40:49</time>
      </trkpt>
      <trkpt lat="42.96846" lon="-0.0013">
        <ele>1689</ele>
        <time>2021-10-09T11:40:50</time>
      </trkpt>
      <trkpt lat="42.96846" lon="-0.00126">
        <ele>1689.2</ele>
        <time>2021-10-09T11:40:51</time>
      </trkpt>
      <trkpt lat="42.96847" lon="-0.00122">
        <ele>1689.2</ele>
        <time>2021-10-09T11:40:52</time>
      </trkpt>
      <trkpt lat="42.96847" lon="-0.00119">
        <ele>1689.2</ele>
        <time>2021-10-09T11:40:53</time>
      </trkpt>
      <trkpt lat="42.96848" lon="-0.00115">
        <ele>1689.4</ele>
        <time>2021-10-09T11:40:54</time>
      </trkpt>
      <trkpt lat="42.96848" lon="-0.00111">
        <ele>1689.6</ele>
        <time>2021-10-09T11:40:55</time>
      </trkpt>
      <trkpt lat="42.96849" lon="-0.00108">
        <ele>1689.8</ele>
        <time>2021-10-09T11:40:56</time>
      </trkpt>
      <trkpt lat="42.96849" lon="-0.00105">
        <ele>1689.8</ele>
        <time>2021-10-09T11:40:57</time>
      </trkpt>
      <trkpt lat="42.96849" lon="-0.00101">
        <ele>1690</ele>
        <time>2021-10-09T11:40:58</time>
      </trkpt>
      <trkpt lat="42.9685" lon="-0.00098">
        <ele>1690.2</ele>
        <time>2021-10-09T11:40:59</time>
      </trkpt>
      <trkpt lat="42.9685" lon="-0.00094">
        <ele>1690.4</ele>
        <time>2021-10-09T11:41:00</time>
      </trkpt>
      <trkpt lat="42.96851" lon="-0.00091">
        <ele>1690.4</ele>
        <time>2021-10-09T11:41:01</time>
      </trkpt>
      <trkpt lat="42.96851" lon="-0.00088">
        <ele>1690.6</ele>
        <time>2021-10-09T11:41:02</time>
      </trkpt>
      <trkpt lat="42.96852" lon="-0.00085">
        <ele>1690.8</ele>
        <time>2021-10-09T11:41:03</time>
      </trkpt>
      <trkpt lat="42.96852" lon="-0.00081">
        <ele>1690.8</ele>
        <time>2021-10-09T11:41:04</time>
      </trkpt>
      <trkpt lat="42.96853" lon="-0.00078">
        <ele>1691</ele>
        <time>2021-10-09T11:41:05</time>
      </trkpt>
      <trkpt lat="42.96854" lon="-0.00075">
        <ele>1691</ele>
        <time>2021-10-09T11:41:06</time>
      </trkpt>
      <trkpt lat="42.96855" lon="-0.00072">
        <ele>1691.2</ele>
        <time>2021-10-09T11:41:07</time>
      </trkpt>
      <trkpt lat="42.96856" lon="-0.00069">
        <ele>1691.2</ele>
        <time>2021-10-09T11:41:08</time>
      </trkpt>
      <trkpt lat="42.96857" lon="-0.00065">
        <ele>1691.4</ele>
        <time>2021-10-09T11:41:09</time>
      </trkpt>
      <trkpt lat="42.96858" lon="-0.00062">
        <ele>1691.8</ele>
        <time>2021-10-09T11:41:10</time>
      </trkpt>
      <trkpt lat="42.9686" lon="-0.00059">
        <ele>1691.8</ele>
        <time>2021-10-09T11:41:11</time>
      </trkpt>
      <trkpt lat="42.96861" lon="-0.00056">
        <ele>1691.8</ele>
        <time>2021-10-09T11:41:12</time>
      </trkpt>
      <trkpt lat="42.96863" lon="-0.00053">
        <ele>1692</ele>
        <time>2021-10-09T11:41:13</time>
      </trkpt>
      <trkpt lat="42.96864" lon="-0.0005">
        <ele>1692</ele>
        <time>2021-10-09T11:41:14</time>
      </trkpt>
      <trkpt lat="42.96866" lon="-0.00047">
        <ele>1692.2</ele>
        <time>2021-10-09T11:41:15</time>
      </trkpt>
      <trkpt lat="42.96867" lon="-0.00044">
        <ele>1692.2</ele>
        <time>2021-10-09T11:41:16</time>
      </trkpt>
      <trkpt lat="42.96869" lon="-0.00042">
        <ele>1692.4</ele>
        <time>2021-10-09T11:41:17</time>
      </trkpt>
      <trkpt lat="42.96871" lon="-0.00039">
        <ele>1692.6</ele>
        <time>2021-10-09T11:41:18</time>
      </trkpt>
      <trkpt lat="42.96872" lon="-0.00036">
        <ele>1692.6</ele>
        <time>2021-10-09T11:41:19</time>
      </trkpt>
      <trkpt lat="42.96873" lon="-0.00032">
        <ele>1692.6</ele>
        <time>2021-10-09T11:41:20</time>
      </trkpt>
      <trkpt lat="42.96874" lon="-0.00028">
        <ele>1692.8</ele>
        <time>2021-10-09T11:41:21</time>
      </trkpt>
      <trkpt lat="42.96875" lon="-0.00025">
        <ele>1692.8</ele>
        <time>2021-10-09T11:41:22</time>
      </trkpt>
      <trkpt lat="42.96875" lon="-0.00021">
        <ele>1692.8</ele>
        <time>2021-10-09T11:41:23</time>
      </trkpt>
      <trkpt lat="42.96875" lon="-0.00017">
        <ele>1692.8</ele>
        <time>2021-10-09T11:41:24</time>
      </trkpt>
      <trkpt lat="42.96875" lon="-0.00012">
        <ele>1692.6</ele>
        <time>2021-10-09T11:41:25</time>
      </trkpt>
      <trkpt lat="42.96874" lon="-8.0E-5">
        <ele>1692.8</ele>
        <time>2021-10-09T11:41:26</time>
      </trkpt>
      <trkpt lat="42.96874" lon="-4.0E-5">
        <ele>1692.6</ele>
        <time>2021-10-09T11:41:27</time>
      </trkpt>
      <trkpt lat="42.96874" lon="1.0E-5">
        <ele>1692.6</ele>
        <time>2021-10-09T11:41:28</time>
      </trkpt>
      <trkpt lat="42.96873" lon="6.0E-5">
        <ele>1692.6</ele>
        <time>2021-10-09T11:41:29</time>
      </trkpt>
      <trkpt lat="42.96873" lon="0.0001">
        <ele>1692.6</ele>
        <time>2021-10-09T11:41:30</time>
      </trkpt>
      <trkpt lat="42.96872" lon="0.00015">
        <ele>1692.4</ele>
        <time>2021-10-09T11:41:31</time>
      </trkpt>
      <trkpt lat="42.96872" lon="0.0002">
        <ele>1692.4</ele>
        <time>2021-10-09T11:41:32</time>
      </trkpt>
      <trkpt lat="42.96872" lon="0.00025">
        <ele>1692.2</ele>
        <time>2021-10-09T11:41:33</time>
      </trkpt>
      <trkpt lat="42.96871" lon="0.0003">
        <ele>1692.2</ele>
        <time>2021-10-09T11:41:34</time>
      </trkpt>
      <trkpt lat="42.96871" lon="0.00035">
        <ele>1692</ele>
        <time>2021-10-09T11:41:35</time>
      </trkpt>
      <trkpt lat="42.96872" lon="0.0004">
        <ele>1692</ele>
        <time>2021-10-09T11:41:36</time>
      </trkpt>
      <trkpt lat="42.96874" lon="0.00045">
        <ele>1692</ele>
        <time>2021-10-09T11:41:37</time>
      </trkpt>
      <trkpt lat="42.96875" lon="0.00049">
        <ele>1692</ele>
        <time>2021-10-09T11:41:38</time>
      </trkpt>
      <trkpt lat="42.96876" lon="0.00054">
        <ele>1691.8</ele>
        <time>2021-10-09T11:41:39</time>
      </trkpt>
      <trkpt lat="42.96877" lon="0.00058">
        <ele>1691.8</ele>
        <time>2021-10-09T11:41:40</time>
      </trkpt>
      <trkpt lat="42.96878" lon="0.00063">
        <ele>1691.8</ele>
        <time>2021-10-09T11:41:41</time>
      </trkpt>
      <trkpt lat="42.96879" lon="0.00067">
        <ele>1691.8</ele>
        <time>2021-10-09T11:41:42</time>
      </trkpt>
      <trkpt lat="42.9688" lon="0.00071">
        <ele>1691.6</ele>
        <time>2021-10-09T11:41:43</time>
      </trkpt>
      <trkpt lat="42.9688" lon="0.00076">
        <ele>1691.6</ele>
        <time>2021-10-09T11:41:44</time>
      </trkpt>
      <trkpt lat="42.9688" lon="0.00081">
        <ele>1691.8</ele>
        <time>2021-10-09T11:41:45</time>
      </trkpt>
      <trkpt lat="42.96879" lon="0.00085">
        <ele>1692</ele>
        <time>2021-10-09T11:41:46</time>
      </trkpt>
      <trkpt lat="42.96877" lon="0.00089">
        <ele>1691.8</ele>
        <time>2021-10-09T11:41:47</time>
      </trkpt>
      <trkpt lat="42.96876" lon="0.00092">
        <ele>1692</ele>
        <time>2021-10-09T11:41:48</time>
      </trkpt>
      <trkpt lat="42.96874" lon="0.00096">
        <ele>1692</ele>
        <time>2021-10-09T11:41:49</time>
      </trkpt>
      <trkpt lat="42.96872" lon="0.001">
        <ele>1692.2</ele>
        <time>2021-10-09T11:41:50</time>
      </trkpt>
      <trkpt lat="42.96871" lon="0.00103">
        <ele>1692.2</ele>
        <time>2021-10-09T11:41:51</time>
      </trkpt>
      <trkpt lat="42.96869" lon="0.00106">
        <ele>1692.2</ele>
        <time>2021-10-09T11:41:52</time>
      </trkpt>
      <trkpt lat="42.96867" lon="0.00109">
        <ele>1692.2</ele>
        <time>2021-10-09T11:41:53</time>
      </trkpt>
      <trkpt lat="42.96866" lon="0.00112">
        <ele>1692.4</ele>
        <time>2021-10-09T11:41:54</time>
      </trkpt>
      <trkpt lat="42.96864" lon="0.00115">
        <ele>1692.4</ele>
        <time>2021-10-09T11:41:55</time>
      </trkpt>
      <trkpt lat="42.96862" lon="0.00118">
        <ele>1692.4</ele>
        <time>2021-10-09T11:41:56</time>
      </trkpt>
      <trkpt lat="42.9686" lon="0.00122">
        <ele>1692.4</ele>
        <time>2021-10-09T11:41:57</time>
      </trkpt>
      <trkpt lat="42.96859" lon="0.00126">
        <ele>1692.6</ele>
        <time>2021-10-09T11:41:58</time>
      </trkpt>
      <trkpt lat="42.96857" lon="0.00129">
        <ele>1692.6</ele>
        <time>2021-10-09T11:41:59</time>
      </trkpt>
      <trkpt lat="42.96855" lon="0.00133">
        <ele>1692.8</ele>
        <time>2021-10-09T11:42:00</time>
      </trkpt>
      <trkpt lat="42.96853" lon="0.00137">
        <ele>1692.8</ele>
        <time>2021-10-09T11:42:01</time>
      </trkpt>
      <trkpt lat="42.96851" lon="0.0014">
        <ele>1693</ele>
        <time>2021-10-09T11:42:02</time>
      </trkpt>
      <trkpt lat="42.9685" lon="0.00144">
        <ele>1693.2</ele>
        <time>2021-10-09T11:42:03</time>
      </trkpt>
      <trkpt lat="42.96849" lon="0.00148">
        <ele>1693.6</ele>
        <time>2021-10-09T11:42:04</time>
      </trkpt>
      <trkpt lat="42.96848" lon="0.00151">
        <ele>1693.6</ele>
        <time>2021-10-09T11:42:05</time>
      </trkpt>
      <trkpt lat="42.96847" lon="0.00155">
        <ele>1693.8</ele>
        <time>2021-10-09T11:42:06</time>
      </trkpt>
      <trkpt lat="42.96847" lon="0.00159">
        <ele>1694</ele>
        <time>2021-10-09T11:42:07</time>
      </trkpt>
      <trkpt lat="42.96847" lon="0.00162">
        <ele>1694</ele>
        <time>2021-10-09T11:42:08</time>
      </trkpt>
      <trkpt lat="42.96848" lon="0.00166">
        <ele>1694</ele>
        <time>2021-10-09T11:42:09</time>
      </trkpt>
      <trkpt lat="42.96849" lon="0.00169">
        <ele>1694.2</ele>
        <time>2021-10-09T11:42:10</time>
      </trkpt>
      <trkpt lat="42.9685" lon="0.00173">
        <ele>1694.2</ele>
        <time>2021-10-09T11:42:11</time>
      </trkpt>
      <trkpt lat="42.96851" lon="0.00177">
        <ele>1694.4</ele>
        <time>2021-10-09T11:42:12</time>
      </trkpt>
      <trkpt lat="42.96852" lon="0.00181">
        <ele>1694.6</ele>
        <time>2021-10-09T11:42:13</time>
      </trkpt>
      <trkpt lat="42.96853" lon="0.00184">
        <ele>1694.6</ele>
        <time>2021-10-09T11:42:14</time>
      </trkpt>
      <trkpt lat="42.96854" lon="0.00188">
        <ele>1694.6</ele>
        <time>2021-10-09T11:42:15</time>
      </trkpt>
      <trkpt lat="42.96855" lon="0.00191">
        <ele>1694.6</ele>
        <time>2021-10-09T11:42:16</time>
      </trkpt>
      <trkpt lat="42.96856" lon="0.00194">
        <ele>1694.6</ele>
        <time>2021-10-09T11:42:17</time>
      </trkpt>
      <trkpt lat="42.96857" lon="0.00198">
        <ele>1694.6</ele>
        <time>2021-10-09T11:42:18</time>
      </trkpt>
      <trkpt lat="42.96858" lon="0.00202">
        <ele>1694.6</ele>
        <time>2021-10-09T11:42:19</time>
      </trkpt>
      <trkpt lat="42.9686" lon="0.00206">
        <ele>1694.8</ele>
        <time>2021-10-09T11:42:20</time>
      </trkpt>
      <trkpt lat="42.96861" lon="0.00209">
        <ele>1694.8</ele>
        <time>2021-10-09T11:42:21</time>
      </trkpt>
      <trkpt lat="42.96862" lon="0.00213">
        <ele>1694.8</ele>
        <time>2021-10-09T11:42:22</time>
      </trkpt>
      <trkpt lat="42.96863" lon="0.00216">
        <ele>1694.8</ele>
        <time>2021-10-09T11:42:23</time>
      </trkpt>
      <trkpt lat="42.96864" lon="0.0022">
        <ele>1694.8</ele>
        <time>2021-10-09T11:42:24</time>
      </trkpt>
      <trkpt lat="42.96864" lon="0.00224">
        <ele>1694.8</ele>
        <time>2021-10-09T11:42:25</time>
      </trkpt>
      <trkpt lat="42.96865" lon="0.00228">
        <ele>1694.8</ele>
        <time>2021-10-09T11:42:26</time>
      </trkpt>
      <trkpt lat="42.96866" lon="0.00231">
        <ele>1694.8</ele>
        <time>2021-10-09T11:42:27</time>
      </trkpt>
      <trkpt lat="42.96867" lon="0.00235">
        <ele>1694.8</ele>
        <time>2021-10-09T11:42:28</time>
      </trkpt>
      <trkpt lat="42.96868" lon="0.00239">
        <ele>1694.8</ele>
        <time>2021-10-09T11:42:29</time>
      </trkpt>
      <trkpt lat="42.96868" lon="0.00243">
        <ele>1694.8</ele>
        <time>2021-10-09T11:42:30</time>
      </trkpt>
      <trkpt lat="42.96869" lon="0.00247">
        <ele>1694.8</ele>
        <time>2021-10-09T11:42:31</time>
      </trkpt>
      <trkpt lat="42.9687" lon="0.00251">
        <ele>1695</ele>
        <time>2021-10-09T11:42:32</time>
      </trkpt>
      <trkpt lat="42.96871" lon="0.00255">
        <ele>1695.2</ele>
        <time>2021-10-09T11:42:33</time>
      </trkpt>
      <trkpt lat="42.96872" lon="0.00258">
        <ele>1695.2</ele>
        <time>2021-10-09T11:42:34</time>
      </trkpt>
      <trkpt lat="42.96873" lon="0.00262">
        <ele>1695.2</ele>
        <time>2021-10-09T11:42:35</time>
      </trkpt>
      <trkpt lat="42.96875" lon="0.00265">
        <ele>1695.4</ele>
        <time>2021-10-09T11:42:36</time>
      </trkpt>
      <trkpt lat="42.96877" lon="0.00269">
        <ele>1695.4</ele>
        <time>2021-10-09T11:42:37</time>
      </trkpt>
      <trkpt lat="42.96879" lon="0.00272">
        <ele>1695.6</ele>
        <time>2021-10-09T11:42:38</time>
      </trkpt>
      <trkpt lat="42.96882" lon="0.00275">
        <ele>1695.6</ele>
        <time>2021-10-09T11:42:39</time>
      </trkpt>
      <trkpt lat="42.96884" lon="0.00278">
        <ele>1695.4</ele>
        <time>2021-10-09T11:42:40</time>
      </trkpt>
      <trkpt lat="42.96886" lon="0.00281">
        <ele>1695.4</ele>
        <time>2021-10-09T11:42:41</time>
      </trkpt>
      <trkpt lat="42.96889" lon="0.00284">
        <ele>1695.4</ele>
        <time>2021-10-09T11:42:42</time>
      </trkpt>
      <trkpt lat="42.96892" lon="0.00286">
        <ele>1695.4</ele>
        <time>2021-10-09T11:42:43</time>
      </trkpt>
      <trkpt lat="42.96895" lon="0.00288">
        <ele>1695.4</ele>
        <time>2021-10-09T11:42:44</time>
      </trkpt>
      <trkpt lat="42.96898" lon="0.00291">
        <ele>1695.2</ele>
        <time>2021-10-09T11:42:45</time>
      </trkpt>
      <trkpt lat="42.96901" lon="0.00295">
        <ele>1695</ele>
        <time>2021-10-09T11:42:46</time>
      </trkpt>
      <trkpt lat="42.96904" lon="0.00298">
        <ele>1694.8</ele>
        <time>2021-10-09T11:42:47</time>
      </trkpt>
      <trkpt lat="42.96906" lon="0.00303">
        <ele>1694.8</ele>
        <time>2021-10-09T11:42:48</time>
      </trkpt>
      <trkpt lat="42.96907" lon="0.00307">
        <ele>1695</ele>
        <time>2021-10-09T11:42:49</time>
      </trkpt>
      <trkpt lat="42.96908" lon="0.00311">
        <ele>1695.2</ele>
        <time>2021-10-09T11:42:50</time>
      </trkpt>
      <trkpt lat="42.96907" lon="0.00315">
        <ele>1695.4</ele>
        <time>2021-10-09T11:42:51</time>
      </trkpt>
      <trkpt lat="42.96906" lon="0.00319">
        <ele>1695.6</ele>
        <time>2021-10-09T11:42:52</time>
      </trkpt>
      <trkpt lat="42.96905" lon="0.00324">
        <ele>1695.6</ele>
        <time>2021-10-09T11:42:53</time>
      </trkpt>
      <trkpt lat="42.96905" lon="0.00328">
        <ele>1695.6</ele>
        <time>2021-10-09T11:42:54</time>
      </trkpt>
      <trkpt lat="42.96904" lon="0.00332">
        <ele>1695.8</ele>
        <time>2021-10-09T11:42:55</time>
      </trkpt>
      <trkpt lat="42.96903" lon="0.00336">
        <ele>1695.8</ele>
        <time>2021-10-09T11:42:56</time>
      </trkpt>
      <trkpt lat="42.96903" lon="0.00339">
        <ele>1695.8</ele>
        <time>2021-10-09T11:42:57</time>
      </trkpt>
      <trkpt lat="42.96902" lon="0.00342">
        <ele>1695.8</ele>
        <time>2021-10-09T11:42:58</time>
      </trkpt>
      <trkpt lat="42.96901" lon="0.00346">
        <ele>1696</ele>
        <time>2021-10-09T11:42:59</time>
      </trkpt>
      <trkpt lat="42.96901" lon="0.0035">
        <ele>1696</ele>
        <time>2021-10-09T11:43:00</time>
      </trkpt>
      <trkpt lat="42.969" lon="0.00354">
        <ele>1696.2</ele>
        <time>2021-10-09T11:43:01</time>
      </trkpt>
      <trkpt lat="42.96898" lon="0.00358">
        <ele>1696.4</ele>
        <time>2021-10-09T11:43:02</time>
      </trkpt>
      <trkpt lat="42.96898" lon="0.00362">
        <ele>1696.4</ele>
        <time>2021-10-09T11:43:03</time>
      </trkpt>
      <trkpt lat="42.96897" lon="0.00366">
        <ele>1696.6</ele>
        <time>2021-10-09T11:43:04</time>
      </trkpt>
      <trkpt lat="42.96896" lon="0.00369">
        <ele>1696.6</ele>
        <time>2021-10-09T11:43:05</time>
      </trkpt>
      <trkpt lat="42.96895" lon="0.00373">
        <ele>1696.8</ele>
        <time>2021-10-09T11:43:06</time>
      </trkpt>
      <trkpt lat="42.96895" lon="0.00376">
        <ele>1697</ele>
        <time>2021-10-09T11:43:07</time>
      </trkpt>
      <trkpt lat="42.96895" lon="0.00379">
        <ele>1697.2</ele>
        <time>2021-10-09T11:43:08</time>
      </trkpt>
      <trkpt lat="42.96894" lon="0.00383">
        <ele>1697.4</ele>
        <time>2021-10-09T11:43:09</time>
      </trkpt>
      <trkpt lat="42.96894" lon="0.00386">
        <ele>1697.4</ele>
        <time>2021-10-09T11:43:10</time>
      </trkpt>
      <trkpt lat="42.96893" lon="0.0039">
        <ele>1697.4</ele>
        <time>2021-10-09T11:43:11</time>
      </trkpt>
      <trkpt lat="42.96893" lon="0.00393">
        <ele>1697.6</ele>
        <time>2021-10-09T11:43:12</time>
      </trkpt>
      <trkpt lat="42.96893" lon="0.00396">
        <ele>1697.6</ele>
        <time>2021-10-09T11:43:13</time>
      </trkpt>
      <trkpt lat="42.96893" lon="0.00398">
        <ele>1697.6</ele>
        <time>2021-10-09T11:43:14</time>
      </trkpt>
      <trkpt lat="42.96893" lon="0.00401">
        <ele>1697.6</ele>
        <time>2021-10-09T11:43:15</time>
      </trkpt>
      <trkpt lat="42.96893" lon="0.00404">
        <ele>1697.6</ele>
        <time>2021-10-09T11:43:16</time>
      </trkpt>
      <trkpt lat="42.96893" lon="0.00408">
        <ele>1697.6</ele>
        <time>2021-10-09T11:43:17</time>
      </trkpt>
      <trkpt lat="42.96893" lon="0.00412">
        <ele>1697.6</ele>
        <time>2021-10-09T11:43:18</time>
      </trkpt>
      <trkpt lat="42.96893" lon="0.00416">
        <ele>1697.8</ele>
        <time>2021-10-09T11:43:19</time>
      </trkpt>
      <trkpt lat="42.96893" lon="0.00419">
        <ele>1697.8</ele>
        <time>2021-10-09T11:43:20</time>
      </trkpt>
      <trkpt lat="42.96893" lon="0.00422">
        <ele>1697.8</ele>
        <time>2021-10-09T11:43:21</time>
      </trkpt>
      <trkpt lat="42.96893" lon="0.00425">
        <ele>1697.8</ele>
        <time>2021-10-09T11:43:22</time>
      </trkpt>
      <trkpt lat="42.96893" lon="0.00428">
        <ele>1698</ele>
        <time>2021-10-09T11:43:23</time>
      </trkpt>
      <trkpt lat="42.96893" lon="0.00433">
        <ele>1698</ele>
        <time>2021-10-09T11:43:24</time>
      </trkpt>
      <trkpt lat="42.96893" lon="0.00437">
        <ele>1697.8</ele>
        <time>2021-10-09T11:43:25</time>
      </trkpt>
      <trkpt lat="42.96894" lon="0.00441">
        <ele>1698</ele>
        <time>2021-10-09T11:43:26</time>
      </trkpt>
      <trkpt lat="42.96894" lon="0.00445">
        <ele>1698.2</ele>
        <time>2021-10-09T11:43:27</time>
      </trkpt>
      <trkpt lat="42.96894" lon="0.00449">
        <ele>1698.4</ele>
        <time>2021-10-09T11:43:28</time>
      </trkpt>
      <trkpt lat="42.96894" lon="0.00453">
        <ele>1698.2</ele>
        <time>2021-10-09T11:43:29</time>
      </trkpt>
      <trkpt lat="42.96894" lon="0.00456">
        <ele>1698.2</ele>
        <time>2021-10-09T11:43:30</time>
      </trkpt>
      <trkpt lat="42.96894" lon="0.00459">
        <ele>1698</ele>
        <time>2021-10-09T11:43:31</time>
      </trkpt>
      <trkpt lat="42.96894" lon="0.00463">
        <ele>1698</ele>
        <time>2021-10-09T11:43:32</time>
      </trkpt>
      <trkpt lat="42.96893" lon="0.00467">
        <ele>1698.2</ele>
        <time>2021-10-09T11:43:33</time>
      </trkpt>
      <trkpt lat="42.96893" lon="0.00472">
        <ele>1698.2</ele>
        <time>2021-10-09T11:43:34</time>
      </trkpt>
      <trkpt lat="42.96892" lon="0.00476">
        <ele>1698</ele>
        <time>2021-10-09T11:43:35</time>
      </trkpt>
      <trkpt lat="42.96891" lon="0.0048">
        <ele>1698</ele>
        <time>2021-10-09T11:43:36</time>
      </trkpt>
      <trkpt lat="42.9689" lon="0.00484">
        <ele>1698.2</ele>
        <time>2021-10-09T11:43:37</time>
      </trkpt>
      <trkpt lat="42.96889" lon="0.00488">
        <ele>1698.2</ele>
        <time>2021-10-09T11:43:38</time>
      </trkpt>
      <trkpt lat="42.96888" lon="0.00493">
        <ele>1698.2</ele>
        <time>2021-10-09T11:43:39</time>
      </trkpt>
      <trkpt lat="42.96887" lon="0.00498">
        <ele>1698.2</ele>
        <time>2021-10-09T11:43:40</time>
      </trkpt>
      <trkpt lat="42.96885" lon="0.00502">
        <ele>1698</ele>
        <time>2021-10-09T11:43:41</time>
      </trkpt>
      <trkpt lat="42.96884" lon="0.00507">
        <ele>1698.2</ele>
        <time>2021-10-09T11:43:42</time>
      </trkpt>
      <trkpt lat="42.96883" lon="0.00512">
        <ele>1698.2</ele>
        <time>2021-10-09T11:43:43</time>
      </trkpt>
      <trkpt lat="42.96882" lon="0.00517">
        <ele>1697.6</ele>
        <time>2021-10-09T11:43:44</time>
      </trkpt>
      <trkpt lat="42.9688" lon="0.00522">
        <ele>1697.4</ele>
        <time>2021-10-09T11:43:45</time>
      </trkpt>
      <trkpt lat="42.96878" lon="0.00525">
        <ele>1697.6</ele>
        <time>2021-10-09T11:43:46</time>
      </trkpt>
      <trkpt lat="42.96876" lon="0.0053">
        <ele>1697.8</ele>
        <time>2021-10-09T11:43:47</time>
      </trkpt>
      <trkpt lat="42.96874" lon="0.00535">
        <ele>1697.6</ele>
        <time>2021-10-09T11:43:48</time>
      </trkpt>
      <trkpt lat="42.96872" lon="0.0054">
        <ele>1697.6</ele>
        <time>2021-10-09T11:43:49</time>
      </trkpt>
      <trkpt lat="42.9687" lon="0.00545">
        <ele>1697.4</ele>
        <time>2021-10-09T11:43:50</time>
      </trkpt>
      <trkpt lat="42.96868" lon="0.00551">
        <ele>1697.2</ele>
        <time>2021-10-09T11:43:51</time>
      </trkpt>
      <trkpt lat="42.96867" lon="0.00556">
        <ele>1697</ele>
        <time>2021-10-09T11:43:52</time>
      </trkpt>
      <trkpt lat="42.96866" lon="0.00561">
        <ele>1697</ele>
        <time>2021-10-09T11:43:53</time>
      </trkpt>
      <trkpt lat="42.96864" lon="0.00566">
        <ele>1697</ele>
        <time>2021-10-09T11:43:54</time>
      </trkpt>
      <trkpt lat="42.96863" lon="0.00571">
        <ele>1697</ele>
        <time>2021-10-09T11:43:55</time>
      </trkpt>
      <trkpt lat="42.96862" lon="0.00575">
        <ele>1697</ele>
        <time>2021-10-09T11:43:56</time>
      </trkpt>
      <trkpt lat="42.96861" lon="0.00579">
        <ele>1696.8</ele>
        <time>2021-10-09T11:43:57</time>
      </trkpt>
      <trkpt lat="42.96859" lon="0.00584">
        <ele>1696.6</ele>
        <time>2021-10-09T11:43:58</time>
      </trkpt>
      <trkpt lat="42.96858" lon="0.00588">
        <ele>1696.6</ele>
        <time>2021-10-09T11:43:59</time>
      </trkpt>
      <trkpt lat="42.96857" lon="0.00591">
        <ele>1696.8</ele>
        <time>2021-10-09T11:44:00</time>
      </trkpt>
      <trkpt lat="42.96856" lon="0.00595">
        <ele>1696.6</ele>
        <time>2021-10-09T11:44:01</time>
      </trkpt>
      <trkpt lat="42.96856" lon="0.00599">
        <ele>1696.6</ele>
        <time>2021-10-09T11:44:02</time>
      </trkpt>
      <trkpt lat="42.96856" lon="0.00604">
        <ele>1696.4</ele>
        <time>2021-10-09T11:44:03</time>
      </trkpt>
      <trkpt lat="42.96857" lon="0.00609">
        <ele>1696.4</ele>
        <time>2021-10-09T11:44:04</time>
      </trkpt>
      <trkpt lat="42.96858" lon="0.00614">
        <ele>1696.2</ele>
        <time>2021-10-09T11:44:05</time>
      </trkpt>
      <trkpt lat="42.96859" lon="0.00619">
        <ele>1695.8</ele>
        <time>2021-10-09T11:44:06</time>
      </trkpt>
      <trkpt lat="42.96859" lon="0.00625">
        <ele>1695.6</ele>
        <time>2021-10-09T11:44:07</time>
      </trkpt>
      <trkpt lat="42.96859" lon="0.0063">
        <ele>1695.4</ele>
        <time>2021-10-09T11:44:08</time>
      </trkpt>
      <trkpt lat="42.96858" lon="0.00635">
        <ele>1695</ele>
        <time>2021-10-09T11:44:09</time>
      </trkpt>
      <trkpt lat="42.96858" lon="0.00638">
        <ele>1694.8</ele>
        <time>2021-10-09T11:44:10</time>
      </trkpt>
      <trkpt lat="42.96857" lon="0.00641">
        <ele>1694.6</ele>
        <time>2021-10-09T11:44:11</time>
      </trkpt>
      <trkpt lat="42.96857" lon="0.00644">
        <ele>1694.4</ele>
        <time>2021-10-09T11:44:12</time>
      </trkpt>
      <trkpt lat="42.96857" lon="0.00648">
        <ele>1694</ele>
        <time>2021-10-09T11:44:13</time>
      </trkpt>
      <trkpt lat="42.96856" lon="0.00652">
        <ele>1693.6</ele>
        <time>2021-10-09T11:44:14</time>
      </trkpt>
      <trkpt lat="42.96856" lon="0.00657">
        <ele>1693.2</ele>
        <time>2021-10-09T11:44:15</time>
      </trkpt>
      <trkpt lat="42.96855" lon="0.00663">
        <ele>1692.8</ele>
        <time>2021-10-09T11:44:16</time>
      </trkpt>
      <trkpt lat="42.96855" lon="0.00669">
        <ele>1692.2</ele>
        <time>2021-10-09T11:44:17</time>
      </trkpt>
      <trkpt lat="42.96855" lon="0.00674">
        <ele>1691.6</ele>
        <time>2021-10-09T11:44:18</time>
      </trkpt>
      <trkpt lat="42.96855" lon="0.00679">
        <ele>1691</ele>
        <time>2021-10-09T11:44:19</time>
      </trkpt>
      <trkpt lat="42.96854" lon="0.00684">
        <ele>1690.4</ele>
        <time>2021-10-09T11:44:20</time>
      </trkpt>
      <trkpt lat="42.96853" lon="0.00689">
        <ele>1690</ele>
        <time>2021-10-09T11:44:21</time>
      </trkpt>
      <trkpt lat="42.96853" lon="0.00692">
        <ele>1689.8</ele>
        <time>2021-10-09T11:44:22</time>
      </trkpt>
      <trkpt lat="42.96853" lon="0.00694">
        <ele>1689.4</ele>
        <time>2021-10-09T11:44:23</time>
      </trkpt>
      <trkpt lat="42.96853" lon="0.00696">
        <ele>1689.4</ele>
        <time>2021-10-09T11:44:24</time>
      </trkpt>
      <trkpt lat="42.96852" lon="0.00698">
        <ele>1689</ele>
        <time>2021-10-09T11:44:25</time>
      </trkpt>
      <trkpt lat="42.96851" lon="0.007">
        <ele>1689</ele>
        <time>2021-10-09T11:44:26</time>
      </trkpt>
      <trkpt lat="42.9685" lon="0.00703">
        <ele>1688.8</ele>
        <time>2021-10-09T11:44:27</time>
      </trkpt>
      <trkpt lat="42.96849" lon="0.00704">
        <ele>1688.6</ele>
        <time>2021-10-09T11:44:28</time>
      </trkpt>
      <trkpt lat="42.96849" lon="0.00705">
        <ele>1688.6</ele>
        <time>2021-10-09T11:44:29</time>
      </trkpt>
      <trkpt lat="42.96849" lon="0.00705">
        <ele>1688.6</ele>
        <time>2021-10-09T11:44:30</time>
      </trkpt>
      <trkpt lat="42.96849" lon="0.00705">
        <ele>1688.4</ele>
        <time>2021-10-09T11:44:31</time>
      </trkpt>
      <trkpt lat="42.96849" lon="0.00705">
        <ele>1688.4</ele>
        <time>2021-10-09T11:44:32</time>
      </trkpt>
      <trkpt lat="42.96849" lon="0.00705">
        <ele>1688.6</ele>
        <time>2021-10-09T11:44:33</time>
      </trkpt>
      <trkpt lat="42.96849" lon="0.00705">
        <ele>1688.4</ele>
        <time>2021-10-09T11:44:34</time>
      </trkpt>
      <trkpt lat="42.96849" lon="0.00705">
        <ele>1688.4</ele>
        <time>2021-10-09T11:44:35</time>
      </trkpt>
      <trkpt lat="42.96849" lon="0.00705">
        <ele>1688.4</ele>
        <time>2021-10-09T11:44:36</time>
      </trkpt>
      <trkpt lat="42.96849" lon="0.00758">
        <ele>1686</ele>
        <time>2021-10-09T11:44:53</time>
      </trkpt>
      <trkpt lat="42.96849" lon="0.00762">
        <ele>1686.6</ele>
        <time>2021-10-09T11:44:54</time>
      </trkpt>
      <trkpt lat="42.96848" lon="0.00765">
        <ele>1687</ele>
        <time>2021-10-09T11:44:55</time>
      </trkpt>
      <trkpt lat="42.96848" lon="0.00767">
        <ele>1687.6</ele>
        <time>2021-10-09T11:44:56</time>
      </trkpt>
      <trkpt lat="42.96848" lon="0.0077">
        <ele>1688</ele>
        <time>2021-10-09T11:44:57</time>
      </trkpt>
      <trkpt lat="42.96848" lon="0.00772">
        <ele>1688.4</ele>
        <time>2021-10-09T11:44:58</time>
      </trkpt>
      <trkpt lat="42.96847" lon="0.00774">
        <ele>1688.8</ele>
        <time>2021-10-09T11:44:59</time>
      </trkpt>
      <trkpt lat="42.96847" lon="0.00776">
        <ele>1689.4</ele>
        <time>2021-10-09T11:45:00</time>
      </trkpt>
      <trkpt lat="42.96847" lon="0.00779">
        <ele>1689.8</ele>
        <time>2021-10-09T11:45:01</time>
      </trkpt>
      <trkpt lat="42.96846" lon="0.00781">
        <ele>1690.2</ele>
        <time>2021-10-09T11:45:02</time>
      </trkpt>
      <trkpt lat="42.96846" lon="0.00783">
        <ele>1690.8</ele>
        <time>2021-10-09T11:45:03</time>
      </trkpt>
      <trkpt lat="42.96845" lon="0.00786">
        <ele>1691.2</ele>
        <time>2021-10-09T11:45:04</time>
      </trkpt>
      <trkpt lat="42.96845" lon="0.00788">
        <ele>1691.8</ele>
        <time>2021-10-09T11:45:05</time>
      </trkpt>
      <trkpt lat="42.96846" lon="0.0079">
        <ele>1692.2</ele>
        <time>2021-10-09T11:45:06</time>
      </trkpt>
      <trkpt lat="42.96845" lon="0.00793">
        <ele>1693</ele>
        <time>2021-10-09T11:45:07</time>
      </trkpt>
      <trkpt lat="42.96845" lon="0.00795">
        <ele>1693.6</ele>
        <time>2021-10-09T11:45:08</time>
      </trkpt>
      <trkpt lat="42.96845" lon="0.00797">
        <ele>1693.6</ele>
        <time>2021-10-09T11:45:09</time>
      </trkpt>
      <trkpt lat="42.96844" lon="0.00799">
        <ele>1693.8</ele>
        <time>2021-10-09T11:45:10</time>
      </trkpt>
      <trkpt lat="42.96843" lon="0.00801">
        <ele>1693.8</ele>
        <time>2021-10-09T11:45:11</time>
      </trkpt>
      <trkpt lat="42.96843" lon="0.00803">
        <ele>1694</ele>
        <time>2021-10-09T11:45:12</time>
      </trkpt>
      <trkpt lat="42.96842" lon="0.00805">
        <ele>1694</ele>
        <time>2021-10-09T11:45:13</time>
      </trkpt>
      <trkpt lat="42.96841" lon="0.00807">
        <ele>1694.2</ele>
        <time>2021-10-09T11:45:14</time>
      </trkpt>
      <trkpt lat="42.9684" lon="0.00809">
        <ele>1694.2</ele>
        <time>2021-10-09T11:45:15</time>
      </trkpt>
      <trkpt lat="42.96839" lon="0.00812">
        <ele>1694.6</ele>
        <time>2021-10-09T11:45:16</time>
      </trkpt>
      <trkpt lat="42.96838" lon="0.00814">
        <ele>1694.6</ele>
        <time>2021-10-09T11:45:17</time>
      </trkpt>
      <trkpt lat="42.96838" lon="0.00816">
        <ele>1694.8</ele>
        <time>2021-10-09T11:45:18</time>
      </trkpt>
      <trkpt lat="42.96837" lon="0.00818">
        <ele>1695</ele>
        <time>2021-10-09T11:45:19</time>
      </trkpt>
      <trkpt lat="42.96836" lon="0.0082">
        <ele>1695.2</ele>
        <time>2021-10-09T11:45:20</time>
      </trkpt>
      <trkpt lat="42.96835" lon="0.00822">
        <ele>1695.4</ele>
        <time>2021-10-09T11:45:21</time>
      </trkpt>
      <trkpt lat="42.96834" lon="0.00825">
        <ele>1695.4</ele>
        <time>2021-10-09T11:45:22</time>
      </trkpt>
      <trkpt lat="42.96833" lon="0.00827">
        <ele>1695.6</ele>
        <time>2021-10-09T11:45:23</time>
      </trkpt>
      <trkpt lat="42.96832" lon="0.00829">
        <ele>1695.6</ele>
        <time>2021-10-09T11:45:24</time>
      </trkpt>
      <trkpt lat="42.96831" lon="0.00831">
        <ele>1695.8</ele>
        <time>2021-10-09T11:45:25</time>
      </trkpt>
      <trkpt lat="42.9683" lon="0.00833">
        <ele>1696</ele>
        <time>2021-10-09T11:45:26</time>
      </trkpt>
      <trkpt lat="42.96829" lon="0.00835">
        <ele>1696.2</ele>
        <time>2021-10-09T11:45:27</time>
      </trkpt>
      <trkpt lat="42.96827" lon="0.00837">
        <ele>1696.4</ele>
        <time>2021-10-09T11:45:28</time>
      </trkpt>
      <trkpt lat="42.96826" lon="0.00839">
        <ele>1696.4</ele>
        <time>2021-10-09T11:45:29</time>
      </trkpt>
      <trkpt lat="42.96825" lon="0.00841">
        <ele>1696.4</ele>
        <time>2021-10-09T11:45:30</time>
      </trkpt>
      <trkpt lat="42.96823" lon="0.00843">
        <ele>1696.6</ele>
        <time>2021-10-09T11:45:31</time>
      </trkpt>
      <trkpt lat="42.96822" lon="0.00844">
        <ele>1696.6</ele>
        <time>2021-10-09T11:45:32</time>
      </trkpt>
      <trkpt lat="42.9682" lon="0.00845">
        <ele>1696.6</ele>
        <time>2021-10-09T11:45:33</time>
      </trkpt>
      <trkpt lat="42.96818" lon="0.00845">
        <ele>1696.6</ele>
        <time>2021-10-09T11:45:34</time>
      </trkpt>
      <trkpt lat="42.96816" lon="0.00846">
        <ele>1696.6</ele>
        <time>2021-10-09T11:45:35</time>
      </trkpt>
      <trkpt lat="42.96814" lon="0.00847">
        <ele>1696.6</ele>
        <time>2021-10-09T11:45:36</time>
      </trkpt>
      <trkpt lat="42.96812" lon="0.00848">
        <ele>1696.4</ele>
        <time>2021-10-09T11:45:37</time>
      </trkpt>
      <trkpt lat="42.9681" lon="0.00848">
        <ele>1696.6</ele>
        <time>2021-10-09T11:45:38</time>
      </trkpt>
      <trkpt lat="42.96808" lon="0.00848">
        <ele>1696.8</ele>
        <time>2021-10-09T11:45:39</time>
      </trkpt>
      <trkpt lat="42.96807" lon="0.00847">
        <ele>1697</ele>
        <time>2021-10-09T11:45:40</time>
      </trkpt>
      <trkpt lat="42.96805" lon="0.00846">
        <ele>1697.4</ele>
        <time>2021-10-09T11:45:41</time>
      </trkpt>
      <trkpt lat="42.96804" lon="0.00847">
        <ele>1697.6</ele>
        <time>2021-10-09T11:45:42</time>
      </trkpt>
      <trkpt lat="42.96802" lon="0.00848">
        <ele>1697.8</ele>
        <time>2021-10-09T11:45:43</time>
      </trkpt>
      <trkpt lat="42.96801" lon="0.00849">
        <ele>1697.8</ele>
        <time>2021-10-09T11:45:44</time>
      </trkpt>
      <trkpt lat="42.968" lon="0.00849">
        <ele>1698</ele>
        <time>2021-10-09T11:45:45</time>
      </trkpt>
      <trkpt lat="42.96799" lon="0.00849">
        <ele>1698</ele>
        <time>2021-10-09T11:45:46</time>
      </trkpt>
      <trkpt lat="42.96798" lon="0.0085">
        <ele>1698.2</ele>
        <time>2021-10-09T11:45:47</time>
      </trkpt>
      <trkpt lat="42.96797" lon="0.00851">
        <ele>1698.2</ele>
        <time>2021-10-09T11:45:48</time>
      </trkpt>
      <trkpt lat="42.96797" lon="0.00852">
        <ele>1698.2</ele>
        <time>2021-10-09T11:45:49</time>
      </trkpt>
      <trkpt lat="42.96797" lon="0.00852">
        <ele>1698.2</ele>
        <time>2021-10-09T11:45:50</time>
      </trkpt>
      <trkpt lat="42.96797" lon="0.00852">
        <ele>1698.2</ele>
        <time>2021-10-09T11:45:51</time>
      </trkpt>
      <trkpt lat="42.96797" lon="0.00853">
        <ele>1698.2</ele>
        <time>2021-10-09T11:45:52</time>
      </trkpt>
      <trkpt lat="42.96797" lon="0.00853">
        <ele>1698.2</ele>
        <time>2021-10-09T11:45:53</time>
      </trkpt>
      <trkpt lat="42.96797" lon="0.00853">
        <ele>1698</ele>
        <time>2021-10-09T11:45:54</time>
      </trkpt>
      <trkpt lat="42.96797" lon="0.00853">
        <ele>1698</ele>
        <time>2021-10-09T11:45:55</time>
      </trkpt>
      <trkpt lat="42.96797" lon="0.00853">
        <ele>1698</ele>
        <time>2021-10-09T11:45:56</time>
      </trkpt>
      <trkpt lat="42.96797" lon="0.00853">
        <ele>1698</ele>
        <time>2021-10-09T11:45:57</time>
      </trkpt>
      <trkpt lat="42.96789" lon="0.00866">
        <ele>1696.4</ele>
        <time>2021-10-09T12:24:03</time>
      </trkpt>
      <trkpt lat="42.96789" lon="0.00866">
        <ele>1696.6</ele>
        <time>2021-10-09T12:24:04</time>
      </trkpt>
      <trkpt lat="42.96789" lon="0.00866">
        <ele>1696.4</ele>
        <time>2021-10-09T12:24:06</time>
      </trkpt>
      <trkpt lat="42.96789" lon="0.00866">
        <ele>1696.6</ele>
        <time>2021-10-09T12:24:07</time>
      </trkpt>
      <trkpt lat="42.9678" lon="0.00881">
        <ele>1696.8</ele>
        <time>2021-10-09T12:24:25</time>
      </trkpt>
      <trkpt lat="42.96779" lon="0.00882">
        <ele>1696.6</ele>
        <time>2021-10-09T12:24:27</time>
      </trkpt>
      <trkpt lat="42.96775" lon="0.00884">
        <ele>1695.8</ele>
        <time>2021-10-09T12:24:28</time>
      </trkpt>
      <trkpt lat="42.96774" lon="0.00885">
        <ele>1695.4</ele>
        <time>2021-10-09T12:24:29</time>
      </trkpt>
      <trkpt lat="42.96772" lon="0.00887">
        <ele>1695</ele>
        <time>2021-10-09T12:24:30</time>
      </trkpt>
      <trkpt lat="42.9677" lon="0.00889">
        <ele>1695</ele>
        <time>2021-10-09T12:24:31</time>
      </trkpt>
      <trkpt lat="42.96768" lon="0.00891">
        <ele>1695</ele>
        <time>2021-10-09T12:24:32</time>
      </trkpt>
      <trkpt lat="42.96766" lon="0.00893">
        <ele>1694.2</ele>
        <time>2021-10-09T12:24:33</time>
      </trkpt>
      <trkpt lat="42.96763" lon="0.00896">
        <ele>1694.2</ele>
        <time>2021-10-09T12:24:34</time>
      </trkpt>
      <trkpt lat="42.96761" lon="0.009">
        <ele>1693.8</ele>
        <time>2021-10-09T12:24:35</time>
      </trkpt>
      <trkpt lat="42.96758" lon="0.00904">
        <ele>1693.6</ele>
        <time>2021-10-09T12:24:36</time>
      </trkpt>
      <trkpt lat="42.96756" lon="0.00908">
        <ele>1693.8</ele>
        <time>2021-10-09T12:24:37</time>
      </trkpt>
      <trkpt lat="42.96754" lon="0.0091">
        <ele>1694</ele>
        <time>2021-10-09T12:24:39</time>
      </trkpt>
      <trkpt lat="42.9675" lon="0.00915">
        <ele>1693.6</ele>
        <time>2021-10-09T12:24:40</time>
      </trkpt>
      <trkpt lat="42.96747" lon="0.00918">
        <ele>1693.6</ele>
        <time>2021-10-09T12:24:41</time>
      </trkpt>
      <trkpt lat="42.96744" lon="0.00921">
        <ele>1693.6</ele>
        <time>2021-10-09T12:24:42</time>
      </trkpt>
      <trkpt lat="42.96741" lon="0.00924">
        <ele>1693.8</ele>
        <time>2021-10-09T12:24:44</time>
      </trkpt>
      <trkpt lat="42.96736" lon="0.00932">
        <ele>1694</ele>
        <time>2021-10-09T12:24:45</time>
      </trkpt>
      <trkpt lat="42.96733" lon="0.00935">
        <ele>1693.6</ele>
        <time>2021-10-09T12:24:46</time>
      </trkpt>
      <trkpt lat="42.9673" lon="0.00937">
        <ele>1693.4</ele>
        <time>2021-10-09T12:24:47</time>
      </trkpt>
      <trkpt lat="42.96728" lon="0.0094">
        <ele>1693.6</ele>
        <time>2021-10-09T12:24:48</time>
      </trkpt>
      <trkpt lat="42.96726" lon="0.00944">
        <ele>1693.2</ele>
        <time>2021-10-09T12:24:49</time>
      </trkpt>
      <trkpt lat="42.96724" lon="0.00949">
        <ele>1692.8</ele>
        <time>2021-10-09T12:24:50</time>
      </trkpt>
      <trkpt lat="42.96722" lon="0.00954">
        <ele>1692.6</ele>
        <time>2021-10-09T12:24:52</time>
      </trkpt>
      <trkpt lat="42.96717" lon="0.00964">
        <ele>1692.4</ele>
        <time>2021-10-09T12:24:53</time>
      </trkpt>
      <trkpt lat="42.96715" lon="0.00969">
        <ele>1692.4</ele>
        <time>2021-10-09T12:24:54</time>
      </trkpt>
      <trkpt lat="42.96712" lon="0.00974">
        <ele>1692.2</ele>
        <time>2021-10-09T12:24:55</time>
      </trkpt>
      <trkpt lat="42.96709" lon="0.00979">
        <ele>1692.4</ele>
        <time>2021-10-09T12:24:56</time>
      </trkpt>
      <trkpt lat="42.96707" lon="0.00983">
        <ele>1692.4</ele>
        <time>2021-10-09T12:24:57</time>
      </trkpt>
      <trkpt lat="42.96704" lon="0.00988">
        <ele>1692.6</ele>
        <time>2021-10-09T12:24:59</time>
      </trkpt>
      <trkpt lat="42.96699" lon="0.00995">
        <ele>1692.4</ele>
        <time>2021-10-09T12:25:00</time>
      </trkpt>
      <trkpt lat="42.96696" lon="0.00999">
        <ele>1692.2</ele>
        <time>2021-10-09T12:25:01</time>
      </trkpt>
      <trkpt lat="42.96693" lon="0.01004">
        <ele>1691.8</ele>
        <time>2021-10-09T12:25:02</time>
      </trkpt>
      <trkpt lat="42.96691" lon="0.0101">
        <ele>1691.8</ele>
        <time>2021-10-09T12:25:04</time>
      </trkpt>
      <trkpt lat="42.96687" lon="0.01022">
        <ele>1691.4</ele>
        <time>2021-10-09T12:25:05</time>
      </trkpt>
      <trkpt lat="42.96685" lon="0.01028">
        <ele>1691.2</ele>
        <time>2021-10-09T12:25:06</time>
      </trkpt>
      <trkpt lat="42.96685" lon="0.01035">
        <ele>1690.8</ele>
        <time>2021-10-09T12:25:07</time>
      </trkpt>
      <trkpt lat="42.96685" lon="0.01043">
        <ele>1690.2</ele>
        <time>2021-10-09T12:25:08</time>
      </trkpt>
      <trkpt lat="42.96684" lon="0.01051">
        <ele>1690</ele>
        <time>2021-10-09T12:25:09</time>
      </trkpt>
      <trkpt lat="42.96682" lon="0.01057">
        <ele>1689.8</ele>
        <time>2021-10-09T12:25:11</time>
      </trkpt>
      <trkpt lat="42.96675" lon="0.01068">
        <ele>1690</ele>
        <time>2021-10-09T12:25:12</time>
      </trkpt>
      <trkpt lat="42.96672" lon="0.01073">
        <ele>1690.4</ele>
        <time>2021-10-09T12:25:13</time>
      </trkpt>
      <trkpt lat="42.96671" lon="0.01078">
        <ele>1690.4</ele>
        <time>2021-10-09T12:25:14</time>
      </trkpt>
      <trkpt lat="42.9667" lon="0.01081">
        <ele>1690.6</ele>
        <time>2021-10-09T12:25:15</time>
      </trkpt>
      <trkpt lat="42.9667" lon="0.01085">
        <ele>1690.6</ele>
        <time>2021-10-09T12:25:16</time>
      </trkpt>
      <trkpt lat="42.9667" lon="0.01087">
        <ele>1690.6</ele>
        <time>2021-10-09T12:25:17</time>
      </trkpt>
      <trkpt lat="42.96669" lon="0.0109">
        <ele>1690.4</ele>
        <time>2021-10-09T12:25:19</time>
      </trkpt>
      <trkpt lat="42.96668" lon="0.01095">
        <ele>1690.6</ele>
        <time>2021-10-09T12:25:20</time>
      </trkpt>
      <trkpt lat="42.96669" lon="0.01095">
        <ele>1690.4</ele>
        <time>2021-10-09T12:25:21</time>
      </trkpt>
      <trkpt lat="42.96669" lon="0.01095">
        <ele>1690.6</ele>
        <time>2021-10-09T12:25:22</time>
      </trkpt>
      <trkpt lat="42.96669" lon="0.01095">
        <ele>1690.6</ele>
        <time>2021-10-09T12:25:24</time>
      </trkpt>
      <trkpt lat="42.96669" lon="0.01095">
        <ele>1690.6</ele>
        <time>2021-10-09T12:25:25</time>
      </trkpt>
      <trkpt lat="42.96669" lon="0.01095">
        <ele>1690.6</ele>
        <time>2021-10-09T12:25:26</time>
      </trkpt>
      <trkpt lat="42.96669" lon="0.01095">
        <ele>1690.6</ele>
        <time>2021-10-09T12:25:27</time>
      </trkpt>
      <trkpt lat="42.96668" lon="0.01095">
        <ele>1690.6</ele>
        <time>2021-10-09T12:25:28</time>
      </trkpt>
      <trkpt lat="42.96679" lon="0.01061">
        <ele>1693.8</ele>
        <time>2021-10-09T12:34:10</time>
      </trkpt>
      <trkpt lat="42.96681" lon="0.01057">
        <ele>1693.8</ele>
        <time>2021-10-09T12:34:11</time>
      </trkpt>
      <trkpt lat="42.96682" lon="0.01053">
        <ele>1693.8</ele>
        <time>2021-10-09T12:34:12</time>
      </trkpt>
      <trkpt lat="42.96683" lon="0.01049">
        <ele>1693.8</ele>
        <time>2021-10-09T12:34:13</time>
      </trkpt>
      <trkpt lat="42.96684" lon="0.01046">
        <ele>1694</ele>
        <time>2021-10-09T12:34:14</time>
      </trkpt>
      <trkpt lat="42.96684" lon="0.01041">
        <ele>1694.2</ele>
        <time>2021-10-09T12:34:15</time>
      </trkpt>
      <trkpt lat="42.96684" lon="0.01037">
        <ele>1694.6</ele>
        <time>2021-10-09T12:34:16</time>
      </trkpt>
      <trkpt lat="42.96683" lon="0.01034">
        <ele>1694.8</ele>
        <time>2021-10-09T12:34:17</time>
      </trkpt>
      <trkpt lat="42.96683" lon="0.01031">
        <ele>1695</ele>
        <time>2021-10-09T12:34:18</time>
      </trkpt>
      <trkpt lat="42.96684" lon="0.01028">
        <ele>1695</ele>
        <time>2021-10-09T12:34:19</time>
      </trkpt>
      <trkpt lat="42.96684" lon="0.01026">
        <ele>1695.2</ele>
        <time>2021-10-09T12:34:20</time>
      </trkpt>
      <trkpt lat="42.96684" lon="0.01025">
        <ele>1695</ele>
        <time>2021-10-09T12:34:21</time>
      </trkpt>
      <trkpt lat="42.96685" lon="0.01024">
        <ele>1695.2</ele>
        <time>2021-10-09T12:34:22</time>
      </trkpt>
      <trkpt lat="42.96685" lon="0.01022">
        <ele>1695.2</ele>
        <time>2021-10-09T12:34:23</time>
      </trkpt>
      <trkpt lat="42.96686" lon="0.01021">
        <ele>1695.2</ele>
        <time>2021-10-09T12:34:24</time>
      </trkpt>
      <trkpt lat="42.96686" lon="0.0102">
        <ele>1695.2</ele>
        <time>2021-10-09T12:34:25</time>
      </trkpt>
      <trkpt lat="42.96686" lon="0.0102">
        <ele>1695.4</ele>
        <time>2021-10-09T12:34:26</time>
      </trkpt>
      <trkpt lat="42.96686" lon="0.0102">
        <ele>1695.4</ele>
        <time>2021-10-09T12:34:27</time>
      </trkpt>
      <trkpt lat="42.96686" lon="0.0102">
        <ele>1695.2</ele>
        <time>2021-10-09T12:34:28</time>
      </trkpt>
      <trkpt lat="42.96686" lon="0.01019">
        <ele>1695.2</ele>
        <time>2021-10-09T12:34:29</time>
      </trkpt>
      <trkpt lat="42.96686" lon="0.0102">
        <ele>1695.2</ele>
        <time>2021-10-09T12:34:30</time>
      </trkpt>
      <trkpt lat="42.96687" lon="0.0102">
        <ele>1695.4</ele>
        <time>2021-10-09T12:34:31</time>
      </trkpt>
      <trkpt lat="42.96687" lon="0.01019">
        <ele>1695.2</ele>
        <time>2021-10-09T12:34:32</time>
      </trkpt>
      <trkpt lat="42.9665" lon="0.0107">
        <ele>1687.2</ele>
        <time>2021-10-09T12:35:35</time>
      </trkpt>
      <trkpt lat="42.96646" lon="0.01077">
        <ele>1686.8</ele>
        <time>2021-10-09T12:35:36</time>
      </trkpt>
      <trkpt lat="42.96644" lon="0.01084">
        <ele>1686.4</ele>
        <time>2021-10-09T12:35:37</time>
      </trkpt>
      <trkpt lat="42.96643" lon="0.01092">
        <ele>1685.8</ele>
        <time>2021-10-09T12:35:38</time>
      </trkpt>
      <trkpt lat="42.96641" lon="0.011">
        <ele>1685.4</ele>
        <time>2021-10-09T12:35:39</time>
      </trkpt>
      <trkpt lat="42.96639" lon="0.01108">
        <ele>1685</ele>
        <time>2021-10-09T12:35:40</time>
      </trkpt>
      <trkpt lat="42.96638" lon="0.01116">
        <ele>1684.6</ele>
        <time>2021-10-09T12:35:41</time>
      </trkpt>
      <trkpt lat="42.96637" lon="0.01122">
        <ele>1684.2</ele>
        <time>2021-10-09T12:35:42</time>
      </trkpt>
      <trkpt lat="42.96637" lon="0.01129">
        <ele>1683.4</ele>
        <time>2021-10-09T12:35:43</time>
      </trkpt>
      <trkpt lat="42.96637" lon="0.01135">
        <ele>1682.8</ele>
        <time>2021-10-09T12:35:44</time>
      </trkpt>
      <trkpt lat="42.96636" lon="0.01141">
        <ele>1682.2</ele>
        <time>2021-10-09T12:35:45</time>
      </trkpt>
      <trkpt lat="42.96636" lon="0.01148">
        <ele>1681.6</ele>
        <time>2021-10-09T12:35:46</time>
      </trkpt>
      <trkpt lat="42.96635" lon="0.01153">
        <ele>1681.4</ele>
        <time>2021-10-09T12:35:47</time>
      </trkpt>
      <trkpt lat="42.96634" lon="0.01158">
        <ele>1680.8</ele>
        <time>2021-10-09T12:35:48</time>
      </trkpt>
      <trkpt lat="42.96633" lon="0.01162">
        <ele>1679.8</ele>
        <time>2021-10-09T12:35:49</time>
      </trkpt>
      <trkpt lat="42.96631" lon="0.01168">
        <ele>1679.2</ele>
        <time>2021-10-09T12:35:50</time>
      </trkpt>
      <trkpt lat="42.9663" lon="0.01175">
        <ele>1678.2</ele>
        <time>2021-10-09T12:35:51</time>
      </trkpt>
      <trkpt lat="42.96628" lon="0.01184">
        <ele>1677.6</ele>
        <time>2021-10-09T12:35:52</time>
      </trkpt>
      <trkpt lat="42.96627" lon="0.01193">
        <ele>1676.6</ele>
        <time>2021-10-09T12:35:53</time>
      </trkpt>
      <trkpt lat="42.96626" lon="0.01204">
        <ele>1675.8</ele>
        <time>2021-10-09T12:35:54</time>
      </trkpt>
      <trkpt lat="42.96625" lon="0.01215">
        <ele>1675.2</ele>
        <time>2021-10-09T12:35:55</time>
      </trkpt>
      <trkpt lat="42.96623" lon="0.01227">
        <ele>1674.2</ele>
        <time>2021-10-09T12:35:56</time>
      </trkpt>
      <trkpt lat="42.96619" lon="0.01239">
        <ele>1673.2</ele>
        <time>2021-10-09T12:35:57</time>
      </trkpt>
      <trkpt lat="42.96615" lon="0.0125">
        <ele>1672.8</ele>
        <time>2021-10-09T12:35:58</time>
      </trkpt>
      <trkpt lat="42.96609" lon="0.0126">
        <ele>1672.6</ele>
        <time>2021-10-09T12:35:59</time>
      </trkpt>
      <trkpt lat="42.96602" lon="0.01268">
        <ele>1672.4</ele>
        <time>2021-10-09T12:36:00</time>
      </trkpt>
      <trkpt lat="42.96596" lon="0.01276">
        <ele>1672</ele>
        <time>2021-10-09T12:36:01</time>
      </trkpt>
      <trkpt lat="42.9659" lon="0.01284">
        <ele>1671.4</ele>
        <time>2021-10-09T12:36:02</time>
      </trkpt>
      <trkpt lat="42.96585" lon="0.01291">
        <ele>1671.2</ele>
        <time>2021-10-09T12:36:03</time>
      </trkpt>
      <trkpt lat="42.96579" lon="0.01298">
        <ele>1670.8</ele>
        <time>2021-10-09T12:36:04</time>
      </trkpt>
      <trkpt lat="42.96574" lon="0.01305">
        <ele>1670.4</ele>
        <time>2021-10-09T12:36:05</time>
      </trkpt>
      <trkpt lat="42.9657" lon="0.01313">
        <ele>1669.8</ele>
        <time>2021-10-09T12:36:06</time>
      </trkpt>
      <trkpt lat="42.96566" lon="0.01322">
        <ele>1669.4</ele>
        <time>2021-10-09T12:36:07</time>
      </trkpt>
      <trkpt lat="42.96562" lon="0.01332">
        <ele>1668.8</ele>
        <time>2021-10-09T12:36:08</time>
      </trkpt>
      <trkpt lat="42.96558" lon="0.01342">
        <ele>1668</ele>
        <time>2021-10-09T12:36:09</time>
      </trkpt>
      <trkpt lat="42.96553" lon="0.01351">
        <ele>1667.4</ele>
        <time>2021-10-09T12:36:10</time>
      </trkpt>
      <trkpt lat="42.96546" lon="0.01359">
        <ele>1667.2</ele>
        <time>2021-10-09T12:36:11</time>
      </trkpt>
      <trkpt lat="42.96538" lon="0.01363">
        <ele>1667.4</ele>
        <time>2021-10-09T12:36:12</time>
      </trkpt>
      <trkpt lat="42.96531" lon="0.01366">
        <ele>1667.6</ele>
        <time>2021-10-09T12:36:13</time>
      </trkpt>
      <trkpt lat="42.96524" lon="0.01369">
        <ele>1667.2</ele>
        <time>2021-10-09T12:36:14</time>
      </trkpt>
      <trkpt lat="42.96517" lon="0.01372">
        <ele>1666.6</ele>
        <time>2021-10-09T12:36:15</time>
      </trkpt>
      <trkpt lat="42.9651" lon="0.01374">
        <ele>1666.4</ele>
        <time>2021-10-09T12:36:16</time>
      </trkpt>
      <trkpt lat="42.96502" lon="0.01376">
        <ele>1666</ele>
        <time>2021-10-09T12:36:17</time>
      </trkpt>
      <trkpt lat="42.96495" lon="0.01377">
        <ele>1666</ele>
        <time>2021-10-09T12:36:18</time>
      </trkpt>
      <trkpt lat="42.96489" lon="0.0138">
        <ele>1665.6</ele>
        <time>2021-10-09T12:36:19</time>
      </trkpt>
      <trkpt lat="42.96483" lon="0.01383">
        <ele>1665.2</ele>
        <time>2021-10-09T12:36:20</time>
      </trkpt>
      <trkpt lat="42.96477" lon="0.01387">
        <ele>1664.8</ele>
        <time>2021-10-09T12:36:21</time>
      </trkpt>
      <trkpt lat="42.96471" lon="0.01393">
        <ele>1665.2</ele>
        <time>2021-10-09T12:36:22</time>
      </trkpt>
      <trkpt lat="42.96466" lon="0.01398">
        <ele>1665</ele>
        <time>2021-10-09T12:36:23</time>
      </trkpt>
      <trkpt lat="42.96461" lon="0.01404">
        <ele>1664.8</ele>
        <time>2021-10-09T12:36:24</time>
      </trkpt>
      <trkpt lat="42.96456" lon="0.01409">
        <ele>1664.8</ele>
        <time>2021-10-09T12:36:25</time>
      </trkpt>
      <trkpt lat="42.96452" lon="0.01415">
        <ele>1665</ele>
        <time>2021-10-09T12:36:26</time>
      </trkpt>
      <trkpt lat="42.96449" lon="0.01421">
        <ele>1665</ele>
        <time>2021-10-09T12:36:27</time>
      </trkpt>
      <trkpt lat="42.96447" lon="0.01427">
        <ele>1664.8</ele>
        <time>2021-10-09T12:36:28</time>
      </trkpt>
      <trkpt lat="42.96444" lon="0.01432">
        <ele>1664.8</ele>
        <time>2021-10-09T12:36:29</time>
      </trkpt>
      <trkpt lat="42.96442" lon="0.01437">
        <ele>1665</ele>
        <time>2021-10-09T12:36:30</time>
      </trkpt>
      <trkpt lat="42.96441" lon="0.01441">
        <ele>1664.8</ele>
        <time>2021-10-09T12:36:31</time>
      </trkpt>
      <trkpt lat="42.96439" lon="0.01446">
        <ele>1664.4</ele>
        <time>2021-10-09T12:36:32</time>
      </trkpt>
      <trkpt lat="42.96437" lon="0.01449">
        <ele>1664.6</ele>
        <time>2021-10-09T12:36:33</time>
      </trkpt>
      <trkpt lat="42.96435" lon="0.01453">
        <ele>1664.8</ele>
        <time>2021-10-09T12:36:34</time>
      </trkpt>
      <trkpt lat="42.96432" lon="0.01457">
        <ele>1664.8</ele>
        <time>2021-10-09T12:36:35</time>
      </trkpt>
      <trkpt lat="42.96431" lon="0.0146">
        <ele>1664.8</ele>
        <time>2021-10-09T12:36:36</time>
      </trkpt>
      <trkpt lat="42.96429" lon="0.01464">
        <ele>1664.6</ele>
        <time>2021-10-09T12:36:37</time>
      </trkpt>
      <trkpt lat="42.96428" lon="0.01468">
        <ele>1664.4</ele>
        <time>2021-10-09T12:36:38</time>
      </trkpt>
      <trkpt lat="42.96427" lon="0.01473">
        <ele>1664.2</ele>
        <time>2021-10-09T12:36:39</time>
      </trkpt>
      <trkpt lat="42.96426" lon="0.01477">
        <ele>1664</ele>
        <time>2021-10-09T12:36:40</time>
      </trkpt>
      <trkpt lat="42.96425" lon="0.01482">
        <ele>1663.4</ele>
        <time>2021-10-09T12:36:41</time>
      </trkpt>
      <trkpt lat="42.96423" lon="0.01487">
        <ele>1663.4</ele>
        <time>2021-10-09T12:36:42</time>
      </trkpt>
      <trkpt lat="42.96422" lon="0.01491">
        <ele>1663.2</ele>
        <time>2021-10-09T12:36:43</time>
      </trkpt>
      <trkpt lat="42.96422" lon="0.01494">
        <ele>1663.2</ele>
        <time>2021-10-09T12:36:44</time>
      </trkpt>
      <trkpt lat="42.96422" lon="0.01495">
        <ele>1663</ele>
        <time>2021-10-09T12:36:45</time>
      </trkpt>
      <trkpt lat="42.96422" lon="0.01495">
        <ele>1663.2</ele>
        <time>2021-10-09T12:36:46</time>
      </trkpt>
      <trkpt lat="42.96422" lon="0.01495">
        <ele>1663.2</ele>
        <time>2021-10-09T12:36:47</time>
      </trkpt>
      <trkpt lat="42.96422" lon="0.01495">
        <ele>1663.2</ele>
        <time>2021-10-09T12:36:48</time>
      </trkpt>
      <trkpt lat="42.96422" lon="0.01495">
        <ele>1663.2</ele>
        <time>2021-10-09T12:36:49</time>
      </trkpt>
      <trkpt lat="42.96422" lon="0.01495">
        <ele>1663</ele>
        <time>2021-10-09T12:36:50</time>
      </trkpt>
      <trkpt lat="42.96422" lon="0.01495">
        <ele>1663</ele>
        <time>2021-10-09T12:36:51</time>
      </trkpt>
      <trkpt lat="42.96422" lon="0.01494">
        <ele>1663</ele>
        <time>2021-10-09T12:36:52</time>
      </trkpt>
      <trkpt lat="42.96398" lon="0.01541">
        <ele>1662.2</ele>
        <time>2021-10-09T12:46:50</time>
      </trkpt>
      <trkpt lat="42.96396" lon="0.01548">
        <ele>1662.2</ele>
        <time>2021-10-09T12:46:51</time>
      </trkpt>
      <trkpt lat="42.96393" lon="0.01555">
        <ele>1662.2</ele>
        <time>2021-10-09T12:46:52</time>
      </trkpt>
      <trkpt lat="42.96391" lon="0.01562">
        <ele>1662.2</ele>
        <time>2021-10-09T12:46:53</time>
      </trkpt>
      <trkpt lat="42.9639" lon="0.01569">
        <ele>1662.2</ele>
        <time>2021-10-09T12:46:54</time>
      </trkpt>
      <trkpt lat="42.96388" lon="0.01576">
        <ele>1662</ele>
        <time>2021-10-09T12:46:55</time>
      </trkpt>
      <trkpt lat="42.96385" lon="0.01584">
        <ele>1661.4</ele>
        <time>2021-10-09T12:46:56</time>
      </trkpt>
      <trkpt lat="42.96383" lon="0.01591">
        <ele>1661.4</ele>
        <time>2021-10-09T12:46:57</time>
      </trkpt>
      <trkpt lat="42.96381" lon="0.01598">
        <ele>1661.4</ele>
        <time>2021-10-09T12:46:58</time>
      </trkpt>
      <trkpt lat="42.96378" lon="0.01604">
        <ele>1660.8</ele>
        <time>2021-10-09T12:46:59</time>
      </trkpt>
      <trkpt lat="42.96375" lon="0.01611">
        <ele>1660.8</ele>
        <time>2021-10-09T12:47:00</time>
      </trkpt>
      <trkpt lat="42.96372" lon="0.01619">
        <ele>1660.6</ele>
        <time>2021-10-09T12:47:01</time>
      </trkpt>
      <trkpt lat="42.96369" lon="0.01626">
        <ele>1660.6</ele>
        <time>2021-10-09T12:47:02</time>
      </trkpt>
      <trkpt lat="42.96366" lon="0.01633">
        <ele>1660.4</ele>
        <time>2021-10-09T12:47:03</time>
      </trkpt>
      <trkpt lat="42.96363" lon="0.01641">
        <ele>1660.2</ele>
        <time>2021-10-09T12:47:04</time>
      </trkpt>
      <trkpt lat="42.96359" lon="0.01648">
        <ele>1660.4</ele>
        <time>2021-10-09T12:47:05</time>
      </trkpt>
      <trkpt lat="42.96356" lon="0.01654">
        <ele>1660.2</ele>
        <time>2021-10-09T12:47:06</time>
      </trkpt>
      <trkpt lat="42.96352" lon="0.01661">
        <ele>1660</ele>
        <time>2021-10-09T12:47:07</time>
      </trkpt>
      <trkpt lat="42.96347" lon="0.01668">
        <ele>1660</ele>
        <time>2021-10-09T12:47:08</time>
      </trkpt>
      <trkpt lat="42.96343" lon="0.01675">
        <ele>1659.6</ele>
        <time>2021-10-09T12:47:09</time>
      </trkpt>
      <trkpt lat="42.96339" lon="0.01681">
        <ele>1659.4</ele>
        <time>2021-10-09T12:47:10</time>
      </trkpt>
      <trkpt lat="42.96335" lon="0.01687">
        <ele>1659.8</ele>
        <time>2021-10-09T12:47:11</time>
      </trkpt>
      <trkpt lat="42.96331" lon="0.01693">
        <ele>1659.8</ele>
        <time>2021-10-09T12:47:12</time>
      </trkpt>
      <trkpt lat="42.96327" lon="0.01699">
        <ele>1659.6</ele>
        <time>2021-10-09T12:47:13</time>
      </trkpt>
      <trkpt lat="42.96323" lon="0.01705">
        <ele>1659.6</ele>
        <time>2021-10-09T12:47:14</time>
      </trkpt>
      <trkpt lat="42.96318" lon="0.01711">
        <ele>1659.4</ele>
        <time>2021-10-09T12:47:15</time>
      </trkpt>
      <trkpt lat="42.96313" lon="0.01717">
        <ele>1659.4</ele>
        <time>2021-10-09T12:47:16</time>
      </trkpt>
      <trkpt lat="42.96309" lon="0.01722">
        <ele>1659.2</ele>
        <time>2021-10-09T12:47:17</time>
      </trkpt>
      <trkpt lat="42.96304" lon="0.01728">
        <ele>1658.8</ele>
        <time>2021-10-09T12:47:18</time>
      </trkpt>
      <trkpt lat="42.963" lon="0.01734">
        <ele>1658.6</ele>
        <time>2021-10-09T12:47:19</time>
      </trkpt>
      <trkpt lat="42.96295" lon="0.01739">
        <ele>1658.6</ele>
        <time>2021-10-09T12:47:20</time>
      </trkpt>
      <trkpt lat="42.96291" lon="0.01744">
        <ele>1658.6</ele>
        <time>2021-10-09T12:47:21</time>
      </trkpt>
      <trkpt lat="42.96286" lon="0.01749">
        <ele>1658.4</ele>
        <time>2021-10-09T12:47:22</time>
      </trkpt>
      <trkpt lat="42.96281" lon="0.01754">
        <ele>1658.4</ele>
        <time>2021-10-09T12:47:23</time>
      </trkpt>
      <trkpt lat="42.96277" lon="0.01756">
        <ele>1658</ele>
        <time>2021-10-09T12:47:24</time>
      </trkpt>
      <trkpt lat="42.96272" lon="0.01759">
        <ele>1657.6</ele>
        <time>2021-10-09T12:47:25</time>
      </trkpt>
      <trkpt lat="42.96268" lon="0.01763">
        <ele>1657.4</ele>
        <time>2021-10-09T12:47:26</time>
      </trkpt>
      <trkpt lat="42.96265" lon="0.01768">
        <ele>1657</ele>
        <time>2021-10-09T12:47:27</time>
      </trkpt>
      <trkpt lat="42.9626" lon="0.01772">
        <ele>1656.8</ele>
        <time>2021-10-09T12:47:28</time>
      </trkpt>
      <trkpt lat="42.96256" lon="0.01777">
        <ele>1656.4</ele>
        <time>2021-10-09T12:47:29</time>
      </trkpt>
      <trkpt lat="42.96252" lon="0.01782">
        <ele>1655.8</ele>
        <time>2021-10-09T12:47:30</time>
      </trkpt>
      <trkpt lat="42.96249" lon="0.01788">
        <ele>1654.8</ele>
        <time>2021-10-09T12:47:31</time>
      </trkpt>
      <trkpt lat="42.96246" lon="0.01797">
        <ele>1654.2</ele>
        <time>2021-10-09T12:47:32</time>
      </trkpt>
      <trkpt lat="42.96243" lon="0.01806">
        <ele>1653.6</ele>
        <time>2021-10-09T12:47:33</time>
      </trkpt>
      <trkpt lat="42.96239" lon="0.01815">
        <ele>1653</ele>
        <time>2021-10-09T12:47:34</time>
      </trkpt>
      <trkpt lat="42.96235" lon="0.01823">
        <ele>1652.4</ele>
        <time>2021-10-09T12:47:35</time>
      </trkpt>
      <trkpt lat="42.96232" lon="0.01829">
        <ele>1652.6</ele>
        <time>2021-10-09T12:47:36</time>
      </trkpt>
      <trkpt lat="42.96231" lon="0.01834">
        <ele>1652.6</ele>
        <time>2021-10-09T12:47:37</time>
      </trkpt>
      <trkpt lat="42.96229" lon="0.01839">
        <ele>1652.4</ele>
        <time>2021-10-09T12:47:38</time>
      </trkpt>
      <trkpt lat="42.96227" lon="0.01843">
        <ele>1652.4</ele>
        <time>2021-10-09T12:47:39</time>
      </trkpt>
      <trkpt lat="42.96226" lon="0.01848">
        <ele>1652.2</ele>
        <time>2021-10-09T12:47:40</time>
      </trkpt>
      <trkpt lat="42.96224" lon="0.01852">
        <ele>1652.2</ele>
        <time>2021-10-09T12:47:41</time>
      </trkpt>
      <trkpt lat="42.96223" lon="0.01856">
        <ele>1652.2</ele>
        <time>2021-10-09T12:47:42</time>
      </trkpt>
      <trkpt lat="42.96221" lon="0.01858">
        <ele>1652.2</ele>
        <time>2021-10-09T12:47:43</time>
      </trkpt>
      <trkpt lat="42.96218" lon="0.01862">
        <ele>1652.2</ele>
        <time>2021-10-09T12:47:44</time>
      </trkpt>
      <trkpt lat="42.96215" lon="0.01867">
        <ele>1652</ele>
        <time>2021-10-09T12:47:45</time>
      </trkpt>
      <trkpt lat="42.96211" lon="0.01872">
        <ele>1652</ele>
        <time>2021-10-09T12:47:46</time>
      </trkpt>
      <trkpt lat="42.96206" lon="0.01878">
        <ele>1652</ele>
        <time>2021-10-09T12:47:47</time>
      </trkpt>
      <trkpt lat="42.96203" lon="0.01884">
        <ele>1652</ele>
        <time>2021-10-09T12:47:48</time>
      </trkpt>
      <trkpt lat="42.96201" lon="0.0189">
        <ele>1652.2</ele>
        <time>2021-10-09T12:47:49</time>
      </trkpt>
      <trkpt lat="42.96198" lon="0.01895">
        <ele>1652.6</ele>
        <time>2021-10-09T12:47:50</time>
      </trkpt>
      <trkpt lat="42.96196" lon="0.019">
        <ele>1652.4</ele>
        <time>2021-10-09T12:47:51</time>
      </trkpt>
      <trkpt lat="42.96193" lon="0.01906">
        <ele>1652.8</ele>
        <time>2021-10-09T12:47:52</time>
      </trkpt>
      <trkpt lat="42.9619" lon="0.01913">
        <ele>1653.2</ele>
        <time>2021-10-09T12:47:53</time>
      </trkpt>
      <trkpt lat="42.96186" lon="0.01919">
        <ele>1653.4</ele>
        <time>2021-10-09T12:47:54</time>
      </trkpt>
      <trkpt lat="42.96182" lon="0.01925">
        <ele>1653.8</ele>
        <time>2021-10-09T12:47:55</time>
      </trkpt>
      <trkpt lat="42.96178" lon="0.01929">
        <ele>1654.4</ele>
        <time>2021-10-09T12:47:56</time>
      </trkpt>
      <trkpt lat="42.96176" lon="0.01932">
        <ele>1654.6</ele>
        <time>2021-10-09T12:47:57</time>
      </trkpt>
      <trkpt lat="42.96175" lon="0.01936">
        <ele>1654.6</ele>
        <time>2021-10-09T12:47:58</time>
      </trkpt>
      <trkpt lat="42.96174" lon="0.0194">
        <ele>1654.6</ele>
        <time>2021-10-09T12:47:59</time>
      </trkpt>
      <trkpt lat="42.96174" lon="0.01945">
        <ele>1654.2</ele>
        <time>2021-10-09T12:48:00</time>
      </trkpt>
      <trkpt lat="42.96172" lon="0.01952">
        <ele>1654</ele>
        <time>2021-10-09T12:48:01</time>
      </trkpt>
      <trkpt lat="42.9617" lon="0.0196">
        <ele>1652.8</ele>
        <time>2021-10-09T12:48:02</time>
      </trkpt>
      <trkpt lat="42.96167" lon="0.01968">
        <ele>1652.2</ele>
        <time>2021-10-09T12:48:03</time>
      </trkpt>
      <trkpt lat="42.96164" lon="0.01977">
        <ele>1650.8</ele>
        <time>2021-10-09T12:48:04</time>
      </trkpt>
      <trkpt lat="42.96161" lon="0.01986">
        <ele>1649.8</ele>
        <time>2021-10-09T12:48:05</time>
      </trkpt>
      <trkpt lat="42.96158" lon="0.01994">
        <ele>1648.8</ele>
        <time>2021-10-09T12:48:06</time>
      </trkpt>
      <trkpt lat="42.96155" lon="0.02003">
        <ele>1647.8</ele>
        <time>2021-10-09T12:48:07</time>
      </trkpt>
      <trkpt lat="42.96152" lon="0.02013">
        <ele>1647.2</ele>
        <time>2021-10-09T12:48:08</time>
      </trkpt>
      <trkpt lat="42.96149" lon="0.02023">
        <ele>1646.6</ele>
        <time>2021-10-09T12:48:09</time>
      </trkpt>
      <trkpt lat="42.96144" lon="0.02032">
        <ele>1645.8</ele>
        <time>2021-10-09T12:48:10</time>
      </trkpt>
      <trkpt lat="42.96138" lon="0.02041">
        <ele>1644.8</ele>
        <time>2021-10-09T12:48:11</time>
      </trkpt>
      <trkpt lat="42.96132" lon="0.02049">
        <ele>1644.2</ele>
        <time>2021-10-09T12:48:12</time>
      </trkpt>
      <trkpt lat="42.96126" lon="0.02056">
        <ele>1644.2</ele>
        <time>2021-10-09T12:48:13</time>
      </trkpt>
      <trkpt lat="42.96119" lon="0.02063">
        <ele>1644</ele>
        <time>2021-10-09T12:48:14</time>
      </trkpt>
      <trkpt lat="42.96113" lon="0.0207">
        <ele>1643.8</ele>
        <time>2021-10-09T12:48:15</time>
      </trkpt>
      <trkpt lat="42.96107" lon="0.02077">
        <ele>1643.4</ele>
        <time>2021-10-09T12:48:16</time>
      </trkpt>
      <trkpt lat="42.96101" lon="0.02085">
        <ele>1642.6</ele>
        <time>2021-10-09T12:48:17</time>
      </trkpt>
      <trkpt lat="42.96094" lon="0.02092">
        <ele>1642.2</ele>
        <time>2021-10-09T12:48:18</time>
      </trkpt>
      <trkpt lat="42.96087" lon="0.02099">
        <ele>1641.4</ele>
        <time>2021-10-09T12:48:19</time>
      </trkpt>
      <trkpt lat="42.9608" lon="0.02107">
        <ele>1640.8</ele>
        <time>2021-10-09T12:48:20</time>
      </trkpt>
      <trkpt lat="42.96073" lon="0.02114">
        <ele>1640.6</ele>
        <time>2021-10-09T12:48:21</time>
      </trkpt>
      <trkpt lat="42.96065" lon="0.02122">
        <ele>1639.8</ele>
        <time>2021-10-09T12:48:22</time>
      </trkpt>
      <trkpt lat="42.96058" lon="0.02129">
        <ele>1639.8</ele>
        <time>2021-10-09T12:48:23</time>
      </trkpt>
      <trkpt lat="42.9605" lon="0.02136">
        <ele>1639.6</ele>
        <time>2021-10-09T12:48:24</time>
      </trkpt>
      <trkpt lat="42.96043" lon="0.02143">
        <ele>1639.2</ele>
        <time>2021-10-09T12:48:25</time>
      </trkpt>
      <trkpt lat="42.96036" lon="0.02149">
        <ele>1638.8</ele>
        <time>2021-10-09T12:48:26</time>
      </trkpt>
      <trkpt lat="42.9603" lon="0.02155">
        <ele>1639</ele>
        <time>2021-10-09T12:48:27</time>
      </trkpt>
      <trkpt lat="42.96025" lon="0.02163">
        <ele>1638.8</ele>
        <time>2021-10-09T12:48:28</time>
      </trkpt>
      <trkpt lat="42.9602" lon="0.02171">
        <ele>1638</ele>
        <time>2021-10-09T12:48:29</time>
      </trkpt>
      <trkpt lat="42.96014" lon="0.02179">
        <ele>1637.4</ele>
        <time>2021-10-09T12:48:30</time>
      </trkpt>
      <trkpt lat="42.96008" lon="0.02186">
        <ele>1637.2</ele>
        <time>2021-10-09T12:48:31</time>
      </trkpt>
      <trkpt lat="42.96002" lon="0.02193">
        <ele>1637</ele>
        <time>2021-10-09T12:48:32</time>
      </trkpt>
      <trkpt lat="42.95995" lon="0.02199">
        <ele>1636.6</ele>
        <time>2021-10-09T12:48:33</time>
      </trkpt>
      <trkpt lat="42.95988" lon="0.02205">
        <ele>1636.4</ele>
        <time>2021-10-09T12:48:34</time>
      </trkpt>
      <trkpt lat="42.95981" lon="0.0221">
        <ele>1635.6</ele>
        <time>2021-10-09T12:48:35</time>
      </trkpt>
      <trkpt lat="42.95974" lon="0.02215">
        <ele>1635.4</ele>
        <time>2021-10-09T12:48:36</time>
      </trkpt>
      <trkpt lat="42.95967" lon="0.0222">
        <ele>1635.6</ele>
        <time>2021-10-09T12:48:37</time>
      </trkpt>
      <trkpt lat="42.9596" lon="0.02224">
        <ele>1634.8</ele>
        <time>2021-10-09T12:48:38</time>
      </trkpt>
      <trkpt lat="42.95953" lon="0.02229">
        <ele>1634.2</ele>
        <time>2021-10-09T12:48:39</time>
      </trkpt>
      <trkpt lat="42.95946" lon="0.02234">
        <ele>1633.8</ele>
        <time>2021-10-09T12:48:40</time>
      </trkpt>
      <trkpt lat="42.95938" lon="0.02239">
        <ele>1633.2</ele>
        <time>2021-10-09T12:48:41</time>
      </trkpt>
      <trkpt lat="42.9593" lon="0.02243">
        <ele>1633</ele>
        <time>2021-10-09T12:48:42</time>
      </trkpt>
      <trkpt lat="42.95922" lon="0.02248">
        <ele>1632.6</ele>
        <time>2021-10-09T12:48:43</time>
      </trkpt>
      <trkpt lat="42.95915" lon="0.02251">
        <ele>1632.4</ele>
        <time>2021-10-09T12:48:44</time>
      </trkpt>
      <trkpt lat="42.95908" lon="0.02255">
        <ele>1632.2</ele>
        <time>2021-10-09T12:48:45</time>
      </trkpt>
      <trkpt lat="42.959" lon="0.02257">
        <ele>1632.4</ele>
        <time>2021-10-09T12:48:46</time>
      </trkpt>
      <trkpt lat="42.95893" lon="0.0226">
        <ele>1632</ele>
        <time>2021-10-09T12:48:47</time>
      </trkpt>
      <trkpt lat="42.95886" lon="0.02263">
        <ele>1631.8</ele>
        <time>2021-10-09T12:48:48</time>
      </trkpt>
      <trkpt lat="42.95879" lon="0.02267">
        <ele>1631.4</ele>
        <time>2021-10-09T12:48:49</time>
      </trkpt>
      <trkpt lat="42.95871" lon="0.02271">
        <ele>1630</ele>
        <time>2021-10-09T12:48:50</time>
      </trkpt>
      <trkpt lat="42.95863" lon="0.02274">
        <ele>1629.4</ele>
        <time>2021-10-09T12:48:51</time>
      </trkpt>
      <trkpt lat="42.95857" lon="0.02278">
        <ele>1629.2</ele>
        <time>2021-10-09T12:48:52</time>
      </trkpt>
      <trkpt lat="42.9585" lon="0.02282">
        <ele>1628.8</ele>
        <time>2021-10-09T12:48:53</time>
      </trkpt>
      <trkpt lat="42.95842" lon="0.02285">
        <ele>1628.2</ele>
        <time>2021-10-09T12:48:54</time>
      </trkpt>
      <trkpt lat="42.95835" lon="0.02289">
        <ele>1628</ele>
        <time>2021-10-09T12:48:55</time>
      </trkpt>
      <trkpt lat="42.95829" lon="0.02293">
        <ele>1628</ele>
        <time>2021-10-09T12:48:56</time>
      </trkpt>
      <trkpt lat="42.95823" lon="0.02297">
        <ele>1627.6</ele>
        <time>2021-10-09T12:48:57</time>
      </trkpt>
      <trkpt lat="42.95817" lon="0.02302">
        <ele>1628</ele>
        <time>2021-10-09T12:48:58</time>
      </trkpt>
      <trkpt lat="42.95811" lon="0.02306">
        <ele>1627.8</ele>
        <time>2021-10-09T12:48:59</time>
      </trkpt>
      <trkpt lat="42.95806" lon="0.02311">
        <ele>1627.8</ele>
        <time>2021-10-09T12:49:00</time>
      </trkpt>
      <trkpt lat="42.958" lon="0.02315">
        <ele>1628.2</ele>
        <time>2021-10-09T12:49:01</time>
      </trkpt>
      <trkpt lat="42.95794" lon="0.02321">
        <ele>1628.4</ele>
        <time>2021-10-09T12:49:02</time>
      </trkpt>
      <trkpt lat="42.9579" lon="0.02328">
        <ele>1628.4</ele>
        <time>2021-10-09T12:49:03</time>
      </trkpt>
      <trkpt lat="42.95785" lon="0.02335">
        <ele>1628.2</ele>
        <time>2021-10-09T12:49:04</time>
      </trkpt>
      <trkpt lat="42.95781" lon="0.02342">
        <ele>1628</ele>
        <time>2021-10-09T12:49:05</time>
      </trkpt>
      <trkpt lat="42.95776" lon="0.02348">
        <ele>1628.2</ele>
        <time>2021-10-09T12:49:06</time>
      </trkpt>
      <trkpt lat="42.95771" lon="0.02353">
        <ele>1628</ele>
        <time>2021-10-09T12:49:07</time>
      </trkpt>
      <trkpt lat="42.95765" lon="0.02357">
        <ele>1627.8</ele>
        <time>2021-10-09T12:49:08</time>
      </trkpt>
      <trkpt lat="42.95758" lon="0.02359">
        <ele>1628</ele>
        <time>2021-10-09T12:49:09</time>
      </trkpt>
      <trkpt lat="42.95753" lon="0.02361">
        <ele>1628</ele>
        <time>2021-10-09T12:49:10</time>
      </trkpt>
      <trkpt lat="42.95747" lon="0.02361">
        <ele>1628</ele>
        <time>2021-10-09T12:49:11</time>
      </trkpt>
      <trkpt lat="42.95744" lon="0.0236">
        <ele>1628</ele>
        <time>2021-10-09T12:49:12</time>
      </trkpt>
      <trkpt lat="42.95742" lon="0.0236">
        <ele>1627.8</ele>
        <time>2021-10-09T12:49:13</time>
      </trkpt>
      <trkpt lat="42.95742" lon="0.0236">
        <ele>1627.8</ele>
        <time>2021-10-09T12:49:14</time>
      </trkpt>
      <trkpt lat="42.95742" lon="0.0236">
        <ele>1627.8</ele>
        <time>2021-10-09T12:49:15</time>
      </trkpt>
      <trkpt lat="42.95742" lon="0.0236">
        <ele>1627.8</ele>
        <time>2021-10-09T12:49:16</time>
      </trkpt>
      <trkpt lat="42.95742" lon="0.0236">
        <ele>1627.8</ele>
        <time>2021-10-09T12:49:17</time>
      </trkpt>
      <trkpt lat="42.95742" lon="0.0236">
        <ele>1627.8</ele>
        <time>2021-10-09T12:49:18</time>
      </trkpt>
      <trkpt lat="42.95742" lon="0.0236">
        <ele>1627.8</ele>
        <time>2021-10-09T12:49:19</time>
      </trkpt>
      <trkpt lat="42.95742" lon="0.0236">
        <ele>1627.8</ele>
        <time>2021-10-09T12:49:20</time>
      </trkpt>
      <trkpt lat="42.95683" lon="0.02366">
        <ele>1627.6</ele>
        <time>2021-10-09T12:50:14</time>
      </trkpt>
      <trkpt lat="42.95675" lon="0.02367">
        <ele>1627.4</ele>
        <time>2021-10-09T12:50:15</time>
      </trkpt>
      <trkpt lat="42.95668" lon="0.02365">
        <ele>1627</ele>
        <time>2021-10-09T12:50:16</time>
      </trkpt>
      <trkpt lat="42.95662" lon="0.02363">
        <ele>1627.2</ele>
        <time>2021-10-09T12:50:17</time>
      </trkpt>
      <trkpt lat="42.95655" lon="0.02362">
        <ele>1627.4</ele>
        <time>2021-10-09T12:50:18</time>
      </trkpt>
      <trkpt lat="42.95649" lon="0.02362">
        <ele>1627.2</ele>
        <time>2021-10-09T12:50:19</time>
      </trkpt>
      <trkpt lat="42.95643" lon="0.02363">
        <ele>1627.2</ele>
        <time>2021-10-09T12:50:20</time>
      </trkpt>
      <trkpt lat="42.95636" lon="0.02365">
        <ele>1627</ele>
        <time>2021-10-09T12:50:21</time>
      </trkpt>
      <trkpt lat="42.9563" lon="0.02368">
        <ele>1626.4</ele>
        <time>2021-10-09T12:50:22</time>
      </trkpt>
      <trkpt lat="42.95623" lon="0.0237">
        <ele>1626</ele>
        <time>2021-10-09T12:50:23</time>
      </trkpt>
      <trkpt lat="42.95615" lon="0.02373">
        <ele>1625</ele>
        <time>2021-10-09T12:50:24</time>
      </trkpt>
      <trkpt lat="42.95608" lon="0.02376">
        <ele>1624.6</ele>
        <time>2021-10-09T12:50:25</time>
      </trkpt>
      <trkpt lat="42.956" lon="0.02378">
        <ele>1624.6</ele>
        <time>2021-10-09T12:50:26</time>
      </trkpt>
      <trkpt lat="42.95593" lon="0.02377">
        <ele>1624.4</ele>
        <time>2021-10-09T12:50:27</time>
      </trkpt>
      <trkpt lat="42.95587" lon="0.02375">
        <ele>1624.2</ele>
        <time>2021-10-09T12:50:28</time>
      </trkpt>
      <trkpt lat="42.95581" lon="0.02373">
        <ele>1624.2</ele>
        <time>2021-10-09T12:50:29</time>
      </trkpt>
      <trkpt lat="42.95577" lon="0.02372">
        <ele>1624.2</ele>
        <time>2021-10-09T12:50:30</time>
      </trkpt>
      <trkpt lat="42.95575" lon="0.02371">
        <ele>1624.4</ele>
        <time>2021-10-09T12:50:31</time>
      </trkpt>
      <trkpt lat="42.95574" lon="0.02371">
        <ele>1624.8</ele>
        <time>2021-10-09T12:50:32</time>
      </trkpt>
      <trkpt lat="42.95573" lon="0.02371">
        <ele>1625</ele>
        <time>2021-10-09T12:50:33</time>
      </trkpt>
      <trkpt lat="42.95572" lon="0.02371">
        <ele>1625</ele>
        <time>2021-10-09T12:50:34</time>
      </trkpt>
      <trkpt lat="42.9557" lon="0.0237">
        <ele>1625</ele>
        <time>2021-10-09T12:50:35</time>
      </trkpt>
      <trkpt lat="42.95567" lon="0.02369">
        <ele>1624.6</ele>
        <time>2021-10-09T12:50:36</time>
      </trkpt>
      <trkpt lat="42.95563" lon="0.0237">
        <ele>1624.2</ele>
        <time>2021-10-09T12:50:37</time>
      </trkpt>
      <trkpt lat="42.95559" lon="0.02371">
        <ele>1624.2</ele>
        <time>2021-10-09T12:50:38</time>
      </trkpt>
      <trkpt lat="42.95556" lon="0.02374">
        <ele>1623.8</ele>
        <time>2021-10-09T12:50:39</time>
      </trkpt>
      <trkpt lat="42.95554" lon="0.02376">
        <ele>1623.8</ele>
        <time>2021-10-09T12:50:40</time>
      </trkpt>
      <trkpt lat="42.95551" lon="0.02379">
        <ele>1623.2</ele>
        <time>2021-10-09T12:50:41</time>
      </trkpt>
      <trkpt lat="42.95548" lon="0.02379">
        <ele>1622.8</ele>
        <time>2021-10-09T12:50:42</time>
      </trkpt>
      <trkpt lat="42.95544" lon="0.02379">
        <ele>1622.8</ele>
        <time>2021-10-09T12:50:43</time>
      </trkpt>
      <trkpt lat="42.9554" lon="0.02378">
        <ele>1622.6</ele>
        <time>2021-10-09T12:50:44</time>
      </trkpt>
      <trkpt lat="42.95535" lon="0.02378">
        <ele>1622.8</ele>
        <time>2021-10-09T12:50:45</time>
      </trkpt>
      <trkpt lat="42.9553" lon="0.02378">
        <ele>1622.8</ele>
        <time>2021-10-09T12:50:46</time>
      </trkpt>
      <trkpt lat="42.95525" lon="0.0238">
        <ele>1622.6</ele>
        <time>2021-10-09T12:50:47</time>
      </trkpt>
      <trkpt lat="42.95519" lon="0.02382">
        <ele>1622.4</ele>
        <time>2021-10-09T12:50:48</time>
      </trkpt>
      <trkpt lat="42.95513" lon="0.02384">
        <ele>1622</ele>
        <time>2021-10-09T12:50:49</time>
      </trkpt>
      <trkpt lat="42.95508" lon="0.02387">
        <ele>1622.2</ele>
        <time>2021-10-09T12:50:50</time>
      </trkpt>
      <trkpt lat="42.95502" lon="0.02389">
        <ele>1622</ele>
        <time>2021-10-09T12:50:51</time>
      </trkpt>
      <trkpt lat="42.95498" lon="0.0239">
        <ele>1621.2</ele>
        <time>2021-10-09T12:50:52</time>
      </trkpt>
      <trkpt lat="42.95494" lon="0.02392">
        <ele>1621</ele>
        <time>2021-10-09T12:50:53</time>
      </trkpt>
      <trkpt lat="42.95489" lon="0.02394">
        <ele>1620.4</ele>
        <time>2021-10-09T12:50:54</time>
      </trkpt>
      <trkpt lat="42.95485" lon="0.02396">
        <ele>1619.8</ele>
        <time>2021-10-09T12:50:55</time>
      </trkpt>
      <trkpt lat="42.95482" lon="0.02398">
        <ele>1619</ele>
        <time>2021-10-09T12:50:56</time>
      </trkpt>
      <trkpt lat="42.95479" lon="0.02399">
        <ele>1618.4</ele>
        <time>2021-10-09T12:50:57</time>
      </trkpt>
      <trkpt lat="42.95477" lon="0.02401">
        <ele>1617.8</ele>
        <time>2021-10-09T12:50:58</time>
      </trkpt>
      <trkpt lat="42.95474" lon="0.02402">
        <ele>1617</ele>
        <time>2021-10-09T12:50:59</time>
      </trkpt>
      <trkpt lat="42.95471" lon="0.02403">
        <ele>1616.2</ele>
        <time>2021-10-09T12:51:00</time>
      </trkpt>
      <trkpt lat="42.95468" lon="0.02404">
        <ele>1615.2</ele>
        <time>2021-10-09T12:51:01</time>
      </trkpt>
      <trkpt lat="42.95465" lon="0.02406">
        <ele>1614.8</ele>
        <time>2021-10-09T12:51:02</time>
      </trkpt>
      <trkpt lat="42.95463" lon="0.02408">
        <ele>1614.4</ele>
        <time>2021-10-09T12:51:03</time>
      </trkpt>
      <trkpt lat="42.95462" lon="0.02408">
        <ele>1614.4</ele>
        <time>2021-10-09T12:51:04</time>
      </trkpt>
      <trkpt lat="42.95462" lon="0.02408">
        <ele>1614.4</ele>
        <time>2021-10-09T12:51:05</time>
      </trkpt>
      <trkpt lat="42.95462" lon="0.02408">
        <ele>1614.2</ele>
        <time>2021-10-09T12:51:06</time>
      </trkpt>
      <trkpt lat="42.95462" lon="0.02408">
        <ele>1614</ele>
        <time>2021-10-09T12:51:07</time>
      </trkpt>
      <trkpt lat="42.95462" lon="0.02408">
        <ele>1614</ele>
        <time>2021-10-09T12:51:08</time>
      </trkpt>
      <trkpt lat="42.95461" lon="0.02408">
        <ele>1614.2</ele>
        <time>2021-10-09T12:51:09</time>
      </trkpt>
      <trkpt lat="42.95461" lon="0.02408">
        <ele>1614</ele>
        <time>2021-10-09T12:51:10</time>
      </trkpt>
      <trkpt lat="42.9546" lon="0.02409">
        <ele>1614</ele>
        <time>2021-10-09T12:51:11</time>
      </trkpt>
      <trkpt lat="42.95439" lon="0.02438">
        <ele>1610.8</ele>
        <time>2021-10-09T12:51:19</time>
      </trkpt>
      <trkpt lat="42.95436" lon="0.02443">
        <ele>1610.8</ele>
        <time>2021-10-09T12:51:20</time>
      </trkpt>
      <trkpt lat="42.95432" lon="0.02449">
        <ele>1610.6</ele>
        <time>2021-10-09T12:51:21</time>
      </trkpt>
      <trkpt lat="42.95427" lon="0.02454">
        <ele>1610.4</ele>
        <time>2021-10-09T12:51:22</time>
      </trkpt>
      <trkpt lat="42.95423" lon="0.02459">
        <ele>1610.2</ele>
        <time>2021-10-09T12:51:23</time>
      </trkpt>
      <trkpt lat="42.9542" lon="0.02464">
        <ele>1610.2</ele>
        <time>2021-10-09T12:51:24</time>
      </trkpt>
      <trkpt lat="42.95416" lon="0.02467">
        <ele>1609.6</ele>
        <time>2021-10-09T12:51:25</time>
      </trkpt>
      <trkpt lat="42.95412" lon="0.02468">
        <ele>1609</ele>
        <time>2021-10-09T12:51:26</time>
      </trkpt>
      <trkpt lat="42.95408" lon="0.02467">
        <ele>1608.8</ele>
        <time>2021-10-09T12:51:27</time>
      </trkpt>
      <trkpt lat="42.95406" lon="0.02465">
        <ele>1609</ele>
        <time>2021-10-09T12:51:28</time>
      </trkpt>
      <trkpt lat="42.95405" lon="0.02463">
        <ele>1609</ele>
        <time>2021-10-09T12:51:29</time>
      </trkpt>
      <trkpt lat="42.95403" lon="0.02463">
        <ele>1609.2</ele>
        <time>2021-10-09T12:51:30</time>
      </trkpt>
      <trkpt lat="42.95402" lon="0.02463">
        <ele>1609.2</ele>
        <time>2021-10-09T12:51:31</time>
      </trkpt>
      <trkpt lat="42.954" lon="0.02464">
        <ele>1609.4</ele>
        <time>2021-10-09T12:51:32</time>
      </trkpt>
      <trkpt lat="42.95399" lon="0.02464">
        <ele>1609.6</ele>
        <time>2021-10-09T12:51:33</time>
      </trkpt>
      <trkpt lat="42.95397" lon="0.02464">
        <ele>1609.6</ele>
        <time>2021-10-09T12:51:34</time>
      </trkpt>
      <trkpt lat="42.95394" lon="0.02464">
        <ele>1609.6</ele>
        <time>2021-10-09T12:51:35</time>
      </trkpt>
      <trkpt lat="42.95391" lon="0.02463">
        <ele>1609.4</ele>
        <time>2021-10-09T12:51:36</time>
      </trkpt>
      <trkpt lat="42.95389" lon="0.02462">
        <ele>1609.4</ele>
        <time>2021-10-09T12:51:37</time>
      </trkpt>
      <trkpt lat="42.95386" lon="0.02461">
        <ele>1609.6</ele>
        <time>2021-10-09T12:51:38</time>
      </trkpt>
      <trkpt lat="42.95383" lon="0.02461">
        <ele>1609.8</ele>
        <time>2021-10-09T12:51:39</time>
      </trkpt>
      <trkpt lat="42.9538" lon="0.0246">
        <ele>1610.2</ele>
        <time>2021-10-09T12:51:40</time>
      </trkpt>
      <trkpt lat="42.95376" lon="0.02459">
        <ele>1610.4</ele>
        <time>2021-10-09T12:51:41</time>
      </trkpt>
      <trkpt lat="42.95374" lon="0.02458">
        <ele>1610.6</ele>
        <time>2021-10-09T12:51:42</time>
      </trkpt>
      <trkpt lat="42.95371" lon="0.02458">
        <ele>1611</ele>
        <time>2021-10-09T12:51:43</time>
      </trkpt>
      <trkpt lat="42.95369" lon="0.02458">
        <ele>1611</ele>
        <time>2021-10-09T12:51:44</time>
      </trkpt>
      <trkpt lat="42.95367" lon="0.02459">
        <ele>1611.4</ele>
        <time>2021-10-09T12:51:45</time>
      </trkpt>
      <trkpt lat="42.95364" lon="0.0246">
        <ele>1611.6</ele>
        <time>2021-10-09T12:51:46</time>
      </trkpt>
      <trkpt lat="42.95361" lon="0.0246">
        <ele>1611.6</ele>
        <time>2021-10-09T12:51:47</time>
      </trkpt>
      <trkpt lat="42.95357" lon="0.02461">
        <ele>1611.6</ele>
        <time>2021-10-09T12:51:48</time>
      </trkpt>
      <trkpt lat="42.95353" lon="0.02463">
        <ele>1611.6</ele>
        <time>2021-10-09T12:51:49</time>
      </trkpt>
      <trkpt lat="42.95348" lon="0.02465">
        <ele>1611.4</ele>
        <time>2021-10-09T12:51:50</time>
      </trkpt>
      <trkpt lat="42.95343" lon="0.02466">
        <ele>1611.2</ele>
        <time>2021-10-09T12:51:51</time>
      </trkpt>
      <trkpt lat="42.95338" lon="0.02468">
        <ele>1611.4</ele>
        <time>2021-10-09T12:51:52</time>
      </trkpt>
      <trkpt lat="42.95333" lon="0.0247">
        <ele>1611.2</ele>
        <time>2021-10-09T12:51:53</time>
      </trkpt>
      <trkpt lat="42.95328" lon="0.0247">
        <ele>1611.4</ele>
        <time>2021-10-09T12:51:54</time>
      </trkpt>
      <trkpt lat="42.95323" lon="0.02471">
        <ele>1611.6</ele>
        <time>2021-10-09T12:51:55</time>
      </trkpt>
      <trkpt lat="42.95319" lon="0.02472">
        <ele>1611.8</ele>
        <time>2021-10-09T12:51:56</time>
      </trkpt>
      <trkpt lat="42.95315" lon="0.02473">
        <ele>1612.2</ele>
        <time>2021-10-09T12:51:57</time>
      </trkpt>
      <trkpt lat="42.9531" lon="0.02473">
        <ele>1612.6</ele>
        <time>2021-10-09T12:51:58</time>
      </trkpt>
      <trkpt lat="42.95306" lon="0.02474">
        <ele>1612.8</ele>
        <time>2021-10-09T12:51:59</time>
      </trkpt>
      <trkpt lat="42.95302" lon="0.02475">
        <ele>1613</ele>
        <time>2021-10-09T12:52:00</time>
      </trkpt>
      <trkpt lat="42.95297" lon="0.02477">
        <ele>1613.2</ele>
        <time>2021-10-09T12:52:01</time>
      </trkpt>
      <trkpt lat="42.95293" lon="0.02478">
        <ele>1613.2</ele>
        <time>2021-10-09T12:52:02</time>
      </trkpt>
      <trkpt lat="42.95289" lon="0.0248">
        <ele>1613.2</ele>
        <time>2021-10-09T12:52:03</time>
      </trkpt>
      <trkpt lat="42.95284" lon="0.02482">
        <ele>1613.2</ele>
        <time>2021-10-09T12:52:04</time>
      </trkpt>
      <trkpt lat="42.95279" lon="0.02482">
        <ele>1613</ele>
        <time>2021-10-09T12:52:05</time>
      </trkpt>
      <trkpt lat="42.95274" lon="0.02481">
        <ele>1612.6</ele>
        <time>2021-10-09T12:52:06</time>
      </trkpt>
      <trkpt lat="42.95269" lon="0.0248">
        <ele>1612</ele>
        <time>2021-10-09T12:52:07</time>
      </trkpt>
      <trkpt lat="42.95265" lon="0.02478">
        <ele>1611.6</ele>
        <time>2021-10-09T12:52:08</time>
      </trkpt>
      <trkpt lat="42.95261" lon="0.02474">
        <ele>1611.2</ele>
        <time>2021-10-09T12:52:09</time>
      </trkpt>
      <trkpt lat="42.95258" lon="0.02469">
        <ele>1611</ele>
        <time>2021-10-09T12:52:10</time>
      </trkpt>
      <trkpt lat="42.95256" lon="0.02463">
        <ele>1610.4</ele>
        <time>2021-10-09T12:52:11</time>
      </trkpt>
      <trkpt lat="42.95253" lon="0.02457">
        <ele>1609.6</ele>
        <time>2021-10-09T12:52:12</time>
      </trkpt>
      <trkpt lat="42.95251" lon="0.0245">
        <ele>1608.8</ele>
        <time>2021-10-09T12:52:13</time>
      </trkpt>
      <trkpt lat="42.95247" lon="0.02442">
        <ele>1607.6</ele>
        <time>2021-10-09T12:52:14</time>
      </trkpt>
      <trkpt lat="42.95244" lon="0.02432">
        <ele>1605.6</ele>
        <time>2021-10-09T12:52:15</time>
      </trkpt>
      <trkpt lat="42.9524" lon="0.02422">
        <ele>1604</ele>
        <time>2021-10-09T12:52:16</time>
      </trkpt>
      <trkpt lat="42.95236" lon="0.02414">
        <ele>1602.6</ele>
        <time>2021-10-09T12:52:17</time>
      </trkpt>
      <trkpt lat="42.95231" lon="0.02407">
        <ele>1601.6</ele>
        <time>2021-10-09T12:52:18</time>
      </trkpt>
      <trkpt lat="42.95227" lon="0.02401">
        <ele>1600.8</ele>
        <time>2021-10-09T12:52:19</time>
      </trkpt>
      <trkpt lat="42.95223" lon="0.02396">
        <ele>1600</ele>
        <time>2021-10-09T12:52:20</time>
      </trkpt>
      <trkpt lat="42.9522" lon="0.0239">
        <ele>1599.4</ele>
        <time>2021-10-09T12:52:21</time>
      </trkpt>
      <trkpt lat="42.95218" lon="0.02385">
        <ele>1599</ele>
        <time>2021-10-09T12:52:22</time>
      </trkpt>
      <trkpt lat="42.95216" lon="0.0238">
        <ele>1598.2</ele>
        <time>2021-10-09T12:52:23</time>
      </trkpt>
      <trkpt lat="42.95214" lon="0.02375">
        <ele>1597.8</ele>
        <time>2021-10-09T12:52:24</time>
      </trkpt>
      <trkpt lat="42.95213" lon="0.02369">
        <ele>1596.8</ele>
        <time>2021-10-09T12:52:25</time>
      </trkpt>
      <trkpt lat="42.9521" lon="0.02364">
        <ele>1596</ele>
        <time>2021-10-09T12:52:26</time>
      </trkpt>
      <trkpt lat="42.95209" lon="0.0236">
        <ele>1595</ele>
        <time>2021-10-09T12:52:27</time>
      </trkpt>
      <trkpt lat="42.95207" lon="0.02358">
        <ele>1594.8</ele>
        <time>2021-10-09T12:52:28</time>
      </trkpt>
      <trkpt lat="42.95205" lon="0.02356">
        <ele>1594</ele>
        <time>2021-10-09T12:52:29</time>
      </trkpt>
      <trkpt lat="42.95203" lon="0.02353">
        <ele>1593.4</ele>
        <time>2021-10-09T12:52:30</time>
      </trkpt>
      <trkpt lat="42.95202" lon="0.02349">
        <ele>1593</ele>
        <time>2021-10-09T12:52:31</time>
      </trkpt>
      <trkpt lat="42.95202" lon="0.02344">
        <ele>1592</ele>
        <time>2021-10-09T12:52:32</time>
      </trkpt>
      <trkpt lat="42.95202" lon="0.0234">
        <ele>1591</ele>
        <time>2021-10-09T12:52:33</time>
      </trkpt>
      <trkpt lat="42.95202" lon="0.02337">
        <ele>1590.6</ele>
        <time>2021-10-09T12:52:34</time>
      </trkpt>
      <trkpt lat="42.95202" lon="0.02337">
        <ele>1590</ele>
        <time>2021-10-09T12:52:35</time>
      </trkpt>
      <trkpt lat="42.95202" lon="0.02337">
        <ele>1589.8</ele>
        <time>2021-10-09T12:52:36</time>
      </trkpt>
      <trkpt lat="42.95202" lon="0.02337">
        <ele>1589.8</ele>
        <time>2021-10-09T12:52:37</time>
      </trkpt>
      <trkpt lat="42.95202" lon="0.02337">
        <ele>1590</ele>
        <time>2021-10-09T12:52:38</time>
      </trkpt>
      <trkpt lat="42.95202" lon="0.02336">
        <ele>1590</ele>
        <time>2021-10-09T12:52:39</time>
      </trkpt>
      <trkpt lat="42.95202" lon="0.02336">
        <ele>1589.8</ele>
        <time>2021-10-09T12:52:40</time>
      </trkpt>
      <trkpt lat="42.95202" lon="0.02336">
        <ele>1589.8</ele>
        <time>2021-10-09T12:52:41</time>
      </trkpt>
      <trkpt lat="42.95202" lon="0.02336">
        <ele>1589.8</ele>
        <time>2021-10-09T12:52:42</time>
      </trkpt>
      <trkpt lat="42.95213" lon="0.02328">
        <ele>1590.2</ele>
        <time>2021-10-09T12:54:15</time>
      </trkpt>
      <trkpt lat="42.95214" lon="0.02327">
        <ele>1590.4</ele>
        <time>2021-10-09T12:54:16</time>
      </trkpt>
      <trkpt lat="42.95214" lon="0.02327">
        <ele>1590.4</ele>
        <time>2021-10-09T12:54:17</time>
      </trkpt>
      <trkpt lat="42.95215" lon="0.02326">
        <ele>1590.4</ele>
        <time>2021-10-09T12:54:18</time>
      </trkpt>
      <trkpt lat="42.95216" lon="0.02326">
        <ele>1590.4</ele>
        <time>2021-10-09T12:54:19</time>
      </trkpt>
      <trkpt lat="42.95217" lon="0.02326">
        <ele>1590.4</ele>
        <time>2021-10-09T12:54:20</time>
      </trkpt>
      <trkpt lat="42.95218" lon="0.02326">
        <ele>1590.4</ele>
        <time>2021-10-09T12:54:21</time>
      </trkpt>
      <trkpt lat="42.9522" lon="0.02326">
        <ele>1590.6</ele>
        <time>2021-10-09T12:54:22</time>
      </trkpt>
      <trkpt lat="42.95221" lon="0.02325">
        <ele>1590.8</ele>
        <time>2021-10-09T12:54:23</time>
      </trkpt>
      <trkpt lat="42.95222" lon="0.02324">
        <ele>1590.8</ele>
        <time>2021-10-09T12:54:24</time>
      </trkpt>
      <trkpt lat="42.95223" lon="0.02324">
        <ele>1590.8</ele>
        <time>2021-10-09T12:54:25</time>
      </trkpt>
      <trkpt lat="42.95224" lon="0.02323">
        <ele>1590.4</ele>
        <time>2021-10-09T12:54:26</time>
      </trkpt>
      <trkpt lat="42.95224" lon="0.02322">
        <ele>1590.2</ele>
        <time>2021-10-09T12:54:27</time>
      </trkpt>
      <trkpt lat="42.95225" lon="0.02322">
        <ele>1590.4</ele>
        <time>2021-10-09T12:54:28</time>
      </trkpt>
      <trkpt lat="42.95226" lon="0.02321">
        <ele>1590.4</ele>
        <time>2021-10-09T12:54:29</time>
      </trkpt>
      <trkpt lat="42.95227" lon="0.02321">
        <ele>1590.2</ele>
        <time>2021-10-09T12:54:30</time>
      </trkpt>
      <trkpt lat="42.95227" lon="0.02322">
        <ele>1590.2</ele>
        <time>2021-10-09T12:54:31</time>
      </trkpt>
      <trkpt lat="42.95227" lon="0.02322">
        <ele>1590</ele>
        <time>2021-10-09T12:54:32</time>
      </trkpt>
      <trkpt lat="42.95227" lon="0.02322">
        <ele>1589.8</ele>
        <time>2021-10-09T12:54:33</time>
      </trkpt>
      <trkpt lat="42.95227" lon="0.02322">
        <ele>1589.6</ele>
        <time>2021-10-09T12:54:34</time>
      </trkpt>
      <trkpt lat="42.95227" lon="0.02322">
        <ele>1589.8</ele>
        <time>2021-10-09T12:54:35</time>
      </trkpt>
      <trkpt lat="42.95227" lon="0.02322">
        <ele>1589.6</ele>
        <time>2021-10-09T12:54:36</time>
      </trkpt>
      <trkpt lat="42.95227" lon="0.02322">
        <ele>1589.6</ele>
        <time>2021-10-09T12:54:37</time>
      </trkpt>
      <trkpt lat="42.95228" lon="0.02298">
        <ele>1584</ele>
        <time>2021-10-09T12:57:39</time>
      </trkpt>
      <trkpt lat="42.95227" lon="0.02294">
        <ele>1583.4</ele>
        <time>2021-10-09T12:57:40</time>
      </trkpt>
      <trkpt lat="42.95228" lon="0.02288">
        <ele>1582.4</ele>
        <time>2021-10-09T12:57:41</time>
      </trkpt>
      <trkpt lat="42.95229" lon="0.02282">
        <ele>1581.2</ele>
        <time>2021-10-09T12:57:42</time>
      </trkpt>
      <trkpt lat="42.9523" lon="0.02274">
        <ele>1580.4</ele>
        <time>2021-10-09T12:57:43</time>
      </trkpt>
      <trkpt lat="42.95231" lon="0.02266">
        <ele>1578.8</ele>
        <time>2021-10-09T12:57:44</time>
      </trkpt>
      <trkpt lat="42.95233" lon="0.02257">
        <ele>1577.8</ele>
        <time>2021-10-09T12:57:45</time>
      </trkpt>
      <trkpt lat="42.95234" lon="0.02249">
        <ele>1577.6</ele>
        <time>2021-10-09T12:57:46</time>
      </trkpt>
      <trkpt lat="42.95235" lon="0.02243">
        <ele>1577.6</ele>
        <time>2021-10-09T12:57:47</time>
      </trkpt>
      <trkpt lat="42.95235" lon="0.02239">
        <ele>1577.4</ele>
        <time>2021-10-09T12:57:48</time>
      </trkpt>
      <trkpt lat="42.95236" lon="0.02238">
        <ele>1577.4</ele>
        <time>2021-10-09T12:57:49</time>
      </trkpt>
      <trkpt lat="42.95236" lon="0.02238">
        <ele>1577.2</ele>
        <time>2021-10-09T12:57:50</time>
      </trkpt>
      <trkpt lat="42.95236" lon="0.02238">
        <ele>1577</ele>
        <time>2021-10-09T12:57:51</time>
      </trkpt>
      <trkpt lat="42.95236" lon="0.02238">
        <ele>1577</ele>
        <time>2021-10-09T12:57:52</time>
      </trkpt>
      <trkpt lat="42.95236" lon="0.02238">
        <ele>1576.8</ele>
        <time>2021-10-09T12:57:53</time>
      </trkpt>
      <trkpt lat="42.95236" lon="0.02238">
        <ele>1576.6</ele>
        <time>2021-10-09T12:57:54</time>
      </trkpt>
      <trkpt lat="42.95236" lon="0.02238">
        <ele>1576.8</ele>
        <time>2021-10-09T12:57:55</time>
      </trkpt>
      <trkpt lat="42.95236" lon="0.02238">
        <ele>1576.8</ele>
        <time>2021-10-09T12:57:56</time>
      </trkpt>
      <trkpt lat="42.95238" lon="0.02203">
        <ele>1575</ele>
        <time>2021-10-09T01:09:41</time>
      </trkpt>
      <trkpt lat="42.95239" lon="0.022">
        <ele>1575.2</ele>
        <time>2021-10-09T01:09:42</time>
      </trkpt>
      <trkpt lat="42.9524" lon="0.02195">
        <ele>1575.2</ele>
        <time>2021-10-09T01:09:43</time>
      </trkpt>
      <trkpt lat="42.95242" lon="0.02191">
        <ele>1575.2</ele>
        <time>2021-10-09T01:09:44</time>
      </trkpt>
      <trkpt lat="42.95243" lon="0.02187">
        <ele>1575</ele>
        <time>2021-10-09T01:09:45</time>
      </trkpt>
      <trkpt lat="42.95244" lon="0.02183">
        <ele>1575</ele>
        <time>2021-10-09T01:09:46</time>
      </trkpt>
      <trkpt lat="42.95246" lon="0.02178">
        <ele>1574.8</ele>
        <time>2021-10-09T01:09:47</time>
      </trkpt>
      <trkpt lat="42.95247" lon="0.02174">
        <ele>1574.8</ele>
        <time>2021-10-09T01:09:48</time>
      </trkpt>
      <trkpt lat="42.95249" lon="0.0217">
        <ele>1574.8</ele>
        <time>2021-10-09T01:09:49</time>
      </trkpt>
      <trkpt lat="42.9525" lon="0.02166">
        <ele>1574.8</ele>
        <time>2021-10-09T01:09:50</time>
      </trkpt>
      <trkpt lat="42.95252" lon="0.02163">
        <ele>1574.6</ele>
        <time>2021-10-09T01:09:51</time>
      </trkpt>
      <trkpt lat="42.95253" lon="0.0216">
        <ele>1574.6</ele>
        <time>2021-10-09T01:09:52</time>
      </trkpt>
      <trkpt lat="42.95254" lon="0.02158">
        <ele>1574.6</ele>
        <time>2021-10-09T01:09:53</time>
      </trkpt>
      <trkpt lat="42.95255" lon="0.02156">
        <ele>1574.6</ele>
        <time>2021-10-09T01:09:54</time>
      </trkpt>
      <trkpt lat="42.95256" lon="0.02154">
        <ele>1574.4</ele>
        <time>2021-10-09T01:09:55</time>
      </trkpt>
      <trkpt lat="42.95257" lon="0.02151">
        <ele>1574.4</ele>
        <time>2021-10-09T01:09:56</time>
      </trkpt>
      <trkpt lat="42.95258" lon="0.02149">
        <ele>1574.4</ele>
        <time>2021-10-09T01:09:57</time>
      </trkpt>
      <trkpt lat="42.95259" lon="0.02147">
        <ele>1574.2</ele>
        <time>2021-10-09T01:09:58</time>
      </trkpt>
      <trkpt lat="42.9526" lon="0.02145">
        <ele>1574.2</ele>
        <time>2021-10-09T01:09:59</time>
      </trkpt>
      <trkpt lat="42.9526" lon="0.02144">
        <ele>1574.2</ele>
        <time>2021-10-09T01:10:00</time>
      </trkpt>
      <trkpt lat="42.95261" lon="0.02143">
        <ele>1574.2</ele>
        <time>2021-10-09T01:10:01</time>
      </trkpt>
      <trkpt lat="42.95261" lon="0.02143">
        <ele>1574.4</ele>
        <time>2021-10-09T01:10:02</time>
      </trkpt>
      <trkpt lat="42.95261" lon="0.02143">
        <ele>1574.4</ele>
        <time>2021-10-09T01:10:03</time>
      </trkpt>
      <trkpt lat="42.95261" lon="0.02142">
        <ele>1574.4</ele>
        <time>2021-10-09T01:10:04</time>
      </trkpt>
      <trkpt lat="42.95261" lon="0.02142">
        <ele>1574.4</ele>
        <time>2021-10-09T01:10:05</time>
      </trkpt>
      <trkpt lat="42.9526" lon="0.02142">
        <ele>1574.2</ele>
        <time>2021-10-09T01:10:06</time>
      </trkpt>
      <trkpt lat="42.9526" lon="0.02142">
        <ele>1574.2</ele>
        <time>2021-10-09T01:10:07</time>
      </trkpt>
      <trkpt lat="42.9526" lon="0.02142">
        <ele>1574.2</ele>
        <time>2021-10-09T01:10:08</time>
      </trkpt>
      <trkpt lat="42.95264" lon="0.02127">
        <ele>1575.8</ele>
        <time>2021-10-09T01:21:00</time>
      </trkpt>
      <trkpt lat="42.95265" lon="0.02125">
        <ele>1575.8</ele>
        <time>2021-10-09T01:21:01</time>
      </trkpt>
      <trkpt lat="42.95265" lon="0.02123">
        <ele>1576.2</ele>
        <time>2021-10-09T01:21:02</time>
      </trkpt>
      <trkpt lat="42.95265" lon="0.02122">
        <ele>1576.2</ele>
        <time>2021-10-09T01:21:03</time>
      </trkpt>
      <trkpt lat="42.95266" lon="0.02121">
        <ele>1576.4</ele>
        <time>2021-10-09T01:21:04</time>
      </trkpt>
      <trkpt lat="42.95266" lon="0.02121">
        <ele>1576.2</ele>
        <time>2021-10-09T01:21:05</time>
      </trkpt>
      <trkpt lat="42.95266" lon="0.02121">
        <ele>1576.2</ele>
        <time>2021-10-09T01:21:06</time>
      </trkpt>
      <trkpt lat="42.95266" lon="0.02121">
        <ele>1576.2</ele>
        <time>2021-10-09T01:21:07</time>
      </trkpt>
      <trkpt lat="42.95266" lon="0.02121">
        <ele>1576.2</ele>
        <time>2021-10-09T01:21:08</time>
      </trkpt>
      <trkpt lat="42.95266" lon="0.0212">
        <ele>1576.2</ele>
        <time>2021-10-09T01:21:09</time>
      </trkpt>
      <trkpt lat="42.95267" lon="0.02118">
        <ele>1576.4</ele>
        <time>2021-10-09T01:21:10</time>
      </trkpt>
      <trkpt lat="42.95268" lon="0.02115">
        <ele>1576.8</ele>
        <time>2021-10-09T01:21:11</time>
      </trkpt>
      <trkpt lat="42.95272" lon="0.02102">
        <ele>1576.4</ele>
        <time>2021-10-09T01:21:17</time>
      </trkpt>
      <trkpt lat="42.95273" lon="0.02099">
        <ele>1576.8</ele>
        <time>2021-10-09T01:21:18</time>
      </trkpt>
      <trkpt lat="42.95275" lon="0.02096">
        <ele>1576.6</ele>
        <time>2021-10-09T01:21:19</time>
      </trkpt>
      <trkpt lat="42.95276" lon="0.02093">
        <ele>1576.2</ele>
        <time>2021-10-09T01:21:20</time>
      </trkpt>
      <trkpt lat="42.95277" lon="0.0209">
        <ele>1575.8</ele>
        <time>2021-10-09T01:21:21</time>
      </trkpt>
      <trkpt lat="42.95278" lon="0.02088">
        <ele>1576</ele>
        <time>2021-10-09T01:21:22</time>
      </trkpt>
      <trkpt lat="42.95279" lon="0.02086">
        <ele>1575.6</ele>
        <time>2021-10-09T01:21:23</time>
      </trkpt>
      <trkpt lat="42.95279" lon="0.02084">
        <ele>1575.2</ele>
        <time>2021-10-09T01:21:24</time>
      </trkpt>
      <trkpt lat="42.9528" lon="0.0208">
        <ele>1575</ele>
        <time>2021-10-09T01:21:25</time>
      </trkpt>
      <trkpt lat="42.95282" lon="0.02076">
        <ele>1574.6</ele>
        <time>2021-10-09T01:21:26</time>
      </trkpt>
      <trkpt lat="42.95284" lon="0.02072">
        <ele>1574.6</ele>
        <time>2021-10-09T01:21:27</time>
      </trkpt>
      <trkpt lat="42.95287" lon="0.02069">
        <ele>1574.6</ele>
        <time>2021-10-09T01:21:28</time>
      </trkpt>
      <trkpt lat="42.95288" lon="0.02067">
        <ele>1574.8</ele>
        <time>2021-10-09T01:21:29</time>
      </trkpt>
      <trkpt lat="42.9529" lon="0.02065">
        <ele>1574.8</ele>
        <time>2021-10-09T01:21:30</time>
      </trkpt>
      <trkpt lat="42.95291" lon="0.02063">
        <ele>1574.8</ele>
        <time>2021-10-09T01:21:31</time>
      </trkpt>
      <trkpt lat="42.95293" lon="0.02061">
        <ele>1575</ele>
        <time>2021-10-09T01:21:32</time>
      </trkpt>
      <trkpt lat="42.95294" lon="0.02059">
        <ele>1575.2</ele>
        <time>2021-10-09T01:21:33</time>
      </trkpt>
      <trkpt lat="42.95296" lon="0.02057">
        <ele>1575.2</ele>
        <time>2021-10-09T01:21:34</time>
      </trkpt>
      <trkpt lat="42.95298" lon="0.02054">
        <ele>1575.2</ele>
        <time>2021-10-09T01:21:35</time>
      </trkpt>
      <trkpt lat="42.953" lon="0.02051">
        <ele>1575.2</ele>
        <time>2021-10-09T01:21:36</time>
      </trkpt>
      <trkpt lat="42.95301" lon="0.02048">
        <ele>1575.2</ele>
        <time>2021-10-09T01:21:37</time>
      </trkpt>
      <trkpt lat="42.95303" lon="0.02045">
        <ele>1575.4</ele>
        <time>2021-10-09T01:21:38</time>
      </trkpt>
      <trkpt lat="42.95305" lon="0.02043">
        <ele>1575.4</ele>
        <time>2021-10-09T01:21:39</time>
      </trkpt>
      <trkpt lat="42.95307" lon="0.0204">
        <ele>1575.2</ele>
        <time>2021-10-09T01:21:40</time>
      </trkpt>
      <trkpt lat="42.95309" lon="0.02038">
        <ele>1575.4</ele>
        <time>2021-10-09T01:21:41</time>
      </trkpt>
      <trkpt lat="42.95311" lon="0.02036">
        <ele>1575.4</ele>
        <time>2021-10-09T01:21:42</time>
      </trkpt>
      <trkpt lat="42.95313" lon="0.02034">
        <ele>1575.4</ele>
        <time>2021-10-09T01:21:43</time>
      </trkpt>
      <trkpt lat="42.95315" lon="0.02032">
        <ele>1575.4</ele>
        <time>2021-10-09T01:21:44</time>
      </trkpt>
      <trkpt lat="42.95318" lon="0.0203">
        <ele>1575.2</ele>
        <time>2021-10-09T01:21:45</time>
      </trkpt>
      <trkpt lat="42.95321" lon="0.02028">
        <ele>1575</ele>
        <time>2021-10-09T01:21:46</time>
      </trkpt>
      <trkpt lat="42.95323" lon="0.02027">
        <ele>1575.2</ele>
        <time>2021-10-09T01:21:47</time>
      </trkpt>
      <trkpt lat="42.95325" lon="0.02027">
        <ele>1575</ele>
        <time>2021-10-09T01:21:48</time>
      </trkpt>
      <trkpt lat="42.95326" lon="0.02026">
        <ele>1575</ele>
        <time>2021-10-09T01:21:49</time>
      </trkpt>
      <trkpt lat="42.95327" lon="0.02026">
        <ele>1575.2</ele>
        <time>2021-10-09T01:21:50</time>
      </trkpt>
      <trkpt lat="42.95329" lon="0.02025">
        <ele>1575.2</ele>
        <time>2021-10-09T01:21:51</time>
      </trkpt>
      <trkpt lat="42.95331" lon="0.02024">
        <ele>1575</ele>
        <time>2021-10-09T01:21:52</time>
      </trkpt>
      <trkpt lat="42.95333" lon="0.02023">
        <ele>1575.2</ele>
        <time>2021-10-09T01:21:53</time>
      </trkpt>
      <trkpt lat="42.95335" lon="0.02023">
        <ele>1575.2</ele>
        <time>2021-10-09T01:21:54</time>
      </trkpt>
      <trkpt lat="42.95337" lon="0.02022">
        <ele>1575</ele>
        <time>2021-10-09T01:21:55</time>
      </trkpt>
      <trkpt lat="42.95338" lon="0.02021">
        <ele>1575</ele>
        <time>2021-10-09T01:21:56</time>
      </trkpt>
      <trkpt lat="42.95338" lon="0.02021">
        <ele>1575</ele>
        <time>2021-10-09T01:21:57</time>
      </trkpt>
      <trkpt lat="42.95338" lon="0.02021">
        <ele>1575</ele>
        <time>2021-10-09T01:21:58</time>
      </trkpt>
      <trkpt lat="42.95338" lon="0.02021">
        <ele>1575</ele>
        <time>2021-10-09T01:21:59</time>
      </trkpt>
      <trkpt lat="42.95338" lon="0.02021">
        <ele>1574.8</ele>
        <time>2021-10-09T01:22:00</time>
      </trkpt>
      <trkpt lat="42.95338" lon="0.02021">
        <ele>1574.8</ele>
        <time>2021-10-09T01:22:01</time>
      </trkpt>
      <trkpt lat="42.95338" lon="0.02021">
        <ele>1574.8</ele>
        <time>2021-10-09T01:22:02</time>
      </trkpt>
      <trkpt lat="42.95338" lon="0.02021">
        <ele>1574.6</ele>
        <time>2021-10-09T01:22:03</time>
      </trkpt>
      <trkpt lat="42.95383" lon="0.02023">
        <ele>1573.2</ele>
        <time>2021-10-09T01:22:33</time>
      </trkpt>
      <trkpt lat="42.95387" lon="0.02023">
        <ele>1573.2</ele>
        <time>2021-10-09T01:22:34</time>
      </trkpt>
      <trkpt lat="42.95391" lon="0.02022">
        <ele>1573.4</ele>
        <time>2021-10-09T01:22:35</time>
      </trkpt>
      <trkpt lat="42.95395" lon="0.02021">
        <ele>1573</ele>
        <time>2021-10-09T01:22:36</time>
      </trkpt>
      <trkpt lat="42.95399" lon="0.02021">
        <ele>1572.8</ele>
        <time>2021-10-09T01:22:37</time>
      </trkpt>
      <trkpt lat="42.95402" lon="0.02022">
        <ele>1572.8</ele>
        <time>2021-10-09T01:22:38</time>
      </trkpt>
      <trkpt lat="42.95405" lon="0.02023">
        <ele>1572.4</ele>
        <time>2021-10-09T01:22:39</time>
      </trkpt>
      <trkpt lat="42.95409" lon="0.02025">
        <ele>1572.6</ele>
        <time>2021-10-09T01:22:40</time>
      </trkpt>
      <trkpt lat="42.95412" lon="0.02027">
        <ele>1572.4</ele>
        <time>2021-10-09T01:22:41</time>
      </trkpt>
      <trkpt lat="42.95415" lon="0.02028">
        <ele>1572.4</ele>
        <time>2021-10-09T01:22:42</time>
      </trkpt>
      <trkpt lat="42.95418" lon="0.02028">
        <ele>1572.2</ele>
        <time>2021-10-09T01:22:43</time>
      </trkpt>
      <trkpt lat="42.95421" lon="0.02027">
        <ele>1572</ele>
        <time>2021-10-09T01:22:44</time>
      </trkpt>
      <trkpt lat="42.95424" lon="0.02024">
        <ele>1571.8</ele>
        <time>2021-10-09T01:22:45</time>
      </trkpt>
      <trkpt lat="42.95426" lon="0.02021">
        <ele>1572</ele>
        <time>2021-10-09T01:22:46</time>
      </trkpt>
      <trkpt lat="42.95428" lon="0.02018">
        <ele>1572</ele>
        <time>2021-10-09T01:22:47</time>
      </trkpt>
      <trkpt lat="42.95431" lon="0.02016">
        <ele>1572</ele>
        <time>2021-10-09T01:22:48</time>
      </trkpt>
      <trkpt lat="42.95434" lon="0.02013">
        <ele>1572</ele>
        <time>2021-10-09T01:22:49</time>
      </trkpt>
      <trkpt lat="42.95437" lon="0.02011">
        <ele>1572</ele>
        <time>2021-10-09T01:22:50</time>
      </trkpt>
      <trkpt lat="42.9544" lon="0.02011">
        <ele>1571.8</ele>
        <time>2021-10-09T01:22:51</time>
      </trkpt>
      <trkpt lat="42.95443" lon="0.02011">
        <ele>1572.2</ele>
        <time>2021-10-09T01:22:52</time>
      </trkpt>
      <trkpt lat="42.95446" lon="0.02011">
        <ele>1572.4</ele>
        <time>2021-10-09T01:22:53</time>
      </trkpt>
      <trkpt lat="42.95448" lon="0.02011">
        <ele>1572</ele>
        <time>2021-10-09T01:22:54</time>
      </trkpt>
      <trkpt lat="42.95451" lon="0.02011">
        <ele>1572</ele>
        <time>2021-10-09T01:22:55</time>
      </trkpt>
      <trkpt lat="42.95453" lon="0.02012">
        <ele>1572</ele>
        <time>2021-10-09T01:22:56</time>
      </trkpt>
      <trkpt lat="42.95455" lon="0.02012">
        <ele>1571.8</ele>
        <time>2021-10-09T01:22:57</time>
      </trkpt>
      <trkpt lat="42.95456" lon="0.02013">
        <ele>1571.8</ele>
        <time>2021-10-09T01:22:58</time>
      </trkpt>
      <trkpt lat="42.95456" lon="0.02014">
        <ele>1571.8</ele>
        <time>2021-10-09T01:22:59</time>
      </trkpt>
      <trkpt lat="42.95456" lon="0.02014">
        <ele>1571.8</ele>
        <time>2021-10-09T01:23:00</time>
      </trkpt>
      <trkpt lat="42.95456" lon="0.02014">
        <ele>1571.8</ele>
        <time>2021-10-09T01:23:01</time>
      </trkpt>
      <trkpt lat="42.95456" lon="0.02014">
        <ele>1571.6</ele>
        <time>2021-10-09T01:23:02</time>
      </trkpt>
      <trkpt lat="42.95456" lon="0.02014">
        <ele>1571.8</ele>
        <time>2021-10-09T01:23:03</time>
      </trkpt>
      <trkpt lat="42.95456" lon="0.02014">
        <ele>1571.6</ele>
        <time>2021-10-09T01:23:04</time>
      </trkpt>
      <trkpt lat="42.95456" lon="0.02014">
        <ele>1571.6</ele>
        <time>2021-10-09T01:23:05</time>
      </trkpt>
      <trkpt lat="42.95456" lon="0.02014">
        <ele>1571.6</ele>
        <time>2021-10-09T01:23:06</time>
      </trkpt>
      <trkpt lat="42.95466" lon="0.0206">
        <ele>1568.4</ele>
        <time>2021-10-09T01:23:53</time>
      </trkpt>
      <trkpt lat="42.95467" lon="0.02062">
        <ele>1568.6</ele>
        <time>2021-10-09T01:23:54</time>
      </trkpt>
      <trkpt lat="42.95469" lon="0.02065">
        <ele>1568.8</ele>
        <time>2021-10-09T01:23:55</time>
      </trkpt>
      <trkpt lat="42.95471" lon="0.02066">
        <ele>1568.6</ele>
        <time>2021-10-09T01:23:56</time>
      </trkpt>
      <trkpt lat="42.95471" lon="0.02068">
        <ele>1568.6</ele>
        <time>2021-10-09T01:23:57</time>
      </trkpt>
      <trkpt lat="42.95472" lon="0.0207">
        <ele>1568.4</ele>
        <time>2021-10-09T01:23:58</time>
      </trkpt>
      <trkpt lat="42.95472" lon="0.02072">
        <ele>1568.4</ele>
        <time>2021-10-09T01:23:59</time>
      </trkpt>
      <trkpt lat="42.95472" lon="0.02074">
        <ele>1568.4</ele>
        <time>2021-10-09T01:24:00</time>
      </trkpt>
      <trkpt lat="42.95472" lon="0.02075">
        <ele>1568.4</ele>
        <time>2021-10-09T01:24:01</time>
      </trkpt>
      <trkpt lat="42.95472" lon="0.02077">
        <ele>1568.4</ele>
        <time>2021-10-09T01:24:02</time>
      </trkpt>
      <trkpt lat="42.95473" lon="0.02078">
        <ele>1568.4</ele>
        <time>2021-10-09T01:24:03</time>
      </trkpt>
      <trkpt lat="42.95473" lon="0.02078">
        <ele>1568.4</ele>
        <time>2021-10-09T01:24:04</time>
      </trkpt>
      <trkpt lat="42.95473" lon="0.02078">
        <ele>1568.4</ele>
        <time>2021-10-09T01:24:05</time>
      </trkpt>
      <trkpt lat="42.95473" lon="0.02078">
        <ele>1568.6</ele>
        <time>2021-10-09T01:24:06</time>
      </trkpt>
      <trkpt lat="42.95473" lon="0.02078">
        <ele>1568.4</ele>
        <time>2021-10-09T01:24:07</time>
      </trkpt>
      <trkpt lat="42.95473" lon="0.02078">
        <ele>1568.6</ele>
        <time>2021-10-09T01:24:08</time>
      </trkpt>
      <trkpt lat="42.95473" lon="0.02078">
        <ele>1568.4</ele>
        <time>2021-10-09T01:24:09</time>
      </trkpt>
      <trkpt lat="42.95473" lon="0.02078">
        <ele>1568.6</ele>
        <time>2021-10-09T01:24:10</time>
      </trkpt>
      <trkpt lat="42.95488" lon="0.02091">
        <ele>1569.4</ele>
        <time>2021-10-09T01:24:36</time>
      </trkpt>
      <trkpt lat="42.95489" lon="0.0209">
        <ele>1569.4</ele>
        <time>2021-10-09T01:24:37</time>
      </trkpt>
      <trkpt lat="42.95489" lon="0.0209">
        <ele>1569.8</ele>
        <time>2021-10-09T01:24:38</time>
      </trkpt>
      <trkpt lat="42.9549" lon="0.02089">
        <ele>1569.8</ele>
        <time>2021-10-09T01:24:39</time>
      </trkpt>
      <trkpt lat="42.95491" lon="0.02089">
        <ele>1570.2</ele>
        <time>2021-10-09T01:24:40</time>
      </trkpt>
      <trkpt lat="42.95492" lon="0.02088">
        <ele>1570.2</ele>
        <time>2021-10-09T01:24:41</time>
      </trkpt>
      <trkpt lat="42.95493" lon="0.02087">
        <ele>1570</ele>
        <time>2021-10-09T01:24:42</time>
      </trkpt>
      <trkpt lat="42.95493" lon="0.02087">
        <ele>1570.6</ele>
        <time>2021-10-09T01:24:43</time>
      </trkpt>
      <trkpt lat="42.95494" lon="0.02087">
        <ele>1570.6</ele>
        <time>2021-10-09T01:24:44</time>
      </trkpt>
      <trkpt lat="42.95495" lon="0.02086">
        <ele>1570.8</ele>
        <time>2021-10-09T01:24:45</time>
      </trkpt>
      <trkpt lat="42.95496" lon="0.02086">
        <ele>1571</ele>
        <time>2021-10-09T01:24:46</time>
      </trkpt>
      <trkpt lat="42.95496" lon="0.02085">
        <ele>1571.2</ele>
        <time>2021-10-09T01:24:47</time>
      </trkpt>
      <trkpt lat="42.95497" lon="0.02085">
        <ele>1571.4</ele>
        <time>2021-10-09T01:24:48</time>
      </trkpt>
      <trkpt lat="42.95498" lon="0.02084">
        <ele>1571.4</ele>
        <time>2021-10-09T01:24:49</time>
      </trkpt>
      <trkpt lat="42.95499" lon="0.02084">
        <ele>1571.6</ele>
        <time>2021-10-09T01:24:50</time>
      </trkpt>
      <trkpt lat="42.955" lon="0.02083">
        <ele>1571.8</ele>
        <time>2021-10-09T01:24:51</time>
      </trkpt>
      <trkpt lat="42.955" lon="0.02083">
        <ele>1572</ele>
        <time>2021-10-09T01:24:52</time>
      </trkpt>
      <trkpt lat="42.95501" lon="0.02082">
        <ele>1572.2</ele>
        <time>2021-10-09T01:24:53</time>
      </trkpt>
      <trkpt lat="42.95502" lon="0.02082">
        <ele>1572.4</ele>
        <time>2021-10-09T01:24:54</time>
      </trkpt>
      <trkpt lat="42.95502" lon="0.02081">
        <ele>1572.4</ele>
        <time>2021-10-09T01:24:55</time>
      </trkpt>
      <trkpt lat="42.95503" lon="0.02081">
        <ele>1572.6</ele>
        <time>2021-10-09T01:24:56</time>
      </trkpt>
      <trkpt lat="42.95504" lon="0.0208">
        <ele>1573</ele>
        <time>2021-10-09T01:24:57</time>
      </trkpt>
      <trkpt lat="42.95504" lon="0.0208">
        <ele>1573.2</ele>
        <time>2021-10-09T01:24:58</time>
      </trkpt>
      <trkpt lat="42.95505" lon="0.02079">
        <ele>1573.4</ele>
        <time>2021-10-09T01:24:59</time>
      </trkpt>
      <trkpt lat="42.95506" lon="0.02078">
        <ele>1573.4</ele>
        <time>2021-10-09T01:25:00</time>
      </trkpt>
      <trkpt lat="42.95506" lon="0.02078">
        <ele>1573.6</ele>
        <time>2021-10-09T01:25:01</time>
      </trkpt>
      <trkpt lat="42.95507" lon="0.02077">
        <ele>1573.8</ele>
        <time>2021-10-09T01:25:02</time>
      </trkpt>
      <trkpt lat="42.95507" lon="0.02077">
        <ele>1574</ele>
        <time>2021-10-09T01:25:03</time>
      </trkpt>
      <trkpt lat="42.95508" lon="0.02076">
        <ele>1574.2</ele>
        <time>2021-10-09T01:25:04</time>
      </trkpt>
      <trkpt lat="42.95509" lon="0.02076">
        <ele>1574.4</ele>
        <time>2021-10-09T01:25:05</time>
      </trkpt>
      <trkpt lat="42.95509" lon="0.02076">
        <ele>1574.6</ele>
        <time>2021-10-09T01:25:06</time>
      </trkpt>
      <trkpt lat="42.9551" lon="0.02075">
        <ele>1574.8</ele>
        <time>2021-10-09T01:25:07</time>
      </trkpt>
      <trkpt lat="42.9551" lon="0.02075">
        <ele>1575</ele>
        <time>2021-10-09T01:25:08</time>
      </trkpt>
      <trkpt lat="42.95538" lon="0.02084">
        <ele>1578.6</ele>
        <time>2021-10-09T01:26:09</time>
      </trkpt>
      <trkpt lat="42.95538" lon="0.02084">
        <ele>1578.6</ele>
        <time>2021-10-09T01:26:10</time>
      </trkpt>
      <trkpt lat="42.95538" lon="0.02084">
        <ele>1578.6</ele>
        <time>2021-10-09T01:26:11</time>
      </trkpt>
      <trkpt lat="42.95538" lon="0.02084">
        <ele>1578.6</ele>
        <time>2021-10-09T01:26:12</time>
      </trkpt>
      <trkpt lat="42.95538" lon="0.02084">
        <ele>1578.6</ele>
        <time>2021-10-09T01:26:13</time>
      </trkpt>
      <trkpt lat="42.95562" lon="0.02063">
        <ele>1575.2</ele>
        <time>2021-10-09T01:26:31</time>
      </trkpt>
      <trkpt lat="42.95564" lon="0.02058">
        <ele>1574.8</ele>
        <time>2021-10-09T01:26:32</time>
      </trkpt>
      <trkpt lat="42.95566" lon="0.02053">
        <ele>1574</ele>
        <time>2021-10-09T01:26:33</time>
      </trkpt>
      <trkpt lat="42.95567" lon="0.02046">
        <ele>1573.6</ele>
        <time>2021-10-09T01:26:34</time>
      </trkpt>
      <trkpt lat="42.95568" lon="0.02038">
        <ele>1572.6</ele>
        <time>2021-10-09T01:26:35</time>
      </trkpt>
      <trkpt lat="42.95569" lon="0.0203">
        <ele>1571.4</ele>
        <time>2021-10-09T01:26:36</time>
      </trkpt>
      <trkpt lat="42.95571" lon="0.02023">
        <ele>1570.8</ele>
        <time>2021-10-09T01:26:37</time>
      </trkpt>
      <trkpt lat="42.95574" lon="0.02017">
        <ele>1570.8</ele>
        <time>2021-10-09T01:26:38</time>
      </trkpt>
      <trkpt lat="42.95577" lon="0.02013">
        <ele>1569.4</ele>
        <time>2021-10-09T01:26:39</time>
      </trkpt>
      <trkpt lat="42.9558" lon="0.02009">
        <ele>1568.6</ele>
        <time>2021-10-09T01:26:40</time>
      </trkpt>
      <trkpt lat="42.95582" lon="0.02004">
        <ele>1567.2</ele>
        <time>2021-10-09T01:26:41</time>
      </trkpt>
      <trkpt lat="42.95584" lon="0.01997">
        <ele>1566.4</ele>
        <time>2021-10-09T01:26:42</time>
      </trkpt>
      <trkpt lat="42.95585" lon="0.0199">
        <ele>1565.4</ele>
        <time>2021-10-09T01:26:43</time>
      </trkpt>
      <trkpt lat="42.95587" lon="0.01982">
        <ele>1564.8</ele>
        <time>2021-10-09T01:26:44</time>
      </trkpt>
      <trkpt lat="42.95588" lon="0.01974">
        <ele>1564</ele>
        <time>2021-10-09T01:26:45</time>
      </trkpt>
      <trkpt lat="42.95588" lon="0.01965">
        <ele>1563.4</ele>
        <time>2021-10-09T01:26:46</time>
      </trkpt>
      <trkpt lat="42.9559" lon="0.01956">
        <ele>1562.6</ele>
        <time>2021-10-09T01:26:47</time>
      </trkpt>
      <trkpt lat="42.95592" lon="0.01947">
        <ele>1562.2</ele>
        <time>2021-10-09T01:26:48</time>
      </trkpt>
      <trkpt lat="42.95594" lon="0.01938">
        <ele>1561.8</ele>
        <time>2021-10-09T01:26:49</time>
      </trkpt>
      <trkpt lat="42.95596" lon="0.01932">
        <ele>1562</ele>
        <time>2021-10-09T01:26:50</time>
      </trkpt>
      <trkpt lat="42.95599" lon="0.01929">
        <ele>1561.8</ele>
        <time>2021-10-09T01:26:51</time>
      </trkpt>
      <trkpt lat="42.95601" lon="0.01926">
        <ele>1561.4</ele>
        <time>2021-10-09T01:26:52</time>
      </trkpt>
      <trkpt lat="42.95602" lon="0.01925">
        <ele>1561.2</ele>
        <time>2021-10-09T01:26:53</time>
      </trkpt>
      <trkpt lat="42.95603" lon="0.01925">
        <ele>1560.8</ele>
        <time>2021-10-09T01:26:54</time>
      </trkpt>
      <trkpt lat="42.95605" lon="0.01926">
        <ele>1561</ele>
        <time>2021-10-09T01:26:55</time>
      </trkpt>
      <trkpt lat="42.95606" lon="0.01928">
        <ele>1561</ele>
        <time>2021-10-09T01:26:56</time>
      </trkpt>
      <trkpt lat="42.95608" lon="0.01931">
        <ele>1560.8</ele>
        <time>2021-10-09T01:26:57</time>
      </trkpt>
      <trkpt lat="42.95611" lon="0.01934">
        <ele>1560.6</ele>
        <time>2021-10-09T01:26:58</time>
      </trkpt>
      <trkpt lat="42.95615" lon="0.01937">
        <ele>1560.2</ele>
        <time>2021-10-09T01:26:59</time>
      </trkpt>
      <trkpt lat="42.95619" lon="0.01941">
        <ele>1559.4</ele>
        <time>2021-10-09T01:27:00</time>
      </trkpt>
      <trkpt lat="42.95623" lon="0.01944">
        <ele>1558.6</ele>
        <time>2021-10-09T01:27:01</time>
      </trkpt>
      <trkpt lat="42.95628" lon="0.01946">
        <ele>1557.6</ele>
        <time>2021-10-09T01:27:02</time>
      </trkpt>
      <trkpt lat="42.95633" lon="0.01947">
        <ele>1556.2</ele>
        <time>2021-10-09T01:27:03</time>
      </trkpt>
      <trkpt lat="42.95638" lon="0.01947">
        <ele>1555</ele>
        <time>2021-10-09T01:27:04</time>
      </trkpt>
      <trkpt lat="42.95643" lon="0.01947">
        <ele>1553.4</ele>
        <time>2021-10-09T01:27:05</time>
      </trkpt>
      <trkpt lat="42.9565" lon="0.01948">
        <ele>1552.2</ele>
        <time>2021-10-09T01:27:06</time>
      </trkpt>
      <trkpt lat="42.95658" lon="0.01949">
        <ele>1550.6</ele>
        <time>2021-10-09T01:27:07</time>
      </trkpt>
      <trkpt lat="42.95666" lon="0.0195">
        <ele>1549.2</ele>
        <time>2021-10-09T01:27:08</time>
      </trkpt>
      <trkpt lat="42.95674" lon="0.01951">
        <ele>1547.6</ele>
        <time>2021-10-09T01:27:09</time>
      </trkpt>
      <trkpt lat="42.95681" lon="0.01951">
        <ele>1546.8</ele>
        <time>2021-10-09T01:27:10</time>
      </trkpt>
      <trkpt lat="42.95688" lon="0.0195">
        <ele>1546</ele>
        <time>2021-10-09T01:27:11</time>
      </trkpt>
      <trkpt lat="42.95691" lon="0.01949">
        <ele>1545.2</ele>
        <time>2021-10-09T01:27:12</time>
      </trkpt>
      <trkpt lat="42.95693" lon="0.01948">
        <ele>1544.8</ele>
        <time>2021-10-09T01:27:13</time>
      </trkpt>
      <trkpt lat="42.95695" lon="0.01948">
        <ele>1544.6</ele>
        <time>2021-10-09T01:27:14</time>
      </trkpt>
      <trkpt lat="42.95696" lon="0.0195">
        <ele>1544.6</ele>
        <time>2021-10-09T01:27:15</time>
      </trkpt>
      <trkpt lat="42.95695" lon="0.01952">
        <ele>1544.6</ele>
        <time>2021-10-09T01:27:16</time>
      </trkpt>
      <trkpt lat="42.95693" lon="0.01952">
        <ele>1544.8</ele>
        <time>2021-10-09T01:27:17</time>
      </trkpt>
      <trkpt lat="42.95691" lon="0.01952">
        <ele>1545</ele>
        <time>2021-10-09T01:27:18</time>
      </trkpt>
      <trkpt lat="42.9569" lon="0.01952">
        <ele>1545</ele>
        <time>2021-10-09T01:27:19</time>
      </trkpt>
      <trkpt lat="42.95688" lon="0.01952">
        <ele>1544.8</ele>
        <time>2021-10-09T01:27:20</time>
      </trkpt>
      <trkpt lat="42.95685" lon="0.01952">
        <ele>1544.8</ele>
        <time>2021-10-09T01:27:21</time>
      </trkpt>
      <trkpt lat="42.95681" lon="0.01952">
        <ele>1545</ele>
        <time>2021-10-09T01:27:22</time>
      </trkpt>
      <trkpt lat="42.95678" lon="0.01952">
        <ele>1545.2</ele>
        <time>2021-10-09T01:27:23</time>
      </trkpt>
      <trkpt lat="42.95675" lon="0.01952">
        <ele>1545.4</ele>
        <time>2021-10-09T01:27:24</time>
      </trkpt>
      <trkpt lat="42.95672" lon="0.01952">
        <ele>1545.6</ele>
        <time>2021-10-09T01:27:25</time>
      </trkpt>
      <trkpt lat="42.95669" lon="0.01952">
        <ele>1546.4</ele>
        <time>2021-10-09T01:27:26</time>
      </trkpt>
      <trkpt lat="42.95666" lon="0.01951">
        <ele>1547</ele>
        <time>2021-10-09T01:27:27</time>
      </trkpt>
      <trkpt lat="42.95663" lon="0.01951">
        <ele>1547.4</ele>
        <time>2021-10-09T01:27:28</time>
      </trkpt>
      <trkpt lat="42.95661" lon="0.0195">
        <ele>1548</ele>
        <time>2021-10-09T01:27:29</time>
      </trkpt>
      <trkpt lat="42.95659" lon="0.01949">
        <ele>1548.4</ele>
        <time>2021-10-09T01:27:30</time>
      </trkpt>
      <trkpt lat="42.95656" lon="0.01948">
        <ele>1549</ele>
        <time>2021-10-09T01:27:31</time>
      </trkpt>
      <trkpt lat="42.95654" lon="0.01948">
        <ele>1549.4</ele>
        <time>2021-10-09T01:27:32</time>
      </trkpt>
      <trkpt lat="42.95651" lon="0.01947">
        <ele>1550</ele>
        <time>2021-10-09T01:27:33</time>
      </trkpt>
      <trkpt lat="42.95648" lon="0.01947">
        <ele>1550.6</ele>
        <time>2021-10-09T01:27:34</time>
      </trkpt>
      <trkpt lat="42.95646" lon="0.01947">
        <ele>1551.2</ele>
        <time>2021-10-09T01:27:35</time>
      </trkpt>
      <trkpt lat="42.95643" lon="0.01946">
        <ele>1552</ele>
        <time>2021-10-09T01:27:36</time>
      </trkpt>
      <trkpt lat="42.95641" lon="0.01946">
        <ele>1552.4</ele>
        <time>2021-10-09T01:27:37</time>
      </trkpt>
      <trkpt lat="42.95639" lon="0.01945">
        <ele>1553.2</ele>
        <time>2021-10-09T01:27:38</time>
      </trkpt>
      <trkpt lat="42.95637" lon="0.01946">
        <ele>1553.8</ele>
        <time>2021-10-09T01:27:39</time>
      </trkpt>
      <trkpt lat="42.95635" lon="0.01946">
        <ele>1554.4</ele>
        <time>2021-10-09T01:27:40</time>
      </trkpt>
      <trkpt lat="42.95633" lon="0.01945">
        <ele>1555.2</ele>
        <time>2021-10-09T01:27:41</time>
      </trkpt>
      <trkpt lat="42.95631" lon="0.01945">
        <ele>1555.8</ele>
        <time>2021-10-09T01:27:42</time>
      </trkpt>
      <trkpt lat="42.95629" lon="0.01945">
        <ele>1556.4</ele>
        <time>2021-10-09T01:27:43</time>
      </trkpt>
      <trkpt lat="42.95628" lon="0.01944">
        <ele>1557</ele>
        <time>2021-10-09T01:27:44</time>
      </trkpt>
      <trkpt lat="42.95626" lon="0.01943">
        <ele>1557.4</ele>
        <time>2021-10-09T01:27:45</time>
      </trkpt>
      <trkpt lat="42.95624" lon="0.01942">
        <ele>1557.8</ele>
        <time>2021-10-09T01:27:46</time>
      </trkpt>
      <trkpt lat="42.95624" lon="0.0194">
        <ele>1557.8</ele>
        <time>2021-10-09T01:27:47</time>
      </trkpt>
      <trkpt lat="42.95624" lon="0.01937">
        <ele>1558</ele>
        <time>2021-10-09T01:27:48</time>
      </trkpt>
      <trkpt lat="42.95624" lon="0.01934">
        <ele>1558</ele>
        <time>2021-10-09T01:27:49</time>
      </trkpt>
      <trkpt lat="42.95623" lon="0.01931">
        <ele>1557.8</ele>
        <time>2021-10-09T01:27:50</time>
      </trkpt>
      <trkpt lat="42.95623" lon="0.01927">
        <ele>1557.8</ele>
        <time>2021-10-09T01:27:51</time>
      </trkpt>
      <trkpt lat="42.95624" lon="0.01922">
        <ele>1557.4</ele>
        <time>2021-10-09T01:27:52</time>
      </trkpt>
      <trkpt lat="42.95625" lon="0.01916">
        <ele>1557.2</ele>
        <time>2021-10-09T01:27:53</time>
      </trkpt>
      <trkpt lat="42.95626" lon="0.0191">
        <ele>1556.8</ele>
        <time>2021-10-09T01:27:54</time>
      </trkpt>
      <trkpt lat="42.95626" lon="0.01904">
        <ele>1557</ele>
        <time>2021-10-09T01:27:55</time>
      </trkpt>
      <trkpt lat="42.95627" lon="0.01898">
        <ele>1556.8</ele>
        <time>2021-10-09T01:27:56</time>
      </trkpt>
      <trkpt lat="42.95627" lon="0.01893">
        <ele>1556.6</ele>
        <time>2021-10-09T01:27:57</time>
      </trkpt>
      <trkpt lat="42.95628" lon="0.01888">
        <ele>1556.2</ele>
        <time>2021-10-09T01:27:58</time>
      </trkpt>
      <trkpt lat="42.95629" lon="0.01882">
        <ele>1555.6</ele>
        <time>2021-10-09T01:27:59</time>
      </trkpt>
      <trkpt lat="42.9563" lon="0.01875">
        <ele>1555.2</ele>
        <time>2021-10-09T01:28:00</time>
      </trkpt>
      <trkpt lat="42.95629" lon="0.01869">
        <ele>1555.2</ele>
        <time>2021-10-09T01:28:01</time>
      </trkpt>
      <trkpt lat="42.95629" lon="0.01862">
        <ele>1554.2</ele>
        <time>2021-10-09T01:28:02</time>
      </trkpt>
      <trkpt lat="42.95629" lon="0.01854">
        <ele>1554</ele>
        <time>2021-10-09T01:28:03</time>
      </trkpt>
      <trkpt lat="42.95628" lon="0.01847">
        <ele>1553</ele>
        <time>2021-10-09T01:28:04</time>
      </trkpt>
      <trkpt lat="42.95628" lon="0.01843">
        <ele>1552.2</ele>
        <time>2021-10-09T01:28:05</time>
      </trkpt>
      <trkpt lat="42.95627" lon="0.01841">
        <ele>1551.8</ele>
        <time>2021-10-09T01:28:06</time>
      </trkpt>
      <trkpt lat="42.95625" lon="0.0184">
        <ele>1551.2</ele>
        <time>2021-10-09T01:28:07</time>
      </trkpt>
      <trkpt lat="42.95625" lon="0.01838">
        <ele>1550.6</ele>
        <time>2021-10-09T01:28:08</time>
      </trkpt>
      <trkpt lat="42.95624" lon="0.01835">
        <ele>1550.4</ele>
        <time>2021-10-09T01:28:09</time>
      </trkpt>
      <trkpt lat="42.95624" lon="0.01833">
        <ele>1550</ele>
        <time>2021-10-09T01:28:10</time>
      </trkpt>
      <trkpt lat="42.95623" lon="0.01831">
        <ele>1549</ele>
        <time>2021-10-09T01:28:11</time>
      </trkpt>
      <trkpt lat="42.95623" lon="0.01828">
        <ele>1548.6</ele>
        <time>2021-10-09T01:28:12</time>
      </trkpt>
      <trkpt lat="42.95624" lon="0.01826">
        <ele>1547.8</ele>
        <time>2021-10-09T01:28:13</time>
      </trkpt>
      <trkpt lat="42.95625" lon="0.01824">
        <ele>1547.4</ele>
        <time>2021-10-09T01:28:14</time>
      </trkpt>
      <trkpt lat="42.95625" lon="0.01822">
        <ele>1547</ele>
        <time>2021-10-09T01:28:15</time>
      </trkpt>
      <trkpt lat="42.95625" lon="0.01821">
        <ele>1546.8</ele>
        <time>2021-10-09T01:28:16</time>
      </trkpt>
      <trkpt lat="42.95625" lon="0.01821">
        <ele>1546.8</ele>
        <time>2021-10-09T01:28:17</time>
      </trkpt>
      <trkpt lat="42.95624" lon="0.0182">
        <ele>1546.6</ele>
        <time>2021-10-09T01:28:18</time>
      </trkpt>
      <trkpt lat="42.95624" lon="0.0182">
        <ele>1546.6</ele>
        <time>2021-10-09T01:28:19</time>
      </trkpt>
      <trkpt lat="42.95624" lon="0.0182">
        <ele>1546.6</ele>
        <time>2021-10-09T01:28:20</time>
      </trkpt>
      <trkpt lat="42.95624" lon="0.01819">
        <ele>1546.6</ele>
        <time>2021-10-09T01:28:21</time>
      </trkpt>
      <trkpt lat="42.95624" lon="0.01819">
        <ele>1546.6</ele>
        <time>2021-10-09T01:28:22</time>
      </trkpt>
      <trkpt lat="42.95624" lon="0.01819">
        <ele>1546.6</ele>
        <time>2021-10-09T01:28:23</time>
      </trkpt>
      <trkpt lat="42.95644" lon="0.01766">
        <ele>1551</ele>
        <time>2021-10-09T01:31:23</time>
      </trkpt>
      <trkpt lat="42.95645" lon="0.01764">
        <ele>1550.8</ele>
        <time>2021-10-09T01:31:24</time>
      </trkpt>
      <trkpt lat="42.95645" lon="0.0176">
        <ele>1550.4</ele>
        <time>2021-10-09T01:31:25</time>
      </trkpt>
      <trkpt lat="42.95646" lon="0.01757">
        <ele>1550.2</ele>
        <time>2021-10-09T01:31:26</time>
      </trkpt>
      <trkpt lat="42.95647" lon="0.01754">
        <ele>1550</ele>
        <time>2021-10-09T01:31:27</time>
      </trkpt>
      <trkpt lat="42.95647" lon="0.01751">
        <ele>1550</ele>
        <time>2021-10-09T01:31:28</time>
      </trkpt>
      <trkpt lat="42.95646" lon="0.01747">
        <ele>1549.8</ele>
        <time>2021-10-09T01:31:29</time>
      </trkpt>
      <trkpt lat="42.95646" lon="0.01743">
        <ele>1549.6</ele>
        <time>2021-10-09T01:31:30</time>
      </trkpt>
      <trkpt lat="42.95647" lon="0.0174">
        <ele>1549.4</ele>
        <time>2021-10-09T01:31:31</time>
      </trkpt>
      <trkpt lat="42.95648" lon="0.01737">
        <ele>1549.4</ele>
        <time>2021-10-09T01:31:32</time>
      </trkpt>
      <trkpt lat="42.95648" lon="0.01733">
        <ele>1549.2</ele>
        <time>2021-10-09T01:31:33</time>
      </trkpt>
      <trkpt lat="42.95648" lon="0.01728">
        <ele>1549.2</ele>
        <time>2021-10-09T01:31:34</time>
      </trkpt>
      <trkpt lat="42.95648" lon="0.01724">
        <ele>1549.2</ele>
        <time>2021-10-09T01:31:35</time>
      </trkpt>
      <trkpt lat="42.95647" lon="0.01721">
        <ele>1549</ele>
        <time>2021-10-09T01:31:36</time>
      </trkpt>
      <trkpt lat="42.95648" lon="0.01719">
        <ele>1548.4</ele>
        <time>2021-10-09T01:31:37</time>
      </trkpt>
      <trkpt lat="42.95649" lon="0.01717">
        <ele>1547.8</ele>
        <time>2021-10-09T01:31:38</time>
      </trkpt>
      <trkpt lat="42.95649" lon="0.0171">
        <ele>1547.2</ele>
        <time>2021-10-09T01:31:39</time>
      </trkpt>
      <trkpt lat="42.95648" lon="0.01703">
        <ele>1547</ele>
        <time>2021-10-09T01:31:40</time>
      </trkpt>
      <trkpt lat="42.95646" lon="0.01696">
        <ele>1547</ele>
        <time>2021-10-09T01:31:41</time>
      </trkpt>
      <trkpt lat="42.95646" lon="0.0169">
        <ele>1546.6</ele>
        <time>2021-10-09T01:31:42</time>
      </trkpt>
      <trkpt lat="42.95647" lon="0.01685">
        <ele>1545.8</ele>
        <time>2021-10-09T01:31:43</time>
      </trkpt>
      <trkpt lat="42.95647" lon="0.01678">
        <ele>1544.8</ele>
        <time>2021-10-09T01:31:44</time>
      </trkpt>
      <trkpt lat="42.95648" lon="0.01673">
        <ele>1544</ele>
        <time>2021-10-09T01:31:45</time>
      </trkpt>
      <trkpt lat="42.95648" lon="0.01668">
        <ele>1543</ele>
        <time>2021-10-09T01:31:46</time>
      </trkpt>
      <trkpt lat="42.95648" lon="0.01661">
        <ele>1542</ele>
        <time>2021-10-09T01:31:47</time>
      </trkpt>
      <trkpt lat="42.95648" lon="0.01653">
        <ele>1541.2</ele>
        <time>2021-10-09T01:31:48</time>
      </trkpt>
      <trkpt lat="42.95646" lon="0.01645">
        <ele>1540.6</ele>
        <time>2021-10-09T01:31:49</time>
      </trkpt>
      <trkpt lat="42.95646" lon="0.01637">
        <ele>1540</ele>
        <time>2021-10-09T01:31:50</time>
      </trkpt>
      <trkpt lat="42.95648" lon="0.0163">
        <ele>1539.4</ele>
        <time>2021-10-09T01:31:51</time>
      </trkpt>
      <trkpt lat="42.95651" lon="0.01623">
        <ele>1538.8</ele>
        <time>2021-10-09T01:31:52</time>
      </trkpt>
      <trkpt lat="42.95652" lon="0.01616">
        <ele>1538.4</ele>
        <time>2021-10-09T01:31:53</time>
      </trkpt>
      <trkpt lat="42.95653" lon="0.0161">
        <ele>1537.8</ele>
        <time>2021-10-09T01:31:54</time>
      </trkpt>
      <trkpt lat="42.95654" lon="0.01607">
        <ele>1537.4</ele>
        <time>2021-10-09T01:31:55</time>
      </trkpt>
      <trkpt lat="42.95655" lon="0.01603">
        <ele>1537.2</ele>
        <time>2021-10-09T01:31:56</time>
      </trkpt>
      <trkpt lat="42.95655" lon="0.016">
        <ele>1537</ele>
        <time>2021-10-09T01:31:57</time>
      </trkpt>
      <trkpt lat="42.95655" lon="0.01595">
        <ele>1536.8</ele>
        <time>2021-10-09T01:31:58</time>
      </trkpt>
      <trkpt lat="42.95655" lon="0.01592">
        <ele>1536.6</ele>
        <time>2021-10-09T01:31:59</time>
      </trkpt>
      <trkpt lat="42.95656" lon="0.01586">
        <ele>1536.6</ele>
        <time>2021-10-09T01:32:00</time>
      </trkpt>
      <trkpt lat="42.95656" lon="0.01581">
        <ele>1536.6</ele>
        <time>2021-10-09T01:32:01</time>
      </trkpt>
      <trkpt lat="42.95656" lon="0.01577">
        <ele>1536.8</ele>
        <time>2021-10-09T01:32:02</time>
      </trkpt>
      <trkpt lat="42.95656" lon="0.01575">
        <ele>1536.4</ele>
        <time>2021-10-09T01:32:03</time>
      </trkpt>
      <trkpt lat="42.95658" lon="0.01573">
        <ele>1536.2</ele>
        <time>2021-10-09T01:32:04</time>
      </trkpt>
      <trkpt lat="42.9566" lon="0.01569">
        <ele>1536</ele>
        <time>2021-10-09T01:32:05</time>
      </trkpt>
      <trkpt lat="42.95662" lon="0.01564">
        <ele>1536</ele>
        <time>2021-10-09T01:32:06</time>
      </trkpt>
      <trkpt lat="42.95664" lon="0.0156">
        <ele>1535.8</ele>
        <time>2021-10-09T01:32:07</time>
      </trkpt>
      <trkpt lat="42.95665" lon="0.01556">
        <ele>1535.6</ele>
        <time>2021-10-09T01:32:08</time>
      </trkpt>
      <trkpt lat="42.95666" lon="0.01552">
        <ele>1535.6</ele>
        <time>2021-10-09T01:32:09</time>
      </trkpt>
      <trkpt lat="42.95668" lon="0.01548">
        <ele>1535.6</ele>
        <time>2021-10-09T01:32:10</time>
      </trkpt>
      <trkpt lat="42.9567" lon="0.01543">
        <ele>1535.6</ele>
        <time>2021-10-09T01:32:11</time>
      </trkpt>
      <trkpt lat="42.95671" lon="0.0154">
        <ele>1535.2</ele>
        <time>2021-10-09T01:32:12</time>
      </trkpt>
      <trkpt lat="42.95671" lon="0.01537">
        <ele>1534.8</ele>
        <time>2021-10-09T01:32:13</time>
      </trkpt>
      <trkpt lat="42.95674" lon="0.01536">
        <ele>1534.4</ele>
        <time>2021-10-09T01:32:14</time>
      </trkpt>
      <trkpt lat="42.95676" lon="0.01533">
        <ele>1533.6</ele>
        <time>2021-10-09T01:32:15</time>
      </trkpt>
      <trkpt lat="42.95677" lon="0.01531">
        <ele>1533.2</ele>
        <time>2021-10-09T01:32:16</time>
      </trkpt>
      <trkpt lat="42.95677" lon="0.01529">
        <ele>1533</ele>
        <time>2021-10-09T01:32:17</time>
      </trkpt>
      <trkpt lat="42.95677" lon="0.01527">
        <ele>1532.8</ele>
        <time>2021-10-09T01:32:18</time>
      </trkpt>
      <trkpt lat="42.95679" lon="0.01525">
        <ele>1532.6</ele>
        <time>2021-10-09T01:32:19</time>
      </trkpt>
      <trkpt lat="42.95679" lon="0.01522">
        <ele>1532.6</ele>
        <time>2021-10-09T01:32:20</time>
      </trkpt>
      <trkpt lat="42.9568" lon="0.0152">
        <ele>1532.4</ele>
        <time>2021-10-09T01:32:21</time>
      </trkpt>
      <trkpt lat="42.9568" lon="0.01518">
        <ele>1532</ele>
        <time>2021-10-09T01:32:22</time>
      </trkpt>
      <trkpt lat="42.95681" lon="0.01514">
        <ele>1531.8</ele>
        <time>2021-10-09T01:32:23</time>
      </trkpt>
      <trkpt lat="42.95684" lon="0.01509">
        <ele>1531.4</ele>
        <time>2021-10-09T01:32:24</time>
      </trkpt>
      <trkpt lat="42.95686" lon="0.01504">
        <ele>1530.8</ele>
        <time>2021-10-09T01:32:25</time>
      </trkpt>
      <trkpt lat="42.95689" lon="0.01499">
        <ele>1530.6</ele>
        <time>2021-10-09T01:32:26</time>
      </trkpt>
      <trkpt lat="42.95691" lon="0.01493">
        <ele>1530.4</ele>
        <time>2021-10-09T01:32:27</time>
      </trkpt>
      <trkpt lat="42.95694" lon="0.01486">
        <ele>1530</ele>
        <time>2021-10-09T01:32:28</time>
      </trkpt>
      <trkpt lat="42.95695" lon="0.0148">
        <ele>1530</ele>
        <time>2021-10-09T01:32:29</time>
      </trkpt>
      <trkpt lat="42.95696" lon="0.01474">
        <ele>1529.8</ele>
        <time>2021-10-09T01:32:30</time>
      </trkpt>
      <trkpt lat="42.95699" lon="0.01466">
        <ele>1529.6</ele>
        <time>2021-10-09T01:32:31</time>
      </trkpt>
      <trkpt lat="42.95703" lon="0.01458">
        <ele>1529.4</ele>
        <time>2021-10-09T01:32:32</time>
      </trkpt>
      <trkpt lat="42.95708" lon="0.01449">
        <ele>1529.4</ele>
        <time>2021-10-09T01:32:33</time>
      </trkpt>
      <trkpt lat="42.95711" lon="0.01441">
        <ele>1529.2</ele>
        <time>2021-10-09T01:32:34</time>
      </trkpt>
      <trkpt lat="42.95713" lon="0.01431">
        <ele>1529.2</ele>
        <time>2021-10-09T01:32:35</time>
      </trkpt>
      <trkpt lat="42.95715" lon="0.01421">
        <ele>1529.2</ele>
        <time>2021-10-09T01:32:36</time>
      </trkpt>
      <trkpt lat="42.95717" lon="0.01414">
        <ele>1529.2</ele>
        <time>2021-10-09T01:32:37</time>
      </trkpt>
      <trkpt lat="42.9572" lon="0.01408">
        <ele>1529.2</ele>
        <time>2021-10-09T01:32:38</time>
      </trkpt>
      <trkpt lat="42.9572" lon="0.01401">
        <ele>1529.4</ele>
        <time>2021-10-09T01:32:39</time>
      </trkpt>
      <trkpt lat="42.9572" lon="0.01395">
        <ele>1529.4</ele>
        <time>2021-10-09T01:32:40</time>
      </trkpt>
      <trkpt lat="42.9572" lon="0.01388">
        <ele>1529.6</ele>
        <time>2021-10-09T01:32:41</time>
      </trkpt>
      <trkpt lat="42.95721" lon="0.01382">
        <ele>1529.8</ele>
        <time>2021-10-09T01:32:42</time>
      </trkpt>
      <trkpt lat="42.95723" lon="0.01376">
        <ele>1529.4</ele>
        <time>2021-10-09T01:32:43</time>
      </trkpt>
      <trkpt lat="42.95724" lon="0.01371">
        <ele>1529.2</ele>
        <time>2021-10-09T01:32:44</time>
      </trkpt>
      <trkpt lat="42.95725" lon="0.01365">
        <ele>1529</ele>
        <time>2021-10-09T01:32:45</time>
      </trkpt>
      <trkpt lat="42.95727" lon="0.01359">
        <ele>1528.8</ele>
        <time>2021-10-09T01:32:46</time>
      </trkpt>
      <trkpt lat="42.9573" lon="0.01356">
        <ele>1528.6</ele>
        <time>2021-10-09T01:32:47</time>
      </trkpt>
      <trkpt lat="42.95732" lon="0.01352">
        <ele>1528.4</ele>
        <time>2021-10-09T01:32:48</time>
      </trkpt>
      <trkpt lat="42.95734" lon="0.01348">
        <ele>1528.6</ele>
        <time>2021-10-09T01:32:49</time>
      </trkpt>
      <trkpt lat="42.95736" lon="0.01343">
        <ele>1528.4</ele>
        <time>2021-10-09T01:32:50</time>
      </trkpt>
      <trkpt lat="42.95739" lon="0.0134">
        <ele>1528</ele>
        <time>2021-10-09T01:32:51</time>
      </trkpt>
      <trkpt lat="42.9574" lon="0.01337">
        <ele>1528</ele>
        <time>2021-10-09T01:32:52</time>
      </trkpt>
      <trkpt lat="42.95742" lon="0.01335">
        <ele>1527.6</ele>
        <time>2021-10-09T01:32:53</time>
      </trkpt>
      <trkpt lat="42.95743" lon="0.01333">
        <ele>1527.4</ele>
        <time>2021-10-09T01:32:54</time>
      </trkpt>
      <trkpt lat="42.95743" lon="0.01331">
        <ele>1527</ele>
        <time>2021-10-09T01:32:55</time>
      </trkpt>
      <trkpt lat="42.95744" lon="0.01327">
        <ele>1526.8</ele>
        <time>2021-10-09T01:32:56</time>
      </trkpt>
      <trkpt lat="42.95744" lon="0.01323">
        <ele>1526.8</ele>
        <time>2021-10-09T01:32:57</time>
      </trkpt>
      <trkpt lat="42.95745" lon="0.01319">
        <ele>1526.6</ele>
        <time>2021-10-09T01:32:58</time>
      </trkpt>
      <trkpt lat="42.95747" lon="0.01314">
        <ele>1526.4</ele>
        <time>2021-10-09T01:32:59</time>
      </trkpt>
      <trkpt lat="42.95749" lon="0.0131">
        <ele>1526.2</ele>
        <time>2021-10-09T01:33:00</time>
      </trkpt>
      <trkpt lat="42.95751" lon="0.01305">
        <ele>1526</ele>
        <time>2021-10-09T01:33:01</time>
      </trkpt>
      <trkpt lat="42.95751" lon="0.01299">
        <ele>1525.6</ele>
        <time>2021-10-09T01:33:02</time>
      </trkpt>
      <trkpt lat="42.95754" lon="0.01293">
        <ele>1525</ele>
        <time>2021-10-09T01:33:03</time>
      </trkpt>
      <trkpt lat="42.95756" lon="0.01286">
        <ele>1524.6</ele>
        <time>2021-10-09T01:33:04</time>
      </trkpt>
      <trkpt lat="42.95759" lon="0.01278">
        <ele>1524.2</ele>
        <time>2021-10-09T01:33:05</time>
      </trkpt>
      <trkpt lat="42.9576" lon="0.01272">
        <ele>1524.4</ele>
        <time>2021-10-09T01:33:06</time>
      </trkpt>
      <trkpt lat="42.95761" lon="0.01268">
        <ele>1524.2</ele>
        <time>2021-10-09T01:33:07</time>
      </trkpt>
      <trkpt lat="42.95762" lon="0.01264">
        <ele>1523.8</ele>
        <time>2021-10-09T01:33:08</time>
      </trkpt>
      <trkpt lat="42.95765" lon="0.0126">
        <ele>1523.2</ele>
        <time>2021-10-09T01:33:09</time>
      </trkpt>
      <trkpt lat="42.95766" lon="0.01257">
        <ele>1522.6</ele>
        <time>2021-10-09T01:33:10</time>
      </trkpt>
      <trkpt lat="42.95768" lon="0.01252">
        <ele>1521.8</ele>
        <time>2021-10-09T01:33:11</time>
      </trkpt>
      <trkpt lat="42.95769" lon="0.01247">
        <ele>1521</ele>
        <time>2021-10-09T01:33:12</time>
      </trkpt>
      <trkpt lat="42.95772" lon="0.01242">
        <ele>1520.2</ele>
        <time>2021-10-09T01:33:13</time>
      </trkpt>
      <trkpt lat="42.95776" lon="0.01238">
        <ele>1519</ele>
        <time>2021-10-09T01:33:14</time>
      </trkpt>
      <trkpt lat="42.95781" lon="0.01236">
        <ele>1518</ele>
        <time>2021-10-09T01:33:15</time>
      </trkpt>
      <trkpt lat="42.95785" lon="0.01233">
        <ele>1516.4</ele>
        <time>2021-10-09T01:33:16</time>
      </trkpt>
      <trkpt lat="42.95789" lon="0.01229">
        <ele>1514.6</ele>
        <time>2021-10-09T01:33:17</time>
      </trkpt>
      <trkpt lat="42.95794" lon="0.01224">
        <ele>1513.2</ele>
        <time>2021-10-09T01:33:18</time>
      </trkpt>
      <trkpt lat="42.95798" lon="0.01221">
        <ele>1512</ele>
        <time>2021-10-09T01:33:19</time>
      </trkpt>
      <trkpt lat="42.95802" lon="0.01217">
        <ele>1510.8</ele>
        <time>2021-10-09T01:33:20</time>
      </trkpt>
      <trkpt lat="42.95805" lon="0.01215">
        <ele>1509.2</ele>
        <time>2021-10-09T01:33:21</time>
      </trkpt>
      <trkpt lat="42.95808" lon="0.0121">
        <ele>1508.4</ele>
        <time>2021-10-09T01:33:22</time>
      </trkpt>
      <trkpt lat="42.9581" lon="0.01208">
        <ele>1508.2</ele>
        <time>2021-10-09T01:33:23</time>
      </trkpt>
      <trkpt lat="42.9581" lon="0.01206">
        <ele>1508.8</ele>
        <time>2021-10-09T01:33:24</time>
      </trkpt>
      <trkpt lat="42.95811" lon="0.01203">
        <ele>1509.2</ele>
        <time>2021-10-09T01:33:25</time>
      </trkpt>
      <trkpt lat="42.95812" lon="0.012">
        <ele>1509.6</ele>
        <time>2021-10-09T01:33:26</time>
      </trkpt>
      <trkpt lat="42.95814" lon="0.012">
        <ele>1509.8</ele>
        <time>2021-10-09T01:33:27</time>
      </trkpt>
      <trkpt lat="42.95815" lon="0.01198">
        <ele>1510.2</ele>
        <time>2021-10-09T01:33:28</time>
      </trkpt>
      <trkpt lat="42.95815" lon="0.01195">
        <ele>1510.2</ele>
        <time>2021-10-09T01:33:29</time>
      </trkpt>
      <trkpt lat="42.95816" lon="0.01191">
        <ele>1510.6</ele>
        <time>2021-10-09T01:33:30</time>
      </trkpt>
      <trkpt lat="42.95816" lon="0.01185">
        <ele>1510.6</ele>
        <time>2021-10-09T01:33:31</time>
      </trkpt>
      <trkpt lat="42.95817" lon="0.01183">
        <ele>1510.6</ele>
        <time>2021-10-09T01:33:32</time>
      </trkpt>
      <trkpt lat="42.95818" lon="0.01178">
        <ele>1510.6</ele>
        <time>2021-10-09T01:33:33</time>
      </trkpt>
      <trkpt lat="42.9582" lon="0.01177">
        <ele>1510.8</ele>
        <time>2021-10-09T01:33:34</time>
      </trkpt>
      <trkpt lat="42.9582" lon="0.01173">
        <ele>1511</ele>
        <time>2021-10-09T01:33:35</time>
      </trkpt>
      <trkpt lat="42.95821" lon="0.01168">
        <ele>1511</ele>
        <time>2021-10-09T01:33:36</time>
      </trkpt>
      <trkpt lat="42.95821" lon="0.01164">
        <ele>1511.2</ele>
        <time>2021-10-09T01:33:37</time>
      </trkpt>
      <trkpt lat="42.95822" lon="0.01158">
        <ele>1511.4</ele>
        <time>2021-10-09T01:33:38</time>
      </trkpt>
      <trkpt lat="42.95821" lon="0.01152">
        <ele>1511.6</ele>
        <time>2021-10-09T01:33:39</time>
      </trkpt>
      <trkpt lat="42.95822" lon="0.01149">
        <ele>1512</ele>
        <time>2021-10-09T01:33:40</time>
      </trkpt>
      <trkpt lat="42.95822" lon="0.01145">
        <ele>1512</ele>
        <time>2021-10-09T01:33:41</time>
      </trkpt>
      <trkpt lat="42.95823" lon="0.01141">
        <ele>1512.4</ele>
        <time>2021-10-09T01:33:42</time>
      </trkpt>
      <trkpt lat="42.95823" lon="0.01138">
        <ele>1512.6</ele>
        <time>2021-10-09T01:33:43</time>
      </trkpt>
      <trkpt lat="42.95823" lon="0.01134">
        <ele>1512.8</ele>
        <time>2021-10-09T01:33:44</time>
      </trkpt>
      <trkpt lat="42.95823" lon="0.0113">
        <ele>1513.2</ele>
        <time>2021-10-09T01:33:45</time>
      </trkpt>
      <trkpt lat="42.95825" lon="0.01126">
        <ele>1513.4</ele>
        <time>2021-10-09T01:33:46</time>
      </trkpt>
      <trkpt lat="42.95824" lon="0.01117">
        <ele>1513.6</ele>
        <time>2021-10-09T01:33:47</time>
      </trkpt>
      <trkpt lat="42.95824" lon="0.01114">
        <ele>1513.6</ele>
        <time>2021-10-09T01:33:48</time>
      </trkpt>
      <trkpt lat="42.95824" lon="0.01107">
        <ele>1513.6</ele>
        <time>2021-10-09T01:33:49</time>
      </trkpt>
      <trkpt lat="42.95824" lon="0.01101">
        <ele>1513.6</ele>
        <time>2021-10-09T01:33:50</time>
      </trkpt>
      <trkpt lat="42.95824" lon="0.01096">
        <ele>1513.4</ele>
        <time>2021-10-09T01:33:51</time>
      </trkpt>
      <trkpt lat="42.95825" lon="0.01091">
        <ele>1513.4</ele>
        <time>2021-10-09T01:33:52</time>
      </trkpt>
      <trkpt lat="42.95826" lon="0.01086">
        <ele>1513.2</ele>
        <time>2021-10-09T01:33:53</time>
      </trkpt>
      <trkpt lat="42.95826" lon="0.01081">
        <ele>1513.2</ele>
        <time>2021-10-09T01:33:54</time>
      </trkpt>
      <trkpt lat="42.95827" lon="0.01077">
        <ele>1513</ele>
        <time>2021-10-09T01:33:55</time>
      </trkpt>
      <trkpt lat="42.95828" lon="0.01072">
        <ele>1512.8</ele>
        <time>2021-10-09T01:33:56</time>
      </trkpt>
      <trkpt lat="42.95829" lon="0.01068">
        <ele>1512.6</ele>
        <time>2021-10-09T01:33:57</time>
      </trkpt>
      <trkpt lat="42.95831" lon="0.01063">
        <ele>1512.6</ele>
        <time>2021-10-09T01:33:58</time>
      </trkpt>
      <trkpt lat="42.95832" lon="0.0106">
        <ele>1512.4</ele>
        <time>2021-10-09T01:33:59</time>
      </trkpt>
      <trkpt lat="42.95832" lon="0.01053">
        <ele>1512.4</ele>
        <time>2021-10-09T01:34:00</time>
      </trkpt>
      <trkpt lat="42.95833" lon="0.01048">
        <ele>1512</ele>
        <time>2021-10-09T01:34:01</time>
      </trkpt>
      <trkpt lat="42.95834" lon="0.01042">
        <ele>1512</ele>
        <time>2021-10-09T01:34:02</time>
      </trkpt>
      <trkpt lat="42.95835" lon="0.01035">
        <ele>1511.8</ele>
        <time>2021-10-09T01:34:03</time>
      </trkpt>
      <trkpt lat="42.95838" lon="0.01028">
        <ele>1511.6</ele>
        <time>2021-10-09T01:34:04</time>
      </trkpt>
      <trkpt lat="42.95841" lon="0.01021">
        <ele>1511.6</ele>
        <time>2021-10-09T01:34:05</time>
      </trkpt>
      <trkpt lat="42.95843" lon="0.01016">
        <ele>1511.8</ele>
        <time>2021-10-09T01:34:06</time>
      </trkpt>
      <trkpt lat="42.95845" lon="0.01013">
        <ele>1512.2</ele>
        <time>2021-10-09T01:34:07</time>
      </trkpt>
      <trkpt lat="42.95847" lon="0.01009">
        <ele>1512.4</ele>
        <time>2021-10-09T01:34:08</time>
      </trkpt>
      <trkpt lat="42.95847" lon="0.01004">
        <ele>1512.8</ele>
        <time>2021-10-09T01:34:09</time>
      </trkpt>
      <trkpt lat="42.95849" lon="0.01001">
        <ele>1513</ele>
        <time>2021-10-09T01:34:10</time>
      </trkpt>
      <trkpt lat="42.95849" lon="0.00998">
        <ele>1513.2</ele>
        <time>2021-10-09T01:34:11</time>
      </trkpt>
      <trkpt lat="42.9585" lon="0.00994">
        <ele>1513.4</ele>
        <time>2021-10-09T01:34:12</time>
      </trkpt>
      <trkpt lat="42.9585" lon="0.0099">
        <ele>1513.8</ele>
        <time>2021-10-09T01:34:13</time>
      </trkpt>
      <trkpt lat="42.95851" lon="0.00987">
        <ele>1514.2</ele>
        <time>2021-10-09T01:34:14</time>
      </trkpt>
      <trkpt lat="42.95851" lon="0.00983">
        <ele>1514.6</ele>
        <time>2021-10-09T01:34:15</time>
      </trkpt>
      <trkpt lat="42.95851" lon="0.0098">
        <ele>1515</ele>
        <time>2021-10-09T01:34:16</time>
      </trkpt>
      <trkpt lat="42.95852" lon="0.00977">
        <ele>1515.2</ele>
        <time>2021-10-09T01:34:17</time>
      </trkpt>
      <trkpt lat="42.95854" lon="0.00974">
        <ele>1515.2</ele>
        <time>2021-10-09T01:34:18</time>
      </trkpt>
      <trkpt lat="42.95855" lon="0.0097">
        <ele>1515.2</ele>
        <time>2021-10-09T01:34:19</time>
      </trkpt>
      <trkpt lat="42.95855" lon="0.00965">
        <ele>1515.4</ele>
        <time>2021-10-09T01:34:20</time>
      </trkpt>
      <trkpt lat="42.95855" lon="0.00962">
        <ele>1515.4</ele>
        <time>2021-10-09T01:34:21</time>
      </trkpt>
      <trkpt lat="42.95856" lon="0.0096">
        <ele>1515.4</ele>
        <time>2021-10-09T01:34:22</time>
      </trkpt>
      <trkpt lat="42.95859" lon="0.00959">
        <ele>1515.6</ele>
        <time>2021-10-09T01:34:23</time>
      </trkpt>
      <trkpt lat="42.9586" lon="0.00955">
        <ele>1515.4</ele>
        <time>2021-10-09T01:34:24</time>
      </trkpt>
      <trkpt lat="42.9586" lon="0.00951">
        <ele>1515.4</ele>
        <time>2021-10-09T01:34:25</time>
      </trkpt>
      <trkpt lat="42.9586" lon="0.00947">
        <ele>1515.4</ele>
        <time>2021-10-09T01:34:26</time>
      </trkpt>
      <trkpt lat="42.95859" lon="0.00944">
        <ele>1515.6</ele>
        <time>2021-10-09T01:34:27</time>
      </trkpt>
      <trkpt lat="42.95859" lon="0.00942">
        <ele>1515.8</ele>
        <time>2021-10-09T01:34:28</time>
      </trkpt>
      <trkpt lat="42.95858" lon="0.00939">
        <ele>1516</ele>
        <time>2021-10-09T01:34:29</time>
      </trkpt>
      <trkpt lat="42.95857" lon="0.00936">
        <ele>1516.4</ele>
        <time>2021-10-09T01:34:30</time>
      </trkpt>
      <trkpt lat="42.95857" lon="0.00934">
        <ele>1516.6</ele>
        <time>2021-10-09T01:34:31</time>
      </trkpt>
      <trkpt lat="42.95857" lon="0.00933">
        <ele>1516.4</ele>
        <time>2021-10-09T01:34:32</time>
      </trkpt>
      <trkpt lat="42.95859" lon="0.00932">
        <ele>1516.2</ele>
        <time>2021-10-09T01:34:33</time>
      </trkpt>
      <trkpt lat="42.95859" lon="0.00928">
        <ele>1516.2</ele>
        <time>2021-10-09T01:34:34</time>
      </trkpt>
      <trkpt lat="42.9586" lon="0.00926">
        <ele>1516.2</ele>
        <time>2021-10-09T01:34:35</time>
      </trkpt>
      <trkpt lat="42.95861" lon="0.00924">
        <ele>1515.8</ele>
        <time>2021-10-09T01:34:36</time>
      </trkpt>
      <trkpt lat="42.95861" lon="0.00922">
        <ele>1515.6</ele>
        <time>2021-10-09T01:34:37</time>
      </trkpt>
      <trkpt lat="42.95862" lon="0.00919">
        <ele>1515.4</ele>
        <time>2021-10-09T01:34:38</time>
      </trkpt>
      <trkpt lat="42.95865" lon="0.00916">
        <ele>1514.8</ele>
        <time>2021-10-09T01:34:39</time>
      </trkpt>
      <trkpt lat="42.95865" lon="0.00913">
        <ele>1514</ele>
        <time>2021-10-09T01:34:40</time>
      </trkpt>
      <trkpt lat="42.95865" lon="0.0091">
        <ele>1513</ele>
        <time>2021-10-09T01:34:41</time>
      </trkpt>
      <trkpt lat="42.95865" lon="0.00907">
        <ele>1512</ele>
        <time>2021-10-09T01:34:42</time>
      </trkpt>
      <trkpt lat="42.95864" lon="0.00901">
        <ele>1511.4</ele>
        <time>2021-10-09T01:34:43</time>
      </trkpt>
      <trkpt lat="42.95866" lon="0.00897">
        <ele>1510.4</ele>
        <time>2021-10-09T01:34:44</time>
      </trkpt>
      <trkpt lat="42.95867" lon="0.00893">
        <ele>1509.4</ele>
        <time>2021-10-09T01:34:45</time>
      </trkpt>
      <trkpt lat="42.95868" lon="0.0089">
        <ele>1509</ele>
        <time>2021-10-09T01:34:46</time>
      </trkpt>
      <trkpt lat="42.95869" lon="0.00885">
        <ele>1508.6</ele>
        <time>2021-10-09T01:34:47</time>
      </trkpt>
      <trkpt lat="42.9587" lon="0.00881">
        <ele>1508</ele>
        <time>2021-10-09T01:34:48</time>
      </trkpt>
      <trkpt lat="42.9587" lon="0.00878">
        <ele>1507.4</ele>
        <time>2021-10-09T01:34:49</time>
      </trkpt>
      <trkpt lat="42.9587" lon="0.00874">
        <ele>1507</ele>
        <time>2021-10-09T01:34:50</time>
      </trkpt>
      <trkpt lat="42.95871" lon="0.00871">
        <ele>1505.8</ele>
        <time>2021-10-09T01:34:51</time>
      </trkpt>
      <trkpt lat="42.95872" lon="0.00868">
        <ele>1505</ele>
        <time>2021-10-09T01:34:52</time>
      </trkpt>
      <trkpt lat="42.95873" lon="0.00867">
        <ele>1504</ele>
        <time>2021-10-09T01:34:53</time>
      </trkpt>
      <trkpt lat="42.95876" lon="0.00871">
        <ele>1503.2</ele>
        <time>2021-10-09T01:34:54</time>
      </trkpt>
      <trkpt lat="42.95877" lon="0.00872">
        <ele>1502</ele>
        <time>2021-10-09T01:34:55</time>
      </trkpt>
      <trkpt lat="42.95878" lon="0.00871">
        <ele>1501.4</ele>
        <time>2021-10-09T01:34:56</time>
      </trkpt>
      <trkpt lat="42.95882" lon="0.00874">
        <ele>1500.6</ele>
        <time>2021-10-09T01:34:57</time>
      </trkpt>
      <trkpt lat="42.95886" lon="0.0087">
        <ele>1499.6</ele>
        <time>2021-10-09T01:34:58</time>
      </trkpt>
      <trkpt lat="42.95888" lon="0.00867">
        <ele>1498.4</ele>
        <time>2021-10-09T01:34:59</time>
      </trkpt>
      <trkpt lat="42.95889" lon="0.0086">
        <ele>1497.6</ele>
        <time>2021-10-09T01:35:00</time>
      </trkpt>
      <trkpt lat="42.95888" lon="0.00852">
        <ele>1497.2</ele>
        <time>2021-10-09T01:35:01</time>
      </trkpt>
      <trkpt lat="42.95889" lon="0.00848">
        <ele>1496.6</ele>
        <time>2021-10-09T01:35:02</time>
      </trkpt>
      <trkpt lat="42.9589" lon="0.00841">
        <ele>1495.8</ele>
        <time>2021-10-09T01:35:03</time>
      </trkpt>
      <trkpt lat="42.95893" lon="0.00835">
        <ele>1495.2</ele>
        <time>2021-10-09T01:35:04</time>
      </trkpt>
      <trkpt lat="42.95894" lon="0.00831">
        <ele>1494.8</ele>
        <time>2021-10-09T01:35:05</time>
      </trkpt>
      <trkpt lat="42.95894" lon="0.0082">
        <ele>1494.8</ele>
        <time>2021-10-09T01:35:06</time>
      </trkpt>
      <trkpt lat="42.95895" lon="0.00813">
        <ele>1495</ele>
        <time>2021-10-09T01:35:07</time>
      </trkpt>
      <trkpt lat="42.95894" lon="0.00805">
        <ele>1495.4</ele>
        <time>2021-10-09T01:35:08</time>
      </trkpt>
      <trkpt lat="42.95893" lon="0.00798">
        <ele>1495.6</ele>
        <time>2021-10-09T01:35:09</time>
      </trkpt>
      <trkpt lat="42.95892" lon="0.0079">
        <ele>1495.4</ele>
        <time>2021-10-09T01:35:10</time>
      </trkpt>
      <trkpt lat="42.95892" lon="0.00783">
        <ele>1495.6</ele>
        <time>2021-10-09T01:35:11</time>
      </trkpt>
      <trkpt lat="42.95893" lon="0.00776">
        <ele>1496</ele>
        <time>2021-10-09T01:35:12</time>
      </trkpt>
      <trkpt lat="42.95894" lon="0.0077">
        <ele>1496.4</ele>
        <time>2021-10-09T01:35:13</time>
      </trkpt>
      <trkpt lat="42.95894" lon="0.00759">
        <ele>1496.6</ele>
        <time>2021-10-09T01:35:14</time>
      </trkpt>
      <trkpt lat="42.95894" lon="0.00751">
        <ele>1496.6</ele>
        <time>2021-10-09T01:35:15</time>
      </trkpt>
      <trkpt lat="42.95895" lon="0.00745">
        <ele>1496.6</ele>
        <time>2021-10-09T01:35:16</time>
      </trkpt>
      <trkpt lat="42.95893" lon="0.00736">
        <ele>1496.4</ele>
        <time>2021-10-09T01:35:17</time>
      </trkpt>
      <trkpt lat="42.95893" lon="0.00725">
        <ele>1496.8</ele>
        <time>2021-10-09T01:35:18</time>
      </trkpt>
      <trkpt lat="42.95892" lon="0.00716">
        <ele>1496.6</ele>
        <time>2021-10-09T01:35:19</time>
      </trkpt>
      <trkpt lat="42.95893" lon="0.00708">
        <ele>1496.2</ele>
        <time>2021-10-09T01:35:20</time>
      </trkpt>
      <trkpt lat="42.95895" lon="0.00701">
        <ele>1496</ele>
        <time>2021-10-09T01:35:21</time>
      </trkpt>
      <trkpt lat="42.95896" lon="0.00695">
        <ele>1495.4</ele>
        <time>2021-10-09T01:35:22</time>
      </trkpt>
      <trkpt lat="42.95897" lon="0.00689">
        <ele>1495</ele>
        <time>2021-10-09T01:35:23</time>
      </trkpt>
      <trkpt lat="42.95897" lon="0.00679">
        <ele>1495</ele>
        <time>2021-10-09T01:35:24</time>
      </trkpt>
      <trkpt lat="42.95899" lon="0.00671">
        <ele>1494.8</ele>
        <time>2021-10-09T01:35:25</time>
      </trkpt>
      <trkpt lat="42.95899" lon="0.00664">
        <ele>1494.6</ele>
        <time>2021-10-09T01:35:26</time>
      </trkpt>
      <trkpt lat="42.95899" lon="0.00658">
        <ele>1494.8</ele>
        <time>2021-10-09T01:35:27</time>
      </trkpt>
      <trkpt lat="42.95898" lon="0.00654">
        <ele>1494.8</ele>
        <time>2021-10-09T01:35:28</time>
      </trkpt>
      <trkpt lat="42.95897" lon="0.00648">
        <ele>1495</ele>
        <time>2021-10-09T01:35:29</time>
      </trkpt>
      <trkpt lat="42.95896" lon="0.00642">
        <ele>1495</ele>
        <time>2021-10-09T01:35:30</time>
      </trkpt>
      <trkpt lat="42.95896" lon="0.00633">
        <ele>1494.8</ele>
        <time>2021-10-09T01:35:31</time>
      </trkpt>
      <trkpt lat="42.95895" lon="0.00627">
        <ele>1494.2</ele>
        <time>2021-10-09T01:35:32</time>
      </trkpt>
      <trkpt lat="42.95895" lon="0.00624">
        <ele>1493.6</ele>
        <time>2021-10-09T01:35:33</time>
      </trkpt>
      <trkpt lat="42.95894" lon="0.00616">
        <ele>1493.4</ele>
        <time>2021-10-09T01:35:34</time>
      </trkpt>
      <trkpt lat="42.95893" lon="0.00605">
        <ele>1493</ele>
        <time>2021-10-09T01:35:35</time>
      </trkpt>
      <trkpt lat="42.95891" lon="0.00599">
        <ele>1492.8</ele>
        <time>2021-10-09T01:35:36</time>
      </trkpt>
      <trkpt lat="42.95891" lon="0.00592">
        <ele>1492.4</ele>
        <time>2021-10-09T01:35:37</time>
      </trkpt>
      <trkpt lat="42.95891" lon="0.00586">
        <ele>1492.2</ele>
        <time>2021-10-09T01:35:38</time>
      </trkpt>
      <trkpt lat="42.95891" lon="0.00578">
        <ele>1492.4</ele>
        <time>2021-10-09T01:35:39</time>
      </trkpt>
      <trkpt lat="42.95893" lon="0.00574">
        <ele>1492</ele>
        <time>2021-10-09T01:35:40</time>
      </trkpt>
      <trkpt lat="42.95895" lon="0.00569">
        <ele>1492</ele>
        <time>2021-10-09T01:35:41</time>
      </trkpt>
      <trkpt lat="42.95896" lon="0.00564">
        <ele>1492.4</ele>
        <time>2021-10-09T01:35:42</time>
      </trkpt>
      <trkpt lat="42.95896" lon="0.00562">
        <ele>1492.2</ele>
        <time>2021-10-09T01:35:43</time>
      </trkpt>
      <trkpt lat="42.95896" lon="0.00559">
        <ele>1492.2</ele>
        <time>2021-10-09T01:35:44</time>
      </trkpt>
      <trkpt lat="42.95896" lon="0.00555">
        <ele>1492</ele>
        <time>2021-10-09T01:35:45</time>
      </trkpt>
      <trkpt lat="42.95897" lon="0.00552">
        <ele>1492.2</ele>
        <time>2021-10-09T01:35:46</time>
      </trkpt>
      <trkpt lat="42.95898" lon="0.00549">
        <ele>1492.2</ele>
        <time>2021-10-09T01:35:47</time>
      </trkpt>
      <trkpt lat="42.95897" lon="0.00545">
        <ele>1492.2</ele>
        <time>2021-10-09T01:35:48</time>
      </trkpt>
      <trkpt lat="42.95895" lon="0.00543">
        <ele>1492.2</ele>
        <time>2021-10-09T01:35:49</time>
      </trkpt>
      <trkpt lat="42.95894" lon="0.00541">
        <ele>1491.8</ele>
        <time>2021-10-09T01:35:50</time>
      </trkpt>
      <trkpt lat="42.95894" lon="0.00539">
        <ele>1491.6</ele>
        <time>2021-10-09T01:35:51</time>
      </trkpt>
      <trkpt lat="42.95894" lon="0.00535">
        <ele>1491</ele>
        <time>2021-10-09T01:35:52</time>
      </trkpt>
      <trkpt lat="42.95895" lon="0.00534">
        <ele>1490.4</ele>
        <time>2021-10-09T01:35:53</time>
      </trkpt>
      <trkpt lat="42.95896" lon="0.00531">
        <ele>1489.8</ele>
        <time>2021-10-09T01:35:54</time>
      </trkpt>
      <trkpt lat="42.95897" lon="0.00527">
        <ele>1489</ele>
        <time>2021-10-09T01:35:55</time>
      </trkpt>
      <trkpt lat="42.95898" lon="0.0052">
        <ele>1488.4</ele>
        <time>2021-10-09T01:35:56</time>
      </trkpt>
      <trkpt lat="42.95899" lon="0.00515">
        <ele>1487.2</ele>
        <time>2021-10-09T01:35:57</time>
      </trkpt>
      <trkpt lat="42.959" lon="0.00511">
        <ele>1486.6</ele>
        <time>2021-10-09T01:35:58</time>
      </trkpt>
      <trkpt lat="42.95901" lon="0.00507">
        <ele>1486</ele>
        <time>2021-10-09T01:36:00</time>
      </trkpt>
      <trkpt lat="42.95904" lon="0.005">
        <ele>1484.6</ele>
        <time>2021-10-09T01:36:01</time>
      </trkpt>
      <trkpt lat="42.95905" lon="0.00495">
        <ele>1483.8</ele>
        <time>2021-10-09T01:36:02</time>
      </trkpt>
      <trkpt lat="42.95907" lon="0.00492">
        <ele>1482.8</ele>
        <time>2021-10-09T01:36:03</time>
      </trkpt>
      <trkpt lat="42.95908" lon="0.00489">
        <ele>1482.2</ele>
        <time>2021-10-09T01:36:04</time>
      </trkpt>
      <trkpt lat="42.95908" lon="0.00487">
        <ele>1481.6</ele>
        <time>2021-10-09T01:36:05</time>
      </trkpt>
      <trkpt lat="42.95908" lon="0.00484">
        <ele>1480.6</ele>
        <time>2021-10-09T01:36:06</time>
      </trkpt>
      <trkpt lat="42.95909" lon="0.00481">
        <ele>1479.6</ele>
        <time>2021-10-09T01:36:08</time>
      </trkpt>
      <trkpt lat="42.95909" lon="0.00474">
        <ele>1477.8</ele>
        <time>2021-10-09T01:36:09</time>
      </trkpt>
      <trkpt lat="42.95907" lon="0.00469">
        <ele>1477</ele>
        <time>2021-10-09T01:36:10</time>
      </trkpt>
      <trkpt lat="42.95908" lon="0.00467">
        <ele>1476.2</ele>
        <time>2021-10-09T01:36:11</time>
      </trkpt>
      <trkpt lat="42.95911" lon="0.00467">
        <ele>1475.2</ele>
        <time>2021-10-09T01:36:12</time>
      </trkpt>
      <trkpt lat="42.95913" lon="0.00465">
        <ele>1474</ele>
        <time>2021-10-09T01:36:13</time>
      </trkpt>
      <trkpt lat="42.95914" lon="0.00463">
        <ele>1473.2</ele>
        <time>2021-10-09T01:36:14</time>
      </trkpt>
      <trkpt lat="42.95916" lon="0.00457">
        <ele>1472</ele>
        <time>2021-10-09T01:36:15</time>
      </trkpt>
      <trkpt lat="42.95915" lon="0.00449">
        <ele>1471</ele>
        <time>2021-10-09T01:36:17</time>
      </trkpt>
      <trkpt lat="42.95914" lon="0.00444">
        <ele>1469.2</ele>
        <time>2021-10-09T01:36:18</time>
      </trkpt>
      <trkpt lat="42.95913" lon="0.00438">
        <ele>1468.4</ele>
        <time>2021-10-09T01:36:19</time>
      </trkpt>
      <trkpt lat="42.95913" lon="0.00435">
        <ele>1468</ele>
        <time>2021-10-09T01:36:20</time>
      </trkpt>
      <trkpt lat="42.95915" lon="0.00434">
        <ele>1467.2</ele>
        <time>2021-10-09T01:36:21</time>
      </trkpt>
      <trkpt lat="42.95917" lon="0.00431">
        <ele>1466.8</ele>
        <time>2021-10-09T01:36:23</time>
      </trkpt>
      <trkpt lat="42.95917" lon="0.0042">
        <ele>1465.2</ele>
        <time>2021-10-09T01:36:24</time>
      </trkpt>
      <trkpt lat="42.95917" lon="0.00416">
        <ele>1464.4</ele>
        <time>2021-10-09T01:36:25</time>
      </trkpt>
      <trkpt lat="42.95918" lon="0.00416">
        <ele>1463.6</ele>
        <time>2021-10-09T01:36:26</time>
      </trkpt>
      <trkpt lat="42.95918" lon="0.00412">
        <ele>1463</ele>
        <time>2021-10-09T01:36:27</time>
      </trkpt>
      <trkpt lat="42.95919" lon="0.00406">
        <ele>1462.4</ele>
        <time>2021-10-09T01:36:28</time>
      </trkpt>
      <trkpt lat="42.9592" lon="0.00402">
        <ele>1461.8</ele>
        <time>2021-10-09T01:36:29</time>
      </trkpt>
      <trkpt lat="42.9592" lon="0.00393">
        <ele>1461.4</ele>
        <time>2021-10-09T01:36:30</time>
      </trkpt>
      <trkpt lat="42.95921" lon="0.00386">
        <ele>1461</ele>
        <time>2021-10-09T01:36:31</time>
      </trkpt>
      <trkpt lat="42.95921" lon="0.00381">
        <ele>1460.2</ele>
        <time>2021-10-09T01:36:33</time>
      </trkpt>
      <trkpt lat="42.95923" lon="0.00373">
        <ele>1458.6</ele>
        <time>2021-10-09T01:36:34</time>
      </trkpt>
      <trkpt lat="42.95923" lon="0.00366">
        <ele>1457.8</ele>
        <time>2021-10-09T01:36:36</time>
      </trkpt>
      <trkpt lat="42.95922" lon="0.00349">
        <ele>1456.8</ele>
        <time>2021-10-09T01:36:37</time>
      </trkpt>
      <trkpt lat="42.95924" lon="0.00344">
        <ele>1455.8</ele>
        <time>2021-10-09T01:36:38</time>
      </trkpt>
      <trkpt lat="42.95926" lon="0.00337">
        <ele>1455.2</ele>
        <time>2021-10-09T01:36:39</time>
      </trkpt>
      <trkpt lat="42.95926" lon="0.0033">
        <ele>1454.2</ele>
        <time>2021-10-09T01:36:40</time>
      </trkpt>
      <trkpt lat="42.95928" lon="0.00323">
        <ele>1453</ele>
        <time>2021-10-09T01:36:42</time>
      </trkpt>
      <trkpt lat="42.95933" lon="0.00312">
        <ele>1451</ele>
        <time>2021-10-09T01:36:43</time>
      </trkpt>
      <trkpt lat="42.95935" lon="0.00303">
        <ele>1449.6</ele>
        <time>2021-10-09T01:36:44</time>
      </trkpt>
      <trkpt lat="42.95936" lon="0.00298">
        <ele>1448.2</ele>
        <time>2021-10-09T01:36:45</time>
      </trkpt>
      <trkpt lat="42.95937" lon="0.00292">
        <ele>1447</ele>
        <time>2021-10-09T01:36:46</time>
      </trkpt>
      <trkpt lat="42.95936" lon="0.00284">
        <ele>1446</ele>
        <time>2021-10-09T01:36:47</time>
      </trkpt>
      <trkpt lat="42.95935" lon="0.00272">
        <ele>1445.4</ele>
        <time>2021-10-09T01:36:48</time>
      </trkpt>
      <trkpt lat="42.95935" lon="0.00262">
        <ele>1444.8</ele>
        <time>2021-10-09T01:36:49</time>
      </trkpt>
      <trkpt lat="42.95937" lon="0.00256">
        <ele>1444</ele>
        <time>2021-10-09T01:36:51</time>
      </trkpt>
      <trkpt lat="42.95939" lon="0.00245">
        <ele>1442</ele>
        <time>2021-10-09T01:36:52</time>
      </trkpt>
      <trkpt lat="42.9594" lon="0.0024">
        <ele>1441</ele>
        <time>2021-10-09T01:36:53</time>
      </trkpt>
      <trkpt lat="42.9594" lon="0.00237">
        <ele>1440.2</ele>
        <time>2021-10-09T01:36:55</time>
      </trkpt>
      <trkpt lat="42.9594" lon="0.00228">
        <ele>1438.8</ele>
        <time>2021-10-09T01:36:56</time>
      </trkpt>
      <trkpt lat="42.9594" lon="0.00223">
        <ele>1438.2</ele>
        <time>2021-10-09T01:36:57</time>
      </trkpt>
      <trkpt lat="42.95942" lon="0.00219">
        <ele>1437.8</ele>
        <time>2021-10-09T01:36:58</time>
      </trkpt>
      <trkpt lat="42.95943" lon="0.00217">
        <ele>1437.4</ele>
        <time>2021-10-09T01:36:59</time>
      </trkpt>
      <trkpt lat="42.95944" lon="0.00215">
        <ele>1437</ele>
        <time>2021-10-09T01:37:00</time>
      </trkpt>
      <trkpt lat="42.95944" lon="0.00212">
        <ele>1436.4</ele>
        <time>2021-10-09T01:37:02</time>
      </trkpt>
      <trkpt lat="42.95944" lon="0.00206">
        <ele>1435.4</ele>
        <time>2021-10-09T01:37:03</time>
      </trkpt>
      <trkpt lat="42.95944" lon="0.00202">
        <ele>1434.8</ele>
        <time>2021-10-09T01:37:05</time>
      </trkpt>
      <trkpt lat="42.95943" lon="0.00194">
        <ele>1434.2</ele>
        <time>2021-10-09T01:37:06</time>
      </trkpt>
      <trkpt lat="42.95943" lon="0.00182">
        <ele>1433</ele>
        <time>2021-10-09T01:37:07</time>
      </trkpt>
      <trkpt lat="42.95943" lon="0.00178">
        <ele>1432</ele>
        <time>2021-10-09T01:37:09</time>
      </trkpt>
      <trkpt lat="42.95945" lon="0.00176">
        <ele>1431.2</ele>
        <time>2021-10-09T01:37:10</time>
      </trkpt>
      <trkpt lat="42.95945" lon="0.00173">
        <ele>1430.4</ele>
        <time>2021-10-09T01:37:11</time>
      </trkpt>
      <trkpt lat="42.95946" lon="0.00169">
        <ele>1429.4</ele>
        <time>2021-10-09T01:37:12</time>
      </trkpt>
      <trkpt lat="42.95946" lon="0.00165">
        <ele>1427.6</ele>
        <time>2021-10-09T01:37:13</time>
      </trkpt>
      <trkpt lat="42.95946" lon="0.00162">
        <ele>1426.8</ele>
        <time>2021-10-09T01:37:14</time>
      </trkpt>
      <trkpt lat="42.95946" lon="0.00159">
        <ele>1426</ele>
        <time>2021-10-09T01:37:16</time>
      </trkpt>
      <trkpt lat="42.95946" lon="0.00156">
        <ele>1424.8</ele>
        <time>2021-10-09T01:37:17</time>
      </trkpt>
      <trkpt lat="42.95946" lon="0.00148">
        <ele>1423.4</ele>
        <time>2021-10-09T01:37:18</time>
      </trkpt>
      <trkpt lat="42.95946" lon="0.00146">
        <ele>1422.8</ele>
        <time>2021-10-09T01:37:20</time>
      </trkpt>
      <trkpt lat="42.95945" lon="0.00144">
        <ele>1422.2</ele>
        <time>2021-10-09T01:37:21</time>
      </trkpt>
      <trkpt lat="42.95947" lon="0.00141">
        <ele>1421.4</ele>
        <time>2021-10-09T01:37:22</time>
      </trkpt>
      <trkpt lat="42.95951" lon="0.00137">
        <ele>1419.6</ele>
        <time>2021-10-09T01:37:23</time>
      </trkpt>
      <trkpt lat="42.95951" lon="0.00135">
        <ele>1419</ele>
        <time>2021-10-09T01:37:24</time>
      </trkpt>
      <trkpt lat="42.95952" lon="0.00133">
        <ele>1418.2</ele>
        <time>2021-10-09T01:37:26</time>
      </trkpt>
      <trkpt lat="42.95954" lon="0.00132">
        <ele>1416.8</ele>
        <time>2021-10-09T01:37:27</time>
      </trkpt>
      <trkpt lat="42.95955" lon="0.00129">
        <ele>1416</ele>
        <time>2021-10-09T01:37:28</time>
      </trkpt>
      <trkpt lat="42.95956" lon="0.00126">
        <ele>1415.2</ele>
        <time>2021-10-09T01:37:29</time>
      </trkpt>
      <trkpt lat="42.95956" lon="0.00119">
        <ele>1413.2</ele>
        <time>2021-10-09T01:37:31</time>
      </trkpt>
      <trkpt lat="42.95956" lon="0.00116">
        <ele>1412.8</ele>
        <time>2021-10-09T01:37:32</time>
      </trkpt>
      <trkpt lat="42.95956" lon="0.00112">
        <ele>1412.8</ele>
        <time>2021-10-09T01:37:33</time>
      </trkpt>
      <trkpt lat="42.95955" lon="0.0011">
        <ele>1412.6</ele>
        <time>2021-10-09T01:37:34</time>
      </trkpt>
      <trkpt lat="42.95955" lon="0.00108">
        <ele>1412.6</ele>
        <time>2021-10-09T01:37:35</time>
      </trkpt>
      <trkpt lat="42.95955" lon="0.00107">
        <ele>1412.6</ele>
        <time>2021-10-09T01:37:36</time>
      </trkpt>
      <trkpt lat="42.9597" lon="0.00057">
        <ele>1411.4</ele>
        <time>2021-10-09T01:38:33</time>
      </trkpt>
      <trkpt lat="42.95972" lon="0.00055">
        <ele>1411</ele>
        <time>2021-10-09T01:38:34</time>
      </trkpt>
      <trkpt lat="42.95972" lon="0.00051">
        <ele>1410</ele>
        <time>2021-10-09T01:38:35</time>
      </trkpt>
      <trkpt lat="42.95972" lon="0.00049">
        <ele>1409</ele>
        <time>2021-10-09T01:38:36</time>
      </trkpt>
      <trkpt lat="42.95973" lon="0.00045">
        <ele>1407</ele>
        <time>2021-10-09T01:38:37</time>
      </trkpt>
      <trkpt lat="42.95973" lon="0.00044">
        <ele>1406.4</ele>
        <time>2021-10-09T01:38:38</time>
      </trkpt>
      <trkpt lat="42.95973" lon="0.00042">
        <ele>1405.6</ele>
        <time>2021-10-09T01:38:39</time>
      </trkpt>
      <trkpt lat="42.95973" lon="0.00038">
        <ele>1404.8</ele>
        <time>2021-10-09T01:38:41</time>
      </trkpt>
      <trkpt lat="42.95974" lon="0.00035">
        <ele>1403.8</ele>
        <time>2021-10-09T01:38:42</time>
      </trkpt>
      <trkpt lat="42.95976" lon="0.00031">
        <ele>1403</ele>
        <time>2021-10-09T01:38:43</time>
      </trkpt>
      <trkpt lat="42.95979" lon="0.00025">
        <ele>1402</ele>
        <time>2021-10-09T01:38:44</time>
      </trkpt>
      <trkpt lat="42.95983" lon="0.0002">
        <ele>1400.8</ele>
        <time>2021-10-09T01:38:45</time>
      </trkpt>
      <trkpt lat="42.95987" lon="0.00016">
        <ele>1400</ele>
        <time>2021-10-09T01:38:46</time>
      </trkpt>
      <trkpt lat="42.95989" lon="0.0001">
        <ele>1399.4</ele>
        <time>2021-10-09T01:38:47</time>
      </trkpt>
      <trkpt lat="42.95992" lon="4.0E-5">
        <ele>1399.2</ele>
        <time>2021-10-09T01:38:48</time>
      </trkpt>
      <trkpt lat="42.95992" lon="-3.0E-5">
        <ele>1398.6</ele>
        <time>2021-10-09T01:38:49</time>
      </trkpt>
      <trkpt lat="42.95992" lon="-9.0E-5">
        <ele>1397.6</ele>
        <time>2021-10-09T01:38:50</time>
      </trkpt>
      <trkpt lat="42.95991" lon="-0.00014">
        <ele>1396.6</ele>
        <time>2021-10-09T01:38:51</time>
      </trkpt>
      <trkpt lat="42.95989" lon="-0.00017">
        <ele>1395</ele>
        <time>2021-10-09T01:38:52</time>
      </trkpt>
      <trkpt lat="42.95987" lon="-0.00021">
        <ele>1394</ele>
        <time>2021-10-09T01:38:53</time>
      </trkpt>
      <trkpt lat="42.95986" lon="-0.00024">
        <ele>1392.6</ele>
        <time>2021-10-09T01:38:54</time>
      </trkpt>
      <trkpt lat="42.95985" lon="-0.00028">
        <ele>1391.4</ele>
        <time>2021-10-09T01:38:55</time>
      </trkpt>
      <trkpt lat="42.95988" lon="-0.00033">
        <ele>1390.2</ele>
        <time>2021-10-09T01:38:56</time>
      </trkpt>
      <trkpt lat="42.95989" lon="-0.00035">
        <ele>1390.2</ele>
        <time>2021-10-09T01:38:57</time>
      </trkpt>
      <trkpt lat="42.9599" lon="-0.0004">
        <ele>1390.2</ele>
        <time>2021-10-09T01:38:58</time>
      </trkpt>
      <trkpt lat="42.9599" lon="-0.00044">
        <ele>1390.2</ele>
        <time>2021-10-09T01:38:59</time>
      </trkpt>
      <trkpt lat="42.95991" lon="-0.00048">
        <ele>1390.2</ele>
        <time>2021-10-09T01:39:00</time>
      </trkpt>
      <trkpt lat="42.9599" lon="-0.00056">
        <ele>1390.2</ele>
        <time>2021-10-09T01:39:01</time>
      </trkpt>
      <trkpt lat="42.95989" lon="-0.00059">
        <ele>1382.8</ele>
        <time>2021-10-09T01:39:02</time>
      </trkpt>
      <trkpt lat="42.95987" lon="-0.00063">
        <ele>1383</ele>
        <time>2021-10-09T01:39:03</time>
      </trkpt>
      <trkpt lat="42.95985" lon="-0.00068">
        <ele>1383.4</ele>
        <time>2021-10-09T01:39:04</time>
      </trkpt>
      <trkpt lat="42.95985" lon="-0.00072">
        <ele>1383.4</ele>
        <time>2021-10-09T01:39:05</time>
      </trkpt>
      <trkpt lat="42.95984" lon="-0.00076">
        <ele>1383.6</ele>
        <time>2021-10-09T01:39:06</time>
      </trkpt>
      <trkpt lat="42.95983" lon="-0.00082">
        <ele>1383.6</ele>
        <time>2021-10-09T01:39:07</time>
      </trkpt>
      <trkpt lat="42.95983" lon="-0.00085">
        <ele>1383.8</ele>
        <time>2021-10-09T01:39:08</time>
      </trkpt>
      <trkpt lat="42.95983" lon="-0.00088">
        <ele>1383.8</ele>
        <time>2021-10-09T01:39:09</time>
      </trkpt>
      <trkpt lat="42.95981" lon="-0.00095">
        <ele>1384</ele>
        <time>2021-10-09T01:39:10</time>
      </trkpt>
      <trkpt lat="42.95982" lon="-0.00101">
        <ele>1383.8</ele>
        <time>2021-10-09T01:39:11</time>
      </trkpt>
      <trkpt lat="42.95981" lon="-0.00107">
        <ele>1383.6</ele>
        <time>2021-10-09T01:39:12</time>
      </trkpt>
      <trkpt lat="42.95982" lon="-0.0011">
        <ele>1383</ele>
        <time>2021-10-09T01:39:13</time>
      </trkpt>
      <trkpt lat="42.95982" lon="-0.00112">
        <ele>1382</ele>
        <time>2021-10-09T01:39:14</time>
      </trkpt>
      <trkpt lat="42.95981" lon="-0.00115">
        <ele>1381.6</ele>
        <time>2021-10-09T01:39:15</time>
      </trkpt>
      <trkpt lat="42.95981" lon="-0.00116">
        <ele>1381.4</ele>
        <time>2021-10-09T01:39:16</time>
      </trkpt>
      <trkpt lat="42.9598" lon="-0.00118">
        <ele>1381.4</ele>
        <time>2021-10-09T01:39:17</time>
      </trkpt>
      <trkpt lat="42.9598" lon="-0.00119">
        <ele>1381.4</ele>
        <time>2021-10-09T01:39:18</time>
      </trkpt>
      <trkpt lat="42.95979" lon="-0.00122">
        <ele>1381.4</ele>
        <time>2021-10-09T01:39:19</time>
      </trkpt>
      <trkpt lat="42.95978" lon="-0.00129">
        <ele>1381.4</ele>
        <time>2021-10-09T01:39:20</time>
      </trkpt>
      <trkpt lat="42.95977" lon="-0.00136">
        <ele>1381.4</ele>
        <time>2021-10-09T01:39:21</time>
      </trkpt>
      <trkpt lat="42.95976" lon="-0.00142">
        <ele>1381.4</ele>
        <time>2021-10-09T01:39:22</time>
      </trkpt>
      <trkpt lat="42.95975" lon="-0.00146">
        <ele>1381.4</ele>
        <time>2021-10-09T01:39:23</time>
      </trkpt>
      <trkpt lat="42.95983" lon="-0.00173">
        <ele>1373</ele>
        <time>2021-10-09T01:40:15</time>
      </trkpt>
      <trkpt lat="42.95984" lon="-0.00172">
        <ele>1372.8</ele>
        <time>2021-10-09T01:40:16</time>
      </trkpt>
      <trkpt lat="42.95984" lon="-0.00172">
        <ele>1372.8</ele>
        <time>2021-10-09T01:40:17</time>
      </trkpt>
      <trkpt lat="42.95985" lon="-0.00172">
        <ele>1372.6</ele>
        <time>2021-10-09T01:40:18</time>
      </trkpt>
      <trkpt lat="42.95986" lon="-0.00173">
        <ele>1372.4</ele>
        <time>2021-10-09T01:40:19</time>
      </trkpt>
      <trkpt lat="42.95988" lon="-0.00174">
        <ele>1372</ele>
        <time>2021-10-09T01:40:20</time>
      </trkpt>
      <trkpt lat="42.95991" lon="-0.00176">
        <ele>1371.6</ele>
        <time>2021-10-09T01:40:21</time>
      </trkpt>
      <trkpt lat="42.95992" lon="-0.00178">
        <ele>1371.2</ele>
        <time>2021-10-09T01:40:22</time>
      </trkpt>
      <trkpt lat="42.95997" lon="-0.00182">
        <ele>1370.4</ele>
        <time>2021-10-09T01:40:23</time>
      </trkpt>
      <trkpt lat="42.96" lon="-0.00183">
        <ele>1369.6</ele>
        <time>2021-10-09T01:40:24</time>
      </trkpt>
      <trkpt lat="42.96003" lon="-0.00184">
        <ele>1368.4</ele>
        <time>2021-10-09T01:40:25</time>
      </trkpt>
      <trkpt lat="42.96006" lon="-0.00181">
        <ele>1367.4</ele>
        <time>2021-10-09T01:40:26</time>
      </trkpt>
      <trkpt lat="42.9601" lon="-0.00179">
        <ele>1366.8</ele>
        <time>2021-10-09T01:40:27</time>
      </trkpt>
      <trkpt lat="42.96012" lon="-0.00176">
        <ele>1366</ele>
        <time>2021-10-09T01:40:28</time>
      </trkpt>
      <trkpt lat="42.96013" lon="-0.00174">
        <ele>1365</ele>
        <time>2021-10-09T01:40:29</time>
      </trkpt>
      <trkpt lat="42.96015" lon="-0.00171">
        <ele>1364.2</ele>
        <time>2021-10-09T01:40:30</time>
      </trkpt>
      <trkpt lat="42.96016" lon="-0.0017">
        <ele>1363.6</ele>
        <time>2021-10-09T01:40:31</time>
      </trkpt>
      <trkpt lat="42.96017" lon="-0.00171">
        <ele>1362.8</ele>
        <time>2021-10-09T01:40:32</time>
      </trkpt>
      <trkpt lat="42.96019" lon="-0.00172">
        <ele>1362</ele>
        <time>2021-10-09T01:40:33</time>
      </trkpt>
      <trkpt lat="42.96021" lon="-0.00173">
        <ele>1361.2</ele>
        <time>2021-10-09T01:40:34</time>
      </trkpt>
      <trkpt lat="42.96022" lon="-0.00172">
        <ele>1360.2</ele>
        <time>2021-10-09T01:40:35</time>
      </trkpt>
      <trkpt lat="42.96024" lon="-0.00173">
        <ele>1359.2</ele>
        <time>2021-10-09T01:40:36</time>
      </trkpt>
      <trkpt lat="42.96026" lon="-0.00173">
        <ele>1357.8</ele>
        <time>2021-10-09T01:40:37</time>
      </trkpt>
      <trkpt lat="42.96027" lon="-0.00174">
        <ele>1356.4</ele>
        <time>2021-10-09T01:40:38</time>
      </trkpt>
      <trkpt lat="42.96028" lon="-0.00176">
        <ele>1355.2</ele>
        <time>2021-10-09T01:40:39</time>
      </trkpt>
      <trkpt lat="42.96029" lon="-0.00178">
        <ele>1354</ele>
        <time>2021-10-09T01:40:40</time>
      </trkpt>
      <trkpt lat="42.96031" lon="-0.00179">
        <ele>1353.2</ele>
        <time>2021-10-09T01:40:41</time>
      </trkpt>
      <trkpt lat="42.96034" lon="-0.0018">
        <ele>1352.6</ele>
        <time>2021-10-09T01:40:42</time>
      </trkpt>
      <trkpt lat="42.96035" lon="-0.00181">
        <ele>1352.2</ele>
        <time>2021-10-09T01:40:43</time>
      </trkpt>
      <trkpt lat="42.96037" lon="-0.0018">
        <ele>1351.4</ele>
        <time>2021-10-09T01:40:44</time>
      </trkpt>
      <trkpt lat="42.96041" lon="-0.00178">
        <ele>1350.8</ele>
        <time>2021-10-09T01:40:45</time>
      </trkpt>
      <trkpt lat="42.96043" lon="-0.00177">
        <ele>1351</ele>
        <time>2021-10-09T01:40:46</time>
      </trkpt>
      <trkpt lat="42.96044" lon="-0.00176">
        <ele>1351</ele>
        <time>2021-10-09T01:40:47</time>
      </trkpt>
      <trkpt lat="42.96045" lon="-0.00176">
        <ele>1350.8</ele>
        <time>2021-10-09T01:40:48</time>
      </trkpt>
      <trkpt lat="42.96046" lon="-0.00177">
        <ele>1350.8</ele>
        <time>2021-10-09T01:40:49</time>
      </trkpt>
      <trkpt lat="42.96047" lon="-0.00177">
        <ele>1350.8</ele>
        <time>2021-10-09T01:40:50</time>
      </trkpt>
      <trkpt lat="42.96048" lon="-0.00177">
        <ele>1350.8</ele>
        <time>2021-10-09T01:40:51</time>
      </trkpt>
      <trkpt lat="42.96049" lon="-0.00178">
        <ele>1350.8</ele>
        <time>2021-10-09T01:40:52</time>
      </trkpt>
      <trkpt lat="42.9605" lon="-0.00178">
        <ele>1350.8</ele>
        <time>2021-10-09T01:40:53</time>
      </trkpt>
      <trkpt lat="42.96051" lon="-0.00178">
        <ele>1350.8</ele>
        <time>2021-10-09T01:40:54</time>
      </trkpt>
      <trkpt lat="42.96053" lon="-0.00179">
        <ele>1350.8</ele>
        <time>2021-10-09T01:40:55</time>
      </trkpt>
      <trkpt lat="42.96068" lon="-0.0022">
        <ele>1344.2</ele>
        <time>2021-10-09T01:41:44</time>
      </trkpt>
      <trkpt lat="42.96068" lon="-0.00227">
        <ele>1343.4</ele>
        <time>2021-10-09T01:41:45</time>
      </trkpt>
      <trkpt lat="42.96067" lon="-0.00231">
        <ele>1342.2</ele>
        <time>2021-10-09T01:41:46</time>
      </trkpt>
      <trkpt lat="42.96066" lon="-0.00235">
        <ele>1341.4</ele>
        <time>2021-10-09T01:41:47</time>
      </trkpt>
      <trkpt lat="42.96066" lon="-0.00239">
        <ele>1340.6</ele>
        <time>2021-10-09T01:41:48</time>
      </trkpt>
      <trkpt lat="42.96065" lon="-0.00247">
        <ele>1339.8</ele>
        <time>2021-10-09T01:41:49</time>
      </trkpt>
      <trkpt lat="42.96065" lon="-0.00256">
        <ele>1338.2</ele>
        <time>2021-10-09T01:41:50</time>
      </trkpt>
      <trkpt lat="42.96064" lon="-0.00263">
        <ele>1336.8</ele>
        <time>2021-10-09T01:41:51</time>
      </trkpt>
      <trkpt lat="42.96063" lon="-0.0027">
        <ele>1335.2</ele>
        <time>2021-10-09T01:41:52</time>
      </trkpt>
      <trkpt lat="42.96063" lon="-0.00286">
        <ele>1333.8</ele>
        <time>2021-10-09T01:41:53</time>
      </trkpt>
      <trkpt lat="42.96063" lon="-0.00299">
        <ele>1332.6</ele>
        <time>2021-10-09T01:41:54</time>
      </trkpt>
      <trkpt lat="42.96064" lon="-0.00314">
        <ele>1331.2</ele>
        <time>2021-10-09T01:41:55</time>
      </trkpt>
      <trkpt lat="42.96064" lon="-0.00324">
        <ele>1330</ele>
        <time>2021-10-09T01:41:56</time>
      </trkpt>
      <trkpt lat="42.96064" lon="-0.00334">
        <ele>1328.8</ele>
        <time>2021-10-09T01:41:57</time>
      </trkpt>
      <trkpt lat="42.96063" lon="-0.00343">
        <ele>1328.4</ele>
        <time>2021-10-09T01:41:58</time>
      </trkpt>
      <trkpt lat="42.96061" lon="-0.00352">
        <ele>1327.8</ele>
        <time>2021-10-09T01:41:59</time>
      </trkpt>
      <trkpt lat="42.96058" lon="-0.00361">
        <ele>1327</ele>
        <time>2021-10-09T01:42:00</time>
      </trkpt>
      <trkpt lat="42.96054" lon="-0.0037">
        <ele>1326.4</ele>
        <time>2021-10-09T01:42:01</time>
      </trkpt>
      <trkpt lat="42.9605" lon="-0.00379">
        <ele>1325.6</ele>
        <time>2021-10-09T01:42:02</time>
      </trkpt>
      <trkpt lat="42.96045" lon="-0.00389">
        <ele>1324.8</ele>
        <time>2021-10-09T01:42:03</time>
      </trkpt>
      <trkpt lat="42.9604" lon="-0.00398">
        <ele>1324</ele>
        <time>2021-10-09T01:42:04</time>
      </trkpt>
      <trkpt lat="42.96035" lon="-0.00407">
        <ele>1322.8</ele>
        <time>2021-10-09T01:42:05</time>
      </trkpt>
      <trkpt lat="42.9603" lon="-0.00417">
        <ele>1321.8</ele>
        <time>2021-10-09T01:42:06</time>
      </trkpt>
      <trkpt lat="42.96024" lon="-0.00427">
        <ele>1320.6</ele>
        <time>2021-10-09T01:42:07</time>
      </trkpt>
      <trkpt lat="42.96018" lon="-0.00438">
        <ele>1319.4</ele>
        <time>2021-10-09T01:42:08</time>
      </trkpt>
      <trkpt lat="42.96013" lon="-0.00448">
        <ele>1318.2</ele>
        <time>2021-10-09T01:42:09</time>
      </trkpt>
      <trkpt lat="42.96008" lon="-0.00457">
        <ele>1317</ele>
        <time>2021-10-09T01:42:10</time>
      </trkpt>
      <trkpt lat="42.96004" lon="-0.00464">
        <ele>1315.6</ele>
        <time>2021-10-09T01:42:11</time>
      </trkpt>
      <trkpt lat="42.96001" lon="-0.00471">
        <ele>1314.2</ele>
        <time>2021-10-09T01:42:12</time>
      </trkpt>
      <trkpt lat="42.95999" lon="-0.00478">
        <ele>1312.6</ele>
        <time>2021-10-09T01:42:13</time>
      </trkpt>
      <trkpt lat="42.95996" lon="-0.00485">
        <ele>1311.4</ele>
        <time>2021-10-09T01:42:14</time>
      </trkpt>
      <trkpt lat="42.95993" lon="-0.00491">
        <ele>1310.2</ele>
        <time>2021-10-09T01:42:15</time>
      </trkpt>
      <trkpt lat="42.9599" lon="-0.00496">
        <ele>1309.4</ele>
        <time>2021-10-09T01:42:16</time>
      </trkpt>
      <trkpt lat="42.95986" lon="-0.00501">
        <ele>1308.4</ele>
        <time>2021-10-09T01:42:17</time>
      </trkpt>
      <trkpt lat="42.95983" lon="-0.00504">
        <ele>1307.8</ele>
        <time>2021-10-09T01:42:18</time>
      </trkpt>
      <trkpt lat="42.95979" lon="-0.00508">
        <ele>1306.8</ele>
        <time>2021-10-09T01:42:19</time>
      </trkpt>
      <trkpt lat="42.95975" lon="-0.0051">
        <ele>1306</ele>
        <time>2021-10-09T01:42:20</time>
      </trkpt>
      <trkpt lat="42.95971" lon="-0.00514">
        <ele>1305.2</ele>
        <time>2021-10-09T01:42:21</time>
      </trkpt>
      <trkpt lat="42.95966" lon="-0.00518">
        <ele>1304</ele>
        <time>2021-10-09T01:42:22</time>
      </trkpt>
      <trkpt lat="42.95961" lon="-0.00523">
        <ele>1303.8</ele>
        <time>2021-10-09T01:42:23</time>
      </trkpt>
      <trkpt lat="42.95957" lon="-0.00527">
        <ele>1302.4</ele>
        <time>2021-10-09T01:42:24</time>
      </trkpt>
      <trkpt lat="42.95953" lon="-0.00532">
        <ele>1301.4</ele>
        <time>2021-10-09T01:42:25</time>
      </trkpt>
      <trkpt lat="42.95949" lon="-0.00537">
        <ele>1300.4</ele>
        <time>2021-10-09T01:42:26</time>
      </trkpt>
      <trkpt lat="42.95946" lon="-0.0054">
        <ele>1299.6</ele>
        <time>2021-10-09T01:42:27</time>
      </trkpt>
      <trkpt lat="42.95944" lon="-0.00541">
        <ele>1298.8</ele>
        <time>2021-10-09T01:42:28</time>
      </trkpt>
      <trkpt lat="42.95941" lon="-0.00543">
        <ele>1298.2</ele>
        <time>2021-10-09T01:42:29</time>
      </trkpt>
      <trkpt lat="42.9594" lon="-0.00544">
        <ele>1297.8</ele>
        <time>2021-10-09T01:42:30</time>
      </trkpt>
      <trkpt lat="42.95939" lon="-0.00547">
        <ele>1297.4</ele>
        <time>2021-10-09T01:42:31</time>
      </trkpt>
      <trkpt lat="42.95939" lon="-0.00549">
        <ele>1297.2</ele>
        <time>2021-10-09T01:42:32</time>
      </trkpt>
      <trkpt lat="42.95937" lon="-0.00556">
        <ele>1297</ele>
        <time>2021-10-09T01:42:33</time>
      </trkpt>
      <trkpt lat="42.95936" lon="-0.00557">
        <ele>1297</ele>
        <time>2021-10-09T01:42:34</time>
      </trkpt>
      <trkpt lat="42.95935" lon="-0.00561">
        <ele>1297</ele>
        <time>2021-10-09T01:42:35</time>
      </trkpt>
      <trkpt lat="42.95935" lon="-0.00564">
        <ele>1297</ele>
        <time>2021-10-09T01:42:36</time>
      </trkpt>
      <trkpt lat="42.95934" lon="-0.00566">
        <ele>1297</ele>
        <time>2021-10-09T01:42:37</time>
      </trkpt>
      <trkpt lat="42.959" lon="-0.00595">
        <ele>1287.2</ele>
        <time>2021-10-09T01:43:03</time>
      </trkpt>
      <trkpt lat="42.95897" lon="-0.00597">
        <ele>1286.4</ele>
        <time>2021-10-09T01:43:04</time>
      </trkpt>
      <trkpt lat="42.95895" lon="-0.00598">
        <ele>1285.8</ele>
        <time>2021-10-09T01:43:05</time>
      </trkpt>
      <trkpt lat="42.95893" lon="-0.006">
        <ele>1285.2</ele>
        <time>2021-10-09T01:43:06</time>
      </trkpt>
      <trkpt lat="42.95891" lon="-0.00602">
        <ele>1284.8</ele>
        <time>2021-10-09T01:43:07</time>
      </trkpt>
      <trkpt lat="42.95888" lon="-0.00604">
        <ele>1284.2</ele>
        <time>2021-10-09T01:43:08</time>
      </trkpt>
      <trkpt lat="42.95885" lon="-0.00608">
        <ele>1283.6</ele>
        <time>2021-10-09T01:43:09</time>
      </trkpt>
      <trkpt lat="42.95883" lon="-0.00612">
        <ele>1283.2</ele>
        <time>2021-10-09T01:43:10</time>
      </trkpt>
      <trkpt lat="42.95881" lon="-0.00615">
        <ele>1282.6</ele>
        <time>2021-10-09T01:43:11</time>
      </trkpt>
      <trkpt lat="42.95879" lon="-0.00617">
        <ele>1282.2</ele>
        <time>2021-10-09T01:43:12</time>
      </trkpt>
      <trkpt lat="42.95878" lon="-0.0062">
        <ele>1281.6</ele>
        <time>2021-10-09T01:43:13</time>
      </trkpt>
      <trkpt lat="42.95876" lon="-0.00625">
        <ele>1281.2</ele>
        <time>2021-10-09T01:43:14</time>
      </trkpt>
      <trkpt lat="42.95875" lon="-0.00627">
        <ele>1280.8</ele>
        <time>2021-10-09T01:43:15</time>
      </trkpt>
      <trkpt lat="42.95873" lon="-0.00629">
        <ele>1280.6</ele>
        <time>2021-10-09T01:43:16</time>
      </trkpt>
      <trkpt lat="42.95871" lon="-0.00633">
        <ele>1280.4</ele>
        <time>2021-10-09T01:43:17</time>
      </trkpt>
      <trkpt lat="42.95869" lon="-0.00636">
        <ele>1280</ele>
        <time>2021-10-09T01:43:18</time>
      </trkpt>
      <trkpt lat="42.95868" lon="-0.00639">
        <ele>1279.6</ele>
        <time>2021-10-09T01:43:19</time>
      </trkpt>
      <trkpt lat="42.95865" lon="-0.00643">
        <ele>1279</ele>
        <time>2021-10-09T01:43:20</time>
      </trkpt>
      <trkpt lat="42.95863" lon="-0.00648">
        <ele>1278.8</ele>
        <time>2021-10-09T01:43:21</time>
      </trkpt>
      <trkpt lat="42.9586" lon="-0.00653">
        <ele>1278.2</ele>
        <time>2021-10-09T01:43:22</time>
      </trkpt>
      <trkpt lat="42.95857" lon="-0.00657">
        <ele>1277.6</ele>
        <time>2021-10-09T01:43:23</time>
      </trkpt>
      <trkpt lat="42.95855" lon="-0.0066">
        <ele>1277</ele>
        <time>2021-10-09T01:43:24</time>
      </trkpt>
      <trkpt lat="42.95853" lon="-0.00665">
        <ele>1276.8</ele>
        <time>2021-10-09T01:43:25</time>
      </trkpt>
      <trkpt lat="42.9585" lon="-0.00668">
        <ele>1276</ele>
        <time>2021-10-09T01:43:26</time>
      </trkpt>
      <trkpt lat="42.95848" lon="-0.00671">
        <ele>1275.6</ele>
        <time>2021-10-09T01:43:27</time>
      </trkpt>
      <trkpt lat="42.95846" lon="-0.00676">
        <ele>1275</ele>
        <time>2021-10-09T01:43:28</time>
      </trkpt>
      <trkpt lat="42.95842" lon="-0.00681">
        <ele>1274.6</ele>
        <time>2021-10-09T01:43:29</time>
      </trkpt>
      <trkpt lat="42.9584" lon="-0.00684">
        <ele>1274</ele>
        <time>2021-10-09T01:43:30</time>
      </trkpt>
      <trkpt lat="42.95837" lon="-0.00688">
        <ele>1274</ele>
        <time>2021-10-09T01:43:31</time>
      </trkpt>
      <trkpt lat="42.95834" lon="-0.00693">
        <ele>1273.2</ele>
        <time>2021-10-09T01:43:32</time>
      </trkpt>
      <trkpt lat="42.95833" lon="-0.00695">
        <ele>1272.6</ele>
        <time>2021-10-09T01:43:33</time>
      </trkpt>
      <trkpt lat="42.9583" lon="-0.007">
        <ele>1272.4</ele>
        <time>2021-10-09T01:43:34</time>
      </trkpt>
      <trkpt lat="42.95826" lon="-0.00705">
        <ele>1272</ele>
        <time>2021-10-09T01:43:35</time>
      </trkpt>
      <trkpt lat="42.95824" lon="-0.00709">
        <ele>1271.6</ele>
        <time>2021-10-09T01:43:36</time>
      </trkpt>
      <trkpt lat="42.95822" lon="-0.00714">
        <ele>1271.2</ele>
        <time>2021-10-09T01:43:37</time>
      </trkpt>
      <trkpt lat="42.95819" lon="-0.0072">
        <ele>1270.8</ele>
        <time>2021-10-09T01:43:38</time>
      </trkpt>
      <trkpt lat="42.95816" lon="-0.00725">
        <ele>1270.6</ele>
        <time>2021-10-09T01:43:39</time>
      </trkpt>
      <trkpt lat="42.95813" lon="-0.0073">
        <ele>1270.6</ele>
        <time>2021-10-09T01:43:40</time>
      </trkpt>
      <trkpt lat="42.95811" lon="-0.00734">
        <ele>1270.6</ele>
        <time>2021-10-09T01:43:41</time>
      </trkpt>
      <trkpt lat="42.95809" lon="-0.00737">
        <ele>1270.6</ele>
        <time>2021-10-09T01:43:42</time>
      </trkpt>
      <trkpt lat="42.95808" lon="-0.00739">
        <ele>1270.6</ele>
        <time>2021-10-09T01:43:43</time>
      </trkpt>
      <trkpt lat="42.95808" lon="-0.0074">
        <ele>1270.6</ele>
        <time>2021-10-09T01:43:44</time>
      </trkpt>
      <trkpt lat="42.95807" lon="-0.00741">
        <ele>1270.6</ele>
        <time>2021-10-09T01:43:45</time>
      </trkpt>
      <trkpt lat="42.95806" lon="-0.00741">
        <ele>1270.6</ele>
        <time>2021-10-09T01:43:46</time>
      </trkpt>
      <trkpt lat="42.95805" lon="-0.00742">
        <ele>1270.6</ele>
        <time>2021-10-09T01:43:47</time>
      </trkpt>
      <trkpt lat="42.95791" lon="-0.00763">
        <ele>1257.6</ele>
        <time>2021-10-09T01:44:03</time>
      </trkpt>
      <trkpt lat="42.95789" lon="-0.00765">
        <ele>1256</ele>
        <time>2021-10-09T01:44:04</time>
      </trkpt>
      <trkpt lat="42.95785" lon="-0.00769">
        <ele>1254.2</ele>
        <time>2021-10-09T01:44:05</time>
      </trkpt>
      <trkpt lat="42.9578" lon="-0.00773">
        <ele>1252.6</ele>
        <time>2021-10-09T01:44:06</time>
      </trkpt>
      <trkpt lat="42.95777" lon="-0.00776">
        <ele>1251.4</ele>
        <time>2021-10-09T01:44:07</time>
      </trkpt>
      <trkpt lat="42.95776" lon="-0.00775">
        <ele>1249.6</ele>
        <time>2021-10-09T01:44:08</time>
      </trkpt>
      <trkpt lat="42.95775" lon="-0.00778">
        <ele>1248.2</ele>
        <time>2021-10-09T01:44:09</time>
      </trkpt>
      <trkpt lat="42.95771" lon="-0.00782">
        <ele>1247.2</ele>
        <time>2021-10-09T01:44:10</time>
      </trkpt>
      <trkpt lat="42.95769" lon="-0.00785">
        <ele>1246.6</ele>
        <time>2021-10-09T01:44:11</time>
      </trkpt>
      <trkpt lat="42.95768" lon="-0.00785">
        <ele>1245.4</ele>
        <time>2021-10-09T01:44:12</time>
      </trkpt>
      <trkpt lat="42.95766" lon="-0.00786">
        <ele>1244.6</ele>
        <time>2021-10-09T01:44:13</time>
      </trkpt>
      <trkpt lat="42.95763" lon="-0.00788">
        <ele>1243.6</ele>
        <time>2021-10-09T01:44:14</time>
      </trkpt>
      <trkpt lat="42.95761" lon="-0.00792">
        <ele>1243</ele>
        <time>2021-10-09T01:44:15</time>
      </trkpt>
      <trkpt lat="42.95759" lon="-0.00793">
        <ele>1241.8</ele>
        <time>2021-10-09T01:44:16</time>
      </trkpt>
      <trkpt lat="42.95757" lon="-0.00796">
        <ele>1241</ele>
        <time>2021-10-09T01:44:17</time>
      </trkpt>
      <trkpt lat="42.95756" lon="-0.00797">
        <ele>1240</ele>
        <time>2021-10-09T01:44:18</time>
      </trkpt>
      <trkpt lat="42.95755" lon="-0.00797">
        <ele>1239.2</ele>
        <time>2021-10-09T01:44:19</time>
      </trkpt>
      <trkpt lat="42.95754" lon="-0.00799">
        <ele>1238.4</ele>
        <time>2021-10-09T01:44:20</time>
      </trkpt>
      <trkpt lat="42.95753" lon="-0.00799">
        <ele>1238</ele>
        <time>2021-10-09T01:44:21</time>
      </trkpt>
      <trkpt lat="42.95753" lon="-0.008">
        <ele>1237.2</ele>
        <time>2021-10-09T01:44:22</time>
      </trkpt>
      <trkpt lat="42.95751" lon="-0.00801">
        <ele>1237.2</ele>
        <time>2021-10-09T01:44:23</time>
      </trkpt>
      <trkpt lat="42.95751" lon="-0.00802">
        <ele>1237.2</ele>
        <time>2021-10-09T01:44:24</time>
      </trkpt>
      <trkpt lat="42.9575" lon="-0.00805">
        <ele>1237.2</ele>
        <time>2021-10-09T01:44:25</time>
      </trkpt>
      <trkpt lat="42.95749" lon="-0.00806">
        <ele>1237.2</ele>
        <time>2021-10-09T01:44:26</time>
      </trkpt>
      <trkpt lat="42.95748" lon="-0.00808">
        <ele>1237.2</ele>
        <time>2021-10-09T01:44:27</time>
      </trkpt>
      <trkpt lat="42.95747" lon="-0.00807">
        <ele>1237</ele>
        <time>2021-10-09T01:44:28</time>
      </trkpt>
      <trkpt lat="42.95747" lon="-0.00809">
        <ele>1236.6</ele>
        <time>2021-10-09T01:44:29</time>
      </trkpt>
      <trkpt lat="42.95724" lon="-0.00821">
        <ele>1234.2</ele>
        <time>2021-10-09T01:44:38</time>
      </trkpt>
      <trkpt lat="42.95721" lon="-0.00823">
        <ele>1233.6</ele>
        <time>2021-10-09T01:44:39</time>
      </trkpt>
      <trkpt lat="42.95716" lon="-0.00827">
        <ele>1232.8</ele>
        <time>2021-10-09T01:44:40</time>
      </trkpt>
      <trkpt lat="42.95714" lon="-0.0083">
        <ele>1232.2</ele>
        <time>2021-10-09T01:44:41</time>
      </trkpt>
      <trkpt lat="42.95711" lon="-0.00832">
        <ele>1231.8</ele>
        <time>2021-10-09T01:44:42</time>
      </trkpt>
      <trkpt lat="42.95709" lon="-0.00833">
        <ele>1231.4</ele>
        <time>2021-10-09T01:44:43</time>
      </trkpt>
      <trkpt lat="42.95704" lon="-0.0084">
        <ele>1231.2</ele>
        <time>2021-10-09T01:44:44</time>
      </trkpt>
      <trkpt lat="42.95699" lon="-0.00845">
        <ele>1231.2</ele>
        <time>2021-10-09T01:44:45</time>
      </trkpt>
      <trkpt lat="42.95697" lon="-0.00848">
        <ele>1231.2</ele>
        <time>2021-10-09T01:44:46</time>
      </trkpt>
      <trkpt lat="42.95696" lon="-0.00848">
        <ele>1231.2</ele>
        <time>2021-10-09T01:44:47</time>
      </trkpt>
      <trkpt lat="42.95695" lon="-0.00849">
        <ele>1231.2</ele>
        <time>2021-10-09T01:44:48</time>
      </trkpt>
      <trkpt lat="42.95694" lon="-0.00851">
        <ele>1231</ele>
        <time>2021-10-09T01:44:49</time>
      </trkpt>
      <trkpt lat="42.95692" lon="-0.00852">
        <ele>1231</ele>
        <time>2021-10-09T01:44:50</time>
      </trkpt>
      <trkpt lat="42.95691" lon="-0.00852">
        <ele>1231</ele>
        <time>2021-10-09T01:44:51</time>
      </trkpt>
      <trkpt lat="42.9569" lon="-0.00853">
        <ele>1231</ele>
        <time>2021-10-09T01:44:52</time>
      </trkpt>
      <trkpt lat="42.95689" lon="-0.00853">
        <ele>1231</ele>
        <time>2021-10-09T01:44:53</time>
      </trkpt>
      <trkpt lat="42.95647" lon="-0.00893">
        <ele>1228.6</ele>
        <time>2021-10-09T01:47:15</time>
      </trkpt>
      <trkpt lat="42.95645" lon="-0.00897">
        <ele>1228.4</ele>
        <time>2021-10-09T01:47:16</time>
      </trkpt>
      <trkpt lat="42.95642" lon="-0.00901">
        <ele>1227.8</ele>
        <time>2021-10-09T01:47:17</time>
      </trkpt>
      <trkpt lat="42.9564" lon="-0.00906">
        <ele>1227.4</ele>
        <time>2021-10-09T01:47:18</time>
      </trkpt>
      <trkpt lat="42.95637" lon="-0.0091">
        <ele>1227.2</ele>
        <time>2021-10-09T01:47:19</time>
      </trkpt>
      <trkpt lat="42.95634" lon="-0.00914">
        <ele>1226.6</ele>
        <time>2021-10-09T01:47:20</time>
      </trkpt>
      <trkpt lat="42.95631" lon="-0.00918">
        <ele>1226.4</ele>
        <time>2021-10-09T01:47:21</time>
      </trkpt>
      <trkpt lat="42.95629" lon="-0.00922">
        <ele>1226.2</ele>
        <time>2021-10-09T01:47:22</time>
      </trkpt>
      <trkpt lat="42.95626" lon="-0.00927">
        <ele>1226</ele>
        <time>2021-10-09T01:47:23</time>
      </trkpt>
      <trkpt lat="42.95623" lon="-0.0093">
        <ele>1225.4</ele>
        <time>2021-10-09T01:47:24</time>
      </trkpt>
      <trkpt lat="42.9562" lon="-0.00934">
        <ele>1225.2</ele>
        <time>2021-10-09T01:47:25</time>
      </trkpt>
      <trkpt lat="42.95618" lon="-0.00939">
        <ele>1225</ele>
        <time>2021-10-09T01:47:26</time>
      </trkpt>
      <trkpt lat="42.95615" lon="-0.00944">
        <ele>1225</ele>
        <time>2021-10-09T01:47:27</time>
      </trkpt>
      <trkpt lat="42.95613" lon="-0.00949">
        <ele>1224.8</ele>
        <time>2021-10-09T01:47:28</time>
      </trkpt>
      <trkpt lat="42.95611" lon="-0.00953">
        <ele>1224.4</ele>
        <time>2021-10-09T01:47:29</time>
      </trkpt>
      <trkpt lat="42.95608" lon="-0.00957">
        <ele>1224.4</ele>
        <time>2021-10-09T01:47:30</time>
      </trkpt>
      <trkpt lat="42.95606" lon="-0.00962">
        <ele>1224.2</ele>
        <time>2021-10-09T01:47:31</time>
      </trkpt>
      <trkpt lat="42.95604" lon="-0.00967">
        <ele>1224</ele>
        <time>2021-10-09T01:47:32</time>
      </trkpt>
      <trkpt lat="42.95602" lon="-0.00972">
        <ele>1223.8</ele>
        <time>2021-10-09T01:47:33</time>
      </trkpt>
      <trkpt lat="42.956" lon="-0.00978">
        <ele>1223.4</ele>
        <time>2021-10-09T01:47:34</time>
      </trkpt>
      <trkpt lat="42.95597" lon="-0.00982">
        <ele>1222.6</ele>
        <time>2021-10-09T01:47:35</time>
      </trkpt>
      <trkpt lat="42.95594" lon="-0.00986">
        <ele>1222</ele>
        <time>2021-10-09T01:47:36</time>
      </trkpt>
      <trkpt lat="42.9559" lon="-0.00989">
        <ele>1221</ele>
        <time>2021-10-09T01:47:37</time>
      </trkpt>
      <trkpt lat="42.95586" lon="-0.00992">
        <ele>1220.2</ele>
        <time>2021-10-09T01:47:38</time>
      </trkpt>
      <trkpt lat="42.95582" lon="-0.00996">
        <ele>1219</ele>
        <time>2021-10-09T01:47:39</time>
      </trkpt>
      <trkpt lat="42.95577" lon="-0.00999">
        <ele>1218</ele>
        <time>2021-10-09T01:47:40</time>
      </trkpt>
      <trkpt lat="42.95572" lon="-0.01002">
        <ele>1217.2</ele>
        <time>2021-10-09T01:47:41</time>
      </trkpt>
      <trkpt lat="42.95566" lon="-0.01004">
        <ele>1215.6</ele>
        <time>2021-10-09T01:47:42</time>
      </trkpt>
      <trkpt lat="42.9556" lon="-0.01006">
        <ele>1215.6</ele>
        <time>2021-10-09T01:47:43</time>
      </trkpt>
      <trkpt lat="42.95552" lon="-0.01008">
        <ele>1215.6</ele>
        <time>2021-10-09T01:47:44</time>
      </trkpt>
      <trkpt lat="42.95545" lon="-0.01008">
        <ele>1215.6</ele>
        <time>2021-10-09T01:47:45</time>
      </trkpt>
      <trkpt lat="42.95539" lon="-0.01009">
        <ele>1215.6</ele>
        <time>2021-10-09T01:47:46</time>
      </trkpt>
      <trkpt lat="42.95532" lon="-0.0101">
        <ele>1215.6</ele>
        <time>2021-10-09T01:47:47</time>
      </trkpt>
      <trkpt lat="42.95524" lon="-0.01011">
        <ele>1203.2</ele>
        <time>2021-10-09T01:47:48</time>
      </trkpt>
      <trkpt lat="42.95518" lon="-0.01011">
        <ele>1201.4</ele>
        <time>2021-10-09T01:47:49</time>
      </trkpt>
      <trkpt lat="42.95512" lon="-0.01011">
        <ele>1199.6</ele>
        <time>2021-10-09T01:47:50</time>
      </trkpt>
      <trkpt lat="42.95507" lon="-0.01013">
        <ele>1198.6</ele>
        <time>2021-10-09T01:47:51</time>
      </trkpt>
      <trkpt lat="42.95502" lon="-0.01017">
        <ele>1198</ele>
        <time>2021-10-09T01:47:52</time>
      </trkpt>
      <trkpt lat="42.95498" lon="-0.01021">
        <ele>1197.4</ele>
        <time>2021-10-09T01:47:53</time>
      </trkpt>
      <trkpt lat="42.95495" lon="-0.01025">
        <ele>1196.6</ele>
        <time>2021-10-09T01:47:54</time>
      </trkpt>
      <trkpt lat="42.95491" lon="-0.01032">
        <ele>1195.8</ele>
        <time>2021-10-09T01:47:55</time>
      </trkpt>
      <trkpt lat="42.95488" lon="-0.01041">
        <ele>1195.2</ele>
        <time>2021-10-09T01:47:56</time>
      </trkpt>
      <trkpt lat="42.95484" lon="-0.0105">
        <ele>1194.2</ele>
        <time>2021-10-09T01:47:57</time>
      </trkpt>
      <trkpt lat="42.95479" lon="-0.01059">
        <ele>1193</ele>
        <time>2021-10-09T01:47:58</time>
      </trkpt>
      <trkpt lat="42.95473" lon="-0.01066">
        <ele>1191.6</ele>
        <time>2021-10-09T01:47:59</time>
      </trkpt>
      <trkpt lat="42.95466" lon="-0.01072">
        <ele>1189.8</ele>
        <time>2021-10-09T01:48:00</time>
      </trkpt>
      <trkpt lat="42.9546" lon="-0.01076">
        <ele>1188.2</ele>
        <time>2021-10-09T01:48:01</time>
      </trkpt>
      <trkpt lat="42.95456" lon="-0.01079">
        <ele>1187.2</ele>
        <time>2021-10-09T01:48:02</time>
      </trkpt>
      <trkpt lat="42.95452" lon="-0.01082">
        <ele>1186.2</ele>
        <time>2021-10-09T01:48:03</time>
      </trkpt>
      <trkpt lat="42.95449" lon="-0.01084">
        <ele>1185.4</ele>
        <time>2021-10-09T01:48:04</time>
      </trkpt>
      <trkpt lat="42.95443" lon="-0.01088">
        <ele>1184.8</ele>
        <time>2021-10-09T01:48:05</time>
      </trkpt>
      <trkpt lat="42.95438" lon="-0.01093">
        <ele>1184.2</ele>
        <time>2021-10-09T01:48:06</time>
      </trkpt>
      <trkpt lat="42.95433" lon="-0.01097">
        <ele>1183.4</ele>
        <time>2021-10-09T01:48:07</time>
      </trkpt>
      <trkpt lat="42.9543" lon="-0.01103">
        <ele>1183</ele>
        <time>2021-10-09T01:48:08</time>
      </trkpt>
      <trkpt lat="42.95426" lon="-0.01109">
        <ele>1182.6</ele>
        <time>2021-10-09T01:48:09</time>
      </trkpt>
      <trkpt lat="42.95422" lon="-0.01116">
        <ele>1182</ele>
        <time>2021-10-09T01:48:10</time>
      </trkpt>
      <trkpt lat="42.95418" lon="-0.01123">
        <ele>1181.8</ele>
        <time>2021-10-09T01:48:11</time>
      </trkpt>
      <trkpt lat="42.95413" lon="-0.01129">
        <ele>1181.6</ele>
        <time>2021-10-09T01:48:12</time>
      </trkpt>
      <trkpt lat="42.95408" lon="-0.01135">
        <ele>1180.8</ele>
        <time>2021-10-09T01:48:13</time>
      </trkpt>
      <trkpt lat="42.95403" lon="-0.0114">
        <ele>1179.8</ele>
        <time>2021-10-09T01:48:14</time>
      </trkpt>
      <trkpt lat="42.95397" lon="-0.01145">
        <ele>1179.2</ele>
        <time>2021-10-09T01:48:15</time>
      </trkpt>
      <trkpt lat="42.95391" lon="-0.01151">
        <ele>1177.8</ele>
        <time>2021-10-09T01:48:16</time>
      </trkpt>
      <trkpt lat="42.95385" lon="-0.01157">
        <ele>1177</ele>
        <time>2021-10-09T01:48:17</time>
      </trkpt>
      <trkpt lat="42.95379" lon="-0.01165">
        <ele>1176</ele>
        <time>2021-10-09T01:48:18</time>
      </trkpt>
      <trkpt lat="42.95372" lon="-0.01172">
        <ele>1174</ele>
        <time>2021-10-09T01:48:19</time>
      </trkpt>
      <trkpt lat="42.95365" lon="-0.0118">
        <ele>1173</ele>
        <time>2021-10-09T01:48:20</time>
      </trkpt>
      <trkpt lat="42.95358" lon="-0.01188">
        <ele>1173</ele>
        <time>2021-10-09T01:48:21</time>
      </trkpt>
      <trkpt lat="42.95352" lon="-0.01197">
        <ele>1173</ele>
        <time>2021-10-09T01:48:22</time>
      </trkpt>
      <trkpt lat="42.95345" lon="-0.01205">
        <ele>1173</ele>
        <time>2021-10-09T01:48:23</time>
      </trkpt>
      <trkpt lat="42.95339" lon="-0.01214">
        <ele>1173</ele>
        <time>2021-10-09T01:48:24</time>
      </trkpt>
      <trkpt lat="42.95334" lon="-0.01222">
        <ele>1173</ele>
        <time>2021-10-09T01:48:25</time>
      </trkpt>
      <trkpt lat="42.95328" lon="-0.0123">
        <ele>1162.6</ele>
        <time>2021-10-09T01:48:26</time>
      </trkpt>
      <trkpt lat="42.95321" lon="-0.01237">
        <ele>1160.8</ele>
        <time>2021-10-09T01:48:27</time>
      </trkpt>
      <trkpt lat="42.95313" lon="-0.01245">
        <ele>1158.8</ele>
        <time>2021-10-09T01:48:28</time>
      </trkpt>
      <trkpt lat="42.95305" lon="-0.01255">
        <ele>1158</ele>
        <time>2021-10-09T01:48:29</time>
      </trkpt>
      <trkpt lat="42.953" lon="-0.01265">
        <ele>1157.4</ele>
        <time>2021-10-09T01:48:30</time>
      </trkpt>
      <trkpt lat="42.95298" lon="-0.01275">
        <ele>1156.8</ele>
        <time>2021-10-09T01:48:31</time>
      </trkpt>
      <trkpt lat="42.95296" lon="-0.01285">
        <ele>1156.6</ele>
        <time>2021-10-09T01:48:32</time>
      </trkpt>
      <trkpt lat="42.95294" lon="-0.01296">
        <ele>1156</ele>
        <time>2021-10-09T01:48:33</time>
      </trkpt>
      <trkpt lat="42.95291" lon="-0.01305">
        <ele>1155.4</ele>
        <time>2021-10-09T01:48:34</time>
      </trkpt>
      <trkpt lat="42.95286" lon="-0.01313">
        <ele>1153.4</ele>
        <time>2021-10-09T01:48:35</time>
      </trkpt>
      <trkpt lat="42.95282" lon="-0.01319">
        <ele>1151.6</ele>
        <time>2021-10-09T01:48:36</time>
      </trkpt>
      <trkpt lat="42.95278" lon="-0.01321">
        <ele>1149.8</ele>
        <time>2021-10-09T01:48:37</time>
      </trkpt>
      <trkpt lat="42.95272" lon="-0.01328">
        <ele>1148</ele>
        <time>2021-10-09T01:48:38</time>
      </trkpt>
      <trkpt lat="42.95265" lon="-0.01337">
        <ele>1146.2</ele>
        <time>2021-10-09T01:48:39</time>
      </trkpt>
      <trkpt lat="42.95259" lon="-0.01349">
        <ele>1144.2</ele>
        <time>2021-10-09T01:48:40</time>
      </trkpt>
      <trkpt lat="42.95254" lon="-0.01363">
        <ele>1143.6</ele>
        <time>2021-10-09T01:48:41</time>
      </trkpt>
      <trkpt lat="42.9525" lon="-0.01374">
        <ele>1142.6</ele>
        <time>2021-10-09T01:48:42</time>
      </trkpt>
      <trkpt lat="42.95246" lon="-0.01384">
        <ele>1142</ele>
        <time>2021-10-09T01:48:43</time>
      </trkpt>
      <trkpt lat="42.95241" lon="-0.01389">
        <ele>1141.4</ele>
        <time>2021-10-09T01:48:44</time>
      </trkpt>
      <trkpt lat="42.95238" lon="-0.01393">
        <ele>1141</ele>
        <time>2021-10-09T01:48:45</time>
      </trkpt>
      <trkpt lat="42.95235" lon="-0.01395">
        <ele>1140.6</ele>
        <time>2021-10-09T01:48:46</time>
      </trkpt>
      <trkpt lat="42.95231" lon="-0.01395">
        <ele>1140.4</ele>
        <time>2021-10-09T01:48:47</time>
      </trkpt>
      <trkpt lat="42.95228" lon="-0.01398">
        <ele>1140.2</ele>
        <time>2021-10-09T01:48:48</time>
      </trkpt>
      <trkpt lat="42.95226" lon="-0.01401">
        <ele>1140.2</ele>
        <time>2021-10-09T01:48:49</time>
      </trkpt>
      <trkpt lat="42.95227" lon="-0.01405">
        <ele>1140.2</ele>
        <time>2021-10-09T01:48:50</time>
      </trkpt>
      <trkpt lat="42.95229" lon="-0.01405">
        <ele>1140.2</ele>
        <time>2021-10-09T01:48:51</time>
      </trkpt>
      <trkpt lat="42.9523" lon="-0.01403">
        <ele>1140.2</ele>
        <time>2021-10-09T01:48:52</time>
      </trkpt>
      <trkpt lat="42.95232" lon="-0.01401">
        <ele>1140.4</ele>
        <time>2021-10-09T01:48:53</time>
      </trkpt>
      <trkpt lat="42.95233" lon="-0.01399">
        <ele>1140.6</ele>
        <time>2021-10-09T01:48:54</time>
      </trkpt>
      <trkpt lat="42.95235" lon="-0.01398">
        <ele>1140.8</ele>
        <time>2021-10-09T01:48:55</time>
      </trkpt>
      <trkpt lat="42.95236" lon="-0.01397">
        <ele>1141</ele>
        <time>2021-10-09T01:48:56</time>
      </trkpt>
      <trkpt lat="42.95237" lon="-0.01397">
        <ele>1140.8</ele>
        <time>2021-10-09T01:48:57</time>
      </trkpt>
      <trkpt lat="42.95238" lon="-0.01397">
        <ele>1141</ele>
        <time>2021-10-09T01:48:58</time>
      </trkpt>
      <trkpt lat="42.95238" lon="-0.01398">
        <ele>1141</ele>
        <time>2021-10-09T01:48:59</time>
      </trkpt>
      <trkpt lat="42.95238" lon="-0.01398">
        <ele>1141</ele>
        <time>2021-10-09T01:49:00</time>
      </trkpt>
      <trkpt lat="42.95238" lon="-0.01398">
        <ele>1140.8</ele>
        <time>2021-10-09T01:49:01</time>
      </trkpt>
      <trkpt lat="42.95238" lon="-0.01398">
        <ele>1140.8</ele>
        <time>2021-10-09T01:49:02</time>
      </trkpt>
      <trkpt lat="42.95238" lon="-0.01399">
        <ele>1140.8</ele>
        <time>2021-10-09T01:49:03</time>
      </trkpt>
      <trkpt lat="42.95239" lon="-0.01399">
        <ele>1140.8</ele>
        <time>2021-10-09T01:49:04</time>
      </trkpt>
      <trkpt lat="42.95239" lon="-0.01399">
        <ele>1140.8</ele>
        <time>2021-10-09T01:49:05</time>
      </trkpt>
      <trkpt lat="42.9526" lon="-0.01406">
        <ele>1139.4</ele>
        <time>2021-10-09T01:49:36</time>
      </trkpt>
      <trkpt lat="42.9526" lon="-0.01406">
        <ele>1139.4</ele>
        <time>2021-10-09T01:49:37</time>
      </trkpt>
      <trkpt lat="42.9526" lon="-0.01407">
        <ele>1139.4</ele>
        <time>2021-10-09T01:49:38</time>
      </trkpt>
      <trkpt lat="42.9526" lon="-0.01407">
        <ele>1139.4</ele>
        <time>2021-10-09T01:49:39</time>
      </trkpt>
      <trkpt lat="42.9526" lon="-0.01407">
        <ele>1139.4</ele>
        <time>2021-10-09T01:49:40</time>
      </trkpt>
      <trkpt lat="42.9526" lon="-0.01408">
        <ele>1139</ele>
        <time>2021-10-09T01:49:41</time>
      </trkpt>
      <trkpt lat="42.95259" lon="-0.0141">
        <ele>1138.8</ele>
        <time>2021-10-09T01:49:42</time>
      </trkpt>
      <trkpt lat="42.95258" lon="-0.01413">
        <ele>1138.8</ele>
        <time>2021-10-09T01:49:43</time>
      </trkpt>
      <trkpt lat="42.95254" lon="-0.01436">
        <ele>1137.4</ele>
        <time>2021-10-09T01:49:49</time>
      </trkpt>
      <trkpt lat="42.95254" lon="-0.01438">
        <ele>1137.2</ele>
        <time>2021-10-09T01:49:50</time>
      </trkpt>
      <trkpt lat="42.95254" lon="-0.01441">
        <ele>1137.2</ele>
        <time>2021-10-09T01:49:51</time>
      </trkpt>
      <trkpt lat="42.95255" lon="-0.01443">
        <ele>1137.2</ele>
        <time>2021-10-09T01:49:52</time>
      </trkpt>
      <trkpt lat="42.95255" lon="-0.01446">
        <ele>1137</ele>
        <time>2021-10-09T01:49:53</time>
      </trkpt>
      <trkpt lat="42.95256" lon="-0.01448">
        <ele>1136.8</ele>
        <time>2021-10-09T01:49:54</time>
      </trkpt>
      <trkpt lat="42.95256" lon="-0.01451">
        <ele>1136.8</ele>
        <time>2021-10-09T01:49:55</time>
      </trkpt>
      <trkpt lat="42.95255" lon="-0.01455">
        <ele>1136.8</ele>
        <time>2021-10-09T01:49:56</time>
      </trkpt>
      <trkpt lat="42.95254" lon="-0.01459">
        <ele>1136.8</ele>
        <time>2021-10-09T01:49:57</time>
      </trkpt>
      <trkpt lat="42.95253" lon="-0.01463">
        <ele>1136.8</ele>
        <time>2021-10-09T01:49:58</time>
      </trkpt>
      <trkpt lat="42.95252" lon="-0.01468">
        <ele>1136.8</ele>
        <time>2021-10-09T01:49:59</time>
      </trkpt>
      <trkpt lat="42.95251" lon="-0.01473">
        <ele>1136.8</ele>
        <time>2021-10-09T01:50:00</time>
      </trkpt>
      <trkpt lat="42.9525" lon="-0.01477">
        <ele>1136.8</ele>
        <time>2021-10-09T01:50:01</time>
      </trkpt>
      <trkpt lat="42.95249" lon="-0.01481">
        <ele>1136.8</ele>
        <time>2021-10-09T01:50:02</time>
      </trkpt>
      <trkpt lat="42.95248" lon="-0.01485">
        <ele>1136.6</ele>
        <time>2021-10-09T01:50:03</time>
      </trkpt>
      <trkpt lat="42.95247" lon="-0.01489">
        <ele>1136.6</ele>
        <time>2021-10-09T01:50:04</time>
      </trkpt>
      <trkpt lat="42.95246" lon="-0.01493">
        <ele>1136.8</ele>
        <time>2021-10-09T01:50:05</time>
      </trkpt>
      <trkpt lat="42.95245" lon="-0.01496">
        <ele>1136.8</ele>
        <time>2021-10-09T01:50:06</time>
      </trkpt>
      <trkpt lat="42.95244" lon="-0.015">
        <ele>1136.8</ele>
        <time>2021-10-09T01:50:07</time>
      </trkpt>
      <trkpt lat="42.95242" lon="-0.01503">
        <ele>1136.8</ele>
        <time>2021-10-09T01:50:08</time>
      </trkpt>
      <trkpt lat="42.95241" lon="-0.01506">
        <ele>1136.8</ele>
        <time>2021-10-09T01:50:09</time>
      </trkpt>
      <trkpt lat="42.95239" lon="-0.01509">
        <ele>1136.6</ele>
        <time>2021-10-09T01:50:10</time>
      </trkpt>
      <trkpt lat="42.95238" lon="-0.01513">
        <ele>1136.6</ele>
        <time>2021-10-09T01:50:11</time>
      </trkpt>
      <trkpt lat="42.95236" lon="-0.01516">
        <ele>1136.6</ele>
        <time>2021-10-09T01:50:12</time>
      </trkpt>
      <trkpt lat="42.95235" lon="-0.0152">
        <ele>1136.4</ele>
        <time>2021-10-09T01:50:13</time>
      </trkpt>
      <trkpt lat="42.95235" lon="-0.01523">
        <ele>1136.6</ele>
        <time>2021-10-09T01:50:14</time>
      </trkpt>
      <trkpt lat="42.95234" lon="-0.01527">
        <ele>1136.6</ele>
        <time>2021-10-09T01:50:15</time>
      </trkpt>
      <trkpt lat="42.95233" lon="-0.0153">
        <ele>1136.6</ele>
        <time>2021-10-09T01:50:16</time>
      </trkpt>
      <trkpt lat="42.95231" lon="-0.01533">
        <ele>1136.6</ele>
        <time>2021-10-09T01:50:17</time>
      </trkpt>
      <trkpt lat="42.95231" lon="-0.01536">
        <ele>1136.8</ele>
        <time>2021-10-09T01:50:18</time>
      </trkpt>
      <trkpt lat="42.9523" lon="-0.01538">
        <ele>1136.6</ele>
        <time>2021-10-09T01:50:19</time>
      </trkpt>
      <trkpt lat="42.95228" lon="-0.01542">
        <ele>1136.6</ele>
        <time>2021-10-09T01:50:20</time>
      </trkpt>
      <trkpt lat="42.95228" lon="-0.01545">
        <ele>1136.6</ele>
        <time>2021-10-09T01:50:21</time>
      </trkpt>
      <trkpt lat="42.95228" lon="-0.01548">
        <ele>1136.6</ele>
        <time>2021-10-09T01:50:22</time>
      </trkpt>
      <trkpt lat="42.95227" lon="-0.01552">
        <ele>1136.8</ele>
        <time>2021-10-09T01:50:23</time>
      </trkpt>
      <trkpt lat="42.95226" lon="-0.01554">
        <ele>1136.8</ele>
        <time>2021-10-09T01:50:24</time>
      </trkpt>
      <trkpt lat="42.95225" lon="-0.01557">
        <ele>1136.6</ele>
        <time>2021-10-09T01:50:25</time>
      </trkpt>
      <trkpt lat="42.95223" lon="-0.01559">
        <ele>1136.6</ele>
        <time>2021-10-09T01:50:26</time>
      </trkpt>
      <trkpt lat="42.95221" lon="-0.01562">
        <ele>1136.6</ele>
        <time>2021-10-09T01:50:27</time>
      </trkpt>
      <trkpt lat="42.95219" lon="-0.01564">
        <ele>1136.8</ele>
        <time>2021-10-09T01:50:28</time>
      </trkpt>
      <trkpt lat="42.95218" lon="-0.01566">
        <ele>1136.8</ele>
        <time>2021-10-09T01:50:29</time>
      </trkpt>
      <trkpt lat="42.95216" lon="-0.01567">
        <ele>1136.6</ele>
        <time>2021-10-09T01:50:30</time>
      </trkpt>
      <trkpt lat="42.95214" lon="-0.01569">
        <ele>1136.2</ele>
        <time>2021-10-09T01:50:31</time>
      </trkpt>
      <trkpt lat="42.95211" lon="-0.01571">
        <ele>1136</ele>
        <time>2021-10-09T01:50:32</time>
      </trkpt>
      <trkpt lat="42.95208" lon="-0.01573">
        <ele>1134.8</ele>
        <time>2021-10-09T01:50:33</time>
      </trkpt>
      <trkpt lat="42.95203" lon="-0.01576">
        <ele>1133</ele>
        <time>2021-10-09T01:50:34</time>
      </trkpt>
      <trkpt lat="42.95198" lon="-0.01579">
        <ele>1133</ele>
        <time>2021-10-09T01:50:35</time>
      </trkpt>
      <trkpt lat="42.95193" lon="-0.01582">
        <ele>1133</ele>
        <time>2021-10-09T01:50:36</time>
      </trkpt>
      <trkpt lat="42.9519" lon="-0.01584">
        <ele>1133</ele>
        <time>2021-10-09T01:50:37</time>
      </trkpt>
      <trkpt lat="42.95189" lon="-0.01588">
        <ele>1133</ele>
        <time>2021-10-09T01:50:38</time>
      </trkpt>
      <trkpt lat="42.95188" lon="-0.01593">
        <ele>1133</ele>
        <time>2021-10-09T01:50:39</time>
      </trkpt>
      <trkpt lat="42.95187" lon="-0.01598">
        <ele>1128</ele>
        <time>2021-10-09T01:50:40</time>
      </trkpt>
      <trkpt lat="42.95185" lon="-0.01602">
        <ele>1128.2</ele>
        <time>2021-10-09T01:50:41</time>
      </trkpt>
      <trkpt lat="42.95184" lon="-0.01606">
        <ele>1128.2</ele>
        <time>2021-10-09T01:50:42</time>
      </trkpt>
      <trkpt lat="42.95183" lon="-0.01611">
        <ele>1128.2</ele>
        <time>2021-10-09T01:50:43</time>
      </trkpt>
      <trkpt lat="42.95181" lon="-0.01615">
        <ele>1128.2</ele>
        <time>2021-10-09T01:50:44</time>
      </trkpt>
      <trkpt lat="42.9518" lon="-0.01618">
        <ele>1128.2</ele>
        <time>2021-10-09T01:50:45</time>
      </trkpt>
      <trkpt lat="42.95179" lon="-0.01622">
        <ele>1128.2</ele>
        <time>2021-10-09T01:50:46</time>
      </trkpt>
      <trkpt lat="42.95177" lon="-0.01625">
        <ele>1128.2</ele>
        <time>2021-10-09T01:50:47</time>
      </trkpt>
      <trkpt lat="42.95175" lon="-0.01628">
        <ele>1128</ele>
        <time>2021-10-09T01:50:48</time>
      </trkpt>
      <trkpt lat="42.95173" lon="-0.01631">
        <ele>1128</ele>
        <time>2021-10-09T01:50:49</time>
      </trkpt>
      <trkpt lat="42.95171" lon="-0.01634">
        <ele>1128.2</ele>
        <time>2021-10-09T01:50:50</time>
      </trkpt>
      <trkpt lat="42.95169" lon="-0.01637">
        <ele>1128</ele>
        <time>2021-10-09T01:50:51</time>
      </trkpt>
      <trkpt lat="42.95166" lon="-0.0164">
        <ele>1128.2</ele>
        <time>2021-10-09T01:50:52</time>
      </trkpt>
      <trkpt lat="42.95164" lon="-0.01643">
        <ele>1128.2</ele>
        <time>2021-10-09T01:50:53</time>
      </trkpt>
      <trkpt lat="42.95162" lon="-0.01645">
        <ele>1128.2</ele>
        <time>2021-10-09T01:50:54</time>
      </trkpt>
      <trkpt lat="42.9516" lon="-0.01647">
        <ele>1128</ele>
        <time>2021-10-09T01:50:55</time>
      </trkpt>
      <trkpt lat="42.95158" lon="-0.01649">
        <ele>1128</ele>
        <time>2021-10-09T01:50:56</time>
      </trkpt>
      <trkpt lat="42.95155" lon="-0.01652">
        <ele>1128</ele>
        <time>2021-10-09T01:50:57</time>
      </trkpt>
      <trkpt lat="42.95154" lon="-0.01654">
        <ele>1128</ele>
        <time>2021-10-09T01:50:58</time>
      </trkpt>
      <trkpt lat="42.95152" lon="-0.01658">
        <ele>1128</ele>
        <time>2021-10-09T01:50:59</time>
      </trkpt>
      <trkpt lat="42.9515" lon="-0.01658">
        <ele>1127.8</ele>
        <time>2021-10-09T01:51:00</time>
      </trkpt>
      <trkpt lat="42.95149" lon="-0.01659">
        <ele>1127.8</ele>
        <time>2021-10-09T01:51:01</time>
      </trkpt>
      <trkpt lat="42.95149" lon="-0.01659">
        <ele>1127.8</ele>
        <time>2021-10-09T01:51:02</time>
      </trkpt>
      <trkpt lat="42.95148" lon="-0.0166">
        <ele>1127.8</ele>
        <time>2021-10-09T01:51:03</time>
      </trkpt>
      <trkpt lat="42.95147" lon="-0.01661">
        <ele>1127.8</ele>
        <time>2021-10-09T01:51:04</time>
      </trkpt>
      <trkpt lat="42.95146" lon="-0.01663">
        <ele>1127.8</ele>
        <time>2021-10-09T01:51:05</time>
      </trkpt>
      <trkpt lat="42.95146" lon="-0.01663">
        <ele>1127.8</ele>
        <time>2021-10-09T01:51:06</time>
      </trkpt>
      <trkpt lat="42.95146" lon="-0.01663">
        <ele>1127.8</ele>
        <time>2021-10-09T01:51:07</time>
      </trkpt>
      <trkpt lat="42.95145" lon="-0.01664">
        <ele>1127.8</ele>
        <time>2021-10-09T01:51:08</time>
      </trkpt>
      <trkpt lat="42.95134" lon="-0.01687">
        <ele>1127.4</ele>
        <time>2021-10-09T01:51:21</time>
      </trkpt>
      <trkpt lat="42.95133" lon="-0.0169">
        <ele>1127.4</ele>
        <time>2021-10-09T01:51:22</time>
      </trkpt>
      <trkpt lat="42.95133" lon="-0.01693">
        <ele>1127.4</ele>
        <time>2021-10-09T01:51:23</time>
      </trkpt>
      <trkpt lat="42.95133" lon="-0.01696">
        <ele>1127.4</ele>
        <time>2021-10-09T01:51:24</time>
      </trkpt>
      <trkpt lat="42.95132" lon="-0.01699">
        <ele>1127.4</ele>
        <time>2021-10-09T01:51:25</time>
      </trkpt>
      <trkpt lat="42.95131" lon="-0.01702">
        <ele>1127.2</ele>
        <time>2021-10-09T01:51:26</time>
      </trkpt>
      <trkpt lat="42.95129" lon="-0.01705">
        <ele>1127.4</ele>
        <time>2021-10-09T01:51:27</time>
      </trkpt>
      <trkpt lat="42.95128" lon="-0.01708">
        <ele>1127.4</ele>
        <time>2021-10-09T01:51:28</time>
      </trkpt>
      <trkpt lat="42.95126" lon="-0.0171">
        <ele>1127.4</ele>
        <time>2021-10-09T01:51:29</time>
      </trkpt>
      <trkpt lat="42.95125" lon="-0.01714">
        <ele>1127.6</ele>
        <time>2021-10-09T01:51:30</time>
      </trkpt>
      <trkpt lat="42.95123" lon="-0.01718">
        <ele>1127.4</ele>
        <time>2021-10-09T01:51:31</time>
      </trkpt>
      <trkpt lat="42.95121" lon="-0.01721">
        <ele>1127.4</ele>
        <time>2021-10-09T01:51:32</time>
      </trkpt>
      <trkpt lat="42.9512" lon="-0.01725">
        <ele>1127.6</ele>
        <time>2021-10-09T01:51:33</time>
      </trkpt>
      <trkpt lat="42.95119" lon="-0.01728">
        <ele>1127.6</ele>
        <time>2021-10-09T01:51:34</time>
      </trkpt>
      <trkpt lat="42.95118" lon="-0.01732">
        <ele>1127.6</ele>
        <time>2021-10-09T01:51:35</time>
      </trkpt>
      <trkpt lat="42.95117" lon="-0.01735">
        <ele>1127.8</ele>
        <time>2021-10-09T01:51:36</time>
      </trkpt>
      <trkpt lat="42.95116" lon="-0.01738">
        <ele>1127.8</ele>
        <time>2021-10-09T01:51:37</time>
      </trkpt>
      <trkpt lat="42.95115" lon="-0.0174">
        <ele>1127.6</ele>
        <time>2021-10-09T01:51:38</time>
      </trkpt>
      <trkpt lat="42.95113" lon="-0.01744">
        <ele>1127.6</ele>
        <time>2021-10-09T01:51:39</time>
      </trkpt>
      <trkpt lat="42.95112" lon="-0.01747">
        <ele>1127.6</ele>
        <time>2021-10-09T01:51:40</time>
      </trkpt>
      <trkpt lat="42.95111" lon="-0.01751">
        <ele>1128</ele>
        <time>2021-10-09T01:51:41</time>
      </trkpt>
      <trkpt lat="42.95111" lon="-0.01754">
        <ele>1128.4</ele>
        <time>2021-10-09T01:51:42</time>
      </trkpt>
      <trkpt lat="42.95111" lon="-0.01758">
        <ele>1128.8</ele>
        <time>2021-10-09T01:51:43</time>
      </trkpt>
      <trkpt lat="42.95111" lon="-0.0176">
        <ele>1128.8</ele>
        <time>2021-10-09T01:51:44</time>
      </trkpt>
      <trkpt lat="42.9511" lon="-0.01763">
        <ele>1129</ele>
        <time>2021-10-09T01:51:45</time>
      </trkpt>
      <trkpt lat="42.95109" lon="-0.01764">
        <ele>1128.8</ele>
        <time>2021-10-09T01:51:46</time>
      </trkpt>
      <trkpt lat="42.95107" lon="-0.01765">
        <ele>1128.6</ele>
        <time>2021-10-09T01:51:47</time>
      </trkpt>
      <trkpt lat="42.95106" lon="-0.01767">
        <ele>1127.8</ele>
        <time>2021-10-09T01:51:48</time>
      </trkpt>
      <trkpt lat="42.95104" lon="-0.01771">
        <ele>1127.6</ele>
        <time>2021-10-09T01:51:49</time>
      </trkpt>
      <trkpt lat="42.95103" lon="-0.01775">
        <ele>1127.6</ele>
        <time>2021-10-09T01:51:50</time>
      </trkpt>
      <trkpt lat="42.95103" lon="-0.01779">
        <ele>1127.6</ele>
        <time>2021-10-09T01:51:51</time>
      </trkpt>
      <trkpt lat="42.95103" lon="-0.01784">
        <ele>1127.6</ele>
        <time>2021-10-09T01:51:52</time>
      </trkpt>
      <trkpt lat="42.95103" lon="-0.01788">
        <ele>1127.6</ele>
        <time>2021-10-09T01:51:53</time>
      </trkpt>
      <trkpt lat="42.95102" lon="-0.01793">
        <ele>1127.4</ele>
        <time>2021-10-09T01:51:54</time>
      </trkpt>
      <trkpt lat="42.95102" lon="-0.01797">
        <ele>1127.6</ele>
        <time>2021-10-09T01:51:55</time>
      </trkpt>
      <trkpt lat="42.95102" lon="-0.01802">
        <ele>1127.6</ele>
        <time>2021-10-09T01:51:56</time>
      </trkpt>
      <trkpt lat="42.95102" lon="-0.01806">
        <ele>1127.4</ele>
        <time>2021-10-09T01:51:57</time>
      </trkpt>
      <trkpt lat="42.95101" lon="-0.0181">
        <ele>1127.4</ele>
        <time>2021-10-09T01:51:58</time>
      </trkpt>
      <trkpt lat="42.95101" lon="-0.01815">
        <ele>1127.4</ele>
        <time>2021-10-09T01:51:59</time>
      </trkpt>
      <trkpt lat="42.95101" lon="-0.01819">
        <ele>1127.4</ele>
        <time>2021-10-09T01:52:00</time>
      </trkpt>
      <trkpt lat="42.95101" lon="-0.01823">
        <ele>1127.4</ele>
        <time>2021-10-09T01:52:01</time>
      </trkpt>
      <trkpt lat="42.951" lon="-0.01826">
        <ele>1127.4</ele>
        <time>2021-10-09T01:52:02</time>
      </trkpt>
      <trkpt lat="42.95099" lon="-0.01831">
        <ele>1127.2</ele>
        <time>2021-10-09T01:52:03</time>
      </trkpt>
      <trkpt lat="42.95098" lon="-0.01835">
        <ele>1127.4</ele>
        <time>2021-10-09T01:52:04</time>
      </trkpt>
      <trkpt lat="42.95097" lon="-0.01839">
        <ele>1127.4</ele>
        <time>2021-10-09T01:52:05</time>
      </trkpt>
      <trkpt lat="42.95096" lon="-0.01843">
        <ele>1127.2</ele>
        <time>2021-10-09T01:52:06</time>
      </trkpt>
      <trkpt lat="42.95094" lon="-0.01846">
        <ele>1127.2</ele>
        <time>2021-10-09T01:52:07</time>
      </trkpt>
      <trkpt lat="42.95093" lon="-0.0185">
        <ele>1127.2</ele>
        <time>2021-10-09T01:52:08</time>
      </trkpt>
      <trkpt lat="42.95091" lon="-0.01854">
        <ele>1127.2</ele>
        <time>2021-10-09T01:52:09</time>
      </trkpt>
      <trkpt lat="42.9509" lon="-0.01857">
        <ele>1127.4</ele>
        <time>2021-10-09T01:52:10</time>
      </trkpt>
      <trkpt lat="42.95089" lon="-0.01861">
        <ele>1127.2</ele>
        <time>2021-10-09T01:52:11</time>
      </trkpt>
      <trkpt lat="42.95086" lon="-0.01869">
        <ele>1127.4</ele>
        <time>2021-10-09T01:52:12</time>
      </trkpt>
      <trkpt lat="42.95086" lon="-0.01869">
        <ele>1127.4</ele>
        <time>2021-10-09T01:52:13</time>
      </trkpt>
      <trkpt lat="42.95085" lon="-0.01873">
        <ele>1127.4</ele>
        <time>2021-10-09T01:52:14</time>
      </trkpt>
      <trkpt lat="42.95084" lon="-0.01877">
        <ele>1127.4</ele>
        <time>2021-10-09T01:52:15</time>
      </trkpt>
      <trkpt lat="42.95083" lon="-0.01881">
        <ele>1127.4</ele>
        <time>2021-10-09T01:52:16</time>
      </trkpt>
      <trkpt lat="42.95082" lon="-0.01885">
        <ele>1127.4</ele>
        <time>2021-10-09T01:52:17</time>
      </trkpt>
      <trkpt lat="42.95081" lon="-0.01889">
        <ele>1127.4</ele>
        <time>2021-10-09T01:52:18</time>
      </trkpt>
      <trkpt lat="42.9508" lon="-0.01893">
        <ele>1127.4</ele>
        <time>2021-10-09T01:52:19</time>
      </trkpt>
      <trkpt lat="42.95078" lon="-0.01896">
        <ele>1127.6</ele>
        <time>2021-10-09T01:52:20</time>
      </trkpt>
      <trkpt lat="42.95077" lon="-0.019">
        <ele>1127.4</ele>
        <time>2021-10-09T01:52:21</time>
      </trkpt>
      <trkpt lat="42.95076" lon="-0.01903">
        <ele>1127.4</ele>
        <time>2021-10-09T01:52:22</time>
      </trkpt>
      <trkpt lat="42.95074" lon="-0.0191">
        <ele>1127.6</ele>
        <time>2021-10-09T01:52:23</time>
      </trkpt>
      <trkpt lat="42.95074" lon="-0.0191">
        <ele>1127.6</ele>
        <time>2021-10-09T01:52:24</time>
      </trkpt>
      <trkpt lat="42.95073" lon="-0.01915">
        <ele>1127.4</ele>
        <time>2021-10-09T01:52:25</time>
      </trkpt>
      <trkpt lat="42.95072" lon="-0.01919">
        <ele>1127.2</ele>
        <time>2021-10-09T01:52:26</time>
      </trkpt>
      <trkpt lat="42.95071" lon="-0.01924">
        <ele>1127.2</ele>
        <time>2021-10-09T01:52:27</time>
      </trkpt>
      <trkpt lat="42.9507" lon="-0.01929">
        <ele>1127</ele>
        <time>2021-10-09T01:52:28</time>
      </trkpt>
      <trkpt lat="42.95069" lon="-0.01934">
        <ele>1126.8</ele>
        <time>2021-10-09T01:52:29</time>
      </trkpt>
      <trkpt lat="42.95069" lon="-0.01939">
        <ele>1126.8</ele>
        <time>2021-10-09T01:52:30</time>
      </trkpt>
      <trkpt lat="42.95068" lon="-0.01943">
        <ele>1126.6</ele>
        <time>2021-10-09T01:52:31</time>
      </trkpt>
      <trkpt lat="42.95068" lon="-0.01948">
        <ele>1126.8</ele>
        <time>2021-10-09T01:52:32</time>
      </trkpt>
      <trkpt lat="42.95068" lon="-0.01953">
        <ele>1126.8</ele>
        <time>2021-10-09T01:52:33</time>
      </trkpt>
      <trkpt lat="42.95069" lon="-0.01957">
        <ele>1126.8</ele>
        <time>2021-10-09T01:52:34</time>
      </trkpt>
      <trkpt lat="42.95069" lon="-0.01962">
        <ele>1126.8</ele>
        <time>2021-10-09T01:52:35</time>
      </trkpt>
      <trkpt lat="42.95069" lon="-0.01966">
        <ele>1126.8</ele>
        <time>2021-10-09T01:52:36</time>
      </trkpt>
      <trkpt lat="42.95069" lon="-0.01971">
        <ele>1126.8</ele>
        <time>2021-10-09T01:52:37</time>
      </trkpt>
      <trkpt lat="42.95069" lon="-0.01975">
        <ele>1126.8</ele>
        <time>2021-10-09T01:52:38</time>
      </trkpt>
      <trkpt lat="42.95069" lon="-0.01979">
        <ele>1127</ele>
        <time>2021-10-09T01:52:39</time>
      </trkpt>
      <trkpt lat="42.95068" lon="-0.01983">
        <ele>1127</ele>
        <time>2021-10-09T01:52:40</time>
      </trkpt>
      <trkpt lat="42.95067" lon="-0.01987">
        <ele>1127</ele>
        <time>2021-10-09T01:52:41</time>
      </trkpt>
      <trkpt lat="42.95066" lon="-0.0199">
        <ele>1127</ele>
        <time>2021-10-09T01:52:42</time>
      </trkpt>
      <trkpt lat="42.95064" lon="-0.01994">
        <ele>1127</ele>
        <time>2021-10-09T01:52:43</time>
      </trkpt>
      <trkpt lat="42.95063" lon="-0.01998">
        <ele>1127</ele>
        <time>2021-10-09T01:52:44</time>
      </trkpt>
      <trkpt lat="42.95062" lon="-0.02002">
        <ele>1127</ele>
        <time>2021-10-09T01:52:45</time>
      </trkpt>
      <trkpt lat="42.95061" lon="-0.02006">
        <ele>1127</ele>
        <time>2021-10-09T01:52:46</time>
      </trkpt>
      <trkpt lat="42.95059" lon="-0.0201">
        <ele>1127</ele>
        <time>2021-10-09T01:52:47</time>
      </trkpt>
      <trkpt lat="42.95058" lon="-0.02015">
        <ele>1127</ele>
        <time>2021-10-09T01:52:48</time>
      </trkpt>
      <trkpt lat="42.95057" lon="-0.02019">
        <ele>1127</ele>
        <time>2021-10-09T01:52:49</time>
      </trkpt>
      <trkpt lat="42.95056" lon="-0.02023">
        <ele>1126.8</ele>
        <time>2021-10-09T01:52:50</time>
      </trkpt>
      <trkpt lat="42.95055" lon="-0.02028">
        <ele>1126.8</ele>
        <time>2021-10-09T01:52:51</time>
      </trkpt>
      <trkpt lat="42.95054" lon="-0.02033">
        <ele>1126.8</ele>
        <time>2021-10-09T01:52:52</time>
      </trkpt>
      <trkpt lat="42.95053" lon="-0.02037">
        <ele>1126.8</ele>
        <time>2021-10-09T01:52:53</time>
      </trkpt>
      <trkpt lat="42.95052" lon="-0.02042">
        <ele>1126.8</ele>
        <time>2021-10-09T01:52:54</time>
      </trkpt>
      <trkpt lat="42.95051" lon="-0.02046">
        <ele>1126.8</ele>
        <time>2021-10-09T01:52:55</time>
      </trkpt>
      <trkpt lat="42.95049" lon="-0.02051">
        <ele>1126.8</ele>
        <time>2021-10-09T01:52:56</time>
      </trkpt>
      <trkpt lat="42.95048" lon="-0.02056">
        <ele>1126.8</ele>
        <time>2021-10-09T01:52:57</time>
      </trkpt>
      <trkpt lat="42.95046" lon="-0.02065">
        <ele>1126.8</ele>
        <time>2021-10-09T01:52:58</time>
      </trkpt>
      <trkpt lat="42.95046" lon="-0.02065">
        <ele>1126.6</ele>
        <time>2021-10-09T01:52:59</time>
      </trkpt>
      <trkpt lat="42.95044" lon="-0.0207">
        <ele>1126.6</ele>
        <time>2021-10-09T01:53:00</time>
      </trkpt>
      <trkpt lat="42.95043" lon="-0.02074">
        <ele>1126.6</ele>
        <time>2021-10-09T01:53:01</time>
      </trkpt>
      <trkpt lat="42.95042" lon="-0.02077">
        <ele>1126.6</ele>
        <time>2021-10-09T01:53:02</time>
      </trkpt>
      <trkpt lat="42.9504" lon="-0.02082">
        <ele>1126.6</ele>
        <time>2021-10-09T01:53:03</time>
      </trkpt>
      <trkpt lat="42.95039" lon="-0.02086">
        <ele>1126.6</ele>
        <time>2021-10-09T01:53:04</time>
      </trkpt>
      <trkpt lat="42.95037" lon="-0.02096">
        <ele>1126.6</ele>
        <time>2021-10-09T01:53:05</time>
      </trkpt>
      <trkpt lat="42.95037" lon="-0.02096">
        <ele>1126.6</ele>
        <time>2021-10-09T01:53:06</time>
      </trkpt>
      <trkpt lat="42.95037" lon="-0.02101">
        <ele>1126.6</ele>
        <time>2021-10-09T01:53:07</time>
      </trkpt>
      <trkpt lat="42.95036" lon="-0.02106">
        <ele>1126.4</ele>
        <time>2021-10-09T01:53:08</time>
      </trkpt>
      <trkpt lat="42.95036" lon="-0.02111">
        <ele>1126.6</ele>
        <time>2021-10-09T01:53:09</time>
      </trkpt>
      <trkpt lat="42.95036" lon="-0.02116">
        <ele>1126.4</ele>
        <time>2021-10-09T01:53:10</time>
      </trkpt>
      <trkpt lat="42.95036" lon="-0.02122">
        <ele>1126.6</ele>
        <time>2021-10-09T01:53:11</time>
      </trkpt>
      <trkpt lat="42.95036" lon="-0.02127">
        <ele>1126.6</ele>
        <time>2021-10-09T01:53:12</time>
      </trkpt>
      <trkpt lat="42.95036" lon="-0.02132">
        <ele>1126.4</ele>
        <time>2021-10-09T01:53:13</time>
      </trkpt>
      <trkpt lat="42.95036" lon="-0.02137">
        <ele>1126.4</ele>
        <time>2021-10-09T01:53:14</time>
      </trkpt>
      <trkpt lat="42.95036" lon="-0.02143">
        <ele>1126.6</ele>
        <time>2021-10-09T01:53:15</time>
      </trkpt>
      <trkpt lat="42.95036" lon="-0.02148">
        <ele>1126.6</ele>
        <time>2021-10-09T01:53:16</time>
      </trkpt>
      <trkpt lat="42.95037" lon="-0.02153">
        <ele>1126.8</ele>
        <time>2021-10-09T01:53:17</time>
      </trkpt>
      <trkpt lat="42.95038" lon="-0.02158">
        <ele>1126.8</ele>
        <time>2021-10-09T01:53:18</time>
      </trkpt>
      <trkpt lat="42.9504" lon="-0.02167">
        <ele>1126.8</ele>
        <time>2021-10-09T01:53:19</time>
      </trkpt>
      <trkpt lat="42.9504" lon="-0.02167">
        <ele>1126.6</ele>
        <time>2021-10-09T01:53:20</time>
      </trkpt>
      <trkpt lat="42.95041" lon="-0.02172">
        <ele>1126.4</ele>
        <time>2021-10-09T01:53:21</time>
      </trkpt>
      <trkpt lat="42.95041" lon="-0.02178">
        <ele>1126.4</ele>
        <time>2021-10-09T01:53:22</time>
      </trkpt>
      <trkpt lat="42.95042" lon="-0.02183">
        <ele>1126.4</ele>
        <time>2021-10-09T01:53:23</time>
      </trkpt>
      <trkpt lat="42.95043" lon="-0.02188">
        <ele>1126.4</ele>
        <time>2021-10-09T01:53:24</time>
      </trkpt>
      <trkpt lat="42.95044" lon="-0.02194">
        <ele>1126.4</ele>
        <time>2021-10-09T01:53:25</time>
      </trkpt>
      <trkpt lat="42.95044" lon="-0.022">
        <ele>1126.2</ele>
        <time>2021-10-09T01:53:26</time>
      </trkpt>
      <trkpt lat="42.95045" lon="-0.02205">
        <ele>1126.2</ele>
        <time>2021-10-09T01:53:27</time>
      </trkpt>
      <trkpt lat="42.95045" lon="-0.02211">
        <ele>1126.2</ele>
        <time>2021-10-09T01:53:28</time>
      </trkpt>
      <trkpt lat="42.95044" lon="-0.02217">
        <ele>1126.2</ele>
        <time>2021-10-09T01:53:29</time>
      </trkpt>
      <trkpt lat="42.95044" lon="-0.02228">
        <ele>1126</ele>
        <time>2021-10-09T01:53:30</time>
      </trkpt>
      <trkpt lat="42.95044" lon="-0.02228">
        <ele>1126.2</ele>
        <time>2021-10-09T01:53:31</time>
      </trkpt>
      <trkpt lat="42.95043" lon="-0.02234">
        <ele>1126.4</ele>
        <time>2021-10-09T01:53:32</time>
      </trkpt>
      <trkpt lat="42.95043" lon="-0.02246">
        <ele>1126.4</ele>
        <time>2021-10-09T01:53:33</time>
      </trkpt>
      <trkpt lat="42.95043" lon="-0.02246">
        <ele>1126.2</ele>
        <time>2021-10-09T01:53:34</time>
      </trkpt>
      <trkpt lat="42.95043" lon="-0.02253">
        <ele>1126</ele>
        <time>2021-10-09T01:53:35</time>
      </trkpt>
      <trkpt lat="42.95043" lon="-0.02258">
        <ele>1126</ele>
        <time>2021-10-09T01:53:36</time>
      </trkpt>
      <trkpt lat="42.95043" lon="-0.02264">
        <ele>1126</ele>
        <time>2021-10-09T01:53:37</time>
      </trkpt>
      <trkpt lat="42.95043" lon="-0.0227">
        <ele>1126</ele>
        <time>2021-10-09T01:53:38</time>
      </trkpt>
      <trkpt lat="42.95043" lon="-0.02276">
        <ele>1126</ele>
        <time>2021-10-09T01:53:39</time>
      </trkpt>
      <trkpt lat="42.95044" lon="-0.02282">
        <ele>1126</ele>
        <time>2021-10-09T01:53:40</time>
      </trkpt>
      <trkpt lat="42.95044" lon="-0.02287">
        <ele>1126</ele>
        <time>2021-10-09T01:53:41</time>
      </trkpt>
      <trkpt lat="42.95044" lon="-0.02293">
        <ele>1126</ele>
        <time>2021-10-09T01:53:42</time>
      </trkpt>
      <trkpt lat="42.95045" lon="-0.02298">
        <ele>1125.8</ele>
        <time>2021-10-09T01:53:43</time>
      </trkpt>
      <trkpt lat="42.95045" lon="-0.02303">
        <ele>1125.8</ele>
        <time>2021-10-09T01:53:44</time>
      </trkpt>
      <trkpt lat="42.95046" lon="-0.02308">
        <ele>1125.8</ele>
        <time>2021-10-09T01:53:45</time>
      </trkpt>
      <trkpt lat="42.95047" lon="-0.02318">
        <ele>1125.6</ele>
        <time>2021-10-09T01:53:46</time>
      </trkpt>
      <trkpt lat="42.95047" lon="-0.02318">
        <ele>1125.8</ele>
        <time>2021-10-09T01:53:47</time>
      </trkpt>
      <trkpt lat="42.95048" lon="-0.02324">
        <ele>1125.8</ele>
        <time>2021-10-09T01:53:48</time>
      </trkpt>
      <trkpt lat="42.9505" lon="-0.02334">
        <ele>1125.8</ele>
        <time>2021-10-09T01:53:49</time>
      </trkpt>
      <trkpt lat="42.95052" lon="-0.02339">
        <ele>1125.8</ele>
        <time>2021-10-09T01:53:50</time>
      </trkpt>
      <trkpt lat="42.95052" lon="-0.02339">
        <ele>1125.8</ele>
        <time>2021-10-09T01:53:51</time>
      </trkpt>
      <trkpt lat="42.95053" lon="-0.02344">
        <ele>1125.8</ele>
        <time>2021-10-09T01:53:52</time>
      </trkpt>
      <trkpt lat="42.95055" lon="-0.02348">
        <ele>1125.6</ele>
        <time>2021-10-09T01:53:53</time>
      </trkpt>
      <trkpt lat="42.95057" lon="-0.02353">
        <ele>1125.4</ele>
        <time>2021-10-09T01:53:54</time>
      </trkpt>
      <trkpt lat="42.95059" lon="-0.02358">
        <ele>1125.4</ele>
        <time>2021-10-09T01:53:55</time>
      </trkpt>
      <trkpt lat="42.95062" lon="-0.02368">
        <ele>1125.4</ele>
        <time>2021-10-09T01:53:56</time>
      </trkpt>
      <trkpt lat="42.95064" lon="-0.02372">
        <ele>1125.4</ele>
        <time>2021-10-09T01:53:57</time>
      </trkpt>
      <trkpt lat="42.95064" lon="-0.02372">
        <ele>1125.6</ele>
        <time>2021-10-09T01:53:58</time>
      </trkpt>
      <trkpt lat="42.95064" lon="-0.02377">
        <ele>1125.6</ele>
        <time>2021-10-09T01:53:59</time>
      </trkpt>
      <trkpt lat="42.95065" lon="-0.02383">
        <ele>1125.4</ele>
        <time>2021-10-09T01:54:00</time>
      </trkpt>
      <trkpt lat="42.95066" lon="-0.02388">
        <ele>1125.4</ele>
        <time>2021-10-09T01:54:01</time>
      </trkpt>
      <trkpt lat="42.95067" lon="-0.02399">
        <ele>1125.4</ele>
        <time>2021-10-09T01:54:02</time>
      </trkpt>
      <trkpt lat="42.95067" lon="-0.02399">
        <ele>1125.4</ele>
        <time>2021-10-09T01:54:03</time>
      </trkpt>
      <trkpt lat="42.95067" lon="-0.02405">
        <ele>1125.4</ele>
        <time>2021-10-09T01:54:04</time>
      </trkpt>
      <trkpt lat="42.95067" lon="-0.0241">
        <ele>1125.4</ele>
        <time>2021-10-09T01:54:05</time>
      </trkpt>
      <trkpt lat="42.95068" lon="-0.0242">
        <ele>1125.6</ele>
        <time>2021-10-09T01:54:06</time>
      </trkpt>
      <trkpt lat="42.95069" lon="-0.02426">
        <ele>1125.6</ele>
        <time>2021-10-09T01:54:07</time>
      </trkpt>
      <trkpt lat="42.9507" lon="-0.02431">
        <ele>1125.6</ele>
        <time>2021-10-09T01:54:08</time>
      </trkpt>
      <trkpt lat="42.9507" lon="-0.02431">
        <ele>1125.4</ele>
        <time>2021-10-09T01:54:09</time>
      </trkpt>
      <trkpt lat="42.95072" lon="-0.02436">
        <ele>1125.4</ele>
        <time>2021-10-09T01:54:10</time>
      </trkpt>
      <trkpt lat="42.95073" lon="-0.02441">
        <ele>1125.4</ele>
        <time>2021-10-09T01:54:11</time>
      </trkpt>
      <trkpt lat="42.95075" lon="-0.02446">
        <ele>1125.2</ele>
        <time>2021-10-09T01:54:12</time>
      </trkpt>
      <trkpt lat="42.95077" lon="-0.02456">
        <ele>1125.6</ele>
        <time>2021-10-09T01:54:13</time>
      </trkpt>
      <trkpt lat="42.95078" lon="-0.02461">
        <ele>1125.4</ele>
        <time>2021-10-09T01:54:14</time>
      </trkpt>
      <trkpt lat="42.95079" lon="-0.02466">
        <ele>1125.4</ele>
        <time>2021-10-09T01:54:15</time>
      </trkpt>
      <trkpt lat="42.95079" lon="-0.02466">
        <ele>1125.2</ele>
        <time>2021-10-09T01:54:16</time>
      </trkpt>
      <trkpt lat="42.95079" lon="-0.02472">
        <ele>1125</ele>
        <time>2021-10-09T01:54:17</time>
      </trkpt>
      <trkpt lat="42.9508" lon="-0.02477">
        <ele>1125.2</ele>
        <time>2021-10-09T01:54:18</time>
      </trkpt>
      <trkpt lat="42.9508" lon="-0.02483">
        <ele>1125.2</ele>
        <time>2021-10-09T01:54:19</time>
      </trkpt>
      <trkpt lat="42.95079" lon="-0.02493">
        <ele>1125.2</ele>
        <time>2021-10-09T01:54:20</time>
      </trkpt>
      <trkpt lat="42.95079" lon="-0.02499">
        <ele>1125</ele>
        <time>2021-10-09T01:54:21</time>
      </trkpt>
      <trkpt lat="42.95079" lon="-0.02504">
        <ele>1125</ele>
        <time>2021-10-09T01:54:22</time>
      </trkpt>
      <trkpt lat="42.95079" lon="-0.02504">
        <ele>1125</ele>
        <time>2021-10-09T01:54:23</time>
      </trkpt>
      <trkpt lat="42.95079" lon="-0.02515">
        <ele>1125</ele>
        <time>2021-10-09T01:54:24</time>
      </trkpt>
      <trkpt lat="42.95079" lon="-0.02515">
        <ele>1125</ele>
        <time>2021-10-09T01:54:25</time>
      </trkpt>
      <trkpt lat="42.95079" lon="-0.02521">
        <ele>1125</ele>
        <time>2021-10-09T01:54:26</time>
      </trkpt>
      <trkpt lat="42.9508" lon="-0.02527">
        <ele>1125</ele>
        <time>2021-10-09T01:54:27</time>
      </trkpt>
      <trkpt lat="42.95082" lon="-0.02538">
        <ele>1124.8</ele>
        <time>2021-10-09T01:54:28</time>
      </trkpt>
      <trkpt lat="42.95083" lon="-0.02544">
        <ele>1124.8</ele>
        <time>2021-10-09T01:54:29</time>
      </trkpt>
      <trkpt lat="42.95084" lon="-0.02549">
        <ele>1124.8</ele>
        <time>2021-10-09T01:54:30</time>
      </trkpt>
      <trkpt lat="42.95084" lon="-0.02549">
        <ele>1124.8</ele>
        <time>2021-10-09T01:54:31</time>
      </trkpt>
      <trkpt lat="42.95085" lon="-0.02555">
        <ele>1124.8</ele>
        <time>2021-10-09T01:54:32</time>
      </trkpt>
      <trkpt lat="42.95086" lon="-0.0256">
        <ele>1124.6</ele>
        <time>2021-10-09T01:54:33</time>
      </trkpt>
      <trkpt lat="42.95087" lon="-0.02566">
        <ele>1124.6</ele>
        <time>2021-10-09T01:54:34</time>
      </trkpt>
      <trkpt lat="42.95091" lon="-0.02576">
        <ele>1124.8</ele>
        <time>2021-10-09T01:54:35</time>
      </trkpt>
      <trkpt lat="42.95094" lon="-0.02581">
        <ele>1124.6</ele>
        <time>2021-10-09T01:54:36</time>
      </trkpt>
      <trkpt lat="42.95096" lon="-0.02585">
        <ele>1124.6</ele>
        <time>2021-10-09T01:54:37</time>
      </trkpt>
      <trkpt lat="42.95098" lon="-0.0259">
        <ele>1124.6</ele>
        <time>2021-10-09T01:54:38</time>
      </trkpt>
      <trkpt lat="42.95098" lon="-0.0259">
        <ele>1124.8</ele>
        <time>2021-10-09T01:54:39</time>
      </trkpt>
      <trkpt lat="42.95101" lon="-0.02594">
        <ele>1124.6</ele>
        <time>2021-10-09T01:54:40</time>
      </trkpt>
      <trkpt lat="42.95104" lon="-0.02597">
        <ele>1124.6</ele>
        <time>2021-10-09T01:54:41</time>
      </trkpt>
      <trkpt lat="42.95106" lon="-0.02601">
        <ele>1124.6</ele>
        <time>2021-10-09T01:54:42</time>
      </trkpt>
      <trkpt lat="42.95111" lon="-0.02606">
        <ele>1124.4</ele>
        <time>2021-10-09T01:54:43</time>
      </trkpt>
      <trkpt lat="42.95113" lon="-0.0261">
        <ele>1124.4</ele>
        <time>2021-10-09T01:54:44</time>
      </trkpt>
      <trkpt lat="42.95115" lon="-0.02614">
        <ele>1124.4</ele>
        <time>2021-10-09T01:54:45</time>
      </trkpt>
      <trkpt lat="42.95115" lon="-0.02614">
        <ele>1124.4</ele>
        <time>2021-10-09T01:54:46</time>
      </trkpt>
      <trkpt lat="42.95116" lon="-0.02618">
        <ele>1124.4</ele>
        <time>2021-10-09T01:54:47</time>
      </trkpt>
      <trkpt lat="42.95118" lon="-0.02622">
        <ele>1124.4</ele>
        <time>2021-10-09T01:54:48</time>
      </trkpt>
      <trkpt lat="42.95119" lon="-0.0263">
        <ele>1124.6</ele>
        <time>2021-10-09T01:54:49</time>
      </trkpt>
      <trkpt lat="42.95119" lon="-0.0263">
        <ele>1124.6</ele>
        <time>2021-10-09T01:54:50</time>
      </trkpt>
      <trkpt lat="42.9512" lon="-0.02638">
        <ele>1124.4</ele>
        <time>2021-10-09T01:54:51</time>
      </trkpt>
      <trkpt lat="42.9512" lon="-0.0264">
        <ele>1124.4</ele>
        <time>2021-10-09T01:54:52</time>
      </trkpt>
      <trkpt lat="42.9512" lon="-0.02641">
        <ele>1124.4</ele>
        <time>2021-10-09T01:54:53</time>
      </trkpt>
      <trkpt lat="42.9512" lon="-0.02641">
        <ele>1124.4</ele>
        <time>2021-10-09T01:54:54</time>
      </trkpt>
      <trkpt lat="42.9512" lon="-0.02641">
        <ele>1124.4</ele>
        <time>2021-10-09T01:54:55</time>
      </trkpt>
      <trkpt lat="42.9512" lon="-0.02641">
        <ele>1124.4</ele>
        <time>2021-10-09T01:54:56</time>
      </trkpt>
      <trkpt lat="42.9512" lon="-0.02641">
        <ele>1124.2</ele>
        <time>2021-10-09T01:54:57</time>
      </trkpt>
      <trkpt lat="42.9512" lon="-0.02641">
        <ele>1124.2</ele>
        <time>2021-10-09T01:54:58</time>
      </trkpt>
      <trkpt lat="42.9512" lon="-0.02641">
        <ele>1124.2</ele>
        <time>2021-10-09T01:54:59</time>
      </trkpt>
      <trkpt lat="42.9512" lon="-0.02641">
        <ele>1124.4</ele>
        <time>2021-10-09T01:55:00</time>
      </trkpt>
      <trkpt lat="42.95117" lon="-0.02681">
        <ele>1123.4</ele>
        <time>2021-10-09T01:56:09</time>
      </trkpt>
      <trkpt lat="42.95117" lon="-0.02685">
        <ele>1123.2</ele>
        <time>2021-10-09T01:56:10</time>
      </trkpt>
      <trkpt lat="42.95118" lon="-0.02689">
        <ele>1123.2</ele>
        <time>2021-10-09T01:56:11</time>
      </trkpt>
      <trkpt lat="42.95119" lon="-0.02693">
        <ele>1123.2</ele>
        <time>2021-10-09T01:56:12</time>
      </trkpt>
      <trkpt lat="42.95119" lon="-0.02693">
        <ele>1123.2</ele>
        <time>2021-10-09T01:56:13</time>
      </trkpt>
      <trkpt lat="42.9512" lon="-0.02697">
        <ele>1123</ele>
        <time>2021-10-09T01:56:14</time>
      </trkpt>
      <trkpt lat="42.95121" lon="-0.02706">
        <ele>1123</ele>
        <time>2021-10-09T01:56:15</time>
      </trkpt>
      <trkpt lat="42.95121" lon="-0.0271">
        <ele>1123</ele>
        <time>2021-10-09T01:56:16</time>
      </trkpt>
      <trkpt lat="42.95122" lon="-0.02714">
        <ele>1122.8</ele>
        <time>2021-10-09T01:56:17</time>
      </trkpt>
      <trkpt lat="42.95122" lon="-0.02717">
        <ele>1122.8</ele>
        <time>2021-10-09T01:56:18</time>
      </trkpt>
      <trkpt lat="42.95123" lon="-0.0272">
        <ele>1123</ele>
        <time>2021-10-09T01:56:19</time>
      </trkpt>
      <trkpt lat="42.95123" lon="-0.02722">
        <ele>1122.8</ele>
        <time>2021-10-09T01:56:20</time>
      </trkpt>
      <trkpt lat="42.95123" lon="-0.02722">
        <ele>1122.8</ele>
        <time>2021-10-09T01:56:21</time>
      </trkpt>
      <trkpt lat="42.95124" lon="-0.02724">
        <ele>1122.8</ele>
        <time>2021-10-09T01:56:22</time>
      </trkpt>
      <trkpt lat="42.95126" lon="-0.02729">
        <ele>1122.8</ele>
        <time>2021-10-09T01:56:23</time>
      </trkpt>
      <trkpt lat="42.95127" lon="-0.02731">
        <ele>1122.8</ele>
        <time>2021-10-09T01:56:24</time>
      </trkpt>
      <trkpt lat="42.95128" lon="-0.02733">
        <ele>1122.6</ele>
        <time>2021-10-09T01:56:25</time>
      </trkpt>
      <trkpt lat="42.95129" lon="-0.02735">
        <ele>1122.8</ele>
        <time>2021-10-09T01:56:26</time>
      </trkpt>
      <trkpt lat="42.95129" lon="-0.02735">
        <ele>1122.6</ele>
        <time>2021-10-09T01:56:27</time>
      </trkpt>
      <trkpt lat="42.95131" lon="-0.02737">
        <ele>1122.8</ele>
        <time>2021-10-09T01:56:28</time>
      </trkpt>
      <trkpt lat="42.95133" lon="-0.02742">
        <ele>1122.6</ele>
        <time>2021-10-09T01:56:29</time>
      </trkpt>
      <trkpt lat="42.95135" lon="-0.02745">
        <ele>1122.6</ele>
        <time>2021-10-09T01:56:30</time>
      </trkpt>
      <trkpt lat="42.95137" lon="-0.02748">
        <ele>1122.6</ele>
        <time>2021-10-09T01:56:31</time>
      </trkpt>
      <trkpt lat="42.95138" lon="-0.02751">
        <ele>1122.6</ele>
        <time>2021-10-09T01:56:32</time>
      </trkpt>
      <trkpt lat="42.9514" lon="-0.02754">
        <ele>1122.8</ele>
        <time>2021-10-09T01:56:33</time>
      </trkpt>
      <trkpt lat="42.9514" lon="-0.02754">
        <ele>1122.6</ele>
        <time>2021-10-09T01:56:34</time>
      </trkpt>
      <trkpt lat="42.95142" lon="-0.02758">
        <ele>1122.6</ele>
        <time>2021-10-09T01:56:35</time>
      </trkpt>
      <trkpt lat="42.95145" lon="-0.02765">
        <ele>1122.6</ele>
        <time>2021-10-09T01:56:36</time>
      </trkpt>
      <trkpt lat="42.95146" lon="-0.02769">
        <ele>1122.6</ele>
        <time>2021-10-09T01:56:37</time>
      </trkpt>
      <trkpt lat="42.95148" lon="-0.02773">
        <ele>1122.8</ele>
        <time>2021-10-09T01:56:38</time>
      </trkpt>
      <trkpt lat="42.95149" lon="-0.02776">
        <ele>1122.8</ele>
        <time>2021-10-09T01:56:39</time>
      </trkpt>
      <trkpt lat="42.95151" lon="-0.0278">
        <ele>1122.8</ele>
        <time>2021-10-09T01:56:40</time>
      </trkpt>
      <trkpt lat="42.95152" lon="-0.02784">
        <ele>1122.8</ele>
        <time>2021-10-09T01:56:41</time>
      </trkpt>
      <trkpt lat="42.95154" lon="-0.02789">
        <ele>1122.8</ele>
        <time>2021-10-09T01:56:42</time>
      </trkpt>
      <trkpt lat="42.95155" lon="-0.02793">
        <ele>1122.6</ele>
        <time>2021-10-09T01:56:43</time>
      </trkpt>
      <trkpt lat="42.95157" lon="-0.02797">
        <ele>1122.6</ele>
        <time>2021-10-09T01:56:44</time>
      </trkpt>
      <trkpt lat="42.95158" lon="-0.02801">
        <ele>1122.6</ele>
        <time>2021-10-09T01:56:45</time>
      </trkpt>
      <trkpt lat="42.9516" lon="-0.02805">
        <ele>1122.6</ele>
        <time>2021-10-09T01:56:46</time>
      </trkpt>
      <trkpt lat="42.95162" lon="-0.02808">
        <ele>1122.6</ele>
        <time>2021-10-09T01:56:47</time>
      </trkpt>
      <trkpt lat="42.95164" lon="-0.02812">
        <ele>1122.6</ele>
        <time>2021-10-09T01:56:48</time>
      </trkpt>
      <trkpt lat="42.95167" lon="-0.02816">
        <ele>1122.6</ele>
        <time>2021-10-09T01:56:49</time>
      </trkpt>
      <trkpt lat="42.95169" lon="-0.02819">
        <ele>1122.6</ele>
        <time>2021-10-09T01:56:50</time>
      </trkpt>
      <trkpt lat="42.95171" lon="-0.02822">
        <ele>1122.6</ele>
        <time>2021-10-09T01:56:51</time>
      </trkpt>
      <trkpt lat="42.95174" lon="-0.02825">
        <ele>1122.4</ele>
        <time>2021-10-09T01:56:52</time>
      </trkpt>
      <trkpt lat="42.95176" lon="-0.02828">
        <ele>1122.6</ele>
        <time>2021-10-09T01:56:53</time>
      </trkpt>
      <trkpt lat="42.95179" lon="-0.02831">
        <ele>1122.4</ele>
        <time>2021-10-09T01:56:54</time>
      </trkpt>
      <trkpt lat="42.95181" lon="-0.02835">
        <ele>1122.4</ele>
        <time>2021-10-09T01:56:55</time>
      </trkpt>
      <trkpt lat="42.95184" lon="-0.02839">
        <ele>1122.4</ele>
        <time>2021-10-09T01:56:56</time>
      </trkpt>
      <trkpt lat="42.95186" lon="-0.02843">
        <ele>1122.4</ele>
        <time>2021-10-09T01:56:57</time>
      </trkpt>
      <trkpt lat="42.95188" lon="-0.02847">
        <ele>1122.2</ele>
        <time>2021-10-09T01:56:58</time>
      </trkpt>
      <trkpt lat="42.95189" lon="-0.02851">
        <ele>1122.2</ele>
        <time>2021-10-09T01:56:59</time>
      </trkpt>
      <trkpt lat="42.95191" lon="-0.02856">
        <ele>1122.2</ele>
        <time>2021-10-09T01:57:00</time>
      </trkpt>
      <trkpt lat="42.95192" lon="-0.0286">
        <ele>1122</ele>
        <time>2021-10-09T01:57:01</time>
      </trkpt>
      <trkpt lat="42.95194" lon="-0.02865">
        <ele>1122</ele>
        <time>2021-10-09T01:57:02</time>
      </trkpt>
      <trkpt lat="42.95197" lon="-0.02869">
        <ele>1122</ele>
        <time>2021-10-09T01:57:03</time>
      </trkpt>
      <trkpt lat="42.95199" lon="-0.02872">
        <ele>1122</ele>
        <time>2021-10-09T01:57:04</time>
      </trkpt>
      <trkpt lat="42.95202" lon="-0.02875">
        <ele>1122.2</ele>
        <time>2021-10-09T01:57:05</time>
      </trkpt>
      <trkpt lat="42.95204" lon="-0.02878">
        <ele>1122.2</ele>
        <time>2021-10-09T01:57:06</time>
      </trkpt>
      <trkpt lat="42.95206" lon="-0.02882">
        <ele>1122</ele>
        <time>2021-10-09T01:57:07</time>
      </trkpt>
      <trkpt lat="42.95208" lon="-0.02886">
        <ele>1122</ele>
        <time>2021-10-09T01:57:08</time>
      </trkpt>
      <trkpt lat="42.95209" lon="-0.02892">
        <ele>1122</ele>
        <time>2021-10-09T01:57:09</time>
      </trkpt>
      <trkpt lat="42.9521" lon="-0.02897">
        <ele>1121.8</ele>
        <time>2021-10-09T01:57:10</time>
      </trkpt>
      <trkpt lat="42.95212" lon="-0.02903">
        <ele>1121.8</ele>
        <time>2021-10-09T01:57:11</time>
      </trkpt>
      <trkpt lat="42.95214" lon="-0.02907">
        <ele>1121.8</ele>
        <time>2021-10-09T01:57:12</time>
      </trkpt>
      <trkpt lat="42.95217" lon="-0.0291">
        <ele>1121.8</ele>
        <time>2021-10-09T01:57:13</time>
      </trkpt>
      <trkpt lat="42.9522" lon="-0.02914">
        <ele>1121.6</ele>
        <time>2021-10-09T01:57:14</time>
      </trkpt>
      <trkpt lat="42.95223" lon="-0.02917">
        <ele>1121.8</ele>
        <time>2021-10-09T01:57:15</time>
      </trkpt>
      <trkpt lat="42.95226" lon="-0.0292">
        <ele>1121.8</ele>
        <time>2021-10-09T01:57:16</time>
      </trkpt>
      <trkpt lat="42.95229" lon="-0.02924">
        <ele>1121.8</ele>
        <time>2021-10-09T01:57:17</time>
      </trkpt>
      <trkpt lat="42.95232" lon="-0.02927">
        <ele>1121.8</ele>
        <time>2021-10-09T01:57:18</time>
      </trkpt>
      <trkpt lat="42.95235" lon="-0.0293">
        <ele>1121.8</ele>
        <time>2021-10-09T01:57:19</time>
      </trkpt>
      <trkpt lat="42.95238" lon="-0.02934">
        <ele>1121.8</ele>
        <time>2021-10-09T01:57:20</time>
      </trkpt>
      <trkpt lat="42.9524" lon="-0.02939">
        <ele>1121.6</ele>
        <time>2021-10-09T01:57:21</time>
      </trkpt>
      <trkpt lat="42.95242" lon="-0.02943">
        <ele>1121.8</ele>
        <time>2021-10-09T01:57:22</time>
      </trkpt>
      <trkpt lat="42.95244" lon="-0.02948">
        <ele>1121.8</ele>
        <time>2021-10-09T01:57:23</time>
      </trkpt>
      <trkpt lat="42.95246" lon="-0.02953">
        <ele>1121.8</ele>
        <time>2021-10-09T01:57:24</time>
      </trkpt>
      <trkpt lat="42.95247" lon="-0.02958">
        <ele>1121.8</ele>
        <time>2021-10-09T01:57:25</time>
      </trkpt>
      <trkpt lat="42.95248" lon="-0.02963">
        <ele>1121.8</ele>
        <time>2021-10-09T01:57:26</time>
      </trkpt>
      <trkpt lat="42.95248" lon="-0.02969">
        <ele>1121.6</ele>
        <time>2021-10-09T01:57:27</time>
      </trkpt>
      <trkpt lat="42.95249" lon="-0.02974">
        <ele>1121.6</ele>
        <time>2021-10-09T01:57:28</time>
      </trkpt>
      <trkpt lat="42.9525" lon="-0.02979">
        <ele>1121.6</ele>
        <time>2021-10-09T01:57:29</time>
      </trkpt>
      <trkpt lat="42.95251" lon="-0.02984">
        <ele>1121.6</ele>
        <time>2021-10-09T01:57:30</time>
      </trkpt>
      <trkpt lat="42.95253" lon="-0.0299">
        <ele>1121.6</ele>
        <time>2021-10-09T01:57:31</time>
      </trkpt>
      <trkpt lat="42.95254" lon="-0.02994">
        <ele>1121.6</ele>
        <time>2021-10-09T01:57:32</time>
      </trkpt>
      <trkpt lat="42.95256" lon="-0.02999">
        <ele>1121.6</ele>
        <time>2021-10-09T01:57:33</time>
      </trkpt>
      <trkpt lat="42.95257" lon="-0.03005">
        <ele>1121.6</ele>
        <time>2021-10-09T01:57:34</time>
      </trkpt>
      <trkpt lat="42.95259" lon="-0.0301">
        <ele>1121.6</ele>
        <time>2021-10-09T01:57:35</time>
      </trkpt>
      <trkpt lat="42.9526" lon="-0.03014">
        <ele>1121.4</ele>
        <time>2021-10-09T01:57:36</time>
      </trkpt>
      <trkpt lat="42.95262" lon="-0.03019">
        <ele>1121.4</ele>
        <time>2021-10-09T01:57:37</time>
      </trkpt>
      <trkpt lat="42.95264" lon="-0.03024">
        <ele>1121.2</ele>
        <time>2021-10-09T01:57:38</time>
      </trkpt>
      <trkpt lat="42.95265" lon="-0.03029">
        <ele>1121.4</ele>
        <time>2021-10-09T01:57:39</time>
      </trkpt>
      <trkpt lat="42.95267" lon="-0.03033">
        <ele>1121.2</ele>
        <time>2021-10-09T01:57:40</time>
      </trkpt>
      <trkpt lat="42.95269" lon="-0.03038">
        <ele>1121.2</ele>
        <time>2021-10-09T01:57:41</time>
      </trkpt>
      <trkpt lat="42.95271" lon="-0.03042">
        <ele>1121.2</ele>
        <time>2021-10-09T01:57:42</time>
      </trkpt>
      <trkpt lat="42.95273" lon="-0.03046">
        <ele>1121</ele>
        <time>2021-10-09T01:57:43</time>
      </trkpt>
      <trkpt lat="42.95275" lon="-0.0305">
        <ele>1121</ele>
        <time>2021-10-09T01:57:44</time>
      </trkpt>
      <trkpt lat="42.95277" lon="-0.03054">
        <ele>1121</ele>
        <time>2021-10-09T01:57:45</time>
      </trkpt>
      <trkpt lat="42.95279" lon="-0.03058">
        <ele>1121</ele>
        <time>2021-10-09T01:57:46</time>
      </trkpt>
      <trkpt lat="42.95281" lon="-0.03061">
        <ele>1120.8</ele>
        <time>2021-10-09T01:57:47</time>
      </trkpt>
      <trkpt lat="42.95285" lon="-0.03063">
        <ele>1120.8</ele>
        <time>2021-10-09T01:57:48</time>
      </trkpt>
      <trkpt lat="42.95288" lon="-0.03066">
        <ele>1121</ele>
        <time>2021-10-09T01:57:49</time>
      </trkpt>
      <trkpt lat="42.9529" lon="-0.03069">
        <ele>1121</ele>
        <time>2021-10-09T01:57:50</time>
      </trkpt>
      <trkpt lat="42.95293" lon="-0.03072">
        <ele>1121</ele>
        <time>2021-10-09T01:57:51</time>
      </trkpt>
      <trkpt lat="42.95295" lon="-0.03075">
        <ele>1121</ele>
        <time>2021-10-09T01:57:52</time>
      </trkpt>
      <trkpt lat="42.95298" lon="-0.03079">
        <ele>1121</ele>
        <time>2021-10-09T01:57:53</time>
      </trkpt>
      <trkpt lat="42.953" lon="-0.03084">
        <ele>1121</ele>
        <time>2021-10-09T01:57:54</time>
      </trkpt>
      <trkpt lat="42.95302" lon="-0.03088">
        <ele>1120.8</ele>
        <time>2021-10-09T01:57:55</time>
      </trkpt>
      <trkpt lat="42.95304" lon="-0.03092">
        <ele>1120.8</ele>
        <time>2021-10-09T01:57:56</time>
      </trkpt>
      <trkpt lat="42.95306" lon="-0.03096">
        <ele>1120.8</ele>
        <time>2021-10-09T01:57:57</time>
      </trkpt>
      <trkpt lat="42.95309" lon="-0.031">
        <ele>1120.8</ele>
        <time>2021-10-09T01:57:58</time>
      </trkpt>
      <trkpt lat="42.95311" lon="-0.03104">
        <ele>1120.8</ele>
        <time>2021-10-09T01:57:59</time>
      </trkpt>
      <trkpt lat="42.95314" lon="-0.03108">
        <ele>1120.8</ele>
        <time>2021-10-09T01:58:00</time>
      </trkpt>
      <trkpt lat="42.95318" lon="-0.03111">
        <ele>1120.6</ele>
        <time>2021-10-09T01:58:01</time>
      </trkpt>
      <trkpt lat="42.95321" lon="-0.03114">
        <ele>1120.6</ele>
        <time>2021-10-09T01:58:02</time>
      </trkpt>
      <trkpt lat="42.95324" lon="-0.03117">
        <ele>1120.8</ele>
        <time>2021-10-09T01:58:03</time>
      </trkpt>
      <trkpt lat="42.95327" lon="-0.0312">
        <ele>1120.8</ele>
        <time>2021-10-09T01:58:04</time>
      </trkpt>
      <trkpt lat="42.95329" lon="-0.03124">
        <ele>1120.6</ele>
        <time>2021-10-09T01:58:05</time>
      </trkpt>
      <trkpt lat="42.95332" lon="-0.03128">
        <ele>1120.6</ele>
        <time>2021-10-09T01:58:06</time>
      </trkpt>
      <trkpt lat="42.95333" lon="-0.03132">
        <ele>1120.6</ele>
        <time>2021-10-09T01:58:07</time>
      </trkpt>
      <trkpt lat="42.95335" lon="-0.03137">
        <ele>1120.6</ele>
        <time>2021-10-09T01:58:08</time>
      </trkpt>
      <trkpt lat="42.95337" lon="-0.03142">
        <ele>1120.8</ele>
        <time>2021-10-09T01:58:09</time>
      </trkpt>
      <trkpt lat="42.95339" lon="-0.03146">
        <ele>1120.6</ele>
        <time>2021-10-09T01:58:10</time>
      </trkpt>
      <trkpt lat="42.95342" lon="-0.0315">
        <ele>1120.6</ele>
        <time>2021-10-09T01:58:11</time>
      </trkpt>
      <trkpt lat="42.95344" lon="-0.03154">
        <ele>1120.6</ele>
        <time>2021-10-09T01:58:12</time>
      </trkpt>
      <trkpt lat="42.95347" lon="-0.03157">
        <ele>1120.6</ele>
        <time>2021-10-09T01:58:13</time>
      </trkpt>
      <trkpt lat="42.9535" lon="-0.0316">
        <ele>1120.6</ele>
        <time>2021-10-09T01:58:14</time>
      </trkpt>
      <trkpt lat="42.95353" lon="-0.03163">
        <ele>1120.6</ele>
        <time>2021-10-09T01:58:15</time>
      </trkpt>
      <trkpt lat="42.95356" lon="-0.03166">
        <ele>1120.6</ele>
        <time>2021-10-09T01:58:16</time>
      </trkpt>
      <trkpt lat="42.95359" lon="-0.03169">
        <ele>1120.6</ele>
        <time>2021-10-09T01:58:17</time>
      </trkpt>
      <trkpt lat="42.95362" lon="-0.03172">
        <ele>1120.6</ele>
        <time>2021-10-09T01:58:18</time>
      </trkpt>
      <trkpt lat="42.95365" lon="-0.03175">
        <ele>1120.6</ele>
        <time>2021-10-09T01:58:19</time>
      </trkpt>
      <trkpt lat="42.95368" lon="-0.03178">
        <ele>1120.4</ele>
        <time>2021-10-09T01:58:20</time>
      </trkpt>
      <trkpt lat="42.95371" lon="-0.03179">
        <ele>1120.4</ele>
        <time>2021-10-09T01:58:21</time>
      </trkpt>
      <trkpt lat="42.95375" lon="-0.03181">
        <ele>1120.4</ele>
        <time>2021-10-09T01:58:22</time>
      </trkpt>
      <trkpt lat="42.95379" lon="-0.03182">
        <ele>1120.4</ele>
        <time>2021-10-09T01:58:23</time>
      </trkpt>
      <trkpt lat="42.95382" lon="-0.03184">
        <ele>1120.2</ele>
        <time>2021-10-09T01:58:24</time>
      </trkpt>
      <trkpt lat="42.95385" lon="-0.03186">
        <ele>1120.2</ele>
        <time>2021-10-09T01:58:25</time>
      </trkpt>
      <trkpt lat="42.95388" lon="-0.03187">
        <ele>1120</ele>
        <time>2021-10-09T01:58:26</time>
      </trkpt>
      <trkpt lat="42.95391" lon="-0.0319">
        <ele>1120</ele>
        <time>2021-10-09T01:58:27</time>
      </trkpt>
      <trkpt lat="42.95393" lon="-0.03192">
        <ele>1120</ele>
        <time>2021-10-09T01:58:28</time>
      </trkpt>
      <trkpt lat="42.95396" lon="-0.03195">
        <ele>1120.2</ele>
        <time>2021-10-09T01:58:29</time>
      </trkpt>
      <trkpt lat="42.95399" lon="-0.03198">
        <ele>1120.2</ele>
        <time>2021-10-09T01:58:30</time>
      </trkpt>
      <trkpt lat="42.95401" lon="-0.03202">
        <ele>1120.2</ele>
        <time>2021-10-09T01:58:31</time>
      </trkpt>
      <trkpt lat="42.95404" lon="-0.03206">
        <ele>1120.2</ele>
        <time>2021-10-09T01:58:32</time>
      </trkpt>
      <trkpt lat="42.95406" lon="-0.03211">
        <ele>1120.2</ele>
        <time>2021-10-09T01:58:33</time>
      </trkpt>
      <trkpt lat="42.95407" lon="-0.03215">
        <ele>1120.2</ele>
        <time>2021-10-09T01:58:34</time>
      </trkpt>
      <trkpt lat="42.95409" lon="-0.0322">
        <ele>1120</ele>
        <time>2021-10-09T01:58:35</time>
      </trkpt>
      <trkpt lat="42.95412" lon="-0.03224">
        <ele>1120</ele>
        <time>2021-10-09T01:58:36</time>
      </trkpt>
      <trkpt lat="42.95414" lon="-0.03228">
        <ele>1120</ele>
        <time>2021-10-09T01:58:37</time>
      </trkpt>
      <trkpt lat="42.95416" lon="-0.03232">
        <ele>1119.8</ele>
        <time>2021-10-09T01:58:38</time>
      </trkpt>
      <trkpt lat="42.95419" lon="-0.03236">
        <ele>1120</ele>
        <time>2021-10-09T01:58:39</time>
      </trkpt>
      <trkpt lat="42.95421" lon="-0.03239">
        <ele>1120</ele>
        <time>2021-10-09T01:58:40</time>
      </trkpt>
      <trkpt lat="42.95424" lon="-0.03243">
        <ele>1120</ele>
        <time>2021-10-09T01:58:41</time>
      </trkpt>
      <trkpt lat="42.95427" lon="-0.03246">
        <ele>1120</ele>
        <time>2021-10-09T01:58:42</time>
      </trkpt>
      <trkpt lat="42.9543" lon="-0.03248">
        <ele>1120</ele>
        <time>2021-10-09T01:58:43</time>
      </trkpt>
      <trkpt lat="42.95433" lon="-0.0325">
        <ele>1120</ele>
        <time>2021-10-09T01:58:44</time>
      </trkpt>
      <trkpt lat="42.95436" lon="-0.03252">
        <ele>1119.8</ele>
        <time>2021-10-09T01:58:45</time>
      </trkpt>
      <trkpt lat="42.95439" lon="-0.03255">
        <ele>1120</ele>
        <time>2021-10-09T01:58:46</time>
      </trkpt>
      <trkpt lat="42.95442" lon="-0.03257">
        <ele>1119.8</ele>
        <time>2021-10-09T01:58:47</time>
      </trkpt>
      <trkpt lat="42.95444" lon="-0.0326">
        <ele>1119.8</ele>
        <time>2021-10-09T01:58:48</time>
      </trkpt>
      <trkpt lat="42.95447" lon="-0.03262">
        <ele>1120</ele>
        <time>2021-10-09T01:58:49</time>
      </trkpt>
      <trkpt lat="42.95449" lon="-0.03264">
        <ele>1120</ele>
        <time>2021-10-09T01:58:50</time>
      </trkpt>
      <trkpt lat="42.95452" lon="-0.03267">
        <ele>1120</ele>
        <time>2021-10-09T01:58:51</time>
      </trkpt>
      <trkpt lat="42.95456" lon="-0.0327">
        <ele>1119.6</ele>
        <time>2021-10-09T01:58:52</time>
      </trkpt>
      <trkpt lat="42.95458" lon="-0.03274">
        <ele>1119.2</ele>
        <time>2021-10-09T01:58:53</time>
      </trkpt>
      <trkpt lat="42.9546" lon="-0.03278">
        <ele>1119.2</ele>
        <time>2021-10-09T01:58:54</time>
      </trkpt>
      <trkpt lat="42.95462" lon="-0.03282">
        <ele>1119.6</ele>
        <time>2021-10-09T01:58:55</time>
      </trkpt>
      <trkpt lat="42.95464" lon="-0.03285">
        <ele>1119.6</ele>
        <time>2021-10-09T01:58:56</time>
      </trkpt>
      <trkpt lat="42.95465" lon="-0.03289">
        <ele>1119.8</ele>
        <time>2021-10-09T01:58:57</time>
      </trkpt>
      <trkpt lat="42.95467" lon="-0.03293">
        <ele>1119.6</ele>
        <time>2021-10-09T01:58:58</time>
      </trkpt>
      <trkpt lat="42.95468" lon="-0.03298">
        <ele>1119.6</ele>
        <time>2021-10-09T01:58:59</time>
      </trkpt>
      <trkpt lat="42.95468" lon="-0.03303">
        <ele>1119.8</ele>
        <time>2021-10-09T01:59:00</time>
      </trkpt>
      <trkpt lat="42.95469" lon="-0.03307">
        <ele>1119.8</ele>
        <time>2021-10-09T01:59:01</time>
      </trkpt>
      <trkpt lat="42.9547" lon="-0.03311">
        <ele>1119.8</ele>
        <time>2021-10-09T01:59:02</time>
      </trkpt>
      <trkpt lat="42.95472" lon="-0.03315">
        <ele>1119.6</ele>
        <time>2021-10-09T01:59:03</time>
      </trkpt>
      <trkpt lat="42.95475" lon="-0.03318">
        <ele>1119.6</ele>
        <time>2021-10-09T01:59:04</time>
      </trkpt>
      <trkpt lat="42.95478" lon="-0.0332">
        <ele>1119.8</ele>
        <time>2021-10-09T01:59:05</time>
      </trkpt>
      <trkpt lat="42.95482" lon="-0.03322">
        <ele>1119.8</ele>
        <time>2021-10-09T01:59:06</time>
      </trkpt>
      <trkpt lat="42.95485" lon="-0.03324">
        <ele>1120</ele>
        <time>2021-10-09T01:59:07</time>
      </trkpt>
      <trkpt lat="42.95489" lon="-0.03327">
        <ele>1120</ele>
        <time>2021-10-09T01:59:08</time>
      </trkpt>
      <trkpt lat="42.95492" lon="-0.0333">
        <ele>1120</ele>
        <time>2021-10-09T01:59:09</time>
      </trkpt>
      <trkpt lat="42.95494" lon="-0.03334">
        <ele>1120</ele>
        <time>2021-10-09T01:59:10</time>
      </trkpt>
      <trkpt lat="42.95497" lon="-0.03338">
        <ele>1119.8</ele>
        <time>2021-10-09T01:59:11</time>
      </trkpt>
      <trkpt lat="42.95498" lon="-0.03342">
        <ele>1119.8</ele>
        <time>2021-10-09T01:59:12</time>
      </trkpt>
      <trkpt lat="42.95499" lon="-0.03347">
        <ele>1119.6</ele>
        <time>2021-10-09T01:59:13</time>
      </trkpt>
      <trkpt lat="42.95498" lon="-0.03353">
        <ele>1119.6</ele>
        <time>2021-10-09T01:59:14</time>
      </trkpt>
      <trkpt lat="42.95499" lon="-0.03358">
        <ele>1119.4</ele>
        <time>2021-10-09T01:59:15</time>
      </trkpt>
      <trkpt lat="42.955" lon="-0.03362">
        <ele>1119.6</ele>
        <time>2021-10-09T01:59:16</time>
      </trkpt>
      <trkpt lat="42.95501" lon="-0.03367">
        <ele>1119.8</ele>
        <time>2021-10-09T01:59:17</time>
      </trkpt>
      <trkpt lat="42.95502" lon="-0.03371">
        <ele>1119.8</ele>
        <time>2021-10-09T01:59:18</time>
      </trkpt>
      <trkpt lat="42.95502" lon="-0.03375">
        <ele>1119.4</ele>
        <time>2021-10-09T01:59:19</time>
      </trkpt>
      <trkpt lat="42.95501" lon="-0.0338">
        <ele>1119.4</ele>
        <time>2021-10-09T01:59:20</time>
      </trkpt>
      <trkpt lat="42.95501" lon="-0.03385">
        <ele>1119.6</ele>
        <time>2021-10-09T01:59:21</time>
      </trkpt>
      <trkpt lat="42.955" lon="-0.0339">
        <ele>1119.6</ele>
        <time>2021-10-09T01:59:22</time>
      </trkpt>
      <trkpt lat="42.95499" lon="-0.03395">
        <ele>1119.6</ele>
        <time>2021-10-09T01:59:23</time>
      </trkpt>
      <trkpt lat="42.95499" lon="-0.034">
        <ele>1119.6</ele>
        <time>2021-10-09T01:59:24</time>
      </trkpt>
      <trkpt lat="42.95498" lon="-0.03405">
        <ele>1119.6</ele>
        <time>2021-10-09T01:59:25</time>
      </trkpt>
      <trkpt lat="42.95497" lon="-0.0341">
        <ele>1119.6</ele>
        <time>2021-10-09T01:59:26</time>
      </trkpt>
      <trkpt lat="42.95497" lon="-0.03415">
        <ele>1119.6</ele>
        <time>2021-10-09T01:59:27</time>
      </trkpt>
      <trkpt lat="42.95496" lon="-0.03421">
        <ele>1119.6</ele>
        <time>2021-10-09T01:59:28</time>
      </trkpt>
      <trkpt lat="42.95495" lon="-0.03426">
        <ele>1119.6</ele>
        <time>2021-10-09T01:59:29</time>
      </trkpt>
      <trkpt lat="42.95494" lon="-0.03432">
        <ele>1119.4</ele>
        <time>2021-10-09T01:59:30</time>
      </trkpt>
      <trkpt lat="42.95493" lon="-0.03437">
        <ele>1119.4</ele>
        <time>2021-10-09T01:59:31</time>
      </trkpt>
      <trkpt lat="42.95492" lon="-0.03442">
        <ele>1119.4</ele>
        <time>2021-10-09T01:59:32</time>
      </trkpt>
      <trkpt lat="42.95491" lon="-0.03448">
        <ele>1119.4</ele>
        <time>2021-10-09T01:59:33</time>
      </trkpt>
      <trkpt lat="42.95489" lon="-0.03453">
        <ele>1119.4</ele>
        <time>2021-10-09T01:59:34</time>
      </trkpt>
      <trkpt lat="42.95487" lon="-0.03457">
        <ele>1119.4</ele>
        <time>2021-10-09T01:59:35</time>
      </trkpt>
      <trkpt lat="42.95484" lon="-0.03462">
        <ele>1119.4</ele>
        <time>2021-10-09T01:59:36</time>
      </trkpt>
      <trkpt lat="42.95483" lon="-0.03467">
        <ele>1119.4</ele>
        <time>2021-10-09T01:59:37</time>
      </trkpt>
      <trkpt lat="42.95482" lon="-0.03473">
        <ele>1119.2</ele>
        <time>2021-10-09T01:59:38</time>
      </trkpt>
      <trkpt lat="42.95482" lon="-0.03478">
        <ele>1119.2</ele>
        <time>2021-10-09T01:59:39</time>
      </trkpt>
      <trkpt lat="42.95482" lon="-0.03484">
        <ele>1119.2</ele>
        <time>2021-10-09T01:59:40</time>
      </trkpt>
      <trkpt lat="42.95483" lon="-0.03489">
        <ele>1119.2</ele>
        <time>2021-10-09T01:59:41</time>
      </trkpt>
      <trkpt lat="42.95484" lon="-0.03495">
        <ele>1119.4</ele>
        <time>2021-10-09T01:59:42</time>
      </trkpt>
      <trkpt lat="42.95486" lon="-0.035">
        <ele>1119.4</ele>
        <time>2021-10-09T01:59:43</time>
      </trkpt>
      <trkpt lat="42.95488" lon="-0.03505">
        <ele>1119.4</ele>
        <time>2021-10-09T01:59:44</time>
      </trkpt>
      <trkpt lat="42.95489" lon="-0.0351">
        <ele>1119.4</ele>
        <time>2021-10-09T01:59:45</time>
      </trkpt>
      <trkpt lat="42.95491" lon="-0.03515">
        <ele>1119.4</ele>
        <time>2021-10-09T01:59:46</time>
      </trkpt>
      <trkpt lat="42.95492" lon="-0.0352">
        <ele>1119.4</ele>
        <time>2021-10-09T01:59:47</time>
      </trkpt>
      <trkpt lat="42.95493" lon="-0.03525">
        <ele>1119.4</ele>
        <time>2021-10-09T01:59:48</time>
      </trkpt>
      <trkpt lat="42.95493" lon="-0.03531">
        <ele>1119.4</ele>
        <time>2021-10-09T01:59:49</time>
      </trkpt>
      <trkpt lat="42.95493" lon="-0.03536">
        <ele>1119.4</ele>
        <time>2021-10-09T01:59:50</time>
      </trkpt>
      <trkpt lat="42.95492" lon="-0.03541">
        <ele>1119.4</ele>
        <time>2021-10-09T01:59:51</time>
      </trkpt>
      <trkpt lat="42.9549" lon="-0.03546">
        <ele>1119.6</ele>
        <time>2021-10-09T01:59:52</time>
      </trkpt>
      <trkpt lat="42.95488" lon="-0.03551">
        <ele>1119.6</ele>
        <time>2021-10-09T01:59:53</time>
      </trkpt>
      <trkpt lat="42.95486" lon="-0.03554">
        <ele>1119.6</ele>
        <time>2021-10-09T01:59:54</time>
      </trkpt>
      <trkpt lat="42.95482" lon="-0.03558">
        <ele>1119.4</ele>
        <time>2021-10-09T01:59:55</time>
      </trkpt>
      <trkpt lat="42.95479" lon="-0.03561">
        <ele>1119.4</ele>
        <time>2021-10-09T01:59:56</time>
      </trkpt>
      <trkpt lat="42.95475" lon="-0.03564">
        <ele>1119.4</ele>
        <time>2021-10-09T01:59:57</time>
      </trkpt>
      <trkpt lat="42.95473" lon="-0.03567">
        <ele>1119.4</ele>
        <time>2021-10-09T01:59:58</time>
      </trkpt>
      <trkpt lat="42.95471" lon="-0.0357">
        <ele>1119.4</ele>
        <time>2021-10-09T01:59:59</time>
      </trkpt>
      <trkpt lat="42.95469" lon="-0.03575">
        <ele>1119.2</ele>
        <time>2021-10-09T02:00:00</time>
      </trkpt>
      <trkpt lat="42.95469" lon="-0.0358">
        <ele>1119.2</ele>
        <time>2021-10-09T02:00:01</time>
      </trkpt>
      <trkpt lat="42.95469" lon="-0.03586">
        <ele>1119.2</ele>
        <time>2021-10-09T02:00:02</time>
      </trkpt>
      <trkpt lat="42.9547" lon="-0.03591">
        <ele>1119.4</ele>
        <time>2021-10-09T02:00:03</time>
      </trkpt>
      <trkpt lat="42.95472" lon="-0.03597">
        <ele>1119.2</ele>
        <time>2021-10-09T02:00:04</time>
      </trkpt>
      <trkpt lat="42.95473" lon="-0.03602">
        <ele>1119.2</ele>
        <time>2021-10-09T02:00:05</time>
      </trkpt>
      <trkpt lat="42.95475" lon="-0.03607">
        <ele>1119.2</ele>
        <time>2021-10-09T02:00:06</time>
      </trkpt>
      <trkpt lat="42.95477" lon="-0.03612">
        <ele>1119.2</ele>
        <time>2021-10-09T02:00:07</time>
      </trkpt>
      <trkpt lat="42.95479" lon="-0.03617">
        <ele>1119.2</ele>
        <time>2021-10-09T02:00:08</time>
      </trkpt>
      <trkpt lat="42.95481" lon="-0.03621">
        <ele>1119.2</ele>
        <time>2021-10-09T02:00:09</time>
      </trkpt>
      <trkpt lat="42.95483" lon="-0.03626">
        <ele>1119.2</ele>
        <time>2021-10-09T02:00:10</time>
      </trkpt>
      <trkpt lat="42.95485" lon="-0.03631">
        <ele>1119</ele>
        <time>2021-10-09T02:00:11</time>
      </trkpt>
      <trkpt lat="42.95487" lon="-0.03636">
        <ele>1119</ele>
        <time>2021-10-09T02:00:12</time>
      </trkpt>
      <trkpt lat="42.9549" lon="-0.03641">
        <ele>1119</ele>
        <time>2021-10-09T02:00:13</time>
      </trkpt>
      <trkpt lat="42.95492" lon="-0.03646">
        <ele>1119</ele>
        <time>2021-10-09T02:00:14</time>
      </trkpt>
      <trkpt lat="42.95495" lon="-0.0365">
        <ele>1119.2</ele>
        <time>2021-10-09T02:00:15</time>
      </trkpt>
      <trkpt lat="42.95499" lon="-0.03655">
        <ele>1119</ele>
        <time>2021-10-09T02:00:16</time>
      </trkpt>
      <trkpt lat="42.95502" lon="-0.03659">
        <ele>1118.8</ele>
        <time>2021-10-09T02:00:17</time>
      </trkpt>
      <trkpt lat="42.95505" lon="-0.03664">
        <ele>1118.8</ele>
        <time>2021-10-09T02:00:18</time>
      </trkpt>
      <trkpt lat="42.95508" lon="-0.03668">
        <ele>1118.6</ele>
        <time>2021-10-09T02:00:19</time>
      </trkpt>
      <trkpt lat="42.95511" lon="-0.03673">
        <ele>1118.8</ele>
        <time>2021-10-09T02:00:20</time>
      </trkpt>
      <trkpt lat="42.95514" lon="-0.03677">
        <ele>1118.8</ele>
        <time>2021-10-09T02:00:21</time>
      </trkpt>
      <trkpt lat="42.95517" lon="-0.03682">
        <ele>1118.6</ele>
        <time>2021-10-09T02:00:22</time>
      </trkpt>
      <trkpt lat="42.95521" lon="-0.03686">
        <ele>1118.6</ele>
        <time>2021-10-09T02:00:23</time>
      </trkpt>
      <trkpt lat="42.95524" lon="-0.03691">
        <ele>1118.6</ele>
        <time>2021-10-09T02:00:24</time>
      </trkpt>
      <trkpt lat="42.95527" lon="-0.03696">
        <ele>1118.4</ele>
        <time>2021-10-09T02:00:25</time>
      </trkpt>
      <trkpt lat="42.95531" lon="-0.037">
        <ele>1118.4</ele>
        <time>2021-10-09T02:00:26</time>
      </trkpt>
      <trkpt lat="42.95534" lon="-0.03705">
        <ele>1118.2</ele>
        <time>2021-10-09T02:00:27</time>
      </trkpt>
      <trkpt lat="42.95538" lon="-0.03707">
        <ele>1118.4</ele>
        <time>2021-10-09T02:00:28</time>
      </trkpt>
      <trkpt lat="42.95542" lon="-0.0371">
        <ele>1118.6</ele>
        <time>2021-10-09T02:00:29</time>
      </trkpt>
      <trkpt lat="42.95545" lon="-0.03715">
        <ele>1118.8</ele>
        <time>2021-10-09T02:00:30</time>
      </trkpt>
      <trkpt lat="42.95549" lon="-0.03718">
        <ele>1118.8</ele>
        <time>2021-10-09T02:00:31</time>
      </trkpt>
      <trkpt lat="42.95553" lon="-0.03722">
        <ele>1118.8</ele>
        <time>2021-10-09T02:00:32</time>
      </trkpt>
      <trkpt lat="42.95556" lon="-0.03724">
        <ele>1118.8</ele>
        <time>2021-10-09T02:00:33</time>
      </trkpt>
      <trkpt lat="42.9556" lon="-0.03726">
        <ele>1118.8</ele>
        <time>2021-10-09T02:00:34</time>
      </trkpt>
      <trkpt lat="42.95564" lon="-0.03727">
        <ele>1118.8</ele>
        <time>2021-10-09T02:00:35</time>
      </trkpt>
      <trkpt lat="42.95568" lon="-0.0373">
        <ele>1119</ele>
        <time>2021-10-09T02:00:36</time>
      </trkpt>
      <trkpt lat="42.95571" lon="-0.03733">
        <ele>1119</ele>
        <time>2021-10-09T02:00:37</time>
      </trkpt>
      <trkpt lat="42.95574" lon="-0.03737">
        <ele>1118.8</ele>
        <time>2021-10-09T02:00:38</time>
      </trkpt>
      <trkpt lat="42.95577" lon="-0.03741">
        <ele>1118.8</ele>
        <time>2021-10-09T02:00:39</time>
      </trkpt>
      <trkpt lat="42.95581" lon="-0.03744">
        <ele>1118.8</ele>
        <time>2021-10-09T02:00:40</time>
      </trkpt>
      <trkpt lat="42.95585" lon="-0.03748">
        <ele>1118.8</ele>
        <time>2021-10-09T02:00:41</time>
      </trkpt>
      <trkpt lat="42.95588" lon="-0.03752">
        <ele>1118.8</ele>
        <time>2021-10-09T02:00:42</time>
      </trkpt>
      <trkpt lat="42.95591" lon="-0.03756">
        <ele>1119</ele>
        <time>2021-10-09T02:00:43</time>
      </trkpt>
      <trkpt lat="42.95591" lon="-0.03761">
        <ele>1118.8</ele>
        <time>2021-10-09T02:00:44</time>
      </trkpt>
      <trkpt lat="42.95591" lon="-0.03767">
        <ele>1119</ele>
        <time>2021-10-09T02:00:45</time>
      </trkpt>
      <trkpt lat="42.9559" lon="-0.03773">
        <ele>1119</ele>
        <time>2021-10-09T02:00:46</time>
      </trkpt>
      <trkpt lat="42.95589" lon="-0.0378">
        <ele>1119</ele>
        <time>2021-10-09T02:00:47</time>
      </trkpt>
      <trkpt lat="42.95588" lon="-0.03786">
        <ele>1119</ele>
        <time>2021-10-09T02:00:48</time>
      </trkpt>
      <trkpt lat="42.95588" lon="-0.03793">
        <ele>1118.8</ele>
        <time>2021-10-09T02:00:49</time>
      </trkpt>
      <trkpt lat="42.95588" lon="-0.038">
        <ele>1118.6</ele>
        <time>2021-10-09T02:00:50</time>
      </trkpt>
      <trkpt lat="42.9559" lon="-0.03806">
        <ele>1118.8</ele>
        <time>2021-10-09T02:00:51</time>
      </trkpt>
      <trkpt lat="42.95591" lon="-0.03812">
        <ele>1118.4</ele>
        <time>2021-10-09T02:00:52</time>
      </trkpt>
      <trkpt lat="42.9559" lon="-0.03818">
        <ele>1118.6</ele>
        <time>2021-10-09T02:00:53</time>
      </trkpt>
      <trkpt lat="42.9559" lon="-0.03824">
        <ele>1118.8</ele>
        <time>2021-10-09T02:00:54</time>
      </trkpt>
      <trkpt lat="42.95588" lon="-0.0383">
        <ele>1118.8</ele>
        <time>2021-10-09T02:00:55</time>
      </trkpt>
      <trkpt lat="42.95587" lon="-0.03836">
        <ele>1118.8</ele>
        <time>2021-10-09T02:00:56</time>
      </trkpt>
      <trkpt lat="42.95588" lon="-0.03841">
        <ele>1118.4</ele>
        <time>2021-10-09T02:00:57</time>
      </trkpt>
      <trkpt lat="42.95589" lon="-0.03846">
        <ele>1118.2</ele>
        <time>2021-10-09T02:00:58</time>
      </trkpt>
      <trkpt lat="42.95592" lon="-0.03851">
        <ele>1118.2</ele>
        <time>2021-10-09T02:00:59</time>
      </trkpt>
      <trkpt lat="42.95594" lon="-0.03856">
        <ele>1118</ele>
        <time>2021-10-09T02:01:00</time>
      </trkpt>
      <trkpt lat="42.95597" lon="-0.0386">
        <ele>1118.4</ele>
        <time>2021-10-09T02:01:01</time>
      </trkpt>
      <trkpt lat="42.956" lon="-0.03865">
        <ele>1118.2</ele>
        <time>2021-10-09T02:01:02</time>
      </trkpt>
      <trkpt lat="42.95602" lon="-0.0387">
        <ele>1118.2</ele>
        <time>2021-10-09T02:01:03</time>
      </trkpt>
      <trkpt lat="42.95604" lon="-0.03876">
        <ele>1118.2</ele>
        <time>2021-10-09T02:01:04</time>
      </trkpt>
      <trkpt lat="42.95605" lon="-0.03881">
        <ele>1118.2</ele>
        <time>2021-10-09T02:01:05</time>
      </trkpt>
      <trkpt lat="42.95606" lon="-0.03887">
        <ele>1118</ele>
        <time>2021-10-09T02:01:06</time>
      </trkpt>
      <trkpt lat="42.95607" lon="-0.03893">
        <ele>1118.2</ele>
        <time>2021-10-09T02:01:07</time>
      </trkpt>
      <trkpt lat="42.95607" lon="-0.03899">
        <ele>1118.2</ele>
        <time>2021-10-09T02:01:08</time>
      </trkpt>
      <trkpt lat="42.95608" lon="-0.03905">
        <ele>1118.2</ele>
        <time>2021-10-09T02:01:09</time>
      </trkpt>
      <trkpt lat="42.95609" lon="-0.0391">
        <ele>1118</ele>
        <time>2021-10-09T02:01:10</time>
      </trkpt>
      <trkpt lat="42.9561" lon="-0.03914">
        <ele>1118</ele>
        <time>2021-10-09T02:01:11</time>
      </trkpt>
      <trkpt lat="42.95612" lon="-0.03918">
        <ele>1118</ele>
        <time>2021-10-09T02:01:12</time>
      </trkpt>
      <trkpt lat="42.95613" lon="-0.03923">
        <ele>1117.8</ele>
        <time>2021-10-09T02:01:13</time>
      </trkpt>
      <trkpt lat="42.95614" lon="-0.03928">
        <ele>1118</ele>
        <time>2021-10-09T02:01:14</time>
      </trkpt>
      <trkpt lat="42.95616" lon="-0.03933">
        <ele>1117.8</ele>
        <time>2021-10-09T02:01:15</time>
      </trkpt>
      <trkpt lat="42.95618" lon="-0.03938">
        <ele>1117.8</ele>
        <time>2021-10-09T02:01:16</time>
      </trkpt>
      <trkpt lat="42.95619" lon="-0.03943">
        <ele>1117.8</ele>
        <time>2021-10-09T02:01:17</time>
      </trkpt>
      <trkpt lat="42.95621" lon="-0.03948">
        <ele>1117.8</ele>
        <time>2021-10-09T02:01:18</time>
      </trkpt>
      <trkpt lat="42.95622" lon="-0.03953">
        <ele>1117.8</ele>
        <time>2021-10-09T02:01:19</time>
      </trkpt>
      <trkpt lat="42.95624" lon="-0.03959">
        <ele>1117.8</ele>
        <time>2021-10-09T02:01:20</time>
      </trkpt>
      <trkpt lat="42.95626" lon="-0.03964">
        <ele>1117.6</ele>
        <time>2021-10-09T02:01:21</time>
      </trkpt>
      <trkpt lat="42.95627" lon="-0.0397">
        <ele>1117.8</ele>
        <time>2021-10-09T02:01:22</time>
      </trkpt>
      <trkpt lat="42.95629" lon="-0.03976">
        <ele>1117.8</ele>
        <time>2021-10-09T02:01:23</time>
      </trkpt>
      <trkpt lat="42.95631" lon="-0.03981">
        <ele>1117.6</ele>
        <time>2021-10-09T02:01:24</time>
      </trkpt>
      <trkpt lat="42.95633" lon="-0.03987">
        <ele>1117.6</ele>
        <time>2021-10-09T02:01:25</time>
      </trkpt>
      <trkpt lat="42.95634" lon="-0.03992">
        <ele>1117.8</ele>
        <time>2021-10-09T02:01:26</time>
      </trkpt>
      <trkpt lat="42.95636" lon="-0.03997">
        <ele>1117.8</ele>
        <time>2021-10-09T02:01:27</time>
      </trkpt>
      <trkpt lat="42.95638" lon="-0.04002">
        <ele>1117.8</ele>
        <time>2021-10-09T02:01:28</time>
      </trkpt>
      <trkpt lat="42.9564" lon="-0.04007">
        <ele>1117.8</ele>
        <time>2021-10-09T02:01:29</time>
      </trkpt>
      <trkpt lat="42.95643" lon="-0.04012">
        <ele>1117.8</ele>
        <time>2021-10-09T02:01:30</time>
      </trkpt>
      <trkpt lat="42.95645" lon="-0.04017">
        <ele>1117.8</ele>
        <time>2021-10-09T02:01:31</time>
      </trkpt>
      <trkpt lat="42.95649" lon="-0.04021">
        <ele>1117.8</ele>
        <time>2021-10-09T02:01:32</time>
      </trkpt>
      <trkpt lat="42.95652" lon="-0.04025">
        <ele>1117.4</ele>
        <time>2021-10-09T02:01:33</time>
      </trkpt>
      <trkpt lat="42.95656" lon="-0.04029">
        <ele>1117.4</ele>
        <time>2021-10-09T02:01:34</time>
      </trkpt>
      <trkpt lat="42.9566" lon="-0.04033">
        <ele>1117.4</ele>
        <time>2021-10-09T02:01:35</time>
      </trkpt>
      <trkpt lat="42.95663" lon="-0.04037">
        <ele>1117</ele>
        <time>2021-10-09T02:01:36</time>
      </trkpt>
      <trkpt lat="42.95667" lon="-0.04041">
        <ele>1117.2</ele>
        <time>2021-10-09T02:01:37</time>
      </trkpt>
      <trkpt lat="42.9567" lon="-0.04046">
        <ele>1117.2</ele>
        <time>2021-10-09T02:01:38</time>
      </trkpt>
      <trkpt lat="42.95673" lon="-0.04051">
        <ele>1117.2</ele>
        <time>2021-10-09T02:01:39</time>
      </trkpt>
      <trkpt lat="42.95676" lon="-0.04056">
        <ele>1117.4</ele>
        <time>2021-10-09T02:01:40</time>
      </trkpt>
      <trkpt lat="42.95678" lon="-0.04061">
        <ele>1117.2</ele>
        <time>2021-10-09T02:01:41</time>
      </trkpt>
      <trkpt lat="42.95681" lon="-0.04066">
        <ele>1117.2</ele>
        <time>2021-10-09T02:01:42</time>
      </trkpt>
      <trkpt lat="42.95684" lon="-0.04071">
        <ele>1117</ele>
        <time>2021-10-09T02:01:43</time>
      </trkpt>
      <trkpt lat="42.95688" lon="-0.04074">
        <ele>1117</ele>
        <time>2021-10-09T02:01:44</time>
      </trkpt>
      <trkpt lat="42.95692" lon="-0.04079">
        <ele>1117</ele>
        <time>2021-10-09T02:01:45</time>
      </trkpt>
      <trkpt lat="42.95695" lon="-0.04084">
        <ele>1116.8</ele>
        <time>2021-10-09T02:01:46</time>
      </trkpt>
      <trkpt lat="42.95698" lon="-0.0409">
        <ele>1117.2</ele>
        <time>2021-10-09T02:01:47</time>
      </trkpt>
      <trkpt lat="42.957" lon="-0.04096">
        <ele>1117.2</ele>
        <time>2021-10-09T02:01:48</time>
      </trkpt>
      <trkpt lat="42.95703" lon="-0.04102">
        <ele>1117</ele>
        <time>2021-10-09T02:01:49</time>
      </trkpt>
      <trkpt lat="42.95706" lon="-0.04107">
        <ele>1117</ele>
        <time>2021-10-09T02:01:50</time>
      </trkpt>
      <trkpt lat="42.95708" lon="-0.04112">
        <ele>1116.6</ele>
        <time>2021-10-09T02:01:51</time>
      </trkpt>
      <trkpt lat="42.95709" lon="-0.04118">
        <ele>1117</ele>
        <time>2021-10-09T02:01:52</time>
      </trkpt>
      <trkpt lat="42.95711" lon="-0.04123">
        <ele>1117</ele>
        <time>2021-10-09T02:01:53</time>
      </trkpt>
      <trkpt lat="42.95714" lon="-0.04127">
        <ele>1116.6</ele>
        <time>2021-10-09T02:01:54</time>
      </trkpt>
      <trkpt lat="42.95717" lon="-0.04131">
        <ele>1116.4</ele>
        <time>2021-10-09T02:01:55</time>
      </trkpt>
      <trkpt lat="42.9572" lon="-0.04135">
        <ele>1116.4</ele>
        <time>2021-10-09T02:01:56</time>
      </trkpt>
      <trkpt lat="42.95722" lon="-0.04139">
        <ele>1116.4</ele>
        <time>2021-10-09T02:01:57</time>
      </trkpt>
      <trkpt lat="42.95725" lon="-0.04144">
        <ele>1116.4</ele>
        <time>2021-10-09T02:01:58</time>
      </trkpt>
      <trkpt lat="42.95728" lon="-0.04148">
        <ele>1116.4</ele>
        <time>2021-10-09T02:01:59</time>
      </trkpt>
      <trkpt lat="42.95732" lon="-0.04152">
        <ele>1116.2</ele>
        <time>2021-10-09T02:02:00</time>
      </trkpt>
      <trkpt lat="42.95735" lon="-0.04156">
        <ele>1116.2</ele>
        <time>2021-10-09T02:02:01</time>
      </trkpt>
      <trkpt lat="42.95738" lon="-0.0416">
        <ele>1116.4</ele>
        <time>2021-10-09T02:02:02</time>
      </trkpt>
      <trkpt lat="42.95739" lon="-0.04161">
        <ele>1116</ele>
        <time>2021-10-09T02:02:03</time>
      </trkpt>
      <trkpt lat="42.95739" lon="-0.04161">
        <ele>1115.8</ele>
        <time>2021-10-09T02:02:04</time>
      </trkpt>
      <trkpt lat="42.95739" lon="-0.04161">
        <ele>1115.8</ele>
        <time>2021-10-09T02:02:05</time>
      </trkpt>
      <trkpt lat="42.95739" lon="-0.04161">
        <ele>1115.8</ele>
        <time>2021-10-09T02:02:06</time>
      </trkpt>
      <trkpt lat="42.95739" lon="-0.04161">
        <ele>1115.8</ele>
        <time>2021-10-09T02:02:07</time>
      </trkpt>
      <trkpt lat="42.95739" lon="-0.04162">
        <ele>1115.8</ele>
        <time>2021-10-09T02:02:08</time>
      </trkpt>
      <trkpt lat="42.95739" lon="-0.04162">
        <ele>1115.8</ele>
        <time>2021-10-09T02:02:09</time>
      </trkpt>
      <trkpt lat="42.95739" lon="-0.04162">
        <ele>1115.8</ele>
        <time>2021-10-09T02:02:10</time>
      </trkpt>
      <trkpt lat="42.95752" lon="-0.04161">
        <ele>1120.6</ele>
        <time>2021-10-09T02:03:57</time>
      </trkpt>
      <trkpt lat="42.95752" lon="-0.04161">
        <ele>1120.6</ele>
        <time>2021-10-09T02:03:58</time>
      </trkpt>
      <trkpt lat="42.95752" lon="-0.04161">
        <ele>1120.6</ele>
        <time>2021-10-09T02:03:59</time>
      </trkpt>
      <trkpt lat="42.95752" lon="-0.04161">
        <ele>1120.6</ele>
        <time>2021-10-09T02:04:00</time>
      </trkpt>
      <trkpt lat="42.95752" lon="-0.04161">
        <ele>1120.6</ele>
        <time>2021-10-09T02:04:01</time>
      </trkpt>
      <trkpt lat="42.95774" lon="-0.04183">
        <ele>1125</ele>
        <time>2021-10-09T02:04:35</time>
      </trkpt>
      <trkpt lat="42.95774" lon="-0.04184">
        <ele>1125.2</ele>
        <time>2021-10-09T02:04:36</time>
      </trkpt>
      <trkpt lat="42.95775" lon="-0.04185">
        <ele>1125.4</ele>
        <time>2021-10-09T02:04:37</time>
      </trkpt>
      <trkpt lat="42.95776" lon="-0.04186">
        <ele>1125.4</ele>
        <time>2021-10-09T02:04:38</time>
      </trkpt>
      <trkpt lat="42.95776" lon="-0.04186">
        <ele>1125.6</ele>
        <time>2021-10-09T02:04:39</time>
      </trkpt>
      <trkpt lat="42.95777" lon="-0.04187">
        <ele>1125.6</ele>
        <time>2021-10-09T02:04:40</time>
      </trkpt>
      <trkpt lat="42.95777" lon="-0.04188">
        <ele>1126</ele>
        <time>2021-10-09T02:04:41</time>
      </trkpt>
      <trkpt lat="42.95778" lon="-0.04188">
        <ele>1126.2</ele>
        <time>2021-10-09T02:04:42</time>
      </trkpt>
      <trkpt lat="42.95778" lon="-0.04189">
        <ele>1126.2</ele>
        <time>2021-10-09T02:04:43</time>
      </trkpt>
      <trkpt lat="42.95779" lon="-0.0419">
        <ele>1126.4</ele>
        <time>2021-10-09T02:04:44</time>
      </trkpt>
      <trkpt lat="42.9578" lon="-0.04191">
        <ele>1126.4</ele>
        <time>2021-10-09T02:04:45</time>
      </trkpt>
      <trkpt lat="42.9578" lon="-0.04192">
        <ele>1126.6</ele>
        <time>2021-10-09T02:04:46</time>
      </trkpt>
      <trkpt lat="42.9578" lon="-0.04192">
        <ele>1126.4</ele>
        <time>2021-10-09T02:04:47</time>
      </trkpt>
      <trkpt lat="42.9578" lon="-0.04192">
        <ele>1126.4</ele>
        <time>2021-10-09T02:04:48</time>
      </trkpt>
      <trkpt lat="42.9578" lon="-0.04192">
        <ele>1126.4</ele>
        <time>2021-10-09T02:04:49</time>
      </trkpt>
      <trkpt lat="42.95781" lon="-0.04192">
        <ele>1126.2</ele>
        <time>2021-10-09T02:04:50</time>
      </trkpt>
      <trkpt lat="42.95782" lon="-0.04194">
        <ele>1126.4</ele>
        <time>2021-10-09T02:04:51</time>
      </trkpt>
      <trkpt lat="42.95783" lon="-0.04196">
        <ele>1126.6</ele>
        <time>2021-10-09T02:04:52</time>
      </trkpt>
      <trkpt lat="42.95785" lon="-0.04198">
        <ele>1127.2</ele>
        <time>2021-10-09T02:04:53</time>
      </trkpt>
      <trkpt lat="42.95795" lon="-0.04209">
        <ele>1129</ele>
        <time>2021-10-09T02:04:58</time>
      </trkpt>
      <trkpt lat="42.95797" lon="-0.04211">
        <ele>1129.2</ele>
        <time>2021-10-09T02:04:59</time>
      </trkpt>
      <trkpt lat="42.95799" lon="-0.04213">
        <ele>1129.8</ele>
        <time>2021-10-09T02:05:00</time>
      </trkpt>
      <trkpt lat="42.95801" lon="-0.04214">
        <ele>1130.2</ele>
        <time>2021-10-09T02:05:01</time>
      </trkpt>
      <trkpt lat="42.95803" lon="-0.04216">
        <ele>1130.4</ele>
        <time>2021-10-09T02:05:02</time>
      </trkpt>
      <trkpt lat="42.95804" lon="-0.04218">
        <ele>1130.8</ele>
        <time>2021-10-09T02:05:03</time>
      </trkpt>
      <trkpt lat="42.95806" lon="-0.0422">
        <ele>1131</ele>
        <time>2021-10-09T02:05:04</time>
      </trkpt>
      <trkpt lat="42.95807" lon="-0.04222">
        <ele>1131.2</ele>
        <time>2021-10-09T02:05:05</time>
      </trkpt>
      <trkpt lat="42.95809" lon="-0.04224">
        <ele>1131.4</ele>
        <time>2021-10-09T02:05:06</time>
      </trkpt>
      <trkpt lat="42.9581" lon="-0.04225">
        <ele>1131.6</ele>
        <time>2021-10-09T02:05:07</time>
      </trkpt>
      <trkpt lat="42.95812" lon="-0.04227">
        <ele>1131.8</ele>
        <time>2021-10-09T02:05:08</time>
      </trkpt>
      <trkpt lat="42.95813" lon="-0.04228">
        <ele>1132</ele>
        <time>2021-10-09T02:05:09</time>
      </trkpt>
      <trkpt lat="42.95814" lon="-0.04229">
        <ele>1132.2</ele>
        <time>2021-10-09T02:05:10</time>
      </trkpt>
      <trkpt lat="42.95815" lon="-0.0423">
        <ele>1132.2</ele>
        <time>2021-10-09T02:05:11</time>
      </trkpt>
      <trkpt lat="42.95816" lon="-0.0423">
        <ele>1132.4</ele>
        <time>2021-10-09T02:05:12</time>
      </trkpt>
      <trkpt lat="42.95816" lon="-0.0423">
        <ele>1132.4</ele>
        <time>2021-10-09T02:05:13</time>
      </trkpt>
      <trkpt lat="42.95816" lon="-0.0423">
        <ele>1132.4</ele>
        <time>2021-10-09T02:05:14</time>
      </trkpt>
      <trkpt lat="42.95816" lon="-0.0423">
        <ele>1132.6</ele>
        <time>2021-10-09T02:05:15</time>
      </trkpt>
      <trkpt lat="42.95816" lon="-0.0423">
        <ele>1132.4</ele>
        <time>2021-10-09T02:05:16</time>
      </trkpt>
      <trkpt lat="42.95816" lon="-0.0423">
        <ele>1132.4</ele>
        <time>2021-10-09T02:05:17</time>
      </trkpt>
      <trkpt lat="42.95816" lon="-0.04231">
        <ele>1132.4</ele>
        <time>2021-10-09T02:05:18</time>
      </trkpt>
      <trkpt lat="42.95816" lon="-0.04231">
        <ele>1132.4</ele>
        <time>2021-10-09T02:05:19</time>
      </trkpt>
      <trkpt lat="42.95833" lon="-0.04249">
        <ele>1135.6</ele>
        <time>2021-10-09T02:05:45</time>
      </trkpt>
      <trkpt lat="42.95835" lon="-0.0425">
        <ele>1135.8</ele>
        <time>2021-10-09T02:05:46</time>
      </trkpt>
      <trkpt lat="42.95837" lon="-0.04252">
        <ele>1136.2</ele>
        <time>2021-10-09T02:05:47</time>
      </trkpt>
      <trkpt lat="42.95839" lon="-0.04254">
        <ele>1136.6</ele>
        <time>2021-10-09T02:05:48</time>
      </trkpt>
      <trkpt lat="42.9584" lon="-0.04256">
        <ele>1137.2</ele>
        <time>2021-10-09T02:05:49</time>
      </trkpt>
      <trkpt lat="42.95842" lon="-0.04257">
        <ele>1137.8</ele>
        <time>2021-10-09T02:05:50</time>
      </trkpt>
      <trkpt lat="42.95844" lon="-0.04259">
        <ele>1138.2</ele>
        <time>2021-10-09T02:05:51</time>
      </trkpt>
      <trkpt lat="42.95845" lon="-0.04261">
        <ele>1138.6</ele>
        <time>2021-10-09T02:05:52</time>
      </trkpt>
      <trkpt lat="42.95847" lon="-0.04263">
        <ele>1139</ele>
        <time>2021-10-09T02:05:53</time>
      </trkpt>
      <trkpt lat="42.95848" lon="-0.04265">
        <ele>1139.2</ele>
        <time>2021-10-09T02:05:54</time>
      </trkpt>
      <trkpt lat="42.95849" lon="-0.04268">
        <ele>1139.4</ele>
        <time>2021-10-09T02:05:55</time>
      </trkpt>
      <trkpt lat="42.95851" lon="-0.0427">
        <ele>1139.6</ele>
        <time>2021-10-09T02:05:56</time>
      </trkpt>
      <trkpt lat="42.95852" lon="-0.04273">
        <ele>1139.6</ele>
        <time>2021-10-09T02:05:57</time>
      </trkpt>
      <trkpt lat="42.95853" lon="-0.04276">
        <ele>1139.8</ele>
        <time>2021-10-09T02:05:58</time>
      </trkpt>
      <trkpt lat="42.95854" lon="-0.04279">
        <ele>1139.8</ele>
        <time>2021-10-09T02:05:59</time>
      </trkpt>
      <trkpt lat="42.95855" lon="-0.04283">
        <ele>1140</ele>
        <time>2021-10-09T02:06:00</time>
      </trkpt>
      <trkpt lat="42.95856" lon="-0.04286">
        <ele>1140.2</ele>
        <time>2021-10-09T02:06:01</time>
      </trkpt>
      <trkpt lat="42.95858" lon="-0.04289">
        <ele>1140.2</ele>
        <time>2021-10-09T02:06:02</time>
      </trkpt>
      <trkpt lat="42.95859" lon="-0.04292">
        <ele>1140.4</ele>
        <time>2021-10-09T02:06:03</time>
      </trkpt>
      <trkpt lat="42.9586" lon="-0.04295">
        <ele>1140.6</ele>
        <time>2021-10-09T02:06:04</time>
      </trkpt>
      <trkpt lat="42.95861" lon="-0.04299">
        <ele>1140.6</ele>
        <time>2021-10-09T02:06:05</time>
      </trkpt>
      <trkpt lat="42.95862" lon="-0.04303">
        <ele>1140.6</ele>
        <time>2021-10-09T02:06:06</time>
      </trkpt>
      <trkpt lat="42.95864" lon="-0.04306">
        <ele>1140.6</ele>
        <time>2021-10-09T02:06:07</time>
      </trkpt>
      <trkpt lat="42.95866" lon="-0.04308">
        <ele>1140.6</ele>
        <time>2021-10-09T02:06:08</time>
      </trkpt>
      <trkpt lat="42.95868" lon="-0.04311">
        <ele>1140.4</ele>
        <time>2021-10-09T02:06:09</time>
      </trkpt>
      <trkpt lat="42.9587" lon="-0.04313">
        <ele>1140.2</ele>
        <time>2021-10-09T02:06:10</time>
      </trkpt>
      <trkpt lat="42.95872" lon="-0.04315">
        <ele>1140.2</ele>
        <time>2021-10-09T02:06:11</time>
      </trkpt>
      <trkpt lat="42.95875" lon="-0.04317">
        <ele>1140</ele>
        <time>2021-10-09T02:06:12</time>
      </trkpt>
      <trkpt lat="42.95877" lon="-0.04319">
        <ele>1140.2</ele>
        <time>2021-10-09T02:06:13</time>
      </trkpt>
      <trkpt lat="42.95878" lon="-0.04322">
        <ele>1140.6</ele>
        <time>2021-10-09T02:06:14</time>
      </trkpt>
      <trkpt lat="42.95879" lon="-0.04325">
        <ele>1141</ele>
        <time>2021-10-09T02:06:15</time>
      </trkpt>
      <trkpt lat="42.9588" lon="-0.04328">
        <ele>1141</ele>
        <time>2021-10-09T02:06:16</time>
      </trkpt>
      <trkpt lat="42.95881" lon="-0.04331">
        <ele>1141</ele>
        <time>2021-10-09T02:06:17</time>
      </trkpt>
      <trkpt lat="42.95883" lon="-0.04334">
        <ele>1141</ele>
        <time>2021-10-09T02:06:18</time>
      </trkpt>
      <trkpt lat="42.95885" lon="-0.04336">
        <ele>1141</ele>
        <time>2021-10-09T02:06:19</time>
      </trkpt>
      <trkpt lat="42.95887" lon="-0.04339">
        <ele>1141</ele>
        <time>2021-10-09T02:06:20</time>
      </trkpt>
      <trkpt lat="42.95888" lon="-0.04342">
        <ele>1141.2</ele>
        <time>2021-10-09T02:06:21</time>
      </trkpt>
      <trkpt lat="42.95889" lon="-0.04345">
        <ele>1141.2</ele>
        <time>2021-10-09T02:06:22</time>
      </trkpt>
      <trkpt lat="42.95889" lon="-0.04348">
        <ele>1141.4</ele>
        <time>2021-10-09T02:06:23</time>
      </trkpt>
      <trkpt lat="42.95889" lon="-0.04351">
        <ele>1141.4</ele>
        <time>2021-10-09T02:06:24</time>
      </trkpt>
      <trkpt lat="42.9589" lon="-0.04353">
        <ele>1141.4</ele>
        <time>2021-10-09T02:06:25</time>
      </trkpt>
      <trkpt lat="42.95891" lon="-0.04354">
        <ele>1141.4</ele>
        <time>2021-10-09T02:06:26</time>
      </trkpt>
      <trkpt lat="42.95891" lon="-0.04355">
        <ele>1141.4</ele>
        <time>2021-10-09T02:06:27</time>
      </trkpt>
      <trkpt lat="42.95891" lon="-0.04355">
        <ele>1141.4</ele>
        <time>2021-10-09T02:06:28</time>
      </trkpt>
      <trkpt lat="42.95891" lon="-0.04355">
        <ele>1141.4</ele>
        <time>2021-10-09T02:06:29</time>
      </trkpt>
      <trkpt lat="42.95891" lon="-0.04355">
        <ele>1141.4</ele>
        <time>2021-10-09T02:06:30</time>
      </trkpt>
      <trkpt lat="42.95891" lon="-0.04355">
        <ele>1141.4</ele>
        <time>2021-10-09T02:06:31</time>
      </trkpt>
      <trkpt lat="42.95891" lon="-0.04355">
        <ele>1141.4</ele>
        <time>2021-10-09T02:06:32</time>
      </trkpt>
      <trkpt lat="42.95892" lon="-0.04355">
        <ele>1141.4</ele>
        <time>2021-10-09T02:06:33</time>
      </trkpt>
      <trkpt lat="42.95892" lon="-0.04355">
        <ele>1141.4</ele>
        <time>2021-10-09T02:06:34</time>
      </trkpt>
      <trkpt lat="42.95918" lon="-0.04367">
        <ele>1140.6</ele>
        <time>2021-10-09T02:08:39</time>
      </trkpt>
      <trkpt lat="42.9592" lon="-0.04368">
        <ele>1141</ele>
        <time>2021-10-09T02:08:40</time>
      </trkpt>
      <trkpt lat="42.95922" lon="-0.0437">
        <ele>1141</ele>
        <time>2021-10-09T02:08:41</time>
      </trkpt>
      <trkpt lat="42.95925" lon="-0.04371">
        <ele>1141.2</ele>
        <time>2021-10-09T02:08:42</time>
      </trkpt>
      <trkpt lat="42.95927" lon="-0.04371">
        <ele>1141</ele>
        <time>2021-10-09T02:08:43</time>
      </trkpt>
      <trkpt lat="42.95929" lon="-0.04372">
        <ele>1140.8</ele>
        <time>2021-10-09T02:08:44</time>
      </trkpt>
      <trkpt lat="42.95931" lon="-0.04375">
        <ele>1140.2</ele>
        <time>2021-10-09T02:08:45</time>
      </trkpt>
      <trkpt lat="42.95934" lon="-0.04379">
        <ele>1140</ele>
        <time>2021-10-09T02:08:46</time>
      </trkpt>
      <trkpt lat="42.95937" lon="-0.04381">
        <ele>1139.8</ele>
        <time>2021-10-09T02:08:47</time>
      </trkpt>
      <trkpt lat="42.95939" lon="-0.04384">
        <ele>1138.8</ele>
        <time>2021-10-09T02:08:48</time>
      </trkpt>
      <trkpt lat="42.95941" lon="-0.04385">
        <ele>1138.2</ele>
        <time>2021-10-09T02:08:49</time>
      </trkpt>
      <trkpt lat="42.95943" lon="-0.04387">
        <ele>1137.4</ele>
        <time>2021-10-09T02:08:50</time>
      </trkpt>
      <trkpt lat="42.95945" lon="-0.04389">
        <ele>1136.8</ele>
        <time>2021-10-09T02:08:51</time>
      </trkpt>
      <trkpt lat="42.95948" lon="-0.04392">
        <ele>1136</ele>
        <time>2021-10-09T02:08:52</time>
      </trkpt>
      <trkpt lat="42.95951" lon="-0.04395">
        <ele>1135</ele>
        <time>2021-10-09T02:08:53</time>
      </trkpt>
      <trkpt lat="42.95954" lon="-0.04399">
        <ele>1134.2</ele>
        <time>2021-10-09T02:08:54</time>
      </trkpt>
      <trkpt lat="42.95957" lon="-0.04401">
        <ele>1133</ele>
        <time>2021-10-09T02:08:55</time>
      </trkpt>
      <trkpt lat="42.95957" lon="-0.04404">
        <ele>1132.4</ele>
        <time>2021-10-09T02:08:56</time>
      </trkpt>
      <trkpt lat="42.95954" lon="-0.04406">
        <ele>1131.6</ele>
        <time>2021-10-09T02:08:57</time>
      </trkpt>
      <trkpt lat="42.95949" lon="-0.04406">
        <ele>1130</ele>
        <time>2021-10-09T02:08:58</time>
      </trkpt>
      <trkpt lat="42.95944" lon="-0.04407">
        <ele>1128.8</ele>
        <time>2021-10-09T02:08:59</time>
      </trkpt>
      <trkpt lat="42.9594" lon="-0.04409">
        <ele>1127.6</ele>
        <time>2021-10-09T02:09:00</time>
      </trkpt>
      <trkpt lat="42.95936" lon="-0.04412">
        <ele>1125.8</ele>
        <time>2021-10-09T02:09:01</time>
      </trkpt>
      <trkpt lat="42.95931" lon="-0.04413">
        <ele>1124.4</ele>
        <time>2021-10-09T02:09:02</time>
      </trkpt>
      <trkpt lat="42.95925" lon="-0.04415">
        <ele>1123</ele>
        <time>2021-10-09T02:09:03</time>
      </trkpt>
      <trkpt lat="42.95919" lon="-0.04417">
        <ele>1121</ele>
        <time>2021-10-09T02:09:04</time>
      </trkpt>
      <trkpt lat="42.95912" lon="-0.0442">
        <ele>1119</ele>
        <time>2021-10-09T02:09:05</time>
      </trkpt>
      <trkpt lat="42.95905" lon="-0.04423">
        <ele>1117.2</ele>
        <time>2021-10-09T02:09:06</time>
      </trkpt>
      <trkpt lat="42.959" lon="-0.04425">
        <ele>1115.6</ele>
        <time>2021-10-09T02:09:07</time>
      </trkpt>
      <trkpt lat="42.95895" lon="-0.04427">
        <ele>1114.2</ele>
        <time>2021-10-09T02:09:08</time>
      </trkpt>
      <trkpt lat="42.95891" lon="-0.04429">
        <ele>1112.6</ele>
        <time>2021-10-09T02:09:09</time>
      </trkpt>
      <trkpt lat="42.95891" lon="-0.04432">
        <ele>1111</ele>
        <time>2021-10-09T02:09:10</time>
      </trkpt>
      <trkpt lat="42.95893" lon="-0.04436">
        <ele>1109.6</ele>
        <time>2021-10-09T02:09:11</time>
      </trkpt>
      <trkpt lat="42.95897" lon="-0.04439">
        <ele>1108.8</ele>
        <time>2021-10-09T02:09:12</time>
      </trkpt>
      <trkpt lat="42.95902" lon="-0.04443">
        <ele>1108</ele>
        <time>2021-10-09T02:09:13</time>
      </trkpt>
      <trkpt lat="42.95907" lon="-0.04448">
        <ele>1106.6</ele>
        <time>2021-10-09T02:09:14</time>
      </trkpt>
      <trkpt lat="42.95912" lon="-0.04453">
        <ele>1104.8</ele>
        <time>2021-10-09T02:09:15</time>
      </trkpt>
      <trkpt lat="42.95918" lon="-0.04458">
        <ele>1103.6</ele>
        <time>2021-10-09T02:09:16</time>
      </trkpt>
      <trkpt lat="42.95924" lon="-0.04465">
        <ele>1102.2</ele>
        <time>2021-10-09T02:09:17</time>
      </trkpt>
      <trkpt lat="42.9593" lon="-0.04471">
        <ele>1100.6</ele>
        <time>2021-10-09T02:09:18</time>
      </trkpt>
      <trkpt lat="42.95935" lon="-0.04476">
        <ele>1100.6</ele>
        <time>2021-10-09T02:09:19</time>
      </trkpt>
      <trkpt lat="42.95941" lon="-0.0448">
        <ele>1100.6</ele>
        <time>2021-10-09T02:09:20</time>
      </trkpt>
      <trkpt lat="42.95945" lon="-0.04484">
        <ele>1100.6</ele>
        <time>2021-10-09T02:09:21</time>
      </trkpt>
      <trkpt lat="42.95949" lon="-0.04489">
        <ele>1100.6</ele>
        <time>2021-10-09T02:09:22</time>
      </trkpt>
      <trkpt lat="42.95953" lon="-0.04494">
        <ele>1100.6</ele>
        <time>2021-10-09T02:09:23</time>
      </trkpt>
      <trkpt lat="42.95958" lon="-0.04497">
        <ele>1090.8</ele>
        <time>2021-10-09T02:09:24</time>
      </trkpt>
      <trkpt lat="42.95963" lon="-0.04501">
        <ele>1088.8</ele>
        <time>2021-10-09T02:09:25</time>
      </trkpt>
      <trkpt lat="42.95968" lon="-0.04505">
        <ele>1087.6</ele>
        <time>2021-10-09T02:09:26</time>
      </trkpt>
      <trkpt lat="42.9597" lon="-0.04506">
        <ele>1087.6</ele>
        <time>2021-10-09T02:09:27</time>
      </trkpt>
      <trkpt lat="42.95973" lon="-0.04508">
        <ele>1087.6</ele>
        <time>2021-10-09T02:09:28</time>
      </trkpt>
      <trkpt lat="42.95977" lon="-0.04511">
        <ele>1087.6</ele>
        <time>2021-10-09T02:09:29</time>
      </trkpt>
      <trkpt lat="42.95978" lon="-0.04512">
        <ele>1087.6</ele>
        <time>2021-10-09T02:09:30</time>
      </trkpt>
      <trkpt lat="42.9598" lon="-0.04512">
        <ele>1087.6</ele>
        <time>2021-10-09T02:09:31</time>
      </trkpt>
      <trkpt lat="42.95983" lon="-0.0451">
        <ele>1078</ele>
        <time>2021-10-09T02:09:32</time>
      </trkpt>
      <trkpt lat="42.95987" lon="-0.04509">
        <ele>1078</ele>
        <time>2021-10-09T02:09:33</time>
      </trkpt>
      <trkpt lat="42.9599" lon="-0.0451">
        <ele>1078</ele>
        <time>2021-10-09T02:09:34</time>
      </trkpt>
      <trkpt lat="42.95995" lon="-0.0451">
        <ele>1078</ele>
        <time>2021-10-09T02:09:35</time>
      </trkpt>
      <trkpt lat="42.95999" lon="-0.0451">
        <ele>1078</ele>
        <time>2021-10-09T02:09:36</time>
      </trkpt>
      <trkpt lat="42.96002" lon="-0.0451">
        <ele>1078</ele>
        <time>2021-10-09T02:09:37</time>
      </trkpt>
      <trkpt lat="42.96004" lon="-0.04508">
        <ele>1067.4</ele>
        <time>2021-10-09T02:09:38</time>
      </trkpt>
      <trkpt lat="42.96007" lon="-0.04507">
        <ele>1066</ele>
        <time>2021-10-09T02:09:39</time>
      </trkpt>
      <trkpt lat="42.96011" lon="-0.04505">
        <ele>1064.6</ele>
        <time>2021-10-09T02:09:40</time>
      </trkpt>
      <trkpt lat="42.96013" lon="-0.04505">
        <ele>1063.2</ele>
        <time>2021-10-09T02:09:41</time>
      </trkpt>
      <trkpt lat="42.96016" lon="-0.04506">
        <ele>1062.2</ele>
        <time>2021-10-09T02:09:42</time>
      </trkpt>
      <trkpt lat="42.96018" lon="-0.04505">
        <ele>1060.6</ele>
        <time>2021-10-09T02:09:43</time>
      </trkpt>
      <trkpt lat="42.9602" lon="-0.04503">
        <ele>1059.2</ele>
        <time>2021-10-09T02:09:44</time>
      </trkpt>
      <trkpt lat="42.96025" lon="-0.04501">
        <ele>1058</ele>
        <time>2021-10-09T02:09:45</time>
      </trkpt>
      <trkpt lat="42.96026" lon="-0.04503">
        <ele>1056.4</ele>
        <time>2021-10-09T02:09:46</time>
      </trkpt>
      <trkpt lat="42.96028" lon="-0.04503">
        <ele>1054.8</ele>
        <time>2021-10-09T02:09:47</time>
      </trkpt>
      <trkpt lat="42.96034" lon="-0.04506">
        <ele>1053.8</ele>
        <time>2021-10-09T02:09:48</time>
      </trkpt>
      <trkpt lat="42.96045" lon="-0.04505">
        <ele>1053.8</ele>
        <time>2021-10-09T02:09:49</time>
      </trkpt>
      <trkpt lat="42.96053" lon="-0.04502">
        <ele>1053.8</ele>
        <time>2021-10-09T02:09:50</time>
      </trkpt>
      <trkpt lat="42.96061" lon="-0.04505">
        <ele>1053.8</ele>
        <time>2021-10-09T02:09:51</time>
      </trkpt>
      <trkpt lat="42.96066" lon="-0.04506">
        <ele>1053.8</ele>
        <time>2021-10-09T02:09:52</time>
      </trkpt>
      <trkpt lat="42.96077" lon="-0.04505">
        <ele>1053.8</ele>
        <time>2021-10-09T02:09:53</time>
      </trkpt>
      <trkpt lat="42.9608" lon="-0.04506">
        <ele>1041.6</ele>
        <time>2021-10-09T02:09:54</time>
      </trkpt>
      <trkpt lat="42.96083" lon="-0.04507">
        <ele>1039.8</ele>
        <time>2021-10-09T02:09:55</time>
      </trkpt>
      <trkpt lat="42.96084" lon="-0.04506">
        <ele>1038</ele>
        <time>2021-10-09T02:09:56</time>
      </trkpt>
      <trkpt lat="42.96088" lon="-0.04505">
        <ele>1038</ele>
        <time>2021-10-09T02:09:57</time>
      </trkpt>
      <trkpt lat="42.96093" lon="-0.04504">
        <ele>1038</ele>
        <time>2021-10-09T02:09:58</time>
      </trkpt>
      <trkpt lat="42.96098" lon="-0.04503">
        <ele>1038</ele>
        <time>2021-10-09T02:09:59</time>
      </trkpt>
      <trkpt lat="42.961" lon="-0.04501">
        <ele>1038</ele>
        <time>2021-10-09T02:10:00</time>
      </trkpt>
      <trkpt lat="42.96105" lon="-0.04499">
        <ele>1038</ele>
        <time>2021-10-09T02:10:01</time>
      </trkpt>
      <trkpt lat="42.96111" lon="-0.04497">
        <ele>1027.4</ele>
        <time>2021-10-09T02:10:02</time>
      </trkpt>
      <trkpt lat="42.96121" lon="-0.04494">
        <ele>1025.8</ele>
        <time>2021-10-09T02:10:03</time>
      </trkpt>
      <trkpt lat="42.9613" lon="-0.04493">
        <ele>1024</ele>
        <time>2021-10-09T02:10:04</time>
      </trkpt>
      <trkpt lat="42.96143" lon="-0.04489">
        <ele>1022.8</ele>
        <time>2021-10-09T02:10:05</time>
      </trkpt>
      <trkpt lat="42.96151" lon="-0.04487">
        <ele>1021.6</ele>
        <time>2021-10-09T02:10:06</time>
      </trkpt>
      <trkpt lat="42.96151" lon="-0.04486">
        <ele>1020.6</ele>
        <time>2021-10-09T02:10:07</time>
      </trkpt>
      <trkpt lat="42.96154" lon="-0.04483">
        <ele>1019.4</ele>
        <time>2021-10-09T02:10:08</time>
      </trkpt>
      <trkpt lat="42.96158" lon="-0.04479">
        <ele>1018.4</ele>
        <time>2021-10-09T02:10:09</time>
      </trkpt>
      <trkpt lat="42.96161" lon="-0.04473">
        <ele>1017.4</ele>
        <time>2021-10-09T02:10:10</time>
      </trkpt>
      <trkpt lat="42.96161" lon="-0.04467">
        <ele>1016.6</ele>
        <time>2021-10-09T02:10:11</time>
      </trkpt>
      <trkpt lat="42.96163" lon="-0.0446">
        <ele>1016</ele>
        <time>2021-10-09T02:10:12</time>
      </trkpt>
      <trkpt lat="42.9616" lon="-0.04453">
        <ele>1015.4</ele>
        <time>2021-10-09T02:10:13</time>
      </trkpt>
      <trkpt lat="42.96163" lon="-0.04447">
        <ele>1014.6</ele>
        <time>2021-10-09T02:10:14</time>
      </trkpt>
      <trkpt lat="42.96166" lon="-0.04443">
        <ele>1013.2</ele>
        <time>2021-10-09T02:10:15</time>
      </trkpt>
      <trkpt lat="42.96177" lon="-0.04442">
        <ele>1012</ele>
        <time>2021-10-09T02:10:16</time>
      </trkpt>
      <trkpt lat="42.96181" lon="-0.04441">
        <ele>1011.6</ele>
        <time>2021-10-09T02:10:17</time>
      </trkpt>
      <trkpt lat="42.96184" lon="-0.04442">
        <ele>1011.2</ele>
        <time>2021-10-09T02:10:18</time>
      </trkpt>
      <trkpt lat="42.96187" lon="-0.04442">
        <ele>1011.2</ele>
        <time>2021-10-09T02:10:19</time>
      </trkpt>
      <trkpt lat="42.96191" lon="-0.04444">
        <ele>1011</ele>
        <time>2021-10-09T02:10:20</time>
      </trkpt>
      <trkpt lat="42.96198" lon="-0.04446">
        <ele>1011</ele>
        <time>2021-10-09T02:10:21</time>
      </trkpt>
      <trkpt lat="42.96202" lon="-0.04449">
        <ele>1011</ele>
        <time>2021-10-09T02:10:22</time>
      </trkpt>
      <trkpt lat="42.96209" lon="-0.0445">
        <ele>1011</ele>
        <time>2021-10-09T02:10:23</time>
      </trkpt>
      <trkpt lat="42.96217" lon="-0.0445">
        <ele>1010.8</ele>
        <time>2021-10-09T02:10:24</time>
      </trkpt>
      <trkpt lat="42.96223" lon="-0.04451">
        <ele>1010.8</ele>
        <time>2021-10-09T02:10:25</time>
      </trkpt>
      <trkpt lat="42.9623" lon="-0.04451">
        <ele>1011.2</ele>
        <time>2021-10-09T02:10:26</time>
      </trkpt>
      <trkpt lat="42.96234" lon="-0.04452">
        <ele>1011.2</ele>
        <time>2021-10-09T02:10:27</time>
      </trkpt>
      <trkpt lat="42.96239" lon="-0.04452">
        <ele>1011.4</ele>
        <time>2021-10-09T02:10:28</time>
      </trkpt>
      <trkpt lat="42.96244" lon="-0.04455">
        <ele>1011.4</ele>
        <time>2021-10-09T02:10:29</time>
      </trkpt>
      <trkpt lat="42.96248" lon="-0.04455">
        <ele>1011.4</ele>
        <time>2021-10-09T02:10:30</time>
      </trkpt>
      <trkpt lat="42.96255" lon="-0.04457">
        <ele>1011.6</ele>
        <time>2021-10-09T02:10:31</time>
      </trkpt>
      <trkpt lat="42.96258" lon="-0.04458">
        <ele>1011.8</ele>
        <time>2021-10-09T02:10:32</time>
      </trkpt>
      <trkpt lat="42.96263" lon="-0.04461">
        <ele>1012</ele>
        <time>2021-10-09T02:10:33</time>
      </trkpt>
      <trkpt lat="42.96269" lon="-0.04465">
        <ele>1012</ele>
        <time>2021-10-09T02:10:34</time>
      </trkpt>
      <trkpt lat="42.96274" lon="-0.04468">
        <ele>1012.2</ele>
        <time>2021-10-09T02:10:35</time>
      </trkpt>
      <trkpt lat="42.96279" lon="-0.0447">
        <ele>1012.4</ele>
        <time>2021-10-09T02:10:36</time>
      </trkpt>
      <trkpt lat="42.96283" lon="-0.04473">
        <ele>1012.6</ele>
        <time>2021-10-09T02:10:37</time>
      </trkpt>
      <trkpt lat="42.96286" lon="-0.04475">
        <ele>1012.6</ele>
        <time>2021-10-09T02:10:38</time>
      </trkpt>
      <trkpt lat="42.96289" lon="-0.04476">
        <ele>1013</ele>
        <time>2021-10-09T02:10:39</time>
      </trkpt>
      <trkpt lat="42.96292" lon="-0.04478">
        <ele>1013.2</ele>
        <time>2021-10-09T02:10:40</time>
      </trkpt>
      <trkpt lat="42.96294" lon="-0.0448">
        <ele>1013.4</ele>
        <time>2021-10-09T02:10:41</time>
      </trkpt>
      <trkpt lat="42.96297" lon="-0.04482">
        <ele>1014</ele>
        <time>2021-10-09T02:10:42</time>
      </trkpt>
      <trkpt lat="42.96298" lon="-0.04484">
        <ele>1014.2</ele>
        <time>2021-10-09T02:10:43</time>
      </trkpt>
      <trkpt lat="42.963" lon="-0.04486">
        <ele>1014.4</ele>
        <time>2021-10-09T02:10:44</time>
      </trkpt>
      <trkpt lat="42.96301" lon="-0.04487">
        <ele>1014.8</ele>
        <time>2021-10-09T02:10:45</time>
      </trkpt>
      <trkpt lat="42.96303" lon="-0.04488">
        <ele>1015</ele>
        <time>2021-10-09T02:10:46</time>
      </trkpt>
      <trkpt lat="42.96304" lon="-0.04489">
        <ele>1015.4</ele>
        <time>2021-10-09T02:10:47</time>
      </trkpt>
      <trkpt lat="42.96307" lon="-0.04491">
        <ele>1015.4</ele>
        <time>2021-10-09T02:10:48</time>
      </trkpt>
      <trkpt lat="42.96308" lon="-0.04493">
        <ele>1015.8</ele>
        <time>2021-10-09T02:10:49</time>
      </trkpt>
      <trkpt lat="42.9631" lon="-0.04494">
        <ele>1015.8</ele>
        <time>2021-10-09T02:10:50</time>
      </trkpt>
      <trkpt lat="42.96312" lon="-0.04495">
        <ele>1016</ele>
        <time>2021-10-09T02:10:51</time>
      </trkpt>
      <trkpt lat="42.96313" lon="-0.04496">
        <ele>1016</ele>
        <time>2021-10-09T02:10:52</time>
      </trkpt>
      <trkpt lat="42.96315" lon="-0.04497">
        <ele>1015.8</ele>
        <time>2021-10-09T02:10:53</time>
      </trkpt>
      <trkpt lat="42.96318" lon="-0.04499">
        <ele>1015.6</ele>
        <time>2021-10-09T02:10:54</time>
      </trkpt>
      <trkpt lat="42.96321" lon="-0.045">
        <ele>1015.4</ele>
        <time>2021-10-09T02:10:55</time>
      </trkpt>
      <trkpt lat="42.96323" lon="-0.04501">
        <ele>1015.4</ele>
        <time>2021-10-09T02:10:56</time>
      </trkpt>
      <trkpt lat="42.96325" lon="-0.04502">
        <ele>1015.2</ele>
        <time>2021-10-09T02:10:57</time>
      </trkpt>
      <trkpt lat="42.96328" lon="-0.04504">
        <ele>1015.2</ele>
        <time>2021-10-09T02:10:58</time>
      </trkpt>
      <trkpt lat="42.9633" lon="-0.04505">
        <ele>1015</ele>
        <time>2021-10-09T02:10:59</time>
      </trkpt>
      <trkpt lat="42.96332" lon="-0.04505">
        <ele>1014.8</ele>
        <time>2021-10-09T02:11:00</time>
      </trkpt>
      <trkpt lat="42.96334" lon="-0.04506">
        <ele>1014.2</ele>
        <time>2021-10-09T02:11:01</time>
      </trkpt>
      <trkpt lat="42.96337" lon="-0.04507">
        <ele>1013.4</ele>
        <time>2021-10-09T02:11:02</time>
      </trkpt>
      <trkpt lat="42.9634" lon="-0.0451">
        <ele>1013.4</ele>
        <time>2021-10-09T02:11:03</time>
      </trkpt>
      <trkpt lat="42.96343" lon="-0.04512">
        <ele>1013.8</ele>
        <time>2021-10-09T02:11:04</time>
      </trkpt>
      <trkpt lat="42.96345" lon="-0.04514">
        <ele>1014.2</ele>
        <time>2021-10-09T02:11:05</time>
      </trkpt>
      <trkpt lat="42.96347" lon="-0.04516">
        <ele>1014.2</ele>
        <time>2021-10-09T02:11:06</time>
      </trkpt>
      <trkpt lat="42.96349" lon="-0.04519">
        <ele>1014.4</ele>
        <time>2021-10-09T02:11:07</time>
      </trkpt>
      <trkpt lat="42.9635" lon="-0.04522">
        <ele>1014.6</ele>
        <time>2021-10-09T02:11:08</time>
      </trkpt>
      <trkpt lat="42.96353" lon="-0.04524">
        <ele>1014.6</ele>
        <time>2021-10-09T02:11:09</time>
      </trkpt>
      <trkpt lat="42.96355" lon="-0.04526">
        <ele>1015</ele>
        <time>2021-10-09T02:11:10</time>
      </trkpt>
      <trkpt lat="42.96357" lon="-0.04529">
        <ele>1015.2</ele>
        <time>2021-10-09T02:11:11</time>
      </trkpt>
      <trkpt lat="42.96358" lon="-0.04531">
        <ele>1015.4</ele>
        <time>2021-10-09T02:11:12</time>
      </trkpt>
      <trkpt lat="42.9636" lon="-0.04533">
        <ele>1015.6</ele>
        <time>2021-10-09T02:11:13</time>
      </trkpt>
      <trkpt lat="42.96361" lon="-0.04536">
        <ele>1015.8</ele>
        <time>2021-10-09T02:11:14</time>
      </trkpt>
      <trkpt lat="42.96363" lon="-0.04538">
        <ele>1016</ele>
        <time>2021-10-09T02:11:15</time>
      </trkpt>
      <trkpt lat="42.96365" lon="-0.04541">
        <ele>1016.2</ele>
        <time>2021-10-09T02:11:16</time>
      </trkpt>
      <trkpt lat="42.96367" lon="-0.04544">
        <ele>1016.4</ele>
        <time>2021-10-09T02:11:17</time>
      </trkpt>
      <trkpt lat="42.96368" lon="-0.04547">
        <ele>1016.4</ele>
        <time>2021-10-09T02:11:18</time>
      </trkpt>
      <trkpt lat="42.96371" lon="-0.04549">
        <ele>1016.4</ele>
        <time>2021-10-09T02:11:19</time>
      </trkpt>
      <trkpt lat="42.96372" lon="-0.04553">
        <ele>1016.6</ele>
        <time>2021-10-09T02:11:20</time>
      </trkpt>
      <trkpt lat="42.96374" lon="-0.04556">
        <ele>1016.8</ele>
        <time>2021-10-09T02:11:21</time>
      </trkpt>
      <trkpt lat="42.96376" lon="-0.04559">
        <ele>1017</ele>
        <time>2021-10-09T02:11:22</time>
      </trkpt>
      <trkpt lat="42.96378" lon="-0.04562">
        <ele>1017</ele>
        <time>2021-10-09T02:11:23</time>
      </trkpt>
      <trkpt lat="42.9638" lon="-0.04565">
        <ele>1017</ele>
        <time>2021-10-09T02:11:24</time>
      </trkpt>
      <trkpt lat="42.96381" lon="-0.04568">
        <ele>1017.4</ele>
        <time>2021-10-09T02:11:25</time>
      </trkpt>
      <trkpt lat="42.96383" lon="-0.0457">
        <ele>1017.6</ele>
        <time>2021-10-09T02:11:26</time>
      </trkpt>
      <trkpt lat="42.96384" lon="-0.04573">
        <ele>1017.6</ele>
        <time>2021-10-09T02:11:27</time>
      </trkpt>
      <trkpt lat="42.96385" lon="-0.04575">
        <ele>1017.8</ele>
        <time>2021-10-09T02:11:28</time>
      </trkpt>
      <trkpt lat="42.96387" lon="-0.04578">
        <ele>1017.8</ele>
        <time>2021-10-09T02:11:29</time>
      </trkpt>
      <trkpt lat="42.96388" lon="-0.04581">
        <ele>1017.8</ele>
        <time>2021-10-09T02:11:30</time>
      </trkpt>
      <trkpt lat="42.9639" lon="-0.04585">
        <ele>1018</ele>
        <time>2021-10-09T02:11:31</time>
      </trkpt>
      <trkpt lat="42.96392" lon="-0.04588">
        <ele>1018</ele>
        <time>2021-10-09T02:11:32</time>
      </trkpt>
      <trkpt lat="42.96393" lon="-0.04592">
        <ele>1018</ele>
        <time>2021-10-09T02:11:33</time>
      </trkpt>
      <trkpt lat="42.96395" lon="-0.04596">
        <ele>1018</ele>
        <time>2021-10-09T02:11:34</time>
      </trkpt>
      <trkpt lat="42.96396" lon="-0.04599">
        <ele>1017.8</ele>
        <time>2021-10-09T02:11:35</time>
      </trkpt>
      <trkpt lat="42.96399" lon="-0.04603">
        <ele>1017.6</ele>
        <time>2021-10-09T02:11:36</time>
      </trkpt>
      <trkpt lat="42.964" lon="-0.04607">
        <ele>1017.6</ele>
        <time>2021-10-09T02:11:37</time>
      </trkpt>
      <trkpt lat="42.96401" lon="-0.04609">
        <ele>1017.4</ele>
        <time>2021-10-09T02:11:38</time>
      </trkpt>
      <trkpt lat="42.96402" lon="-0.0461">
        <ele>1017.4</ele>
        <time>2021-10-09T02:11:39</time>
      </trkpt>
      <trkpt lat="42.96402" lon="-0.04611">
        <ele>1017.4</ele>
        <time>2021-10-09T02:11:40</time>
      </trkpt>
      <trkpt lat="42.96402" lon="-0.04612">
        <ele>1017.4</ele>
        <time>2021-10-09T02:11:41</time>
      </trkpt>
      <trkpt lat="42.96401" lon="-0.04613">
        <ele>1017.4</ele>
        <time>2021-10-09T02:11:42</time>
      </trkpt>
      <trkpt lat="42.96401" lon="-0.04613">
        <ele>1017.4</ele>
        <time>2021-10-09T02:11:43</time>
      </trkpt>
      <trkpt lat="42.96402" lon="-0.04614">
        <ele>1017.4</ele>
        <time>2021-10-09T02:11:44</time>
      </trkpt>
      <trkpt lat="42.96402" lon="-0.04614">
        <ele>1017.4</ele>
        <time>2021-10-09T02:11:45</time>
      </trkpt>
      <trkpt lat="42.96402" lon="-0.04614">
        <ele>1017.4</ele>
        <time>2021-10-09T02:11:46</time>
      </trkpt>
      <trkpt lat="42.96409" lon="-0.04637">
        <ele>1017</ele>
        <time>2021-10-09T02:12:20</time>
      </trkpt>
      <trkpt lat="42.96409" lon="-0.04637">
        <ele>1017.2</ele>
        <time>2021-10-09T02:12:21</time>
      </trkpt>
      <trkpt lat="42.9641" lon="-0.04638">
        <ele>1017.2</ele>
        <time>2021-10-09T02:12:22</time>
      </trkpt>
      <trkpt lat="42.9641" lon="-0.04638">
        <ele>1017.2</ele>
        <time>2021-10-09T02:12:23</time>
      </trkpt>
      <trkpt lat="42.9641" lon="-0.04638">
        <ele>1017</ele>
        <time>2021-10-09T02:12:24</time>
      </trkpt>
      <trkpt lat="42.96435" lon="-0.04648">
        <ele>1011.4</ele>
        <time>2021-10-09T02:13:00</time>
      </trkpt>
      <trkpt lat="42.96438" lon="-0.0465">
        <ele>1010.6</ele>
        <time>2021-10-09T02:13:01</time>
      </trkpt>
      <trkpt lat="42.9644" lon="-0.04652">
        <ele>1009.4</ele>
        <time>2021-10-09T02:13:02</time>
      </trkpt>
      <trkpt lat="42.96443" lon="-0.04654">
        <ele>1007.8</ele>
        <time>2021-10-09T02:13:03</time>
      </trkpt>
      <trkpt lat="42.96446" lon="-0.04655">
        <ele>1006.2</ele>
        <time>2021-10-09T02:13:04</time>
      </trkpt>
      <trkpt lat="42.96449" lon="-0.04659">
        <ele>1006.2</ele>
        <time>2021-10-09T02:13:05</time>
      </trkpt>
      <trkpt lat="42.96451" lon="-0.04663">
        <ele>1006.2</ele>
        <time>2021-10-09T02:13:06</time>
      </trkpt>
      <trkpt lat="42.96456" lon="-0.04666">
        <ele>1006.2</ele>
        <time>2021-10-09T02:13:07</time>
      </trkpt>
      <trkpt lat="42.96463" lon="-0.04669">
        <ele>1006.2</ele>
        <time>2021-10-09T02:13:08</time>
      </trkpt>
      <trkpt lat="42.96468" lon="-0.04673">
        <ele>1006.2</ele>
        <time>2021-10-09T02:13:09</time>
      </trkpt>
      <trkpt lat="42.96476" lon="-0.04676">
        <ele>997.6</ele>
        <time>2021-10-09T02:13:10</time>
      </trkpt>
      <trkpt lat="42.96483" lon="-0.04678">
        <ele>996.2</ele>
        <time>2021-10-09T02:13:11</time>
      </trkpt>
      <trkpt lat="42.96491" lon="-0.0468">
        <ele>995.4</ele>
        <time>2021-10-09T02:13:12</time>
      </trkpt>
      <trkpt lat="42.96498" lon="-0.04683">
        <ele>994.4</ele>
        <time>2021-10-09T02:13:13</time>
      </trkpt>
      <trkpt lat="42.96504" lon="-0.04687">
        <ele>993.6</ele>
        <time>2021-10-09T02:13:14</time>
      </trkpt>
      <trkpt lat="42.96509" lon="-0.04693">
        <ele>993.2</ele>
        <time>2021-10-09T02:13:15</time>
      </trkpt>
      <trkpt lat="42.96515" lon="-0.04699">
        <ele>992.6</ele>
        <time>2021-10-09T02:13:16</time>
      </trkpt>
      <trkpt lat="42.96522" lon="-0.04704">
        <ele>992.6</ele>
        <time>2021-10-09T02:13:17</time>
      </trkpt>
      <trkpt lat="42.96528" lon="-0.04707">
        <ele>991.8</ele>
        <time>2021-10-09T02:13:18</time>
      </trkpt>
      <trkpt lat="42.96536" lon="-0.04714">
        <ele>991.4</ele>
        <time>2021-10-09T02:13:19</time>
      </trkpt>
      <trkpt lat="42.96543" lon="-0.0472">
        <ele>990.8</ele>
        <time>2021-10-09T02:13:20</time>
      </trkpt>
      <trkpt lat="42.96553" lon="-0.04739">
        <ele>990.4</ele>
        <time>2021-10-09T02:13:21</time>
      </trkpt>
      <trkpt lat="42.96562" lon="-0.04749">
        <ele>990.4</ele>
        <time>2021-10-09T02:13:22</time>
      </trkpt>
      <trkpt lat="42.96572" lon="-0.04758">
        <ele>990</ele>
        <time>2021-10-09T02:13:23</time>
      </trkpt>
      <trkpt lat="42.96581" lon="-0.04759">
        <ele>989.6</ele>
        <time>2021-10-09T02:13:24</time>
      </trkpt>
      <trkpt lat="42.96587" lon="-0.04758">
        <ele>989.2</ele>
        <time>2021-10-09T02:13:25</time>
      </trkpt>
      <trkpt lat="42.96589" lon="-0.04758">
        <ele>989</ele>
        <time>2021-10-09T02:13:26</time>
      </trkpt>
      <trkpt lat="42.9659" lon="-0.04757">
        <ele>988.8</ele>
        <time>2021-10-09T02:13:27</time>
      </trkpt>
      <trkpt lat="42.9659" lon="-0.04757">
        <ele>988.6</ele>
        <time>2021-10-09T02:13:28</time>
      </trkpt>
      <trkpt lat="42.9659" lon="-0.04757">
        <ele>988.2</ele>
        <time>2021-10-09T02:13:29</time>
      </trkpt>
      <trkpt lat="42.96591" lon="-0.04756">
        <ele>987.6</ele>
        <time>2021-10-09T02:13:30</time>
      </trkpt>
      <trkpt lat="42.96592" lon="-0.04755">
        <ele>987.2</ele>
        <time>2021-10-09T02:13:31</time>
      </trkpt>
      <trkpt lat="42.96595" lon="-0.04754">
        <ele>986.8</ele>
        <time>2021-10-09T02:13:32</time>
      </trkpt>
      <trkpt lat="42.96597" lon="-0.04752">
        <ele>986.2</ele>
        <time>2021-10-09T02:13:33</time>
      </trkpt>
      <trkpt lat="42.96601" lon="-0.04749">
        <ele>985</ele>
        <time>2021-10-09T02:13:34</time>
      </trkpt>
      <trkpt lat="42.96604" lon="-0.04745">
        <ele>984.2</ele>
        <time>2021-10-09T02:13:35</time>
      </trkpt>
      <trkpt lat="42.9661" lon="-0.04738">
        <ele>983</ele>
        <time>2021-10-09T02:13:36</time>
      </trkpt>
      <trkpt lat="42.96614" lon="-0.04731">
        <ele>981.6</ele>
        <time>2021-10-09T02:13:37</time>
      </trkpt>
      <trkpt lat="42.96621" lon="-0.04724">
        <ele>980.2</ele>
        <time>2021-10-09T02:13:38</time>
      </trkpt>
      <trkpt lat="42.96624" lon="-0.04718">
        <ele>979.4</ele>
        <time>2021-10-09T02:13:39</time>
      </trkpt>
      <trkpt lat="42.96627" lon="-0.0471">
        <ele>978.4</ele>
        <time>2021-10-09T02:13:40</time>
      </trkpt>
      <trkpt lat="42.96629" lon="-0.04704">
        <ele>977.2</ele>
        <time>2021-10-09T02:13:41</time>
      </trkpt>
      <trkpt lat="42.9663" lon="-0.04698">
        <ele>976.2</ele>
        <time>2021-10-09T02:13:42</time>
      </trkpt>
      <trkpt lat="42.96632" lon="-0.04695">
        <ele>975.2</ele>
        <time>2021-10-09T02:13:43</time>
      </trkpt>
      <trkpt lat="42.96636" lon="-0.04695">
        <ele>974.4</ele>
        <time>2021-10-09T02:13:44</time>
      </trkpt>
      <trkpt lat="42.9664" lon="-0.04697">
        <ele>973.6</ele>
        <time>2021-10-09T02:13:45</time>
      </trkpt>
      <trkpt lat="42.96641" lon="-0.04701">
        <ele>972.4</ele>
        <time>2021-10-09T02:13:46</time>
      </trkpt>
      <trkpt lat="42.96643" lon="-0.04707">
        <ele>971.4</ele>
        <time>2021-10-09T02:13:47</time>
      </trkpt>
      <trkpt lat="42.96646" lon="-0.04714">
        <ele>970.2</ele>
        <time>2021-10-09T02:13:48</time>
      </trkpt>
      <trkpt lat="42.96648" lon="-0.04717">
        <ele>969.4</ele>
        <time>2021-10-09T02:13:49</time>
      </trkpt>
      <trkpt lat="42.9665" lon="-0.0472">
        <ele>968.6</ele>
        <time>2021-10-09T02:13:50</time>
      </trkpt>
      <trkpt lat="42.96651" lon="-0.04722">
        <ele>967.8</ele>
        <time>2021-10-09T02:13:51</time>
      </trkpt>
      <trkpt lat="42.96651" lon="-0.04724">
        <ele>967.4</ele>
        <time>2021-10-09T02:13:52</time>
      </trkpt>
      <trkpt lat="42.96652" lon="-0.04725">
        <ele>967.2</ele>
        <time>2021-10-09T02:13:53</time>
      </trkpt>
      <trkpt lat="42.96653" lon="-0.04725">
        <ele>967</ele>
        <time>2021-10-09T02:13:54</time>
      </trkpt>
      <trkpt lat="42.96653" lon="-0.04726">
        <ele>967.4</ele>
        <time>2021-10-09T02:13:55</time>
      </trkpt>
      <trkpt lat="42.96657" lon="-0.04725">
        <ele>967.8</ele>
        <time>2021-10-09T02:13:56</time>
      </trkpt>
      <trkpt lat="42.96659" lon="-0.04725">
        <ele>967.8</ele>
        <time>2021-10-09T02:13:57</time>
      </trkpt>
      <trkpt lat="42.96661" lon="-0.04726">
        <ele>967.8</ele>
        <time>2021-10-09T02:13:58</time>
      </trkpt>
      <trkpt lat="42.96669" lon="-0.04771">
        <ele>973.6</ele>
        <time>2021-10-09T02:18:07</time>
      </trkpt>
      <trkpt lat="42.9667" lon="-0.0477">
        <ele>973.4</ele>
        <time>2021-10-09T02:18:08</time>
      </trkpt>
      <trkpt lat="42.96671" lon="-0.04769">
        <ele>973</ele>
        <time>2021-10-09T02:18:09</time>
      </trkpt>
      <trkpt lat="42.96671" lon="-0.04769">
        <ele>972.6</ele>
        <time>2021-10-09T02:18:10</time>
      </trkpt>
      <trkpt lat="42.9667" lon="-0.04767">
        <ele>972.4</ele>
        <time>2021-10-09T02:18:11</time>
      </trkpt>
      <trkpt lat="42.9667" lon="-0.04766">
        <ele>972</ele>
        <time>2021-10-09T02:18:12</time>
      </trkpt>
      <trkpt lat="42.96669" lon="-0.04764">
        <ele>971.6</ele>
        <time>2021-10-09T02:18:13</time>
      </trkpt>
      <trkpt lat="42.96669" lon="-0.04762">
        <ele>971.2</ele>
        <time>2021-10-09T02:18:14</time>
      </trkpt>
      <trkpt lat="42.9667" lon="-0.04761">
        <ele>971</ele>
        <time>2021-10-09T02:18:15</time>
      </trkpt>
      <trkpt lat="42.96671" lon="-0.0476">
        <ele>970.4</ele>
        <time>2021-10-09T02:18:16</time>
      </trkpt>
      <trkpt lat="42.96673" lon="-0.04759">
        <ele>970.4</ele>
        <time>2021-10-09T02:18:17</time>
      </trkpt>
      <trkpt lat="42.96674" lon="-0.04756">
        <ele>970.2</ele>
        <time>2021-10-09T02:18:18</time>
      </trkpt>
      <trkpt lat="42.96675" lon="-0.04753">
        <ele>969.4</ele>
        <time>2021-10-09T02:18:19</time>
      </trkpt>
      <trkpt lat="42.96674" lon="-0.04749">
        <ele>968.8</ele>
        <time>2021-10-09T02:18:20</time>
      </trkpt>
      <trkpt lat="42.96674" lon="-0.04746">
        <ele>968</ele>
        <time>2021-10-09T02:18:21</time>
      </trkpt>
      <trkpt lat="42.96674" lon="-0.04742">
        <ele>967.6</ele>
        <time>2021-10-09T02:18:22</time>
      </trkpt>
      <trkpt lat="42.96674" lon="-0.0474">
        <ele>967</ele>
        <time>2021-10-09T02:18:23</time>
      </trkpt>
      <trkpt lat="42.96674" lon="-0.04737">
        <ele>966.8</ele>
        <time>2021-10-09T02:18:24</time>
      </trkpt>
      <trkpt lat="42.96675" lon="-0.04735">
        <ele>966.4</ele>
        <time>2021-10-09T02:18:25</time>
      </trkpt>
      <trkpt lat="42.96675" lon="-0.04733">
        <ele>966.4</ele>
        <time>2021-10-09T02:18:26</time>
      </trkpt>
      <trkpt lat="42.96675" lon="-0.04732">
        <ele>966.4</ele>
        <time>2021-10-09T02:18:27</time>
      </trkpt>
      <trkpt lat="42.96675" lon="-0.0473">
        <ele>966.4</ele>
        <time>2021-10-09T02:18:28</time>
      </trkpt>
      <trkpt lat="42.96675" lon="-0.04729">
        <ele>966.4</ele>
        <time>2021-10-09T02:18:29</time>
      </trkpt>
      <trkpt lat="42.96675" lon="-0.04729">
        <ele>966.4</ele>
        <time>2021-10-09T02:18:30</time>
      </trkpt>
      <trkpt lat="42.96675" lon="-0.04729">
        <ele>966.4</ele>
        <time>2021-10-09T02:18:31</time>
      </trkpt>
      <trkpt lat="42.96696" lon="-0.04708">
        <ele>961.2</ele>
        <time>2021-10-09T02:18:48</time>
      </trkpt>
      <trkpt lat="42.96698" lon="-0.04707">
        <ele>960.6</ele>
        <time>2021-10-09T02:18:49</time>
      </trkpt>
      <trkpt lat="42.967" lon="-0.04705">
        <ele>960</ele>
        <time>2021-10-09T02:18:50</time>
      </trkpt>
      <trkpt lat="42.96701" lon="-0.04702">
        <ele>959.2</ele>
        <time>2021-10-09T02:18:51</time>
      </trkpt>
      <trkpt lat="42.96703" lon="-0.04701">
        <ele>958.8</ele>
        <time>2021-10-09T02:18:52</time>
      </trkpt>
      <trkpt lat="42.96705" lon="-0.047">
        <ele>958.4</ele>
        <time>2021-10-09T02:18:53</time>
      </trkpt>
      <trkpt lat="42.96707" lon="-0.04698">
        <ele>957.8</ele>
        <time>2021-10-09T02:18:54</time>
      </trkpt>
      <trkpt lat="42.96708" lon="-0.04696">
        <ele>957.4</ele>
        <time>2021-10-09T02:18:55</time>
      </trkpt>
      <trkpt lat="42.9671" lon="-0.04694">
        <ele>956.8</ele>
        <time>2021-10-09T02:18:56</time>
      </trkpt>
      <trkpt lat="42.96711" lon="-0.04693">
        <ele>956.4</ele>
        <time>2021-10-09T02:18:57</time>
      </trkpt>
      <trkpt lat="42.96711" lon="-0.04692">
        <ele>956</ele>
        <time>2021-10-09T02:18:58</time>
      </trkpt>
      <trkpt lat="42.96712" lon="-0.0469">
        <ele>955.6</ele>
        <time>2021-10-09T02:18:59</time>
      </trkpt>
      <trkpt lat="42.96712" lon="-0.04689">
        <ele>955</ele>
        <time>2021-10-09T02:19:00</time>
      </trkpt>
      <trkpt lat="42.96712" lon="-0.04688">
        <ele>954.6</ele>
        <time>2021-10-09T02:19:01</time>
      </trkpt>
      <trkpt lat="42.96712" lon="-0.04688">
        <ele>954.4</ele>
        <time>2021-10-09T02:19:02</time>
      </trkpt>
      <trkpt lat="42.96713" lon="-0.04688">
        <ele>954.4</ele>
        <time>2021-10-09T02:19:03</time>
      </trkpt>
      <trkpt lat="42.96713" lon="-0.04688">
        <ele>954.4</ele>
        <time>2021-10-09T02:19:04</time>
      </trkpt>
      <trkpt lat="42.96713" lon="-0.04687">
        <ele>954.2</ele>
        <time>2021-10-09T02:19:05</time>
      </trkpt>
      <trkpt lat="42.96714" lon="-0.04687">
        <ele>954.2</ele>
        <time>2021-10-09T02:19:06</time>
      </trkpt>
      <trkpt lat="42.96714" lon="-0.04687">
        <ele>954.2</ele>
        <time>2021-10-09T02:19:07</time>
      </trkpt>
      <trkpt lat="42.96715" lon="-0.04686">
        <ele>954.2</ele>
        <time>2021-10-09T02:19:08</time>
      </trkpt>
      <trkpt lat="42.9677" lon="-0.04627">
        <ele>945</ele>
        <time>2021-10-09T02:19:31</time>
      </trkpt>
      <trkpt lat="42.96775" lon="-0.04619">
        <ele>943.2</ele>
        <time>2021-10-09T02:19:32</time>
      </trkpt>
      <trkpt lat="42.96781" lon="-0.04611">
        <ele>942.6</ele>
        <time>2021-10-09T02:19:33</time>
      </trkpt>
      <trkpt lat="42.96786" lon="-0.04604">
        <ele>941.2</ele>
        <time>2021-10-09T02:19:34</time>
      </trkpt>
      <trkpt lat="42.96792" lon="-0.04597">
        <ele>939.6</ele>
        <time>2021-10-09T02:19:35</time>
      </trkpt>
      <trkpt lat="42.96798" lon="-0.0459">
        <ele>939.6</ele>
        <time>2021-10-09T02:19:36</time>
      </trkpt>
      <trkpt lat="42.96804" lon="-0.04581">
        <ele>939.6</ele>
        <time>2021-10-09T02:19:37</time>
      </trkpt>
      <trkpt lat="42.96809" lon="-0.04572">
        <ele>939.6</ele>
        <time>2021-10-09T02:19:38</time>
      </trkpt>
      <trkpt lat="42.96812" lon="-0.04562">
        <ele>939.6</ele>
        <time>2021-10-09T02:19:39</time>
      </trkpt>
      <trkpt lat="42.96815" lon="-0.04552">
        <ele>939.6</ele>
        <time>2021-10-09T02:19:40</time>
      </trkpt>
      <trkpt lat="42.96817" lon="-0.04545">
        <ele>927.2</ele>
        <time>2021-10-09T02:19:41</time>
      </trkpt>
      <trkpt lat="42.96815" lon="-0.04542">
        <ele>926</ele>
        <time>2021-10-09T02:19:42</time>
      </trkpt>
      <trkpt lat="42.96816" lon="-0.04538">
        <ele>925</ele>
        <time>2021-10-09T02:19:43</time>
      </trkpt>
      <trkpt lat="42.96815" lon="-0.04537">
        <ele>924.8</ele>
        <time>2021-10-09T02:19:44</time>
      </trkpt>
      <trkpt lat="42.96813" lon="-0.04536">
        <ele>924.6</ele>
        <time>2021-10-09T02:19:45</time>
      </trkpt>
      <trkpt lat="42.96814" lon="-0.04534">
        <ele>924.4</ele>
        <time>2021-10-09T02:19:46</time>
      </trkpt>
      <trkpt lat="42.96817" lon="-0.04531">
        <ele>924.4</ele>
        <time>2021-10-09T02:19:47</time>
      </trkpt>
      <trkpt lat="42.96818" lon="-0.0453">
        <ele>924.2</ele>
        <time>2021-10-09T02:19:48</time>
      </trkpt>
      <trkpt lat="42.96824" lon="-0.04527">
        <ele>924</ele>
        <time>2021-10-09T02:19:49</time>
      </trkpt>
      <trkpt lat="42.96824" lon="-0.04524">
        <ele>923.8</ele>
        <time>2021-10-09T02:19:50</time>
      </trkpt>
      <trkpt lat="42.96827" lon="-0.04522">
        <ele>923.8</ele>
        <time>2021-10-09T02:19:51</time>
      </trkpt>
      <trkpt lat="42.96828" lon="-0.0452">
        <ele>923.8</ele>
        <time>2021-10-09T02:19:52</time>
      </trkpt>
      <trkpt lat="42.96831" lon="-0.04518">
        <ele>923.8</ele>
        <time>2021-10-09T02:19:53</time>
      </trkpt>
      <trkpt lat="42.96836" lon="-0.04517">
        <ele>923.8</ele>
        <time>2021-10-09T02:19:54</time>
      </trkpt>
      <trkpt lat="42.96841" lon="-0.04515">
        <ele>923.8</ele>
        <time>2021-10-09T02:19:55</time>
      </trkpt>
      <trkpt lat="42.96842" lon="-0.04515">
        <ele>923.8</ele>
        <time>2021-10-09T02:19:56</time>
      </trkpt>
      <trkpt lat="42.96845" lon="-0.04513">
        <ele>923.8</ele>
        <time>2021-10-09T02:19:57</time>
      </trkpt>
      <trkpt lat="42.96848" lon="-0.04512">
        <ele>923.8</ele>
        <time>2021-10-09T02:19:58</time>
      </trkpt>
      <trkpt lat="42.96851" lon="-0.04511">
        <ele>923.8</ele>
        <time>2021-10-09T02:19:59</time>
      </trkpt>
      <trkpt lat="42.96871" lon="-0.04475">
        <ele>918.4</ele>
        <time>2021-10-09T02:20:56</time>
      </trkpt>
      <trkpt lat="42.96873" lon="-0.04468">
        <ele>917.8</ele>
        <time>2021-10-09T02:20:57</time>
      </trkpt>
      <trkpt lat="42.96876" lon="-0.0446">
        <ele>917.2</ele>
        <time>2021-10-09T02:20:58</time>
      </trkpt>
      <trkpt lat="42.9688" lon="-0.04452">
        <ele>916.2</ele>
        <time>2021-10-09T02:20:59</time>
      </trkpt>
      <trkpt lat="42.96884" lon="-0.04443">
        <ele>915</ele>
        <time>2021-10-09T02:21:00</time>
      </trkpt>
      <trkpt lat="42.96889" lon="-0.04433">
        <ele>914</ele>
        <time>2021-10-09T02:21:01</time>
      </trkpt>
      <trkpt lat="42.96894" lon="-0.04424">
        <ele>913.2</ele>
        <time>2021-10-09T02:21:02</time>
      </trkpt>
      <trkpt lat="42.96898" lon="-0.04414">
        <ele>912.8</ele>
        <time>2021-10-09T02:21:03</time>
      </trkpt>
      <trkpt lat="42.96903" lon="-0.04405">
        <ele>912.2</ele>
        <time>2021-10-09T02:21:04</time>
      </trkpt>
      <trkpt lat="42.96908" lon="-0.04396">
        <ele>911.8</ele>
        <time>2021-10-09T02:21:05</time>
      </trkpt>
      <trkpt lat="42.96913" lon="-0.04387">
        <ele>911.2</ele>
        <time>2021-10-09T02:21:06</time>
      </trkpt>
      <trkpt lat="42.96918" lon="-0.04379">
        <ele>910.8</ele>
        <time>2021-10-09T02:21:07</time>
      </trkpt>
      <trkpt lat="42.96924" lon="-0.04373">
        <ele>910.6</ele>
        <time>2021-10-09T02:21:08</time>
      </trkpt>
      <trkpt lat="42.96928" lon="-0.04369">
        <ele>909.6</ele>
        <time>2021-10-09T02:21:09</time>
      </trkpt>
      <trkpt lat="42.9693" lon="-0.04367">
        <ele>908.8</ele>
        <time>2021-10-09T02:21:10</time>
      </trkpt>
      <trkpt lat="42.96929" lon="-0.04366">
        <ele>908.2</ele>
        <time>2021-10-09T02:21:11</time>
      </trkpt>
      <trkpt lat="42.96929" lon="-0.04364">
        <ele>907.6</ele>
        <time>2021-10-09T02:21:12</time>
      </trkpt>
      <trkpt lat="42.96931" lon="-0.04363">
        <ele>906.8</ele>
        <time>2021-10-09T02:21:13</time>
      </trkpt>
      <trkpt lat="42.96938" lon="-0.04361">
        <ele>906.2</ele>
        <time>2021-10-09T02:21:14</time>
      </trkpt>
      <trkpt lat="42.9694" lon="-0.04359">
        <ele>905.4</ele>
        <time>2021-10-09T02:21:15</time>
      </trkpt>
      <trkpt lat="42.96975" lon="-0.0433">
        <ele>904.8</ele>
        <time>2021-10-09T02:21:16</time>
      </trkpt>
      <trkpt lat="42.96984" lon="-0.04325">
        <ele>904.4</ele>
        <time>2021-10-09T02:21:17</time>
      </trkpt>
      <trkpt lat="42.96987" lon="-0.04322">
        <ele>903.4</ele>
        <time>2021-10-09T02:21:18</time>
      </trkpt>
      <trkpt lat="42.96992" lon="-0.04318">
        <ele>903</ele>
        <time>2021-10-09T02:21:19</time>
      </trkpt>
      <trkpt lat="42.96998" lon="-0.04314">
        <ele>902.8</ele>
        <time>2021-10-09T02:21:20</time>
      </trkpt>
      <trkpt lat="42.97012" lon="-0.04308">
        <ele>902</ele>
        <time>2021-10-09T02:21:21</time>
      </trkpt>
      <trkpt lat="42.97017" lon="-0.04303">
        <ele>901.2</ele>
        <time>2021-10-09T02:21:22</time>
      </trkpt>
      <trkpt lat="42.97024" lon="-0.04298">
        <ele>900</ele>
        <time>2021-10-09T02:21:23</time>
      </trkpt>
      <trkpt lat="42.9703" lon="-0.04294">
        <ele>899.4</ele>
        <time>2021-10-09T02:21:24</time>
      </trkpt>
      <trkpt lat="42.97036" lon="-0.0429">
        <ele>898.6</ele>
        <time>2021-10-09T02:21:25</time>
      </trkpt>
      <trkpt lat="42.97041" lon="-0.04286">
        <ele>897.4</ele>
        <time>2021-10-09T02:21:26</time>
      </trkpt>
      <trkpt lat="42.97044" lon="-0.0428">
        <ele>895.8</ele>
        <time>2021-10-09T02:21:27</time>
      </trkpt>
      <trkpt lat="42.97052" lon="-0.04273">
        <ele>895</ele>
        <time>2021-10-09T02:21:28</time>
      </trkpt>
      <trkpt lat="42.97056" lon="-0.04266">
        <ele>894.6</ele>
        <time>2021-10-09T02:21:29</time>
      </trkpt>
      <trkpt lat="42.97064" lon="-0.0426">
        <ele>894.8</ele>
        <time>2021-10-09T02:21:30</time>
      </trkpt>
      <trkpt lat="42.97064" lon="-0.04255">
        <ele>895.2</ele>
        <time>2021-10-09T02:21:31</time>
      </trkpt>
      <trkpt lat="42.97064" lon="-0.04249">
        <ele>894.8</ele>
        <time>2021-10-09T02:21:32</time>
      </trkpt>
      <trkpt lat="42.97064" lon="-0.04244">
        <ele>893.4</ele>
        <time>2021-10-09T02:21:33</time>
      </trkpt>
      <trkpt lat="42.97064" lon="-0.0424">
        <ele>893.4</ele>
        <time>2021-10-09T02:21:34</time>
      </trkpt>
      <trkpt lat="42.97063" lon="-0.04234">
        <ele>893.4</ele>
        <time>2021-10-09T02:21:35</time>
      </trkpt>
      <trkpt lat="42.97062" lon="-0.04227">
        <ele>893.4</ele>
        <time>2021-10-09T02:21:36</time>
      </trkpt>
      <trkpt lat="42.97061" lon="-0.0422">
        <ele>893.4</ele>
        <time>2021-10-09T02:21:37</time>
      </trkpt>
      <trkpt lat="42.9706" lon="-0.04215">
        <ele>893.4</ele>
        <time>2021-10-09T02:21:38</time>
      </trkpt>
      <trkpt lat="42.97062" lon="-0.04211">
        <ele>878.6</ele>
        <time>2021-10-09T02:21:39</time>
      </trkpt>
      <trkpt lat="42.97065" lon="-0.04209">
        <ele>877.8</ele>
        <time>2021-10-09T02:21:40</time>
      </trkpt>
      <trkpt lat="42.97071" lon="-0.04206">
        <ele>877</ele>
        <time>2021-10-09T02:21:41</time>
      </trkpt>
      <trkpt lat="42.97074" lon="-0.04205">
        <ele>876.4</ele>
        <time>2021-10-09T02:21:42</time>
      </trkpt>
      <trkpt lat="42.97076" lon="-0.04205">
        <ele>876</ele>
        <time>2021-10-09T02:21:43</time>
      </trkpt>
      <trkpt lat="42.97078" lon="-0.04206">
        <ele>875.6</ele>
        <time>2021-10-09T02:21:44</time>
      </trkpt>
      <trkpt lat="42.97079" lon="-0.04205">
        <ele>875.6</ele>
        <time>2021-10-09T02:21:45</time>
      </trkpt>
      <trkpt lat="42.97081" lon="-0.04206">
        <ele>875.4</ele>
        <time>2021-10-09T02:21:46</time>
      </trkpt>
      <trkpt lat="42.97083" lon="-0.04208">
        <ele>875.4</ele>
        <time>2021-10-09T02:21:47</time>
      </trkpt>
      <trkpt lat="42.97086" lon="-0.04209">
        <ele>875.4</ele>
        <time>2021-10-09T02:21:48</time>
      </trkpt>
      <trkpt lat="42.97091" lon="-0.0421">
        <ele>875.4</ele>
        <time>2021-10-09T02:21:49</time>
      </trkpt>
      <trkpt lat="42.97101" lon="-0.04208">
        <ele>875.4</ele>
        <time>2021-10-09T02:21:50</time>
      </trkpt>
      <trkpt lat="42.97117" lon="-0.04206">
        <ele>875.4</ele>
        <time>2021-10-09T02:21:51</time>
      </trkpt>
      <trkpt lat="42.97161" lon="-0.04235">
        <ele>872.8</ele>
        <time>2021-10-09T02:22:15</time>
      </trkpt>
      <trkpt lat="42.97165" lon="-0.04239">
        <ele>872.8</ele>
        <time>2021-10-09T02:22:16</time>
      </trkpt>
      <trkpt lat="42.97168" lon="-0.04239">
        <ele>873</ele>
        <time>2021-10-09T02:22:17</time>
      </trkpt>
      <trkpt lat="42.9717" lon="-0.04241">
        <ele>873</ele>
        <time>2021-10-09T02:22:18</time>
      </trkpt>
      <trkpt lat="42.97173" lon="-0.04246">
        <ele>873</ele>
        <time>2021-10-09T02:22:19</time>
      </trkpt>
      <trkpt lat="42.97178" lon="-0.04249">
        <ele>872.6</ele>
        <time>2021-10-09T02:22:20</time>
      </trkpt>
      <trkpt lat="42.97183" lon="-0.04252">
        <ele>872.2</ele>
        <time>2021-10-09T02:22:21</time>
      </trkpt>
      <trkpt lat="42.97188" lon="-0.04254">
        <ele>871.2</ele>
        <time>2021-10-09T02:22:22</time>
      </trkpt>
      <trkpt lat="42.97194" lon="-0.0426">
        <ele>870.4</ele>
        <time>2021-10-09T02:22:23</time>
      </trkpt>
      <trkpt lat="42.97199" lon="-0.04269">
        <ele>869.6</ele>
        <time>2021-10-09T02:22:24</time>
      </trkpt>
      <trkpt lat="42.97203" lon="-0.04279">
        <ele>868.6</ele>
        <time>2021-10-09T02:22:25</time>
      </trkpt>
      <trkpt lat="42.97206" lon="-0.04287">
        <ele>867.8</ele>
        <time>2021-10-09T02:22:26</time>
      </trkpt>
      <trkpt lat="42.97209" lon="-0.04297">
        <ele>866.6</ele>
        <time>2021-10-09T02:22:27</time>
      </trkpt>
      <trkpt lat="42.97213" lon="-0.0431">
        <ele>865.8</ele>
        <time>2021-10-09T02:22:28</time>
      </trkpt>
      <trkpt lat="42.97216" lon="-0.04323">
        <ele>864</ele>
        <time>2021-10-09T02:22:29</time>
      </trkpt>
      <trkpt lat="42.97218" lon="-0.04336">
        <ele>862.6</ele>
        <time>2021-10-09T02:22:30</time>
      </trkpt>
      <trkpt lat="42.9722" lon="-0.04347">
        <ele>860.6</ele>
        <time>2021-10-09T02:22:31</time>
      </trkpt>
      <trkpt lat="42.97224" lon="-0.04359">
        <ele>859</ele>
        <time>2021-10-09T02:22:32</time>
      </trkpt>
      <trkpt lat="42.97228" lon="-0.04372">
        <ele>858.2</ele>
        <time>2021-10-09T02:22:33</time>
      </trkpt>
      <trkpt lat="42.97233" lon="-0.04383">
        <ele>857.2</ele>
        <time>2021-10-09T02:22:34</time>
      </trkpt>
      <trkpt lat="42.97238" lon="-0.0439">
        <ele>856.4</ele>
        <time>2021-10-09T02:22:35</time>
      </trkpt>
      <trkpt lat="42.97242" lon="-0.04398">
        <ele>855.2</ele>
        <time>2021-10-09T02:22:36</time>
      </trkpt>
      <trkpt lat="42.97246" lon="-0.04408">
        <ele>853.8</ele>
        <time>2021-10-09T02:22:37</time>
      </trkpt>
      <trkpt lat="42.97251" lon="-0.0442">
        <ele>853</ele>
        <time>2021-10-09T02:22:38</time>
      </trkpt>
      <trkpt lat="42.97256" lon="-0.0443">
        <ele>851.6</ele>
        <time>2021-10-09T02:22:39</time>
      </trkpt>
      <trkpt lat="42.97262" lon="-0.04443">
        <ele>851.6</ele>
        <time>2021-10-09T02:22:40</time>
      </trkpt>
      <trkpt lat="42.97269" lon="-0.04455">
        <ele>851.6</ele>
        <time>2021-10-09T02:22:41</time>
      </trkpt>
      <trkpt lat="42.97275" lon="-0.04465">
        <ele>851.6</ele>
        <time>2021-10-09T02:22:42</time>
      </trkpt>
      <trkpt lat="42.9728" lon="-0.04474">
        <ele>851.6</ele>
        <time>2021-10-09T02:22:43</time>
      </trkpt>
      <trkpt lat="42.97286" lon="-0.04484">
        <ele>851.6</ele>
        <time>2021-10-09T02:22:44</time>
      </trkpt>
      <trkpt lat="42.97291" lon="-0.04493">
        <ele>841</ele>
        <time>2021-10-09T02:22:45</time>
      </trkpt>
      <trkpt lat="42.97296" lon="-0.04503">
        <ele>839.6</ele>
        <time>2021-10-09T02:22:46</time>
      </trkpt>
      <trkpt lat="42.973" lon="-0.04514">
        <ele>839.6</ele>
        <time>2021-10-09T02:22:47</time>
      </trkpt>
      <trkpt lat="42.97304" lon="-0.04523">
        <ele>839.6</ele>
        <time>2021-10-09T02:22:48</time>
      </trkpt>
      <trkpt lat="42.97309" lon="-0.04532">
        <ele>839.6</ele>
        <time>2021-10-09T02:22:49</time>
      </trkpt>
      <trkpt lat="42.97313" lon="-0.04541">
        <ele>839.6</ele>
        <time>2021-10-09T02:22:50</time>
      </trkpt>
      <trkpt lat="42.97318" lon="-0.0455">
        <ele>839.6</ele>
        <time>2021-10-09T02:22:51</time>
      </trkpt>
      <trkpt lat="42.97323" lon="-0.04557">
        <ele>831.8</ele>
        <time>2021-10-09T02:22:52</time>
      </trkpt>
      <trkpt lat="42.97329" lon="-0.04564">
        <ele>830.6</ele>
        <time>2021-10-09T02:22:53</time>
      </trkpt>
      <trkpt lat="42.97335" lon="-0.0457">
        <ele>829.6</ele>
        <time>2021-10-09T02:22:54</time>
      </trkpt>
      <trkpt lat="42.97341" lon="-0.04577">
        <ele>828.8</ele>
        <time>2021-10-09T02:22:55</time>
      </trkpt>
      <trkpt lat="42.97347" lon="-0.04585">
        <ele>828.2</ele>
        <time>2021-10-09T02:22:56</time>
      </trkpt>
      <trkpt lat="42.97352" lon="-0.04593">
        <ele>827.6</ele>
        <time>2021-10-09T02:22:57</time>
      </trkpt>
      <trkpt lat="42.97356" lon="-0.04603">
        <ele>827</ele>
        <time>2021-10-09T02:22:58</time>
      </trkpt>
      <trkpt lat="42.9736" lon="-0.0461">
        <ele>826.4</ele>
        <time>2021-10-09T02:22:59</time>
      </trkpt>
      <trkpt lat="42.97364" lon="-0.0462">
        <ele>825.8</ele>
        <time>2021-10-09T02:23:00</time>
      </trkpt>
      <trkpt lat="42.97369" lon="-0.04625">
        <ele>825.4</ele>
        <time>2021-10-09T02:23:01</time>
      </trkpt>
      <trkpt lat="42.97372" lon="-0.04629">
        <ele>824.8</ele>
        <time>2021-10-09T02:23:02</time>
      </trkpt>
      <trkpt lat="42.97375" lon="-0.04631">
        <ele>824.8</ele>
        <time>2021-10-09T02:23:03</time>
      </trkpt>
      <trkpt lat="42.97377" lon="-0.04632">
        <ele>824.8</ele>
        <time>2021-10-09T02:23:04</time>
      </trkpt>
      <trkpt lat="42.97379" lon="-0.04633">
        <ele>825.2</ele>
        <time>2021-10-09T02:23:05</time>
      </trkpt>
      <trkpt lat="42.97381" lon="-0.04634">
        <ele>825.4</ele>
        <time>2021-10-09T02:23:06</time>
      </trkpt>
      <trkpt lat="42.97381" lon="-0.04635">
        <ele>825.6</ele>
        <time>2021-10-09T02:23:07</time>
      </trkpt>
      <trkpt lat="42.97381" lon="-0.04635">
        <ele>825.6</ele>
        <time>2021-10-09T02:23:08</time>
      </trkpt>
      <trkpt lat="42.97381" lon="-0.04636">
        <ele>825.6</ele>
        <time>2021-10-09T02:23:09</time>
      </trkpt>
      <trkpt lat="42.97381" lon="-0.04636">
        <ele>825.6</ele>
        <time>2021-10-09T02:23:10</time>
      </trkpt>
      <trkpt lat="42.97381" lon="-0.04636">
        <ele>825.6</ele>
        <time>2021-10-09T02:23:11</time>
      </trkpt>
      <trkpt lat="42.97381" lon="-0.04637">
        <ele>825.6</ele>
        <time>2021-10-09T02:23:12</time>
      </trkpt>
      <trkpt lat="42.97381" lon="-0.04637">
        <ele>825.4</ele>
        <time>2021-10-09T02:23:13</time>
      </trkpt>
      <trkpt lat="42.97381" lon="-0.04638">
        <ele>825.2</ele>
        <time>2021-10-09T02:23:14</time>
      </trkpt>
      <trkpt lat="42.97391" lon="-0.04658">
        <ele>821.4</ele>
        <time>2021-10-09T02:23:22</time>
      </trkpt>
      <trkpt lat="42.97394" lon="-0.0466">
        <ele>821.2</ele>
        <time>2021-10-09T02:23:23</time>
      </trkpt>
      <trkpt lat="42.97396" lon="-0.04662">
        <ele>821</ele>
        <time>2021-10-09T02:23:24</time>
      </trkpt>
      <trkpt lat="42.97398" lon="-0.04664">
        <ele>820.6</ele>
        <time>2021-10-09T02:23:25</time>
      </trkpt>
      <trkpt lat="42.974" lon="-0.04667">
        <ele>820</ele>
        <time>2021-10-09T02:23:26</time>
      </trkpt>
      <trkpt lat="42.97402" lon="-0.0467">
        <ele>819.6</ele>
        <time>2021-10-09T02:23:27</time>
      </trkpt>
      <trkpt lat="42.97403" lon="-0.04673">
        <ele>819</ele>
        <time>2021-10-09T02:23:28</time>
      </trkpt>
      <trkpt lat="42.97405" lon="-0.04676">
        <ele>818.6</ele>
        <time>2021-10-09T02:23:29</time>
      </trkpt>
      <trkpt lat="42.97407" lon="-0.04679">
        <ele>818.2</ele>
        <time>2021-10-09T02:23:30</time>
      </trkpt>
      <trkpt lat="42.9741" lon="-0.04682">
        <ele>817.6</ele>
        <time>2021-10-09T02:23:31</time>
      </trkpt>
      <trkpt lat="42.97413" lon="-0.04685">
        <ele>817</ele>
        <time>2021-10-09T02:23:32</time>
      </trkpt>
      <trkpt lat="42.97416" lon="-0.04688">
        <ele>816.6</ele>
        <time>2021-10-09T02:23:33</time>
      </trkpt>
      <trkpt lat="42.9742" lon="-0.0469">
        <ele>815.8</ele>
        <time>2021-10-09T02:23:34</time>
      </trkpt>
      <trkpt lat="42.97422" lon="-0.04692">
        <ele>815</ele>
        <time>2021-10-09T02:23:35</time>
      </trkpt>
      <trkpt lat="42.97421" lon="-0.04694">
        <ele>814.4</ele>
        <time>2021-10-09T02:23:36</time>
      </trkpt>
      <trkpt lat="42.97418" lon="-0.04698">
        <ele>814</ele>
        <time>2021-10-09T02:23:37</time>
      </trkpt>
      <trkpt lat="42.97413" lon="-0.04701">
        <ele>813.2</ele>
        <time>2021-10-09T02:23:38</time>
      </trkpt>
      <trkpt lat="42.97408" lon="-0.04705">
        <ele>812.2</ele>
        <time>2021-10-09T02:23:39</time>
      </trkpt>
      <trkpt lat="42.97401" lon="-0.04707">
        <ele>811.2</ele>
        <time>2021-10-09T02:23:40</time>
      </trkpt>
      <trkpt lat="42.97394" lon="-0.04708">
        <ele>809.8</ele>
        <time>2021-10-09T02:23:41</time>
      </trkpt>
      <trkpt lat="42.97386" lon="-0.04708">
        <ele>809</ele>
        <time>2021-10-09T02:23:42</time>
      </trkpt>
      <trkpt lat="42.97378" lon="-0.04708">
        <ele>808</ele>
        <time>2021-10-09T02:23:43</time>
      </trkpt>
      <trkpt lat="42.97369" lon="-0.04707">
        <ele>806.2</ele>
        <time>2021-10-09T02:23:44</time>
      </trkpt>
      <trkpt lat="42.97361" lon="-0.04707">
        <ele>805</ele>
        <time>2021-10-09T02:23:45</time>
      </trkpt>
      <trkpt lat="42.97354" lon="-0.04708">
        <ele>804.6</ele>
        <time>2021-10-09T02:23:46</time>
      </trkpt>
      <trkpt lat="42.97346" lon="-0.04708">
        <ele>804.2</ele>
        <time>2021-10-09T02:23:47</time>
      </trkpt>
      <trkpt lat="42.97339" lon="-0.04709">
        <ele>804</ele>
        <time>2021-10-09T02:23:48</time>
      </trkpt>
      <trkpt lat="42.97333" lon="-0.04711">
        <ele>803.8</ele>
        <time>2021-10-09T02:23:49</time>
      </trkpt>
      <trkpt lat="42.97325" lon="-0.04713">
        <ele>803.6</ele>
        <time>2021-10-09T02:23:50</time>
      </trkpt>
      <trkpt lat="42.9732" lon="-0.04716">
        <ele>803</ele>
        <time>2021-10-09T02:23:51</time>
      </trkpt>
      <trkpt lat="42.97314" lon="-0.0472">
        <ele>802.6</ele>
        <time>2021-10-09T02:23:52</time>
      </trkpt>
      <trkpt lat="42.97308" lon="-0.04725">
        <ele>800.8</ele>
        <time>2021-10-09T02:23:53</time>
      </trkpt>
      <trkpt lat="42.97303" lon="-0.04731">
        <ele>799.2</ele>
        <time>2021-10-09T02:23:54</time>
      </trkpt>
      <trkpt lat="42.97298" lon="-0.04736">
        <ele>797.4</ele>
        <time>2021-10-09T02:23:55</time>
      </trkpt>
      <trkpt lat="42.97296" lon="-0.0474">
        <ele>795.8</ele>
        <time>2021-10-09T02:23:56</time>
      </trkpt>
      <trkpt lat="42.97293" lon="-0.04742">
        <ele>794</ele>
        <time>2021-10-09T02:23:57</time>
      </trkpt>
      <trkpt lat="42.97291" lon="-0.04742">
        <ele>793</ele>
        <time>2021-10-09T02:23:58</time>
      </trkpt>
      <trkpt lat="42.97288" lon="-0.04742">
        <ele>791.6</ele>
        <time>2021-10-09T02:23:59</time>
      </trkpt>
      <trkpt lat="42.97284" lon="-0.04741">
        <ele>789.8</ele>
        <time>2021-10-09T02:24:00</time>
      </trkpt>
      <trkpt lat="42.97279" lon="-0.04741">
        <ele>788.2</ele>
        <time>2021-10-09T02:24:01</time>
      </trkpt>
      <trkpt lat="42.97275" lon="-0.04741">
        <ele>786.6</ele>
        <time>2021-10-09T02:24:02</time>
      </trkpt>
      <trkpt lat="42.97268" lon="-0.04744">
        <ele>785.2</ele>
        <time>2021-10-09T02:24:03</time>
      </trkpt>
      <trkpt lat="42.9726" lon="-0.04746">
        <ele>783.8</ele>
        <time>2021-10-09T02:24:04</time>
      </trkpt>
      <trkpt lat="42.97254" lon="-0.04749">
        <ele>782.6</ele>
        <time>2021-10-09T02:24:05</time>
      </trkpt>
      <trkpt lat="42.97247" lon="-0.0475">
        <ele>781.4</ele>
        <time>2021-10-09T02:24:06</time>
      </trkpt>
      <trkpt lat="42.9724" lon="-0.04748">
        <ele>781</ele>
        <time>2021-10-09T02:24:07</time>
      </trkpt>
      <trkpt lat="42.97235" lon="-0.04742">
        <ele>780.4</ele>
        <time>2021-10-09T02:24:08</time>
      </trkpt>
      <trkpt lat="42.9723" lon="-0.04735">
        <ele>780</ele>
        <time>2021-10-09T02:24:09</time>
      </trkpt>
      <trkpt lat="42.97227" lon="-0.04728">
        <ele>780</ele>
        <time>2021-10-09T02:24:10</time>
      </trkpt>
      <trkpt lat="42.97224" lon="-0.04721">
        <ele>779.8</ele>
        <time>2021-10-09T02:24:11</time>
      </trkpt>
      <trkpt lat="42.97222" lon="-0.04716">
        <ele>779.4</ele>
        <time>2021-10-09T02:24:12</time>
      </trkpt>
      <trkpt lat="42.9722" lon="-0.04713">
        <ele>779.4</ele>
        <time>2021-10-09T02:24:13</time>
      </trkpt>
      <trkpt lat="42.97217" lon="-0.0471">
        <ele>778.6</ele>
        <time>2021-10-09T02:24:14</time>
      </trkpt>
      <trkpt lat="42.97214" lon="-0.04704">
        <ele>777.8</ele>
        <time>2021-10-09T02:24:15</time>
      </trkpt>
      <trkpt lat="42.9721" lon="-0.04696">
        <ele>777.4</ele>
        <time>2021-10-09T02:24:16</time>
      </trkpt>
      <trkpt lat="42.9721" lon="-0.04692">
        <ele>776.8</ele>
        <time>2021-10-09T02:24:17</time>
      </trkpt>
      <trkpt lat="42.97206" lon="-0.04687">
        <ele>776.4</ele>
        <time>2021-10-09T02:24:18</time>
      </trkpt>
      <trkpt lat="42.97183" lon="-0.04664">
        <ele>775.6</ele>
        <time>2021-10-09T02:24:19</time>
      </trkpt>
      <trkpt lat="42.97179" lon="-0.04661">
        <ele>775.6</ele>
        <time>2021-10-09T02:24:20</time>
      </trkpt>
      <trkpt lat="42.97175" lon="-0.04657">
        <ele>775.6</ele>
        <time>2021-10-09T02:24:21</time>
      </trkpt>
      <trkpt lat="42.97173" lon="-0.04656">
        <ele>775.6</ele>
        <time>2021-10-09T02:24:22</time>
      </trkpt>
      <trkpt lat="42.97172" lon="-0.04649">
        <ele>775.6</ele>
        <time>2021-10-09T02:24:23</time>
      </trkpt>
      <trkpt lat="42.97169" lon="-0.04642">
        <ele>775.6</ele>
        <time>2021-10-09T02:24:24</time>
      </trkpt>
      <trkpt lat="42.97165" lon="-0.04634">
        <ele>770</ele>
        <time>2021-10-09T02:24:25</time>
      </trkpt>
      <trkpt lat="42.97162" lon="-0.04625">
        <ele>770.2</ele>
        <time>2021-10-09T02:24:26</time>
      </trkpt>
      <trkpt lat="42.9716" lon="-0.04618">
        <ele>770.4</ele>
        <time>2021-10-09T02:24:27</time>
      </trkpt>
      <trkpt lat="42.97157" lon="-0.04608">
        <ele>770.6</ele>
        <time>2021-10-09T02:24:28</time>
      </trkpt>
      <trkpt lat="42.97155" lon="-0.04602">
        <ele>770.4</ele>
        <time>2021-10-09T02:24:29</time>
      </trkpt>
      <trkpt lat="42.97151" lon="-0.04597">
        <ele>770.2</ele>
        <time>2021-10-09T02:24:30</time>
      </trkpt>
      <trkpt lat="42.97149" lon="-0.04593">
        <ele>770</ele>
        <time>2021-10-09T02:24:31</time>
      </trkpt>
      <trkpt lat="42.97147" lon="-0.04592">
        <ele>770</ele>
        <time>2021-10-09T02:24:32</time>
      </trkpt>
      <trkpt lat="42.97145" lon="-0.04591">
        <ele>770</ele>
        <time>2021-10-09T02:24:33</time>
      </trkpt>
      <trkpt lat="42.97142" lon="-0.0459">
        <ele>770.2</ele>
        <time>2021-10-09T02:24:34</time>
      </trkpt>
      <trkpt lat="42.9714" lon="-0.04591">
        <ele>770.4</ele>
        <time>2021-10-09T02:24:35</time>
      </trkpt>
      <trkpt lat="42.97138" lon="-0.04593">
        <ele>770.8</ele>
        <time>2021-10-09T02:24:36</time>
      </trkpt>
      <trkpt lat="42.97134" lon="-0.04597">
        <ele>770.2</ele>
        <time>2021-10-09T02:24:37</time>
      </trkpt>
      <trkpt lat="42.97131" lon="-0.046">
        <ele>769.8</ele>
        <time>2021-10-09T02:24:38</time>
      </trkpt>
      <trkpt lat="42.97127" lon="-0.04605">
        <ele>769.6</ele>
        <time>2021-10-09T02:24:39</time>
      </trkpt>
      <trkpt lat="42.97123" lon="-0.04608">
        <ele>770</ele>
        <time>2021-10-09T02:24:40</time>
      </trkpt>
      <trkpt lat="42.97121" lon="-0.0461">
        <ele>770.2</ele>
        <time>2021-10-09T02:24:41</time>
      </trkpt>
      <trkpt lat="42.97119" lon="-0.04615">
        <ele>770</ele>
        <time>2021-10-09T02:24:42</time>
      </trkpt>
      <trkpt lat="42.97118" lon="-0.0462">
        <ele>770</ele>
        <time>2021-10-09T02:24:43</time>
      </trkpt>
      <trkpt lat="42.97117" lon="-0.04625">
        <ele>770</ele>
        <time>2021-10-09T02:24:44</time>
      </trkpt>
      <trkpt lat="42.97118" lon="-0.0463">
        <ele>770.2</ele>
        <time>2021-10-09T02:24:45</time>
      </trkpt>
      <trkpt lat="42.97117" lon="-0.04635">
        <ele>770</ele>
        <time>2021-10-09T02:24:46</time>
      </trkpt>
      <trkpt lat="42.97116" lon="-0.04641">
        <ele>769.4</ele>
        <time>2021-10-09T02:24:47</time>
      </trkpt>
      <trkpt lat="42.97117" lon="-0.04647">
        <ele>769</ele>
        <time>2021-10-09T02:24:48</time>
      </trkpt>
      <trkpt lat="42.97116" lon="-0.04651">
        <ele>768.8</ele>
        <time>2021-10-09T02:24:49</time>
      </trkpt>
      <trkpt lat="42.97115" lon="-0.04655">
        <ele>768.4</ele>
        <time>2021-10-09T02:24:50</time>
      </trkpt>
      <trkpt lat="42.97113" lon="-0.04665">
        <ele>768.2</ele>
        <time>2021-10-09T02:24:51</time>
      </trkpt>
      <trkpt lat="42.97111" lon="-0.04671">
        <ele>768.4</ele>
        <time>2021-10-09T02:24:52</time>
      </trkpt>
      <trkpt lat="42.97107" lon="-0.04674">
        <ele>768.6</ele>
        <time>2021-10-09T02:24:53</time>
      </trkpt>
      <trkpt lat="42.97103" lon="-0.04677">
        <ele>769.2</ele>
        <time>2021-10-09T02:24:54</time>
      </trkpt>
      <trkpt lat="42.971" lon="-0.0468">
        <ele>769.8</ele>
        <time>2021-10-09T02:24:55</time>
      </trkpt>
      <trkpt lat="42.97098" lon="-0.04684">
        <ele>770.2</ele>
        <time>2021-10-09T02:24:56</time>
      </trkpt>
      <trkpt lat="42.97094" lon="-0.04688">
        <ele>770.4</ele>
        <time>2021-10-09T02:24:57</time>
      </trkpt>
      <trkpt lat="42.97091" lon="-0.04691">
        <ele>770.6</ele>
        <time>2021-10-09T02:24:58</time>
      </trkpt>
      <trkpt lat="42.97089" lon="-0.04692">
        <ele>770.6</ele>
        <time>2021-10-09T02:24:59</time>
      </trkpt>
      <trkpt lat="42.97086" lon="-0.04695">
        <ele>771</ele>
        <time>2021-10-09T02:25:00</time>
      </trkpt>
      <trkpt lat="42.97085" lon="-0.047">
        <ele>771.4</ele>
        <time>2021-10-09T02:25:01</time>
      </trkpt>
      <trkpt lat="42.97083" lon="-0.04702">
        <ele>771.2</ele>
        <time>2021-10-09T02:25:02</time>
      </trkpt>
      <trkpt lat="42.9708" lon="-0.04707">
        <ele>771.2</ele>
        <time>2021-10-09T02:25:03</time>
      </trkpt>
      <trkpt lat="42.97077" lon="-0.04714">
        <ele>771.2</ele>
        <time>2021-10-09T02:25:04</time>
      </trkpt>
      <trkpt lat="42.97074" lon="-0.04718">
        <ele>771</ele>
        <time>2021-10-09T02:25:05</time>
      </trkpt>
      <trkpt lat="42.97072" lon="-0.04725">
        <ele>770.6</ele>
        <time>2021-10-09T02:25:06</time>
      </trkpt>
      <trkpt lat="42.9707" lon="-0.04733">
        <ele>770.6</ele>
        <time>2021-10-09T02:25:07</time>
      </trkpt>
      <trkpt lat="42.97069" lon="-0.04739">
        <ele>770.6</ele>
        <time>2021-10-09T02:25:08</time>
      </trkpt>
      <trkpt lat="42.97067" lon="-0.04746">
        <ele>770.8</ele>
        <time>2021-10-09T02:25:09</time>
      </trkpt>
      <trkpt lat="42.97066" lon="-0.04753">
        <ele>771.2</ele>
        <time>2021-10-09T02:25:10</time>
      </trkpt>
      <trkpt lat="42.97064" lon="-0.0476">
        <ele>771.4</ele>
        <time>2021-10-09T02:25:11</time>
      </trkpt>
      <trkpt lat="42.97062" lon="-0.04766">
        <ele>771.4</ele>
        <time>2021-10-09T02:25:12</time>
      </trkpt>
      <trkpt lat="42.9706" lon="-0.04769">
        <ele>771.6</ele>
        <time>2021-10-09T02:25:13</time>
      </trkpt>
      <trkpt lat="42.97057" lon="-0.04772">
        <ele>771.6</ele>
        <time>2021-10-09T02:25:14</time>
      </trkpt>
      <trkpt lat="42.97055" lon="-0.04774">
        <ele>771.4</ele>
        <time>2021-10-09T02:25:15</time>
      </trkpt>
      <trkpt lat="42.97052" lon="-0.04777">
        <ele>771.4</ele>
        <time>2021-10-09T02:25:16</time>
      </trkpt>
      <trkpt lat="42.97049" lon="-0.04779">
        <ele>771</ele>
        <time>2021-10-09T02:25:17</time>
      </trkpt>
      <trkpt lat="42.97045" lon="-0.04782">
        <ele>770.8</ele>
        <time>2021-10-09T02:25:18</time>
      </trkpt>
      <trkpt lat="42.97042" lon="-0.04786">
        <ele>770.8</ele>
        <time>2021-10-09T02:25:19</time>
      </trkpt>
      <trkpt lat="42.97039" lon="-0.0479">
        <ele>771</ele>
        <time>2021-10-09T02:25:20</time>
      </trkpt>
      <trkpt lat="42.97036" lon="-0.04793">
        <ele>771.2</ele>
        <time>2021-10-09T02:25:21</time>
      </trkpt>
      <trkpt lat="42.97034" lon="-0.04795">
        <ele>771.6</ele>
        <time>2021-10-09T02:25:22</time>
      </trkpt>
      <trkpt lat="42.97032" lon="-0.04797">
        <ele>772</ele>
        <time>2021-10-09T02:25:23</time>
      </trkpt>
      <trkpt lat="42.9703" lon="-0.04798">
        <ele>772.2</ele>
        <time>2021-10-09T02:25:24</time>
      </trkpt>
      <trkpt lat="42.97028" lon="-0.04799">
        <ele>772.8</ele>
        <time>2021-10-09T02:25:25</time>
      </trkpt>
      <trkpt lat="42.97026" lon="-0.048">
        <ele>773</ele>
        <time>2021-10-09T02:25:26</time>
      </trkpt>
      <trkpt lat="42.97024" lon="-0.04801">
        <ele>773.2</ele>
        <time>2021-10-09T02:25:27</time>
      </trkpt>
      <trkpt lat="42.97022" lon="-0.04803">
        <ele>773.6</ele>
        <time>2021-10-09T02:25:28</time>
      </trkpt>
      <trkpt lat="42.97021" lon="-0.04804">
        <ele>774</ele>
        <time>2021-10-09T02:25:29</time>
      </trkpt>
      <trkpt lat="42.97021" lon="-0.04804">
        <ele>774.4</ele>
        <time>2021-10-09T02:25:30</time>
      </trkpt>
      <trkpt lat="42.9702" lon="-0.04806">
        <ele>774.6</ele>
        <time>2021-10-09T02:25:31</time>
      </trkpt>
      <trkpt lat="42.9702" lon="-0.04807">
        <ele>775</ele>
        <time>2021-10-09T02:25:32</time>
      </trkpt>
      <trkpt lat="42.97019" lon="-0.04808">
        <ele>775.6</ele>
        <time>2021-10-09T02:25:33</time>
      </trkpt>
      <trkpt lat="42.97019" lon="-0.0481">
        <ele>776</ele>
        <time>2021-10-09T02:25:34</time>
      </trkpt>
      <trkpt lat="42.97018" lon="-0.04811">
        <ele>776.4</ele>
        <time>2021-10-09T02:25:35</time>
      </trkpt>
      <trkpt lat="42.97017" lon="-0.04814">
        <ele>776.8</ele>
        <time>2021-10-09T02:25:36</time>
      </trkpt>
      <trkpt lat="42.97016" lon="-0.04816">
        <ele>777.2</ele>
        <time>2021-10-09T02:25:37</time>
      </trkpt>
      <trkpt lat="42.97015" lon="-0.04818">
        <ele>777.8</ele>
        <time>2021-10-09T02:25:38</time>
      </trkpt>
      <trkpt lat="42.97014" lon="-0.04819">
        <ele>778.2</ele>
        <time>2021-10-09T02:25:39</time>
      </trkpt>
      <trkpt lat="42.97013" lon="-0.04822">
        <ele>778.6</ele>
        <time>2021-10-09T02:25:40</time>
      </trkpt>
      <trkpt lat="42.97013" lon="-0.04823">
        <ele>779</ele>
        <time>2021-10-09T02:25:41</time>
      </trkpt>
      <trkpt lat="42.97012" lon="-0.04825">
        <ele>779.4</ele>
        <time>2021-10-09T02:25:42</time>
      </trkpt>
      <trkpt lat="42.97012" lon="-0.04827">
        <ele>779.8</ele>
        <time>2021-10-09T02:25:43</time>
      </trkpt>
      <trkpt lat="42.97011" lon="-0.04829">
        <ele>780</ele>
        <time>2021-10-09T02:25:44</time>
      </trkpt>
      <trkpt lat="42.9701" lon="-0.04831">
        <ele>780.4</ele>
        <time>2021-10-09T02:25:45</time>
      </trkpt>
      <trkpt lat="42.97009" lon="-0.04832">
        <ele>780.6</ele>
        <time>2021-10-09T02:25:46</time>
      </trkpt>
      <trkpt lat="42.97008" lon="-0.04836">
        <ele>780.8</ele>
        <time>2021-10-09T02:25:47</time>
      </trkpt>
      <trkpt lat="42.97008" lon="-0.04837">
        <ele>781</ele>
        <time>2021-10-09T02:25:48</time>
      </trkpt>
      <trkpt lat="42.97007" lon="-0.04839">
        <ele>781.4</ele>
        <time>2021-10-09T02:25:49</time>
      </trkpt>
      <trkpt lat="42.97006" lon="-0.0484">
        <ele>781.6</ele>
        <time>2021-10-09T02:25:50</time>
      </trkpt>
      <trkpt lat="42.97005" lon="-0.04842">
        <ele>782</ele>
        <time>2021-10-09T02:25:51</time>
      </trkpt>
      <trkpt lat="42.97004" lon="-0.04845">
        <ele>782.4</ele>
        <time>2021-10-09T02:25:52</time>
      </trkpt>
      <trkpt lat="42.97004" lon="-0.04848">
        <ele>782.8</ele>
        <time>2021-10-09T02:25:53</time>
      </trkpt>
      <trkpt lat="42.97003" lon="-0.04849">
        <ele>783.4</ele>
        <time>2021-10-09T02:25:54</time>
      </trkpt>
      <trkpt lat="42.97002" lon="-0.04851">
        <ele>783.8</ele>
        <time>2021-10-09T02:25:55</time>
      </trkpt>
      <trkpt lat="42.97002" lon="-0.04853">
        <ele>784.4</ele>
        <time>2021-10-09T02:25:56</time>
      </trkpt>
      <trkpt lat="42.97" lon="-0.04856">
        <ele>784.8</ele>
        <time>2021-10-09T02:25:57</time>
      </trkpt>
      <trkpt lat="42.96999" lon="-0.04857">
        <ele>785.2</ele>
        <time>2021-10-09T02:25:58</time>
      </trkpt>
      <trkpt lat="42.96998" lon="-0.04859">
        <ele>785.4</ele>
        <time>2021-10-09T02:25:59</time>
      </trkpt>
      <trkpt lat="42.96999" lon="-0.04863">
        <ele>785.6</ele>
        <time>2021-10-09T02:26:00</time>
      </trkpt>
      <trkpt lat="42.96999" lon="-0.04864">
        <ele>785.8</ele>
        <time>2021-10-09T02:26:01</time>
      </trkpt>
      <trkpt lat="42.96999" lon="-0.04864">
        <ele>785.8</ele>
        <time>2021-10-09T02:26:02</time>
      </trkpt>
      <trkpt lat="42.96999" lon="-0.04865">
        <ele>785.8</ele>
        <time>2021-10-09T02:26:03</time>
      </trkpt>
      <trkpt lat="42.96998" lon="-0.04866">
        <ele>785.8</ele>
        <time>2021-10-09T02:26:04</time>
      </trkpt>
      <trkpt lat="42.96998" lon="-0.04866">
        <ele>785.8</ele>
        <time>2021-10-09T02:26:05</time>
      </trkpt>
      <trkpt lat="42.96998" lon="-0.04867">
        <ele>785.8</ele>
        <time>2021-10-09T02:26:06</time>
      </trkpt>
      <trkpt lat="42.96997" lon="-0.04867">
        <ele>785.8</ele>
        <time>2021-10-09T02:26:07</time>
      </trkpt>
      <trkpt lat="42.96997" lon="-0.04868">
        <ele>785.8</ele>
        <time>2021-10-09T02:26:08</time>
      </trkpt>
      <trkpt lat="42.96991" lon="-0.04891">
        <ele>789</ele>
        <time>2021-10-09T02:27:00</time>
      </trkpt>
      <trkpt lat="42.96992" lon="-0.04892">
        <ele>789.4</ele>
        <time>2021-10-09T02:27:01</time>
      </trkpt>
      <trkpt lat="42.96992" lon="-0.04894">
        <ele>789.4</ele>
        <time>2021-10-09T02:27:02</time>
      </trkpt>
      <trkpt lat="42.96992" lon="-0.04894">
        <ele>789.4</ele>
        <time>2021-10-09T02:27:03</time>
      </trkpt>
      <trkpt lat="42.96992" lon="-0.04895">
        <ele>789.4</ele>
        <time>2021-10-09T02:27:04</time>
      </trkpt>
      <trkpt lat="42.96992" lon="-0.04895">
        <ele>789.2</ele>
        <time>2021-10-09T02:27:05</time>
      </trkpt>
      <trkpt lat="42.96992" lon="-0.04896">
        <ele>789.2</ele>
        <time>2021-10-09T02:27:06</time>
      </trkpt>
      <trkpt lat="42.96992" lon="-0.04896">
        <ele>789.2</ele>
        <time>2021-10-09T02:27:07</time>
      </trkpt>
      <trkpt lat="42.96992" lon="-0.04897">
        <ele>789.2</ele>
        <time>2021-10-09T02:27:08</time>
      </trkpt>
      <trkpt lat="42.96992" lon="-0.04897">
        <ele>789.2</ele>
        <time>2021-10-09T02:27:09</time>
      </trkpt>
      <trkpt lat="42.96992" lon="-0.04898">
        <ele>789.2</ele>
        <time>2021-10-09T02:27:10</time>
      </trkpt>
      <trkpt lat="42.96977" lon="-0.04943">
        <ele>785.4</ele>
        <time>2021-10-09T02:27:28</time>
      </trkpt>
      <trkpt lat="42.96976" lon="-0.04948">
        <ele>785.4</ele>
        <time>2021-10-09T02:27:29</time>
      </trkpt>
      <trkpt lat="42.96974" lon="-0.04952">
        <ele>785.2</ele>
        <time>2021-10-09T02:27:30</time>
      </trkpt>
      <trkpt lat="42.96975" lon="-0.04957">
        <ele>785</ele>
        <time>2021-10-09T02:27:31</time>
      </trkpt>
      <trkpt lat="42.96977" lon="-0.04962">
        <ele>785</ele>
        <time>2021-10-09T02:27:32</time>
      </trkpt>
      <trkpt lat="42.96978" lon="-0.04967">
        <ele>784.4</ele>
        <time>2021-10-09T02:27:33</time>
      </trkpt>
      <trkpt lat="42.96978" lon="-0.0497">
        <ele>784</ele>
        <time>2021-10-09T02:27:34</time>
      </trkpt>
      <trkpt lat="42.96979" lon="-0.04978">
        <ele>783.8</ele>
        <time>2021-10-09T02:27:35</time>
      </trkpt>
      <trkpt lat="42.9698" lon="-0.04986">
        <ele>783.8</ele>
        <time>2021-10-09T02:27:36</time>
      </trkpt>
      <trkpt lat="42.9698" lon="-0.04993">
        <ele>783.6</ele>
        <time>2021-10-09T02:27:37</time>
      </trkpt>
      <trkpt lat="42.96979" lon="-0.05">
        <ele>783.4</ele>
        <time>2021-10-09T02:27:38</time>
      </trkpt>
      <trkpt lat="42.96978" lon="-0.05006">
        <ele>783.2</ele>
        <time>2021-10-09T02:27:39</time>
      </trkpt>
      <trkpt lat="42.96977" lon="-0.05011">
        <ele>783.2</ele>
        <time>2021-10-09T02:27:40</time>
      </trkpt>
      <trkpt lat="42.96974" lon="-0.05016">
        <ele>783.2</ele>
        <time>2021-10-09T02:27:41</time>
      </trkpt>
      <trkpt lat="42.96971" lon="-0.05022">
        <ele>783.2</ele>
        <time>2021-10-09T02:27:42</time>
      </trkpt>
      <trkpt lat="42.96967" lon="-0.05032">
        <ele>783.2</ele>
        <time>2021-10-09T02:27:43</time>
      </trkpt>
      <trkpt lat="42.96963" lon="-0.05042">
        <ele>783.4</ele>
        <time>2021-10-09T02:27:44</time>
      </trkpt>
      <trkpt lat="42.96959" lon="-0.05046">
        <ele>783.6</ele>
        <time>2021-10-09T02:27:45</time>
      </trkpt>
      <trkpt lat="42.96956" lon="-0.05049">
        <ele>783.8</ele>
        <time>2021-10-09T02:27:46</time>
      </trkpt>
      <trkpt lat="42.96952" lon="-0.05053">
        <ele>784</ele>
        <time>2021-10-09T02:27:47</time>
      </trkpt>
      <trkpt lat="42.96949" lon="-0.05059">
        <ele>784.4</ele>
        <time>2021-10-09T02:27:48</time>
      </trkpt>
      <trkpt lat="42.96946" lon="-0.05065">
        <ele>784.6</ele>
        <time>2021-10-09T02:27:49</time>
      </trkpt>
      <trkpt lat="42.96943" lon="-0.05068">
        <ele>784.8</ele>
        <time>2021-10-09T02:27:50</time>
      </trkpt>
      <trkpt lat="42.9694" lon="-0.05071">
        <ele>784.8</ele>
        <time>2021-10-09T02:27:51</time>
      </trkpt>
      <trkpt lat="42.96937" lon="-0.05074">
        <ele>784.8</ele>
        <time>2021-10-09T02:27:52</time>
      </trkpt>
      <trkpt lat="42.96934" lon="-0.05077">
        <ele>785</ele>
        <time>2021-10-09T02:27:53</time>
      </trkpt>
      <trkpt lat="42.96931" lon="-0.0508">
        <ele>785</ele>
        <time>2021-10-09T02:27:54</time>
      </trkpt>
      <trkpt lat="42.96928" lon="-0.05082">
        <ele>785.2</ele>
        <time>2021-10-09T02:27:55</time>
      </trkpt>
      <trkpt lat="42.96926" lon="-0.05084">
        <ele>785.4</ele>
        <time>2021-10-09T02:27:56</time>
      </trkpt>
      <trkpt lat="42.96924" lon="-0.05086">
        <ele>785.6</ele>
        <time>2021-10-09T02:27:57</time>
      </trkpt>
      <trkpt lat="42.96922" lon="-0.05088">
        <ele>785.8</ele>
        <time>2021-10-09T02:27:58</time>
      </trkpt>
      <trkpt lat="42.9692" lon="-0.05091">
        <ele>786.2</ele>
        <time>2021-10-09T02:27:59</time>
      </trkpt>
      <trkpt lat="42.96918" lon="-0.05093">
        <ele>786.6</ele>
        <time>2021-10-09T02:28:00</time>
      </trkpt>
      <trkpt lat="42.96915" lon="-0.05096">
        <ele>786.8</ele>
        <time>2021-10-09T02:28:01</time>
      </trkpt>
      <trkpt lat="42.96913" lon="-0.05098">
        <ele>787</ele>
        <time>2021-10-09T02:28:02</time>
      </trkpt>
      <trkpt lat="42.96912" lon="-0.051">
        <ele>787.2</ele>
        <time>2021-10-09T02:28:03</time>
      </trkpt>
      <trkpt lat="42.96911" lon="-0.05103">
        <ele>787.4</ele>
        <time>2021-10-09T02:28:04</time>
      </trkpt>
      <trkpt lat="42.9691" lon="-0.05105">
        <ele>787.8</ele>
        <time>2021-10-09T02:28:05</time>
      </trkpt>
      <trkpt lat="42.96908" lon="-0.05107">
        <ele>788</ele>
        <time>2021-10-09T02:28:06</time>
      </trkpt>
      <trkpt lat="42.96906" lon="-0.05107">
        <ele>788.2</ele>
        <time>2021-10-09T02:28:07</time>
      </trkpt>
      <trkpt lat="42.96904" lon="-0.05108">
        <ele>788.6</ele>
        <time>2021-10-09T02:28:08</time>
      </trkpt>
      <trkpt lat="42.96903" lon="-0.05109">
        <ele>788.8</ele>
        <time>2021-10-09T02:28:09</time>
      </trkpt>
      <trkpt lat="42.96901" lon="-0.0511">
        <ele>789</ele>
        <time>2021-10-09T02:28:10</time>
      </trkpt>
      <trkpt lat="42.969" lon="-0.05113">
        <ele>789</ele>
        <time>2021-10-09T02:28:11</time>
      </trkpt>
      <trkpt lat="42.96898" lon="-0.05114">
        <ele>789.2</ele>
        <time>2021-10-09T02:28:12</time>
      </trkpt>
      <trkpt lat="42.96896" lon="-0.05115">
        <ele>789.4</ele>
        <time>2021-10-09T02:28:13</time>
      </trkpt>
      <trkpt lat="42.96894" lon="-0.05118">
        <ele>789.4</ele>
        <time>2021-10-09T02:28:14</time>
      </trkpt>
      <trkpt lat="42.96892" lon="-0.0512">
        <ele>789.8</ele>
        <time>2021-10-09T02:28:15</time>
      </trkpt>
      <trkpt lat="42.9689" lon="-0.05124">
        <ele>789.8</ele>
        <time>2021-10-09T02:28:16</time>
      </trkpt>
      <trkpt lat="42.96888" lon="-0.05127">
        <ele>790</ele>
        <time>2021-10-09T02:28:17</time>
      </trkpt>
      <trkpt lat="42.96886" lon="-0.05129">
        <ele>790.2</ele>
        <time>2021-10-09T02:28:18</time>
      </trkpt>
      <trkpt lat="42.96883" lon="-0.05131">
        <ele>790.4</ele>
        <time>2021-10-09T02:28:19</time>
      </trkpt>
      <trkpt lat="42.96882" lon="-0.05132">
        <ele>790.6</ele>
        <time>2021-10-09T02:28:20</time>
      </trkpt>
      <trkpt lat="42.96881" lon="-0.05133">
        <ele>790.8</ele>
        <time>2021-10-09T02:28:21</time>
      </trkpt>
      <trkpt lat="42.96879" lon="-0.05135">
        <ele>791</ele>
        <time>2021-10-09T02:28:22</time>
      </trkpt>
      <trkpt lat="42.96877" lon="-0.05135">
        <ele>791.2</ele>
        <time>2021-10-09T02:28:23</time>
      </trkpt>
      <trkpt lat="42.96875" lon="-0.05137">
        <ele>791.4</ele>
        <time>2021-10-09T02:28:24</time>
      </trkpt>
      <trkpt lat="42.96873" lon="-0.05138">
        <ele>791.6</ele>
        <time>2021-10-09T02:28:25</time>
      </trkpt>
      <trkpt lat="42.96872" lon="-0.05138">
        <ele>791.8</ele>
        <time>2021-10-09T02:28:26</time>
      </trkpt>
      <trkpt lat="42.96871" lon="-0.0514">
        <ele>792</ele>
        <time>2021-10-09T02:28:27</time>
      </trkpt>
      <trkpt lat="42.96869" lon="-0.05141">
        <ele>792.2</ele>
        <time>2021-10-09T02:28:28</time>
      </trkpt>
      <trkpt lat="42.96868" lon="-0.05143">
        <ele>792.4</ele>
        <time>2021-10-09T02:28:29</time>
      </trkpt>
      <trkpt lat="42.96866" lon="-0.05144">
        <ele>792.6</ele>
        <time>2021-10-09T02:28:30</time>
      </trkpt>
      <trkpt lat="42.96864" lon="-0.05145">
        <ele>792.8</ele>
        <time>2021-10-09T02:28:31</time>
      </trkpt>
      <trkpt lat="42.96863" lon="-0.05146">
        <ele>793</ele>
        <time>2021-10-09T02:28:32</time>
      </trkpt>
      <trkpt lat="42.96862" lon="-0.05147">
        <ele>793.2</ele>
        <time>2021-10-09T02:28:33</time>
      </trkpt>
      <trkpt lat="42.96861" lon="-0.05147">
        <ele>793.4</ele>
        <time>2021-10-09T02:28:34</time>
      </trkpt>
      <trkpt lat="42.9686" lon="-0.05148">
        <ele>793.4</ele>
        <time>2021-10-09T02:28:35</time>
      </trkpt>
      <trkpt lat="42.96859" lon="-0.05149">
        <ele>793.6</ele>
        <time>2021-10-09T02:28:36</time>
      </trkpt>
      <trkpt lat="42.96859" lon="-0.05149">
        <ele>793.4</ele>
        <time>2021-10-09T02:28:37</time>
      </trkpt>
      <trkpt lat="42.96859" lon="-0.05149">
        <ele>793.6</ele>
        <time>2021-10-09T02:28:38</time>
      </trkpt>
      <trkpt lat="42.96859" lon="-0.05149">
        <ele>793.4</ele>
        <time>2021-10-09T02:28:39</time>
      </trkpt>
      <trkpt lat="42.96858" lon="-0.05149">
        <ele>793.4</ele>
        <time>2021-10-09T02:28:40</time>
      </trkpt>
      <trkpt lat="42.96858" lon="-0.05149">
        <ele>793.4</ele>
        <time>2021-10-09T02:28:41</time>
      </trkpt>
      <trkpt lat="42.96858" lon="-0.05149">
        <ele>793.6</ele>
        <time>2021-10-09T02:28:42</time>
      </trkpt>
      <trkpt lat="42.96855" lon="-0.05187">
        <ele>783.6</ele>
        <time>2021-10-09T02:29:28</time>
      </trkpt>
      <trkpt lat="42.96853" lon="-0.05192">
        <ele>782.4</ele>
        <time>2021-10-09T02:29:29</time>
      </trkpt>
      <trkpt lat="42.96851" lon="-0.05201">
        <ele>782</ele>
        <time>2021-10-09T02:29:30</time>
      </trkpt>
      <trkpt lat="42.96849" lon="-0.05204">
        <ele>782.2</ele>
        <time>2021-10-09T02:29:31</time>
      </trkpt>
      <trkpt lat="42.96846" lon="-0.05208">
        <ele>782.2</ele>
        <time>2021-10-09T02:29:32</time>
      </trkpt>
      <trkpt lat="42.96843" lon="-0.05209">
        <ele>782.6</ele>
        <time>2021-10-09T02:29:33</time>
      </trkpt>
      <trkpt lat="42.96839" lon="-0.05215">
        <ele>783.2</ele>
        <time>2021-10-09T02:29:34</time>
      </trkpt>
      <trkpt lat="42.96836" lon="-0.05217">
        <ele>783.4</ele>
        <time>2021-10-09T02:29:35</time>
      </trkpt>
      <trkpt lat="42.96831" lon="-0.05221">
        <ele>783.8</ele>
        <time>2021-10-09T02:29:36</time>
      </trkpt>
      <trkpt lat="42.96827" lon="-0.05223">
        <ele>784.4</ele>
        <time>2021-10-09T02:29:37</time>
      </trkpt>
      <trkpt lat="42.96824" lon="-0.05225">
        <ele>784.8</ele>
        <time>2021-10-09T02:29:38</time>
      </trkpt>
      <trkpt lat="42.96821" lon="-0.05227">
        <ele>785.2</ele>
        <time>2021-10-09T02:29:39</time>
      </trkpt>
      <trkpt lat="42.96819" lon="-0.0523">
        <ele>785</ele>
        <time>2021-10-09T02:29:40</time>
      </trkpt>
      <trkpt lat="42.96815" lon="-0.05232">
        <ele>784.6</ele>
        <time>2021-10-09T02:29:41</time>
      </trkpt>
      <trkpt lat="42.96813" lon="-0.05234">
        <ele>783.8</ele>
        <time>2021-10-09T02:29:42</time>
      </trkpt>
      <trkpt lat="42.96809" lon="-0.05235">
        <ele>782.4</ele>
        <time>2021-10-09T02:29:43</time>
      </trkpt>
      <trkpt lat="42.96806" lon="-0.05236">
        <ele>781.8</ele>
        <time>2021-10-09T02:29:44</time>
      </trkpt>
      <trkpt lat="42.96803" lon="-0.05238">
        <ele>782</ele>
        <time>2021-10-09T02:29:45</time>
      </trkpt>
      <trkpt lat="42.968" lon="-0.05239">
        <ele>782.2</ele>
        <time>2021-10-09T02:29:46</time>
      </trkpt>
      <trkpt lat="42.96797" lon="-0.05241">
        <ele>782.4</ele>
        <time>2021-10-09T02:29:47</time>
      </trkpt>
      <trkpt lat="42.96794" lon="-0.05242">
        <ele>782.6</ele>
        <time>2021-10-09T02:29:48</time>
      </trkpt>
      <trkpt lat="42.96791" lon="-0.05243">
        <ele>782.6</ele>
        <time>2021-10-09T02:29:49</time>
      </trkpt>
      <trkpt lat="42.96788" lon="-0.05246">
        <ele>782.6</ele>
        <time>2021-10-09T02:29:50</time>
      </trkpt>
      <trkpt lat="42.96784" lon="-0.05246">
        <ele>782.6</ele>
        <time>2021-10-09T02:29:51</time>
      </trkpt>
      <trkpt lat="42.96781" lon="-0.05246">
        <ele>782.6</ele>
        <time>2021-10-09T02:29:52</time>
      </trkpt>
      <trkpt lat="42.96777" lon="-0.05248">
        <ele>782.6</ele>
        <time>2021-10-09T02:29:53</time>
      </trkpt>
      <trkpt lat="42.96774" lon="-0.05249">
        <ele>782.6</ele>
        <time>2021-10-09T02:29:54</time>
      </trkpt>
      <trkpt lat="42.9677" lon="-0.05252">
        <ele>782.6</ele>
        <time>2021-10-09T02:29:55</time>
      </trkpt>
      <trkpt lat="42.96767" lon="-0.05251">
        <ele>782.8</ele>
        <time>2021-10-09T02:29:56</time>
      </trkpt>
      <trkpt lat="42.96764" lon="-0.0525">
        <ele>783.2</ele>
        <time>2021-10-09T02:29:57</time>
      </trkpt>
      <trkpt lat="42.96762" lon="-0.0525">
        <ele>783.2</ele>
        <time>2021-10-09T02:29:58</time>
      </trkpt>
      <trkpt lat="42.96759" lon="-0.05251">
        <ele>783.4</ele>
        <time>2021-10-09T02:29:59</time>
      </trkpt>
      <trkpt lat="42.96756" lon="-0.05252">
        <ele>783.4</ele>
        <time>2021-10-09T02:30:00</time>
      </trkpt>
      <trkpt lat="42.96752" lon="-0.05252">
        <ele>783.4</ele>
        <time>2021-10-09T02:30:01</time>
      </trkpt>
      <trkpt lat="42.9675" lon="-0.05251">
        <ele>783.6</ele>
        <time>2021-10-09T02:30:02</time>
      </trkpt>
      <trkpt lat="42.96748" lon="-0.05249">
        <ele>783.8</ele>
        <time>2021-10-09T02:30:03</time>
      </trkpt>
      <trkpt lat="42.96745" lon="-0.05249">
        <ele>784</ele>
        <time>2021-10-09T02:30:04</time>
      </trkpt>
      <trkpt lat="42.96742" lon="-0.05248">
        <ele>784</ele>
        <time>2021-10-09T02:30:05</time>
      </trkpt>
      <trkpt lat="42.9674" lon="-0.05249">
        <ele>784</ele>
        <time>2021-10-09T02:30:06</time>
      </trkpt>
      <trkpt lat="42.96738" lon="-0.05249">
        <ele>784</ele>
        <time>2021-10-09T02:30:07</time>
      </trkpt>
      <trkpt lat="42.96736" lon="-0.05248">
        <ele>784</ele>
        <time>2021-10-09T02:30:08</time>
      </trkpt>
      <trkpt lat="42.96733" lon="-0.05248">
        <ele>784.2</ele>
        <time>2021-10-09T02:30:09</time>
      </trkpt>
      <trkpt lat="42.9673" lon="-0.05248">
        <ele>784</ele>
        <time>2021-10-09T02:30:10</time>
      </trkpt>
      <trkpt lat="42.96726" lon="-0.05248">
        <ele>783.8</ele>
        <time>2021-10-09T02:30:11</time>
      </trkpt>
      <trkpt lat="42.96723" lon="-0.0525">
        <ele>783.6</ele>
        <time>2021-10-09T02:30:12</time>
      </trkpt>
      <trkpt lat="42.96718" lon="-0.05253">
        <ele>783.4</ele>
        <time>2021-10-09T02:30:13</time>
      </trkpt>
      <trkpt lat="42.96715" lon="-0.05257">
        <ele>783</ele>
        <time>2021-10-09T02:30:14</time>
      </trkpt>
      <trkpt lat="42.96711" lon="-0.05257">
        <ele>782.6</ele>
        <time>2021-10-09T02:30:15</time>
      </trkpt>
      <trkpt lat="42.96706" lon="-0.05258">
        <ele>782.4</ele>
        <time>2021-10-09T02:30:16</time>
      </trkpt>
      <trkpt lat="42.96701" lon="-0.0526">
        <ele>782</ele>
        <time>2021-10-09T02:30:17</time>
      </trkpt>
      <trkpt lat="42.96696" lon="-0.05261">
        <ele>781.4</ele>
        <time>2021-10-09T02:30:18</time>
      </trkpt>
      <trkpt lat="42.9669" lon="-0.05262">
        <ele>780.4</ele>
        <time>2021-10-09T02:30:19</time>
      </trkpt>
      <trkpt lat="42.96685" lon="-0.05264">
        <ele>779.4</ele>
        <time>2021-10-09T02:30:20</time>
      </trkpt>
      <trkpt lat="42.96678" lon="-0.05267">
        <ele>778.4</ele>
        <time>2021-10-09T02:30:21</time>
      </trkpt>
      <trkpt lat="42.96672" lon="-0.05268">
        <ele>777.4</ele>
        <time>2021-10-09T02:30:22</time>
      </trkpt>
      <trkpt lat="42.96667" lon="-0.05269">
        <ele>776.6</ele>
        <time>2021-10-09T02:30:23</time>
      </trkpt>
      <trkpt lat="42.96663" lon="-0.05271">
        <ele>775.8</ele>
        <time>2021-10-09T02:30:24</time>
      </trkpt>
      <trkpt lat="42.96655" lon="-0.0528">
        <ele>774.8</ele>
        <time>2021-10-09T02:30:25</time>
      </trkpt>
      <trkpt lat="42.9665" lon="-0.05284">
        <ele>774.4</ele>
        <time>2021-10-09T02:30:26</time>
      </trkpt>
      <trkpt lat="42.96646" lon="-0.05286">
        <ele>774</ele>
        <time>2021-10-09T02:30:27</time>
      </trkpt>
      <trkpt lat="42.96641" lon="-0.05286">
        <ele>773.8</ele>
        <time>2021-10-09T02:30:28</time>
      </trkpt>
      <trkpt lat="42.96635" lon="-0.05287">
        <ele>773.8</ele>
        <time>2021-10-09T02:30:29</time>
      </trkpt>
      <trkpt lat="42.96631" lon="-0.05288">
        <ele>773.2</ele>
        <time>2021-10-09T02:30:30</time>
      </trkpt>
      <trkpt lat="42.96628" lon="-0.05289">
        <ele>772.4</ele>
        <time>2021-10-09T02:30:31</time>
      </trkpt>
      <trkpt lat="42.96624" lon="-0.05292">
        <ele>771.8</ele>
        <time>2021-10-09T02:30:32</time>
      </trkpt>
      <trkpt lat="42.9662" lon="-0.05289">
        <ele>771.4</ele>
        <time>2021-10-09T02:30:33</time>
      </trkpt>
      <trkpt lat="42.96616" lon="-0.0529">
        <ele>771</ele>
        <time>2021-10-09T02:30:34</time>
      </trkpt>
      <trkpt lat="42.96612" lon="-0.05289">
        <ele>770.4</ele>
        <time>2021-10-09T02:30:35</time>
      </trkpt>
      <trkpt lat="42.96606" lon="-0.05288">
        <ele>769.6</ele>
        <time>2021-10-09T02:30:36</time>
      </trkpt>
      <trkpt lat="42.96599" lon="-0.05288">
        <ele>768.4</ele>
        <time>2021-10-09T02:30:37</time>
      </trkpt>
      <trkpt lat="42.96592" lon="-0.05286">
        <ele>767</ele>
        <time>2021-10-09T02:30:38</time>
      </trkpt>
      <trkpt lat="42.96586" lon="-0.05286">
        <ele>765.4</ele>
        <time>2021-10-09T02:30:39</time>
      </trkpt>
      <trkpt lat="42.96581" lon="-0.05284">
        <ele>763.8</ele>
        <time>2021-10-09T02:30:40</time>
      </trkpt>
      <trkpt lat="42.96575" lon="-0.05283">
        <ele>762.4</ele>
        <time>2021-10-09T02:30:41</time>
      </trkpt>
      <trkpt lat="42.96573" lon="-0.05283">
        <ele>761.4</ele>
        <time>2021-10-09T02:30:42</time>
      </trkpt>
      <trkpt lat="42.96534" lon="-0.05279">
        <ele>760.8</ele>
        <time>2021-10-09T02:30:43</time>
      </trkpt>
      <trkpt lat="42.96535" lon="-0.05286">
        <ele>760.2</ele>
        <time>2021-10-09T02:30:44</time>
      </trkpt>
      <trkpt lat="42.96539" lon="-0.05291">
        <ele>759.6</ele>
        <time>2021-10-09T02:30:45</time>
      </trkpt>
      <trkpt lat="42.96543" lon="-0.05295">
        <ele>758.4</ele>
        <time>2021-10-09T02:30:46</time>
      </trkpt>
      <trkpt lat="42.96548" lon="-0.053">
        <ele>757</ele>
        <time>2021-10-09T02:30:47</time>
      </trkpt>
      <trkpt lat="42.96553" lon="-0.05305">
        <ele>755.8</ele>
        <time>2021-10-09T02:30:48</time>
      </trkpt>
      <trkpt lat="42.96559" lon="-0.05316">
        <ele>754.4</ele>
        <time>2021-10-09T02:30:49</time>
      </trkpt>
      <trkpt lat="42.96564" lon="-0.05324">
        <ele>754.4</ele>
        <time>2021-10-09T02:30:50</time>
      </trkpt>
      <trkpt lat="42.96569" lon="-0.05334">
        <ele>754.4</ele>
        <time>2021-10-09T02:30:51</time>
      </trkpt>
      <trkpt lat="42.96575" lon="-0.05342">
        <ele>754.4</ele>
        <time>2021-10-09T02:30:52</time>
      </trkpt>
      <trkpt lat="42.96581" lon="-0.0535">
        <ele>754.4</ele>
        <time>2021-10-09T02:30:53</time>
      </trkpt>
      <trkpt lat="42.96588" lon="-0.05354">
        <ele>754.4</ele>
        <time>2021-10-09T02:30:54</time>
      </trkpt>
      <trkpt lat="42.96591" lon="-0.05359">
        <ele>746.6</ele>
        <time>2021-10-09T02:30:55</time>
      </trkpt>
      <trkpt lat="42.96595" lon="-0.05363">
        <ele>745.2</ele>
        <time>2021-10-09T02:30:56</time>
      </trkpt>
      <trkpt lat="42.96601" lon="-0.05365">
        <ele>743.6</ele>
        <time>2021-10-09T02:30:57</time>
      </trkpt>
      <trkpt lat="42.96606" lon="-0.05369">
        <ele>743.6</ele>
        <time>2021-10-09T02:30:58</time>
      </trkpt>
      <trkpt lat="42.96611" lon="-0.0537">
        <ele>743.6</ele>
        <time>2021-10-09T02:30:59</time>
      </trkpt>
      <trkpt lat="42.96616" lon="-0.05371">
        <ele>743.6</ele>
        <time>2021-10-09T02:31:00</time>
      </trkpt>
      <trkpt lat="42.96621" lon="-0.0537">
        <ele>743.6</ele>
        <time>2021-10-09T02:31:01</time>
      </trkpt>
      <trkpt lat="42.96626" lon="-0.05374">
        <ele>743.6</ele>
        <time>2021-10-09T02:31:02</time>
      </trkpt>
      <trkpt lat="42.9663" lon="-0.0538">
        <ele>729.8</ele>
        <time>2021-10-09T02:31:03</time>
      </trkpt>
      <trkpt lat="42.96633" lon="-0.05381">
        <ele>728.4</ele>
        <time>2021-10-09T02:31:04</time>
      </trkpt>
      <trkpt lat="42.96638" lon="-0.0538">
        <ele>728.4</ele>
        <time>2021-10-09T02:31:05</time>
      </trkpt>
      <trkpt lat="42.96642" lon="-0.05381">
        <ele>728.4</ele>
        <time>2021-10-09T02:31:06</time>
      </trkpt>
      <trkpt lat="42.96644" lon="-0.05384">
        <ele>728.4</ele>
        <time>2021-10-09T02:31:07</time>
      </trkpt>
      <trkpt lat="42.96649" lon="-0.05384">
        <ele>728.4</ele>
        <time>2021-10-09T02:31:08</time>
      </trkpt>
      <trkpt lat="42.96655" lon="-0.05385">
        <ele>728.4</ele>
        <time>2021-10-09T02:31:09</time>
      </trkpt>
      <trkpt lat="42.96661" lon="-0.05384">
        <ele>716.2</ele>
        <time>2021-10-09T02:31:10</time>
      </trkpt>
      <trkpt lat="42.96668" lon="-0.05379">
        <ele>714.4</ele>
        <time>2021-10-09T02:31:11</time>
      </trkpt>
      <trkpt lat="42.96674" lon="-0.05377">
        <ele>712.4</ele>
        <time>2021-10-09T02:31:12</time>
      </trkpt>
      <trkpt lat="42.9668" lon="-0.05374">
        <ele>712.4</ele>
        <time>2021-10-09T02:31:13</time>
      </trkpt>
      <trkpt lat="42.96687" lon="-0.05374">
        <ele>712.4</ele>
        <time>2021-10-09T02:31:14</time>
      </trkpt>
      <trkpt lat="42.96694" lon="-0.05367">
        <ele>712.4</ele>
        <time>2021-10-09T02:31:15</time>
      </trkpt>
      <trkpt lat="42.96702" lon="-0.05365">
        <ele>712.4</ele>
        <time>2021-10-09T02:31:16</time>
      </trkpt>
      <trkpt lat="42.96709" lon="-0.05361">
        <ele>712.4</ele>
        <time>2021-10-09T02:31:17</time>
      </trkpt>
      <trkpt lat="42.96714" lon="-0.05361">
        <ele>700.4</ele>
        <time>2021-10-09T02:31:18</time>
      </trkpt>
      <trkpt lat="42.96722" lon="-0.05363">
        <ele>700.4</ele>
        <time>2021-10-09T02:31:19</time>
      </trkpt>
      <trkpt lat="42.9673" lon="-0.0537">
        <ele>700.4</ele>
        <time>2021-10-09T02:31:20</time>
      </trkpt>
      <trkpt lat="42.96739" lon="-0.05373">
        <ele>700.4</ele>
        <time>2021-10-09T02:31:21</time>
      </trkpt>
      <trkpt lat="42.96748" lon="-0.05379">
        <ele>700.4</ele>
        <time>2021-10-09T02:31:22</time>
      </trkpt>
      <trkpt lat="42.96757" lon="-0.05385">
        <ele>700.4</ele>
        <time>2021-10-09T02:31:23</time>
      </trkpt>
      <trkpt lat="42.96765" lon="-0.05391">
        <ele>686.2</ele>
        <time>2021-10-09T02:31:24</time>
      </trkpt>
      <trkpt lat="42.96771" lon="-0.05395">
        <ele>686.2</ele>
        <time>2021-10-09T02:31:25</time>
      </trkpt>
      <trkpt lat="42.96775" lon="-0.05397">
        <ele>686.2</ele>
        <time>2021-10-09T02:31:26</time>
      </trkpt>
      <trkpt lat="42.96779" lon="-0.05403">
        <ele>686.2</ele>
        <time>2021-10-09T02:31:27</time>
      </trkpt>
      <trkpt lat="42.96783" lon="-0.05407">
        <ele>686.2</ele>
        <time>2021-10-09T02:31:28</time>
      </trkpt>
      <trkpt lat="42.96786" lon="-0.05408">
        <ele>686.2</ele>
        <time>2021-10-09T02:31:29</time>
      </trkpt>
      <trkpt lat="42.9679" lon="-0.05422">
        <ele>672.2</ele>
        <time>2021-10-09T02:31:30</time>
      </trkpt>
      <trkpt lat="42.96795" lon="-0.05431">
        <ele>670.8</ele>
        <time>2021-10-09T02:31:31</time>
      </trkpt>
      <trkpt lat="42.96799" lon="-0.05442">
        <ele>669</ele>
        <time>2021-10-09T02:31:32</time>
      </trkpt>
      <trkpt lat="42.96804" lon="-0.05453">
        <ele>669</ele>
        <time>2021-10-09T02:31:33</time>
      </trkpt>
      <trkpt lat="42.96811" lon="-0.05467">
        <ele>669</ele>
        <time>2021-10-09T02:31:34</time>
      </trkpt>
      <trkpt lat="42.96817" lon="-0.05469">
        <ele>669</ele>
        <time>2021-10-09T02:31:35</time>
      </trkpt>
      <trkpt lat="42.96826" lon="-0.05485">
        <ele>669</ele>
        <time>2021-10-09T02:31:36</time>
      </trkpt>
      <trkpt lat="42.96832" lon="-0.05492">
        <ele>669</ele>
        <time>2021-10-09T02:31:37</time>
      </trkpt>
      <trkpt lat="42.96839" lon="-0.05499">
        <ele>657.2</ele>
        <time>2021-10-09T02:31:38</time>
      </trkpt>
      <trkpt lat="42.96843" lon="-0.05507">
        <ele>655.6</ele>
        <time>2021-10-09T02:31:39</time>
      </trkpt>
      <trkpt lat="42.96846" lon="-0.05515">
        <ele>653.6</ele>
        <time>2021-10-09T02:31:40</time>
      </trkpt>
      <trkpt lat="42.9685" lon="-0.05523">
        <ele>652</ele>
        <time>2021-10-09T02:31:41</time>
      </trkpt>
      <trkpt lat="42.96855" lon="-0.0552">
        <ele>650.2</ele>
        <time>2021-10-09T02:31:42</time>
      </trkpt>
      <trkpt lat="42.96863" lon="-0.05532">
        <ele>650.2</ele>
        <time>2021-10-09T02:31:43</time>
      </trkpt>
      <trkpt lat="42.96871" lon="-0.05534">
        <ele>650.2</ele>
        <time>2021-10-09T02:31:44</time>
      </trkpt>
      <trkpt lat="42.96879" lon="-0.05539">
        <ele>650.2</ele>
        <time>2021-10-09T02:31:45</time>
      </trkpt>
      <trkpt lat="42.96889" lon="-0.05544">
        <ele>650.2</ele>
        <time>2021-10-09T02:31:46</time>
      </trkpt>
      <trkpt lat="42.96896" lon="-0.05548">
        <ele>650.2</ele>
        <time>2021-10-09T02:31:47</time>
      </trkpt>
      <trkpt lat="42.96904" lon="-0.05557">
        <ele>636.6</ele>
        <time>2021-10-09T02:31:48</time>
      </trkpt>
      <trkpt lat="42.96912" lon="-0.05567">
        <ele>636.6</ele>
        <time>2021-10-09T02:31:49</time>
      </trkpt>
      <trkpt lat="42.96919" lon="-0.05574">
        <ele>636.6</ele>
        <time>2021-10-09T02:31:50</time>
      </trkpt>
      <trkpt lat="42.96925" lon="-0.05579">
        <ele>636.6</ele>
        <time>2021-10-09T02:31:51</time>
      </trkpt>
      <trkpt lat="42.9693" lon="-0.05586">
        <ele>636.6</ele>
        <time>2021-10-09T02:31:52</time>
      </trkpt>
      <trkpt lat="42.96934" lon="-0.05589">
        <ele>636.6</ele>
        <time>2021-10-09T02:31:53</time>
      </trkpt>
      <trkpt lat="42.96937" lon="-0.05593">
        <ele>626.6</ele>
        <time>2021-10-09T02:31:54</time>
      </trkpt>
      <trkpt lat="42.96939" lon="-0.05598">
        <ele>625.4</ele>
        <time>2021-10-09T02:31:55</time>
      </trkpt>
      <trkpt lat="42.96942" lon="-0.05607">
        <ele>625</ele>
        <time>2021-10-09T02:31:56</time>
      </trkpt>
      <trkpt lat="42.96944" lon="-0.05621">
        <ele>625</ele>
        <time>2021-10-09T02:31:57</time>
      </trkpt>
      <trkpt lat="42.96946" lon="-0.05631">
        <ele>624.8</ele>
        <time>2021-10-09T02:31:58</time>
      </trkpt>
      <trkpt lat="42.96947" lon="-0.05638">
        <ele>624.8</ele>
        <time>2021-10-09T02:31:59</time>
      </trkpt>
      <trkpt lat="42.96949" lon="-0.05644">
        <ele>624.8</ele>
        <time>2021-10-09T02:32:00</time>
      </trkpt>
      <trkpt lat="42.9695" lon="-0.05648">
        <ele>624.8</ele>
        <time>2021-10-09T02:32:01</time>
      </trkpt>
      <trkpt lat="42.96951" lon="-0.05652">
        <ele>624.8</ele>
        <time>2021-10-09T02:32:02</time>
      </trkpt>
      <trkpt lat="42.96952" lon="-0.05655">
        <ele>624.8</ele>
        <time>2021-10-09T02:32:03</time>
      </trkpt>
      <trkpt lat="42.96954" lon="-0.05657">
        <ele>624.8</ele>
        <time>2021-10-09T02:32:04</time>
      </trkpt>
      <trkpt lat="42.96956" lon="-0.0566">
        <ele>624.8</ele>
        <time>2021-10-09T02:32:05</time>
      </trkpt>
      <trkpt lat="42.97004" lon="-0.05689">
        <ele>613.4</ele>
        <time>2021-10-09T02:32:52</time>
      </trkpt>
      <trkpt lat="42.97004" lon="-0.05692">
        <ele>613.4</ele>
        <time>2021-10-09T02:32:53</time>
      </trkpt>
      <trkpt lat="42.97005" lon="-0.05692">
        <ele>613.4</ele>
        <time>2021-10-09T02:32:54</time>
      </trkpt>
      <trkpt lat="42.97007" lon="-0.05693">
        <ele>613.4</ele>
        <time>2021-10-09T02:32:55</time>
      </trkpt>
      <trkpt lat="42.9701" lon="-0.05695">
        <ele>613.4</ele>
        <time>2021-10-09T02:32:56</time>
      </trkpt>
      <trkpt lat="42.97011" lon="-0.05696">
        <ele>602.4</ele>
        <time>2021-10-09T02:32:57</time>
      </trkpt>
      <trkpt lat="42.97013" lon="-0.05698">
        <ele>602.4</ele>
        <time>2021-10-09T02:32:58</time>
      </trkpt>
      <trkpt lat="42.97017" lon="-0.05699">
        <ele>602.4</ele>
        <time>2021-10-09T02:32:59</time>
      </trkpt>
      <trkpt lat="42.9702" lon="-0.05699">
        <ele>602.4</ele>
        <time>2021-10-09T02:33:00</time>
      </trkpt>
      <trkpt lat="42.97022" lon="-0.05698">
        <ele>602.4</ele>
        <time>2021-10-09T02:33:01</time>
      </trkpt>
      <trkpt lat="42.97031" lon="-0.05695">
        <ele>602.4</ele>
        <time>2021-10-09T02:33:02</time>
      </trkpt>
      <trkpt lat="42.97039" lon="-0.05692">
        <ele>589.6</ele>
        <time>2021-10-09T02:33:03</time>
      </trkpt>
      <trkpt lat="42.97047" lon="-0.0569">
        <ele>589.6</ele>
        <time>2021-10-09T02:33:04</time>
      </trkpt>
      <trkpt lat="42.97054" lon="-0.05688">
        <ele>589.6</ele>
        <time>2021-10-09T02:33:05</time>
      </trkpt>
      <trkpt lat="42.9706" lon="-0.05686">
        <ele>589.6</ele>
        <time>2021-10-09T02:33:06</time>
      </trkpt>
      <trkpt lat="42.97062" lon="-0.05685">
        <ele>589.6</ele>
        <time>2021-10-09T02:33:07</time>
      </trkpt>
      <trkpt lat="42.97072" lon="-0.05684">
        <ele>589.6</ele>
        <time>2021-10-09T02:33:08</time>
      </trkpt>
      <trkpt lat="42.97082" lon="-0.05683">
        <ele>576</ele>
        <time>2021-10-09T02:33:09</time>
      </trkpt>
      <trkpt lat="42.97092" lon="-0.05682">
        <ele>576</ele>
        <time>2021-10-09T02:33:10</time>
      </trkpt>
      <trkpt lat="42.97101" lon="-0.05678">
        <ele>576</ele>
        <time>2021-10-09T02:33:11</time>
      </trkpt>
      <trkpt lat="42.97108" lon="-0.05675">
        <ele>576</ele>
        <time>2021-10-09T02:33:12</time>
      </trkpt>
      <trkpt lat="42.97114" lon="-0.05672">
        <ele>576</ele>
        <time>2021-10-09T02:33:13</time>
      </trkpt>
      <trkpt lat="42.97119" lon="-0.0567">
        <ele>576</ele>
        <time>2021-10-09T02:33:14</time>
      </trkpt>
      <trkpt lat="42.97125" lon="-0.0567">
        <ele>561.8</ele>
        <time>2021-10-09T02:33:15</time>
      </trkpt>
      <trkpt lat="42.97131" lon="-0.05671">
        <ele>560.8</ele>
        <time>2021-10-09T02:33:16</time>
      </trkpt>
      <trkpt lat="42.97138" lon="-0.05675">
        <ele>559</ele>
        <time>2021-10-09T02:33:17</time>
      </trkpt>
      <trkpt lat="42.97146" lon="-0.05679">
        <ele>557.8</ele>
        <time>2021-10-09T02:33:18</time>
      </trkpt>
      <trkpt lat="42.97153" lon="-0.05685">
        <ele>556.6</ele>
        <time>2021-10-09T02:33:19</time>
      </trkpt>
      <trkpt lat="42.9716" lon="-0.05687">
        <ele>556.6</ele>
        <time>2021-10-09T02:33:20</time>
      </trkpt>
      <trkpt lat="42.97165" lon="-0.05691">
        <ele>556.6</ele>
        <time>2021-10-09T02:33:21</time>
      </trkpt>
      <trkpt lat="42.97171" lon="-0.05697">
        <ele>556.6</ele>
        <time>2021-10-09T02:33:22</time>
      </trkpt>
      <trkpt lat="42.97175" lon="-0.05703">
        <ele>556.6</ele>
        <time>2021-10-09T02:33:23</time>
      </trkpt>
      <trkpt lat="42.97177" lon="-0.05709">
        <ele>556.6</ele>
        <time>2021-10-09T02:33:24</time>
      </trkpt>
      <trkpt lat="42.9718" lon="-0.05715">
        <ele>548</ele>
        <time>2021-10-09T02:33:25</time>
      </trkpt>
      <trkpt lat="42.97182" lon="-0.05721">
        <ele>547.2</ele>
        <time>2021-10-09T02:33:26</time>
      </trkpt>
      <trkpt lat="42.97183" lon="-0.05726">
        <ele>546.4</ele>
        <time>2021-10-09T02:33:27</time>
      </trkpt>
      <trkpt lat="42.97185" lon="-0.05731">
        <ele>545.8</ele>
        <time>2021-10-09T02:33:28</time>
      </trkpt>
      <trkpt lat="42.97186" lon="-0.05737">
        <ele>545</ele>
        <time>2021-10-09T02:33:29</time>
      </trkpt>
      <trkpt lat="42.97188" lon="-0.05743">
        <ele>544.4</ele>
        <time>2021-10-09T02:33:30</time>
      </trkpt>
      <trkpt lat="42.9719" lon="-0.05749">
        <ele>543.8</ele>
        <time>2021-10-09T02:33:31</time>
      </trkpt>
      <trkpt lat="42.97192" lon="-0.05755">
        <ele>543</ele>
        <time>2021-10-09T02:33:32</time>
      </trkpt>
      <trkpt lat="42.97194" lon="-0.05759">
        <ele>542.2</ele>
        <time>2021-10-09T02:33:33</time>
      </trkpt>
      <trkpt lat="42.97196" lon="-0.05761">
        <ele>541.4</ele>
        <time>2021-10-09T02:33:34</time>
      </trkpt>
      <trkpt lat="42.97196" lon="-0.05763">
        <ele>540.8</ele>
        <time>2021-10-09T02:33:35</time>
      </trkpt>
      <trkpt lat="42.97198" lon="-0.05768">
        <ele>540.4</ele>
        <time>2021-10-09T02:33:36</time>
      </trkpt>
      <trkpt lat="42.97201" lon="-0.05772">
        <ele>540.2</ele>
        <time>2021-10-09T02:33:37</time>
      </trkpt>
      <trkpt lat="42.97206" lon="-0.05775">
        <ele>539.4</ele>
        <time>2021-10-09T02:33:38</time>
      </trkpt>
      <trkpt lat="42.9721" lon="-0.05777">
        <ele>538.8</ele>
        <time>2021-10-09T02:33:39</time>
      </trkpt>
      <trkpt lat="42.97215" lon="-0.05782">
        <ele>538.2</ele>
        <time>2021-10-09T02:33:40</time>
      </trkpt>
      <trkpt lat="42.97219" lon="-0.05785">
        <ele>537.6</ele>
        <time>2021-10-09T02:33:41</time>
      </trkpt>
      <trkpt lat="42.97224" lon="-0.05789">
        <ele>537.2</ele>
        <time>2021-10-09T02:33:42</time>
      </trkpt>
      <trkpt lat="42.97228" lon="-0.05792">
        <ele>536.6</ele>
        <time>2021-10-09T02:33:43</time>
      </trkpt>
      <trkpt lat="42.97233" lon="-0.05795">
        <ele>536.4</ele>
        <time>2021-10-09T02:33:44</time>
      </trkpt>
      <trkpt lat="42.97238" lon="-0.05798">
        <ele>536</ele>
        <time>2021-10-09T02:33:45</time>
      </trkpt>
      <trkpt lat="42.97243" lon="-0.058">
        <ele>535.8</ele>
        <time>2021-10-09T02:33:46</time>
      </trkpt>
      <trkpt lat="42.97248" lon="-0.05803">
        <ele>535.4</ele>
        <time>2021-10-09T02:33:47</time>
      </trkpt>
      <trkpt lat="42.97254" lon="-0.05806">
        <ele>535.2</ele>
        <time>2021-10-09T02:33:48</time>
      </trkpt>
      <trkpt lat="42.97261" lon="-0.05807">
        <ele>535</ele>
        <time>2021-10-09T02:33:49</time>
      </trkpt>
      <trkpt lat="42.97267" lon="-0.05809">
        <ele>534.4</ele>
        <time>2021-10-09T02:33:50</time>
      </trkpt>
      <trkpt lat="42.97274" lon="-0.05811">
        <ele>533.8</ele>
        <time>2021-10-09T02:33:51</time>
      </trkpt>
      <trkpt lat="42.97281" lon="-0.05814">
        <ele>533.4</ele>
        <time>2021-10-09T02:33:52</time>
      </trkpt>
      <trkpt lat="42.97288" lon="-0.05819">
        <ele>532.4</ele>
        <time>2021-10-09T02:33:53</time>
      </trkpt>
      <trkpt lat="42.97295" lon="-0.05827">
        <ele>531.2</ele>
        <time>2021-10-09T02:33:54</time>
      </trkpt>
      <trkpt lat="42.97301" lon="-0.05834">
        <ele>530.4</ele>
        <time>2021-10-09T02:33:55</time>
      </trkpt>
      <trkpt lat="42.97308" lon="-0.05842">
        <ele>528.8</ele>
        <time>2021-10-09T02:33:56</time>
      </trkpt>
      <trkpt lat="42.97315" lon="-0.05849">
        <ele>527.8</ele>
        <time>2021-10-09T02:33:57</time>
      </trkpt>
      <trkpt lat="42.97321" lon="-0.05858">
        <ele>526.4</ele>
        <time>2021-10-09T02:33:58</time>
      </trkpt>
      <trkpt lat="42.97327" lon="-0.05868">
        <ele>525.2</ele>
        <time>2021-10-09T02:33:59</time>
      </trkpt>
      <trkpt lat="42.97333" lon="-0.05879">
        <ele>524</ele>
        <time>2021-10-09T02:34:00</time>
      </trkpt>
      <trkpt lat="42.97338" lon="-0.05889">
        <ele>522.4</ele>
        <time>2021-10-09T02:34:01</time>
      </trkpt>
      <trkpt lat="42.97343" lon="-0.05897">
        <ele>521</ele>
        <time>2021-10-09T02:34:02</time>
      </trkpt>
      <trkpt lat="42.97349" lon="-0.05903">
        <ele>520.4</ele>
        <time>2021-10-09T02:34:03</time>
      </trkpt>
      <trkpt lat="42.97356" lon="-0.05904">
        <ele>519.8</ele>
        <time>2021-10-09T02:34:04</time>
      </trkpt>
      <trkpt lat="42.97362" lon="-0.05902">
        <ele>519.4</ele>
        <time>2021-10-09T02:34:05</time>
      </trkpt>
      <trkpt lat="42.97369" lon="-0.05896">
        <ele>519</ele>
        <time>2021-10-09T02:34:06</time>
      </trkpt>
      <trkpt lat="42.97374" lon="-0.05893">
        <ele>518.4</ele>
        <time>2021-10-09T02:34:07</time>
      </trkpt>
      <trkpt lat="42.97381" lon="-0.05891">
        <ele>517.8</ele>
        <time>2021-10-09T02:34:08</time>
      </trkpt>
      <trkpt lat="42.97389" lon="-0.05892">
        <ele>516.8</ele>
        <time>2021-10-09T02:34:09</time>
      </trkpt>
      <trkpt lat="42.97395" lon="-0.05897">
        <ele>516.6</ele>
        <time>2021-10-09T02:34:10</time>
      </trkpt>
      <trkpt lat="42.97402" lon="-0.05903">
        <ele>516</ele>
        <time>2021-10-09T02:34:11</time>
      </trkpt>
      <trkpt lat="42.97409" lon="-0.0591">
        <ele>515.2</ele>
        <time>2021-10-09T02:34:12</time>
      </trkpt>
      <trkpt lat="42.97416" lon="-0.05918">
        <ele>514.6</ele>
        <time>2021-10-09T02:34:13</time>
      </trkpt>
      <trkpt lat="42.97423" lon="-0.05926">
        <ele>513.6</ele>
        <time>2021-10-09T02:34:14</time>
      </trkpt>
      <trkpt lat="42.9743" lon="-0.05934">
        <ele>512.8</ele>
        <time>2021-10-09T02:34:15</time>
      </trkpt>
      <trkpt lat="42.97436" lon="-0.05944">
        <ele>512</ele>
        <time>2021-10-09T02:34:16</time>
      </trkpt>
      <trkpt lat="42.97442" lon="-0.05954">
        <ele>511.2</ele>
        <time>2021-10-09T02:34:17</time>
      </trkpt>
      <trkpt lat="42.97448" lon="-0.05962">
        <ele>510.4</ele>
        <time>2021-10-09T02:34:18</time>
      </trkpt>
      <trkpt lat="42.97454" lon="-0.05969">
        <ele>509.8</ele>
        <time>2021-10-09T02:34:19</time>
      </trkpt>
      <trkpt lat="42.97462" lon="-0.05974">
        <ele>509.2</ele>
        <time>2021-10-09T02:34:20</time>
      </trkpt>
      <trkpt lat="42.9747" lon="-0.0598">
        <ele>508.8</ele>
        <time>2021-10-09T02:34:21</time>
      </trkpt>
      <trkpt lat="42.97478" lon="-0.05984">
        <ele>508.6</ele>
        <time>2021-10-09T02:34:22</time>
      </trkpt>
      <trkpt lat="42.97486" lon="-0.05989">
        <ele>508.2</ele>
        <time>2021-10-09T02:34:23</time>
      </trkpt>
      <trkpt lat="42.97494" lon="-0.05995">
        <ele>507.6</ele>
        <time>2021-10-09T02:34:24</time>
      </trkpt>
      <trkpt lat="42.97502" lon="-0.06">
        <ele>506.8</ele>
        <time>2021-10-09T02:34:25</time>
      </trkpt>
      <trkpt lat="42.97509" lon="-0.06005">
        <ele>506.2</ele>
        <time>2021-10-09T02:34:26</time>
      </trkpt>
      <trkpt lat="42.97516" lon="-0.06009">
        <ele>505.8</ele>
        <time>2021-10-09T02:34:27</time>
      </trkpt>
      <trkpt lat="42.97523" lon="-0.06012">
        <ele>505.4</ele>
        <time>2021-10-09T02:34:28</time>
      </trkpt>
      <trkpt lat="42.9753" lon="-0.06015">
        <ele>505.2</ele>
        <time>2021-10-09T02:34:29</time>
      </trkpt>
      <trkpt lat="42.97535" lon="-0.06019">
        <ele>505.6</ele>
        <time>2021-10-09T02:34:30</time>
      </trkpt>
      <trkpt lat="42.9754" lon="-0.06021">
        <ele>505.6</ele>
        <time>2021-10-09T02:34:31</time>
      </trkpt>
      <trkpt lat="42.97545" lon="-0.06022">
        <ele>506.2</ele>
        <time>2021-10-09T02:34:32</time>
      </trkpt>
      <trkpt lat="42.9755" lon="-0.06023">
        <ele>506.8</ele>
        <time>2021-10-09T02:34:33</time>
      </trkpt>
      <trkpt lat="42.97554" lon="-0.06024">
        <ele>507.2</ele>
        <time>2021-10-09T02:34:34</time>
      </trkpt>
      <trkpt lat="42.97558" lon="-0.06025">
        <ele>507.4</ele>
        <time>2021-10-09T02:34:35</time>
      </trkpt>
      <trkpt lat="42.97562" lon="-0.06026">
        <ele>507.6</ele>
        <time>2021-10-09T02:34:36</time>
      </trkpt>
      <trkpt lat="42.97565" lon="-0.06028">
        <ele>507.8</ele>
        <time>2021-10-09T02:34:37</time>
      </trkpt>
      <trkpt lat="42.97569" lon="-0.0603">
        <ele>507.8</ele>
        <time>2021-10-09T02:34:38</time>
      </trkpt>
      <trkpt lat="42.97573" lon="-0.06032">
        <ele>508</ele>
        <time>2021-10-09T02:34:39</time>
      </trkpt>
      <trkpt lat="42.97577" lon="-0.06034">
        <ele>508</ele>
        <time>2021-10-09T02:34:40</time>
      </trkpt>
      <trkpt lat="42.97581" lon="-0.06036">
        <ele>508.2</ele>
        <time>2021-10-09T02:34:41</time>
      </trkpt>
      <trkpt lat="42.97584" lon="-0.06037">
        <ele>508.2</ele>
        <time>2021-10-09T02:34:42</time>
      </trkpt>
      <trkpt lat="42.97587" lon="-0.06039">
        <ele>508.4</ele>
        <time>2021-10-09T02:34:43</time>
      </trkpt>
      <trkpt lat="42.97591" lon="-0.06041">
        <ele>508.6</ele>
        <time>2021-10-09T02:34:44</time>
      </trkpt>
      <trkpt lat="42.97594" lon="-0.06043">
        <ele>509</ele>
        <time>2021-10-09T02:34:45</time>
      </trkpt>
      <trkpt lat="42.97598" lon="-0.06045">
        <ele>509</ele>
        <time>2021-10-09T02:34:46</time>
      </trkpt>
      <trkpt lat="42.97601" lon="-0.06047">
        <ele>509.2</ele>
        <time>2021-10-09T02:34:47</time>
      </trkpt>
      <trkpt lat="42.97604" lon="-0.06049">
        <ele>509</ele>
        <time>2021-10-09T02:34:48</time>
      </trkpt>
      <trkpt lat="42.97608" lon="-0.0605">
        <ele>509</ele>
        <time>2021-10-09T02:34:49</time>
      </trkpt>
      <trkpt lat="42.97611" lon="-0.06051">
        <ele>508.8</ele>
        <time>2021-10-09T02:34:50</time>
      </trkpt>
      <trkpt lat="42.97614" lon="-0.06053">
        <ele>508.8</ele>
        <time>2021-10-09T02:34:51</time>
      </trkpt>
      <trkpt lat="42.97618" lon="-0.06054">
        <ele>509</ele>
        <time>2021-10-09T02:34:52</time>
      </trkpt>
      <trkpt lat="42.97621" lon="-0.06056">
        <ele>509</ele>
        <time>2021-10-09T02:34:53</time>
      </trkpt>
      <trkpt lat="42.97625" lon="-0.06059">
        <ele>508.8</ele>
        <time>2021-10-09T02:34:54</time>
      </trkpt>
      <trkpt lat="42.97629" lon="-0.06061">
        <ele>508.8</ele>
        <time>2021-10-09T02:34:55</time>
      </trkpt>
      <trkpt lat="42.97633" lon="-0.06063">
        <ele>509</ele>
        <time>2021-10-09T02:34:56</time>
      </trkpt>
      <trkpt lat="42.97636" lon="-0.06065">
        <ele>509</ele>
        <time>2021-10-09T02:34:57</time>
      </trkpt>
      <trkpt lat="42.9764" lon="-0.06067">
        <ele>509</ele>
        <time>2021-10-09T02:34:58</time>
      </trkpt>
      <trkpt lat="42.97644" lon="-0.0607">
        <ele>509.2</ele>
        <time>2021-10-09T02:34:59</time>
      </trkpt>
      <trkpt lat="42.97648" lon="-0.06071">
        <ele>509.4</ele>
        <time>2021-10-09T02:35:00</time>
      </trkpt>
      <trkpt lat="42.97652" lon="-0.06072">
        <ele>509.4</ele>
        <time>2021-10-09T02:35:01</time>
      </trkpt>
      <trkpt lat="42.97656" lon="-0.06074">
        <ele>509.2</ele>
        <time>2021-10-09T02:35:02</time>
      </trkpt>
      <trkpt lat="42.9766" lon="-0.06075">
        <ele>509.2</ele>
        <time>2021-10-09T02:35:03</time>
      </trkpt>
      <trkpt lat="42.97664" lon="-0.06076">
        <ele>509.4</ele>
        <time>2021-10-09T02:35:04</time>
      </trkpt>
      <trkpt lat="42.97668" lon="-0.06078">
        <ele>509.4</ele>
        <time>2021-10-09T02:35:05</time>
      </trkpt>
      <trkpt lat="42.97672" lon="-0.06079">
        <ele>509.6</ele>
        <time>2021-10-09T02:35:06</time>
      </trkpt>
      <trkpt lat="42.97676" lon="-0.06079">
        <ele>509.6</ele>
        <time>2021-10-09T02:35:07</time>
      </trkpt>
      <trkpt lat="42.9768" lon="-0.0608">
        <ele>509.6</ele>
        <time>2021-10-09T02:35:08</time>
      </trkpt>
      <trkpt lat="42.97684" lon="-0.06081">
        <ele>509.4</ele>
        <time>2021-10-09T02:35:09</time>
      </trkpt>
      <trkpt lat="42.97688" lon="-0.06083">
        <ele>509</ele>
        <time>2021-10-09T02:35:10</time>
      </trkpt>
      <trkpt lat="42.97691" lon="-0.06085">
        <ele>509</ele>
        <time>2021-10-09T02:35:11</time>
      </trkpt>
      <trkpt lat="42.97694" lon="-0.06085">
        <ele>508.8</ele>
        <time>2021-10-09T02:35:12</time>
      </trkpt>
      <trkpt lat="42.97697" lon="-0.06084">
        <ele>508.8</ele>
        <time>2021-10-09T02:35:13</time>
      </trkpt>
      <trkpt lat="42.97699" lon="-0.06083">
        <ele>508.8</ele>
        <time>2021-10-09T02:35:14</time>
      </trkpt>
      <trkpt lat="42.97702" lon="-0.06082">
        <ele>508.8</ele>
        <time>2021-10-09T02:35:15</time>
      </trkpt>
      <trkpt lat="42.97704" lon="-0.06084">
        <ele>508.6</ele>
        <time>2021-10-09T02:35:16</time>
      </trkpt>
      <trkpt lat="42.97707" lon="-0.06085">
        <ele>508.6</ele>
        <time>2021-10-09T02:35:17</time>
      </trkpt>
      <trkpt lat="42.9771" lon="-0.06086">
        <ele>508.4</ele>
        <time>2021-10-09T02:35:18</time>
      </trkpt>
      <trkpt lat="42.97713" lon="-0.06087">
        <ele>508</ele>
        <time>2021-10-09T02:35:19</time>
      </trkpt>
      <trkpt lat="42.97717" lon="-0.06089">
        <ele>507.8</ele>
        <time>2021-10-09T02:35:20</time>
      </trkpt>
      <trkpt lat="42.97722" lon="-0.06091">
        <ele>507.4</ele>
        <time>2021-10-09T02:35:21</time>
      </trkpt>
      <trkpt lat="42.97726" lon="-0.06093">
        <ele>507.2</ele>
        <time>2021-10-09T02:35:22</time>
      </trkpt>
      <trkpt lat="42.97732" lon="-0.06094">
        <ele>506.8</ele>
        <time>2021-10-09T02:35:23</time>
      </trkpt>
      <trkpt lat="42.97737" lon="-0.06095">
        <ele>506.8</ele>
        <time>2021-10-09T02:35:24</time>
      </trkpt>
      <trkpt lat="42.97741" lon="-0.06097">
        <ele>506.4</ele>
        <time>2021-10-09T02:35:25</time>
      </trkpt>
      <trkpt lat="42.97746" lon="-0.06099">
        <ele>506.4</ele>
        <time>2021-10-09T02:35:26</time>
      </trkpt>
      <trkpt lat="42.97751" lon="-0.06102">
        <ele>506</ele>
        <time>2021-10-09T02:35:27</time>
      </trkpt>
      <trkpt lat="42.97756" lon="-0.06104">
        <ele>505.2</ele>
        <time>2021-10-09T02:35:28</time>
      </trkpt>
      <trkpt lat="42.97761" lon="-0.06105">
        <ele>505</ele>
        <time>2021-10-09T02:35:29</time>
      </trkpt>
      <trkpt lat="42.97767" lon="-0.06106">
        <ele>504.6</ele>
        <time>2021-10-09T02:35:30</time>
      </trkpt>
      <trkpt lat="42.97772" lon="-0.06108">
        <ele>504.4</ele>
        <time>2021-10-09T02:35:31</time>
      </trkpt>
      <trkpt lat="42.97778" lon="-0.06109">
        <ele>503.8</ele>
        <time>2021-10-09T02:35:32</time>
      </trkpt>
      <trkpt lat="42.97785" lon="-0.06111">
        <ele>503.4</ele>
        <time>2021-10-09T02:35:33</time>
      </trkpt>
      <trkpt lat="42.97791" lon="-0.06113">
        <ele>502.8</ele>
        <time>2021-10-09T02:35:34</time>
      </trkpt>
      <trkpt lat="42.97798" lon="-0.06115">
        <ele>502.6</ele>
        <time>2021-10-09T02:35:35</time>
      </trkpt>
      <trkpt lat="42.97804" lon="-0.06117">
        <ele>502</ele>
        <time>2021-10-09T02:35:36</time>
      </trkpt>
      <trkpt lat="42.97812" lon="-0.06118">
        <ele>501.4</ele>
        <time>2021-10-09T02:35:37</time>
      </trkpt>
      <trkpt lat="42.97819" lon="-0.06119">
        <ele>501.2</ele>
        <time>2021-10-09T02:35:38</time>
      </trkpt>
      <trkpt lat="42.97827" lon="-0.06121">
        <ele>500.8</ele>
        <time>2021-10-09T02:35:39</time>
      </trkpt>
      <trkpt lat="42.97834" lon="-0.06123">
        <ele>500.4</ele>
        <time>2021-10-09T02:35:40</time>
      </trkpt>
      <trkpt lat="42.97842" lon="-0.06125">
        <ele>500.2</ele>
        <time>2021-10-09T02:35:41</time>
      </trkpt>
      <trkpt lat="42.9785" lon="-0.06127">
        <ele>499.6</ele>
        <time>2021-10-09T02:35:42</time>
      </trkpt>
      <trkpt lat="42.97858" lon="-0.06129">
        <ele>499.2</ele>
        <time>2021-10-09T02:35:43</time>
      </trkpt>
      <trkpt lat="42.97866" lon="-0.06131">
        <ele>498.8</ele>
        <time>2021-10-09T02:35:44</time>
      </trkpt>
      <trkpt lat="42.97874" lon="-0.06132">
        <ele>498.2</ele>
        <time>2021-10-09T02:35:45</time>
      </trkpt>
      <trkpt lat="42.97881" lon="-0.06135">
        <ele>497.4</ele>
        <time>2021-10-09T02:35:46</time>
      </trkpt>
      <trkpt lat="42.9789" lon="-0.06138">
        <ele>497.2</ele>
        <time>2021-10-09T02:35:47</time>
      </trkpt>
      <trkpt lat="42.97898" lon="-0.0614">
        <ele>497</ele>
        <time>2021-10-09T02:35:48</time>
      </trkpt>
      <trkpt lat="42.97907" lon="-0.06142">
        <ele>496.8</ele>
        <time>2021-10-09T02:35:49</time>
      </trkpt>
      <trkpt lat="42.97914" lon="-0.06144">
        <ele>496.8</ele>
        <time>2021-10-09T02:35:50</time>
      </trkpt>
      <trkpt lat="42.97922" lon="-0.06145">
        <ele>496.8</ele>
        <time>2021-10-09T02:35:51</time>
      </trkpt>
      <trkpt lat="42.97929" lon="-0.06147">
        <ele>496.8</ele>
        <time>2021-10-09T02:35:52</time>
      </trkpt>
      <trkpt lat="42.97936" lon="-0.06148">
        <ele>497</ele>
        <time>2021-10-09T02:35:53</time>
      </trkpt>
      <trkpt lat="42.97943" lon="-0.06149">
        <ele>497</ele>
        <time>2021-10-09T02:35:54</time>
      </trkpt>
      <trkpt lat="42.97949" lon="-0.0615">
        <ele>497</ele>
        <time>2021-10-09T02:35:55</time>
      </trkpt>
      <trkpt lat="42.97954" lon="-0.0615">
        <ele>497.2</ele>
        <time>2021-10-09T02:35:56</time>
      </trkpt>
      <trkpt lat="42.97959" lon="-0.0615">
        <ele>497.6</ele>
        <time>2021-10-09T02:35:57</time>
      </trkpt>
      <trkpt lat="42.97964" lon="-0.0615">
        <ele>497.8</ele>
        <time>2021-10-09T02:35:58</time>
      </trkpt>
      <trkpt lat="42.97969" lon="-0.0615">
        <ele>498</ele>
        <time>2021-10-09T02:35:59</time>
      </trkpt>
      <trkpt lat="42.97973" lon="-0.06149">
        <ele>498.4</ele>
        <time>2021-10-09T02:36:00</time>
      </trkpt>
      <trkpt lat="42.97977" lon="-0.0615">
        <ele>498.4</ele>
        <time>2021-10-09T02:36:01</time>
      </trkpt>
      <trkpt lat="42.97981" lon="-0.0615">
        <ele>498.4</ele>
        <time>2021-10-09T02:36:02</time>
      </trkpt>
      <trkpt lat="42.97985" lon="-0.06151">
        <ele>498.6</ele>
        <time>2021-10-09T02:36:03</time>
      </trkpt>
      <trkpt lat="42.97989" lon="-0.06151">
        <ele>498.6</ele>
        <time>2021-10-09T02:36:04</time>
      </trkpt>
      <trkpt lat="42.97992" lon="-0.06152">
        <ele>498.8</ele>
        <time>2021-10-09T02:36:05</time>
      </trkpt>
      <trkpt lat="42.97996" lon="-0.06153">
        <ele>499</ele>
        <time>2021-10-09T02:36:06</time>
      </trkpt>
      <trkpt lat="42.97999" lon="-0.06153">
        <ele>499</ele>
        <time>2021-10-09T02:36:07</time>
      </trkpt>
      <trkpt lat="42.98003" lon="-0.06154">
        <ele>499</ele>
        <time>2021-10-09T02:36:08</time>
      </trkpt>
      <trkpt lat="42.98007" lon="-0.06154">
        <ele>499</ele>
        <time>2021-10-09T02:36:09</time>
      </trkpt>
      <trkpt lat="42.9801" lon="-0.06154">
        <ele>499.2</ele>
        <time>2021-10-09T02:36:10</time>
      </trkpt>
      <trkpt lat="42.98014" lon="-0.06156">
        <ele>499.2</ele>
        <time>2021-10-09T02:36:11</time>
      </trkpt>
      <trkpt lat="42.98017" lon="-0.06157">
        <ele>499.2</ele>
        <time>2021-10-09T02:36:12</time>
      </trkpt>
      <trkpt lat="42.98021" lon="-0.06157">
        <ele>499.2</ele>
        <time>2021-10-09T02:36:13</time>
      </trkpt>
      <trkpt lat="42.98025" lon="-0.06158">
        <ele>499.2</ele>
        <time>2021-10-09T02:36:14</time>
      </trkpt>
      <trkpt lat="42.98029" lon="-0.06158">
        <ele>499.2</ele>
        <time>2021-10-09T02:36:15</time>
      </trkpt>
      <trkpt lat="42.98033" lon="-0.06159">
        <ele>499</ele>
        <time>2021-10-09T02:36:16</time>
      </trkpt>
      <trkpt lat="42.98037" lon="-0.06159">
        <ele>499</ele>
        <time>2021-10-09T02:36:17</time>
      </trkpt>
      <trkpt lat="42.9804" lon="-0.0616">
        <ele>499</ele>
        <time>2021-10-09T02:36:18</time>
      </trkpt>
      <trkpt lat="42.98044" lon="-0.06161">
        <ele>498.8</ele>
        <time>2021-10-09T02:36:19</time>
      </trkpt>
      <trkpt lat="42.98048" lon="-0.06162">
        <ele>498.8</ele>
        <time>2021-10-09T02:36:20</time>
      </trkpt>
      <trkpt lat="42.98052" lon="-0.06163">
        <ele>498.8</ele>
        <time>2021-10-09T02:36:21</time>
      </trkpt>
      <trkpt lat="42.98055" lon="-0.06164">
        <ele>498.8</ele>
        <time>2021-10-09T02:36:22</time>
      </trkpt>
      <trkpt lat="42.98058" lon="-0.06165">
        <ele>498.8</ele>
        <time>2021-10-09T02:36:23</time>
      </trkpt>
      <trkpt lat="42.98062" lon="-0.06166">
        <ele>498.6</ele>
        <time>2021-10-09T02:36:24</time>
      </trkpt>
      <trkpt lat="42.98066" lon="-0.06167">
        <ele>498.6</ele>
        <time>2021-10-09T02:36:25</time>
      </trkpt>
      <trkpt lat="42.9807" lon="-0.06168">
        <ele>498.6</ele>
        <time>2021-10-09T02:36:26</time>
      </trkpt>
      <trkpt lat="42.98074" lon="-0.06168">
        <ele>498.6</ele>
        <time>2021-10-09T02:36:27</time>
      </trkpt>
      <trkpt lat="42.98077" lon="-0.06169">
        <ele>498.6</ele>
        <time>2021-10-09T02:36:28</time>
      </trkpt>
      <trkpt lat="42.98081" lon="-0.0617">
        <ele>498.6</ele>
        <time>2021-10-09T02:36:29</time>
      </trkpt>
      <trkpt lat="42.98085" lon="-0.06171">
        <ele>498.6</ele>
        <time>2021-10-09T02:36:30</time>
      </trkpt>
      <trkpt lat="42.98089" lon="-0.06172">
        <ele>498.6</ele>
        <time>2021-10-09T02:36:31</time>
      </trkpt>
      <trkpt lat="42.98093" lon="-0.06173">
        <ele>498.8</ele>
        <time>2021-10-09T02:36:32</time>
      </trkpt>
      <trkpt lat="42.98096" lon="-0.06174">
        <ele>498.6</ele>
        <time>2021-10-09T02:36:33</time>
      </trkpt>
      <trkpt lat="42.981" lon="-0.06175">
        <ele>498.6</ele>
        <time>2021-10-09T02:36:34</time>
      </trkpt>
      <trkpt lat="42.98103" lon="-0.06176">
        <ele>498.8</ele>
        <time>2021-10-09T02:36:35</time>
      </trkpt>
      <trkpt lat="42.98107" lon="-0.06176">
        <ele>498.8</ele>
        <time>2021-10-09T02:36:36</time>
      </trkpt>
      <trkpt lat="42.98111" lon="-0.06177">
        <ele>498.8</ele>
        <time>2021-10-09T02:36:37</time>
      </trkpt>
      <trkpt lat="42.98114" lon="-0.06178">
        <ele>498.8</ele>
        <time>2021-10-09T02:36:38</time>
      </trkpt>
      <trkpt lat="42.98118" lon="-0.06179">
        <ele>499</ele>
        <time>2021-10-09T02:36:39</time>
      </trkpt>
      <trkpt lat="42.98122" lon="-0.06179">
        <ele>499</ele>
        <time>2021-10-09T02:36:40</time>
      </trkpt>
      <trkpt lat="42.98125" lon="-0.06179">
        <ele>499</ele>
        <time>2021-10-09T02:36:41</time>
      </trkpt>
      <trkpt lat="42.98129" lon="-0.06179">
        <ele>499</ele>
        <time>2021-10-09T02:36:42</time>
      </trkpt>
      <trkpt lat="42.98133" lon="-0.0618">
        <ele>499</ele>
        <time>2021-10-09T02:36:43</time>
      </trkpt>
      <trkpt lat="42.98136" lon="-0.0618">
        <ele>499</ele>
        <time>2021-10-09T02:36:44</time>
      </trkpt>
      <trkpt lat="42.9814" lon="-0.06181">
        <ele>498.8</ele>
        <time>2021-10-09T02:36:45</time>
      </trkpt>
      <trkpt lat="42.98144" lon="-0.06182">
        <ele>498.8</ele>
        <time>2021-10-09T02:36:46</time>
      </trkpt>
      <trkpt lat="42.98147" lon="-0.06182">
        <ele>498.8</ele>
        <time>2021-10-09T02:36:47</time>
      </trkpt>
      <trkpt lat="42.98151" lon="-0.06183">
        <ele>498.6</ele>
        <time>2021-10-09T02:36:48</time>
      </trkpt>
      <trkpt lat="42.98155" lon="-0.06183">
        <ele>498.4</ele>
        <time>2021-10-09T02:36:49</time>
      </trkpt>
      <trkpt lat="42.98159" lon="-0.06183">
        <ele>498.2</ele>
        <time>2021-10-09T02:36:50</time>
      </trkpt>
      <trkpt lat="42.98163" lon="-0.06184">
        <ele>498.2</ele>
        <time>2021-10-09T02:36:51</time>
      </trkpt>
      <trkpt lat="42.98167" lon="-0.06185">
        <ele>498</ele>
        <time>2021-10-09T02:36:52</time>
      </trkpt>
      <trkpt lat="42.98171" lon="-0.06185">
        <ele>497.8</ele>
        <time>2021-10-09T02:36:53</time>
      </trkpt>
      <trkpt lat="42.98175" lon="-0.06186">
        <ele>497.6</ele>
        <time>2021-10-09T02:36:54</time>
      </trkpt>
      <trkpt lat="42.98179" lon="-0.06188">
        <ele>497.4</ele>
        <time>2021-10-09T02:36:55</time>
      </trkpt>
      <trkpt lat="42.98184" lon="-0.06191">
        <ele>497.4</ele>
        <time>2021-10-09T02:36:56</time>
      </trkpt>
      <trkpt lat="42.98188" lon="-0.06193">
        <ele>497.2</ele>
        <time>2021-10-09T02:36:57</time>
      </trkpt>
      <trkpt lat="42.98192" lon="-0.06195">
        <ele>497</ele>
        <time>2021-10-09T02:36:58</time>
      </trkpt>
      <trkpt lat="42.98197" lon="-0.06198">
        <ele>496.8</ele>
        <time>2021-10-09T02:36:59</time>
      </trkpt>
      <trkpt lat="42.98201" lon="-0.06202">
        <ele>496.6</ele>
        <time>2021-10-09T02:37:00</time>
      </trkpt>
      <trkpt lat="42.98205" lon="-0.06205">
        <ele>496.6</ele>
        <time>2021-10-09T02:37:01</time>
      </trkpt>
      <trkpt lat="42.98209" lon="-0.06209">
        <ele>496.2</ele>
        <time>2021-10-09T02:37:02</time>
      </trkpt>
      <trkpt lat="42.98213" lon="-0.06212">
        <ele>496.2</ele>
        <time>2021-10-09T02:37:03</time>
      </trkpt>
      <trkpt lat="42.98217" lon="-0.06215">
        <ele>496</ele>
        <time>2021-10-09T02:37:04</time>
      </trkpt>
      <trkpt lat="42.98221" lon="-0.06218">
        <ele>496</ele>
        <time>2021-10-09T02:37:05</time>
      </trkpt>
      <trkpt lat="42.98225" lon="-0.06221">
        <ele>495.6</ele>
        <time>2021-10-09T02:37:06</time>
      </trkpt>
      <trkpt lat="42.9823" lon="-0.06224">
        <ele>495.6</ele>
        <time>2021-10-09T02:37:07</time>
      </trkpt>
      <trkpt lat="42.98234" lon="-0.06227">
        <ele>495.6</ele>
        <time>2021-10-09T02:37:08</time>
      </trkpt>
      <trkpt lat="42.98238" lon="-0.0623">
        <ele>495.4</ele>
        <time>2021-10-09T02:37:09</time>
      </trkpt>
      <trkpt lat="42.98242" lon="-0.06233">
        <ele>495.4</ele>
        <time>2021-10-09T02:37:10</time>
      </trkpt>
      <trkpt lat="42.98247" lon="-0.06235">
        <ele>495.2</ele>
        <time>2021-10-09T02:37:11</time>
      </trkpt>
      <trkpt lat="42.98251" lon="-0.06236">
        <ele>495</ele>
        <time>2021-10-09T02:37:12</time>
      </trkpt>
      <trkpt lat="42.98256" lon="-0.06238">
        <ele>495</ele>
        <time>2021-10-09T02:37:13</time>
      </trkpt>
      <trkpt lat="42.9826" lon="-0.0624">
        <ele>494.8</ele>
        <time>2021-10-09T02:37:14</time>
      </trkpt>
      <trkpt lat="42.98265" lon="-0.06242">
        <ele>494.6</ele>
        <time>2021-10-09T02:37:15</time>
      </trkpt>
      <trkpt lat="42.98269" lon="-0.06243">
        <ele>494.4</ele>
        <time>2021-10-09T02:37:16</time>
      </trkpt>
      <trkpt lat="42.98274" lon="-0.06244">
        <ele>494.4</ele>
        <time>2021-10-09T02:37:17</time>
      </trkpt>
      <trkpt lat="42.98278" lon="-0.06245">
        <ele>494.2</ele>
        <time>2021-10-09T02:37:18</time>
      </trkpt>
      <trkpt lat="42.98283" lon="-0.06246">
        <ele>494.2</ele>
        <time>2021-10-09T02:37:19</time>
      </trkpt>
      <trkpt lat="42.98287" lon="-0.06246">
        <ele>493.8</ele>
        <time>2021-10-09T02:37:20</time>
      </trkpt>
      <trkpt lat="42.98292" lon="-0.06247">
        <ele>493.6</ele>
        <time>2021-10-09T02:37:21</time>
      </trkpt>
      <trkpt lat="42.98297" lon="-0.06248">
        <ele>493.2</ele>
        <time>2021-10-09T02:37:22</time>
      </trkpt>
      <trkpt lat="42.98302" lon="-0.06249">
        <ele>492.6</ele>
        <time>2021-10-09T02:37:23</time>
      </trkpt>
      <trkpt lat="42.98307" lon="-0.0625">
        <ele>492.2</ele>
        <time>2021-10-09T02:37:24</time>
      </trkpt>
      <trkpt lat="42.98311" lon="-0.0625">
        <ele>491.6</ele>
        <time>2021-10-09T02:37:25</time>
      </trkpt>
      <trkpt lat="42.98315" lon="-0.06251">
        <ele>491.4</ele>
        <time>2021-10-09T02:37:26</time>
      </trkpt>
      <trkpt lat="42.98318" lon="-0.06251">
        <ele>490.6</ele>
        <time>2021-10-09T02:37:27</time>
      </trkpt>
      <trkpt lat="42.98321" lon="-0.06251">
        <ele>490.4</ele>
        <time>2021-10-09T02:37:28</time>
      </trkpt>
      <trkpt lat="42.98323" lon="-0.06251">
        <ele>490.2</ele>
        <time>2021-10-09T02:37:29</time>
      </trkpt>
      <trkpt lat="42.98325" lon="-0.06251">
        <ele>490</ele>
        <time>2021-10-09T02:37:30</time>
      </trkpt>
      <trkpt lat="42.98326" lon="-0.06251">
        <ele>489.8</ele>
        <time>2021-10-09T02:37:31</time>
      </trkpt>
      <trkpt lat="42.98328" lon="-0.06251">
        <ele>489.6</ele>
        <time>2021-10-09T02:37:32</time>
      </trkpt>
      <trkpt lat="42.98328" lon="-0.0625">
        <ele>489.6</ele>
        <time>2021-10-09T02:37:33</time>
      </trkpt>
      <trkpt lat="42.98328" lon="-0.0625">
        <ele>489.6</ele>
        <time>2021-10-09T02:37:34</time>
      </trkpt>
      <trkpt lat="42.98328" lon="-0.0625">
        <ele>489.6</ele>
        <time>2021-10-09T02:37:35</time>
      </trkpt>
      <trkpt lat="42.98328" lon="-0.0625">
        <ele>489.6</ele>
        <time>2021-10-09T02:37:36</time>
      </trkpt>
      <trkpt lat="42.98328" lon="-0.0625">
        <ele>489.6</ele>
        <time>2021-10-09T02:37:37</time>
      </trkpt>
      <trkpt lat="42.98328" lon="-0.0625">
        <ele>489.6</ele>
        <time>2021-10-09T02:37:38</time>
      </trkpt>
      <trkpt lat="42.98329" lon="-0.06251">
        <ele>489.6</ele>
        <time>2021-10-09T02:37:39</time>
      </trkpt>
      <trkpt lat="42.98329" lon="-0.06252">
        <ele>489.6</ele>
        <time>2021-10-09T02:37:40</time>
      </trkpt>
      <trkpt lat="42.98345" lon="-0.06278">
        <ele>488</ele>
        <time>2021-10-09T02:37:47</time>
      </trkpt>
      <trkpt lat="42.98349" lon="-0.06285">
        <ele>487.6</ele>
        <time>2021-10-09T02:37:48</time>
      </trkpt>
      <trkpt lat="42.98351" lon="-0.06292">
        <ele>487</ele>
        <time>2021-10-09T02:37:49</time>
      </trkpt>
      <trkpt lat="42.98354" lon="-0.06299">
        <ele>486.6</ele>
        <time>2021-10-09T02:37:50</time>
      </trkpt>
      <trkpt lat="42.98358" lon="-0.06306">
        <ele>485.8</ele>
        <time>2021-10-09T02:37:51</time>
      </trkpt>
      <trkpt lat="42.98361" lon="-0.06312">
        <ele>485.6</ele>
        <time>2021-10-09T02:37:52</time>
      </trkpt>
      <trkpt lat="42.98364" lon="-0.06319">
        <ele>484.8</ele>
        <time>2021-10-09T02:37:53</time>
      </trkpt>
      <trkpt lat="42.98367" lon="-0.06327">
        <ele>484.2</ele>
        <time>2021-10-09T02:37:54</time>
      </trkpt>
      <trkpt lat="42.9837" lon="-0.06336">
        <ele>484</ele>
        <time>2021-10-09T02:37:55</time>
      </trkpt>
      <trkpt lat="42.98373" lon="-0.06345">
        <ele>483.4</ele>
        <time>2021-10-09T02:37:56</time>
      </trkpt>
      <trkpt lat="42.98376" lon="-0.06354">
        <ele>482.8</ele>
        <time>2021-10-09T02:37:57</time>
      </trkpt>
      <trkpt lat="42.9838" lon="-0.06362">
        <ele>482.2</ele>
        <time>2021-10-09T02:37:58</time>
      </trkpt>
      <trkpt lat="42.98384" lon="-0.06371">
        <ele>481.8</ele>
        <time>2021-10-09T02:37:59</time>
      </trkpt>
      <trkpt lat="42.98387" lon="-0.0638">
        <ele>481.4</ele>
        <time>2021-10-09T02:38:00</time>
      </trkpt>
      <trkpt lat="42.98391" lon="-0.0639">
        <ele>480.6</ele>
        <time>2021-10-09T02:38:01</time>
      </trkpt>
      <trkpt lat="42.98394" lon="-0.06399">
        <ele>480</ele>
        <time>2021-10-09T02:38:02</time>
      </trkpt>
      <trkpt lat="42.98399" lon="-0.06408">
        <ele>480</ele>
        <time>2021-10-09T02:38:03</time>
      </trkpt>
      <trkpt lat="42.98403" lon="-0.06415">
        <ele>479.4</ele>
        <time>2021-10-09T02:38:04</time>
      </trkpt>
      <trkpt lat="42.98406" lon="-0.06424">
        <ele>478.8</ele>
        <time>2021-10-09T02:38:05</time>
      </trkpt>
      <trkpt lat="42.98407" lon="-0.06435">
        <ele>478.4</ele>
        <time>2021-10-09T02:38:06</time>
      </trkpt>
      <trkpt lat="42.98408" lon="-0.06445">
        <ele>477.8</ele>
        <time>2021-10-09T02:38:07</time>
      </trkpt>
      <trkpt lat="42.98408" lon="-0.06455">
        <ele>477.4</ele>
        <time>2021-10-09T02:38:08</time>
      </trkpt>
      <trkpt lat="42.98409" lon="-0.06466">
        <ele>477</ele>
        <time>2021-10-09T02:38:09</time>
      </trkpt>
      <trkpt lat="42.98409" lon="-0.06476">
        <ele>476.8</ele>
        <time>2021-10-09T02:38:10</time>
      </trkpt>
      <trkpt lat="42.98409" lon="-0.06486">
        <ele>476.6</ele>
        <time>2021-10-09T02:38:11</time>
      </trkpt>
      <trkpt lat="42.98409" lon="-0.06497">
        <ele>476.2</ele>
        <time>2021-10-09T02:38:12</time>
      </trkpt>
      <trkpt lat="42.98407" lon="-0.06508">
        <ele>475.6</ele>
        <time>2021-10-09T02:38:13</time>
      </trkpt>
      <trkpt lat="42.98405" lon="-0.06518">
        <ele>475.2</ele>
        <time>2021-10-09T02:38:14</time>
      </trkpt>
      <trkpt lat="42.98405" lon="-0.06527">
        <ele>475</ele>
        <time>2021-10-09T02:38:15</time>
      </trkpt>
      <trkpt lat="42.98404" lon="-0.06536">
        <ele>474.8</ele>
        <time>2021-10-09T02:38:16</time>
      </trkpt>
      <trkpt lat="42.98403" lon="-0.06546">
        <ele>474.4</ele>
        <time>2021-10-09T02:38:17</time>
      </trkpt>
      <trkpt lat="42.98402" lon="-0.06556">
        <ele>473.6</ele>
        <time>2021-10-09T02:38:18</time>
      </trkpt>
      <trkpt lat="42.98401" lon="-0.06566">
        <ele>473.2</ele>
        <time>2021-10-09T02:38:19</time>
      </trkpt>
      <trkpt lat="42.984" lon="-0.06576">
        <ele>472.8</ele>
        <time>2021-10-09T02:38:20</time>
      </trkpt>
      <trkpt lat="42.98399" lon="-0.06587">
        <ele>472</ele>
        <time>2021-10-09T02:38:21</time>
      </trkpt>
      <trkpt lat="42.98398" lon="-0.06598">
        <ele>471.6</ele>
        <time>2021-10-09T02:38:22</time>
      </trkpt>
      <trkpt lat="42.98397" lon="-0.0661">
        <ele>471.2</ele>
        <time>2021-10-09T02:38:23</time>
      </trkpt>
      <trkpt lat="42.98396" lon="-0.0662">
        <ele>470.8</ele>
        <time>2021-10-09T02:38:24</time>
      </trkpt>
      <trkpt lat="42.98394" lon="-0.06631">
        <ele>470</ele>
        <time>2021-10-09T02:38:25</time>
      </trkpt>
      <trkpt lat="42.98393" lon="-0.06643">
        <ele>469.8</ele>
        <time>2021-10-09T02:38:26</time>
      </trkpt>
      <trkpt lat="42.98391" lon="-0.06654">
        <ele>469.6</ele>
        <time>2021-10-09T02:38:27</time>
      </trkpt>
      <trkpt lat="42.9839" lon="-0.06666">
        <ele>469</ele>
        <time>2021-10-09T02:38:28</time>
      </trkpt>
      <trkpt lat="42.98389" lon="-0.06678">
        <ele>468.6</ele>
        <time>2021-10-09T02:38:29</time>
      </trkpt>
      <trkpt lat="42.98387" lon="-0.06689">
        <ele>468.4</ele>
        <time>2021-10-09T02:38:30</time>
      </trkpt>
      <trkpt lat="42.98386" lon="-0.06699">
        <ele>468.2</ele>
        <time>2021-10-09T02:38:31</time>
      </trkpt>
      <trkpt lat="42.98385" lon="-0.0671">
        <ele>467.6</ele>
        <time>2021-10-09T02:38:32</time>
      </trkpt>
      <trkpt lat="42.98383" lon="-0.06721">
        <ele>467</ele>
        <time>2021-10-09T02:38:33</time>
      </trkpt>
      <trkpt lat="42.98382" lon="-0.06732">
        <ele>466.4</ele>
        <time>2021-10-09T02:38:34</time>
      </trkpt>
      <trkpt lat="42.98381" lon="-0.06743">
        <ele>466.2</ele>
        <time>2021-10-09T02:38:35</time>
      </trkpt>
      <trkpt lat="42.9838" lon="-0.06753">
        <ele>465.6</ele>
        <time>2021-10-09T02:38:36</time>
      </trkpt>
      <trkpt lat="42.98379" lon="-0.06764">
        <ele>465</ele>
        <time>2021-10-09T02:38:37</time>
      </trkpt>
      <trkpt lat="42.98378" lon="-0.06776">
        <ele>464.8</ele>
        <time>2021-10-09T02:38:38</time>
      </trkpt>
      <trkpt lat="42.98377" lon="-0.06787">
        <ele>464.2</ele>
        <time>2021-10-09T02:38:39</time>
      </trkpt>
      <trkpt lat="42.98375" lon="-0.06798">
        <ele>463.8</ele>
        <time>2021-10-09T02:38:40</time>
      </trkpt>
      <trkpt lat="42.98374" lon="-0.06809">
        <ele>463.4</ele>
        <time>2021-10-09T02:38:41</time>
      </trkpt>
      <trkpt lat="42.98373" lon="-0.0682">
        <ele>463.2</ele>
        <time>2021-10-09T02:38:42</time>
      </trkpt>
      <trkpt lat="42.98371" lon="-0.0683">
        <ele>463.4</ele>
        <time>2021-10-09T02:38:43</time>
      </trkpt>
      <trkpt lat="42.98369" lon="-0.06841">
        <ele>463.2</ele>
        <time>2021-10-09T02:38:44</time>
      </trkpt>
      <trkpt lat="42.98368" lon="-0.06852">
        <ele>462.6</ele>
        <time>2021-10-09T02:38:45</time>
      </trkpt>
      <trkpt lat="42.98365" lon="-0.06861">
        <ele>462.2</ele>
        <time>2021-10-09T02:38:46</time>
      </trkpt>
      <trkpt lat="42.98363" lon="-0.06871">
        <ele>462.2</ele>
        <time>2021-10-09T02:38:47</time>
      </trkpt>
      <trkpt lat="42.98361" lon="-0.06881">
        <ele>462</ele>
        <time>2021-10-09T02:38:48</time>
      </trkpt>
      <trkpt lat="42.98359" lon="-0.06889">
        <ele>461.8</ele>
        <time>2021-10-09T02:38:49</time>
      </trkpt>
      <trkpt lat="42.98357" lon="-0.06897">
        <ele>461.6</ele>
        <time>2021-10-09T02:38:50</time>
      </trkpt>
      <trkpt lat="42.98356" lon="-0.06903">
        <ele>461.2</ele>
        <time>2021-10-09T02:38:51</time>
      </trkpt>
      <trkpt lat="42.98355" lon="-0.06909">
        <ele>460.6</ele>
        <time>2021-10-09T02:38:52</time>
      </trkpt>
      <trkpt lat="42.98353" lon="-0.06913">
        <ele>460.4</ele>
        <time>2021-10-09T02:38:53</time>
      </trkpt>
      <trkpt lat="42.98352" lon="-0.06918">
        <ele>460.6</ele>
        <time>2021-10-09T02:38:54</time>
      </trkpt>
      <trkpt lat="42.98351" lon="-0.06923">
        <ele>460.4</ele>
        <time>2021-10-09T02:38:55</time>
      </trkpt>
      <trkpt lat="42.98351" lon="-0.06928">
        <ele>460.2</ele>
        <time>2021-10-09T02:38:56</time>
      </trkpt>
      <trkpt lat="42.98353" lon="-0.06933">
        <ele>460.4</ele>
        <time>2021-10-09T02:38:57</time>
      </trkpt>
      <trkpt lat="42.98356" lon="-0.06937">
        <ele>460.6</ele>
        <time>2021-10-09T02:38:58</time>
      </trkpt>
      <trkpt lat="42.98359" lon="-0.0694">
        <ele>460.4</ele>
        <time>2021-10-09T02:38:59</time>
      </trkpt>
      <trkpt lat="42.98362" lon="-0.06944">
        <ele>460.4</ele>
        <time>2021-10-09T02:39:00</time>
      </trkpt>
      <trkpt lat="42.98366" lon="-0.06947">
        <ele>460.4</ele>
        <time>2021-10-09T02:39:01</time>
      </trkpt>
      <trkpt lat="42.9837" lon="-0.0695">
        <ele>460.2</ele>
        <time>2021-10-09T02:39:02</time>
      </trkpt>
      <trkpt lat="42.98374" lon="-0.06954">
        <ele>460.2</ele>
        <time>2021-10-09T02:39:03</time>
      </trkpt>
      <trkpt lat="42.98378" lon="-0.06956">
        <ele>460.2</ele>
        <time>2021-10-09T02:39:04</time>
      </trkpt>
      <trkpt lat="42.98381" lon="-0.06959">
        <ele>460.2</ele>
        <time>2021-10-09T02:39:05</time>
      </trkpt>
      <trkpt lat="42.98385" lon="-0.06962">
        <ele>460.4</ele>
        <time>2021-10-09T02:39:06</time>
      </trkpt>
      <trkpt lat="42.98389" lon="-0.06965">
        <ele>460.4</ele>
        <time>2021-10-09T02:39:07</time>
      </trkpt>
      <trkpt lat="42.98393" lon="-0.06967">
        <ele>460.4</ele>
        <time>2021-10-09T02:39:08</time>
      </trkpt>
      <trkpt lat="42.98397" lon="-0.0697">
        <ele>460.4</ele>
        <time>2021-10-09T02:39:09</time>
      </trkpt>
      <trkpt lat="42.98401" lon="-0.06972">
        <ele>460.4</ele>
        <time>2021-10-09T02:39:10</time>
      </trkpt>
      <trkpt lat="42.98405" lon="-0.06974">
        <ele>460.4</ele>
        <time>2021-10-09T02:39:11</time>
      </trkpt>
      <trkpt lat="42.98409" lon="-0.06977">
        <ele>460.4</ele>
        <time>2021-10-09T02:39:12</time>
      </trkpt>
      <trkpt lat="42.98413" lon="-0.06979">
        <ele>460.6</ele>
        <time>2021-10-09T02:39:13</time>
      </trkpt>
      <trkpt lat="42.98417" lon="-0.06981">
        <ele>460.8</ele>
        <time>2021-10-09T02:39:14</time>
      </trkpt>
      <trkpt lat="42.9842" lon="-0.06983">
        <ele>460.8</ele>
        <time>2021-10-09T02:39:15</time>
      </trkpt>
      <trkpt lat="42.98424" lon="-0.06986">
        <ele>460.8</ele>
        <time>2021-10-09T02:39:16</time>
      </trkpt>
      <trkpt lat="42.98428" lon="-0.06988">
        <ele>460.8</ele>
        <time>2021-10-09T02:39:17</time>
      </trkpt>
      <trkpt lat="42.98432" lon="-0.0699">
        <ele>460.8</ele>
        <time>2021-10-09T02:39:18</time>
      </trkpt>
      <trkpt lat="42.98436" lon="-0.06993">
        <ele>460.6</ele>
        <time>2021-10-09T02:39:19</time>
      </trkpt>
      <trkpt lat="42.98441" lon="-0.06995">
        <ele>460.6</ele>
        <time>2021-10-09T02:39:20</time>
      </trkpt>
      <trkpt lat="42.98445" lon="-0.06998">
        <ele>460.6</ele>
        <time>2021-10-09T02:39:21</time>
      </trkpt>
      <trkpt lat="42.9845" lon="-0.07001">
        <ele>460.6</ele>
        <time>2021-10-09T02:39:22</time>
      </trkpt>
      <trkpt lat="42.98454" lon="-0.07003">
        <ele>460.4</ele>
        <time>2021-10-09T02:39:23</time>
      </trkpt>
      <trkpt lat="42.98458" lon="-0.07006">
        <ele>460.2</ele>
        <time>2021-10-09T02:39:24</time>
      </trkpt>
      <trkpt lat="42.98463" lon="-0.07008">
        <ele>460.4</ele>
        <time>2021-10-09T02:39:25</time>
      </trkpt>
      <trkpt lat="42.98467" lon="-0.0701">
        <ele>460.2</ele>
        <time>2021-10-09T02:39:26</time>
      </trkpt>
      <trkpt lat="42.98471" lon="-0.07012">
        <ele>460.4</ele>
        <time>2021-10-09T02:39:27</time>
      </trkpt>
      <trkpt lat="42.98475" lon="-0.07014">
        <ele>460.4</ele>
        <time>2021-10-09T02:39:28</time>
      </trkpt>
      <trkpt lat="42.98479" lon="-0.07016">
        <ele>460.2</ele>
        <time>2021-10-09T02:39:29</time>
      </trkpt>
      <trkpt lat="42.98483" lon="-0.07019">
        <ele>460.2</ele>
        <time>2021-10-09T02:39:30</time>
      </trkpt>
      <trkpt lat="42.98487" lon="-0.07021">
        <ele>460.2</ele>
        <time>2021-10-09T02:39:31</time>
      </trkpt>
      <trkpt lat="42.98491" lon="-0.07023">
        <ele>460</ele>
        <time>2021-10-09T02:39:32</time>
      </trkpt>
      <trkpt lat="42.98495" lon="-0.07025">
        <ele>460</ele>
        <time>2021-10-09T02:39:33</time>
      </trkpt>
      <trkpt lat="42.98499" lon="-0.07026">
        <ele>460</ele>
        <time>2021-10-09T02:39:34</time>
      </trkpt>
      <trkpt lat="42.98503" lon="-0.07027">
        <ele>460</ele>
        <time>2021-10-09T02:39:35</time>
      </trkpt>
      <trkpt lat="42.98507" lon="-0.07028">
        <ele>460.2</ele>
        <time>2021-10-09T02:39:36</time>
      </trkpt>
      <trkpt lat="42.98511" lon="-0.07029">
        <ele>460</ele>
        <time>2021-10-09T02:39:37</time>
      </trkpt>
      <trkpt lat="42.98515" lon="-0.07031">
        <ele>459.8</ele>
        <time>2021-10-09T02:39:38</time>
      </trkpt>
      <trkpt lat="42.98518" lon="-0.07032">
        <ele>460</ele>
        <time>2021-10-09T02:39:39</time>
      </trkpt>
      <trkpt lat="42.98522" lon="-0.07033">
        <ele>460</ele>
        <time>2021-10-09T02:39:40</time>
      </trkpt>
      <trkpt lat="42.98526" lon="-0.07034">
        <ele>460</ele>
        <time>2021-10-09T02:39:41</time>
      </trkpt>
      <trkpt lat="42.9853" lon="-0.07035">
        <ele>460</ele>
        <time>2021-10-09T02:39:42</time>
      </trkpt>
      <trkpt lat="42.98534" lon="-0.07036">
        <ele>459.8</ele>
        <time>2021-10-09T02:39:43</time>
      </trkpt>
      <trkpt lat="42.98538" lon="-0.07036">
        <ele>459.8</ele>
        <time>2021-10-09T02:39:44</time>
      </trkpt>
      <trkpt lat="42.98542" lon="-0.07037">
        <ele>459.8</ele>
        <time>2021-10-09T02:39:45</time>
      </trkpt>
      <trkpt lat="42.98545" lon="-0.07038">
        <ele>459.8</ele>
        <time>2021-10-09T02:39:46</time>
      </trkpt>
      <trkpt lat="42.98549" lon="-0.07039">
        <ele>459.6</ele>
        <time>2021-10-09T02:39:47</time>
      </trkpt>
      <trkpt lat="42.98552" lon="-0.0704">
        <ele>459.6</ele>
        <time>2021-10-09T02:39:48</time>
      </trkpt>
      <trkpt lat="42.98555" lon="-0.07041">
        <ele>459.8</ele>
        <time>2021-10-09T02:39:49</time>
      </trkpt>
      <trkpt lat="42.98559" lon="-0.07042">
        <ele>459.6</ele>
        <time>2021-10-09T02:39:50</time>
      </trkpt>
      <trkpt lat="42.98562" lon="-0.07043">
        <ele>459.6</ele>
        <time>2021-10-09T02:39:51</time>
      </trkpt>
      <trkpt lat="42.98565" lon="-0.07045">
        <ele>459.6</ele>
        <time>2021-10-09T02:39:52</time>
      </trkpt>
      <trkpt lat="42.98569" lon="-0.07046">
        <ele>459.4</ele>
        <time>2021-10-09T02:39:53</time>
      </trkpt>
      <trkpt lat="42.98572" lon="-0.07047">
        <ele>459.6</ele>
        <time>2021-10-09T02:39:54</time>
      </trkpt>
      <trkpt lat="42.98575" lon="-0.07047">
        <ele>459.4</ele>
        <time>2021-10-09T02:39:55</time>
      </trkpt>
      <trkpt lat="42.98578" lon="-0.07048">
        <ele>459.2</ele>
        <time>2021-10-09T02:39:56</time>
      </trkpt>
      <trkpt lat="42.98582" lon="-0.07049">
        <ele>459.2</ele>
        <time>2021-10-09T02:39:57</time>
      </trkpt>
      <trkpt lat="42.98586" lon="-0.07049">
        <ele>459.6</ele>
        <time>2021-10-09T02:39:58</time>
      </trkpt>
      <trkpt lat="42.9859" lon="-0.0705">
        <ele>459.6</ele>
        <time>2021-10-09T02:39:59</time>
      </trkpt>
      <trkpt lat="42.98594" lon="-0.07051">
        <ele>459.8</ele>
        <time>2021-10-09T02:40:00</time>
      </trkpt>
      <trkpt lat="42.98598" lon="-0.07052">
        <ele>459.4</ele>
        <time>2021-10-09T02:40:01</time>
      </trkpt>
      <trkpt lat="42.98603" lon="-0.07053">
        <ele>459.4</ele>
        <time>2021-10-09T02:40:02</time>
      </trkpt>
      <trkpt lat="42.98607" lon="-0.07054">
        <ele>459.4</ele>
        <time>2021-10-09T02:40:03</time>
      </trkpt>
      <trkpt lat="42.98612" lon="-0.07054">
        <ele>459.2</ele>
        <time>2021-10-09T02:40:04</time>
      </trkpt>
      <trkpt lat="42.98616" lon="-0.07055">
        <ele>459.2</ele>
        <time>2021-10-09T02:40:05</time>
      </trkpt>
      <trkpt lat="42.98621" lon="-0.07054">
        <ele>459.4</ele>
        <time>2021-10-09T02:40:06</time>
      </trkpt>
      <trkpt lat="42.98625" lon="-0.07055">
        <ele>459.2</ele>
        <time>2021-10-09T02:40:07</time>
      </trkpt>
      <trkpt lat="42.9863" lon="-0.07055">
        <ele>459.2</ele>
        <time>2021-10-09T02:40:08</time>
      </trkpt>
      <trkpt lat="42.98634" lon="-0.07054">
        <ele>459</ele>
        <time>2021-10-09T02:40:09</time>
      </trkpt>
      <trkpt lat="42.98639" lon="-0.07054">
        <ele>459</ele>
        <time>2021-10-09T02:40:10</time>
      </trkpt>
      <trkpt lat="42.98643" lon="-0.07054">
        <ele>459</ele>
        <time>2021-10-09T02:40:11</time>
      </trkpt>
      <trkpt lat="42.98648" lon="-0.07053">
        <ele>459.2</ele>
        <time>2021-10-09T02:40:12</time>
      </trkpt>
      <trkpt lat="42.98652" lon="-0.07052">
        <ele>459.2</ele>
        <time>2021-10-09T02:40:13</time>
      </trkpt>
      <trkpt lat="42.98657" lon="-0.07051">
        <ele>459.2</ele>
        <time>2021-10-09T02:40:14</time>
      </trkpt>
      <trkpt lat="42.98661" lon="-0.0705">
        <ele>459.4</ele>
        <time>2021-10-09T02:40:15</time>
      </trkpt>
      <trkpt lat="42.98666" lon="-0.07049">
        <ele>459.4</ele>
        <time>2021-10-09T02:40:16</time>
      </trkpt>
      <trkpt lat="42.98671" lon="-0.07048">
        <ele>459.2</ele>
        <time>2021-10-09T02:40:17</time>
      </trkpt>
      <trkpt lat="42.98675" lon="-0.07047">
        <ele>459</ele>
        <time>2021-10-09T02:40:18</time>
      </trkpt>
      <trkpt lat="42.98679" lon="-0.07046">
        <ele>459</ele>
        <time>2021-10-09T02:40:19</time>
      </trkpt>
      <trkpt lat="42.98684" lon="-0.07045">
        <ele>458.8</ele>
        <time>2021-10-09T02:40:20</time>
      </trkpt>
      <trkpt lat="42.98688" lon="-0.07045">
        <ele>458.8</ele>
        <time>2021-10-09T02:40:21</time>
      </trkpt>
      <trkpt lat="42.98691" lon="-0.07044">
        <ele>458.8</ele>
        <time>2021-10-09T02:40:22</time>
      </trkpt>
      <trkpt lat="42.98695" lon="-0.07044">
        <ele>458.8</ele>
        <time>2021-10-09T02:40:23</time>
      </trkpt>
      <trkpt lat="42.98699" lon="-0.07043">
        <ele>458.8</ele>
        <time>2021-10-09T02:40:24</time>
      </trkpt>
      <trkpt lat="42.98703" lon="-0.07042">
        <ele>458.8</ele>
        <time>2021-10-09T02:40:25</time>
      </trkpt>
      <trkpt lat="42.98707" lon="-0.07041">
        <ele>459</ele>
        <time>2021-10-09T02:40:26</time>
      </trkpt>
      <trkpt lat="42.98711" lon="-0.07041">
        <ele>459</ele>
        <time>2021-10-09T02:40:27</time>
      </trkpt>
      <trkpt lat="42.98716" lon="-0.07041">
        <ele>459.2</ele>
        <time>2021-10-09T02:40:28</time>
      </trkpt>
      <trkpt lat="42.9872" lon="-0.0704">
        <ele>459.2</ele>
        <time>2021-10-09T02:40:29</time>
      </trkpt>
      <trkpt lat="42.98725" lon="-0.0704">
        <ele>459</ele>
        <time>2021-10-09T02:40:30</time>
      </trkpt>
      <trkpt lat="42.98729" lon="-0.0704">
        <ele>459.2</ele>
        <time>2021-10-09T02:40:31</time>
      </trkpt>
      <trkpt lat="42.98734" lon="-0.0704">
        <ele>459.2</ele>
        <time>2021-10-09T02:40:32</time>
      </trkpt>
      <trkpt lat="42.98739" lon="-0.0704">
        <ele>459.2</ele>
        <time>2021-10-09T02:40:33</time>
      </trkpt>
      <trkpt lat="42.98744" lon="-0.0704">
        <ele>459</ele>
        <time>2021-10-09T02:40:34</time>
      </trkpt>
      <trkpt lat="42.98748" lon="-0.07039">
        <ele>458.8</ele>
        <time>2021-10-09T02:40:35</time>
      </trkpt>
      <trkpt lat="42.98752" lon="-0.07039">
        <ele>458.8</ele>
        <time>2021-10-09T02:40:36</time>
      </trkpt>
      <trkpt lat="42.98757" lon="-0.07038">
        <ele>458.8</ele>
        <time>2021-10-09T02:40:37</time>
      </trkpt>
      <trkpt lat="42.98762" lon="-0.07038">
        <ele>458.8</ele>
        <time>2021-10-09T02:40:38</time>
      </trkpt>
      <trkpt lat="42.98766" lon="-0.07038">
        <ele>458.8</ele>
        <time>2021-10-09T02:40:39</time>
      </trkpt>
      <trkpt lat="42.98771" lon="-0.07037">
        <ele>458.8</ele>
        <time>2021-10-09T02:40:40</time>
      </trkpt>
      <trkpt lat="42.98776" lon="-0.07037">
        <ele>458.8</ele>
        <time>2021-10-09T02:40:41</time>
      </trkpt>
      <trkpt lat="42.9878" lon="-0.07036">
        <ele>458.8</ele>
        <time>2021-10-09T02:40:42</time>
      </trkpt>
      <trkpt lat="42.98785" lon="-0.07035">
        <ele>459</ele>
        <time>2021-10-09T02:40:43</time>
      </trkpt>
      <trkpt lat="42.9879" lon="-0.07035">
        <ele>458.8</ele>
        <time>2021-10-09T02:40:44</time>
      </trkpt>
      <trkpt lat="42.98794" lon="-0.07034">
        <ele>458.6</ele>
        <time>2021-10-09T02:40:45</time>
      </trkpt>
      <trkpt lat="42.98799" lon="-0.07034">
        <ele>458.4</ele>
        <time>2021-10-09T02:40:46</time>
      </trkpt>
      <trkpt lat="42.98804" lon="-0.07033">
        <ele>458.4</ele>
        <time>2021-10-09T02:40:47</time>
      </trkpt>
      <trkpt lat="42.98809" lon="-0.07033">
        <ele>458.4</ele>
        <time>2021-10-09T02:40:48</time>
      </trkpt>
      <trkpt lat="42.98814" lon="-0.07033">
        <ele>458.2</ele>
        <time>2021-10-09T02:40:49</time>
      </trkpt>
      <trkpt lat="42.98819" lon="-0.07033">
        <ele>458.2</ele>
        <time>2021-10-09T02:40:50</time>
      </trkpt>
      <trkpt lat="42.98825" lon="-0.07033">
        <ele>458.2</ele>
        <time>2021-10-09T02:40:51</time>
      </trkpt>
      <trkpt lat="42.9883" lon="-0.07033">
        <ele>458.2</ele>
        <time>2021-10-09T02:40:52</time>
      </trkpt>
      <trkpt lat="42.98836" lon="-0.07034">
        <ele>458.2</ele>
        <time>2021-10-09T02:40:53</time>
      </trkpt>
      <trkpt lat="42.98842" lon="-0.07034">
        <ele>458</ele>
        <time>2021-10-09T02:40:54</time>
      </trkpt>
      <trkpt lat="42.98848" lon="-0.07035">
        <ele>458</ele>
        <time>2021-10-09T02:40:55</time>
      </trkpt>
      <trkpt lat="42.98855" lon="-0.07036">
        <ele>457.6</ele>
        <time>2021-10-09T02:40:56</time>
      </trkpt>
      <trkpt lat="42.98861" lon="-0.07037">
        <ele>457.6</ele>
        <time>2021-10-09T02:40:57</time>
      </trkpt>
      <trkpt lat="42.98867" lon="-0.07038">
        <ele>457.6</ele>
        <time>2021-10-09T02:40:58</time>
      </trkpt>
      <trkpt lat="42.98873" lon="-0.07039">
        <ele>457.6</ele>
        <time>2021-10-09T02:40:59</time>
      </trkpt>
      <trkpt lat="42.98879" lon="-0.07039">
        <ele>457.6</ele>
        <time>2021-10-09T02:41:00</time>
      </trkpt>
      <trkpt lat="42.98885" lon="-0.0704">
        <ele>457.4</ele>
        <time>2021-10-09T02:41:01</time>
      </trkpt>
      <trkpt lat="42.98891" lon="-0.07042">
        <ele>457.2</ele>
        <time>2021-10-09T02:41:02</time>
      </trkpt>
      <trkpt lat="42.98896" lon="-0.07043">
        <ele>457.2</ele>
        <time>2021-10-09T02:41:03</time>
      </trkpt>
      <trkpt lat="42.98901" lon="-0.07043">
        <ele>457</ele>
        <time>2021-10-09T02:41:04</time>
      </trkpt>
      <trkpt lat="42.98905" lon="-0.07044">
        <ele>457</ele>
        <time>2021-10-09T02:41:05</time>
      </trkpt>
      <trkpt lat="42.9891" lon="-0.07045">
        <ele>456.8</ele>
        <time>2021-10-09T02:41:06</time>
      </trkpt>
      <trkpt lat="42.98914" lon="-0.07045">
        <ele>456.8</ele>
        <time>2021-10-09T02:41:07</time>
      </trkpt>
      <trkpt lat="42.98918" lon="-0.07046">
        <ele>456.6</ele>
        <time>2021-10-09T02:41:08</time>
      </trkpt>
      <trkpt lat="42.98922" lon="-0.07047">
        <ele>456.6</ele>
        <time>2021-10-09T02:41:09</time>
      </trkpt>
      <trkpt lat="42.98926" lon="-0.07048">
        <ele>456.6</ele>
        <time>2021-10-09T02:41:10</time>
      </trkpt>
      <trkpt lat="42.9893" lon="-0.0705">
        <ele>456.8</ele>
        <time>2021-10-09T02:41:11</time>
      </trkpt>
      <trkpt lat="42.98935" lon="-0.07052">
        <ele>456.6</ele>
        <time>2021-10-09T02:41:12</time>
      </trkpt>
      <trkpt lat="42.98939" lon="-0.07053">
        <ele>456.8</ele>
        <time>2021-10-09T02:41:13</time>
      </trkpt>
      <trkpt lat="42.98944" lon="-0.07055">
        <ele>457.2</ele>
        <time>2021-10-09T02:41:14</time>
      </trkpt>
      <trkpt lat="42.98948" lon="-0.07057">
        <ele>457.4</ele>
        <time>2021-10-09T02:41:15</time>
      </trkpt>
      <trkpt lat="42.98953" lon="-0.07059">
        <ele>457.2</ele>
        <time>2021-10-09T02:41:16</time>
      </trkpt>
      <trkpt lat="42.98957" lon="-0.07061">
        <ele>457.8</ele>
        <time>2021-10-09T02:41:17</time>
      </trkpt>
      <trkpt lat="42.98961" lon="-0.07064">
        <ele>457.2</ele>
        <time>2021-10-09T02:41:18</time>
      </trkpt>
      <trkpt lat="42.98966" lon="-0.07066">
        <ele>457.6</ele>
        <time>2021-10-09T02:41:19</time>
      </trkpt>
      <trkpt lat="42.9897" lon="-0.07067">
        <ele>457.4</ele>
        <time>2021-10-09T02:41:20</time>
      </trkpt>
      <trkpt lat="42.98975" lon="-0.07069">
        <ele>457.2</ele>
        <time>2021-10-09T02:41:21</time>
      </trkpt>
      <trkpt lat="42.9898" lon="-0.07071">
        <ele>457.2</ele>
        <time>2021-10-09T02:41:22</time>
      </trkpt>
      <trkpt lat="42.98984" lon="-0.07073">
        <ele>457</ele>
        <time>2021-10-09T02:41:23</time>
      </trkpt>
      <trkpt lat="42.98989" lon="-0.07076">
        <ele>457</ele>
        <time>2021-10-09T02:41:24</time>
      </trkpt>
      <trkpt lat="42.98994" lon="-0.07078">
        <ele>457</ele>
        <time>2021-10-09T02:41:25</time>
      </trkpt>
      <trkpt lat="42.98999" lon="-0.0708">
        <ele>457</ele>
        <time>2021-10-09T02:41:26</time>
      </trkpt>
      <trkpt lat="42.99003" lon="-0.07082">
        <ele>457</ele>
        <time>2021-10-09T02:41:27</time>
      </trkpt>
      <trkpt lat="42.99006" lon="-0.07084">
        <ele>456.8</ele>
        <time>2021-10-09T02:41:28</time>
      </trkpt>
      <trkpt lat="42.9901" lon="-0.07086">
        <ele>456.8</ele>
        <time>2021-10-09T02:41:29</time>
      </trkpt>
      <trkpt lat="42.99013" lon="-0.07088">
        <ele>457</ele>
        <time>2021-10-09T02:41:30</time>
      </trkpt>
      <trkpt lat="42.99016" lon="-0.0709">
        <ele>457.2</ele>
        <time>2021-10-09T02:41:31</time>
      </trkpt>
      <trkpt lat="42.9902" lon="-0.07092">
        <ele>457.4</ele>
        <time>2021-10-09T02:41:32</time>
      </trkpt>
      <trkpt lat="42.99023" lon="-0.07094">
        <ele>457.8</ele>
        <time>2021-10-09T02:41:33</time>
      </trkpt>
      <trkpt lat="42.99026" lon="-0.07096">
        <ele>458</ele>
        <time>2021-10-09T02:41:34</time>
      </trkpt>
      <trkpt lat="42.9903" lon="-0.07097">
        <ele>458</ele>
        <time>2021-10-09T02:41:35</time>
      </trkpt>
      <trkpt lat="42.99033" lon="-0.07099">
        <ele>457.8</ele>
        <time>2021-10-09T02:41:36</time>
      </trkpt>
      <trkpt lat="42.99036" lon="-0.071">
        <ele>457.8</ele>
        <time>2021-10-09T02:41:37</time>
      </trkpt>
      <trkpt lat="42.99039" lon="-0.07102">
        <ele>458</ele>
        <time>2021-10-09T02:41:38</time>
      </trkpt>
      <trkpt lat="42.99042" lon="-0.07104">
        <ele>458</ele>
        <time>2021-10-09T02:41:39</time>
      </trkpt>
      <trkpt lat="42.99045" lon="-0.07105">
        <ele>458</ele>
        <time>2021-10-09T02:41:40</time>
      </trkpt>
      <trkpt lat="42.99047" lon="-0.07107">
        <ele>458</ele>
        <time>2021-10-09T02:41:41</time>
      </trkpt>
      <trkpt lat="42.9905" lon="-0.07109">
        <ele>458</ele>
        <time>2021-10-09T02:41:42</time>
      </trkpt>
      <trkpt lat="42.99053" lon="-0.07111">
        <ele>458</ele>
        <time>2021-10-09T02:41:43</time>
      </trkpt>
      <trkpt lat="42.99055" lon="-0.07113">
        <ele>458.2</ele>
        <time>2021-10-09T02:41:44</time>
      </trkpt>
      <trkpt lat="42.99058" lon="-0.07115">
        <ele>458.2</ele>
        <time>2021-10-09T02:41:45</time>
      </trkpt>
      <trkpt lat="42.9906" lon="-0.07117">
        <ele>458.4</ele>
        <time>2021-10-09T02:41:46</time>
      </trkpt>
      <trkpt lat="42.99063" lon="-0.07118">
        <ele>458.4</ele>
        <time>2021-10-09T02:41:47</time>
      </trkpt>
      <trkpt lat="42.99065" lon="-0.0712">
        <ele>458.4</ele>
        <time>2021-10-09T02:41:48</time>
      </trkpt>
      <trkpt lat="42.99067" lon="-0.07121">
        <ele>458.4</ele>
        <time>2021-10-09T02:41:49</time>
      </trkpt>
      <trkpt lat="42.99069" lon="-0.07123">
        <ele>458.4</ele>
        <time>2021-10-09T02:41:50</time>
      </trkpt>
      <trkpt lat="42.99071" lon="-0.07124">
        <ele>458.6</ele>
        <time>2021-10-09T02:41:51</time>
      </trkpt>
      <trkpt lat="42.99073" lon="-0.07126">
        <ele>458.8</ele>
        <time>2021-10-09T02:41:52</time>
      </trkpt>
      <trkpt lat="42.99075" lon="-0.07127">
        <ele>458.8</ele>
        <time>2021-10-09T02:41:53</time>
      </trkpt>
      <trkpt lat="42.99077" lon="-0.07128">
        <ele>459</ele>
        <time>2021-10-09T02:41:54</time>
      </trkpt>
      <trkpt lat="42.99079" lon="-0.07129">
        <ele>459.2</ele>
        <time>2021-10-09T02:41:55</time>
      </trkpt>
      <trkpt lat="42.99081" lon="-0.07131">
        <ele>459.2</ele>
        <time>2021-10-09T02:41:56</time>
      </trkpt>
      <trkpt lat="42.99083" lon="-0.07132">
        <ele>459.4</ele>
        <time>2021-10-09T02:41:57</time>
      </trkpt>
      <trkpt lat="42.99085" lon="-0.07133">
        <ele>459.6</ele>
        <time>2021-10-09T02:41:58</time>
      </trkpt>
      <trkpt lat="42.99087" lon="-0.07134">
        <ele>459.8</ele>
        <time>2021-10-09T02:41:59</time>
      </trkpt>
      <trkpt lat="42.9909" lon="-0.07135">
        <ele>459.8</ele>
        <time>2021-10-09T02:42:00</time>
      </trkpt>
      <trkpt lat="42.99092" lon="-0.07136">
        <ele>460</ele>
        <time>2021-10-09T02:42:01</time>
      </trkpt>
      <trkpt lat="42.99095" lon="-0.07137">
        <ele>460.2</ele>
        <time>2021-10-09T02:42:02</time>
      </trkpt>
      <trkpt lat="42.99097" lon="-0.07138">
        <ele>460.4</ele>
        <time>2021-10-09T02:42:03</time>
      </trkpt>
      <trkpt lat="42.991" lon="-0.07139">
        <ele>460.4</ele>
        <time>2021-10-09T02:42:04</time>
      </trkpt>
      <trkpt lat="42.99102" lon="-0.07141">
        <ele>460.6</ele>
        <time>2021-10-09T02:42:05</time>
      </trkpt>
      <trkpt lat="42.99104" lon="-0.07141">
        <ele>460.8</ele>
        <time>2021-10-09T02:42:06</time>
      </trkpt>
      <trkpt lat="42.99107" lon="-0.07142">
        <ele>461</ele>
        <time>2021-10-09T02:42:07</time>
      </trkpt>
      <trkpt lat="42.99109" lon="-0.07143">
        <ele>461</ele>
        <time>2021-10-09T02:42:08</time>
      </trkpt>
      <trkpt lat="42.99112" lon="-0.07144">
        <ele>461.2</ele>
        <time>2021-10-09T02:42:09</time>
      </trkpt>
      <trkpt lat="42.99114" lon="-0.07145">
        <ele>461.4</ele>
        <time>2021-10-09T02:42:10</time>
      </trkpt>
      <trkpt lat="42.99117" lon="-0.07146">
        <ele>461.6</ele>
        <time>2021-10-09T02:42:11</time>
      </trkpt>
      <trkpt lat="42.99119" lon="-0.07147">
        <ele>461.6</ele>
        <time>2021-10-09T02:42:12</time>
      </trkpt>
      <trkpt lat="42.99122" lon="-0.07147">
        <ele>461.8</ele>
        <time>2021-10-09T02:42:13</time>
      </trkpt>
      <trkpt lat="42.99124" lon="-0.07148">
        <ele>462</ele>
        <time>2021-10-09T02:42:14</time>
      </trkpt>
      <trkpt lat="42.99127" lon="-0.07148">
        <ele>462</ele>
        <time>2021-10-09T02:42:15</time>
      </trkpt>
      <trkpt lat="42.99129" lon="-0.07149">
        <ele>462.2</ele>
        <time>2021-10-09T02:42:16</time>
      </trkpt>
      <trkpt lat="42.99132" lon="-0.0715">
        <ele>462.2</ele>
        <time>2021-10-09T02:42:17</time>
      </trkpt>
      <trkpt lat="42.99135" lon="-0.07151">
        <ele>462.4</ele>
        <time>2021-10-09T02:42:18</time>
      </trkpt>
      <trkpt lat="42.99137" lon="-0.07151">
        <ele>462.6</ele>
        <time>2021-10-09T02:42:19</time>
      </trkpt>
      <trkpt lat="42.99139" lon="-0.07152">
        <ele>462.8</ele>
        <time>2021-10-09T02:42:20</time>
      </trkpt>
      <trkpt lat="42.99142" lon="-0.07153">
        <ele>462.8</ele>
        <time>2021-10-09T02:42:21</time>
      </trkpt>
      <trkpt lat="42.99145" lon="-0.07154">
        <ele>463</ele>
        <time>2021-10-09T02:42:22</time>
      </trkpt>
      <trkpt lat="42.99147" lon="-0.07155">
        <ele>463.2</ele>
        <time>2021-10-09T02:42:23</time>
      </trkpt>
      <trkpt lat="42.9915" lon="-0.07155">
        <ele>463.4</ele>
        <time>2021-10-09T02:42:24</time>
      </trkpt>
      <trkpt lat="42.99152" lon="-0.07156">
        <ele>463.4</ele>
        <time>2021-10-09T02:42:25</time>
      </trkpt>
      <trkpt lat="42.99155" lon="-0.07156">
        <ele>463.6</ele>
        <time>2021-10-09T02:42:26</time>
      </trkpt>
      <trkpt lat="42.99158" lon="-0.07157">
        <ele>463.6</ele>
        <time>2021-10-09T02:42:27</time>
      </trkpt>
      <trkpt lat="42.9916" lon="-0.07158">
        <ele>463.8</ele>
        <time>2021-10-09T02:42:28</time>
      </trkpt>
      <trkpt lat="42.99163" lon="-0.07159">
        <ele>464</ele>
        <time>2021-10-09T02:42:29</time>
      </trkpt>
      <trkpt lat="42.99166" lon="-0.07159">
        <ele>464.2</ele>
        <time>2021-10-09T02:42:30</time>
      </trkpt>
      <trkpt lat="42.99168" lon="-0.0716">
        <ele>464.2</ele>
        <time>2021-10-09T02:42:31</time>
      </trkpt>
      <trkpt lat="42.99171" lon="-0.0716">
        <ele>464.4</ele>
        <time>2021-10-09T02:42:32</time>
      </trkpt>
      <trkpt lat="42.99174" lon="-0.0716">
        <ele>464.6</ele>
        <time>2021-10-09T02:42:33</time>
      </trkpt>
      <trkpt lat="42.99177" lon="-0.07161">
        <ele>464.8</ele>
        <time>2021-10-09T02:42:34</time>
      </trkpt>
      <trkpt lat="42.99179" lon="-0.07161">
        <ele>464.8</ele>
        <time>2021-10-09T02:42:35</time>
      </trkpt>
      <trkpt lat="42.99182" lon="-0.07162">
        <ele>464.8</ele>
        <time>2021-10-09T02:42:36</time>
      </trkpt>
      <trkpt lat="42.99185" lon="-0.07162">
        <ele>465</ele>
        <time>2021-10-09T02:42:37</time>
      </trkpt>
      <trkpt lat="42.99188" lon="-0.07162">
        <ele>465.2</ele>
        <time>2021-10-09T02:42:38</time>
      </trkpt>
      <trkpt lat="42.99191" lon="-0.07163">
        <ele>465.4</ele>
        <time>2021-10-09T02:42:39</time>
      </trkpt>
      <trkpt lat="42.99194" lon="-0.07163">
        <ele>465.4</ele>
        <time>2021-10-09T02:42:40</time>
      </trkpt>
      <trkpt lat="42.99197" lon="-0.07163">
        <ele>465.6</ele>
        <time>2021-10-09T02:42:41</time>
      </trkpt>
      <trkpt lat="42.99201" lon="-0.07163">
        <ele>465.6</ele>
        <time>2021-10-09T02:42:42</time>
      </trkpt>
      <trkpt lat="42.99204" lon="-0.07163">
        <ele>465.8</ele>
        <time>2021-10-09T02:42:43</time>
      </trkpt>
      <trkpt lat="42.99207" lon="-0.07163">
        <ele>465.8</ele>
        <time>2021-10-09T02:42:44</time>
      </trkpt>
      <trkpt lat="42.9921" lon="-0.07163">
        <ele>465.8</ele>
        <time>2021-10-09T02:42:45</time>
      </trkpt>
      <trkpt lat="42.99213" lon="-0.07163">
        <ele>466</ele>
        <time>2021-10-09T02:42:46</time>
      </trkpt>
      <trkpt lat="42.99216" lon="-0.07163">
        <ele>466.2</ele>
        <time>2021-10-09T02:42:47</time>
      </trkpt>
      <trkpt lat="42.99219" lon="-0.07163">
        <ele>466.4</ele>
        <time>2021-10-09T02:42:48</time>
      </trkpt>
      <trkpt lat="42.99223" lon="-0.07163">
        <ele>466.6</ele>
        <time>2021-10-09T02:42:49</time>
      </trkpt>
      <trkpt lat="42.99226" lon="-0.07163">
        <ele>466.8</ele>
        <time>2021-10-09T02:42:50</time>
      </trkpt>
      <trkpt lat="42.99229" lon="-0.07163">
        <ele>466.8</ele>
        <time>2021-10-09T02:42:51</time>
      </trkpt>
      <trkpt lat="42.99232" lon="-0.07162">
        <ele>467</ele>
        <time>2021-10-09T02:42:52</time>
      </trkpt>
      <trkpt lat="42.99235" lon="-0.07162">
        <ele>467.4</ele>
        <time>2021-10-09T02:42:53</time>
      </trkpt>
      <trkpt lat="42.99239" lon="-0.07162">
        <ele>467.4</ele>
        <time>2021-10-09T02:42:54</time>
      </trkpt>
      <trkpt lat="42.99242" lon="-0.07162">
        <ele>467.6</ele>
        <time>2021-10-09T02:42:55</time>
      </trkpt>
      <trkpt lat="42.99245" lon="-0.07162">
        <ele>467.8</ele>
        <time>2021-10-09T02:42:56</time>
      </trkpt>
      <trkpt lat="42.99248" lon="-0.07162">
        <ele>468</ele>
        <time>2021-10-09T02:42:57</time>
      </trkpt>
      <trkpt lat="42.99252" lon="-0.07162">
        <ele>468.2</ele>
        <time>2021-10-09T02:42:58</time>
      </trkpt>
      <trkpt lat="42.99255" lon="-0.07162">
        <ele>468.4</ele>
        <time>2021-10-09T02:42:59</time>
      </trkpt>
      <trkpt lat="42.99258" lon="-0.07162">
        <ele>468.6</ele>
        <time>2021-10-09T02:43:00</time>
      </trkpt>
      <trkpt lat="42.99261" lon="-0.07162">
        <ele>468.8</ele>
        <time>2021-10-09T02:43:01</time>
      </trkpt>
      <trkpt lat="42.99264" lon="-0.07162">
        <ele>469</ele>
        <time>2021-10-09T02:43:02</time>
      </trkpt>
      <trkpt lat="42.99268" lon="-0.07162">
        <ele>469.2</ele>
        <time>2021-10-09T02:43:03</time>
      </trkpt>
      <trkpt lat="42.99271" lon="-0.07162">
        <ele>469.4</ele>
        <time>2021-10-09T02:43:04</time>
      </trkpt>
      <trkpt lat="42.99274" lon="-0.07161">
        <ele>469.8</ele>
        <time>2021-10-09T02:43:05</time>
      </trkpt>
      <trkpt lat="42.99277" lon="-0.0716">
        <ele>470</ele>
        <time>2021-10-09T02:43:06</time>
      </trkpt>
      <trkpt lat="42.99279" lon="-0.07158">
        <ele>470.4</ele>
        <time>2021-10-09T02:43:07</time>
      </trkpt>
      <trkpt lat="42.99281" lon="-0.07157">
        <ele>470.6</ele>
        <time>2021-10-09T02:43:08</time>
      </trkpt>
      <trkpt lat="42.99283" lon="-0.07155">
        <ele>470.8</ele>
        <time>2021-10-09T02:43:09</time>
      </trkpt>
      <trkpt lat="42.99284" lon="-0.07153">
        <ele>471</ele>
        <time>2021-10-09T02:43:10</time>
      </trkpt>
      <trkpt lat="42.99286" lon="-0.07153">
        <ele>471</ele>
        <time>2021-10-09T02:43:11</time>
      </trkpt>
      <trkpt lat="42.99287" lon="-0.07153">
        <ele>471.2</ele>
        <time>2021-10-09T02:43:12</time>
      </trkpt>
      <trkpt lat="42.99288" lon="-0.07153">
        <ele>471.2</ele>
        <time>2021-10-09T02:43:13</time>
      </trkpt>
      <trkpt lat="42.9929" lon="-0.07155">
        <ele>471.2</ele>
        <time>2021-10-09T02:43:14</time>
      </trkpt>
      <trkpt lat="42.99291" lon="-0.07156">
        <ele>471.2</ele>
        <time>2021-10-09T02:43:15</time>
      </trkpt>
      <trkpt lat="42.99291" lon="-0.07158">
        <ele>471.2</ele>
        <time>2021-10-09T02:43:16</time>
      </trkpt>
      <trkpt lat="42.99293" lon="-0.0716">
        <ele>471.2</ele>
        <time>2021-10-09T02:43:17</time>
      </trkpt>
      <trkpt lat="42.99294" lon="-0.07162">
        <ele>471.2</ele>
        <time>2021-10-09T02:43:18</time>
      </trkpt>
      <trkpt lat="42.99295" lon="-0.07165">
        <ele>471</ele>
        <time>2021-10-09T02:43:19</time>
      </trkpt>
      <trkpt lat="42.99295" lon="-0.07169">
        <ele>470.8</ele>
        <time>2021-10-09T02:43:20</time>
      </trkpt>
      <trkpt lat="42.99296" lon="-0.07173">
        <ele>470.6</ele>
        <time>2021-10-09T02:43:21</time>
      </trkpt>
      <trkpt lat="42.99296" lon="-0.07178">
        <ele>470.4</ele>
        <time>2021-10-09T02:43:22</time>
      </trkpt>
      <trkpt lat="42.99295" lon="-0.07184">
        <ele>470</ele>
        <time>2021-10-09T02:43:23</time>
      </trkpt>
      <trkpt lat="42.99295" lon="-0.07189">
        <ele>470</ele>
        <time>2021-10-09T02:43:24</time>
      </trkpt>
      <trkpt lat="42.99294" lon="-0.07196">
        <ele>469.4</ele>
        <time>2021-10-09T02:43:25</time>
      </trkpt>
      <trkpt lat="42.99293" lon="-0.07204">
        <ele>469.2</ele>
        <time>2021-10-09T02:43:26</time>
      </trkpt>
      <trkpt lat="42.99293" lon="-0.07212">
        <ele>468.8</ele>
        <time>2021-10-09T02:43:27</time>
      </trkpt>
      <trkpt lat="42.99292" lon="-0.0722">
        <ele>468.8</ele>
        <time>2021-10-09T02:43:28</time>
      </trkpt>
      <trkpt lat="42.99291" lon="-0.07229">
        <ele>468.2</ele>
        <time>2021-10-09T02:43:29</time>
      </trkpt>
      <trkpt lat="42.9929" lon="-0.07237">
        <ele>467.8</ele>
        <time>2021-10-09T02:43:30</time>
      </trkpt>
      <trkpt lat="42.9929" lon="-0.07246">
        <ele>467.6</ele>
        <time>2021-10-09T02:43:31</time>
      </trkpt>
      <trkpt lat="42.99289" lon="-0.07254">
        <ele>467.4</ele>
        <time>2021-10-09T02:43:32</time>
      </trkpt>
      <trkpt lat="42.99287" lon="-0.07263">
        <ele>466.8</ele>
        <time>2021-10-09T02:43:33</time>
      </trkpt>
      <trkpt lat="42.99285" lon="-0.07271">
        <ele>466.8</ele>
        <time>2021-10-09T02:43:34</time>
      </trkpt>
      <trkpt lat="42.99282" lon="-0.07278">
        <ele>466.4</ele>
        <time>2021-10-09T02:43:35</time>
      </trkpt>
      <trkpt lat="42.99278" lon="-0.07285">
        <ele>466.2</ele>
        <time>2021-10-09T02:43:36</time>
      </trkpt>
      <trkpt lat="42.99274" lon="-0.07292">
        <ele>466</ele>
        <time>2021-10-09T02:43:37</time>
      </trkpt>
      <trkpt lat="42.9927" lon="-0.07298">
        <ele>465.6</ele>
        <time>2021-10-09T02:43:38</time>
      </trkpt>
      <trkpt lat="42.99266" lon="-0.07306">
        <ele>465.2</ele>
        <time>2021-10-09T02:43:39</time>
      </trkpt>
      <trkpt lat="42.99264" lon="-0.07314">
        <ele>464.2</ele>
        <time>2021-10-09T02:43:40</time>
      </trkpt>
      <trkpt lat="42.99261" lon="-0.07323">
        <ele>463.8</ele>
        <time>2021-10-09T02:43:41</time>
      </trkpt>
      <trkpt lat="42.99259" lon="-0.07332">
        <ele>463.4</ele>
        <time>2021-10-09T02:43:42</time>
      </trkpt>
      <trkpt lat="42.99257" lon="-0.0734">
        <ele>463</ele>
        <time>2021-10-09T02:43:43</time>
      </trkpt>
      <trkpt lat="42.99255" lon="-0.07347">
        <ele>463</ele>
        <time>2021-10-09T02:43:44</time>
      </trkpt>
      <trkpt lat="42.99254" lon="-0.07355">
        <ele>462.8</ele>
        <time>2021-10-09T02:43:45</time>
      </trkpt>
      <trkpt lat="42.99253" lon="-0.07363">
        <ele>462.8</ele>
        <time>2021-10-09T02:43:46</time>
      </trkpt>
      <trkpt lat="42.99255" lon="-0.0737">
        <ele>462.2</ele>
        <time>2021-10-09T02:43:47</time>
      </trkpt>
      <trkpt lat="42.99258" lon="-0.07377">
        <ele>461.6</ele>
        <time>2021-10-09T02:43:48</time>
      </trkpt>
      <trkpt lat="42.99262" lon="-0.07382">
        <ele>461.4</ele>
        <time>2021-10-09T02:43:49</time>
      </trkpt>
      <trkpt lat="42.99268" lon="-0.07386">
        <ele>460.8</ele>
        <time>2021-10-09T02:43:50</time>
      </trkpt>
      <trkpt lat="42.99273" lon="-0.0739">
        <ele>460.4</ele>
        <time>2021-10-09T02:43:51</time>
      </trkpt>
      <trkpt lat="42.99278" lon="-0.07394">
        <ele>460.4</ele>
        <time>2021-10-09T02:43:52</time>
      </trkpt>
      <trkpt lat="42.99282" lon="-0.07399">
        <ele>460.4</ele>
        <time>2021-10-09T02:43:53</time>
      </trkpt>
      <trkpt lat="42.99286" lon="-0.07405">
        <ele>460</ele>
        <time>2021-10-09T02:43:54</time>
      </trkpt>
      <trkpt lat="42.99289" lon="-0.07412">
        <ele>459.4</ele>
        <time>2021-10-09T02:43:55</time>
      </trkpt>
      <trkpt lat="42.99291" lon="-0.07419">
        <ele>459.2</ele>
        <time>2021-10-09T02:43:56</time>
      </trkpt>
      <trkpt lat="42.99293" lon="-0.07427">
        <ele>459</ele>
        <time>2021-10-09T02:43:57</time>
      </trkpt>
      <trkpt lat="42.99294" lon="-0.07435">
        <ele>458.8</ele>
        <time>2021-10-09T02:43:58</time>
      </trkpt>
      <trkpt lat="42.99296" lon="-0.07444">
        <ele>458</ele>
        <time>2021-10-09T02:43:59</time>
      </trkpt>
      <trkpt lat="42.99298" lon="-0.07452">
        <ele>458</ele>
        <time>2021-10-09T02:44:00</time>
      </trkpt>
      <trkpt lat="42.993" lon="-0.07461">
        <ele>457.2</ele>
        <time>2021-10-09T02:44:01</time>
      </trkpt>
      <trkpt lat="42.99302" lon="-0.0747">
        <ele>456.4</ele>
        <time>2021-10-09T02:44:02</time>
      </trkpt>
      <trkpt lat="42.99305" lon="-0.07477">
        <ele>457</ele>
        <time>2021-10-09T02:44:03</time>
      </trkpt>
      <trkpt lat="42.99307" lon="-0.07485">
        <ele>456.4</ele>
        <time>2021-10-09T02:44:04</time>
      </trkpt>
      <trkpt lat="42.9931" lon="-0.07493">
        <ele>456</ele>
        <time>2021-10-09T02:44:05</time>
      </trkpt>
      <trkpt lat="42.99313" lon="-0.075">
        <ele>456</ele>
        <time>2021-10-09T02:44:06</time>
      </trkpt>
      <trkpt lat="42.99316" lon="-0.07507">
        <ele>455.4</ele>
        <time>2021-10-09T02:44:07</time>
      </trkpt>
      <trkpt lat="42.99319" lon="-0.07514">
        <ele>455.2</ele>
        <time>2021-10-09T02:44:08</time>
      </trkpt>
      <trkpt lat="42.99323" lon="-0.07522">
        <ele>455</ele>
        <time>2021-10-09T02:44:09</time>
      </trkpt>
      <trkpt lat="42.99327" lon="-0.0753">
        <ele>454.2</ele>
        <time>2021-10-09T02:44:10</time>
      </trkpt>
      <trkpt lat="42.99331" lon="-0.07537">
        <ele>453.8</ele>
        <time>2021-10-09T02:44:11</time>
      </trkpt>
      <trkpt lat="42.99335" lon="-0.07544">
        <ele>453.6</ele>
        <time>2021-10-09T02:44:12</time>
      </trkpt>
      <trkpt lat="42.9934" lon="-0.07552">
        <ele>453.2</ele>
        <time>2021-10-09T02:44:13</time>
      </trkpt>
      <trkpt lat="42.99345" lon="-0.07559">
        <ele>452.8</ele>
        <time>2021-10-09T02:44:14</time>
      </trkpt>
      <trkpt lat="42.99351" lon="-0.07566">
        <ele>452.4</ele>
        <time>2021-10-09T02:44:15</time>
      </trkpt>
      <trkpt lat="42.99356" lon="-0.07573">
        <ele>451.8</ele>
        <time>2021-10-09T02:44:16</time>
      </trkpt>
      <trkpt lat="42.99362" lon="-0.07579">
        <ele>451.4</ele>
        <time>2021-10-09T02:44:17</time>
      </trkpt>
      <trkpt lat="42.99367" lon="-0.07586">
        <ele>451.4</ele>
        <time>2021-10-09T02:44:18</time>
      </trkpt>
      <trkpt lat="42.99371" lon="-0.07592">
        <ele>450.8</ele>
        <time>2021-10-09T02:44:19</time>
      </trkpt>
      <trkpt lat="42.99375" lon="-0.07597">
        <ele>451</ele>
        <time>2021-10-09T02:44:20</time>
      </trkpt>
      <trkpt lat="42.99377" lon="-0.07601">
        <ele>450.6</ele>
        <time>2021-10-09T02:44:21</time>
      </trkpt>
      <trkpt lat="42.99378" lon="-0.07605">
        <ele>450.2</ele>
        <time>2021-10-09T02:44:22</time>
      </trkpt>
      <trkpt lat="42.99379" lon="-0.07609">
        <ele>449.6</ele>
        <time>2021-10-09T02:44:23</time>
      </trkpt>
      <trkpt lat="42.9938" lon="-0.07613">
        <ele>449.6</ele>
        <time>2021-10-09T02:44:24</time>
      </trkpt>
      <trkpt lat="42.9938" lon="-0.07616">
        <ele>449.6</ele>
        <time>2021-10-09T02:44:25</time>
      </trkpt>
      <trkpt lat="42.99379" lon="-0.07621">
        <ele>449.4</ele>
        <time>2021-10-09T02:44:26</time>
      </trkpt>
      <trkpt lat="42.99379" lon="-0.07626">
        <ele>449.4</ele>
        <time>2021-10-09T02:44:27</time>
      </trkpt>
      <trkpt lat="42.99378" lon="-0.07632">
        <ele>449.4</ele>
        <time>2021-10-09T02:44:28</time>
      </trkpt>
      <trkpt lat="42.99379" lon="-0.07639">
        <ele>449.4</ele>
        <time>2021-10-09T02:44:29</time>
      </trkpt>
      <trkpt lat="42.9938" lon="-0.07646">
        <ele>449.4</ele>
        <time>2021-10-09T02:44:30</time>
      </trkpt>
      <trkpt lat="42.99383" lon="-0.07651">
        <ele>449.4</ele>
        <time>2021-10-09T02:44:31</time>
      </trkpt>
      <trkpt lat="42.99387" lon="-0.07657">
        <ele>449.4</ele>
        <time>2021-10-09T02:44:32</time>
      </trkpt>
      <trkpt lat="42.99392" lon="-0.0766">
        <ele>449.4</ele>
        <time>2021-10-09T02:44:33</time>
      </trkpt>
      <trkpt lat="42.99396" lon="-0.07664">
        <ele>449.4</ele>
        <time>2021-10-09T02:44:34</time>
      </trkpt>
      <trkpt lat="42.99401" lon="-0.07667">
        <ele>449.4</ele>
        <time>2021-10-09T02:44:35</time>
      </trkpt>
      <trkpt lat="42.99406" lon="-0.0767">
        <ele>449.8</ele>
        <time>2021-10-09T02:44:36</time>
      </trkpt>
      <trkpt lat="42.99411" lon="-0.07673">
        <ele>449.6</ele>
        <time>2021-10-09T02:44:37</time>
      </trkpt>
      <trkpt lat="42.99416" lon="-0.07676">
        <ele>449.2</ele>
        <time>2021-10-09T02:44:38</time>
      </trkpt>
      <trkpt lat="42.99421" lon="-0.07679">
        <ele>449</ele>
        <time>2021-10-09T02:44:39</time>
      </trkpt>
      <trkpt lat="42.99427" lon="-0.07683">
        <ele>449.2</ele>
        <time>2021-10-09T02:44:40</time>
      </trkpt>
      <trkpt lat="42.99432" lon="-0.07687">
        <ele>449</ele>
        <time>2021-10-09T02:44:41</time>
      </trkpt>
      <trkpt lat="42.99437" lon="-0.0769">
        <ele>449.2</ele>
        <time>2021-10-09T02:44:42</time>
      </trkpt>
      <trkpt lat="42.99443" lon="-0.07693">
        <ele>449.2</ele>
        <time>2021-10-09T02:44:43</time>
      </trkpt>
      <trkpt lat="42.99448" lon="-0.07696">
        <ele>449.2</ele>
        <time>2021-10-09T02:44:44</time>
      </trkpt>
      <trkpt lat="42.99454" lon="-0.077">
        <ele>449.8</ele>
        <time>2021-10-09T02:44:45</time>
      </trkpt>
      <trkpt lat="42.9946" lon="-0.07703">
        <ele>449.8</ele>
        <time>2021-10-09T02:44:46</time>
      </trkpt>
      <trkpt lat="42.99466" lon="-0.07706">
        <ele>449.4</ele>
        <time>2021-10-09T02:44:47</time>
      </trkpt>
      <trkpt lat="42.99472" lon="-0.07709">
        <ele>449</ele>
        <time>2021-10-09T02:44:48</time>
      </trkpt>
      <trkpt lat="42.99478" lon="-0.07713">
        <ele>448.8</ele>
        <time>2021-10-09T02:44:49</time>
      </trkpt>
      <trkpt lat="42.99484" lon="-0.07716">
        <ele>448.6</ele>
        <time>2021-10-09T02:44:50</time>
      </trkpt>
      <trkpt lat="42.9949" lon="-0.07719">
        <ele>448.6</ele>
        <time>2021-10-09T02:44:51</time>
      </trkpt>
      <trkpt lat="42.99497" lon="-0.07722">
        <ele>448.8</ele>
        <time>2021-10-09T02:44:52</time>
      </trkpt>
      <trkpt lat="42.99503" lon="-0.07724">
        <ele>448.8</ele>
        <time>2021-10-09T02:44:53</time>
      </trkpt>
      <trkpt lat="42.99509" lon="-0.07727">
        <ele>448.8</ele>
        <time>2021-10-09T02:44:54</time>
      </trkpt>
      <trkpt lat="42.99516" lon="-0.07729">
        <ele>448.4</ele>
        <time>2021-10-09T02:44:55</time>
      </trkpt>
      <trkpt lat="42.99522" lon="-0.07731">
        <ele>448.4</ele>
        <time>2021-10-09T02:44:56</time>
      </trkpt>
      <trkpt lat="42.99528" lon="-0.07733">
        <ele>448.4</ele>
        <time>2021-10-09T02:44:57</time>
      </trkpt>
      <trkpt lat="42.99534" lon="-0.07735">
        <ele>448</ele>
        <time>2021-10-09T02:44:58</time>
      </trkpt>
      <trkpt lat="42.99541" lon="-0.07737">
        <ele>448</ele>
        <time>2021-10-09T02:44:59</time>
      </trkpt>
      <trkpt lat="42.99547" lon="-0.07739">
        <ele>448</ele>
        <time>2021-10-09T02:45:00</time>
      </trkpt>
      <trkpt lat="42.99553" lon="-0.07741">
        <ele>448</ele>
        <time>2021-10-09T02:45:01</time>
      </trkpt>
      <trkpt lat="42.9956" lon="-0.07742">
        <ele>448.6</ele>
        <time>2021-10-09T02:45:02</time>
      </trkpt>
      <trkpt lat="42.99566" lon="-0.07744">
        <ele>448.8</ele>
        <time>2021-10-09T02:45:03</time>
      </trkpt>
      <trkpt lat="42.99573" lon="-0.07745">
        <ele>448.8</ele>
        <time>2021-10-09T02:45:04</time>
      </trkpt>
      <trkpt lat="42.99579" lon="-0.07746">
        <ele>449</ele>
        <time>2021-10-09T02:45:05</time>
      </trkpt>
      <trkpt lat="42.99586" lon="-0.07747">
        <ele>449</ele>
        <time>2021-10-09T02:45:06</time>
      </trkpt>
      <trkpt lat="42.99592" lon="-0.07748">
        <ele>449</ele>
        <time>2021-10-09T02:45:07</time>
      </trkpt>
      <trkpt lat="42.99599" lon="-0.07749">
        <ele>448.8</ele>
        <time>2021-10-09T02:45:08</time>
      </trkpt>
      <trkpt lat="42.99605" lon="-0.0775">
        <ele>448.6</ele>
        <time>2021-10-09T02:45:09</time>
      </trkpt>
      <trkpt lat="42.99612" lon="-0.0775">
        <ele>448.6</ele>
        <time>2021-10-09T02:45:10</time>
      </trkpt>
      <trkpt lat="42.99619" lon="-0.07751">
        <ele>448.8</ele>
        <time>2021-10-09T02:45:11</time>
      </trkpt>
      <trkpt lat="42.99625" lon="-0.07751">
        <ele>449</ele>
        <time>2021-10-09T02:45:12</time>
      </trkpt>
      <trkpt lat="42.99632" lon="-0.07751">
        <ele>449</ele>
        <time>2021-10-09T02:45:13</time>
      </trkpt>
      <trkpt lat="42.99638" lon="-0.07751">
        <ele>448.8</ele>
        <time>2021-10-09T02:45:14</time>
      </trkpt>
      <trkpt lat="42.99644" lon="-0.07751">
        <ele>448.6</ele>
        <time>2021-10-09T02:45:15</time>
      </trkpt>
      <trkpt lat="42.9965" lon="-0.0775">
        <ele>448.8</ele>
        <time>2021-10-09T02:45:16</time>
      </trkpt>
      <trkpt lat="42.99656" lon="-0.0775">
        <ele>449.2</ele>
        <time>2021-10-09T02:45:17</time>
      </trkpt>
      <trkpt lat="42.99663" lon="-0.0775">
        <ele>448.4</ele>
        <time>2021-10-09T02:45:18</time>
      </trkpt>
      <trkpt lat="42.99669" lon="-0.07749">
        <ele>448.4</ele>
        <time>2021-10-09T02:45:19</time>
      </trkpt>
      <trkpt lat="42.99676" lon="-0.07749">
        <ele>448.4</ele>
        <time>2021-10-09T02:45:20</time>
      </trkpt>
      <trkpt lat="42.99682" lon="-0.07748">
        <ele>448</ele>
        <time>2021-10-09T02:45:21</time>
      </trkpt>
      <trkpt lat="42.99688" lon="-0.07748">
        <ele>448</ele>
        <time>2021-10-09T02:45:22</time>
      </trkpt>
      <trkpt lat="42.99695" lon="-0.07747">
        <ele>448</ele>
        <time>2021-10-09T02:45:23</time>
      </trkpt>
      <trkpt lat="42.99701" lon="-0.07747">
        <ele>447.8</ele>
        <time>2021-10-09T02:45:24</time>
      </trkpt>
      <trkpt lat="42.99708" lon="-0.07747">
        <ele>447.8</ele>
        <time>2021-10-09T02:45:25</time>
      </trkpt>
      <trkpt lat="42.99714" lon="-0.07747">
        <ele>448.4</ele>
        <time>2021-10-09T02:45:26</time>
      </trkpt>
      <trkpt lat="42.99721" lon="-0.07747">
        <ele>447.6</ele>
        <time>2021-10-09T02:45:27</time>
      </trkpt>
      <trkpt lat="42.99727" lon="-0.07746">
        <ele>446.8</ele>
        <time>2021-10-09T02:45:28</time>
      </trkpt>
      <trkpt lat="42.99734" lon="-0.07746">
        <ele>446.8</ele>
        <time>2021-10-09T02:45:29</time>
      </trkpt>
      <trkpt lat="42.9974" lon="-0.07746">
        <ele>447</ele>
        <time>2021-10-09T02:45:30</time>
      </trkpt>
      <trkpt lat="42.99747" lon="-0.07745">
        <ele>446.6</ele>
        <time>2021-10-09T02:45:31</time>
      </trkpt>
      <trkpt lat="42.99753" lon="-0.07745">
        <ele>446.2</ele>
        <time>2021-10-09T02:45:32</time>
      </trkpt>
      <trkpt lat="42.9976" lon="-0.07745">
        <ele>446.4</ele>
        <time>2021-10-09T02:45:33</time>
      </trkpt>
      <trkpt lat="42.99766" lon="-0.07744">
        <ele>446.6</ele>
        <time>2021-10-09T02:45:34</time>
      </trkpt>
      <trkpt lat="42.99773" lon="-0.07744">
        <ele>446.6</ele>
        <time>2021-10-09T02:45:35</time>
      </trkpt>
      <trkpt lat="42.99779" lon="-0.07744">
        <ele>446.2</ele>
        <time>2021-10-09T02:45:36</time>
      </trkpt>
      <trkpt lat="42.99786" lon="-0.07744">
        <ele>446</ele>
        <time>2021-10-09T02:45:37</time>
      </trkpt>
      <trkpt lat="42.99793" lon="-0.07744">
        <ele>445.8</ele>
        <time>2021-10-09T02:45:38</time>
      </trkpt>
      <trkpt lat="42.99799" lon="-0.07743">
        <ele>445.8</ele>
        <time>2021-10-09T02:45:39</time>
      </trkpt>
      <trkpt lat="42.99806" lon="-0.07743">
        <ele>446.2</ele>
        <time>2021-10-09T02:45:40</time>
      </trkpt>
      <trkpt lat="42.99812" lon="-0.07743">
        <ele>446</ele>
        <time>2021-10-09T02:45:41</time>
      </trkpt>
      <trkpt lat="42.99819" lon="-0.07742">
        <ele>446</ele>
        <time>2021-10-09T02:45:42</time>
      </trkpt>
      <trkpt lat="42.99826" lon="-0.07742">
        <ele>445.8</ele>
        <time>2021-10-09T02:45:43</time>
      </trkpt>
      <trkpt lat="42.99832" lon="-0.07742">
        <ele>445.8</ele>
        <time>2021-10-09T02:45:44</time>
      </trkpt>
      <trkpt lat="42.99839" lon="-0.07742">
        <ele>445.8</ele>
        <time>2021-10-09T02:45:45</time>
      </trkpt>
      <trkpt lat="42.99846" lon="-0.07742">
        <ele>445.8</ele>
        <time>2021-10-09T02:45:46</time>
      </trkpt>
      <trkpt lat="42.99852" lon="-0.07743">
        <ele>445.8</ele>
        <time>2021-10-09T02:45:47</time>
      </trkpt>
      <trkpt lat="42.99859" lon="-0.07743">
        <ele>445.6</ele>
        <time>2021-10-09T02:45:48</time>
      </trkpt>
      <trkpt lat="42.99865" lon="-0.07743">
        <ele>445.2</ele>
        <time>2021-10-09T02:45:49</time>
      </trkpt>
      <trkpt lat="42.99872" lon="-0.07744">
        <ele>445</ele>
        <time>2021-10-09T02:45:50</time>
      </trkpt>
      <trkpt lat="42.99878" lon="-0.07745">
        <ele>445</ele>
        <time>2021-10-09T02:45:51</time>
      </trkpt>
      <trkpt lat="42.99885" lon="-0.07746">
        <ele>445.2</ele>
        <time>2021-10-09T02:45:52</time>
      </trkpt>
      <trkpt lat="42.99891" lon="-0.07748">
        <ele>445</ele>
        <time>2021-10-09T02:45:53</time>
      </trkpt>
      <trkpt lat="42.99898" lon="-0.07749">
        <ele>444.8</ele>
        <time>2021-10-09T02:45:54</time>
      </trkpt>
      <trkpt lat="42.99904" lon="-0.0775">
        <ele>444.6</ele>
        <time>2021-10-09T02:45:55</time>
      </trkpt>
      <trkpt lat="42.99911" lon="-0.07752">
        <ele>444.2</ele>
        <time>2021-10-09T02:45:56</time>
      </trkpt>
      <trkpt lat="42.99918" lon="-0.07754">
        <ele>444.2</ele>
        <time>2021-10-09T02:45:57</time>
      </trkpt>
      <trkpt lat="42.99924" lon="-0.07756">
        <ele>444.8</ele>
        <time>2021-10-09T02:45:58</time>
      </trkpt>
      <trkpt lat="42.9993" lon="-0.07758">
        <ele>444.6</ele>
        <time>2021-10-09T02:45:59</time>
      </trkpt>
      <trkpt lat="42.99937" lon="-0.0776">
        <ele>444.8</ele>
        <time>2021-10-09T02:46:00</time>
      </trkpt>
      <trkpt lat="42.99943" lon="-0.07762">
        <ele>444.4</ele>
        <time>2021-10-09T02:46:01</time>
      </trkpt>
      <trkpt lat="42.9995" lon="-0.07765">
        <ele>444.6</ele>
        <time>2021-10-09T02:46:02</time>
      </trkpt>
      <trkpt lat="42.99956" lon="-0.07767">
        <ele>444.4</ele>
        <time>2021-10-09T02:46:03</time>
      </trkpt>
      <trkpt lat="42.99962" lon="-0.0777">
        <ele>444.2</ele>
        <time>2021-10-09T02:46:04</time>
      </trkpt>
      <trkpt lat="42.99968" lon="-0.07773">
        <ele>444.4</ele>
        <time>2021-10-09T02:46:05</time>
      </trkpt>
      <trkpt lat="42.99975" lon="-0.07775">
        <ele>444</ele>
        <time>2021-10-09T02:46:06</time>
      </trkpt>
      <trkpt lat="42.99981" lon="-0.07778">
        <ele>444</ele>
        <time>2021-10-09T02:46:07</time>
      </trkpt>
      <trkpt lat="42.99987" lon="-0.07781">
        <ele>443.8</ele>
        <time>2021-10-09T02:46:08</time>
      </trkpt>
      <trkpt lat="42.99993" lon="-0.07783">
        <ele>443.8</ele>
        <time>2021-10-09T02:46:09</time>
      </trkpt>
      <trkpt lat="42.99999" lon="-0.07786">
        <ele>444.2</ele>
        <time>2021-10-09T02:46:10</time>
      </trkpt>
      <trkpt lat="43.00005" lon="-0.0779">
        <ele>444.4</ele>
        <time>2021-10-09T02:46:11</time>
      </trkpt>
      <trkpt lat="43.00011" lon="-0.07792">
        <ele>444.2</ele>
        <time>2021-10-09T02:46:12</time>
      </trkpt>
      <trkpt lat="43.00018" lon="-0.07796">
        <ele>444.2</ele>
        <time>2021-10-09T02:46:13</time>
      </trkpt>
      <trkpt lat="43.00024" lon="-0.07799">
        <ele>444.2</ele>
        <time>2021-10-09T02:46:14</time>
      </trkpt>
      <trkpt lat="43.0003" lon="-0.07802">
        <ele>444</ele>
        <time>2021-10-09T02:46:15</time>
      </trkpt>
      <trkpt lat="43.00036" lon="-0.07805">
        <ele>443.6</ele>
        <time>2021-10-09T02:46:16</time>
      </trkpt>
      <trkpt lat="43.00041" lon="-0.07809">
        <ele>443.6</ele>
        <time>2021-10-09T02:46:17</time>
      </trkpt>
      <trkpt lat="43.00047" lon="-0.07812">
        <ele>443.8</ele>
        <time>2021-10-09T02:46:18</time>
      </trkpt>
      <trkpt lat="43.00053" lon="-0.07815">
        <ele>443.8</ele>
        <time>2021-10-09T02:46:19</time>
      </trkpt>
      <trkpt lat="43.00059" lon="-0.07819">
        <ele>443.6</ele>
        <time>2021-10-09T02:46:20</time>
      </trkpt>
      <trkpt lat="43.00065" lon="-0.07822">
        <ele>443.6</ele>
        <time>2021-10-09T02:46:21</time>
      </trkpt>
      <trkpt lat="43.00071" lon="-0.07826">
        <ele>443.8</ele>
        <time>2021-10-09T02:46:22</time>
      </trkpt>
      <trkpt lat="43.00077" lon="-0.07829">
        <ele>443.4</ele>
        <time>2021-10-09T02:46:23</time>
      </trkpt>
      <trkpt lat="43.00083" lon="-0.07833">
        <ele>443.4</ele>
        <time>2021-10-09T02:46:24</time>
      </trkpt>
      <trkpt lat="43.00089" lon="-0.07837">
        <ele>443.6</ele>
        <time>2021-10-09T02:46:25</time>
      </trkpt>
      <trkpt lat="43.00095" lon="-0.0784">
        <ele>443.4</ele>
        <time>2021-10-09T02:46:26</time>
      </trkpt>
      <trkpt lat="43.00101" lon="-0.07843">
        <ele>443.6</ele>
        <time>2021-10-09T02:46:27</time>
      </trkpt>
      <trkpt lat="43.00107" lon="-0.07846">
        <ele>443.4</ele>
        <time>2021-10-09T02:46:28</time>
      </trkpt>
      <trkpt lat="43.00113" lon="-0.07849">
        <ele>443.4</ele>
        <time>2021-10-09T02:46:29</time>
      </trkpt>
      <trkpt lat="43.00119" lon="-0.07852">
        <ele>443.6</ele>
        <time>2021-10-09T02:46:30</time>
      </trkpt>
      <trkpt lat="43.00125" lon="-0.07855">
        <ele>443.6</ele>
        <time>2021-10-09T02:46:31</time>
      </trkpt>
      <trkpt lat="43.00132" lon="-0.07859">
        <ele>443.6</ele>
        <time>2021-10-09T02:46:32</time>
      </trkpt>
      <trkpt lat="43.00138" lon="-0.07862">
        <ele>443.6</ele>
        <time>2021-10-09T02:46:33</time>
      </trkpt>
      <trkpt lat="43.00144" lon="-0.07865">
        <ele>443.6</ele>
        <time>2021-10-09T02:46:34</time>
      </trkpt>
      <trkpt lat="43.0015" lon="-0.07867">
        <ele>443.6</ele>
        <time>2021-10-09T02:46:35</time>
      </trkpt>
      <trkpt lat="43.00156" lon="-0.07869">
        <ele>443.6</ele>
        <time>2021-10-09T02:46:36</time>
      </trkpt>
      <trkpt lat="43.00163" lon="-0.07871">
        <ele>443.6</ele>
        <time>2021-10-09T02:46:37</time>
      </trkpt>
      <trkpt lat="43.00169" lon="-0.07872">
        <ele>443.6</ele>
        <time>2021-10-09T02:46:38</time>
      </trkpt>
      <trkpt lat="43.00175" lon="-0.07874">
        <ele>443.6</ele>
        <time>2021-10-09T02:46:39</time>
      </trkpt>
      <trkpt lat="43.00182" lon="-0.07876">
        <ele>443.6</ele>
        <time>2021-10-09T02:46:40</time>
      </trkpt>
      <trkpt lat="43.00188" lon="-0.07878">
        <ele>443.6</ele>
        <time>2021-10-09T02:46:41</time>
      </trkpt>
      <trkpt lat="43.00194" lon="-0.07879">
        <ele>443.6</ele>
        <time>2021-10-09T02:46:42</time>
      </trkpt>
      <trkpt lat="43.002" lon="-0.0788">
        <ele>443.6</ele>
        <time>2021-10-09T02:46:43</time>
      </trkpt>
      <trkpt lat="43.00206" lon="-0.07881">
        <ele>443.8</ele>
        <time>2021-10-09T02:46:44</time>
      </trkpt>
      <trkpt lat="43.00212" lon="-0.07882">
        <ele>443.8</ele>
        <time>2021-10-09T02:46:45</time>
      </trkpt>
      <trkpt lat="43.00218" lon="-0.07882">
        <ele>443.8</ele>
        <time>2021-10-09T02:46:46</time>
      </trkpt>
      <trkpt lat="43.00224" lon="-0.07882">
        <ele>443.8</ele>
        <time>2021-10-09T02:46:47</time>
      </trkpt>
      <trkpt lat="43.00229" lon="-0.07885">
        <ele>443.8</ele>
        <time>2021-10-09T02:46:48</time>
      </trkpt>
      <trkpt lat="43.00235" lon="-0.07887">
        <ele>443.8</ele>
        <time>2021-10-09T02:46:49</time>
      </trkpt>
      <trkpt lat="43.00241" lon="-0.07889">
        <ele>443.8</ele>
        <time>2021-10-09T02:46:50</time>
      </trkpt>
      <trkpt lat="43.00246" lon="-0.0789">
        <ele>443.8</ele>
        <time>2021-10-09T02:46:51</time>
      </trkpt>
      <trkpt lat="43.00252" lon="-0.07892">
        <ele>443.8</ele>
        <time>2021-10-09T02:46:52</time>
      </trkpt>
      <trkpt lat="43.00259" lon="-0.07893">
        <ele>443.8</ele>
        <time>2021-10-09T02:46:53</time>
      </trkpt>
      <trkpt lat="43.00266" lon="-0.07893">
        <ele>444</ele>
        <time>2021-10-09T02:46:54</time>
      </trkpt>
      <trkpt lat="43.00273" lon="-0.07894">
        <ele>444</ele>
        <time>2021-10-09T02:46:55</time>
      </trkpt>
      <trkpt lat="43.00279" lon="-0.07895">
        <ele>444</ele>
        <time>2021-10-09T02:46:57</time>
      </trkpt>
      <trkpt lat="43.00291" lon="-0.07898">
        <ele>443.8</ele>
        <time>2021-10-09T02:46:58</time>
      </trkpt>
      <trkpt lat="43.00296" lon="-0.07901">
        <ele>443.8</ele>
        <time>2021-10-09T02:46:59</time>
      </trkpt>
      <trkpt lat="43.003" lon="-0.07906">
        <ele>443.8</ele>
        <time>2021-10-09T02:47:00</time>
      </trkpt>
      <trkpt lat="43.00305" lon="-0.0791">
        <ele>443.8</ele>
        <time>2021-10-09T02:47:02</time>
      </trkpt>
      <trkpt lat="43.00315" lon="-0.07918">
        <ele>443.8</ele>
        <time>2021-10-09T02:47:03</time>
      </trkpt>
      <trkpt lat="43.00319" lon="-0.07922">
        <ele>443.6</ele>
        <time>2021-10-09T02:47:04</time>
      </trkpt>
      <trkpt lat="43.00325" lon="-0.07924">
        <ele>443.6</ele>
        <time>2021-10-09T02:47:05</time>
      </trkpt>
      <trkpt lat="43.00329" lon="-0.07927">
        <ele>443.6</ele>
        <time>2021-10-09T02:47:06</time>
      </trkpt>
      <trkpt lat="43.00334" lon="-0.07929">
        <ele>443.8</ele>
        <time>2021-10-09T02:47:08</time>
      </trkpt>
      <trkpt lat="43.00342" lon="-0.07933">
        <ele>444</ele>
        <time>2021-10-09T02:47:09</time>
      </trkpt>
      <trkpt lat="43.00346" lon="-0.07934">
        <ele>443.8</ele>
        <time>2021-10-09T02:47:10</time>
      </trkpt>
      <trkpt lat="43.0035" lon="-0.07936">
        <ele>443.8</ele>
        <time>2021-10-09T02:47:11</time>
      </trkpt>
      <trkpt lat="43.00354" lon="-0.07937">
        <ele>443.8</ele>
        <time>2021-10-09T02:47:13</time>
      </trkpt>
      <trkpt lat="43.00361" lon="-0.07941">
        <ele>443.6</ele>
        <time>2021-10-09T02:47:14</time>
      </trkpt>
      <trkpt lat="43.00363" lon="-0.07943">
        <ele>443.8</ele>
        <time>2021-10-09T02:47:15</time>
      </trkpt>
      <trkpt lat="43.00365" lon="-0.07946">
        <ele>443.8</ele>
        <time>2021-10-09T02:47:16</time>
      </trkpt>
      <trkpt lat="43.00367" lon="-0.07949">
        <ele>443.8</ele>
        <time>2021-10-09T02:47:17</time>
      </trkpt>
      <trkpt lat="43.00369" lon="-0.07951">
        <ele>443.6</ele>
        <time>2021-10-09T02:47:19</time>
      </trkpt>
      <trkpt lat="43.00374" lon="-0.07954">
        <ele>443.6</ele>
        <time>2021-10-09T02:47:20</time>
      </trkpt>
      <trkpt lat="43.00377" lon="-0.07956">
        <ele>443.6</ele>
        <time>2021-10-09T02:47:21</time>
      </trkpt>
      <trkpt lat="43.00379" lon="-0.07957">
        <ele>443.6</ele>
        <time>2021-10-09T02:47:22</time>
      </trkpt>
      <trkpt lat="43.00381" lon="-0.0796">
        <ele>443.4</ele>
        <time>2021-10-09T02:47:24</time>
      </trkpt>
      <trkpt lat="43.00385" lon="-0.07962">
        <ele>443.2</ele>
        <time>2021-10-09T02:47:25</time>
      </trkpt>
      <trkpt lat="43.00386" lon="-0.07961">
        <ele>443.4</ele>
        <time>2021-10-09T02:47:26</time>
      </trkpt>
      <trkpt lat="43.00386" lon="-0.07961">
        <ele>443.4</ele>
        <time>2021-10-09T02:47:27</time>
      </trkpt>
      <trkpt lat="43.00387" lon="-0.07961">
        <ele>443.4</ele>
        <time>2021-10-09T02:47:28</time>
      </trkpt>
      <trkpt lat="43.00387" lon="-0.07962">
        <ele>443.4</ele>
        <time>2021-10-09T02:47:29</time>
      </trkpt>
      <trkpt lat="43.00387" lon="-0.07962">
        <ele>443.4</ele>
        <time>2021-10-09T02:47:30</time>
      </trkpt>
      <trkpt lat="43.00388" lon="-0.07962">
        <ele>443.4</ele>
        <time>2021-10-09T02:47:31</time>
      </trkpt>
      <trkpt lat="43.00388" lon="-0.07962">
        <ele>443.4</ele>
        <time>2021-10-09T02:47:32</time>
      </trkpt>
      <trkpt lat="43.00388" lon="-0.07963">
        <ele>443.4</ele>
        <time>2021-10-09T02:47:34</time>
      </trkpt>
    </trkseg>
  </trk>
</gpx>